<?xml version='1.0' encoding='UTF-8'?><gpx version="1.1" creator="JPX - https://github.com/jenetics/jpx" xmlns="http://www.topografix.com/GPX/1/1"><trk><trkseg><trkpt lat="44.0488334" lon="12.5862253"><ele>3.9999999999999996</ele><time>2026-04-12T06:39:55.658Z</time></trkpt><trkpt lat="44.0487737" lon="12.5862541"><ele>4.0</ele><time>2026-04-12T06:40:08.688Z</time></trkpt><trkpt lat="44.0487963" lon="12.5863405"><ele>4.0</ele><time>2026-04-12T06:40:23.7Z</time></trkpt><trkpt lat="44.04886" lon="12.5862803"><ele>4.0</ele><time>2026-04-12T06:40:27.644Z</time></trkpt><trkpt lat="44.0489447" lon="12.5863244"><ele>3.9999999999999996</ele><time>2026-04-12T06:40:30.54Z</time></trkpt><trkpt lat="44.0489716" lon="12.5864041"><ele>4.0</ele><time>2026-04-12T06:40:31.704Z</time></trkpt><trkpt lat="44.04885" lon="12.5865958"><ele>4.0</ele><time>2026-04-12T06:40:32.604Z</time></trkpt><trkpt lat="44.0489426" lon="12.5864904"><ele>4.0</ele><time>2026-04-12T06:40:34.603Z</time></trkpt><trkpt lat="44.0490141" lon="12.586402"><ele>4.0</ele><time>2026-04-12T06:40:35.604Z</time></trkpt><trkpt lat="44.0490831" lon="12.5863146"><ele>4.0</ele><time>2026-04-12T06:40:36.603Z</time></trkpt><trkpt lat="44.049144" lon="12.5862354"><ele>4.0</ele><time>2026-04-12T06:40:37.604Z</time></trkpt><trkpt lat="44.0491959" lon="12.5861745"><ele>4.4</ele><time>2026-04-12T06:40:38.603Z</time></trkpt><trkpt lat="44.0492569" lon="12.5860926"><ele>4.800000000000001</ele><time>2026-04-12T06:40:40.604Z</time></trkpt><trkpt lat="44.0492459" lon="12.5859461"><ele>5.199999999999999</ele><time>2026-04-12T06:40:46.606Z</time></trkpt><trkpt lat="44.0491986" lon="12.585825"><ele>5.6</ele><time>2026-04-12T06:40:47.606Z</time></trkpt><trkpt lat="44.0491378" lon="12.585717"><ele>6.0</ele><time>2026-04-12T06:40:48.606Z</time></trkpt><trkpt lat="44.0490769" lon="12.5856086"><ele>6.0</ele><time>2026-04-12T06:40:49.606Z</time></trkpt><trkpt lat="44.0490055" lon="12.5855032"><ele>6.0</ele><time>2026-04-12T06:40:50.606Z</time></trkpt><trkpt lat="44.0489306" lon="12.5854017"><ele>6.0</ele><time>2026-04-12T06:40:51.605Z</time></trkpt><trkpt lat="44.0488531" lon="12.5853023"><ele>6.0</ele><time>2026-04-12T06:40:52.606Z</time></trkpt><trkpt lat="44.0487782" lon="12.5851968"><ele>6.0</ele><time>2026-04-12T06:40:53.605Z</time></trkpt><trkpt lat="44.0487081" lon="12.5851009"><ele>6.166666666666667</ele><time>2026-04-12T06:40:54.605Z</time></trkpt><trkpt lat="44.0486422" lon="12.585015"><ele>6.333333333333334</ele><time>2026-04-12T06:40:55.606Z</time></trkpt><trkpt lat="44.0485729" lon="12.5849371"><ele>6.5</ele><time>2026-04-12T06:40:56.605Z</time></trkpt><trkpt lat="44.0485099" lon="12.5848618"><ele>6.666666666666667</ele><time>2026-04-12T06:40:57.606Z</time></trkpt><trkpt lat="44.0484499" lon="12.5847982"><ele>6.833333333333334</ele><time>2026-04-12T06:40:58.606Z</time></trkpt><trkpt lat="44.0483937" lon="12.584742"><ele>7.0</ele><time>2026-04-12T06:40:59.606Z</time></trkpt><trkpt lat="44.0483329" lon="12.5846627"><ele>7.0</ele><time>2026-04-12T06:41:00.606Z</time></trkpt><trkpt lat="44.0482617" lon="12.5845673"><ele>6.999999999999999</ele><time>2026-04-12T06:41:01.606Z</time></trkpt><trkpt lat="44.0481869" lon="12.5844666"><ele>6.999999999999999</ele><time>2026-04-12T06:41:02.606Z</time></trkpt><trkpt lat="44.0481188" lon="12.584372"><ele>7.0</ele><time>2026-04-12T06:41:03.606Z</time></trkpt><trkpt lat="44.0480648" lon="12.5842968"><ele>7.0</ele><time>2026-04-12T06:41:04.605Z</time></trkpt><trkpt lat="44.0480142" lon="12.5841644"><ele>7.5</ele><time>2026-04-12T06:41:06.606Z</time></trkpt><trkpt lat="44.0480459" lon="12.5839999"><ele>8.0</ele><time>2026-04-12T06:41:08.606Z</time></trkpt><trkpt lat="44.0481158" lon="12.5838801"><ele>8.5</ele><time>2026-04-12T06:41:09.605Z</time></trkpt><trkpt lat="44.0482118" lon="12.5837435"><ele>9.0</ele><time>2026-04-12T06:41:10.606Z</time></trkpt><trkpt lat="44.0483047" lon="12.5836158"><ele>8.2</ele><time>2026-04-12T06:41:11.606Z</time></trkpt><trkpt lat="44.0483865" lon="12.5835078"><ele>7.4</ele><time>2026-04-12T06:41:12.605Z</time></trkpt><trkpt lat="44.0484492" lon="12.5834304"><ele>6.6</ele><time>2026-04-12T06:41:13.606Z</time></trkpt><trkpt lat="44.0485194" lon="12.5833214"><ele>5.8</ele><time>2026-04-12T06:41:15.606Z</time></trkpt><trkpt lat="44.0484774" lon="12.5831951"><ele>5.0</ele><time>2026-04-12T06:41:17.605Z</time></trkpt><trkpt lat="44.0484072" lon="12.5831158"><ele>5.0</ele><time>2026-04-12T06:41:18.606Z</time></trkpt><trkpt lat="44.0483283" lon="12.5830253"><ele>5.0</ele><time>2026-04-12T06:41:19.605Z</time></trkpt><trkpt lat="44.0482468" lon="12.5829318"><ele>5.0</ele><time>2026-04-12T06:41:20.606Z</time></trkpt><trkpt lat="44.0481727" lon="12.582844"><ele>5.0</ele><time>2026-04-12T06:41:21.606Z</time></trkpt><trkpt lat="44.0481081" lon="12.5827643"><ele>5.0</ele><time>2026-04-12T06:41:22.606Z</time></trkpt><trkpt lat="44.048049" lon="12.5826908"><ele>5.285714285714286</ele><time>2026-04-12T06:41:23.606Z</time></trkpt><trkpt lat="44.0479964" lon="12.5826264"><ele>5.571428571428571</ele><time>2026-04-12T06:41:24.606Z</time></trkpt><trkpt lat="44.0479478" lon="12.5825652"><ele>5.857142857142858</ele><time>2026-04-12T06:41:25.606Z</time></trkpt><trkpt lat="44.0478952" lon="12.5825028"><ele>6.142857142857142</ele><time>2026-04-12T06:41:26.606Z</time></trkpt><trkpt lat="44.0478421" lon="12.5824397"><ele>6.428571428571429</ele><time>2026-04-12T06:41:27.606Z</time></trkpt><trkpt lat="44.0477872" lon="12.5823673"><ele>6.714285714285714</ele><time>2026-04-12T06:41:28.605Z</time></trkpt><trkpt lat="44.0477332" lon="12.5822912"><ele>7.0</ele><time>2026-04-12T06:41:29.606Z</time></trkpt><trkpt lat="44.0476776" lon="12.5822186"><ele>7.000000000000001</ele><time>2026-04-12T06:41:30.606Z</time></trkpt><trkpt lat="44.0476274" lon="12.5821585"><ele>7.0</ele><time>2026-04-12T06:41:31.606Z</time></trkpt><trkpt lat="44.0475792" lon="12.5821009"><ele>7.0</ele><time>2026-04-12T06:41:32.606Z</time></trkpt><trkpt lat="44.0474996" lon="12.5820039"><ele>7.0</ele><time>2026-04-12T06:41:34.605Z</time></trkpt><trkpt lat="44.0474058" lon="12.5818777"><ele>7.000000000000001</ele><time>2026-04-12T06:41:36.606Z</time></trkpt><trkpt lat="44.0473477" lon="12.5818085"><ele>7.0</ele><time>2026-04-12T06:41:37.605Z</time></trkpt><trkpt lat="44.0472998" lon="12.5817473"><ele>7.000000000000001</ele><time>2026-04-12T06:41:38.605Z</time></trkpt><trkpt lat="44.0472398" lon="12.5816799"><ele>7.0</ele><time>2026-04-12T06:41:40.606Z</time></trkpt><trkpt lat="44.0471987" lon="12.5816051"><ele>7.0</ele><time>2026-04-12T06:41:45.659Z</time></trkpt><trkpt lat="44.0472434" lon="12.5815038"><ele>7.0</ele><time>2026-04-12T06:41:47.631Z</time></trkpt><trkpt lat="44.0472794" lon="12.5814003"><ele>7.000000000000001</ele><time>2026-04-12T06:41:48.617Z</time></trkpt><trkpt lat="44.0473371" lon="12.5813242"><ele>7.0</ele><time>2026-04-12T06:41:49.606Z</time></trkpt><trkpt lat="44.0474084" lon="12.5812"><ele>7.25</ele><time>2026-04-12T06:41:50.605Z</time></trkpt><trkpt lat="44.0474947" lon="12.5810686"><ele>7.5</ele><time>2026-04-12T06:41:51.605Z</time></trkpt><trkpt lat="44.047596" lon="12.580911"><ele>7.75</ele><time>2026-04-12T06:41:52.606Z</time></trkpt><trkpt lat="44.0476843" lon="12.5807547"><ele>8.0</ele><time>2026-04-12T06:41:53.606Z</time></trkpt><trkpt lat="44.047773" lon="12.5806125"><ele>7.999999999999999</ele><time>2026-04-12T06:41:54.606Z</time></trkpt><trkpt lat="44.0478451" lon="12.5804955"><ele>8.0</ele><time>2026-04-12T06:41:55.605Z</time></trkpt><trkpt lat="44.047904" lon="12.5804006"><ele>8.0</ele><time>2026-04-12T06:41:56.606Z</time></trkpt><trkpt lat="44.0479453" lon="12.5803318"><ele>8.0</ele><time>2026-04-12T06:41:57.606Z</time></trkpt><trkpt lat="44.0480151" lon="12.5802992"><ele>7.999999999999999</ele><time>2026-04-12T06:42:00.625Z</time></trkpt><trkpt lat="44.0480387" lon="12.5801672"><ele>8.0</ele><time>2026-04-12T06:42:02.606Z</time></trkpt><trkpt lat="44.048122" lon="12.5800623"><ele>7.75</ele><time>2026-04-12T06:42:04.606Z</time></trkpt><trkpt lat="44.0480939" lon="12.5799227"><ele>7.5</ele><time>2026-04-12T06:42:08.697Z</time></trkpt><trkpt lat="44.0479875" lon="12.5797745"><ele>7.25</ele><time>2026-04-12T06:42:09.606Z</time></trkpt><trkpt lat="44.0478512" lon="12.579595"><ele>7.0</ele><time>2026-04-12T06:42:10.605Z</time></trkpt><trkpt lat="44.0476951" lon="12.5793786"><ele>6.666666666666667</ele><time>2026-04-12T06:42:11.605Z</time></trkpt><trkpt lat="44.0475338" lon="12.5791535"><ele>6.333333333333334</ele><time>2026-04-12T06:42:12.606Z</time></trkpt><trkpt lat="44.0473791" lon="12.5789341"><ele>6.0</ele><time>2026-04-12T06:42:13.606Z</time></trkpt><trkpt lat="44.0472311" lon="12.5787212"><ele>6.0</ele><time>2026-04-12T06:42:14.606Z</time></trkpt><trkpt lat="44.0470793" lon="12.5785027"><ele>6.0</ele><time>2026-04-12T06:42:15.606Z</time></trkpt><trkpt lat="44.0469228" lon="12.5782867"><ele>6.0</ele><time>2026-04-12T06:42:16.606Z</time></trkpt><trkpt lat="44.0467651" lon="12.578076"><ele>6.0</ele><time>2026-04-12T06:42:17.606Z</time></trkpt><trkpt lat="44.0466242" lon="12.5778748"><ele>6.0</ele><time>2026-04-12T06:42:18.606Z</time></trkpt><trkpt lat="44.0464869" lon="12.5776924"><ele>6.0</ele><time>2026-04-12T06:42:19.605Z</time></trkpt><trkpt lat="44.0463554" lon="12.5775201"><ele>6.666666666666666</ele><time>2026-04-12T06:42:20.606Z</time></trkpt><trkpt lat="44.0462318" lon="12.5773618"><ele>7.333333333333333</ele><time>2026-04-12T06:42:21.606Z</time></trkpt><trkpt lat="44.0461237" lon="12.5772113"><ele>8.0</ele><time>2026-04-12T06:42:22.606Z</time></trkpt><trkpt lat="44.0460211" lon="12.5770712"><ele>8.0</ele><time>2026-04-12T06:42:23.606Z</time></trkpt><trkpt lat="44.0459255" lon="12.5769346"><ele>8.0</ele><time>2026-04-12T06:42:24.606Z</time></trkpt><trkpt lat="44.0458308" lon="12.5768009"><ele>8.0</ele><time>2026-04-12T06:42:25.605Z</time></trkpt><trkpt lat="44.0457317" lon="12.5766617"><ele>8.0</ele><time>2026-04-12T06:42:26.606Z</time></trkpt><trkpt lat="44.0456383" lon="12.57653"><ele>8.0</ele><time>2026-04-12T06:42:27.606Z</time></trkpt><trkpt lat="44.0455567" lon="12.5764133"><ele>8.0</ele><time>2026-04-12T06:42:28.605Z</time></trkpt><trkpt lat="44.0454983" lon="12.5763017"><ele>8.0</ele><time>2026-04-12T06:42:29.606Z</time></trkpt><trkpt lat="44.0454567" lon="12.5761933"><ele>8.0</ele><time>2026-04-12T06:42:30.605Z</time></trkpt><trkpt lat="44.0454383" lon="12.5760883"><ele>8.0</ele><time>2026-04-12T06:42:31.606Z</time></trkpt><trkpt lat="44.0454483" lon="12.5759733"><ele>7.999999999999999</ele><time>2026-04-12T06:42:32.606Z</time></trkpt><trkpt lat="44.045445" lon="12.5758667"><ele>8.0</ele><time>2026-04-12T06:42:33.605Z</time></trkpt><trkpt lat="44.0454183" lon="12.5757783"><ele>8.0</ele><time>2026-04-12T06:42:34.606Z</time></trkpt><trkpt lat="44.045365" lon="12.5757133"><ele>8.0</ele><time>2026-04-12T06:42:35.606Z</time></trkpt><trkpt lat="44.04528" lon="12.5756717"><ele>7.999999999999999</ele><time>2026-04-12T06:42:36.606Z</time></trkpt><trkpt lat="44.0451833" lon="12.5756317"><ele>8.0</ele><time>2026-04-12T06:42:37.606Z</time></trkpt><trkpt lat="44.0450767" lon="12.5755567"><ele>9.0</ele><time>2026-04-12T06:42:38.605Z</time></trkpt><trkpt lat="44.0449583" lon="12.5754417"><ele>10.0</ele><time>2026-04-12T06:42:39.606Z</time></trkpt><trkpt lat="44.0448233" lon="12.57526"><ele>11.0</ele><time>2026-04-12T06:42:40.605Z</time></trkpt><trkpt lat="44.0446917" lon="12.5750667"><ele>11.0</ele><time>2026-04-12T06:42:41.606Z</time></trkpt><trkpt lat="44.0445633" lon="12.5748817"><ele>11.0</ele><time>2026-04-12T06:42:42.606Z</time></trkpt><trkpt lat="44.04444" lon="12.57471"><ele>11.0</ele><time>2026-04-12T06:42:43.606Z</time></trkpt><trkpt lat="44.04432" lon="12.5745417"><ele>11.333333333333332</ele><time>2026-04-12T06:42:44.605Z</time></trkpt><trkpt lat="44.0442083" lon="12.5743867"><ele>11.666666666666666</ele><time>2026-04-12T06:42:45.606Z</time></trkpt><trkpt lat="44.0440967" lon="12.57424"><ele>12.0</ele><time>2026-04-12T06:42:46.605Z</time></trkpt><trkpt lat="44.043985" lon="12.5740867"><ele>11.333333333333334</ele><time>2026-04-12T06:42:47.606Z</time></trkpt><trkpt lat="44.0438733" lon="12.5739217"><ele>10.666666666666668</ele><time>2026-04-12T06:42:48.605Z</time></trkpt><trkpt lat="44.043755" lon="12.5737533"><ele>10.0</ele><time>2026-04-12T06:42:49.605Z</time></trkpt><trkpt lat="44.04363" lon="12.573575"><ele>10.0</ele><time>2026-04-12T06:42:50.606Z</time></trkpt><trkpt lat="44.043495" lon="12.573385"><ele>10.0</ele><time>2026-04-12T06:42:51.606Z</time></trkpt><trkpt lat="44.0433567" lon="12.5731783"><ele>10.0</ele><time>2026-04-12T06:42:52.606Z</time></trkpt><trkpt lat="44.0432067" lon="12.57297"><ele>10.0</ele><time>2026-04-12T06:42:53.606Z</time></trkpt><trkpt lat="44.04307" lon="12.5727767"><ele>10.0</ele><time>2026-04-12T06:42:54.606Z</time></trkpt><trkpt lat="44.0429433" lon="12.5725867"><ele>10.0</ele><time>2026-04-12T06:42:55.606Z</time></trkpt><trkpt lat="44.0428267" lon="12.5724167"><ele>10.0</ele><time>2026-04-12T06:42:56.605Z</time></trkpt><trkpt lat="44.0427267" lon="12.5722583"><ele>10.0</ele><time>2026-04-12T06:42:57.606Z</time></trkpt><trkpt lat="44.0426417" lon="12.572105"><ele>10.0</ele><time>2026-04-12T06:42:58.606Z</time></trkpt><trkpt lat="44.0425617" lon="12.5719633"><ele>10.0</ele><time>2026-04-12T06:42:59.606Z</time></trkpt><trkpt lat="44.0424933" lon="12.57184"><ele>10.0</ele><time>2026-04-12T06:43:00.605Z</time></trkpt><trkpt lat="44.0424233" lon="12.5717433"><ele>10.0</ele><time>2026-04-12T06:43:01.606Z</time></trkpt><trkpt lat="44.04236" lon="12.5716617"><ele>10.0</ele><time>2026-04-12T06:43:02.605Z</time></trkpt><trkpt lat="44.0423167" lon="12.5715833"><ele>10.0</ele><time>2026-04-12T06:43:03.605Z</time></trkpt><trkpt lat="44.0422917" lon="12.5714933"><ele>10.0</ele><time>2026-04-12T06:43:04.606Z</time></trkpt><trkpt lat="44.0422917" lon="12.57136"><ele>10.0</ele><time>2026-04-12T06:43:05.606Z</time></trkpt><trkpt lat="44.0422983" lon="12.5711983"><ele>10.0</ele><time>2026-04-12T06:43:06.605Z</time></trkpt><trkpt lat="44.0423067" lon="12.5710317"><ele>10.0</ele><time>2026-04-12T06:43:07.605Z</time></trkpt><trkpt lat="44.0422883" lon="12.5708583"><ele>10.0</ele><time>2026-04-12T06:43:08.605Z</time></trkpt><trkpt lat="44.0422467" lon="12.5706933"><ele>10.0</ele><time>2026-04-12T06:43:09.606Z</time></trkpt><trkpt lat="44.0422017" lon="12.5705233"><ele>9.0</ele><time>2026-04-12T06:43:10.606Z</time></trkpt><trkpt lat="44.0421833" lon="12.5703417"><ele>8.0</ele><time>2026-04-12T06:43:11.606Z</time></trkpt><trkpt lat="44.042185" lon="12.5701233"><ele>7.0</ele><time>2026-04-12T06:43:12.606Z</time></trkpt><trkpt lat="44.042205" lon="12.56986"><ele>7.0</ele><time>2026-04-12T06:43:13.606Z</time></trkpt><trkpt lat="44.04222" lon="12.5695467"><ele>7.0</ele><time>2026-04-12T06:43:14.606Z</time></trkpt><trkpt lat="44.042235" lon="12.56922"><ele>8.0</ele><time>2026-04-12T06:43:15.606Z</time></trkpt><trkpt lat="44.042245" lon="12.56888"><ele>9.0</ele><time>2026-04-12T06:43:16.606Z</time></trkpt><trkpt lat="44.0422533" lon="12.5685383"><ele>10.5</ele><time>2026-04-12T06:43:17.606Z</time></trkpt><trkpt lat="44.0422617" lon="12.56819"><ele>12.0</ele><time>2026-04-12T06:43:18.605Z</time></trkpt><trkpt lat="44.04228" lon="12.5678217"><ele>12.0</ele><time>2026-04-12T06:43:19.606Z</time></trkpt><trkpt lat="44.042315" lon="12.5674533"><ele>12.0</ele><time>2026-04-12T06:43:20.606Z</time></trkpt><trkpt lat="44.0423633" lon="12.5671133"><ele>10.5</ele><time>2026-04-12T06:43:21.606Z</time></trkpt><trkpt lat="44.0424183" lon="12.566795"><ele>9.0</ele><time>2026-04-12T06:43:22.606Z</time></trkpt><trkpt lat="44.0424683" lon="12.5664867"><ele>9.0</ele><time>2026-04-12T06:43:23.606Z</time></trkpt><trkpt lat="44.0425217" lon="12.5661933"><ele>9.0</ele><time>2026-04-12T06:43:24.606Z</time></trkpt><trkpt lat="44.0425783" lon="12.5659067"><ele>9.0</ele><time>2026-04-12T06:43:25.606Z</time></trkpt><trkpt lat="44.0426333" lon="12.5656283"><ele>9.0</ele><time>2026-04-12T06:43:26.605Z</time></trkpt><trkpt lat="44.04269" lon="12.5653567"><ele>9.0</ele><time>2026-04-12T06:43:27.606Z</time></trkpt><trkpt lat="44.0427567" lon="12.565095"><ele>9.0</ele><time>2026-04-12T06:43:28.605Z</time></trkpt><trkpt lat="44.0428217" lon="12.564835"><ele>9.0</ele><time>2026-04-12T06:43:29.606Z</time></trkpt><trkpt lat="44.0428917" lon="12.5645783"><ele>9.0</ele><time>2026-04-12T06:43:30.606Z</time></trkpt><trkpt lat="44.0429583" lon="12.5643067"><ele>9.0</ele><time>2026-04-12T06:43:31.605Z</time></trkpt><trkpt lat="44.043025" lon="12.5640283"><ele>8.666666666666666</ele><time>2026-04-12T06:43:32.606Z</time></trkpt><trkpt lat="44.0430983" lon="12.56374"><ele>8.333333333333332</ele><time>2026-04-12T06:43:33.606Z</time></trkpt><trkpt lat="44.0431767" lon="12.563445"><ele>8.0</ele><time>2026-04-12T06:43:34.605Z</time></trkpt><trkpt lat="44.043255" lon="12.56315"><ele>9.0</ele><time>2026-04-12T06:43:35.606Z</time></trkpt><trkpt lat="44.0433317" lon="12.56285"><ele>10.0</ele><time>2026-04-12T06:43:36.606Z</time></trkpt><trkpt lat="44.043415" lon="12.5625367"><ele>10.0</ele><time>2026-04-12T06:43:37.606Z</time></trkpt><trkpt lat="44.0434983" lon="12.562205"><ele>10.0</ele><time>2026-04-12T06:43:38.606Z</time></trkpt><trkpt lat="44.0435817" lon="12.5618833"><ele>10.666666666666668</ele><time>2026-04-12T06:43:39.606Z</time></trkpt><trkpt lat="44.0436633" lon="12.5615883"><ele>11.333333333333334</ele><time>2026-04-12T06:43:40.606Z</time></trkpt><trkpt lat="44.0437383" lon="12.56131"><ele>12.0</ele><time>2026-04-12T06:43:41.605Z</time></trkpt><trkpt lat="44.0438117" lon="12.5610517"><ele>12.0</ele><time>2026-04-12T06:43:42.606Z</time></trkpt><trkpt lat="44.0438767" lon="12.5608117"><ele>12.0</ele><time>2026-04-12T06:43:43.606Z</time></trkpt><trkpt lat="44.043935" lon="12.5606"><ele>12.0</ele><time>2026-04-12T06:43:44.605Z</time></trkpt><trkpt lat="44.0439883" lon="12.5604367"><ele>12.0</ele><time>2026-04-12T06:43:45.605Z</time></trkpt><trkpt lat="44.0440283" lon="12.56032"><ele>12.0</ele><time>2026-04-12T06:43:46.605Z</time></trkpt><trkpt lat="44.0440583" lon="12.5602383"><ele>12.0</ele><time>2026-04-12T06:43:47.606Z</time></trkpt><trkpt lat="44.0441483" lon="12.56009"><ele>12.0</ele><time>2026-04-12T06:43:49.606Z</time></trkpt><trkpt lat="44.0442167" lon="12.5599817"><ele>12.0</ele><time>2026-04-12T06:43:50.605Z</time></trkpt><trkpt lat="44.0442733" lon="12.5598417"><ele>12.333333333333332</ele><time>2026-04-12T06:43:51.605Z</time></trkpt><trkpt lat="44.0443083" lon="12.5596717"><ele>12.666666666666666</ele><time>2026-04-12T06:43:52.605Z</time></trkpt><trkpt lat="44.0443167" lon="12.55945"><ele>13.0</ele><time>2026-04-12T06:43:53.605Z</time></trkpt><trkpt lat="44.0443383" lon="12.55918"><ele>12.0</ele><time>2026-04-12T06:43:54.606Z</time></trkpt><trkpt lat="44.0443883" lon="12.5588833"><ele>11.0</ele><time>2026-04-12T06:43:55.606Z</time></trkpt><trkpt lat="44.04446" lon="12.5585733"><ele>11.0</ele><time>2026-04-12T06:43:56.606Z</time></trkpt><trkpt lat="44.04454" lon="12.5582533"><ele>11.0</ele><time>2026-04-12T06:43:57.605Z</time></trkpt><trkpt lat="44.0446333" lon="12.5579167"><ele>11.0</ele><time>2026-04-12T06:43:58.605Z</time></trkpt><trkpt lat="44.044725" lon="12.5575867"><ele>11.0</ele><time>2026-04-12T06:43:59.606Z</time></trkpt><trkpt lat="44.04481" lon="12.5572667"><ele>10.0</ele><time>2026-04-12T06:44:00.606Z</time></trkpt><trkpt lat="44.0449" lon="12.5569567"><ele>9.0</ele><time>2026-04-12T06:44:01.606Z</time></trkpt><trkpt lat="44.04498" lon="12.55666"><ele>9.0</ele><time>2026-04-12T06:44:02.606Z</time></trkpt><trkpt lat="44.0450567" lon="12.55638"><ele>9.0</ele><time>2026-04-12T06:44:03.606Z</time></trkpt><trkpt lat="44.0451233" lon="12.5561233"><ele>9.0</ele><time>2026-04-12T06:44:04.606Z</time></trkpt><trkpt lat="44.0451867" lon="12.555875"><ele>9.333333333333334</ele><time>2026-04-12T06:44:05.605Z</time></trkpt><trkpt lat="44.0452467" lon="12.55564"><ele>9.666666666666668</ele><time>2026-04-12T06:44:06.606Z</time></trkpt><trkpt lat="44.0453" lon="12.555415"><ele>10.0</ele><time>2026-04-12T06:44:07.606Z</time></trkpt><trkpt lat="44.0453583" lon="12.5551967"><ele>10.333333333333334</ele><time>2026-04-12T06:44:08.605Z</time></trkpt><trkpt lat="44.04542" lon="12.55498"><ele>10.666666666666666</ele><time>2026-04-12T06:44:09.605Z</time></trkpt><trkpt lat="44.0454833" lon="12.55477"><ele>11.0</ele><time>2026-04-12T06:44:10.605Z</time></trkpt><trkpt lat="44.0455417" lon="12.5545783"><ele>11.5</ele><time>2026-04-12T06:44:11.606Z</time></trkpt><trkpt lat="44.045595" lon="12.5543983"><ele>12.0</ele><time>2026-04-12T06:44:12.606Z</time></trkpt><trkpt lat="44.045655" lon="12.5542283"><ele>12.5</ele><time>2026-04-12T06:44:13.606Z</time></trkpt><trkpt lat="44.0457117" lon="12.5540617"><ele>13.0</ele><time>2026-04-12T06:44:14.606Z</time></trkpt><trkpt lat="44.0457717" lon="12.5539"><ele>12.0</ele><time>2026-04-12T06:44:15.606Z</time></trkpt><trkpt lat="44.04583" lon="12.553755"><ele>11.0</ele><time>2026-04-12T06:44:16.606Z</time></trkpt><trkpt lat="44.0458933" lon="12.553615"><ele>10.0</ele><time>2026-04-12T06:44:17.605Z</time></trkpt><trkpt lat="44.045955" lon="12.5534867"><ele>9.0</ele><time>2026-04-12T06:44:18.606Z</time></trkpt><trkpt lat="44.04601" lon="12.553365"><ele>9.0</ele><time>2026-04-12T06:44:19.606Z</time></trkpt><trkpt lat="44.0460883" lon="12.5532683"><ele>9.0</ele><time>2026-04-12T06:44:20.606Z</time></trkpt><trkpt lat="44.0461733" lon="12.5531983"><ele>9.0</ele><time>2026-04-12T06:44:21.605Z</time></trkpt><trkpt lat="44.046255" lon="12.55316"><ele>9.0</ele><time>2026-04-12T06:44:22.606Z</time></trkpt><trkpt lat="44.0463283" lon="12.5531"><ele>9.0</ele><time>2026-04-12T06:44:23.606Z</time></trkpt><trkpt lat="44.0463867" lon="12.55302"><ele>9.0</ele><time>2026-04-12T06:44:24.605Z</time></trkpt><trkpt lat="44.0464283" lon="12.5529217"><ele>9.0</ele><time>2026-04-12T06:44:25.606Z</time></trkpt><trkpt lat="44.0464417" lon="12.552825"><ele>9.0</ele><time>2026-04-12T06:44:26.605Z</time></trkpt><trkpt lat="44.0464183" lon="12.5527217"><ele>9.0</ele><time>2026-04-12T06:44:27.606Z</time></trkpt><trkpt lat="44.0463683" lon="12.55264"><ele>9.0</ele><time>2026-04-12T06:44:28.606Z</time></trkpt><trkpt lat="44.0462967" lon="12.5526033"><ele>9.0</ele><time>2026-04-12T06:44:29.605Z</time></trkpt><trkpt lat="44.0462133" lon="12.552575"><ele>9.75</ele><time>2026-04-12T06:44:30.606Z</time></trkpt><trkpt lat="44.046105" lon="12.5525433"><ele>10.5</ele><time>2026-04-12T06:44:31.605Z</time></trkpt><trkpt lat="44.0459867" lon="12.5524633"><ele>11.25</ele><time>2026-04-12T06:44:32.606Z</time></trkpt><trkpt lat="44.0458567" lon="12.5523317"><ele>12.0</ele><time>2026-04-12T06:44:33.606Z</time></trkpt><trkpt lat="44.045715" lon="12.5521633"><ele>13.666666666666668</ele><time>2026-04-12T06:44:34.605Z</time></trkpt><trkpt lat="44.0455767" lon="12.5519967"><ele>15.333333333333334</ele><time>2026-04-12T06:44:35.606Z</time></trkpt><trkpt lat="44.0454433" lon="12.5518567"><ele>17.0</ele><time>2026-04-12T06:44:36.606Z</time></trkpt><trkpt lat="44.0453233" lon="12.5517383"><ele>17.0</ele><time>2026-04-12T06:44:37.606Z</time></trkpt><trkpt lat="44.0452167" lon="12.551625"><ele>17.0</ele><time>2026-04-12T06:44:38.606Z</time></trkpt><trkpt lat="44.0451233" lon="12.5515317"><ele>17.0</ele><time>2026-04-12T06:44:39.606Z</time></trkpt><trkpt lat="44.0450567" lon="12.55145"><ele>17.0</ele><time>2026-04-12T06:44:40.605Z</time></trkpt><trkpt lat="44.0450067" lon="12.5513517"><ele>17.0</ele><time>2026-04-12T06:44:41.606Z</time></trkpt><trkpt lat="44.0449767" lon="12.5512283"><ele>18.0</ele><time>2026-04-12T06:44:42.607Z</time></trkpt><trkpt lat="44.044975" lon="12.5511117"><ele>19.0</ele><time>2026-04-12T06:44:43.607Z</time></trkpt><trkpt lat="44.0449967" lon="12.5509983"><ele>20.0</ele><time>2026-04-12T06:44:44.606Z</time></trkpt><trkpt lat="44.04502" lon="12.55089"><ele>21.0</ele><time>2026-04-12T06:44:45.606Z</time></trkpt><trkpt lat="44.04502" lon="12.5507867"><ele>22.0</ele><time>2026-04-12T06:44:46.606Z</time></trkpt><trkpt lat="44.044985" lon="12.5506833"><ele>23.0</ele><time>2026-04-12T06:44:47.607Z</time></trkpt><trkpt lat="44.0449417" lon="12.5505467"><ele>23.5</ele><time>2026-04-12T06:44:48.607Z</time></trkpt><trkpt lat="44.0448767" lon="12.5503817"><ele>24.0</ele><time>2026-04-12T06:44:49.607Z</time></trkpt><trkpt lat="44.0448017" lon="12.5502217"><ele>24.5</ele><time>2026-04-12T06:44:50.607Z</time></trkpt><trkpt lat="44.0446967" lon="12.5500867"><ele>25.0</ele><time>2026-04-12T06:44:51.607Z</time></trkpt><trkpt lat="44.044565" lon="12.5499567"><ele>23.333333333333336</ele><time>2026-04-12T06:44:52.607Z</time></trkpt><trkpt lat="44.0444267" lon="12.549815"><ele>21.666666666666668</ele><time>2026-04-12T06:44:53.607Z</time></trkpt><trkpt lat="44.0443" lon="12.54965"><ele>20.0</ele><time>2026-04-12T06:44:54.606Z</time></trkpt><trkpt lat="44.0441933" lon="12.5494417"><ele>18.666666666666668</ele><time>2026-04-12T06:44:55.607Z</time></trkpt><trkpt lat="44.0440967" lon="12.5492117"><ele>17.333333333333332</ele><time>2026-04-12T06:44:56.607Z</time></trkpt><trkpt lat="44.044015" lon="12.5489783"><ele>16.0</ele><time>2026-04-12T06:44:57.606Z</time></trkpt><trkpt lat="44.0439483" lon="12.5487383"><ele>16.666666666666664</ele><time>2026-04-12T06:44:58.607Z</time></trkpt><trkpt lat="44.0439" lon="12.5484783"><ele>17.333333333333332</ele><time>2026-04-12T06:44:59.607Z</time></trkpt><trkpt lat="44.0438533" lon="12.5481983"><ele>18.0</ele><time>2026-04-12T06:45:00.607Z</time></trkpt><trkpt lat="44.0438317" lon="12.5479317"><ele>18.333333333333332</ele><time>2026-04-12T06:45:01.607Z</time></trkpt><trkpt lat="44.0438167" lon="12.5476833"><ele>18.666666666666664</ele><time>2026-04-12T06:45:02.607Z</time></trkpt><trkpt lat="44.0437833" lon="12.5474583"><ele>19.0</ele><time>2026-04-12T06:45:03.607Z</time></trkpt><trkpt lat="44.0437583" lon="12.547235"><ele>19.666666666666664</ele><time>2026-04-12T06:45:04.607Z</time></trkpt><trkpt lat="44.0437267" lon="12.547005"><ele>20.333333333333332</ele><time>2026-04-12T06:45:05.607Z</time></trkpt><trkpt lat="44.043695" lon="12.5467817"><ele>21.0</ele><time>2026-04-12T06:45:06.607Z</time></trkpt><trkpt lat="44.04365" lon="12.5465733"><ele>21.0</ele><time>2026-04-12T06:45:07.606Z</time></trkpt><trkpt lat="44.0435817" lon="12.5463633"><ele>21.0</ele><time>2026-04-12T06:45:08.606Z</time></trkpt><trkpt lat="44.04349" lon="12.546175"><ele>21.0</ele><time>2026-04-12T06:45:09.607Z</time></trkpt><trkpt lat="44.043375" lon="12.54601"><ele>20.0</ele><time>2026-04-12T06:45:10.607Z</time></trkpt><trkpt lat="44.0432817" lon="12.54584"><ele>19.0</ele><time>2026-04-12T06:45:11.607Z</time></trkpt><trkpt lat="44.0432183" lon="12.5456633"><ele>18.0</ele><time>2026-04-12T06:45:12.606Z</time></trkpt><trkpt lat="44.04321" lon="12.5454517"><ele>17.0</ele><time>2026-04-12T06:45:13.607Z</time></trkpt><trkpt lat="44.0432433" lon="12.5452333"><ele>15.0</ele><time>2026-04-12T06:45:14.607Z</time></trkpt><trkpt lat="44.0433133" lon="12.5449933"><ele>13.0</ele><time>2026-04-12T06:45:15.607Z</time></trkpt><trkpt lat="44.0434117" lon="12.54474"><ele>11.0</ele><time>2026-04-12T06:45:16.607Z</time></trkpt><trkpt lat="44.0435167" lon="12.54447"><ele>11.0</ele><time>2026-04-12T06:45:17.607Z</time></trkpt><trkpt lat="44.0436217" lon="12.5441783"><ele>11.0</ele><time>2026-04-12T06:45:18.606Z</time></trkpt><trkpt lat="44.0437367" lon="12.5438883"><ele>13.0</ele><time>2026-04-12T06:45:19.606Z</time></trkpt><trkpt lat="44.0438467" lon="12.54362"><ele>15.0</ele><time>2026-04-12T06:45:20.607Z</time></trkpt><trkpt lat="44.0439583" lon="12.5433717"><ele>17.0</ele><time>2026-04-12T06:45:21.607Z</time></trkpt><trkpt lat="44.0440783" lon="12.5431483"><ele>15.0</ele><time>2026-04-12T06:45:22.607Z</time></trkpt><trkpt lat="44.04419" lon="12.54293"><ele>13.0</ele><time>2026-04-12T06:45:23.607Z</time></trkpt><trkpt lat="44.0443" lon="12.5427267"><ele>11.0</ele><time>2026-04-12T06:45:24.607Z</time></trkpt><trkpt lat="44.0443683" lon="12.542505"><ele>11.0</ele><time>2026-04-12T06:45:25.607Z</time></trkpt><trkpt lat="44.04441" lon="12.5422883"><ele>11.0</ele><time>2026-04-12T06:45:26.606Z</time></trkpt><trkpt lat="44.044415" lon="12.542055"><ele>11.0</ele><time>2026-04-12T06:45:27.607Z</time></trkpt><trkpt lat="44.04439" lon="12.5417883"><ele>11.0</ele><time>2026-04-12T06:45:28.607Z</time></trkpt><trkpt lat="44.044345" lon="12.5414933"><ele>11.0</ele><time>2026-04-12T06:45:29.607Z</time></trkpt><trkpt lat="44.0443" lon="12.54119"><ele>11.0</ele><time>2026-04-12T06:45:30.607Z</time></trkpt><trkpt lat="44.044275" lon="12.5408833"><ele>11.0</ele><time>2026-04-12T06:45:31.607Z</time></trkpt><trkpt lat="44.044255" lon="12.5405933"><ele>11.0</ele><time>2026-04-12T06:45:32.607Z</time></trkpt><trkpt lat="44.0442383" lon="12.54032"><ele>11.0</ele><time>2026-04-12T06:45:33.607Z</time></trkpt><trkpt lat="44.04422" lon="12.5400683"><ele>11.0</ele><time>2026-04-12T06:45:34.607Z</time></trkpt><trkpt lat="44.04422" lon="12.5398383"><ele>11.0</ele><time>2026-04-12T06:45:35.606Z</time></trkpt><trkpt lat="44.04424" lon="12.539635"><ele>11.0</ele><time>2026-04-12T06:45:36.607Z</time></trkpt><trkpt lat="44.0442967" lon="12.5394483"><ele>13.25</ele><time>2026-04-12T06:45:37.607Z</time></trkpt><trkpt lat="44.0443967" lon="12.53929"><ele>15.5</ele><time>2026-04-12T06:45:38.607Z</time></trkpt><trkpt lat="44.04451" lon="12.539155"><ele>17.75</ele><time>2026-04-12T06:45:39.606Z</time></trkpt><trkpt lat="44.0446067" lon="12.5390517"><ele>20.0</ele><time>2026-04-12T06:45:40.606Z</time></trkpt><trkpt lat="44.0444267" lon="12.538845"><ele>20.0</ele><time>2026-04-12T06:45:41.891Z</time></trkpt><trkpt lat="44.0445971" lon="12.538758"><ele>20.0</ele><time>2026-04-12T06:45:43.105Z</time></trkpt><trkpt lat="44.0446084" lon="12.5385905"><ele>20.0</ele><time>2026-04-12T06:45:44.105Z</time></trkpt><trkpt lat="44.0444969" lon="12.5383556"><ele>21.0</ele><time>2026-04-12T06:45:45.604Z</time></trkpt><trkpt lat="44.0443994" lon="12.5381972"><ele>22.0</ele><time>2026-04-12T06:45:46.604Z</time></trkpt><trkpt lat="44.0443101" lon="12.538046"><ele>23.0</ele><time>2026-04-12T06:45:47.605Z</time></trkpt><trkpt lat="44.0442466" lon="12.5378742"><ele>24.0</ele><time>2026-04-12T06:45:48.604Z</time></trkpt><trkpt lat="44.0442168" lon="12.5376867"><ele>24.0</ele><time>2026-04-12T06:45:49.604Z</time></trkpt><trkpt lat="44.0442047" lon="12.537517"><ele>24.0</ele><time>2026-04-12T06:45:50.605Z</time></trkpt><trkpt lat="44.0441848" lon="12.537376"><ele>24.0</ele><time>2026-04-12T06:45:51.604Z</time></trkpt><trkpt lat="44.0441569" lon="12.5372509"><ele>24.0</ele><time>2026-04-12T06:45:52.605Z</time></trkpt><trkpt lat="44.0440787" lon="12.5371708"><ele>24.0</ele><time>2026-04-12T06:45:53.605Z</time></trkpt><trkpt lat="44.0439753" lon="12.5371141"><ele>24.0</ele><time>2026-04-12T06:45:54.604Z</time></trkpt><trkpt lat="44.0438382" lon="12.5370777"><ele>24.0</ele><time>2026-04-12T06:45:55.605Z</time></trkpt><trkpt lat="44.0436737" lon="12.5370538"><ele>24.0</ele><time>2026-04-12T06:45:56.605Z</time></trkpt><trkpt lat="44.0435101" lon="12.5370009"><ele>20.666666666666668</ele><time>2026-04-12T06:45:57.605Z</time></trkpt><trkpt lat="44.0433505" lon="12.5369009"><ele>17.333333333333336</ele><time>2026-04-12T06:45:58.604Z</time></trkpt><trkpt lat="44.0431928" lon="12.5367567"><ele>14.0</ele><time>2026-04-12T06:45:59.604Z</time></trkpt><trkpt lat="44.0430368" lon="12.5365961"><ele>13.666666666666668</ele><time>2026-04-12T06:46:00.604Z</time></trkpt><trkpt lat="44.0428818" lon="12.5364267"><ele>13.333333333333332</ele><time>2026-04-12T06:46:01.605Z</time></trkpt><trkpt lat="44.0427264" lon="12.5362594"><ele>13.0</ele><time>2026-04-12T06:46:02.604Z</time></trkpt><trkpt lat="44.0425699" lon="12.536091"><ele>13.0</ele><time>2026-04-12T06:46:03.605Z</time></trkpt><trkpt lat="44.0424193" lon="12.5359264"><ele>13.0</ele><time>2026-04-12T06:46:04.605Z</time></trkpt><trkpt lat="44.0422732" lon="12.5357631"><ele>13.0</ele><time>2026-04-12T06:46:05.605Z</time></trkpt><trkpt lat="44.0421408" lon="12.5356046"><ele>13.0</ele><time>2026-04-12T06:46:06.605Z</time></trkpt><trkpt lat="44.042017" lon="12.5354484"><ele>13.0</ele><time>2026-04-12T06:46:07.605Z</time></trkpt><trkpt lat="44.0419006" lon="12.535296"><ele>13.0</ele><time>2026-04-12T06:46:08.604Z</time></trkpt><trkpt lat="44.0417921" lon="12.5351356"><ele>13.333333333333332</ele><time>2026-04-12T06:46:09.604Z</time></trkpt><trkpt lat="44.041683" lon="12.5349695"><ele>13.666666666666668</ele><time>2026-04-12T06:46:10.604Z</time></trkpt><trkpt lat="44.0415816" lon="12.534794"><ele>14.0</ele><time>2026-04-12T06:46:11.605Z</time></trkpt><trkpt lat="44.041503" lon="12.5346061"><ele>15.666666666666668</ele><time>2026-04-12T06:46:12.604Z</time></trkpt><trkpt lat="44.0414545" lon="12.5344018"><ele>17.333333333333332</ele><time>2026-04-12T06:46:13.605Z</time></trkpt><trkpt lat="44.0414418" lon="12.5341803"><ele>19.0</ele><time>2026-04-12T06:46:14.605Z</time></trkpt><trkpt lat="44.0414765" lon="12.5339484"><ele>19.666666666666664</ele><time>2026-04-12T06:46:15.605Z</time></trkpt><trkpt lat="44.0415398" lon="12.5337037"><ele>20.333333333333332</ele><time>2026-04-12T06:46:16.605Z</time></trkpt><trkpt lat="44.0416238" lon="12.5334466"><ele>21.0</ele><time>2026-04-12T06:46:17.605Z</time></trkpt><trkpt lat="44.0417239" lon="12.5331793"><ele>18.5</ele><time>2026-04-12T06:46:18.605Z</time></trkpt><trkpt lat="44.0418359" lon="12.5328962"><ele>16.0</ele><time>2026-04-12T06:46:19.604Z</time></trkpt><trkpt lat="44.0419351" lon="12.532597"><ele>16.0</ele><time>2026-04-12T06:46:20.605Z</time></trkpt><trkpt lat="44.0420367" lon="12.5322907"><ele>16.0</ele><time>2026-04-12T06:46:21.605Z</time></trkpt><trkpt lat="44.0421425" lon="12.5319809"><ele>17.0</ele><time>2026-04-12T06:46:22.605Z</time></trkpt><trkpt lat="44.0422474" lon="12.5316905"><ele>18.0</ele><time>2026-04-12T06:46:23.605Z</time></trkpt><trkpt lat="44.0423505" lon="12.531414"><ele>18.0</ele><time>2026-04-12T06:46:24.604Z</time></trkpt><trkpt lat="44.0424415" lon="12.5311546"><ele>18.0</ele><time>2026-04-12T06:46:25.605Z</time></trkpt><trkpt lat="44.0425262" lon="12.5309149"><ele>18.0</ele><time>2026-04-12T06:46:26.604Z</time></trkpt><trkpt lat="44.0426057" lon="12.5307068"><ele>18.0</ele><time>2026-04-12T06:46:27.604Z</time></trkpt><trkpt lat="44.0426747" lon="12.5305315"><ele>18.0</ele><time>2026-04-12T06:46:28.605Z</time></trkpt><trkpt lat="44.0427271" lon="12.5303928"><ele>18.0</ele><time>2026-04-12T06:46:29.604Z</time></trkpt><trkpt lat="44.0427606" lon="12.5302829"><ele>18.0</ele><time>2026-04-12T06:46:30.604Z</time></trkpt><trkpt lat="44.042779" lon="12.5301981"><ele>18.0</ele><time>2026-04-12T06:46:31.605Z</time></trkpt><trkpt lat="44.0428083" lon="12.5300713"><ele>18.25</ele><time>2026-04-12T06:46:33.604Z</time></trkpt><trkpt lat="44.0428271" lon="12.5299607"><ele>18.5</ele><time>2026-04-12T06:46:36.605Z</time></trkpt><trkpt lat="44.0428351" lon="12.5298109"><ele>18.75</ele><time>2026-04-12T06:47:18.604Z</time></trkpt><trkpt lat="44.0428212" lon="12.5296078"><ele>19.0</ele><time>2026-04-12T06:47:19.605Z</time></trkpt><trkpt lat="44.0427768" lon="12.5294113"><ele>19.0</ele><time>2026-04-12T06:47:20.605Z</time></trkpt><trkpt lat="44.0427102" lon="12.5292414"><ele>19.0</ele><time>2026-04-12T06:47:21.604Z</time></trkpt><trkpt lat="44.0426218" lon="12.5290784"><ele>19.0</ele><time>2026-04-12T06:47:22.605Z</time></trkpt><trkpt lat="44.0425174" lon="12.5289074"><ele>19.0</ele><time>2026-04-12T06:47:23.605Z</time></trkpt><trkpt lat="44.0423981" lon="12.5287169"><ele>19.333333333333332</ele><time>2026-04-12T06:47:24.605Z</time></trkpt><trkpt lat="44.0422747" lon="12.5285167"><ele>19.666666666666668</ele><time>2026-04-12T06:47:25.604Z</time></trkpt><trkpt lat="44.0421603" lon="12.5283159"><ele>20.0</ele><time>2026-04-12T06:47:26.604Z</time></trkpt><trkpt lat="44.0420528" lon="12.5281242"><ele>20.0</ele><time>2026-04-12T06:47:27.605Z</time></trkpt><trkpt lat="44.041954" lon="12.5279249"><ele>20.0</ele><time>2026-04-12T06:47:28.605Z</time></trkpt><trkpt lat="44.0418637" lon="12.5277137"><ele>20.0</ele><time>2026-04-12T06:47:29.604Z</time></trkpt><trkpt lat="44.0417824" lon="12.5274766"><ele>21.0</ele><time>2026-04-12T06:47:30.605Z</time></trkpt><trkpt lat="44.0417126" lon="12.5272171"><ele>22.0</ele><time>2026-04-12T06:47:31.605Z</time></trkpt><trkpt lat="44.0416451" lon="12.5269431"><ele>23.0</ele><time>2026-04-12T06:47:32.605Z</time></trkpt><trkpt lat="44.0415879" lon="12.5266702"><ele>23.0</ele><time>2026-04-12T06:47:33.604Z</time></trkpt><trkpt lat="44.0415371" lon="12.5264012"><ele>23.0</ele><time>2026-04-12T06:47:34.605Z</time></trkpt><trkpt lat="44.0415028" lon="12.5261463"><ele>23.0</ele><time>2026-04-12T06:47:35.604Z</time></trkpt><trkpt lat="44.0414747" lon="12.5259118"><ele>22.333333333333336</ele><time>2026-04-12T06:47:36.605Z</time></trkpt><trkpt lat="44.0414519" lon="12.525687"><ele>21.666666666666668</ele><time>2026-04-12T06:47:37.605Z</time></trkpt><trkpt lat="44.0414416" lon="12.5254689"><ele>21.0</ele><time>2026-04-12T06:47:38.605Z</time></trkpt><trkpt lat="44.0414582" lon="12.5252519"><ele>20.0</ele><time>2026-04-12T06:47:39.605Z</time></trkpt><trkpt lat="44.0415036" lon="12.5250355"><ele>19.0</ele><time>2026-04-12T06:47:40.605Z</time></trkpt><trkpt lat="44.0415837" lon="12.5248106"><ele>18.0</ele><time>2026-04-12T06:47:41.605Z</time></trkpt><trkpt lat="44.0416874" lon="12.5245807"><ele>17.666666666666668</ele><time>2026-04-12T06:47:42.605Z</time></trkpt><trkpt lat="44.0417844" lon="12.5243567"><ele>17.333333333333336</ele><time>2026-04-12T06:47:43.605Z</time></trkpt><trkpt lat="44.041876" lon="12.5241299"><ele>17.0</ele><time>2026-04-12T06:47:44.605Z</time></trkpt><trkpt lat="44.041951" lon="12.5239003"><ele>15.333333333333334</ele><time>2026-04-12T06:47:45.604Z</time></trkpt><trkpt lat="44.0420052" lon="12.5236622"><ele>13.666666666666668</ele><time>2026-04-12T06:47:46.604Z</time></trkpt><trkpt lat="44.0420246" lon="12.5234195"><ele>12.0</ele><time>2026-04-12T06:47:47.604Z</time></trkpt><trkpt lat="44.0420207" lon="12.5231851"><ele>12.0</ele><time>2026-04-12T06:47:48.605Z</time></trkpt><trkpt lat="44.0419924" lon="12.5229752"><ele>12.0</ele><time>2026-04-12T06:47:49.604Z</time></trkpt><trkpt lat="44.0419245" lon="12.5227691"><ele>12.0</ele><time>2026-04-12T06:47:50.605Z</time></trkpt><trkpt lat="44.0418217" lon="12.5225611"><ele>12.333333333333332</ele><time>2026-04-12T06:47:51.605Z</time></trkpt><trkpt lat="44.0416921" lon="12.5223314"><ele>12.666666666666666</ele><time>2026-04-12T06:47:52.605Z</time></trkpt><trkpt lat="44.0415424" lon="12.5220746"><ele>13.0</ele><time>2026-04-12T06:47:53.605Z</time></trkpt><trkpt lat="44.0413872" lon="12.5218"><ele>13.5</ele><time>2026-04-12T06:47:54.605Z</time></trkpt><trkpt lat="44.0412303" lon="12.5215191"><ele>14.0</ele><time>2026-04-12T06:47:55.604Z</time></trkpt><trkpt lat="44.0410761" lon="12.52125"><ele>13.5</ele><time>2026-04-12T06:47:56.605Z</time></trkpt><trkpt lat="44.0409298" lon="12.5209847"><ele>13.0</ele><time>2026-04-12T06:47:57.605Z</time></trkpt><trkpt lat="44.0407944" lon="12.5207132"><ele>12.5</ele><time>2026-04-12T06:47:58.605Z</time></trkpt><trkpt lat="44.0406603" lon="12.5204408"><ele>12.0</ele><time>2026-04-12T06:47:59.605Z</time></trkpt><trkpt lat="44.0405352" lon="12.5201729"><ele>12.0</ele><time>2026-04-12T06:48:00.605Z</time></trkpt><trkpt lat="44.0404154" lon="12.5199178"><ele>12.0</ele><time>2026-04-12T06:48:01.605Z</time></trkpt><trkpt lat="44.0402965" lon="12.5196723"><ele>12.0</ele><time>2026-04-12T06:48:02.604Z</time></trkpt><trkpt lat="44.0401766" lon="12.5194326"><ele>12.333333333333332</ele><time>2026-04-12T06:48:03.605Z</time></trkpt><trkpt lat="44.0400466" lon="12.5191907"><ele>12.666666666666666</ele><time>2026-04-12T06:48:04.605Z</time></trkpt><trkpt lat="44.0398994" lon="12.5189592"><ele>13.0</ele><time>2026-04-12T06:48:05.605Z</time></trkpt><trkpt lat="44.0397365" lon="12.5187361"><ele>13.0</ele><time>2026-04-12T06:48:06.605Z</time></trkpt><trkpt lat="44.0395641" lon="12.5185129"><ele>13.0</ele><time>2026-04-12T06:48:07.605Z</time></trkpt><trkpt lat="44.0393833" lon="12.5183032"><ele>13.0</ele><time>2026-04-12T06:48:08.605Z</time></trkpt><trkpt lat="44.0392073" lon="12.5181145"><ele>13.0</ele><time>2026-04-12T06:48:09.605Z</time></trkpt><trkpt lat="44.0390355" lon="12.5179462"><ele>13.0</ele><time>2026-04-12T06:48:10.604Z</time></trkpt><trkpt lat="44.0388738" lon="12.5177918"><ele>13.666666666666666</ele><time>2026-04-12T06:48:11.605Z</time></trkpt><trkpt lat="44.0387247" lon="12.5176456"><ele>14.333333333333332</ele><time>2026-04-12T06:48:12.605Z</time></trkpt><trkpt lat="44.0385858" lon="12.5174971"><ele>15.0</ele><time>2026-04-12T06:48:13.605Z</time></trkpt><trkpt lat="44.0384588" lon="12.5173427"><ele>15.0</ele><time>2026-04-12T06:48:14.605Z</time></trkpt><trkpt lat="44.0383371" lon="12.5171715"><ele>15.0</ele><time>2026-04-12T06:48:15.605Z</time></trkpt><trkpt lat="44.0382191" lon="12.5169805"><ele>15.0</ele><time>2026-04-12T06:48:16.604Z</time></trkpt><trkpt lat="44.0381157" lon="12.5167614"><ele>16.666666666666668</ele><time>2026-04-12T06:48:17.605Z</time></trkpt><trkpt lat="44.0380108" lon="12.516517"><ele>18.333333333333336</ele><time>2026-04-12T06:48:18.605Z</time></trkpt><trkpt lat="44.0379107" lon="12.5162577"><ele>20.0</ele><time>2026-04-12T06:48:19.604Z</time></trkpt><trkpt lat="44.0378125" lon="12.5159811"><ele>20.666666666666668</ele><time>2026-04-12T06:48:20.605Z</time></trkpt><trkpt lat="44.0377121" lon="12.5157078"><ele>21.333333333333332</ele><time>2026-04-12T06:48:21.605Z</time></trkpt><trkpt lat="44.0376239" lon="12.5154633"><ele>22.0</ele><time>2026-04-12T06:48:22.605Z</time></trkpt><trkpt lat="44.0375513" lon="12.5152555"><ele>22.200000000000003</ele><time>2026-04-12T06:48:23.604Z</time></trkpt><trkpt lat="44.0374892" lon="12.5150836"><ele>22.4</ele><time>2026-04-12T06:48:24.605Z</time></trkpt><trkpt lat="44.0374354" lon="12.5149435"><ele>22.6</ele><time>2026-04-12T06:48:25.605Z</time></trkpt><trkpt lat="44.0373688" lon="12.5148438"><ele>22.799999999999997</ele><time>2026-04-12T06:48:26.604Z</time></trkpt><trkpt lat="44.0372825" lon="12.5148028"><ele>23.0</ele><time>2026-04-12T06:48:27.604Z</time></trkpt><trkpt lat="44.0371946" lon="12.5148307"><ele>25.5</ele><time>2026-04-12T06:48:28.606Z</time></trkpt><trkpt lat="44.0371116" lon="12.5149283"><ele>28.0</ele><time>2026-04-12T06:48:29.606Z</time></trkpt><trkpt lat="44.0370442" lon="12.51507"><ele>30.5</ele><time>2026-04-12T06:48:30.606Z</time></trkpt><trkpt lat="44.036977" lon="12.5152225"><ele>33.0</ele><time>2026-04-12T06:48:31.606Z</time></trkpt><trkpt lat="44.0368931" lon="12.515335"><ele>33.0</ele><time>2026-04-12T06:48:32.606Z</time></trkpt><trkpt lat="44.0367754" lon="12.5153923"><ele>33.0</ele><time>2026-04-12T06:48:33.605Z</time></trkpt><trkpt lat="44.0366373" lon="12.5153914"><ele>33.0</ele><time>2026-04-12T06:48:34.606Z</time></trkpt><trkpt lat="44.0364844" lon="12.5153296"><ele>33.0</ele><time>2026-04-12T06:48:35.606Z</time></trkpt><trkpt lat="44.0362933" lon="12.5152233"><ele>35.0</ele><time>2026-04-12T06:48:36.606Z</time></trkpt><trkpt lat="44.0360917" lon="12.515125"><ele>37.0</ele><time>2026-04-12T06:48:37.605Z</time></trkpt><trkpt lat="44.03588" lon="12.51503"><ele>39.0</ele><time>2026-04-12T06:48:38.606Z</time></trkpt><trkpt lat="44.0356783" lon="12.514955"><ele>40.666666666666664</ele><time>2026-04-12T06:48:39.606Z</time></trkpt><trkpt lat="44.0354917" lon="12.5149033"><ele>42.33333333333333</ele><time>2026-04-12T06:48:40.606Z</time></trkpt><trkpt lat="44.035305" lon="12.5148933"><ele>44.0</ele><time>2026-04-12T06:48:41.606Z</time></trkpt><trkpt lat="44.0351417" lon="12.514905"><ele>44.0</ele><time>2026-04-12T06:48:42.605Z</time></trkpt><trkpt lat="44.03498" lon="12.5149217"><ele>44.0</ele><time>2026-04-12T06:48:43.605Z</time></trkpt><trkpt lat="44.0348267" lon="12.5148983"><ele>44.0</ele><time>2026-04-12T06:48:44.606Z</time></trkpt><trkpt lat="44.0346683" lon="12.5148067"><ele>45.666666666666664</ele><time>2026-04-12T06:48:45.606Z</time></trkpt><trkpt lat="44.0345133" lon="12.5146633"><ele>47.33333333333333</ele><time>2026-04-12T06:48:46.606Z</time></trkpt><trkpt lat="44.034365" lon="12.5145"><ele>49.0</ele><time>2026-04-12T06:48:47.605Z</time></trkpt><trkpt lat="44.03422" lon="12.5143567"><ele>50.0</ele><time>2026-04-12T06:48:48.606Z</time></trkpt><trkpt lat="44.0341" lon="12.5142333"><ele>51.0</ele><time>2026-04-12T06:48:49.606Z</time></trkpt><trkpt lat="44.034" lon="12.5141333"><ele>52.0</ele><time>2026-04-12T06:48:50.606Z</time></trkpt><trkpt lat="44.033895" lon="12.5140733"><ele>53.0</ele><time>2026-04-12T06:48:51.606Z</time></trkpt><trkpt lat="44.0337817" lon="12.5140817"><ele>53.0</ele><time>2026-04-12T06:48:52.605Z</time></trkpt><trkpt lat="44.0336833" lon="12.514155"><ele>53.0</ele><time>2026-04-12T06:48:53.606Z</time></trkpt><trkpt lat="44.0335917" lon="12.514295"><ele>53.0</ele><time>2026-04-12T06:48:54.606Z</time></trkpt><trkpt lat="44.0335167" lon="12.5144483"><ele>53.0</ele><time>2026-04-12T06:48:55.606Z</time></trkpt><trkpt lat="44.0334517" lon="12.51459"><ele>52.75</ele><time>2026-04-12T06:48:56.605Z</time></trkpt><trkpt lat="44.0333717" lon="12.5147167"><ele>52.5</ele><time>2026-04-12T06:48:57.606Z</time></trkpt><trkpt lat="44.0332783" lon="12.5148283"><ele>52.25</ele><time>2026-04-12T06:48:58.606Z</time></trkpt><trkpt lat="44.0331467" lon="12.514905"><ele>52.0</ele><time>2026-04-12T06:48:59.606Z</time></trkpt><trkpt lat="44.03298" lon="12.51495"><ele>52.0</ele><time>2026-04-12T06:49:00.606Z</time></trkpt><trkpt lat="44.0327933" lon="12.5149883"><ele>52.0</ele><time>2026-04-12T06:49:01.606Z</time></trkpt><trkpt lat="44.0325983" lon="12.5150167"><ele>52.0</ele><time>2026-04-12T06:49:02.606Z</time></trkpt><trkpt lat="44.0324033" lon="12.5150267"><ele>53.666666666666664</ele><time>2026-04-12T06:49:03.605Z</time></trkpt><trkpt lat="44.0322" lon="12.5149833"><ele>55.33333333333333</ele><time>2026-04-12T06:49:04.605Z</time></trkpt><trkpt lat="44.032005" lon="12.51488"><ele>57.0</ele><time>2026-04-12T06:49:05.606Z</time></trkpt><trkpt lat="44.0318067" lon="12.5147417"><ele>58.0</ele><time>2026-04-12T06:49:06.605Z</time></trkpt><trkpt lat="44.031625" lon="12.51461"><ele>59.0</ele><time>2026-04-12T06:49:07.606Z</time></trkpt><trkpt lat="44.0314533" lon="12.51447"><ele>60.0</ele><time>2026-04-12T06:49:08.606Z</time></trkpt><trkpt lat="44.0312933" lon="12.5143"><ele>61.33333333333333</ele><time>2026-04-12T06:49:09.606Z</time></trkpt><trkpt lat="44.031155" lon="12.514085"><ele>62.666666666666664</ele><time>2026-04-12T06:49:10.605Z</time></trkpt><trkpt lat="44.03101" lon="12.5138583"><ele>64.0</ele><time>2026-04-12T06:49:11.606Z</time></trkpt><trkpt lat="44.0308633" lon="12.5136467"><ele>66.66666666666666</ele><time>2026-04-12T06:49:12.606Z</time></trkpt><trkpt lat="44.03073" lon="12.51345"><ele>69.33333333333333</ele><time>2026-04-12T06:49:13.606Z</time></trkpt><trkpt lat="44.0306033" lon="12.5132683"><ele>72.0</ele><time>2026-04-12T06:49:14.605Z</time></trkpt><trkpt lat="44.03047" lon="12.5131017"><ele>72.0</ele><time>2026-04-12T06:49:15.606Z</time></trkpt><trkpt lat="44.0303133" lon="12.5129483"><ele>72.0</ele><time>2026-04-12T06:49:16.606Z</time></trkpt><trkpt lat="44.0301433" lon="12.51282"><ele>72.0</ele><time>2026-04-12T06:49:17.606Z</time></trkpt><trkpt lat="44.0299783" lon="12.5127117"><ele>73.33333333333333</ele><time>2026-04-12T06:49:18.606Z</time></trkpt><trkpt lat="44.0298267" lon="12.512615"><ele>74.66666666666666</ele><time>2026-04-12T06:49:19.605Z</time></trkpt><trkpt lat="44.029685" lon="12.5125217"><ele>76.0</ele><time>2026-04-12T06:49:20.606Z</time></trkpt><trkpt lat="44.029555" lon="12.512425"><ele>76.0</ele><time>2026-04-12T06:49:21.606Z</time></trkpt><trkpt lat="44.029425" lon="12.51235"><ele>76.0</ele><time>2026-04-12T06:49:22.606Z</time></trkpt><trkpt lat="44.0292917" lon="12.5122783"><ele>76.0</ele><time>2026-04-12T06:49:23.606Z</time></trkpt><trkpt lat="44.0291533" lon="12.512255"><ele>76.0</ele><time>2026-04-12T06:49:24.606Z</time></trkpt><trkpt lat="44.02899" lon="12.5122867"><ele>75.33333333333333</ele><time>2026-04-12T06:49:25.606Z</time></trkpt><trkpt lat="44.028805" lon="12.5123467"><ele>74.66666666666667</ele><time>2026-04-12T06:49:26.605Z</time></trkpt><trkpt lat="44.02861" lon="12.512425"><ele>74.0</ele><time>2026-04-12T06:49:27.606Z</time></trkpt><trkpt lat="44.0283967" lon="12.5125133"><ele>75.0</ele><time>2026-04-12T06:49:28.606Z</time></trkpt><trkpt lat="44.0281667" lon="12.5126033"><ele>76.0</ele><time>2026-04-12T06:49:29.605Z</time></trkpt><trkpt lat="44.02793" lon="12.5126933"><ele>76.0</ele><time>2026-04-12T06:49:30.605Z</time></trkpt><trkpt lat="44.0277117" lon="12.5127733"><ele>76.0</ele><time>2026-04-12T06:49:31.605Z</time></trkpt><trkpt lat="44.0274983" lon="12.512855"><ele>76.0</ele><time>2026-04-12T06:49:32.606Z</time></trkpt><trkpt lat="44.0273067" lon="12.5129317"><ele>77.33333333333333</ele><time>2026-04-12T06:49:33.606Z</time></trkpt><trkpt lat="44.0271367" lon="12.5129983"><ele>78.66666666666667</ele><time>2026-04-12T06:49:34.606Z</time></trkpt><trkpt lat="44.0269883" lon="12.5130533"><ele>80.0</ele><time>2026-04-12T06:49:35.606Z</time></trkpt><trkpt lat="44.0268583" lon="12.51309"><ele>80.0</ele><time>2026-04-12T06:49:36.606Z</time></trkpt><trkpt lat="44.02674" lon="12.51311"><ele>80.0</ele><time>2026-04-12T06:49:37.605Z</time></trkpt><trkpt lat="44.026625" lon="12.513095"><ele>80.0</ele><time>2026-04-12T06:49:38.606Z</time></trkpt><trkpt lat="44.0265117" lon="12.5130383"><ele>80.0</ele><time>2026-04-12T06:49:39.606Z</time></trkpt><trkpt lat="44.0264067" lon="12.512925"><ele>79.33333333333334</ele><time>2026-04-12T06:49:40.606Z</time></trkpt><trkpt lat="44.02631" lon="12.512765"><ele>78.66666666666667</ele><time>2026-04-12T06:49:41.606Z</time></trkpt><trkpt lat="44.026215" lon="12.5125717"><ele>78.0</ele><time>2026-04-12T06:49:42.606Z</time></trkpt><trkpt lat="44.0260983" lon="12.51237"><ele>78.0</ele><time>2026-04-12T06:49:43.606Z</time></trkpt><trkpt lat="44.0259683" lon="12.5121683"><ele>78.0</ele><time>2026-04-12T06:49:44.605Z</time></trkpt><trkpt lat="44.02582" lon="12.51195"><ele>78.0</ele><time>2026-04-12T06:49:45.605Z</time></trkpt><trkpt lat="44.0256583" lon="12.51172"><ele>80.66666666666667</ele><time>2026-04-12T06:49:46.605Z</time></trkpt><trkpt lat="44.0255" lon="12.5114983"><ele>83.33333333333334</ele><time>2026-04-12T06:49:47.606Z</time></trkpt><trkpt lat="44.0253417" lon="12.511295"><ele>86.0</ele><time>2026-04-12T06:49:48.606Z</time></trkpt><trkpt lat="44.0251783" lon="12.5111083"><ele>86.0</ele><time>2026-04-12T06:49:49.606Z</time></trkpt><trkpt lat="44.0250083" lon="12.510945"><ele>86.0</ele><time>2026-04-12T06:49:50.605Z</time></trkpt><trkpt lat="44.024845" lon="12.5108033"><ele>86.0</ele><time>2026-04-12T06:49:51.606Z</time></trkpt><trkpt lat="44.0247033" lon="12.5106467"><ele>88.66666666666667</ele><time>2026-04-12T06:49:52.606Z</time></trkpt><trkpt lat="44.0245817" lon="12.510465"><ele>91.33333333333333</ele><time>2026-04-12T06:49:53.606Z</time></trkpt><trkpt lat="44.0244767" lon="12.510245"><ele>94.0</ele><time>2026-04-12T06:49:54.605Z</time></trkpt><trkpt lat="44.0243767" lon="12.510005"><ele>94.66666666666666</ele><time>2026-04-12T06:49:55.606Z</time></trkpt><trkpt lat="44.0242717" lon="12.509745"><ele>95.33333333333333</ele><time>2026-04-12T06:49:56.606Z</time></trkpt><trkpt lat="44.0241633" lon="12.5094767"><ele>96.0</ele><time>2026-04-12T06:49:57.605Z</time></trkpt><trkpt lat="44.0240583" lon="12.5092167"><ele>97.0</ele><time>2026-04-12T06:49:58.605Z</time></trkpt><trkpt lat="44.02395" lon="12.5089633"><ele>98.0</ele><time>2026-04-12T06:49:59.606Z</time></trkpt><trkpt lat="44.0238367" lon="12.5087233"><ele>99.0</ele><time>2026-04-12T06:50:00.605Z</time></trkpt><trkpt lat="44.0237317" lon="12.50849"><ele>99.0</ele><time>2026-04-12T06:50:01.606Z</time></trkpt><trkpt lat="44.0236533" lon="12.5082433"><ele>99.0</ele><time>2026-04-12T06:50:02.606Z</time></trkpt><trkpt lat="44.0235817" lon="12.5079833"><ele>99.0</ele><time>2026-04-12T06:50:03.606Z</time></trkpt><trkpt lat="44.0235333" lon="12.5076883"><ele>98.33333333333334</ele><time>2026-04-12T06:50:04.606Z</time></trkpt><trkpt lat="44.0234767" lon="12.507395"><ele>97.66666666666667</ele><time>2026-04-12T06:50:05.605Z</time></trkpt><trkpt lat="44.023415" lon="12.5070933"><ele>97.0</ele><time>2026-04-12T06:50:06.606Z</time></trkpt><trkpt lat="44.0233417" lon="12.506785"><ele>96.66666666666667</ele><time>2026-04-12T06:50:07.606Z</time></trkpt><trkpt lat="44.0232717" lon="12.5064883"><ele>96.33333333333334</ele><time>2026-04-12T06:50:08.606Z</time></trkpt><trkpt lat="44.0232017" lon="12.5062117"><ele>96.0</ele><time>2026-04-12T06:50:09.606Z</time></trkpt><trkpt lat="44.0231283" lon="12.5059383"><ele>94.33333333333333</ele><time>2026-04-12T06:50:10.606Z</time></trkpt><trkpt lat="44.0230567" lon="12.5056767"><ele>92.66666666666666</ele><time>2026-04-12T06:50:11.606Z</time></trkpt><trkpt lat="44.0229867" lon="12.5054333"><ele>91.0</ele><time>2026-04-12T06:50:12.606Z</time></trkpt><trkpt lat="44.022925" lon="12.50519"><ele>90.66666666666666</ele><time>2026-04-12T06:50:13.606Z</time></trkpt><trkpt lat="44.0228783" lon="12.5049567"><ele>90.33333333333333</ele><time>2026-04-12T06:50:14.606Z</time></trkpt><trkpt lat="44.0228433" lon="12.5047317"><ele>90.0</ele><time>2026-04-12T06:50:15.605Z</time></trkpt><trkpt lat="44.0228317" lon="12.50449"><ele>89.66666666666667</ele><time>2026-04-12T06:50:16.605Z</time></trkpt><trkpt lat="44.022835" lon="12.5042333"><ele>89.33333333333334</ele><time>2026-04-12T06:50:17.605Z</time></trkpt><trkpt lat="44.0228633" lon="12.5039817"><ele>89.0</ele><time>2026-04-12T06:50:18.606Z</time></trkpt><trkpt lat="44.0228867" lon="12.50374"><ele>89.66666666666667</ele><time>2026-04-12T06:50:19.606Z</time></trkpt><trkpt lat="44.0228683" lon="12.5035067"><ele>90.33333333333333</ele><time>2026-04-12T06:50:20.606Z</time></trkpt><trkpt lat="44.022825" lon="12.5032717"><ele>91.0</ele><time>2026-04-12T06:50:21.606Z</time></trkpt><trkpt lat="44.022745" lon="12.5030517"><ele>90.66666666666666</ele><time>2026-04-12T06:50:22.606Z</time></trkpt><trkpt lat="44.0226567" lon="12.502835"><ele>90.33333333333333</ele><time>2026-04-12T06:50:23.605Z</time></trkpt><trkpt lat="44.022565" lon="12.5025967"><ele>90.0</ele><time>2026-04-12T06:50:24.606Z</time></trkpt><trkpt lat="44.0224783" lon="12.5023617"><ele>90.0</ele><time>2026-04-12T06:50:25.606Z</time></trkpt><trkpt lat="44.02237" lon="12.5021283"><ele>90.0</ele><time>2026-04-12T06:50:26.605Z</time></trkpt><trkpt lat="44.0222317" lon="12.5019183"><ele>90.0</ele><time>2026-04-12T06:50:27.605Z</time></trkpt><trkpt lat="44.0220817" lon="12.50171"><ele>92.66666666666666</ele><time>2026-04-12T06:50:28.606Z</time></trkpt><trkpt lat="44.0219333" lon="12.5015"><ele>95.33333333333333</ele><time>2026-04-12T06:50:29.605Z</time></trkpt><trkpt lat="44.0217783" lon="12.501275"><ele>98.0</ele><time>2026-04-12T06:50:30.606Z</time></trkpt><trkpt lat="44.021615" lon="12.50106"><ele>100.0</ele><time>2026-04-12T06:50:31.606Z</time></trkpt><trkpt lat="44.02146" lon="12.5008467"><ele>102.0</ele><time>2026-04-12T06:50:32.606Z</time></trkpt><trkpt lat="44.02131" lon="12.5006367"><ele>104.0</ele><time>2026-04-12T06:50:33.606Z</time></trkpt><trkpt lat="44.02115" lon="12.5004133"><ele>104.0</ele><time>2026-04-12T06:50:34.606Z</time></trkpt><trkpt lat="44.0209917" lon="12.5002"><ele>104.0</ele><time>2026-04-12T06:50:35.605Z</time></trkpt><trkpt lat="44.0208283" lon="12.4999783"><ele>104.0</ele><time>2026-04-12T06:50:36.605Z</time></trkpt><trkpt lat="44.0206633" lon="12.4997617"><ele>106.0</ele><time>2026-04-12T06:50:37.606Z</time></trkpt><trkpt lat="44.0204933" lon="12.4995583"><ele>108.0</ele><time>2026-04-12T06:50:38.605Z</time></trkpt><trkpt lat="44.0203183" lon="12.4993733"><ele>110.0</ele><time>2026-04-12T06:50:39.606Z</time></trkpt><trkpt lat="44.02015" lon="12.4991967"><ele>110.0</ele><time>2026-04-12T06:50:40.606Z</time></trkpt><trkpt lat="44.019985" lon="12.4990283"><ele>110.0</ele><time>2026-04-12T06:50:41.605Z</time></trkpt><trkpt lat="44.01983" lon="12.4988483"><ele>110.0</ele><time>2026-04-12T06:50:42.605Z</time></trkpt><trkpt lat="44.0196883" lon="12.498655"><ele>111.0</ele><time>2026-04-12T06:50:43.606Z</time></trkpt><trkpt lat="44.019555" lon="12.4984283"><ele>112.0</ele><time>2026-04-12T06:50:44.606Z</time></trkpt><trkpt lat="44.0194417" lon="12.4981833"><ele>113.0</ele><time>2026-04-12T06:50:45.606Z</time></trkpt><trkpt lat="44.0193383" lon="12.4979617"><ele>115.0</ele><time>2026-04-12T06:50:46.606Z</time></trkpt><trkpt lat="44.019235" lon="12.497785"><ele>117.0</ele><time>2026-04-12T06:50:47.606Z</time></trkpt><trkpt lat="44.0191067" lon="12.4976533"><ele>119.0</ele><time>2026-04-12T06:50:48.605Z</time></trkpt><trkpt lat="44.0189467" lon="12.497565"><ele>120.66666666666666</ele><time>2026-04-12T06:50:49.606Z</time></trkpt><trkpt lat="44.0187733" lon="12.497505"><ele>122.33333333333334</ele><time>2026-04-12T06:50:50.606Z</time></trkpt><trkpt lat="44.0186217" lon="12.49746"><ele>124.0</ele><time>2026-04-12T06:50:51.606Z</time></trkpt><trkpt lat="44.0185017" lon="12.4974267"><ele>124.00000000000001</ele><time>2026-04-12T06:50:52.606Z</time></trkpt><trkpt lat="44.0184085" lon="12.4973973"><ele>124.0</ele><time>2026-04-12T06:50:53.606Z</time></trkpt><trkpt lat="44.0183421" lon="12.4973718"><ele>124.0</ele><time>2026-04-12T06:50:54.606Z</time></trkpt><trkpt lat="44.0182796" lon="12.4973375"><ele>124.0</ele><time>2026-04-12T06:50:56.606Z</time></trkpt><trkpt lat="44.0182192" lon="12.4972883"><ele>124.00000000000001</ele><time>2026-04-12T06:50:58.605Z</time></trkpt><trkpt lat="44.0181533" lon="12.4972502"><ele>124.0</ele><time>2026-04-12T06:50:59.606Z</time></trkpt><trkpt lat="44.0180648" lon="12.4972009"><ele>124.0</ele><time>2026-04-12T06:51:00.606Z</time></trkpt><trkpt lat="44.0179586" lon="12.4971174"><ele>124.0</ele><time>2026-04-12T06:51:01.606Z</time></trkpt><trkpt lat="44.0178489" lon="12.4969864"><ele>124.0</ele><time>2026-04-12T06:51:02.605Z</time></trkpt><trkpt lat="44.0177363" lon="12.4968113"><ele>124.0</ele><time>2026-04-12T06:51:03.605Z</time></trkpt><trkpt lat="44.0176231" lon="12.4965875"><ele>124.33333333333334</ele><time>2026-04-12T06:51:04.605Z</time></trkpt><trkpt lat="44.0175055" lon="12.4963345"><ele>124.66666666666666</ele><time>2026-04-12T06:51:05.606Z</time></trkpt><trkpt lat="44.0173778" lon="12.4960659"><ele>125.0</ele><time>2026-04-12T06:51:06.606Z</time></trkpt><trkpt lat="44.0172436" lon="12.4958101"><ele>125.66666666666666</ele><time>2026-04-12T06:51:07.605Z</time></trkpt><trkpt lat="44.0171018" lon="12.4955721"><ele>126.33333333333334</ele><time>2026-04-12T06:51:08.606Z</time></trkpt><trkpt lat="44.0169544" lon="12.4953345"><ele>127.0</ele><time>2026-04-12T06:51:09.606Z</time></trkpt><trkpt lat="44.01679" lon="12.4950962"><ele>122.0</ele><time>2026-04-12T06:51:10.605Z</time></trkpt><trkpt lat="44.0166087" lon="12.4948516"><ele>117.0</ele><time>2026-04-12T06:51:11.606Z</time></trkpt><trkpt lat="44.0164133" lon="12.4945956"><ele>121.0</ele><time>2026-04-12T06:51:12.606Z</time></trkpt><trkpt lat="44.0162169" lon="12.4943346"><ele>125.0</ele><time>2026-04-12T06:51:13.605Z</time></trkpt><trkpt lat="44.0160181" lon="12.4940694"><ele>125.0</ele><time>2026-04-12T06:51:14.606Z</time></trkpt><trkpt lat="44.0158226" lon="12.493809"><ele>125.0</ele><time>2026-04-12T06:51:15.605Z</time></trkpt><trkpt lat="44.0156252" lon="12.4935677"><ele>128.0</ele><time>2026-04-12T06:51:16.606Z</time></trkpt><trkpt lat="44.0154281" lon="12.4933335"><ele>131.0</ele><time>2026-04-12T06:51:17.606Z</time></trkpt><trkpt lat="44.0152225" lon="12.4931077"><ele>129.0</ele><time>2026-04-12T06:51:18.605Z</time></trkpt><trkpt lat="44.0150053" lon="12.4928913"><ele>127.0</ele><time>2026-04-12T06:51:19.606Z</time></trkpt><trkpt lat="44.0147937" lon="12.4926767"><ele>131.0</ele><time>2026-04-12T06:51:20.606Z</time></trkpt><trkpt lat="44.0145913" lon="12.4924799"><ele>135.0</ele><time>2026-04-12T06:51:21.605Z</time></trkpt><trkpt lat="44.0143969" lon="12.4922991"><ele>135.0</ele><time>2026-04-12T06:51:22.606Z</time></trkpt><trkpt lat="44.0142192" lon="12.4921212"><ele>135.0</ele><time>2026-04-12T06:51:23.605Z</time></trkpt><trkpt lat="44.0140448" lon="12.4919425"><ele>135.0</ele><time>2026-04-12T06:51:24.605Z</time></trkpt><trkpt lat="44.0138731" lon="12.4917633"><ele>133.66666666666666</ele><time>2026-04-12T06:51:25.606Z</time></trkpt><trkpt lat="44.01371" lon="12.4915867"><ele>132.33333333333331</ele><time>2026-04-12T06:51:26.606Z</time></trkpt><trkpt lat="44.0135417" lon="12.4914283"><ele>131.0</ele><time>2026-04-12T06:51:27.605Z</time></trkpt><trkpt lat="44.0133767" lon="12.4912733"><ele>131.66666666666666</ele><time>2026-04-12T06:51:28.605Z</time></trkpt><trkpt lat="44.0131967" lon="12.4911183"><ele>132.33333333333334</ele><time>2026-04-12T06:51:29.605Z</time></trkpt><trkpt lat="44.01301" lon="12.4909633"><ele>133.0</ele><time>2026-04-12T06:51:30.605Z</time></trkpt><trkpt lat="44.0128183" lon="12.4907983"><ele>133.0</ele><time>2026-04-12T06:51:31.606Z</time></trkpt><trkpt lat="44.0126117" lon="12.4906367"><ele>133.0</ele><time>2026-04-12T06:51:32.606Z</time></trkpt><trkpt lat="44.0123983" lon="12.49047"><ele>136.5</ele><time>2026-04-12T06:51:33.606Z</time></trkpt><trkpt lat="44.0121883" lon="12.4903117"><ele>140.0</ele><time>2026-04-12T06:51:34.606Z</time></trkpt><trkpt lat="44.01198" lon="12.490155"><ele>140.0</ele><time>2026-04-12T06:51:35.606Z</time></trkpt><trkpt lat="44.01178" lon="12.4900017"><ele>140.0</ele><time>2026-04-12T06:51:36.605Z</time></trkpt><trkpt lat="44.0115933" lon="12.4898467"><ele>140.0</ele><time>2026-04-12T06:51:37.606Z</time></trkpt><trkpt lat="44.0114067" lon="12.489705"><ele>142.66666666666666</ele><time>2026-04-12T06:51:38.605Z</time></trkpt><trkpt lat="44.01123" lon="12.489565"><ele>145.33333333333334</ele><time>2026-04-12T06:51:39.605Z</time></trkpt><trkpt lat="44.0110717" lon="12.4894383"><ele>148.0</ele><time>2026-04-12T06:51:40.606Z</time></trkpt><trkpt lat="44.0109283" lon="12.48932"><ele>148.66666666666669</ele><time>2026-04-12T06:51:41.606Z</time></trkpt><trkpt lat="44.0107883" lon="12.4892017"><ele>149.33333333333334</ele><time>2026-04-12T06:51:42.606Z</time></trkpt><trkpt lat="44.0106583" lon="12.489095"><ele>150.0</ele><time>2026-04-12T06:51:43.605Z</time></trkpt><trkpt lat="44.0105283" lon="12.488985"><ele>150.0</ele><time>2026-04-12T06:51:44.605Z</time></trkpt><trkpt lat="44.0103883" lon="12.4888717"><ele>150.0</ele><time>2026-04-12T06:51:45.605Z</time></trkpt><trkpt lat="44.0102433" lon="12.4887417"><ele>150.0</ele><time>2026-04-12T06:51:46.606Z</time></trkpt><trkpt lat="44.0100917" lon="12.4886"><ele>147.33333333333334</ele><time>2026-04-12T06:51:47.606Z</time></trkpt><trkpt lat="44.00994" lon="12.4884483"><ele>144.66666666666669</ele><time>2026-04-12T06:51:48.606Z</time></trkpt><trkpt lat="44.009795" lon="12.4882933"><ele>142.0</ele><time>2026-04-12T06:51:49.605Z</time></trkpt><trkpt lat="44.0096517" lon="12.4881333"><ele>142.0</ele><time>2026-04-12T06:51:50.606Z</time></trkpt><trkpt lat="44.009495" lon="12.4879633"><ele>142.0</ele><time>2026-04-12T06:51:51.606Z</time></trkpt><trkpt lat="44.0093383" lon="12.487795"><ele>142.0</ele><time>2026-04-12T06:51:52.606Z</time></trkpt><trkpt lat="44.0091833" lon="12.48763"><ele>140.0</ele><time>2026-04-12T06:51:53.606Z</time></trkpt><trkpt lat="44.009025" lon="12.4874683"><ele>138.0</ele><time>2026-04-12T06:51:54.606Z</time></trkpt><trkpt lat="44.0088733" lon="12.4873067"><ele>136.0</ele><time>2026-04-12T06:51:55.606Z</time></trkpt><trkpt lat="44.0087183" lon="12.487145"><ele>136.33333333333334</ele><time>2026-04-12T06:51:56.606Z</time></trkpt><trkpt lat="44.0085567" lon="12.486995"><ele>136.66666666666666</ele><time>2026-04-12T06:51:57.606Z</time></trkpt><trkpt lat="44.0083917" lon="12.4868333"><ele>137.0</ele><time>2026-04-12T06:51:58.606Z</time></trkpt><trkpt lat="44.0082" lon="12.48668"><ele>135.33333333333331</ele><time>2026-04-12T06:51:59.605Z</time></trkpt><trkpt lat="44.008005" lon="12.4865183"><ele>133.66666666666666</ele><time>2026-04-12T06:52:00.605Z</time></trkpt><trkpt lat="44.007815" lon="12.48637"><ele>132.0</ele><time>2026-04-12T06:52:01.606Z</time></trkpt><trkpt lat="44.00763" lon="12.48623"><ele>133.33333333333334</ele><time>2026-04-12T06:52:02.605Z</time></trkpt><trkpt lat="44.0074517" lon="12.486115"><ele>134.66666666666669</ele><time>2026-04-12T06:52:03.606Z</time></trkpt><trkpt lat="44.007275" lon="12.4860117"><ele>136.0</ele><time>2026-04-12T06:52:04.605Z</time></trkpt><trkpt lat="44.0071083" lon="12.4859217"><ele>136.0</ele><time>2026-04-12T06:52:05.606Z</time></trkpt><trkpt lat="44.0069417" lon="12.4858417"><ele>136.0</ele><time>2026-04-12T06:52:06.606Z</time></trkpt><trkpt lat="44.006795" lon="12.4857617"><ele>136.0</ele><time>2026-04-12T06:52:07.606Z</time></trkpt><trkpt lat="44.0066733" lon="12.4856767"><ele>136.66666666666669</ele><time>2026-04-12T06:52:08.605Z</time></trkpt><trkpt lat="44.0065733" lon="12.485585"><ele>137.33333333333334</ele><time>2026-04-12T06:52:09.606Z</time></trkpt><trkpt lat="44.0064983" lon="12.4855033"><ele>138.0</ele><time>2026-04-12T06:52:10.606Z</time></trkpt><trkpt lat="44.0064433" lon="12.4854467"><ele>138.66666666666666</ele><time>2026-04-12T06:52:11.606Z</time></trkpt><trkpt lat="44.0063733" lon="12.4854267"><ele>139.33333333333331</ele><time>2026-04-12T06:52:13.605Z</time></trkpt><trkpt lat="44.006315" lon="12.4854783"><ele>140.0</ele><time>2026-04-12T06:52:16.606Z</time></trkpt><trkpt lat="44.0063933" lon="12.4854983"><ele>140.0</ele><time>2026-04-12T06:57:06.605Z</time></trkpt><trkpt lat="44.0062767" lon="12.4855067"><ele>140.0</ele><time>2026-04-12T06:57:23.605Z</time></trkpt><trkpt lat="44.0063011" lon="12.4853788"><ele>140.0</ele><time>2026-04-12T06:58:11.557Z</time></trkpt><trkpt lat="44.0063097" lon="12.4852779"><ele>140.0</ele><time>2026-04-12T06:58:14.674Z</time></trkpt><trkpt lat="44.0062474" lon="12.4851427"><ele>140.0</ele><time>2026-04-12T06:58:17.606Z</time></trkpt><trkpt lat="44.0061825" lon="12.4850267"><ele>140.16666666666666</ele><time>2026-04-12T06:58:18.606Z</time></trkpt><trkpt lat="44.0061238" lon="12.4849307"><ele>140.33333333333331</ele><time>2026-04-12T06:58:19.606Z</time></trkpt><trkpt lat="44.0060713" lon="12.4848452"><ele>140.5</ele><time>2026-04-12T06:58:20.605Z</time></trkpt><trkpt lat="44.0060179" lon="12.4847622"><ele>140.66666666666666</ele><time>2026-04-12T06:58:21.606Z</time></trkpt><trkpt lat="44.0059638" lon="12.4846848"><ele>140.83333333333334</ele><time>2026-04-12T06:58:22.605Z</time></trkpt><trkpt lat="44.0059105" lon="12.4846087"><ele>141.0</ele><time>2026-04-12T06:58:23.606Z</time></trkpt><trkpt lat="44.0058621" lon="12.4845281"><ele>140.33333333333334</ele><time>2026-04-12T06:58:24.606Z</time></trkpt><trkpt lat="44.0058126" lon="12.4844487"><ele>139.66666666666666</ele><time>2026-04-12T06:58:25.606Z</time></trkpt><trkpt lat="44.0057602" lon="12.4843614"><ele>139.0</ele><time>2026-04-12T06:58:26.606Z</time></trkpt><trkpt lat="44.0056978" lon="12.4842772"><ele>138.33333333333331</ele><time>2026-04-12T06:58:27.606Z</time></trkpt><trkpt lat="44.0056393" lon="12.4841974"><ele>137.66666666666666</ele><time>2026-04-12T06:58:28.606Z</time></trkpt><trkpt lat="44.005592" lon="12.4841284"><ele>137.0</ele><time>2026-04-12T06:58:29.606Z</time></trkpt><trkpt lat="44.0055045" lon="12.4840117"><ele>137.0</ele><time>2026-04-12T06:58:31.606Z</time></trkpt><trkpt lat="44.0054461" lon="12.4839281"><ele>137.0</ele><time>2026-04-12T06:58:32.606Z</time></trkpt><trkpt lat="44.0053665" lon="12.4838128"><ele>137.0</ele><time>2026-04-12T06:58:33.605Z</time></trkpt><trkpt lat="44.0052728" lon="12.4836694"><ele>137.0</ele><time>2026-04-12T06:58:34.606Z</time></trkpt><trkpt lat="44.0051691" lon="12.4835039"><ele>136.0</ele><time>2026-04-12T06:58:35.605Z</time></trkpt><trkpt lat="44.0050537" lon="12.4833273"><ele>135.0</ele><time>2026-04-12T06:58:36.606Z</time></trkpt><trkpt lat="44.0049247" lon="12.4831357"><ele>134.0</ele><time>2026-04-12T06:58:37.605Z</time></trkpt><trkpt lat="44.0047938" lon="12.4829326"><ele>137.66666666666666</ele><time>2026-04-12T06:58:38.605Z</time></trkpt><trkpt lat="44.0046577" lon="12.4827231"><ele>141.33333333333334</ele><time>2026-04-12T06:58:39.605Z</time></trkpt><trkpt lat="44.0045178" lon="12.4825165"><ele>145.0</ele><time>2026-04-12T06:58:40.606Z</time></trkpt><trkpt lat="44.0043845" lon="12.4823157"><ele>145.0</ele><time>2026-04-12T06:58:41.605Z</time></trkpt><trkpt lat="44.0042641" lon="12.4821339"><ele>145.0</ele><time>2026-04-12T06:58:42.606Z</time></trkpt><trkpt lat="44.0041515" lon="12.4819611"><ele>145.0</ele><time>2026-04-12T06:58:43.606Z</time></trkpt><trkpt lat="44.0040467" lon="12.4818095"><ele>147.33333333333334</ele><time>2026-04-12T06:58:44.606Z</time></trkpt><trkpt lat="44.0039401" lon="12.4816797"><ele>149.66666666666666</ele><time>2026-04-12T06:58:45.605Z</time></trkpt><trkpt lat="44.0038166" lon="12.481564"><ele>152.0</ele><time>2026-04-12T06:58:46.606Z</time></trkpt><trkpt lat="44.0036753" lon="12.481449"><ele>152.0</ele><time>2026-04-12T06:58:47.606Z</time></trkpt><trkpt lat="44.0035154" lon="12.4813222"><ele>152.0</ele><time>2026-04-12T06:58:48.606Z</time></trkpt><trkpt lat="44.0033521" lon="12.4811958"><ele>152.0</ele><time>2026-04-12T06:58:49.606Z</time></trkpt><trkpt lat="44.0032026" lon="12.4810835"><ele>154.5</ele><time>2026-04-12T06:58:50.606Z</time></trkpt><trkpt lat="44.0030731" lon="12.4809758"><ele>157.0</ele><time>2026-04-12T06:58:51.606Z</time></trkpt><trkpt lat="44.0029569" lon="12.4808647"><ele>159.5</ele><time>2026-04-12T06:58:52.606Z</time></trkpt><trkpt lat="44.0028576" lon="12.4807334"><ele>162.0</ele><time>2026-04-12T06:58:53.606Z</time></trkpt><trkpt lat="44.0027923" lon="12.4805702"><ele>162.39999999999998</ele><time>2026-04-12T06:58:54.606Z</time></trkpt><trkpt lat="44.0027655" lon="12.4803913"><ele>162.79999999999998</ele><time>2026-04-12T06:58:55.605Z</time></trkpt><trkpt lat="44.0027616" lon="12.4802337"><ele>163.2</ele><time>2026-04-12T06:58:56.605Z</time></trkpt><trkpt lat="44.0027481" lon="12.4801077"><ele>163.6</ele><time>2026-04-12T06:58:57.606Z</time></trkpt><trkpt lat="44.0027095" lon="12.4800072"><ele>164.0</ele><time>2026-04-12T06:58:58.605Z</time></trkpt><trkpt lat="44.0026481" lon="12.4799494"><ele>164.0</ele><time>2026-04-12T06:58:59.605Z</time></trkpt><trkpt lat="44.0025569" lon="12.479952"><ele>164.0</ele><time>2026-04-12T06:59:00.606Z</time></trkpt><trkpt lat="44.0024571" lon="12.4800178"><ele>164.0</ele><time>2026-04-12T06:59:01.606Z</time></trkpt><trkpt lat="44.0023559" lon="12.4801294"><ele>164.0</ele><time>2026-04-12T06:59:02.606Z</time></trkpt><trkpt lat="44.0022519" lon="12.4802915"><ele>166.25</ele><time>2026-04-12T06:59:03.606Z</time></trkpt><trkpt lat="44.002149" lon="12.480456"><ele>168.5</ele><time>2026-04-12T06:59:04.606Z</time></trkpt><trkpt lat="44.0020648" lon="12.4805934"><ele>170.75</ele><time>2026-04-12T06:59:05.605Z</time></trkpt><trkpt lat="44.0019949" lon="12.4807044"><ele>173.0</ele><time>2026-04-12T06:59:06.606Z</time></trkpt><trkpt lat="44.0019281" lon="12.4807876"><ele>173.0</ele><time>2026-04-12T06:59:07.606Z</time></trkpt><trkpt lat="44.0018567" lon="12.4808343"><ele>173.0</ele><time>2026-04-12T06:59:08.606Z</time></trkpt><trkpt lat="44.0017829" lon="12.4808461"><ele>173.0</ele><time>2026-04-12T06:59:09.606Z</time></trkpt><trkpt lat="44.0017217" lon="12.4808061"><ele>173.0</ele><time>2026-04-12T06:59:10.605Z</time></trkpt><trkpt lat="44.0016955" lon="12.4807029"><ele>173.0</ele><time>2026-04-12T06:59:11.606Z</time></trkpt><trkpt lat="44.0016981" lon="12.4805721"><ele>173.0</ele><time>2026-04-12T06:59:12.606Z</time></trkpt><trkpt lat="44.0017204" lon="12.4804267"><ele>174.5</ele><time>2026-04-12T06:59:13.606Z</time></trkpt><trkpt lat="44.0017681" lon="12.4802659"><ele>176.0</ele><time>2026-04-12T06:59:14.605Z</time></trkpt><trkpt lat="44.0018111" lon="12.4800944"><ele>177.5</ele><time>2026-04-12T06:59:15.606Z</time></trkpt><trkpt lat="44.0018282" lon="12.4799226"><ele>179.0</ele><time>2026-04-12T06:59:16.605Z</time></trkpt><trkpt lat="44.0018044" lon="12.4797468"><ele>180.33333333333331</ele><time>2026-04-12T06:59:17.606Z</time></trkpt><trkpt lat="44.00174" lon="12.4795656"><ele>181.66666666666666</ele><time>2026-04-12T06:59:18.605Z</time></trkpt><trkpt lat="44.0016531" lon="12.479371"><ele>183.0</ele><time>2026-04-12T06:59:19.605Z</time></trkpt><trkpt lat="44.0015446" lon="12.4791728"><ele>183.66666666666666</ele><time>2026-04-12T06:59:20.606Z</time></trkpt><trkpt lat="44.0014403" lon="12.478981"><ele>184.33333333333331</ele><time>2026-04-12T06:59:21.606Z</time></trkpt><trkpt lat="44.001343" lon="12.4788059"><ele>185.0</ele><time>2026-04-12T06:59:22.606Z</time></trkpt><trkpt lat="44.0012473" lon="12.4786317"><ele>185.0</ele><time>2026-04-12T06:59:23.606Z</time></trkpt><trkpt lat="44.0011654" lon="12.478443"><ele>185.0</ele><time>2026-04-12T06:59:24.605Z</time></trkpt><trkpt lat="44.001094" lon="12.4782274"><ele>185.0</ele><time>2026-04-12T06:59:25.605Z</time></trkpt><trkpt lat="44.0010361" lon="12.4779961"><ele>185.66666666666666</ele><time>2026-04-12T06:59:26.606Z</time></trkpt><trkpt lat="44.0009783" lon="12.4777497"><ele>186.33333333333334</ele><time>2026-04-12T06:59:27.605Z</time></trkpt><trkpt lat="44.000916" lon="12.4775047"><ele>187.0</ele><time>2026-04-12T06:59:28.606Z</time></trkpt><trkpt lat="44.0008566" lon="12.4772669"><ele>185.66666666666669</ele><time>2026-04-12T06:59:29.606Z</time></trkpt><trkpt lat="44.0008002" lon="12.4770219"><ele>184.33333333333334</ele><time>2026-04-12T06:59:30.605Z</time></trkpt><trkpt lat="44.0007293" lon="12.4767718"><ele>183.0</ele><time>2026-04-12T06:59:31.605Z</time></trkpt><trkpt lat="44.0006416" lon="12.4765209"><ele>183.0</ele><time>2026-04-12T06:59:32.606Z</time></trkpt><trkpt lat="44.0005487" lon="12.4762777"><ele>183.0</ele><time>2026-04-12T06:59:33.606Z</time></trkpt><trkpt lat="44.0004633" lon="12.476061"><ele>183.0</ele><time>2026-04-12T06:59:34.606Z</time></trkpt><trkpt lat="44.0003799" lon="12.4758583"><ele>185.5</ele><time>2026-04-12T06:59:35.606Z</time></trkpt><trkpt lat="44.0002933" lon="12.475681"><ele>188.0</ele><time>2026-04-12T06:59:36.605Z</time></trkpt><trkpt lat="44.000199" lon="12.4755222"><ele>190.5</ele><time>2026-04-12T06:59:37.606Z</time></trkpt><trkpt lat="44.0000977" lon="12.4753837"><ele>193.0</ele><time>2026-04-12T06:59:38.606Z</time></trkpt><trkpt lat="43.9999764" lon="12.4752541"><ele>195.0</ele><time>2026-04-12T06:59:39.605Z</time></trkpt><trkpt lat="43.9998346" lon="12.4751248"><ele>197.0</ele><time>2026-04-12T06:59:40.606Z</time></trkpt><trkpt lat="43.999665" lon="12.475005"><ele>199.0</ele><time>2026-04-12T06:59:41.606Z</time></trkpt><trkpt lat="43.999476" lon="12.4748889"><ele>199.0</ele><time>2026-04-12T06:59:42.606Z</time></trkpt><trkpt lat="43.9992761" lon="12.4747718"><ele>199.0</ele><time>2026-04-12T06:59:43.605Z</time></trkpt><trkpt lat="43.9990765" lon="12.4746576"><ele>199.0</ele><time>2026-04-12T06:59:44.605Z</time></trkpt><trkpt lat="43.9988846" lon="12.4745456"><ele>196.66666666666666</ele><time>2026-04-12T06:59:45.605Z</time></trkpt><trkpt lat="43.998693" lon="12.474442"><ele>194.33333333333331</ele><time>2026-04-12T06:59:46.606Z</time></trkpt><trkpt lat="43.9985051" lon="12.4743326"><ele>192.0</ele><time>2026-04-12T06:59:47.606Z</time></trkpt><trkpt lat="43.9983157" lon="12.4742157"><ele>191.33333333333334</ele><time>2026-04-12T06:59:48.605Z</time></trkpt><trkpt lat="43.9981248" lon="12.4741003"><ele>190.66666666666669</ele><time>2026-04-12T06:59:49.605Z</time></trkpt><trkpt lat="43.9979426" lon="12.4739903"><ele>190.0</ele><time>2026-04-12T06:59:50.605Z</time></trkpt><trkpt lat="43.9977682" lon="12.4738788"><ele>189.0</ele><time>2026-04-12T06:59:51.606Z</time></trkpt><trkpt lat="43.9976036" lon="12.4737651"><ele>188.0</ele><time>2026-04-12T06:59:52.605Z</time></trkpt><trkpt lat="43.997451" lon="12.4736528"><ele>187.0</ele><time>2026-04-12T06:59:53.606Z</time></trkpt><trkpt lat="43.9973077" lon="12.4735344"><ele>187.0</ele><time>2026-04-12T06:59:54.606Z</time></trkpt><trkpt lat="43.9971711" lon="12.4733844"><ele>187.0</ele><time>2026-04-12T06:59:55.605Z</time></trkpt><trkpt lat="43.9970328" lon="12.4731893"><ele>187.0</ele><time>2026-04-12T06:59:56.606Z</time></trkpt><trkpt lat="43.9968867" lon="12.472965"><ele>184.0</ele><time>2026-04-12T06:59:57.605Z</time></trkpt><trkpt lat="43.9967366" lon="12.4727263"><ele>181.0</ele><time>2026-04-12T06:59:58.606Z</time></trkpt><trkpt lat="43.9965759" lon="12.472473"><ele>181.0</ele><time>2026-04-12T06:59:59.606Z</time></trkpt><trkpt lat="43.9963997" lon="12.4722263"><ele>181.0</ele><time>2026-04-12T07:00:00.606Z</time></trkpt><trkpt lat="43.9962149" lon="12.4719803"><ele>178.5</ele><time>2026-04-12T07:00:01.606Z</time></trkpt><trkpt lat="43.996031" lon="12.4717364"><ele>176.0</ele><time>2026-04-12T07:00:02.606Z</time></trkpt><trkpt lat="43.9958472" lon="12.4714981"><ele>175.5</ele><time>2026-04-12T07:00:03.605Z</time></trkpt><trkpt lat="43.9956647" lon="12.4712599"><ele>175.0</ele><time>2026-04-12T07:00:04.606Z</time></trkpt><trkpt lat="43.9954803" lon="12.4710185"><ele>175.0</ele><time>2026-04-12T07:00:05.605Z</time></trkpt><trkpt lat="43.9952972" lon="12.4707674"><ele>175.0</ele><time>2026-04-12T07:00:06.606Z</time></trkpt><trkpt lat="43.9951135" lon="12.4705122"><ele>175.0</ele><time>2026-04-12T07:00:07.606Z</time></trkpt><trkpt lat="43.9949222" lon="12.4702504"><ele>175.0</ele><time>2026-04-12T07:00:08.606Z</time></trkpt><trkpt lat="43.9947298" lon="12.4699836"><ele>175.0</ele><time>2026-04-12T07:00:09.605Z</time></trkpt><trkpt lat="43.9945469" lon="12.4697236"><ele>175.0</ele><time>2026-04-12T07:00:10.606Z</time></trkpt><trkpt lat="43.9943796" lon="12.4694792"><ele>175.33333333333334</ele><time>2026-04-12T07:00:11.606Z</time></trkpt><trkpt lat="43.9942227" lon="12.4692466"><ele>175.66666666666666</ele><time>2026-04-12T07:00:12.606Z</time></trkpt><trkpt lat="43.994076" lon="12.4690307"><ele>176.0</ele><time>2026-04-12T07:00:13.605Z</time></trkpt><trkpt lat="43.993938" lon="12.4688253"><ele>176.33333333333331</ele><time>2026-04-12T07:00:14.606Z</time></trkpt><trkpt lat="43.9938052" lon="12.4686176"><ele>176.66666666666666</ele><time>2026-04-12T07:00:15.605Z</time></trkpt><trkpt lat="43.9936692" lon="12.4684026"><ele>177.0</ele><time>2026-04-12T07:00:16.606Z</time></trkpt><trkpt lat="43.9935251" lon="12.4681812"><ele>177.0</ele><time>2026-04-12T07:00:17.606Z</time></trkpt><trkpt lat="43.993383" lon="12.4679527"><ele>177.0</ele><time>2026-04-12T07:00:18.606Z</time></trkpt><trkpt lat="43.9932381" lon="12.4677235"><ele>177.0</ele><time>2026-04-12T07:00:19.606Z</time></trkpt><trkpt lat="43.9930863" lon="12.4674954"><ele>176.66666666666666</ele><time>2026-04-12T07:00:20.606Z</time></trkpt><trkpt lat="43.9929336" lon="12.4672709"><ele>176.33333333333331</ele><time>2026-04-12T07:00:21.605Z</time></trkpt><trkpt lat="43.9927829" lon="12.4670543"><ele>176.0</ele><time>2026-04-12T07:00:22.605Z</time></trkpt><trkpt lat="43.9926389" lon="12.4668402"><ele>176.33333333333331</ele><time>2026-04-12T07:00:23.606Z</time></trkpt><trkpt lat="43.9924989" lon="12.4666221"><ele>176.66666666666666</ele><time>2026-04-12T07:00:24.606Z</time></trkpt><trkpt lat="43.9923646" lon="12.4664017"><ele>177.0</ele><time>2026-04-12T07:00:25.605Z</time></trkpt><trkpt lat="43.9922271" lon="12.4661786"><ele>177.0</ele><time>2026-04-12T07:00:26.606Z</time></trkpt><trkpt lat="43.9920854" lon="12.4659464"><ele>177.0</ele><time>2026-04-12T07:00:27.606Z</time></trkpt><trkpt lat="43.9919337" lon="12.4657179"><ele>177.0</ele><time>2026-04-12T07:00:28.606Z</time></trkpt><trkpt lat="43.9917799" lon="12.4654927"><ele>176.33333333333334</ele><time>2026-04-12T07:00:29.606Z</time></trkpt><trkpt lat="43.9916235" lon="12.4652684"><ele>175.66666666666669</ele><time>2026-04-12T07:00:30.606Z</time></trkpt><trkpt lat="43.9914665" lon="12.4650472"><ele>175.0</ele><time>2026-04-12T07:00:31.606Z</time></trkpt><trkpt lat="43.991306" lon="12.4648316"><ele>175.0</ele><time>2026-04-12T07:00:32.606Z</time></trkpt><trkpt lat="43.9911473" lon="12.4646133"><ele>175.0</ele><time>2026-04-12T07:00:33.605Z</time></trkpt><trkpt lat="43.9909958" lon="12.4644074"><ele>175.0</ele><time>2026-04-12T07:00:34.607Z</time></trkpt><trkpt lat="43.9908487" lon="12.4642111"><ele>176.0</ele><time>2026-04-12T07:00:35.606Z</time></trkpt><trkpt lat="43.9907067" lon="12.4640204"><ele>177.0</ele><time>2026-04-12T07:00:36.607Z</time></trkpt><trkpt lat="43.9905699" lon="12.4638393"><ele>178.0</ele><time>2026-04-12T07:00:37.607Z</time></trkpt><trkpt lat="43.99043" lon="12.46367"><ele>178.0</ele><time>2026-04-12T07:00:38.607Z</time></trkpt><trkpt lat="43.9902784" lon="12.4635074"><ele>178.0</ele><time>2026-04-12T07:00:39.606Z</time></trkpt><trkpt lat="43.9901119" lon="12.4633536"><ele>178.0</ele><time>2026-04-12T07:00:40.607Z</time></trkpt><trkpt lat="43.9899561" lon="12.4632076"><ele>179.66666666666669</ele><time>2026-04-12T07:00:41.607Z</time></trkpt><trkpt lat="43.9898122" lon="12.4630741"><ele>181.33333333333334</ele><time>2026-04-12T07:00:42.607Z</time></trkpt><trkpt lat="43.9896668" lon="12.4629531"><ele>183.0</ele><time>2026-04-12T07:00:43.607Z</time></trkpt><trkpt lat="43.9895091" lon="12.462835"><ele>183.66666666666666</ele><time>2026-04-12T07:00:44.607Z</time></trkpt><trkpt lat="43.9893293" lon="12.4627229"><ele>184.33333333333331</ele><time>2026-04-12T07:00:45.607Z</time></trkpt><trkpt lat="43.9891321" lon="12.4626071"><ele>185.0</ele><time>2026-04-12T07:00:46.607Z</time></trkpt><trkpt lat="43.9889239" lon="12.462489"><ele>185.0</ele><time>2026-04-12T07:00:47.606Z</time></trkpt><trkpt lat="43.9887122" lon="12.4623595"><ele>185.0</ele><time>2026-04-12T07:00:48.607Z</time></trkpt><trkpt lat="43.9884977" lon="12.4622338"><ele>184.0</ele><time>2026-04-12T07:00:49.607Z</time></trkpt><trkpt lat="43.9882799" lon="12.4621199"><ele>183.0</ele><time>2026-04-12T07:00:50.606Z</time></trkpt><trkpt lat="43.988051" lon="12.4620135"><ele>183.0</ele><time>2026-04-12T07:00:51.607Z</time></trkpt><trkpt lat="43.9878253" lon="12.4619072"><ele>183.0</ele><time>2026-04-12T07:00:52.606Z</time></trkpt><trkpt lat="43.9876043" lon="12.4618076"><ele>180.0</ele><time>2026-04-12T07:00:53.607Z</time></trkpt><trkpt lat="43.9873808" lon="12.4617094"><ele>177.0</ele><time>2026-04-12T07:00:54.606Z</time></trkpt><trkpt lat="43.9871605" lon="12.461611"><ele>177.0</ele><time>2026-04-12T07:00:55.606Z</time></trkpt><trkpt lat="43.9869476" lon="12.4615099"><ele>177.0</ele><time>2026-04-12T07:00:56.607Z</time></trkpt><trkpt lat="43.9867394" lon="12.4614149"><ele>177.0</ele><time>2026-04-12T07:00:57.607Z</time></trkpt><trkpt lat="43.9865357" lon="12.4613182"><ele>175.0</ele><time>2026-04-12T07:00:58.606Z</time></trkpt><trkpt lat="43.9863382" lon="12.4612214"><ele>173.0</ele><time>2026-04-12T07:00:59.606Z</time></trkpt><trkpt lat="43.9861422" lon="12.4611284"><ele>171.0</ele><time>2026-04-12T07:01:00.607Z</time></trkpt><trkpt lat="43.9859416" lon="12.4610401"><ele>171.0</ele><time>2026-04-12T07:01:01.606Z</time></trkpt><trkpt lat="43.9857336" lon="12.4609579"><ele>171.0</ele><time>2026-04-12T07:01:02.606Z</time></trkpt><trkpt lat="43.9855234" lon="12.4608821"><ele>171.0</ele><time>2026-04-12T07:01:03.607Z</time></trkpt><trkpt lat="43.9853193" lon="12.4608166"><ele>171.0</ele><time>2026-04-12T07:01:04.606Z</time></trkpt><trkpt lat="43.9851281" lon="12.4607581"><ele>171.0</ele><time>2026-04-12T07:01:05.607Z</time></trkpt><trkpt lat="43.9849377" lon="12.4607112"><ele>171.0</ele><time>2026-04-12T07:01:06.607Z</time></trkpt><trkpt lat="43.9847521" lon="12.4606803"><ele>171.66666666666666</ele><time>2026-04-12T07:01:07.607Z</time></trkpt><trkpt lat="43.984561" lon="12.4606519"><ele>172.33333333333331</ele><time>2026-04-12T07:01:08.607Z</time></trkpt><trkpt lat="43.9843693" lon="12.4605931"><ele>173.0</ele><time>2026-04-12T07:01:09.607Z</time></trkpt><trkpt lat="43.9841808" lon="12.4605101"><ele>175.66666666666666</ele><time>2026-04-12T07:01:10.606Z</time></trkpt><trkpt lat="43.9840016" lon="12.4604288"><ele>178.33333333333334</ele><time>2026-04-12T07:01:11.606Z</time></trkpt><trkpt lat="43.9838419" lon="12.4603535"><ele>181.0</ele><time>2026-04-12T07:01:12.607Z</time></trkpt><trkpt lat="43.9836902" lon="12.4602879"><ele>181.0</ele><time>2026-04-12T07:01:13.607Z</time></trkpt><trkpt lat="43.9835415" lon="12.4602318"><ele>181.0</ele><time>2026-04-12T07:01:14.607Z</time></trkpt><trkpt lat="43.983385" lon="12.4601932"><ele>181.0</ele><time>2026-04-12T07:01:15.606Z</time></trkpt><trkpt lat="43.9832322" lon="12.4601744"><ele>182.0</ele><time>2026-04-12T07:01:16.607Z</time></trkpt><trkpt lat="43.9830843" lon="12.4601734"><ele>183.0</ele><time>2026-04-12T07:01:17.607Z</time></trkpt><trkpt lat="43.982931" lon="12.4601788"><ele>184.0</ele><time>2026-04-12T07:01:18.607Z</time></trkpt><trkpt lat="43.9827687" lon="12.4601844"><ele>184.0</ele><time>2026-04-12T07:01:19.607Z</time></trkpt><trkpt lat="43.9825928" lon="12.4602012"><ele>184.0</ele><time>2026-04-12T07:01:20.607Z</time></trkpt><trkpt lat="43.9824058" lon="12.4602207"><ele>184.0</ele><time>2026-04-12T07:01:21.607Z</time></trkpt><trkpt lat="43.9822119" lon="12.4602435"><ele>182.33333333333334</ele><time>2026-04-12T07:01:22.606Z</time></trkpt><trkpt lat="43.9820233" lon="12.4602729"><ele>180.66666666666666</ele><time>2026-04-12T07:01:23.607Z</time></trkpt><trkpt lat="43.9818486" lon="12.4602904"><ele>179.0</ele><time>2026-04-12T07:01:24.607Z</time></trkpt><trkpt lat="43.9816886" lon="12.460307"><ele>179.0</ele><time>2026-04-12T07:01:25.607Z</time></trkpt><trkpt lat="43.9815403" lon="12.4603451"><ele>179.0</ele><time>2026-04-12T07:01:26.606Z</time></trkpt><trkpt lat="43.9813958" lon="12.4604335"><ele>179.0</ele><time>2026-04-12T07:01:27.607Z</time></trkpt><trkpt lat="43.9812464" lon="12.4605628"><ele>179.66666666666666</ele><time>2026-04-12T07:01:28.607Z</time></trkpt><trkpt lat="43.9810903" lon="12.4607256"><ele>180.33333333333334</ele><time>2026-04-12T07:01:29.607Z</time></trkpt><trkpt lat="43.9809359" lon="12.4608928"><ele>181.0</ele><time>2026-04-12T07:01:30.606Z</time></trkpt><trkpt lat="43.9807909" lon="12.4610532"><ele>180.66666666666669</ele><time>2026-04-12T07:01:31.606Z</time></trkpt><trkpt lat="43.9806541" lon="12.4612111"><ele>180.33333333333334</ele><time>2026-04-12T07:01:32.607Z</time></trkpt><trkpt lat="43.9805159" lon="12.4613674"><ele>180.0</ele><time>2026-04-12T07:01:33.607Z</time></trkpt><trkpt lat="43.980372" lon="12.4615175"><ele>180.0</ele><time>2026-04-12T07:01:34.607Z</time></trkpt><trkpt lat="43.9802168" lon="12.4616507"><ele>180.0</ele><time>2026-04-12T07:01:35.607Z</time></trkpt><trkpt lat="43.9800426" lon="12.4617584"><ele>180.0</ele><time>2026-04-12T07:01:36.607Z</time></trkpt><trkpt lat="43.9798454" lon="12.4618426"><ele>182.5</ele><time>2026-04-12T07:01:37.607Z</time></trkpt><trkpt lat="43.9796304" lon="12.4619063"><ele>185.0</ele><time>2026-04-12T07:01:38.607Z</time></trkpt><trkpt lat="43.9794042" lon="12.4619634"><ele>187.0</ele><time>2026-04-12T07:01:39.606Z</time></trkpt><trkpt lat="43.979165" lon="12.4620175"><ele>189.0</ele><time>2026-04-12T07:01:40.606Z</time></trkpt><trkpt lat="43.9789319" lon="12.4620707"><ele>190.0</ele><time>2026-04-12T07:01:41.607Z</time></trkpt><trkpt lat="43.9787126" lon="12.4621218"><ele>191.0</ele><time>2026-04-12T07:01:42.607Z</time></trkpt><trkpt lat="43.9784992" lon="12.4621668"><ele>192.0</ele><time>2026-04-12T07:01:43.606Z</time></trkpt><trkpt lat="43.9782953" lon="12.4622072"><ele>192.0</ele><time>2026-04-12T07:01:44.607Z</time></trkpt><trkpt lat="43.9780953" lon="12.4622361"><ele>192.0</ele><time>2026-04-12T07:01:45.606Z</time></trkpt><trkpt lat="43.9778919" lon="12.462256"><ele>192.0</ele><time>2026-04-12T07:01:46.607Z</time></trkpt><trkpt lat="43.9776878" lon="12.4622579"><ele>195.0</ele><time>2026-04-12T07:01:47.607Z</time></trkpt><trkpt lat="43.9774999" lon="12.4622576"><ele>198.0</ele><time>2026-04-12T07:01:48.607Z</time></trkpt><trkpt lat="43.9773319" lon="12.4622618"><ele>201.0</ele><time>2026-04-12T07:01:49.606Z</time></trkpt><trkpt lat="43.9771809" lon="12.4622677"><ele>201.0</ele><time>2026-04-12T07:01:50.607Z</time></trkpt><trkpt lat="43.9770479" lon="12.4622917"><ele>201.0</ele><time>2026-04-12T07:01:51.607Z</time></trkpt><trkpt lat="43.9769298" lon="12.46234"><ele>201.0</ele><time>2026-04-12T07:01:52.607Z</time></trkpt><trkpt lat="43.9768319" lon="12.4624257"><ele>201.0</ele><time>2026-04-12T07:01:53.607Z</time></trkpt><trkpt lat="43.9767638" lon="12.462562"><ele>201.0</ele><time>2026-04-12T07:01:54.606Z</time></trkpt><trkpt lat="43.9767254" lon="12.4627562"><ele>201.0</ele><time>2026-04-12T07:01:55.607Z</time></trkpt><trkpt lat="43.976726" lon="12.4629775"><ele>201.0</ele><time>2026-04-12T07:01:56.607Z</time></trkpt><trkpt lat="43.9767325" lon="12.4631731"><ele>201.0</ele><time>2026-04-12T07:01:57.606Z</time></trkpt><trkpt lat="43.9767299" lon="12.4633209"><ele>200.0</ele><time>2026-04-12T07:01:58.606Z</time></trkpt><trkpt lat="43.9767142" lon="12.4634301"><ele>199.0</ele><time>2026-04-12T07:01:59.607Z</time></trkpt><trkpt lat="43.9766273" lon="12.4635242"><ele>198.0</ele><time>2026-04-12T07:02:01.607Z</time></trkpt><trkpt lat="43.9765656" lon="12.4634887"><ele>197.0</ele><time>2026-04-12T07:02:02.607Z</time></trkpt><trkpt lat="43.9765094" lon="12.463419"><ele>196.0</ele><time>2026-04-12T07:02:03.607Z</time></trkpt><trkpt lat="43.9764604" lon="12.463321"><ele>195.0</ele><time>2026-04-12T07:02:04.607Z</time></trkpt><trkpt lat="43.9764035" lon="12.4632057"><ele>199.0</ele><time>2026-04-12T07:02:05.607Z</time></trkpt><trkpt lat="43.9763304" lon="12.463101"><ele>203.0</ele><time>2026-04-12T07:02:06.607Z</time></trkpt><trkpt lat="43.9762365" lon="12.46302"><ele>207.0</ele><time>2026-04-12T07:02:07.607Z</time></trkpt><trkpt lat="43.9761276" lon="12.4629772"><ele>211.0</ele><time>2026-04-12T07:02:08.607Z</time></trkpt><trkpt lat="43.9760001" lon="12.4629616"><ele>211.0</ele><time>2026-04-12T07:02:09.606Z</time></trkpt><trkpt lat="43.9758552" lon="12.46297"><ele>211.0</ele><time>2026-04-12T07:02:10.606Z</time></trkpt><trkpt lat="43.9756895" lon="12.4629943"><ele>211.0</ele><time>2026-04-12T07:02:11.606Z</time></trkpt><trkpt lat="43.9755122" lon="12.4630121"><ele>210.66666666666666</ele><time>2026-04-12T07:02:12.607Z</time></trkpt><trkpt lat="43.9753404" lon="12.4630086"><ele>210.33333333333331</ele><time>2026-04-12T07:02:13.607Z</time></trkpt><trkpt lat="43.9751766" lon="12.4629671"><ele>210.0</ele><time>2026-04-12T07:02:14.606Z</time></trkpt><trkpt lat="43.9750225" lon="12.4629214"><ele>212.25</ele><time>2026-04-12T07:02:15.606Z</time></trkpt><trkpt lat="43.9748879" lon="12.4628766"><ele>214.5</ele><time>2026-04-12T07:02:16.606Z</time></trkpt><trkpt lat="43.9747673" lon="12.4628309"><ele>216.75</ele><time>2026-04-12T07:02:17.606Z</time></trkpt><trkpt lat="43.9746546" lon="12.4627641"><ele>219.0</ele><time>2026-04-12T07:02:18.607Z</time></trkpt><trkpt lat="43.9745412" lon="12.4626737"><ele>219.0</ele><time>2026-04-12T07:02:19.607Z</time></trkpt><trkpt lat="43.9744424" lon="12.4625435"><ele>219.0</ele><time>2026-04-12T07:02:20.606Z</time></trkpt><trkpt lat="43.974344" lon="12.4623775"><ele>219.0</ele><time>2026-04-12T07:02:21.607Z</time></trkpt><trkpt lat="43.9742392" lon="12.4621593"><ele>217.66666666666669</ele><time>2026-04-12T07:02:22.607Z</time></trkpt><trkpt lat="43.9741392" lon="12.4619153"><ele>216.33333333333334</ele><time>2026-04-12T07:02:23.606Z</time></trkpt><trkpt lat="43.9740487" lon="12.4616468"><ele>215.0</ele><time>2026-04-12T07:02:24.607Z</time></trkpt><trkpt lat="43.9739506" lon="12.4613962"><ele>213.66666666666669</ele><time>2026-04-12T07:02:25.607Z</time></trkpt><trkpt lat="43.9738447" lon="12.4611614"><ele>212.33333333333331</ele><time>2026-04-12T07:02:26.606Z</time></trkpt><trkpt lat="43.9737337" lon="12.460924"><ele>211.0</ele><time>2026-04-12T07:02:27.606Z</time></trkpt><trkpt lat="43.9736297" lon="12.4606775"><ele>211.33333333333331</ele><time>2026-04-12T07:02:28.607Z</time></trkpt><trkpt lat="43.9735252" lon="12.4604189"><ele>211.66666666666669</ele><time>2026-04-12T07:02:29.607Z</time></trkpt><trkpt lat="43.9734223" lon="12.4601549"><ele>212.0</ele><time>2026-04-12T07:02:30.607Z</time></trkpt><trkpt lat="43.9733233" lon="12.4599007"><ele>212.0</ele><time>2026-04-12T07:02:31.607Z</time></trkpt><trkpt lat="43.9732289" lon="12.459656"><ele>212.0</ele><time>2026-04-12T07:02:32.606Z</time></trkpt><trkpt lat="43.9731375" lon="12.4594156"><ele>212.0</ele><time>2026-04-12T07:02:33.606Z</time></trkpt><trkpt lat="43.9730459" lon="12.4591711"><ele>211.66666666666669</ele><time>2026-04-12T07:02:34.607Z</time></trkpt><trkpt lat="43.9729617" lon="12.4589186"><ele>211.33333333333331</ele><time>2026-04-12T07:02:35.606Z</time></trkpt><trkpt lat="43.9728888" lon="12.4586588"><ele>211.0</ele><time>2026-04-12T07:02:36.607Z</time></trkpt><trkpt lat="43.9728206" lon="12.4583832"><ele>211.33333333333331</ele><time>2026-04-12T07:02:37.607Z</time></trkpt><trkpt lat="43.9727621" lon="12.4581034"><ele>211.66666666666669</ele><time>2026-04-12T07:02:38.607Z</time></trkpt><trkpt lat="43.972718" lon="12.457836"><ele>212.0</ele><time>2026-04-12T07:02:39.607Z</time></trkpt><trkpt lat="43.9726867" lon="12.4575842"><ele>212.0</ele><time>2026-04-12T07:02:40.607Z</time></trkpt><trkpt lat="43.9726754" lon="12.4573442"><ele>212.0</ele><time>2026-04-12T07:02:41.607Z</time></trkpt><trkpt lat="43.9726991" lon="12.4570963"><ele>212.0</ele><time>2026-04-12T07:02:42.606Z</time></trkpt><trkpt lat="43.9727499" lon="12.4568395"><ele>214.33333333333334</ele><time>2026-04-12T07:02:43.607Z</time></trkpt><trkpt lat="43.9728042" lon="12.4565873"><ele>216.66666666666669</ele><time>2026-04-12T07:02:44.607Z</time></trkpt><trkpt lat="43.9728453" lon="12.4563512"><ele>219.0</ele><time>2026-04-12T07:02:45.607Z</time></trkpt><trkpt lat="43.972862" lon="12.4561306"><ele>219.66666666666669</ele><time>2026-04-12T07:02:46.607Z</time></trkpt><trkpt lat="43.9728413" lon="12.4559037"><ele>220.33333333333334</ele><time>2026-04-12T07:02:47.607Z</time></trkpt><trkpt lat="43.9727881" lon="12.4556637"><ele>221.0</ele><time>2026-04-12T07:02:48.607Z</time></trkpt><trkpt lat="43.9727047" lon="12.4554086"><ele>219.0</ele><time>2026-04-12T07:02:49.606Z</time></trkpt><trkpt lat="43.972614" lon="12.4551712"><ele>217.0</ele><time>2026-04-12T07:02:50.606Z</time></trkpt><trkpt lat="43.9725313" lon="12.4549569"><ele>215.0</ele><time>2026-04-12T07:02:51.607Z</time></trkpt><trkpt lat="43.9724706" lon="12.4547483"><ele>221.33333333333334</ele><time>2026-04-12T07:02:52.607Z</time></trkpt><trkpt lat="43.9724372" lon="12.4545396"><ele>227.66666666666669</ele><time>2026-04-12T07:02:53.607Z</time></trkpt><trkpt lat="43.9724468" lon="12.4543281"><ele>234.0</ele><time>2026-04-12T07:02:54.606Z</time></trkpt><trkpt lat="43.9725052" lon="12.4541051"><ele>231.0</ele><time>2026-04-12T07:02:55.607Z</time></trkpt><trkpt lat="43.9725896" lon="12.453879"><ele>228.0</ele><time>2026-04-12T07:02:56.606Z</time></trkpt><trkpt lat="43.9726711" lon="12.4536678"><ele>225.0</ele><time>2026-04-12T07:02:57.607Z</time></trkpt><trkpt lat="43.9727329" lon="12.4534861"><ele>225.0</ele><time>2026-04-12T07:02:58.607Z</time></trkpt><trkpt lat="43.9727727" lon="12.4533272"><ele>225.0</ele><time>2026-04-12T07:02:59.607Z</time></trkpt><trkpt lat="43.9727845" lon="12.453176"><ele>225.0</ele><time>2026-04-12T07:03:00.607Z</time></trkpt><trkpt lat="43.9727612" lon="12.453022"><ele>225.0</ele><time>2026-04-12T07:03:01.606Z</time></trkpt><trkpt lat="43.9727002" lon="12.4528737"><ele>225.66666666666669</ele><time>2026-04-12T07:03:02.606Z</time></trkpt><trkpt lat="43.9725978" lon="12.452748"><ele>226.33333333333334</ele><time>2026-04-12T07:03:03.607Z</time></trkpt><trkpt lat="43.9724571" lon="12.4526426"><ele>227.0</ele><time>2026-04-12T07:03:04.607Z</time></trkpt><trkpt lat="43.9723046" lon="12.4525664"><ele>229.0</ele><time>2026-04-12T07:03:05.607Z</time></trkpt><trkpt lat="43.9721665" lon="12.4525048"><ele>231.0</ele><time>2026-04-12T07:03:06.607Z</time></trkpt><trkpt lat="43.9720534" lon="12.4524524"><ele>233.0</ele><time>2026-04-12T07:03:07.607Z</time></trkpt><trkpt lat="43.9719704" lon="12.4524054"><ele>235.0</ele><time>2026-04-12T07:03:08.606Z</time></trkpt><trkpt lat="43.9719074" lon="12.4523576"><ele>237.0</ele><time>2026-04-12T07:03:09.607Z</time></trkpt><trkpt lat="43.9718673" lon="12.4522275"><ele>235.0</ele><time>2026-04-12T07:03:11.607Z</time></trkpt><trkpt lat="43.9719713" lon="12.452111"><ele>233.0</ele><time>2026-04-12T07:03:13.606Z</time></trkpt><trkpt lat="43.9720728" lon="12.4520892"><ele>231.0</ele><time>2026-04-12T07:03:14.607Z</time></trkpt><trkpt lat="43.9722096" lon="12.452093"><ele>229.0</ele><time>2026-04-12T07:03:15.607Z</time></trkpt><trkpt lat="43.9723712" lon="12.4520973"><ele>226.66666666666666</ele><time>2026-04-12T07:03:16.607Z</time></trkpt><trkpt lat="43.9725356" lon="12.4520893"><ele>224.33333333333331</ele><time>2026-04-12T07:03:17.606Z</time></trkpt><trkpt lat="43.9726923" lon="12.4520819"><ele>222.0</ele><time>2026-04-12T07:03:18.606Z</time></trkpt><trkpt lat="43.9728354" lon="12.4520782"><ele>222.0</ele><time>2026-04-12T07:03:19.607Z</time></trkpt><trkpt lat="43.9729715" lon="12.4520718"><ele>222.0</ele><time>2026-04-12T07:03:20.607Z</time></trkpt><trkpt lat="43.9731104" lon="12.4520613"><ele>222.0</ele><time>2026-04-12T07:03:21.606Z</time></trkpt><trkpt lat="43.9732602" lon="12.4520678"><ele>222.0</ele><time>2026-04-12T07:03:22.607Z</time></trkpt><trkpt lat="43.973421" lon="12.4521069"><ele>221.0</ele><time>2026-04-12T07:03:23.607Z</time></trkpt><trkpt lat="43.9735896" lon="12.4521935"><ele>220.0</ele><time>2026-04-12T07:03:24.607Z</time></trkpt><trkpt lat="43.9737506" lon="12.4522975"><ele>219.0</ele><time>2026-04-12T07:03:25.606Z</time></trkpt><trkpt lat="43.9739152" lon="12.4523808"><ele>219.0</ele><time>2026-04-12T07:03:26.607Z</time></trkpt><trkpt lat="43.9740912" lon="12.4524315"><ele>219.0</ele><time>2026-04-12T07:03:27.607Z</time></trkpt><trkpt lat="43.9742863" lon="12.4524423"><ele>219.0</ele><time>2026-04-12T07:03:28.607Z</time></trkpt><trkpt lat="43.9744904" lon="12.4524269"><ele>216.66666666666669</ele><time>2026-04-12T07:03:29.607Z</time></trkpt><trkpt lat="43.9746881" lon="12.4524101"><ele>214.33333333333334</ele><time>2026-04-12T07:03:30.607Z</time></trkpt><trkpt lat="43.9748752" lon="12.4524002"><ele>212.0</ele><time>2026-04-12T07:03:31.606Z</time></trkpt><trkpt lat="43.9750537" lon="12.4523864"><ele>211.0</ele><time>2026-04-12T07:03:32.607Z</time></trkpt><trkpt lat="43.9752222" lon="12.4523635"><ele>210.0</ele><time>2026-04-12T07:03:33.607Z</time></trkpt><trkpt lat="43.9753805" lon="12.4523029"><ele>209.0</ele><time>2026-04-12T07:03:34.607Z</time></trkpt><trkpt lat="43.9755447" lon="12.4521869"><ele>208.66666666666669</ele><time>2026-04-12T07:03:35.607Z</time></trkpt><trkpt lat="43.9757155" lon="12.4520223"><ele>208.33333333333331</ele><time>2026-04-12T07:03:36.607Z</time></trkpt><trkpt lat="43.975888" lon="12.4518442"><ele>208.0</ele><time>2026-04-12T07:03:37.607Z</time></trkpt><trkpt lat="43.9760592" lon="12.4516494"><ele>208.0</ele><time>2026-04-12T07:03:38.606Z</time></trkpt><trkpt lat="43.9762367" lon="12.4514356"><ele>208.0</ele><time>2026-04-12T07:03:39.607Z</time></trkpt><trkpt lat="43.9764152" lon="12.4512139"><ele>208.0</ele><time>2026-04-12T07:03:40.607Z</time></trkpt><trkpt lat="43.976588" lon="12.4509956"><ele>208.0</ele><time>2026-04-12T07:03:41.607Z</time></trkpt><trkpt lat="43.9767595" lon="12.45077"><ele>206.0</ele><time>2026-04-12T07:03:42.607Z</time></trkpt><trkpt lat="43.9769367" lon="12.4505381"><ele>204.0</ele><time>2026-04-12T07:03:43.606Z</time></trkpt><trkpt lat="43.9771172" lon="12.4503149"><ele>204.0</ele><time>2026-04-12T07:03:44.606Z</time></trkpt><trkpt lat="43.9772975" lon="12.4501122"><ele>204.0</ele><time>2026-04-12T07:03:45.607Z</time></trkpt><trkpt lat="43.9774677" lon="12.4499233"><ele>203.33333333333331</ele><time>2026-04-12T07:03:46.607Z</time></trkpt><trkpt lat="43.977627" lon="12.449742"><ele>202.66666666666666</ele><time>2026-04-12T07:03:47.606Z</time></trkpt><trkpt lat="43.9777773" lon="12.4495693"><ele>202.0</ele><time>2026-04-12T07:03:48.606Z</time></trkpt><trkpt lat="43.9779172" lon="12.4493957"><ele>203.66666666666666</ele><time>2026-04-12T07:03:49.606Z</time></trkpt><trkpt lat="43.9780423" lon="12.4492007"><ele>205.33333333333331</ele><time>2026-04-12T07:03:50.607Z</time></trkpt><trkpt lat="43.9781408" lon="12.4489619"><ele>207.0</ele><time>2026-04-12T07:03:51.607Z</time></trkpt><trkpt lat="43.9782236" lon="12.4486803"><ele>208.0</ele><time>2026-04-12T07:03:52.606Z</time></trkpt><trkpt lat="43.9783034" lon="12.4483786"><ele>209.0</ele><time>2026-04-12T07:03:53.606Z</time></trkpt><trkpt lat="43.9783821" lon="12.4480817"><ele>207.5</ele><time>2026-04-12T07:03:54.607Z</time></trkpt><trkpt lat="43.9784656" lon="12.4477949"><ele>206.0</ele><time>2026-04-12T07:03:55.607Z</time></trkpt><trkpt lat="43.9785549" lon="12.4475035"><ele>206.0</ele><time>2026-04-12T07:03:56.607Z</time></trkpt><trkpt lat="43.9786511" lon="12.4472006"><ele>206.0</ele><time>2026-04-12T07:03:57.606Z</time></trkpt><trkpt lat="43.9787568" lon="12.4468821"><ele>208.5</ele><time>2026-04-12T07:03:58.606Z</time></trkpt><trkpt lat="43.9788676" lon="12.4465516"><ele>211.0</ele><time>2026-04-12T07:03:59.606Z</time></trkpt><trkpt lat="43.978985" lon="12.4462167"><ele>209.0</ele><time>2026-04-12T07:04:00.606Z</time></trkpt><trkpt lat="43.9790917" lon="12.4459067"><ele>207.0</ele><time>2026-04-12T07:04:01.606Z</time></trkpt><trkpt lat="43.979195" lon="12.445605"><ele>210.0</ele><time>2026-04-12T07:04:02.607Z</time></trkpt><trkpt lat="43.97929" lon="12.44531"><ele>213.0</ele><time>2026-04-12T07:04:03.606Z</time></trkpt><trkpt lat="43.9793917" lon="12.4450283"><ele>213.0</ele><time>2026-04-12T07:04:04.606Z</time></trkpt><trkpt lat="43.9794933" lon="12.444755"><ele>213.0</ele><time>2026-04-12T07:04:05.607Z</time></trkpt><trkpt lat="43.9795917" lon="12.4444767"><ele>213.0</ele><time>2026-04-12T07:04:06.607Z</time></trkpt><trkpt lat="43.9796867" lon="12.4442167"><ele>215.33333333333331</ele><time>2026-04-12T07:04:07.607Z</time></trkpt><trkpt lat="43.9797817" lon="12.4439733"><ele>217.66666666666666</ele><time>2026-04-12T07:04:08.607Z</time></trkpt><trkpt lat="43.9798717" lon="12.443745"><ele>220.0</ele><time>2026-04-12T07:04:09.606Z</time></trkpt><trkpt lat="43.9799567" lon="12.443535"><ele>221.66666666666666</ele><time>2026-04-12T07:04:10.607Z</time></trkpt><trkpt lat="43.98005" lon="12.4433383"><ele>223.33333333333331</ele><time>2026-04-12T07:04:11.607Z</time></trkpt><trkpt lat="43.980165" lon="12.4431633"><ele>225.0</ele><time>2026-04-12T07:04:12.607Z</time></trkpt><trkpt lat="43.9803083" lon="12.44301"><ele>228.0</ele><time>2026-04-12T07:04:13.606Z</time></trkpt><trkpt lat="43.9804467" lon="12.4428867"><ele>231.0</ele><time>2026-04-12T07:04:14.606Z</time></trkpt><trkpt lat="43.980585" lon="12.4427667"><ele>234.0</ele><time>2026-04-12T07:04:15.607Z</time></trkpt><trkpt lat="43.9807183" lon="12.4426467"><ele>232.25</ele><time>2026-04-12T07:04:16.606Z</time></trkpt><trkpt lat="43.9808533" lon="12.442535"><ele>230.5</ele><time>2026-04-12T07:04:17.607Z</time></trkpt><trkpt lat="43.9809833" lon="12.4424333"><ele>228.75</ele><time>2026-04-12T07:04:18.606Z</time></trkpt><trkpt lat="43.9811017" lon="12.4423483"><ele>227.0</ele><time>2026-04-12T07:04:19.607Z</time></trkpt><trkpt lat="43.9812067" lon="12.44225"><ele>227.0</ele><time>2026-04-12T07:04:20.606Z</time></trkpt><trkpt lat="43.9813033" lon="12.442155"><ele>227.0</ele><time>2026-04-12T07:04:21.607Z</time></trkpt><trkpt lat="43.9813967" lon="12.4420367"><ele>227.0</ele><time>2026-04-12T07:04:22.607Z</time></trkpt><trkpt lat="43.9814733" lon="12.4418867"><ele>227.0</ele><time>2026-04-12T07:04:23.607Z</time></trkpt><trkpt lat="43.9815417" lon="12.4416833"><ele>228.0</ele><time>2026-04-12T07:04:24.606Z</time></trkpt><trkpt lat="43.9816067" lon="12.4414533"><ele>229.0</ele><time>2026-04-12T07:04:25.607Z</time></trkpt><trkpt lat="43.98168" lon="12.4412083"><ele>230.0</ele><time>2026-04-12T07:04:26.606Z</time></trkpt><trkpt lat="43.9817467" lon="12.4409433"><ele>227.66666666666669</ele><time>2026-04-12T07:04:27.606Z</time></trkpt><trkpt lat="43.981825" lon="12.4406583"><ele>225.33333333333331</ele><time>2026-04-12T07:04:28.606Z</time></trkpt><trkpt lat="43.9819" lon="12.4403867"><ele>223.0</ele><time>2026-04-12T07:04:29.607Z</time></trkpt><trkpt lat="43.98197" lon="12.4401283"><ele>223.0</ele><time>2026-04-12T07:04:30.607Z</time></trkpt><trkpt lat="43.9820333" lon="12.439885"><ele>223.0</ele><time>2026-04-12T07:04:31.606Z</time></trkpt><trkpt lat="43.9820933" lon="12.4396417"><ele>223.0</ele><time>2026-04-12T07:04:32.607Z</time></trkpt><trkpt lat="43.9821433" lon="12.439395"><ele>224.66666666666666</ele><time>2026-04-12T07:04:33.607Z</time></trkpt><trkpt lat="43.9821667" lon="12.4391267"><ele>226.33333333333331</ele><time>2026-04-12T07:04:34.606Z</time></trkpt><trkpt lat="43.98216" lon="12.4388333"><ele>228.0</ele><time>2026-04-12T07:04:35.606Z</time></trkpt><trkpt lat="43.98214" lon="12.438525"><ele>229.33333333333331</ele><time>2026-04-12T07:04:36.607Z</time></trkpt><trkpt lat="43.9821183" lon="12.4382283"><ele>230.66666666666666</ele><time>2026-04-12T07:04:37.607Z</time></trkpt><trkpt lat="43.9820983" lon="12.437935"><ele>232.0</ele><time>2026-04-12T07:04:38.607Z</time></trkpt><trkpt lat="43.9820667" lon="12.4376467"><ele>233.33333333333331</ele><time>2026-04-12T07:04:39.606Z</time></trkpt><trkpt lat="43.9820183" lon="12.43736"><ele>234.66666666666669</ele><time>2026-04-12T07:04:40.607Z</time></trkpt><trkpt lat="43.9819567" lon="12.4370583"><ele>236.0</ele><time>2026-04-12T07:04:41.607Z</time></trkpt><trkpt lat="43.9818917" lon="12.43677"><ele>237.0</ele><time>2026-04-12T07:04:42.607Z</time></trkpt><trkpt lat="43.981815" lon="12.4365033"><ele>238.0</ele><time>2026-04-12T07:04:43.607Z</time></trkpt><trkpt lat="43.9817333" lon="12.436265"><ele>239.0</ele><time>2026-04-12T07:04:44.606Z</time></trkpt><trkpt lat="43.9816583" lon="12.4360433"><ele>239.25</ele><time>2026-04-12T07:04:45.606Z</time></trkpt><trkpt lat="43.9815883" lon="12.4358433"><ele>239.5</ele><time>2026-04-12T07:04:46.606Z</time></trkpt><trkpt lat="43.98153" lon="12.4356617"><ele>239.75</ele><time>2026-04-12T07:04:47.608Z</time></trkpt><trkpt lat="43.9814783" lon="12.435495"><ele>240.0</ele><time>2026-04-12T07:04:48.608Z</time></trkpt><trkpt lat="43.9814517" lon="12.435325"><ele>240.66666666666669</ele><time>2026-04-12T07:04:49.608Z</time></trkpt><trkpt lat="43.981455" lon="12.435135"><ele>241.33333333333334</ele><time>2026-04-12T07:04:50.607Z</time></trkpt><trkpt lat="43.981465" lon="12.4349217"><ele>242.0</ele><time>2026-04-12T07:04:51.607Z</time></trkpt><trkpt lat="43.9814767" lon="12.4346733"><ele>240.0</ele><time>2026-04-12T07:04:52.608Z</time></trkpt><trkpt lat="43.9815" lon="12.434405"><ele>238.0</ele><time>2026-04-12T07:04:53.608Z</time></trkpt><trkpt lat="43.9815267" lon="12.434105"><ele>236.0</ele><time>2026-04-12T07:04:54.608Z</time></trkpt><trkpt lat="43.9815533" lon="12.4338067"><ele>236.0</ele><time>2026-04-12T07:04:55.608Z</time></trkpt><trkpt lat="43.9815783" lon="12.43352"><ele>236.0</ele><time>2026-04-12T07:04:56.608Z</time></trkpt><trkpt lat="43.9816" lon="12.4332417"><ele>236.0</ele><time>2026-04-12T07:04:57.607Z</time></trkpt><trkpt lat="43.981615" lon="12.4329667"><ele>236.0</ele><time>2026-04-12T07:04:58.607Z</time></trkpt><trkpt lat="43.9816333" lon="12.4326933"><ele>236.0</ele><time>2026-04-12T07:04:59.608Z</time></trkpt><trkpt lat="43.9816633" lon="12.4324233"><ele>236.0</ele><time>2026-04-12T07:05:00.608Z</time></trkpt><trkpt lat="43.9816967" lon="12.4321583"><ele>233.66666666666669</ele><time>2026-04-12T07:05:01.608Z</time></trkpt><trkpt lat="43.9817117" lon="12.4319"><ele>231.33333333333331</ele><time>2026-04-12T07:05:02.607Z</time></trkpt><trkpt lat="43.9817183" lon="12.4316567"><ele>229.0</ele><time>2026-04-12T07:05:03.608Z</time></trkpt><trkpt lat="43.981715" lon="12.43143"><ele>229.0</ele><time>2026-04-12T07:05:04.608Z</time></trkpt><trkpt lat="43.98169" lon="12.4312233"><ele>229.0</ele><time>2026-04-12T07:05:05.607Z</time></trkpt><trkpt lat="43.98164" lon="12.4310367"><ele>229.0</ele><time>2026-04-12T07:05:06.607Z</time></trkpt><trkpt lat="43.9815483" lon="12.4308583"><ele>233.66666666666666</ele><time>2026-04-12T07:05:07.608Z</time></trkpt><trkpt lat="43.9814317" lon="12.4306733"><ele>238.33333333333331</ele><time>2026-04-12T07:05:08.607Z</time></trkpt><trkpt lat="43.9813027" lon="12.4304739"><ele>243.0</ele><time>2026-04-12T07:05:09.608Z</time></trkpt><trkpt lat="43.9811719" lon="12.4302795"><ele>243.0</ele><time>2026-04-12T07:05:10.608Z</time></trkpt><trkpt lat="43.9810481" lon="12.4301019"><ele>243.0</ele><time>2026-04-12T07:05:11.607Z</time></trkpt><trkpt lat="43.980932" lon="12.4299398"><ele>243.0</ele><time>2026-04-12T07:05:12.608Z</time></trkpt><trkpt lat="43.9808177" lon="12.4298046"><ele>245.66666666666669</ele><time>2026-04-12T07:05:13.607Z</time></trkpt><trkpt lat="43.9806987" lon="12.429696"><ele>248.33333333333334</ele><time>2026-04-12T07:05:14.608Z</time></trkpt><trkpt lat="43.9805605" lon="12.4296138"><ele>251.0</ele><time>2026-04-12T07:05:15.608Z</time></trkpt><trkpt lat="43.9803965" lon="12.4295721"><ele>254.66666666666669</ele><time>2026-04-12T07:05:16.608Z</time></trkpt><trkpt lat="43.9802144" lon="12.429566"><ele>258.3333333333333</ele><time>2026-04-12T07:05:17.608Z</time></trkpt><trkpt lat="43.9800311" lon="12.4295933"><ele>262.0</ele><time>2026-04-12T07:05:18.608Z</time></trkpt><trkpt lat="43.9798635" lon="12.4296271"><ele>258.75</ele><time>2026-04-12T07:05:19.608Z</time></trkpt><trkpt lat="43.9797138" lon="12.4296637"><ele>255.5</ele><time>2026-04-12T07:05:20.608Z</time></trkpt><trkpt lat="43.9795762" lon="12.4297041"><ele>252.25</ele><time>2026-04-12T07:05:21.608Z</time></trkpt><trkpt lat="43.9794538" lon="12.4297496"><ele>249.0</ele><time>2026-04-12T07:05:22.607Z</time></trkpt><trkpt lat="43.9793482" lon="12.4297973"><ele>249.0</ele><time>2026-04-12T07:05:23.607Z</time></trkpt><trkpt lat="43.9792446" lon="12.4298214"><ele>248.99999999999997</ele><time>2026-04-12T07:05:24.607Z</time></trkpt><trkpt lat="43.9791403" lon="12.4298083"><ele>248.99999999999997</ele><time>2026-04-12T07:05:25.608Z</time></trkpt><trkpt lat="43.979046" lon="12.429764"><ele>249.0</ele><time>2026-04-12T07:05:26.608Z</time></trkpt><trkpt lat="43.9789606" lon="12.4296826"><ele>249.0</ele><time>2026-04-12T07:05:27.608Z</time></trkpt><trkpt lat="43.9788871" lon="12.4295641"><ele>254.5</ele><time>2026-04-12T07:05:28.608Z</time></trkpt><trkpt lat="43.9788267" lon="12.4294387"><ele>260.0</ele><time>2026-04-12T07:05:29.607Z</time></trkpt><trkpt lat="43.9787781" lon="12.4293125"><ele>265.5</ele><time>2026-04-12T07:05:30.608Z</time></trkpt><trkpt lat="43.9787248" lon="12.4291759"><ele>271.0</ele><time>2026-04-12T07:05:31.608Z</time></trkpt><trkpt lat="43.9786618" lon="12.4290221"><ele>271.0</ele><time>2026-04-12T07:05:32.607Z</time></trkpt><trkpt lat="43.9785952" lon="12.4288568"><ele>271.0</ele><time>2026-04-12T07:05:33.608Z</time></trkpt><trkpt lat="43.9785326" lon="12.4287011"><ele>271.0</ele><time>2026-04-12T07:05:34.607Z</time></trkpt><trkpt lat="43.9784822" lon="12.4285674"><ele>271.0</ele><time>2026-04-12T07:05:35.607Z</time></trkpt><trkpt lat="43.978438" lon="12.4284612"><ele>270.6</ele><time>2026-04-12T07:05:36.608Z</time></trkpt><trkpt lat="43.9784019" lon="12.4283719"><ele>270.20000000000005</ele><time>2026-04-12T07:05:37.607Z</time></trkpt><trkpt lat="43.9783735" lon="12.4282409"><ele>269.79999999999995</ele><time>2026-04-12T07:05:39.607Z</time></trkpt><trkpt lat="43.9783775" lon="12.4281226"><ele>269.4</ele><time>2026-04-12T07:05:41.608Z</time></trkpt><trkpt lat="43.9783027" lon="12.4280006"><ele>269.0</ele><time>2026-04-12T07:05:43.607Z</time></trkpt><trkpt lat="43.9782033" lon="12.4279259"><ele>274.33333333333337</ele><time>2026-04-12T07:05:44.608Z</time></trkpt><trkpt lat="43.9780625" lon="12.4278489"><ele>279.6666666666667</ele><time>2026-04-12T07:05:45.608Z</time></trkpt><trkpt lat="43.9779014" lon="12.427793"><ele>285.0</ele><time>2026-04-12T07:05:46.607Z</time></trkpt><trkpt lat="43.9777283" lon="12.4277617"><ele>285.0</ele><time>2026-04-12T07:05:47.607Z</time></trkpt><trkpt lat="43.9775733" lon="12.42774"><ele>285.0</ele><time>2026-04-12T07:05:48.608Z</time></trkpt><trkpt lat="43.977435" lon="12.4277017"><ele>285.0</ele><time>2026-04-12T07:05:49.608Z</time></trkpt><trkpt lat="43.9773" lon="12.42769"><ele>285.0</ele><time>2026-04-12T07:05:50.608Z</time></trkpt><trkpt lat="43.9771583" lon="12.427705"><ele>282.25</ele><time>2026-04-12T07:05:51.608Z</time></trkpt><trkpt lat="43.977015" lon="12.4277617"><ele>279.5</ele><time>2026-04-12T07:05:52.607Z</time></trkpt><trkpt lat="43.9768883" lon="12.4278367"><ele>276.75</ele><time>2026-04-12T07:05:53.608Z</time></trkpt><trkpt lat="43.976755" lon="12.427905"><ele>274.0</ele><time>2026-04-12T07:05:54.608Z</time></trkpt><trkpt lat="43.97662" lon="12.42794"><ele>274.0</ele><time>2026-04-12T07:05:55.608Z</time></trkpt><trkpt lat="43.9764833" lon="12.4279517"><ele>274.0</ele><time>2026-04-12T07:05:56.607Z</time></trkpt><trkpt lat="43.9763583" lon="12.4279317"><ele>274.0</ele><time>2026-04-12T07:05:57.607Z</time></trkpt><trkpt lat="43.9762167" lon="12.4278517"><ele>274.0</ele><time>2026-04-12T07:05:58.608Z</time></trkpt><trkpt lat="43.97608" lon="12.4277283"><ele>274.0</ele><time>2026-04-12T07:05:59.608Z</time></trkpt><trkpt lat="43.9759583" lon="12.4275767"><ele>274.0</ele><time>2026-04-12T07:06:00.607Z</time></trkpt><trkpt lat="43.9758483" lon="12.4274317"><ele>274.0</ele><time>2026-04-12T07:06:01.607Z</time></trkpt><trkpt lat="43.9757517" lon="12.427315"><ele>274.0</ele><time>2026-04-12T07:06:02.608Z</time></trkpt><trkpt lat="43.9756717" lon="12.4271817"><ele>270.75</ele><time>2026-04-12T07:06:03.607Z</time></trkpt><trkpt lat="43.9756133" lon="12.4270367"><ele>267.5</ele><time>2026-04-12T07:06:04.608Z</time></trkpt><trkpt lat="43.9755767" lon="12.42685"><ele>264.25</ele><time>2026-04-12T07:06:05.608Z</time></trkpt><trkpt lat="43.9755617" lon="12.426635"><ele>261.0</ele><time>2026-04-12T07:06:06.608Z</time></trkpt><trkpt lat="43.9755217" lon="12.426425"><ele>260.6666666666667</ele><time>2026-04-12T07:06:07.608Z</time></trkpt><trkpt lat="43.9754567" lon="12.4262267"><ele>260.33333333333337</ele><time>2026-04-12T07:06:08.608Z</time></trkpt><trkpt lat="43.975355" lon="12.4260633"><ele>260.0</ele><time>2026-04-12T07:06:09.608Z</time></trkpt><trkpt lat="43.9752317" lon="12.425925"><ele>260.0</ele><time>2026-04-12T07:06:10.607Z</time></trkpt><trkpt lat="43.97513" lon="12.42576"><ele>260.0</ele><time>2026-04-12T07:06:11.607Z</time></trkpt><trkpt lat="43.97506" lon="12.4255683"><ele>260.0</ele><time>2026-04-12T07:06:12.608Z</time></trkpt><trkpt lat="43.975025" lon="12.42534"><ele>252.0</ele><time>2026-04-12T07:06:13.607Z</time></trkpt><trkpt lat="43.97501" lon="12.425105"><ele>244.0</ele><time>2026-04-12T07:06:14.608Z</time></trkpt><trkpt lat="43.97499" lon="12.4248767"><ele>236.0</ele><time>2026-04-12T07:06:15.608Z</time></trkpt><trkpt lat="43.9749467" lon="12.4246483"><ele>234.0</ele><time>2026-04-12T07:06:16.607Z</time></trkpt><trkpt lat="43.9748817" lon="12.4244167"><ele>232.0</ele><time>2026-04-12T07:06:17.607Z</time></trkpt><trkpt lat="43.9748" lon="12.4241867"><ele>230.0</ele><time>2026-04-12T07:06:18.608Z</time></trkpt><trkpt lat="43.9747217" lon="12.4239633"><ele>228.5</ele><time>2026-04-12T07:06:19.608Z</time></trkpt><trkpt lat="43.9746467" lon="12.42377"><ele>227.0</ele><time>2026-04-12T07:06:20.608Z</time></trkpt><trkpt lat="43.97459" lon="12.4236033"><ele>225.5</ele><time>2026-04-12T07:06:21.607Z</time></trkpt><trkpt lat="43.9745317" lon="12.423455"><ele>224.0</ele><time>2026-04-12T07:06:22.608Z</time></trkpt><trkpt lat="43.974465" lon="12.4233317"><ele>224.0</ele><time>2026-04-12T07:06:23.608Z</time></trkpt><trkpt lat="43.9743933" lon="12.423225"><ele>223.99999999999997</ele><time>2026-04-12T07:06:24.608Z</time></trkpt><trkpt lat="43.97433" lon="12.423155"><ele>223.99999999999997</ele><time>2026-04-12T07:06:25.608Z</time></trkpt><trkpt lat="43.974245" lon="12.4230867"><ele>224.0</ele><time>2026-04-12T07:06:27.608Z</time></trkpt><trkpt lat="43.97416" lon="12.4231583"><ele>224.0</ele><time>2026-04-12T07:06:30.608Z</time></trkpt><trkpt lat="43.9741333" lon="12.4232583"><ele>221.16666666666669</ele><time>2026-04-12T07:06:31.608Z</time></trkpt><trkpt lat="43.9741267" lon="12.4233783"><ele>218.33333333333334</ele><time>2026-04-12T07:06:32.608Z</time></trkpt><trkpt lat="43.9741267" lon="12.42351"><ele>215.5</ele><time>2026-04-12T07:06:33.608Z</time></trkpt><trkpt lat="43.9741083" lon="12.4236267"><ele>212.66666666666669</ele><time>2026-04-12T07:06:34.608Z</time></trkpt><trkpt lat="43.9740717" lon="12.423715"><ele>209.83333333333334</ele><time>2026-04-12T07:06:35.608Z</time></trkpt><trkpt lat="43.9740083" lon="12.4237783"><ele>207.0</ele><time>2026-04-12T07:06:36.607Z</time></trkpt><trkpt lat="43.973915" lon="12.4238033"><ele>207.0</ele><time>2026-04-12T07:06:37.608Z</time></trkpt><trkpt lat="43.9737867" lon="12.4237633"><ele>207.0</ele><time>2026-04-12T07:06:38.608Z</time></trkpt><trkpt lat="43.9736583" lon="12.4236833"><ele>207.0</ele><time>2026-04-12T07:06:39.608Z</time></trkpt><trkpt lat="43.973545" lon="12.4236133"><ele>207.0</ele><time>2026-04-12T07:06:40.607Z</time></trkpt><trkpt lat="43.973445" lon="12.4235617"><ele>207.0</ele><time>2026-04-12T07:06:41.608Z</time></trkpt><trkpt lat="43.9733633" lon="12.42353"><ele>207.0</ele><time>2026-04-12T07:06:42.607Z</time></trkpt><trkpt lat="43.9732817" lon="12.42354"><ele>207.0</ele><time>2026-04-12T07:06:43.608Z</time></trkpt><trkpt lat="43.9732067" lon="12.423615"><ele>207.0</ele><time>2026-04-12T07:06:44.608Z</time></trkpt><trkpt lat="43.9731517" lon="12.42375"><ele>207.0</ele><time>2026-04-12T07:06:45.608Z</time></trkpt><trkpt lat="43.9731067" lon="12.4239017"><ele>205.66666666666666</ele><time>2026-04-12T07:06:46.608Z</time></trkpt><trkpt lat="43.9730633" lon="12.4240267"><ele>204.33333333333331</ele><time>2026-04-12T07:06:47.608Z</time></trkpt><trkpt lat="43.9730083" lon="12.42411"><ele>203.0</ele><time>2026-04-12T07:06:48.608Z</time></trkpt><trkpt lat="43.9729367" lon="12.4241283"><ele>201.66666666666666</ele><time>2026-04-12T07:06:49.608Z</time></trkpt><trkpt lat="43.9728633" lon="12.42409"><ele>200.33333333333331</ele><time>2026-04-12T07:06:50.608Z</time></trkpt><trkpt lat="43.9728117" lon="12.4239883"><ele>199.0</ele><time>2026-04-12T07:06:51.608Z</time></trkpt><trkpt lat="43.9727833" lon="12.4238467"><ele>198.75</ele><time>2026-04-12T07:06:52.608Z</time></trkpt><trkpt lat="43.9727767" lon="12.42367"><ele>198.5</ele><time>2026-04-12T07:06:53.608Z</time></trkpt><trkpt lat="43.972765" lon="12.4234667"><ele>198.25</ele><time>2026-04-12T07:06:54.608Z</time></trkpt><trkpt lat="43.9727233" lon="12.423245"><ele>198.0</ele><time>2026-04-12T07:06:55.608Z</time></trkpt><trkpt lat="43.9726596" lon="12.4230305"><ele>196.5</ele><time>2026-04-12T07:06:56.608Z</time></trkpt><trkpt lat="43.9726029" lon="12.4228317"><ele>195.0</ele><time>2026-04-12T07:06:57.608Z</time></trkpt><trkpt lat="43.9725564" lon="12.4226594"><ele>193.5</ele><time>2026-04-12T07:06:58.607Z</time></trkpt><trkpt lat="43.9725285" lon="12.4225112"><ele>192.0</ele><time>2026-04-12T07:06:59.608Z</time></trkpt><trkpt lat="43.9725304" lon="12.4223674"><ele>192.0</ele><time>2026-04-12T07:07:00.608Z</time></trkpt><trkpt lat="43.9725659" lon="12.4222183"><ele>192.0</ele><time>2026-04-12T07:07:01.608Z</time></trkpt><trkpt lat="43.9726356" lon="12.4220759"><ele>192.0</ele><time>2026-04-12T07:07:02.608Z</time></trkpt><trkpt lat="43.9727012" lon="12.4219488"><ele>192.0</ele><time>2026-04-12T07:07:03.607Z</time></trkpt><trkpt lat="43.9727361" lon="12.4218152"><ele>191.25</ele><time>2026-04-12T07:07:04.608Z</time></trkpt><trkpt lat="43.9727283" lon="12.4216711"><ele>190.5</ele><time>2026-04-12T07:07:05.608Z</time></trkpt><trkpt lat="43.9726638" lon="12.4215373"><ele>189.75</ele><time>2026-04-12T07:07:06.607Z</time></trkpt><trkpt lat="43.9725566" lon="12.4214286"><ele>189.0</ele><time>2026-04-12T07:07:07.608Z</time></trkpt><trkpt lat="43.97242" lon="12.421347"><ele>186.0</ele><time>2026-04-12T07:07:08.608Z</time></trkpt><trkpt lat="43.9722747" lon="12.421298"><ele>183.0</ele><time>2026-04-12T07:07:09.607Z</time></trkpt><trkpt lat="43.9721445" lon="12.4212544"><ele>180.0</ele><time>2026-04-12T07:07:10.608Z</time></trkpt><trkpt lat="43.9720381" lon="12.4212032"><ele>177.0</ele><time>2026-04-12T07:07:11.607Z</time></trkpt><trkpt lat="43.9719594" lon="12.4211296"><ele>177.0</ele><time>2026-04-12T07:07:12.608Z</time></trkpt><trkpt lat="43.9719235" lon="12.4210196"><ele>177.0</ele><time>2026-04-12T07:07:13.608Z</time></trkpt><trkpt lat="43.9719374" lon="12.4208766"><ele>177.0</ele><time>2026-04-12T07:07:14.608Z</time></trkpt><trkpt lat="43.9719974" lon="12.4207056"><ele>177.0</ele><time>2026-04-12T07:07:15.607Z</time></trkpt><trkpt lat="43.9720861" lon="12.4205162"><ele>176.0</ele><time>2026-04-12T07:07:16.608Z</time></trkpt><trkpt lat="43.972171" lon="12.4203083"><ele>175.0</ele><time>2026-04-12T07:07:17.608Z</time></trkpt><trkpt lat="43.9722444" lon="12.4201046"><ele>174.0</ele><time>2026-04-12T07:07:18.608Z</time></trkpt><trkpt lat="43.9723027" lon="12.4199194"><ele>174.0</ele><time>2026-04-12T07:07:19.608Z</time></trkpt><trkpt lat="43.9722966" lon="12.4197124"><ele>174.0</ele><time>2026-04-12T07:07:20.555Z</time></trkpt><trkpt lat="43.9722164" lon="12.4195495"><ele>174.0</ele><time>2026-04-12T07:07:23.104Z</time></trkpt><trkpt lat="43.9721093" lon="12.4194809"><ele>174.0</ele><time>2026-04-12T07:07:24.105Z</time></trkpt><trkpt lat="43.9719905" lon="12.4194512"><ele>173.5</ele><time>2026-04-12T07:07:25.105Z</time></trkpt><trkpt lat="43.9718162" lon="12.419415"><ele>173.0</ele><time>2026-04-12T07:07:26.604Z</time></trkpt><trkpt lat="43.9717364" lon="12.419308"><ele>172.5</ele><time>2026-04-12T07:07:27.604Z</time></trkpt><trkpt lat="43.9716875" lon="12.4191453"><ele>172.0</ele><time>2026-04-12T07:07:28.604Z</time></trkpt><trkpt lat="43.9716591" lon="12.418961"><ele>170.0</ele><time>2026-04-12T07:07:29.604Z</time></trkpt><trkpt lat="43.9716778" lon="12.4187541"><ele>168.0</ele><time>2026-04-12T07:07:30.605Z</time></trkpt><trkpt lat="43.9717319" lon="12.4185608"><ele>166.0</ele><time>2026-04-12T07:07:31.604Z</time></trkpt><trkpt lat="43.9718239" lon="12.4183695"><ele>166.0</ele><time>2026-04-12T07:07:32.605Z</time></trkpt><trkpt lat="43.9719467" lon="12.418168"><ele>166.0</ele><time>2026-04-12T07:07:33.605Z</time></trkpt><trkpt lat="43.9720872" lon="12.4179759"><ele>166.0</ele><time>2026-04-12T07:07:34.604Z</time></trkpt><trkpt lat="43.9722288" lon="12.417805"><ele>165.33333333333334</ele><time>2026-04-12T07:07:35.604Z</time></trkpt><trkpt lat="43.9723663" lon="12.4176504"><ele>164.66666666666666</ele><time>2026-04-12T07:07:36.604Z</time></trkpt><trkpt lat="43.9724995" lon="12.4174974"><ele>164.0</ele><time>2026-04-12T07:07:37.605Z</time></trkpt><trkpt lat="43.9726144" lon="12.4173103"><ele>163.33333333333331</ele><time>2026-04-12T07:07:38.605Z</time></trkpt><trkpt lat="43.9727033" lon="12.417072"><ele>162.66666666666666</ele><time>2026-04-12T07:07:39.605Z</time></trkpt><trkpt lat="43.9727749" lon="12.416799"><ele>162.0</ele><time>2026-04-12T07:07:40.605Z</time></trkpt><trkpt lat="43.9728254" lon="12.4165193"><ele>161.66666666666666</ele><time>2026-04-12T07:07:41.605Z</time></trkpt><trkpt lat="43.9728525" lon="12.4162462"><ele>161.33333333333331</ele><time>2026-04-12T07:07:42.604Z</time></trkpt><trkpt lat="43.9728548" lon="12.415972"><ele>161.0</ele><time>2026-04-12T07:07:43.605Z</time></trkpt><trkpt lat="43.9728454" lon="12.4156951"><ele>160.33333333333331</ele><time>2026-04-12T07:07:44.604Z</time></trkpt><trkpt lat="43.9728229" lon="12.4154044"><ele>159.66666666666666</ele><time>2026-04-12T07:07:45.604Z</time></trkpt><trkpt lat="43.9727974" lon="12.4151271"><ele>159.0</ele><time>2026-04-12T07:07:46.604Z</time></trkpt><trkpt lat="43.9727665" lon="12.4148628"><ele>157.33333333333334</ele><time>2026-04-12T07:07:47.605Z</time></trkpt><trkpt lat="43.9727334" lon="12.4146079"><ele>155.66666666666669</ele><time>2026-04-12T07:07:48.604Z</time></trkpt><trkpt lat="43.972704" lon="12.4143565"><ele>154.0</ele><time>2026-04-12T07:07:49.605Z</time></trkpt><trkpt lat="43.9726836" lon="12.4141067"><ele>154.0</ele><time>2026-04-12T07:07:50.605Z</time></trkpt><trkpt lat="43.97268" lon="12.4138635"><ele>154.0</ele><time>2026-04-12T07:07:51.605Z</time></trkpt><trkpt lat="43.9726905" lon="12.4136336"><ele>154.0</ele><time>2026-04-12T07:07:52.604Z</time></trkpt><trkpt lat="43.972714" lon="12.4134248"><ele>151.25</ele><time>2026-04-12T07:07:53.604Z</time></trkpt><trkpt lat="43.9727438" lon="12.4132442"><ele>148.5</ele><time>2026-04-12T07:07:54.605Z</time></trkpt><trkpt lat="43.9727859" lon="12.4130837"><ele>145.75</ele><time>2026-04-12T07:07:55.604Z</time></trkpt><trkpt lat="43.9728387" lon="12.4129484"><ele>143.0</ele><time>2026-04-12T07:07:56.605Z</time></trkpt><trkpt lat="43.9728924" lon="12.4128373"><ele>141.6</ele><time>2026-04-12T07:07:57.604Z</time></trkpt><trkpt lat="43.9729262" lon="12.4127483"><ele>140.20000000000002</ele><time>2026-04-12T07:07:58.604Z</time></trkpt><trkpt lat="43.9728858" lon="12.4125868"><ele>138.8</ele><time>2026-04-12T07:08:00.604Z</time></trkpt><trkpt lat="43.9728132" lon="12.4125586"><ele>137.4</ele><time>2026-04-12T07:08:01.605Z</time></trkpt><trkpt lat="43.9727181" lon="12.4125758"><ele>136.0</ele><time>2026-04-12T07:08:02.605Z</time></trkpt><trkpt lat="43.9726079" lon="12.4126305"><ele>134.33333333333334</ele><time>2026-04-12T07:08:03.605Z</time></trkpt><trkpt lat="43.9725111" lon="12.4127047"><ele>132.66666666666669</ele><time>2026-04-12T07:08:04.605Z</time></trkpt><trkpt lat="43.9724297" lon="12.412762"><ele>131.0</ele><time>2026-04-12T07:08:05.605Z</time></trkpt><trkpt lat="43.9723562" lon="12.4127715"><ele>129.33333333333334</ele><time>2026-04-12T07:08:06.605Z</time></trkpt><trkpt lat="43.9722896" lon="12.4127353"><ele>127.66666666666667</ele><time>2026-04-12T07:08:07.605Z</time></trkpt><trkpt lat="43.9722409" lon="12.4126584"><ele>126.0</ele><time>2026-04-12T07:08:08.605Z</time></trkpt><trkpt lat="43.9722405" lon="12.4125381"><ele>126.0</ele><time>2026-04-12T07:08:09.604Z</time></trkpt><trkpt lat="43.9722771" lon="12.4123987"><ele>126.0</ele><time>2026-04-12T07:08:10.605Z</time></trkpt><trkpt lat="43.9723438" lon="12.4122724"><ele>126.0</ele><time>2026-04-12T07:08:11.604Z</time></trkpt><trkpt lat="43.9724265" lon="12.4121731"><ele>126.0</ele><time>2026-04-12T07:08:12.604Z</time></trkpt><trkpt lat="43.9725024" lon="12.4121041"><ele>126.0</ele><time>2026-04-12T07:08:13.605Z</time></trkpt><trkpt lat="43.9725802" lon="12.41204"><ele>126.28571428571428</ele><time>2026-04-12T07:08:15.604Z</time></trkpt><trkpt lat="43.9726481" lon="12.4119994"><ele>126.57142857142857</ele><time>2026-04-12T07:08:17.605Z</time></trkpt><trkpt lat="43.9727035" lon="12.4119548"><ele>126.85714285714286</ele><time>2026-04-12T07:08:18.605Z</time></trkpt><trkpt lat="43.9727468" lon="12.4118881"><ele>127.14285714285714</ele><time>2026-04-12T07:08:19.605Z</time></trkpt><trkpt lat="43.9727583" lon="12.4117931"><ele>127.42857142857142</ele><time>2026-04-12T07:08:20.605Z</time></trkpt><trkpt lat="43.9727261" lon="12.4116974"><ele>127.71428571428571</ele><time>2026-04-12T07:08:21.605Z</time></trkpt><trkpt lat="43.9726562" lon="12.4116302"><ele>128.0</ele><time>2026-04-12T07:08:22.604Z</time></trkpt><trkpt lat="43.9725651" lon="12.411606"><ele>126.25</ele><time>2026-04-12T07:08:23.605Z</time></trkpt><trkpt lat="43.9724522" lon="12.411634"><ele>124.5</ele><time>2026-04-12T07:08:24.604Z</time></trkpt><trkpt lat="43.9723157" lon="12.4117143"><ele>122.75</ele><time>2026-04-12T07:08:25.605Z</time></trkpt><trkpt lat="43.9721564" lon="12.41182"><ele>121.0</ele><time>2026-04-12T07:08:26.605Z</time></trkpt><trkpt lat="43.9719697" lon="12.4119318"><ele>121.0</ele><time>2026-04-12T07:08:27.604Z</time></trkpt><trkpt lat="43.9717669" lon="12.4120312"><ele>121.0</ele><time>2026-04-12T07:08:28.604Z</time></trkpt><trkpt lat="43.9715556" lon="12.4121196"><ele>121.0</ele><time>2026-04-12T07:08:29.605Z</time></trkpt><trkpt lat="43.9713475" lon="12.4121809"><ele>119.66666666666667</ele><time>2026-04-12T07:08:30.605Z</time></trkpt><trkpt lat="43.9711496" lon="12.4122357"><ele>118.33333333333334</ele><time>2026-04-12T07:08:31.604Z</time></trkpt><trkpt lat="43.9709591" lon="12.4122766"><ele>117.0</ele><time>2026-04-12T07:08:32.604Z</time></trkpt><trkpt lat="43.9707749" lon="12.412303"><ele>116.33333333333334</ele><time>2026-04-12T07:08:33.605Z</time></trkpt><trkpt lat="43.9705852" lon="12.4123091"><ele>115.66666666666667</ele><time>2026-04-12T07:08:34.604Z</time></trkpt><trkpt lat="43.9703869" lon="12.4123009"><ele>115.0</ele><time>2026-04-12T07:08:35.605Z</time></trkpt><trkpt lat="43.9701881" lon="12.4122745"><ele>114.66666666666667</ele><time>2026-04-12T07:08:36.605Z</time></trkpt><trkpt lat="43.9699841" lon="12.4122292"><ele>114.33333333333334</ele><time>2026-04-12T07:08:37.604Z</time></trkpt><trkpt lat="43.9697778" lon="12.4121702"><ele>114.0</ele><time>2026-04-12T07:08:38.605Z</time></trkpt><trkpt lat="43.9695762" lon="12.4120827"><ele>114.0</ele><time>2026-04-12T07:08:39.604Z</time></trkpt><trkpt lat="43.9693775" lon="12.4119747"><ele>114.0</ele><time>2026-04-12T07:08:40.605Z</time></trkpt><trkpt lat="43.9691838" lon="12.4118488"><ele>114.0</ele><time>2026-04-12T07:08:41.605Z</time></trkpt><trkpt lat="43.968995" lon="12.4117039"><ele>116.0</ele><time>2026-04-12T07:08:42.604Z</time></trkpt><trkpt lat="43.968805" lon="12.4115376"><ele>118.0</ele><time>2026-04-12T07:08:43.605Z</time></trkpt><trkpt lat="43.9686228" lon="12.4113514"><ele>118.0</ele><time>2026-04-12T07:08:44.605Z</time></trkpt><trkpt lat="43.9684585" lon="12.4111535"><ele>118.0</ele><time>2026-04-12T07:08:45.605Z</time></trkpt><trkpt lat="43.9683048" lon="12.4109388"><ele>118.0</ele><time>2026-04-12T07:08:46.605Z</time></trkpt><trkpt lat="43.9681616" lon="12.4107154"><ele>116.66666666666667</ele><time>2026-04-12T07:08:47.604Z</time></trkpt><trkpt lat="43.9680289" lon="12.4104841"><ele>115.33333333333334</ele><time>2026-04-12T07:08:48.604Z</time></trkpt><trkpt lat="43.9679147" lon="12.4102435"><ele>114.0</ele><time>2026-04-12T07:08:49.605Z</time></trkpt><trkpt lat="43.9678122" lon="12.4100132"><ele>114.0</ele><time>2026-04-12T07:08:50.605Z</time></trkpt><trkpt lat="43.9677208" lon="12.4097938"><ele>114.0</ele><time>2026-04-12T07:08:51.605Z</time></trkpt><trkpt lat="43.9676299" lon="12.4095926"><ele>114.0</ele><time>2026-04-12T07:08:52.604Z</time></trkpt><trkpt lat="43.9675355" lon="12.4093963"><ele>115.0</ele><time>2026-04-12T07:08:53.604Z</time></trkpt><trkpt lat="43.9674299" lon="12.4091822"><ele>116.0</ele><time>2026-04-12T07:08:54.604Z</time></trkpt><trkpt lat="43.9673073" lon="12.4089292"><ele>117.0</ele><time>2026-04-12T07:08:55.605Z</time></trkpt><trkpt lat="43.9671715" lon="12.408635"><ele>117.0</ele><time>2026-04-12T07:08:56.605Z</time></trkpt><trkpt lat="43.9670279" lon="12.4083015"><ele>117.0</ele><time>2026-04-12T07:08:57.604Z</time></trkpt><trkpt lat="43.9668787" lon="12.4079548"><ele>116.5</ele><time>2026-04-12T07:08:58.605Z</time></trkpt><trkpt lat="43.9667327" lon="12.4076115"><ele>116.0</ele><time>2026-04-12T07:08:59.605Z</time></trkpt><trkpt lat="43.9665899" lon="12.407273"><ele>117.5</ele><time>2026-04-12T07:09:00.605Z</time></trkpt><trkpt lat="43.9664402" lon="12.4069473"><ele>119.0</ele><time>2026-04-12T07:09:01.604Z</time></trkpt><trkpt lat="43.9662866" lon="12.4066343"><ele>119.0</ele><time>2026-04-12T07:09:02.606Z</time></trkpt><trkpt lat="43.9661243" lon="12.4063353"><ele>119.0</ele><time>2026-04-12T07:09:03.605Z</time></trkpt><trkpt lat="43.965948" lon="12.4060562"><ele>121.5</ele><time>2026-04-12T07:09:04.605Z</time></trkpt><trkpt lat="43.9657623" lon="12.4057852"><ele>124.0</ele><time>2026-04-12T07:09:05.606Z</time></trkpt><trkpt lat="43.9655686" lon="12.4055157"><ele>122.0</ele><time>2026-04-12T07:09:06.605Z</time></trkpt><trkpt lat="43.9653627" lon="12.4052389"><ele>120.0</ele><time>2026-04-12T07:09:07.605Z</time></trkpt><trkpt lat="43.9651451" lon="12.4049502"><ele>120.5</ele><time>2026-04-12T07:09:08.605Z</time></trkpt><trkpt lat="43.9649205" lon="12.4046465"><ele>121.0</ele><time>2026-04-12T07:09:09.606Z</time></trkpt><trkpt lat="43.9646933" lon="12.4043317"><ele>121.0</ele><time>2026-04-12T07:09:10.606Z</time></trkpt><trkpt lat="43.9644883" lon="12.40404"><ele>121.0</ele><time>2026-04-12T07:09:11.606Z</time></trkpt><trkpt lat="43.9642917" lon="12.403775"><ele>125.0</ele><time>2026-04-12T07:09:12.605Z</time></trkpt><trkpt lat="43.9640933" lon="12.40353"><ele>129.0</ele><time>2026-04-12T07:09:13.606Z</time></trkpt><trkpt lat="43.963905" lon="12.403305"><ele>129.0</ele><time>2026-04-12T07:09:14.606Z</time></trkpt><trkpt lat="43.9637133" lon="12.4031017"><ele>129.0</ele><time>2026-04-12T07:09:15.606Z</time></trkpt><trkpt lat="43.9635133" lon="12.4029333"><ele>129.0</ele><time>2026-04-12T07:09:16.606Z</time></trkpt><trkpt lat="43.9633167" lon="12.4027733"><ele>129.0</ele><time>2026-04-12T07:09:17.605Z</time></trkpt><trkpt lat="43.9631267" lon="12.4026283"><ele>129.0</ele><time>2026-04-12T07:09:18.606Z</time></trkpt><trkpt lat="43.9629433" lon="12.4025133"><ele>129.0</ele><time>2026-04-12T07:09:19.605Z</time></trkpt><trkpt lat="43.962765" lon="12.402405"><ele>129.0</ele><time>2026-04-12T07:09:20.605Z</time></trkpt><trkpt lat="43.9625817" lon="12.4023033"><ele>129.0</ele><time>2026-04-12T07:09:21.605Z</time></trkpt><trkpt lat="43.9623917" lon="12.4021883"><ele>129.0</ele><time>2026-04-12T07:09:22.605Z</time></trkpt><trkpt lat="43.9622117" lon="12.4020867"><ele>129.0</ele><time>2026-04-12T07:09:23.605Z</time></trkpt><trkpt lat="43.9620433" lon="12.4019833"><ele>129.0</ele><time>2026-04-12T07:09:24.606Z</time></trkpt><trkpt lat="43.9618983" lon="12.4018967"><ele>129.0</ele><time>2026-04-12T07:09:25.606Z</time></trkpt><trkpt lat="43.9617783" lon="12.4018167"><ele>129.0</ele><time>2026-04-12T07:09:26.605Z</time></trkpt><trkpt lat="43.96167" lon="12.4017383"><ele>129.0</ele><time>2026-04-12T07:09:27.606Z</time></trkpt><trkpt lat="43.9615767" lon="12.4016633"><ele>129.0</ele><time>2026-04-12T07:09:28.606Z</time></trkpt><trkpt lat="43.9614933" lon="12.4016"><ele>129.33333333333334</ele><time>2026-04-12T07:09:29.605Z</time></trkpt><trkpt lat="43.9614217" lon="12.401555"><ele>129.66666666666666</ele><time>2026-04-12T07:09:30.606Z</time></trkpt><trkpt lat="43.961355" lon="12.401565"><ele>130.0</ele><time>2026-04-12T07:09:31.605Z</time></trkpt><trkpt lat="43.961295" lon="12.4016317"><ele>130.33333333333331</ele><time>2026-04-12T07:09:32.606Z</time></trkpt><trkpt lat="43.96124" lon="12.4017367"><ele>130.66666666666666</ele><time>2026-04-12T07:09:33.606Z</time></trkpt><trkpt lat="43.9611717" lon="12.401825"><ele>131.0</ele><time>2026-04-12T07:09:34.606Z</time></trkpt><trkpt lat="43.96107" lon="12.4018967"><ele>131.0</ele><time>2026-04-12T07:09:35.606Z</time></trkpt><trkpt lat="43.9609233" lon="12.4019583"><ele>131.0</ele><time>2026-04-12T07:09:36.605Z</time></trkpt><trkpt lat="43.9607667" lon="12.402025"><ele>131.0</ele><time>2026-04-12T07:09:37.605Z</time></trkpt><trkpt lat="43.9606133" lon="12.4020917"><ele>131.33333333333331</ele><time>2026-04-12T07:09:38.606Z</time></trkpt><trkpt lat="43.9604633" lon="12.40214"><ele>131.66666666666666</ele><time>2026-04-12T07:09:39.606Z</time></trkpt><trkpt lat="43.96031" lon="12.4021717"><ele>132.0</ele><time>2026-04-12T07:09:40.606Z</time></trkpt><trkpt lat="43.96015" lon="12.4021917"><ele>131.33333333333334</ele><time>2026-04-12T07:09:41.606Z</time></trkpt><trkpt lat="43.9599917" lon="12.4021783"><ele>130.66666666666669</ele><time>2026-04-12T07:09:42.606Z</time></trkpt><trkpt lat="43.9598417" lon="12.4021633"><ele>130.0</ele><time>2026-04-12T07:09:43.606Z</time></trkpt><trkpt lat="43.9597017" lon="12.40213"><ele>130.0</ele><time>2026-04-12T07:09:44.606Z</time></trkpt><trkpt lat="43.9595783" lon="12.402075"><ele>130.0</ele><time>2026-04-12T07:09:45.606Z</time></trkpt><trkpt lat="43.95948" lon="12.4020217"><ele>130.0</ele><time>2026-04-12T07:09:46.605Z</time></trkpt><trkpt lat="43.959395" lon="12.4019883"><ele>130.0</ele><time>2026-04-12T07:09:47.605Z</time></trkpt><trkpt lat="43.9593233" lon="12.401995"><ele>130.0</ele><time>2026-04-12T07:09:48.605Z</time></trkpt><trkpt lat="43.9592583" lon="12.4020367"><ele>130.0</ele><time>2026-04-12T07:09:49.606Z</time></trkpt><trkpt lat="43.9592033" lon="12.402155"><ele>130.0</ele><time>2026-04-12T07:09:50.605Z</time></trkpt><trkpt lat="43.9591583" lon="12.4023217"><ele>130.0</ele><time>2026-04-12T07:09:51.605Z</time></trkpt><trkpt lat="43.9591033" lon="12.4025083"><ele>130.0</ele><time>2026-04-12T07:09:52.605Z</time></trkpt><trkpt lat="43.9590417" lon="12.4027067"><ele>131.0</ele><time>2026-04-12T07:09:53.606Z</time></trkpt><trkpt lat="43.958985" lon="12.4029233"><ele>132.0</ele><time>2026-04-12T07:09:54.606Z</time></trkpt><trkpt lat="43.9589133" lon="12.403155"><ele>133.0</ele><time>2026-04-12T07:09:55.606Z</time></trkpt><trkpt lat="43.9588267" lon="12.403385"><ele>135.0</ele><time>2026-04-12T07:09:56.606Z</time></trkpt><trkpt lat="43.9587117" lon="12.4036283"><ele>137.0</ele><time>2026-04-12T07:09:57.606Z</time></trkpt><trkpt lat="43.9585817" lon="12.4038633"><ele>139.0</ele><time>2026-04-12T07:09:58.606Z</time></trkpt><trkpt lat="43.958445" lon="12.4040767"><ele>136.66666666666669</ele><time>2026-04-12T07:09:59.605Z</time></trkpt><trkpt lat="43.9582933" lon="12.40427"><ele>134.33333333333334</ele><time>2026-04-12T07:10:00.605Z</time></trkpt><trkpt lat="43.9581317" lon="12.404435"><ele>132.0</ele><time>2026-04-12T07:10:01.605Z</time></trkpt><trkpt lat="43.9579567" lon="12.4045783"><ele>132.0</ele><time>2026-04-12T07:10:02.605Z</time></trkpt><trkpt lat="43.9577767" lon="12.4046917"><ele>132.0</ele><time>2026-04-12T07:10:03.606Z</time></trkpt><trkpt lat="43.9575883" lon="12.4047817"><ele>132.0</ele><time>2026-04-12T07:10:04.606Z</time></trkpt><trkpt lat="43.9573817" lon="12.4048433"><ele>132.0</ele><time>2026-04-12T07:10:05.606Z</time></trkpt><trkpt lat="43.9571567" lon="12.40488"><ele>132.0</ele><time>2026-04-12T07:10:06.605Z</time></trkpt><trkpt lat="43.95691" lon="12.404915"><ele>132.5</ele><time>2026-04-12T07:10:07.606Z</time></trkpt><trkpt lat="43.95667" lon="12.4049583"><ele>133.0</ele><time>2026-04-12T07:10:08.606Z</time></trkpt><trkpt lat="43.956445" lon="12.4049933"><ele>133.0</ele><time>2026-04-12T07:10:09.605Z</time></trkpt><trkpt lat="43.9562283" lon="12.405025"><ele>133.0</ele><time>2026-04-12T07:10:10.606Z</time></trkpt><trkpt lat="43.9560167" lon="12.4050533"><ele>133.0</ele><time>2026-04-12T07:10:11.606Z</time></trkpt><trkpt lat="43.955825" lon="12.4050933"><ele>133.66666666666669</ele><time>2026-04-12T07:10:12.606Z</time></trkpt><trkpt lat="43.955645" lon="12.405125"><ele>134.33333333333334</ele><time>2026-04-12T07:10:13.606Z</time></trkpt><trkpt lat="43.95547" lon="12.4051467"><ele>135.0</ele><time>2026-04-12T07:10:14.605Z</time></trkpt><trkpt lat="43.9553083" lon="12.4051617"><ele>135.0</ele><time>2026-04-12T07:10:15.606Z</time></trkpt><trkpt lat="43.9551683" lon="12.4051817"><ele>135.0</ele><time>2026-04-12T07:10:16.606Z</time></trkpt><trkpt lat="43.9550267" lon="12.4052033"><ele>135.0</ele><time>2026-04-12T07:10:17.606Z</time></trkpt><trkpt lat="43.9548917" lon="12.4052217"><ele>135.0</ele><time>2026-04-12T07:10:18.606Z</time></trkpt><trkpt lat="43.9547667" lon="12.405245"><ele>136.0</ele><time>2026-04-12T07:10:19.605Z</time></trkpt><trkpt lat="43.95465" lon="12.4052567"><ele>137.0</ele><time>2026-04-12T07:10:20.606Z</time></trkpt><trkpt lat="43.954535" lon="12.40528"><ele>138.0</ele><time>2026-04-12T07:10:21.606Z</time></trkpt><trkpt lat="43.9544233" lon="12.4053033"><ele>139.0</ele><time>2026-04-12T07:10:22.606Z</time></trkpt><trkpt lat="43.9543167" lon="12.4053283"><ele>139.0</ele><time>2026-04-12T07:10:23.606Z</time></trkpt><trkpt lat="43.9542067" lon="12.4053467"><ele>139.0</ele><time>2026-04-12T07:10:24.606Z</time></trkpt><trkpt lat="43.9540933" lon="12.4053733"><ele>139.0</ele><time>2026-04-12T07:10:25.606Z</time></trkpt><trkpt lat="43.9539783" lon="12.4053933"><ele>139.0</ele><time>2026-04-12T07:10:26.606Z</time></trkpt><trkpt lat="43.9538617" lon="12.4054283"><ele>139.25</ele><time>2026-04-12T07:10:27.605Z</time></trkpt><trkpt lat="43.9537483" lon="12.4054633"><ele>139.5</ele><time>2026-04-12T07:10:28.606Z</time></trkpt><trkpt lat="43.9536267" lon="12.4054917"><ele>139.75</ele><time>2026-04-12T07:10:29.606Z</time></trkpt><trkpt lat="43.953505" lon="12.40552"><ele>140.0</ele><time>2026-04-12T07:10:30.606Z</time></trkpt><trkpt lat="43.9533867" lon="12.4055433"><ele>141.0</ele><time>2026-04-12T07:10:31.606Z</time></trkpt><trkpt lat="43.9532683" lon="12.4055733"><ele>142.0</ele><time>2026-04-12T07:10:32.606Z</time></trkpt><trkpt lat="43.9531517" lon="12.4056167"><ele>143.0</ele><time>2026-04-12T07:10:33.606Z</time></trkpt><trkpt lat="43.9530333" lon="12.4056517"><ele>144.0</ele><time>2026-04-12T07:10:34.606Z</time></trkpt><trkpt lat="43.9529233" lon="12.4056717"><ele>144.0</ele><time>2026-04-12T07:10:35.606Z</time></trkpt><trkpt lat="43.952825" lon="12.4056867"><ele>144.0</ele><time>2026-04-12T07:10:36.606Z</time></trkpt><trkpt lat="43.95272" lon="12.4057017"><ele>144.0</ele><time>2026-04-12T07:10:37.606Z</time></trkpt><trkpt lat="43.95262" lon="12.4057217"><ele>144.0</ele><time>2026-04-12T07:10:38.605Z</time></trkpt><trkpt lat="43.9525283" lon="12.4057567"><ele>144.0</ele><time>2026-04-12T07:10:39.606Z</time></trkpt><trkpt lat="43.9524417" lon="12.4057783"><ele>144.0</ele><time>2026-04-12T07:10:40.606Z</time></trkpt><trkpt lat="43.95237" lon="12.405805"><ele>144.0</ele><time>2026-04-12T07:10:41.605Z</time></trkpt><trkpt lat="43.9523017" lon="12.4058233"><ele>144.0</ele><time>2026-04-12T07:10:42.606Z</time></trkpt><trkpt lat="43.9522117" lon="12.4058717"><ele>144.0</ele><time>2026-04-12T07:10:44.606Z</time></trkpt><trkpt lat="43.9522" lon="12.40599"><ele>144.0</ele><time>2026-04-12T07:10:47.606Z</time></trkpt><trkpt lat="43.952275" lon="12.40603"><ele>144.0</ele><time>2026-04-12T07:10:50.606Z</time></trkpt><trkpt lat="43.9523888" lon="12.4059258"><ele>144.0</ele><time>2026-04-12T07:15:11.648Z</time></trkpt><trkpt lat="43.9525597" lon="12.40581"><ele>144.0</ele><time>2026-04-12T07:15:16.605Z</time></trkpt><trkpt lat="43.9526814" lon="12.4057378"><ele>144.0</ele><time>2026-04-12T07:15:17.605Z</time></trkpt><trkpt lat="43.9528099" lon="12.4056974"><ele>144.0</ele><time>2026-04-12T07:15:18.605Z</time></trkpt><trkpt lat="43.9529474" lon="12.4056494"><ele>144.0</ele><time>2026-04-12T07:15:19.605Z</time></trkpt><trkpt lat="43.9530835" lon="12.4056214"><ele>144.0</ele><time>2026-04-12T07:15:20.605Z</time></trkpt><trkpt lat="43.9532178" lon="12.4055926"><ele>144.0</ele><time>2026-04-12T07:15:21.605Z</time></trkpt><trkpt lat="43.9533509" lon="12.4055624"><ele>143.25</ele><time>2026-04-12T07:15:22.605Z</time></trkpt><trkpt lat="43.9534759" lon="12.4055293"><ele>142.5</ele><time>2026-04-12T07:15:23.605Z</time></trkpt><trkpt lat="43.9535986" lon="12.4055107"><ele>141.75</ele><time>2026-04-12T07:15:24.605Z</time></trkpt><trkpt lat="43.953723" lon="12.4054916"><ele>141.0</ele><time>2026-04-12T07:15:25.605Z</time></trkpt><trkpt lat="43.9538699" lon="12.4054671"><ele>140.66666666666666</ele><time>2026-04-12T07:15:26.605Z</time></trkpt><trkpt lat="43.9540322" lon="12.4054287"><ele>140.33333333333331</ele><time>2026-04-12T07:15:27.605Z</time></trkpt><trkpt lat="43.9541831" lon="12.4053968"><ele>140.0</ele><time>2026-04-12T07:15:28.605Z</time></trkpt><trkpt lat="43.9543365" lon="12.4053679"><ele>139.66666666666666</ele><time>2026-04-12T07:15:29.605Z</time></trkpt><trkpt lat="43.9544869" lon="12.4053417"><ele>139.33333333333334</ele><time>2026-04-12T07:15:30.605Z</time></trkpt><trkpt lat="43.9546417" lon="12.4053105"><ele>139.0</ele><time>2026-04-12T07:15:31.605Z</time></trkpt><trkpt lat="43.9548149" lon="12.4052836"><ele>139.0</ele><time>2026-04-12T07:15:32.605Z</time></trkpt><trkpt lat="43.9550059" lon="12.4052565"><ele>139.0</ele><time>2026-04-12T07:15:33.604Z</time></trkpt><trkpt lat="43.9552253" lon="12.4052262"><ele>139.0</ele><time>2026-04-12T07:15:34.604Z</time></trkpt><trkpt lat="43.9554594" lon="12.4051882"><ele>137.0</ele><time>2026-04-12T07:15:35.604Z</time></trkpt><trkpt lat="43.9557044" lon="12.4051462"><ele>135.0</ele><time>2026-04-12T07:15:36.605Z</time></trkpt><trkpt lat="43.9559626" lon="12.4051079"><ele>134.0</ele><time>2026-04-12T07:15:37.605Z</time></trkpt><trkpt lat="43.9562266" lon="12.4050658"><ele>133.0</ele><time>2026-04-12T07:15:38.605Z</time></trkpt><trkpt lat="43.9564867" lon="12.4050254"><ele>132.5</ele><time>2026-04-12T07:15:39.605Z</time></trkpt><trkpt lat="43.9567318" lon="12.4049797"><ele>132.0</ele><time>2026-04-12T07:15:40.605Z</time></trkpt><trkpt lat="43.9569666" lon="12.4049369"><ele>132.0</ele><time>2026-04-12T07:15:41.605Z</time></trkpt><trkpt lat="43.9571893" lon="12.4048998"><ele>132.0</ele><time>2026-04-12T07:15:42.604Z</time></trkpt><trkpt lat="43.9573986" lon="12.4048601"><ele>132.0</ele><time>2026-04-12T07:15:43.605Z</time></trkpt><trkpt lat="43.9575987" lon="12.4048065"><ele>132.0</ele><time>2026-04-12T07:15:44.604Z</time></trkpt><trkpt lat="43.9578043" lon="12.4047161"><ele>132.0</ele><time>2026-04-12T07:15:45.605Z</time></trkpt><trkpt lat="43.9580067" lon="12.4045858"><ele>132.0</ele><time>2026-04-12T07:15:46.605Z</time></trkpt><trkpt lat="43.9582058" lon="12.4044147"><ele>138.5</ele><time>2026-04-12T07:15:47.605Z</time></trkpt><trkpt lat="43.9583923" lon="12.4042142"><ele>145.0</ele><time>2026-04-12T07:15:48.604Z</time></trkpt><trkpt lat="43.958555" lon="12.4039909"><ele>143.0</ele><time>2026-04-12T07:15:49.605Z</time></trkpt><trkpt lat="43.9586949" lon="12.4037473"><ele>141.0</ele><time>2026-04-12T07:15:50.605Z</time></trkpt><trkpt lat="43.9588104" lon="12.403501"><ele>139.0</ele><time>2026-04-12T07:15:51.604Z</time></trkpt><trkpt lat="43.9589064" lon="12.4032535"><ele>139.0</ele><time>2026-04-12T07:15:52.604Z</time></trkpt><trkpt lat="43.9589803" lon="12.4030208"><ele>139.0</ele><time>2026-04-12T07:15:53.605Z</time></trkpt><trkpt lat="43.9590448" lon="12.4028046"><ele>139.0</ele><time>2026-04-12T07:15:54.605Z</time></trkpt><trkpt lat="43.9591068" lon="12.4026125"><ele>138.75</ele><time>2026-04-12T07:15:55.605Z</time></trkpt><trkpt lat="43.9591636" lon="12.4024461"><ele>138.5</ele><time>2026-04-12T07:15:56.604Z</time></trkpt><trkpt lat="43.9592209" lon="12.4023109"><ele>138.25</ele><time>2026-04-12T07:15:57.604Z</time></trkpt><trkpt lat="43.9592862" lon="12.402199"><ele>138.0</ele><time>2026-04-12T07:15:58.604Z</time></trkpt><trkpt lat="43.9593642" lon="12.4021109"><ele>138.0</ele><time>2026-04-12T07:15:59.605Z</time></trkpt><trkpt lat="43.959461" lon="12.4020623"><ele>138.0</ele><time>2026-04-12T07:16:00.605Z</time></trkpt><trkpt lat="43.9595695" lon="12.4020692"><ele>138.0</ele><time>2026-04-12T07:16:01.605Z</time></trkpt><trkpt lat="43.9596971" lon="12.4021162"><ele>138.0</ele><time>2026-04-12T07:16:02.605Z</time></trkpt><trkpt lat="43.959851" lon="12.4021776"><ele>138.0</ele><time>2026-04-12T07:16:03.605Z</time></trkpt><trkpt lat="43.9600288" lon="12.4022187"><ele>138.0</ele><time>2026-04-12T07:16:04.605Z</time></trkpt><trkpt lat="43.9602039" lon="12.4022305"><ele>138.0</ele><time>2026-04-12T07:16:05.605Z</time></trkpt><trkpt lat="43.9603778" lon="12.4022114"><ele>136.0</ele><time>2026-04-12T07:16:06.605Z</time></trkpt><trkpt lat="43.9605493" lon="12.4021559"><ele>134.0</ele><time>2026-04-12T07:16:07.604Z</time></trkpt><trkpt lat="43.9607105" lon="12.402083"><ele>132.0</ele><time>2026-04-12T07:16:08.605Z</time></trkpt><trkpt lat="43.9608558" lon="12.4020142"><ele>131.79999999999998</ele><time>2026-04-12T07:16:09.604Z</time></trkpt><trkpt lat="43.9609889" lon="12.401954"><ele>131.6</ele><time>2026-04-12T07:16:10.604Z</time></trkpt><trkpt lat="43.9611029" lon="12.4019125"><ele>131.39999999999998</ele><time>2026-04-12T07:16:11.605Z</time></trkpt><trkpt lat="43.9611984" lon="12.4018895"><ele>131.2</ele><time>2026-04-12T07:16:12.604Z</time></trkpt><trkpt lat="43.96127" lon="12.4018746"><ele>131.0</ele><time>2026-04-12T07:16:13.605Z</time></trkpt><trkpt lat="43.9613506" lon="12.4018687"><ele>131.0</ele><time>2026-04-12T07:16:15.604Z</time></trkpt><trkpt lat="43.9614467" lon="12.4018125"><ele>131.0</ele><time>2026-04-12T07:16:17.605Z</time></trkpt><trkpt lat="43.961497" lon="12.4017474"><ele>131.0</ele><time>2026-04-12T07:16:18.605Z</time></trkpt><trkpt lat="43.9615146" lon="12.4015811"><ele>131.0</ele><time>2026-04-12T07:16:20.605Z</time></trkpt><trkpt lat="43.9614581" lon="12.4015006"><ele>131.0</ele><time>2026-04-12T07:16:21.605Z</time></trkpt><trkpt lat="43.9613689" lon="12.4014338"><ele>131.0</ele><time>2026-04-12T07:16:22.604Z</time></trkpt><trkpt lat="43.9612631" lon="12.4013662"><ele>131.0</ele><time>2026-04-12T07:16:23.604Z</time></trkpt><trkpt lat="43.9611475" lon="12.4012695"><ele>131.0</ele><time>2026-04-12T07:16:24.604Z</time></trkpt><trkpt lat="43.9610272" lon="12.4011431"><ele>131.0</ele><time>2026-04-12T07:16:25.605Z</time></trkpt><trkpt lat="43.9609045" lon="12.4009978"><ele>130.33333333333331</ele><time>2026-04-12T07:16:26.605Z</time></trkpt><trkpt lat="43.9607794" lon="12.4008274"><ele>129.66666666666666</ele><time>2026-04-12T07:16:27.604Z</time></trkpt><trkpt lat="43.9606529" lon="12.400637"><ele>129.0</ele><time>2026-04-12T07:16:28.605Z</time></trkpt><trkpt lat="43.9605259" lon="12.4004259"><ele>127.66666666666666</ele><time>2026-04-12T07:16:29.605Z</time></trkpt><trkpt lat="43.9604069" lon="12.4002034"><ele>126.33333333333333</ele><time>2026-04-12T07:16:30.604Z</time></trkpt><trkpt lat="43.9602948" lon="12.3999901"><ele>125.0</ele><time>2026-04-12T07:16:31.605Z</time></trkpt><trkpt lat="43.9601852" lon="12.3997727"><ele>125.0</ele><time>2026-04-12T07:16:32.605Z</time></trkpt><trkpt lat="43.9600725" lon="12.3995512"><ele>125.0</ele><time>2026-04-12T07:16:33.604Z</time></trkpt><trkpt lat="43.9599588" lon="12.3993299"><ele>125.0</ele><time>2026-04-12T07:16:34.604Z</time></trkpt><trkpt lat="43.9598411" lon="12.3991078"><ele>125.0</ele><time>2026-04-12T07:16:35.605Z</time></trkpt><trkpt lat="43.9597203" lon="12.3988853"><ele>125.0</ele><time>2026-04-12T07:16:36.605Z</time></trkpt><trkpt lat="43.9595993" lon="12.3986631"><ele>125.0</ele><time>2026-04-12T07:16:37.605Z</time></trkpt><trkpt lat="43.9594838" lon="12.39844"><ele>127.33333333333333</ele><time>2026-04-12T07:16:38.605Z</time></trkpt><trkpt lat="43.9593706" lon="12.3982059"><ele>129.66666666666666</ele><time>2026-04-12T07:16:39.605Z</time></trkpt><trkpt lat="43.9592564" lon="12.3979654"><ele>132.0</ele><time>2026-04-12T07:16:40.605Z</time></trkpt><trkpt lat="43.9591403" lon="12.3977099"><ele>131.33333333333334</ele><time>2026-04-12T07:16:41.605Z</time></trkpt><trkpt lat="43.9590253" lon="12.3974475"><ele>130.66666666666669</ele><time>2026-04-12T07:16:42.605Z</time></trkpt><trkpt lat="43.9589123" lon="12.3971727"><ele>130.0</ele><time>2026-04-12T07:16:43.605Z</time></trkpt><trkpt lat="43.9588022" lon="12.3968866"><ele>130.0</ele><time>2026-04-12T07:16:44.605Z</time></trkpt><trkpt lat="43.9586906" lon="12.3965953"><ele>130.0</ele><time>2026-04-12T07:16:45.605Z</time></trkpt><trkpt lat="43.958579" lon="12.3962962"><ele>128.5</ele><time>2026-04-12T07:16:46.604Z</time></trkpt><trkpt lat="43.9584713" lon="12.3959926"><ele>127.0</ele><time>2026-04-12T07:16:47.605Z</time></trkpt><trkpt lat="43.9583649" lon="12.3956873"><ele>129.5</ele><time>2026-04-12T07:16:48.605Z</time></trkpt><trkpt lat="43.958259" lon="12.3953865"><ele>132.0</ele><time>2026-04-12T07:16:49.605Z</time></trkpt><trkpt lat="43.9581469" lon="12.3950693"><ele>132.0</ele><time>2026-04-12T07:16:50.605Z</time></trkpt><trkpt lat="43.9580197" lon="12.3947346"><ele>132.0</ele><time>2026-04-12T07:16:51.605Z</time></trkpt><trkpt lat="43.9578859" lon="12.3943754"><ele>130.0</ele><time>2026-04-12T07:16:52.605Z</time></trkpt><trkpt lat="43.9577477" lon="12.3939932"><ele>128.0</ele><time>2026-04-12T07:16:53.604Z</time></trkpt><trkpt lat="43.9576073" lon="12.3936018"><ele>129.5</ele><time>2026-04-12T07:16:54.604Z</time></trkpt><trkpt lat="43.9574756" lon="12.3932176"><ele>131.0</ele><time>2026-04-12T07:16:55.604Z</time></trkpt><trkpt lat="43.9573526" lon="12.3928365"><ele>131.0</ele><time>2026-04-12T07:16:56.604Z</time></trkpt><trkpt lat="43.9572413" lon="12.392464"><ele>131.0</ele><time>2026-04-12T07:16:57.605Z</time></trkpt><trkpt lat="43.9571451" lon="12.3920946"><ele>130.5</ele><time>2026-04-12T07:16:58.604Z</time></trkpt><trkpt lat="43.9570637" lon="12.391723"><ele>130.0</ele><time>2026-04-12T07:16:59.605Z</time></trkpt><trkpt lat="43.9570113" lon="12.3913387"><ele>130.0</ele><time>2026-04-12T07:17:00.605Z</time></trkpt><trkpt lat="43.9569828" lon="12.3909395"><ele>130.0</ele><time>2026-04-12T07:17:01.605Z</time></trkpt><trkpt lat="43.9569802" lon="12.3905234"><ele>130.5</ele><time>2026-04-12T07:17:02.605Z</time></trkpt><trkpt lat="43.9570011" lon="12.3901059"><ele>131.0</ele><time>2026-04-12T07:17:03.605Z</time></trkpt><trkpt lat="43.9570465" lon="12.3896931"><ele>130.5</ele><time>2026-04-12T07:17:04.604Z</time></trkpt><trkpt lat="43.9571146" lon="12.3892766"><ele>130.0</ele><time>2026-04-12T07:17:05.605Z</time></trkpt><trkpt lat="43.9571989" lon="12.3888623"><ele>132.0</ele><time>2026-04-12T07:17:06.605Z</time></trkpt><trkpt lat="43.9573024" lon="12.3884712"><ele>134.0</ele><time>2026-04-12T07:17:07.604Z</time></trkpt><trkpt lat="43.9574032" lon="12.3881103"><ele>136.0</ele><time>2026-04-12T07:17:08.605Z</time></trkpt><trkpt lat="43.9574974" lon="12.3877704"><ele>138.0</ele><time>2026-04-12T07:17:09.605Z</time></trkpt><trkpt lat="43.9575851" lon="12.3874472"><ele>136.0</ele><time>2026-04-12T07:17:10.605Z</time></trkpt><trkpt lat="43.957669" lon="12.3871301"><ele>134.0</ele><time>2026-04-12T07:17:11.604Z</time></trkpt><trkpt lat="43.9577558" lon="12.3868218"><ele>134.0</ele><time>2026-04-12T07:17:12.605Z</time></trkpt><trkpt lat="43.9578242" lon="12.3865152"><ele>134.0</ele><time>2026-04-12T07:17:13.605Z</time></trkpt><trkpt lat="43.9578696" lon="12.3862048"><ele>134.5</ele><time>2026-04-12T07:17:14.605Z</time></trkpt><trkpt lat="43.9578924" lon="12.3858894"><ele>135.0</ele><time>2026-04-12T07:17:15.605Z</time></trkpt><trkpt lat="43.9578969" lon="12.3855696"><ele>133.5</ele><time>2026-04-12T07:17:16.605Z</time></trkpt><trkpt lat="43.9578715" lon="12.3852543"><ele>132.0</ele><time>2026-04-12T07:17:17.605Z</time></trkpt><trkpt lat="43.9578232" lon="12.3849385"><ele>133.0</ele><time>2026-04-12T07:17:18.604Z</time></trkpt><trkpt lat="43.9577529" lon="12.3846252"><ele>134.0</ele><time>2026-04-12T07:17:19.604Z</time></trkpt><trkpt lat="43.9576655" lon="12.3843191"><ele>134.0</ele><time>2026-04-12T07:17:20.605Z</time></trkpt><trkpt lat="43.9575612" lon="12.3840286"><ele>134.0</ele><time>2026-04-12T07:17:21.605Z</time></trkpt><trkpt lat="43.9574526" lon="12.3837613"><ele>136.0</ele><time>2026-04-12T07:17:22.605Z</time></trkpt><trkpt lat="43.9573408" lon="12.3834964"><ele>138.0</ele><time>2026-04-12T07:17:23.605Z</time></trkpt><trkpt lat="43.957224" lon="12.3832278"><ele>140.0</ele><time>2026-04-12T07:17:24.604Z</time></trkpt><trkpt lat="43.9571076" lon="12.382951"><ele>140.0</ele><time>2026-04-12T07:17:25.605Z</time></trkpt><trkpt lat="43.9569855" lon="12.3826648"><ele>140.0</ele><time>2026-04-12T07:17:26.605Z</time></trkpt><trkpt lat="43.9568585" lon="12.3823796"><ele>138.0</ele><time>2026-04-12T07:17:27.605Z</time></trkpt><trkpt lat="43.9567339" lon="12.3820914"><ele>136.0</ele><time>2026-04-12T07:17:28.605Z</time></trkpt><trkpt lat="43.9566193" lon="12.3818032"><ele>141.5</ele><time>2026-04-12T07:17:29.605Z</time></trkpt><trkpt lat="43.9565161" lon="12.3815163"><ele>147.0</ele><time>2026-04-12T07:17:30.604Z</time></trkpt><trkpt lat="43.956411" lon="12.381247"><ele>147.0</ele><time>2026-04-12T07:17:31.605Z</time></trkpt><trkpt lat="43.9563079" lon="12.3809941"><ele>147.0</ele><time>2026-04-12T07:17:32.605Z</time></trkpt><trkpt lat="43.9562066" lon="12.380746"><ele>147.0</ele><time>2026-04-12T07:17:33.605Z</time></trkpt><trkpt lat="43.9561051" lon="12.3805102"><ele>144.66666666666666</ele><time>2026-04-12T07:17:34.604Z</time></trkpt><trkpt lat="43.9560009" lon="12.3802744"><ele>142.33333333333331</ele><time>2026-04-12T07:17:35.604Z</time></trkpt><trkpt lat="43.9558909" lon="12.3800274"><ele>140.0</ele><time>2026-04-12T07:17:36.605Z</time></trkpt><trkpt lat="43.9557799" lon="12.3797574"><ele>146.5</ele><time>2026-04-12T07:17:37.605Z</time></trkpt><trkpt lat="43.9556641" lon="12.3794777"><ele>153.0</ele><time>2026-04-12T07:17:38.605Z</time></trkpt><trkpt lat="43.9555527" lon="12.3792018"><ele>153.0</ele><time>2026-04-12T07:17:39.605Z</time></trkpt><trkpt lat="43.9554485" lon="12.3789411"><ele>153.0</ele><time>2026-04-12T07:17:40.605Z</time></trkpt><trkpt lat="43.9553507" lon="12.3786849"><ele>153.0</ele><time>2026-04-12T07:17:41.605Z</time></trkpt><trkpt lat="43.9552495" lon="12.3784357"><ele>152.33333333333334</ele><time>2026-04-12T07:17:42.605Z</time></trkpt><trkpt lat="43.9551544" lon="12.3781999"><ele>151.66666666666669</ele><time>2026-04-12T07:17:43.605Z</time></trkpt><trkpt lat="43.9550642" lon="12.3779776"><ele>151.0</ele><time>2026-04-12T07:17:44.605Z</time></trkpt><trkpt lat="43.9549706" lon="12.3777631"><ele>153.0</ele><time>2026-04-12T07:17:45.604Z</time></trkpt><trkpt lat="43.9548823" lon="12.3775463"><ele>155.0</ele><time>2026-04-12T07:17:46.605Z</time></trkpt><trkpt lat="43.9547922" lon="12.3773324"><ele>157.0</ele><time>2026-04-12T07:17:47.605Z</time></trkpt><trkpt lat="43.9547089" lon="12.3771214"><ele>157.0</ele><time>2026-04-12T07:17:48.605Z</time></trkpt><trkpt lat="43.9546289" lon="12.3769088"><ele>157.0</ele><time>2026-04-12T07:17:49.605Z</time></trkpt><trkpt lat="43.9545459" lon="12.3766875"><ele>157.0</ele><time>2026-04-12T07:17:50.605Z</time></trkpt><trkpt lat="43.9544661" lon="12.3764643"><ele>156.66666666666669</ele><time>2026-04-12T07:17:51.604Z</time></trkpt><trkpt lat="43.9543911" lon="12.3762418"><ele>156.33333333333334</ele><time>2026-04-12T07:17:52.604Z</time></trkpt><trkpt lat="43.9543208" lon="12.3760215"><ele>156.0</ele><time>2026-04-12T07:17:53.604Z</time></trkpt><trkpt lat="43.9542538" lon="12.3758085"><ele>158.33333333333334</ele><time>2026-04-12T07:17:54.604Z</time></trkpt><trkpt lat="43.9541927" lon="12.3755979"><ele>160.66666666666669</ele><time>2026-04-12T07:17:55.605Z</time></trkpt><trkpt lat="43.9541294" lon="12.3753889"><ele>163.0</ele><time>2026-04-12T07:17:56.605Z</time></trkpt><trkpt lat="43.9540757" lon="12.3751831"><ele>163.0</ele><time>2026-04-12T07:17:57.605Z</time></trkpt><trkpt lat="43.9540217" lon="12.374983"><ele>163.0</ele><time>2026-04-12T07:17:58.605Z</time></trkpt><trkpt lat="43.9539732" lon="12.3747901"><ele>163.0</ele><time>2026-04-12T07:17:59.604Z</time></trkpt><trkpt lat="43.9539195" lon="12.3746002"><ele>163.0</ele><time>2026-04-12T07:18:00.605Z</time></trkpt><trkpt lat="43.9538646" lon="12.3744204"><ele>162.75</ele><time>2026-04-12T07:18:01.605Z</time></trkpt><trkpt lat="43.9538115" lon="12.374236"><ele>162.5</ele><time>2026-04-12T07:18:02.605Z</time></trkpt><trkpt lat="43.9537612" lon="12.3740545"><ele>162.25</ele><time>2026-04-12T07:18:03.605Z</time></trkpt><trkpt lat="43.9537112" lon="12.3738842"><ele>162.0</ele><time>2026-04-12T07:18:04.605Z</time></trkpt><trkpt lat="43.9536626" lon="12.3737277"><ele>161.8</ele><time>2026-04-12T07:18:05.604Z</time></trkpt><trkpt lat="43.9536138" lon="12.3735819"><ele>161.6</ele><time>2026-04-12T07:18:06.604Z</time></trkpt><trkpt lat="43.9535672" lon="12.3734402"><ele>161.4</ele><time>2026-04-12T07:18:07.605Z</time></trkpt><trkpt lat="43.9535255" lon="12.3733059"><ele>161.20000000000002</ele><time>2026-04-12T07:18:08.605Z</time></trkpt><trkpt lat="43.9534834" lon="12.3731649"><ele>161.0</ele><time>2026-04-12T07:18:09.604Z</time></trkpt><trkpt lat="43.9534384" lon="12.3730137"><ele>160.5</ele><time>2026-04-12T07:18:10.605Z</time></trkpt><trkpt lat="43.9533926" lon="12.3728523"><ele>160.0</ele><time>2026-04-12T07:18:11.604Z</time></trkpt><trkpt lat="43.9533425" lon="12.3726806"><ele>159.5</ele><time>2026-04-12T07:18:12.605Z</time></trkpt><trkpt lat="43.9532966" lon="12.3725103"><ele>159.0</ele><time>2026-04-12T07:18:13.604Z</time></trkpt><trkpt lat="43.9532539" lon="12.3723494"><ele>160.25</ele><time>2026-04-12T07:18:14.605Z</time></trkpt><trkpt lat="43.95321" lon="12.3721926"><ele>161.5</ele><time>2026-04-12T07:18:15.605Z</time></trkpt><trkpt lat="43.9531637" lon="12.372039"><ele>162.75</ele><time>2026-04-12T07:18:16.605Z</time></trkpt><trkpt lat="43.9531074" lon="12.3718708"><ele>164.0</ele><time>2026-04-12T07:18:17.604Z</time></trkpt><trkpt lat="43.9530499" lon="12.3716864"><ele>164.0</ele><time>2026-04-12T07:18:18.605Z</time></trkpt><trkpt lat="43.9529952" lon="12.3714951"><ele>164.0</ele><time>2026-04-12T07:18:19.605Z</time></trkpt><trkpt lat="43.9529375" lon="12.3712968"><ele>164.0</ele><time>2026-04-12T07:18:20.605Z</time></trkpt><trkpt lat="43.9528768" lon="12.3710833"><ele>164.0</ele><time>2026-04-12T07:18:21.605Z</time></trkpt><trkpt lat="43.9528137" lon="12.3708593"><ele>164.0</ele><time>2026-04-12T07:18:22.604Z</time></trkpt><trkpt lat="43.9527389" lon="12.3706273"><ele>164.0</ele><time>2026-04-12T07:18:23.604Z</time></trkpt><trkpt lat="43.9526563" lon="12.3703775"><ele>163.33333333333331</ele><time>2026-04-12T07:18:24.605Z</time></trkpt><trkpt lat="43.9525782" lon="12.3701125"><ele>162.66666666666666</ele><time>2026-04-12T07:18:25.605Z</time></trkpt><trkpt lat="43.9525051" lon="12.3698503"><ele>162.0</ele><time>2026-04-12T07:18:26.605Z</time></trkpt><trkpt lat="43.952427" lon="12.3695994"><ele>163.66666666666666</ele><time>2026-04-12T07:18:27.605Z</time></trkpt><trkpt lat="43.9523404" lon="12.369361"><ele>165.33333333333331</ele><time>2026-04-12T07:18:28.605Z</time></trkpt><trkpt lat="43.9522439" lon="12.3691365"><ele>167.0</ele><time>2026-04-12T07:18:29.605Z</time></trkpt><trkpt lat="43.9521373" lon="12.3689149"><ele>166.33333333333331</ele><time>2026-04-12T07:18:30.605Z</time></trkpt><trkpt lat="43.952017" lon="12.3686955"><ele>165.66666666666666</ele><time>2026-04-12T07:18:31.605Z</time></trkpt><trkpt lat="43.9518812" lon="12.3684817"><ele>165.0</ele><time>2026-04-12T07:18:32.605Z</time></trkpt><trkpt lat="43.9517294" lon="12.3682636"><ele>166.5</ele><time>2026-04-12T07:18:33.604Z</time></trkpt><trkpt lat="43.9515676" lon="12.3680499"><ele>168.0</ele><time>2026-04-12T07:18:34.605Z</time></trkpt><trkpt lat="43.9513962" lon="12.367841"><ele>165.33333333333334</ele><time>2026-04-12T07:18:35.605Z</time></trkpt><trkpt lat="43.9512235" lon="12.367642"><ele>162.66666666666669</ele><time>2026-04-12T07:18:36.604Z</time></trkpt><trkpt lat="43.9510561" lon="12.3674572"><ele>160.0</ele><time>2026-04-12T07:18:37.605Z</time></trkpt><trkpt lat="43.9508925" lon="12.3672771"><ele>159.0</ele><time>2026-04-12T07:18:38.605Z</time></trkpt><trkpt lat="43.9507284" lon="12.3670947"><ele>158.0</ele><time>2026-04-12T07:18:39.605Z</time></trkpt><trkpt lat="43.9505664" lon="12.3669164"><ele>157.0</ele><time>2026-04-12T07:18:40.605Z</time></trkpt><trkpt lat="43.9504085" lon="12.3667431"><ele>157.0</ele><time>2026-04-12T07:18:41.604Z</time></trkpt><trkpt lat="43.9502606" lon="12.3665731"><ele>157.0</ele><time>2026-04-12T07:18:42.605Z</time></trkpt><trkpt lat="43.9501158" lon="12.3664052"><ele>157.0</ele><time>2026-04-12T07:18:43.604Z</time></trkpt><trkpt lat="43.9499747" lon="12.3662352"><ele>160.33333333333334</ele><time>2026-04-12T07:18:44.605Z</time></trkpt><trkpt lat="43.9498307" lon="12.3660628"><ele>163.66666666666666</ele><time>2026-04-12T07:18:45.605Z</time></trkpt><trkpt lat="43.949681" lon="12.3658854"><ele>167.0</ele><time>2026-04-12T07:18:46.604Z</time></trkpt><trkpt lat="43.9495292" lon="12.3656991"><ele>167.0</ele><time>2026-04-12T07:18:47.605Z</time></trkpt><trkpt lat="43.949379" lon="12.3655002"><ele>167.0</ele><time>2026-04-12T07:18:48.604Z</time></trkpt><trkpt lat="43.9492317" lon="12.3652876"><ele>167.0</ele><time>2026-04-12T07:18:49.605Z</time></trkpt><trkpt lat="43.9490883" lon="12.3650501"><ele>167.0</ele><time>2026-04-12T07:18:50.605Z</time></trkpt><trkpt lat="43.9489489" lon="12.3647803"><ele>167.0</ele><time>2026-04-12T07:18:51.605Z</time></trkpt><trkpt lat="43.9488164" lon="12.3644853"><ele>164.0</ele><time>2026-04-12T07:18:52.604Z</time></trkpt><trkpt lat="43.948692" lon="12.3641768"><ele>161.0</ele><time>2026-04-12T07:18:53.605Z</time></trkpt><trkpt lat="43.9485803" lon="12.3638743"><ele>161.0</ele><time>2026-04-12T07:18:54.604Z</time></trkpt><trkpt lat="43.9484758" lon="12.3635815"><ele>161.0</ele><time>2026-04-12T07:18:55.605Z</time></trkpt><trkpt lat="43.9483734" lon="12.3632974"><ele>162.0</ele><time>2026-04-12T07:18:56.605Z</time></trkpt><trkpt lat="43.9482546" lon="12.3630227"><ele>163.0</ele><time>2026-04-12T07:18:57.605Z</time></trkpt><trkpt lat="43.9481182" lon="12.3627627"><ele>163.0</ele><time>2026-04-12T07:18:58.604Z</time></trkpt><trkpt lat="43.9479595" lon="12.3625141"><ele>163.0</ele><time>2026-04-12T07:18:59.605Z</time></trkpt><trkpt lat="43.9477823" lon="12.3622809"><ele>163.0</ele><time>2026-04-12T07:19:00.604Z</time></trkpt><trkpt lat="43.9475966" lon="12.3620591"><ele>163.0</ele><time>2026-04-12T07:19:01.604Z</time></trkpt><trkpt lat="43.947395" lon="12.3618509"><ele>163.0</ele><time>2026-04-12T07:19:02.605Z</time></trkpt><trkpt lat="43.9471856" lon="12.3616443"><ele>163.0</ele><time>2026-04-12T07:19:03.605Z</time></trkpt><trkpt lat="43.9469779" lon="12.3614403"><ele>162.0</ele><time>2026-04-12T07:19:04.605Z</time></trkpt><trkpt lat="43.9467697" lon="12.3612361"><ele>161.0</ele><time>2026-04-12T07:19:05.605Z</time></trkpt><trkpt lat="43.9465483" lon="12.3610456"><ele>161.0</ele><time>2026-04-12T07:19:06.604Z</time></trkpt><trkpt lat="43.946318" lon="12.3608694"><ele>161.0</ele><time>2026-04-12T07:19:07.605Z</time></trkpt><trkpt lat="43.946093" lon="12.3607054"><ele>160.5</ele><time>2026-04-12T07:19:08.604Z</time></trkpt><trkpt lat="43.9458742" lon="12.3605434"><ele>160.0</ele><time>2026-04-12T07:19:09.605Z</time></trkpt><trkpt lat="43.9456605" lon="12.360374"><ele>160.0</ele><time>2026-04-12T07:19:10.605Z</time></trkpt><trkpt lat="43.9454632" lon="12.3601767"><ele>160.0</ele><time>2026-04-12T07:19:11.604Z</time></trkpt><trkpt lat="43.9452863" lon="12.3599433"><ele>160.0</ele><time>2026-04-12T07:19:12.605Z</time></trkpt><trkpt lat="43.9451167" lon="12.3596908"><ele>160.0</ele><time>2026-04-12T07:19:13.605Z</time></trkpt><trkpt lat="43.9449476" lon="12.3594138"><ele>160.0</ele><time>2026-04-12T07:19:14.604Z</time></trkpt><trkpt lat="43.9447735" lon="12.3591321"><ele>160.0</ele><time>2026-04-12T07:19:15.605Z</time></trkpt><trkpt lat="43.9445958" lon="12.3588386"><ele>159.0</ele><time>2026-04-12T07:19:16.604Z</time></trkpt><trkpt lat="43.9444146" lon="12.3585398"><ele>158.0</ele><time>2026-04-12T07:19:17.605Z</time></trkpt><trkpt lat="43.9442348" lon="12.3582505"><ele>159.0</ele><time>2026-04-12T07:19:18.605Z</time></trkpt><trkpt lat="43.9440608" lon="12.3579679"><ele>160.0</ele><time>2026-04-12T07:19:19.605Z</time></trkpt><trkpt lat="43.9438898" lon="12.3576903"><ele>160.0</ele><time>2026-04-12T07:19:20.605Z</time></trkpt><trkpt lat="43.9437225" lon="12.3574144"><ele>160.0</ele><time>2026-04-12T07:19:21.604Z</time></trkpt><trkpt lat="43.943558" lon="12.3571421"><ele>160.5</ele><time>2026-04-12T07:19:22.605Z</time></trkpt><trkpt lat="43.9433877" lon="12.3568807"><ele>161.0</ele><time>2026-04-12T07:19:23.605Z</time></trkpt><trkpt lat="43.9432077" lon="12.3566368"><ele>161.0</ele><time>2026-04-12T07:19:24.605Z</time></trkpt><trkpt lat="43.9430135" lon="12.3564153"><ele>161.0</ele><time>2026-04-12T07:19:25.605Z</time></trkpt><trkpt lat="43.942804" lon="12.356208"><ele>161.0</ele><time>2026-04-12T07:19:26.605Z</time></trkpt><trkpt lat="43.9425853" lon="12.35601"><ele>161.0</ele><time>2026-04-12T07:19:27.605Z</time></trkpt><trkpt lat="43.9423675" lon="12.3558163"><ele>161.0</ele><time>2026-04-12T07:19:28.605Z</time></trkpt><trkpt lat="43.9421535" lon="12.3556293"><ele>161.0</ele><time>2026-04-12T07:19:29.604Z</time></trkpt><trkpt lat="43.9419465" lon="12.3554383"><ele>161.0</ele><time>2026-04-12T07:19:30.604Z</time></trkpt><trkpt lat="43.9417379" lon="12.3552485"><ele>161.0</ele><time>2026-04-12T07:19:31.604Z</time></trkpt><trkpt lat="43.9415322" lon="12.3550602"><ele>161.0</ele><time>2026-04-12T07:19:32.605Z</time></trkpt><trkpt lat="43.9413262" lon="12.3548749"><ele>161.0</ele><time>2026-04-12T07:19:33.604Z</time></trkpt><trkpt lat="43.9411253" lon="12.3546949"><ele>161.0</ele><time>2026-04-12T07:19:34.605Z</time></trkpt><trkpt lat="43.9409333" lon="12.3545234"><ele>161.0</ele><time>2026-04-12T07:19:35.604Z</time></trkpt><trkpt lat="43.9407487" lon="12.3543598"><ele>161.0</ele><time>2026-04-12T07:19:36.604Z</time></trkpt><trkpt lat="43.9405703" lon="12.3541993"><ele>161.33333333333331</ele><time>2026-04-12T07:19:37.605Z</time></trkpt><trkpt lat="43.9403955" lon="12.3540395"><ele>161.66666666666666</ele><time>2026-04-12T07:19:38.604Z</time></trkpt><trkpt lat="43.9402251" lon="12.3538793"><ele>162.0</ele><time>2026-04-12T07:19:39.604Z</time></trkpt><trkpt lat="43.9400567" lon="12.3537215"><ele>163.33333333333334</ele><time>2026-04-12T07:19:40.605Z</time></trkpt><trkpt lat="43.9398866" lon="12.3535648"><ele>164.66666666666669</ele><time>2026-04-12T07:19:41.604Z</time></trkpt><trkpt lat="43.939721" lon="12.3533971"><ele>166.0</ele><time>2026-04-12T07:19:42.605Z</time></trkpt><trkpt lat="43.9395671" lon="12.3532214"><ele>166.0</ele><time>2026-04-12T07:19:43.606Z</time></trkpt><trkpt lat="43.9394259" lon="12.3530434"><ele>166.0</ele><time>2026-04-12T07:19:44.606Z</time></trkpt><trkpt lat="43.9392839" lon="12.3528622"><ele>166.0</ele><time>2026-04-12T07:19:45.606Z</time></trkpt><trkpt lat="43.9391432" lon="12.3526718"><ele>166.33333333333334</ele><time>2026-04-12T07:19:46.606Z</time></trkpt><trkpt lat="43.9390076" lon="12.3524739"><ele>166.66666666666666</ele><time>2026-04-12T07:19:47.606Z</time></trkpt><trkpt lat="43.9388762" lon="12.3522702"><ele>167.0</ele><time>2026-04-12T07:19:48.606Z</time></trkpt><trkpt lat="43.9387412" lon="12.352065"><ele>167.0</ele><time>2026-04-12T07:19:49.605Z</time></trkpt><trkpt lat="43.9386106" lon="12.3518719"><ele>167.0</ele><time>2026-04-12T07:19:50.606Z</time></trkpt><trkpt lat="43.9384866" lon="12.351686"><ele>167.0</ele><time>2026-04-12T07:19:51.606Z</time></trkpt><trkpt lat="43.93838" lon="12.3514996"><ele>170.0</ele><time>2026-04-12T07:19:52.606Z</time></trkpt><trkpt lat="43.9382881" lon="12.3513043"><ele>173.0</ele><time>2026-04-12T07:19:53.606Z</time></trkpt><trkpt lat="43.9382106" lon="12.3510911"><ele>176.0</ele><time>2026-04-12T07:19:54.606Z</time></trkpt><trkpt lat="43.9381739" lon="12.3508517"><ele>176.0</ele><time>2026-04-12T07:19:55.606Z</time></trkpt><trkpt lat="43.9381756" lon="12.3505897"><ele>176.0</ele><time>2026-04-12T07:19:56.605Z</time></trkpt><trkpt lat="43.9382087" lon="12.350308"><ele>176.0</ele><time>2026-04-12T07:19:57.605Z</time></trkpt><trkpt lat="43.9382481" lon="12.3500265"><ele>177.0</ele><time>2026-04-12T07:19:58.606Z</time></trkpt><trkpt lat="43.9382846" lon="12.3497513"><ele>178.0</ele><time>2026-04-12T07:19:59.606Z</time></trkpt><trkpt lat="43.9383141" lon="12.3494894"><ele>179.0</ele><time>2026-04-12T07:20:00.606Z</time></trkpt><trkpt lat="43.9383394" lon="12.3492361"><ele>180.0</ele><time>2026-04-12T07:20:01.605Z</time></trkpt><trkpt lat="43.9383452" lon="12.3489858"><ele>181.0</ele><time>2026-04-12T07:20:02.606Z</time></trkpt><trkpt lat="43.9383211" lon="12.3487303"><ele>182.0</ele><time>2026-04-12T07:20:03.606Z</time></trkpt><trkpt lat="43.9382671" lon="12.3484881"><ele>182.0</ele><time>2026-04-12T07:20:04.606Z</time></trkpt><trkpt lat="43.9381881" lon="12.3482745"><ele>182.0</ele><time>2026-04-12T07:20:05.606Z</time></trkpt><trkpt lat="43.9380832" lon="12.3480915"><ele>182.0</ele><time>2026-04-12T07:20:06.606Z</time></trkpt><trkpt lat="43.9379521" lon="12.3479236"><ele>182.66666666666666</ele><time>2026-04-12T07:20:07.606Z</time></trkpt><trkpt lat="43.9378034" lon="12.347769"><ele>183.33333333333334</ele><time>2026-04-12T07:20:08.606Z</time></trkpt><trkpt lat="43.9376431" lon="12.3476049"><ele>184.0</ele><time>2026-04-12T07:20:09.606Z</time></trkpt><trkpt lat="43.9374768" lon="12.3474422"><ele>184.0</ele><time>2026-04-12T07:20:10.606Z</time></trkpt><trkpt lat="43.9373081" lon="12.3472746"><ele>184.0</ele><time>2026-04-12T07:20:11.605Z</time></trkpt><trkpt lat="43.9371329" lon="12.3471194"><ele>184.0</ele><time>2026-04-12T07:20:12.605Z</time></trkpt><trkpt lat="43.9369542" lon="12.3469883"><ele>183.66666666666669</ele><time>2026-04-12T07:20:13.606Z</time></trkpt><trkpt lat="43.9367724" lon="12.3468804"><ele>183.33333333333334</ele><time>2026-04-12T07:20:14.605Z</time></trkpt><trkpt lat="43.9365911" lon="12.3467917"><ele>183.0</ele><time>2026-04-12T07:20:15.606Z</time></trkpt><trkpt lat="43.9364106" lon="12.3467075"><ele>183.0</ele><time>2026-04-12T07:20:16.605Z</time></trkpt><trkpt lat="43.9362329" lon="12.3466178"><ele>183.0</ele><time>2026-04-12T07:20:17.606Z</time></trkpt><trkpt lat="43.9360644" lon="12.3465299"><ele>183.0</ele><time>2026-04-12T07:20:18.606Z</time></trkpt><trkpt lat="43.9359034" lon="12.3464432"><ele>181.33333333333334</ele><time>2026-04-12T07:20:19.606Z</time></trkpt><trkpt lat="43.935743" lon="12.3463572"><ele>179.66666666666669</ele><time>2026-04-12T07:20:20.606Z</time></trkpt><trkpt lat="43.9355945" lon="12.3462725"><ele>178.0</ele><time>2026-04-12T07:20:21.606Z</time></trkpt><trkpt lat="43.9354506" lon="12.3461936"><ele>178.0</ele><time>2026-04-12T07:20:22.606Z</time></trkpt><trkpt lat="43.9353115" lon="12.346101"><ele>178.0</ele><time>2026-04-12T07:20:23.606Z</time></trkpt><trkpt lat="43.9351879" lon="12.3459848"><ele>178.0</ele><time>2026-04-12T07:20:24.606Z</time></trkpt><trkpt lat="43.9350756" lon="12.3458431"><ele>179.33333333333334</ele><time>2026-04-12T07:20:25.606Z</time></trkpt><trkpt lat="43.9349806" lon="12.3456719"><ele>180.66666666666666</ele><time>2026-04-12T07:20:26.606Z</time></trkpt><trkpt lat="43.9348933" lon="12.3454891"><ele>182.0</ele><time>2026-04-12T07:20:27.605Z</time></trkpt><trkpt lat="43.9348173" lon="12.3453027"><ele>182.0</ele><time>2026-04-12T07:20:28.606Z</time></trkpt><trkpt lat="43.9347409" lon="12.3451144"><ele>182.0</ele><time>2026-04-12T07:20:29.605Z</time></trkpt><trkpt lat="43.9346597" lon="12.3449379"><ele>182.0</ele><time>2026-04-12T07:20:30.606Z</time></trkpt><trkpt lat="43.9345872" lon="12.34476"><ele>181.25</ele><time>2026-04-12T07:20:31.605Z</time></trkpt><trkpt lat="43.9345338" lon="12.3445718"><ele>180.5</ele><time>2026-04-12T07:20:32.606Z</time></trkpt><trkpt lat="43.9345159" lon="12.3443692"><ele>179.75</ele><time>2026-04-12T07:20:33.606Z</time></trkpt><trkpt lat="43.934524" lon="12.3441661"><ele>179.0</ele><time>2026-04-12T07:20:34.606Z</time></trkpt><trkpt lat="43.9345501" lon="12.3439697"><ele>179.0</ele><time>2026-04-12T07:20:35.605Z</time></trkpt><trkpt lat="43.9345924" lon="12.3437875"><ele>179.0</ele><time>2026-04-12T07:20:36.606Z</time></trkpt><trkpt lat="43.934647" lon="12.3436161"><ele>179.0</ele><time>2026-04-12T07:20:37.606Z</time></trkpt><trkpt lat="43.9347164" lon="12.3434657"><ele>179.0</ele><time>2026-04-12T07:20:38.606Z</time></trkpt><trkpt lat="43.9348019" lon="12.3433345"><ele>179.0</ele><time>2026-04-12T07:20:39.606Z</time></trkpt><trkpt lat="43.9349058" lon="12.3432295"><ele>179.0</ele><time>2026-04-12T07:20:40.605Z</time></trkpt><trkpt lat="43.9350358" lon="12.3431356"><ele>179.0</ele><time>2026-04-12T07:20:41.606Z</time></trkpt><trkpt lat="43.935179" lon="12.3430439"><ele>179.0</ele><time>2026-04-12T07:20:42.605Z</time></trkpt><trkpt lat="43.9353123" lon="12.3429551"><ele>179.75</ele><time>2026-04-12T07:20:43.606Z</time></trkpt><trkpt lat="43.9354433" lon="12.3428724"><ele>180.5</ele><time>2026-04-12T07:20:44.606Z</time></trkpt><trkpt lat="43.9355779" lon="12.342793"><ele>181.25</ele><time>2026-04-12T07:20:45.606Z</time></trkpt><trkpt lat="43.9357205" lon="12.3427121"><ele>182.0</ele><time>2026-04-12T07:20:46.605Z</time></trkpt><trkpt lat="43.9358557" lon="12.3426144"><ele>186.0</ele><time>2026-04-12T07:20:47.606Z</time></trkpt><trkpt lat="43.9359771" lon="12.3424838"><ele>190.0</ele><time>2026-04-12T07:20:48.605Z</time></trkpt><trkpt lat="43.936085" lon="12.3423211"><ele>194.0</ele><time>2026-04-12T07:20:49.606Z</time></trkpt><trkpt lat="43.9361714" lon="12.3421335"><ele>194.0</ele><time>2026-04-12T07:20:50.606Z</time></trkpt><trkpt lat="43.9362173" lon="12.3419128"><ele>194.0</ele><time>2026-04-12T07:20:51.606Z</time></trkpt><trkpt lat="43.9362245" lon="12.3416799"><ele>194.0</ele><time>2026-04-12T07:20:52.606Z</time></trkpt><trkpt lat="43.9361994" lon="12.3414587"><ele>194.5</ele><time>2026-04-12T07:20:53.606Z</time></trkpt><trkpt lat="43.936159" lon="12.3412536"><ele>195.0</ele><time>2026-04-12T07:20:54.606Z</time></trkpt><trkpt lat="43.9361149" lon="12.3410587"><ele>195.5</ele><time>2026-04-12T07:20:55.606Z</time></trkpt><trkpt lat="43.9360723" lon="12.3408704"><ele>196.0</ele><time>2026-04-12T07:20:56.606Z</time></trkpt><trkpt lat="43.936026" lon="12.3406754"><ele>194.0</ele><time>2026-04-12T07:20:57.605Z</time></trkpt><trkpt lat="43.9359808" lon="12.3404791"><ele>192.0</ele><time>2026-04-12T07:20:58.606Z</time></trkpt><trkpt lat="43.9359412" lon="12.3402817"><ele>190.0</ele><time>2026-04-12T07:20:59.606Z</time></trkpt><trkpt lat="43.9359007" lon="12.3400775"><ele>188.0</ele><time>2026-04-12T07:21:00.606Z</time></trkpt><trkpt lat="43.9358543" lon="12.3398692"><ele>187.33333333333331</ele><time>2026-04-12T07:21:01.606Z</time></trkpt><trkpt lat="43.9358129" lon="12.3396545"><ele>186.66666666666666</ele><time>2026-04-12T07:21:02.606Z</time></trkpt><trkpt lat="43.9357821" lon="12.3394318"><ele>186.0</ele><time>2026-04-12T07:21:03.606Z</time></trkpt><trkpt lat="43.9357712" lon="12.3391863"><ele>186.0</ele><time>2026-04-12T07:21:04.606Z</time></trkpt><trkpt lat="43.935779" lon="12.3389164"><ele>186.0</ele><time>2026-04-12T07:21:05.606Z</time></trkpt><trkpt lat="43.9357942" lon="12.3386492"><ele>186.0</ele><time>2026-04-12T07:21:06.605Z</time></trkpt><trkpt lat="43.9358079" lon="12.3383991"><ele>185.66666666666666</ele><time>2026-04-12T07:21:07.606Z</time></trkpt><trkpt lat="43.9358118" lon="12.338155"><ele>185.33333333333331</ele><time>2026-04-12T07:21:08.606Z</time></trkpt><trkpt lat="43.9357968" lon="12.3379022"><ele>185.0</ele><time>2026-04-12T07:21:09.606Z</time></trkpt><trkpt lat="43.9357515" lon="12.3376433"><ele>186.33333333333331</ele><time>2026-04-12T07:21:10.605Z</time></trkpt><trkpt lat="43.9356719" lon="12.3373873"><ele>187.66666666666666</ele><time>2026-04-12T07:21:11.605Z</time></trkpt><trkpt lat="43.935571" lon="12.3371585"><ele>189.0</ele><time>2026-04-12T07:21:12.606Z</time></trkpt><trkpt lat="43.9354531" lon="12.3369453"><ele>188.0</ele><time>2026-04-12T07:21:13.606Z</time></trkpt><trkpt lat="43.935316" lon="12.3367508"><ele>187.0</ele><time>2026-04-12T07:21:14.605Z</time></trkpt><trkpt lat="43.9351713" lon="12.336557"><ele>186.0</ele><time>2026-04-12T07:21:15.605Z</time></trkpt><trkpt lat="43.9350257" lon="12.3363577"><ele>186.0</ele><time>2026-04-12T07:21:16.606Z</time></trkpt><trkpt lat="43.9348843" lon="12.3361607"><ele>186.0</ele><time>2026-04-12T07:21:17.606Z</time></trkpt><trkpt lat="43.9347473" lon="12.3359668"><ele>186.0</ele><time>2026-04-12T07:21:18.606Z</time></trkpt><trkpt lat="43.9346091" lon="12.3357673"><ele>186.0</ele><time>2026-04-12T07:21:19.606Z</time></trkpt><trkpt lat="43.934469" lon="12.3355641"><ele>186.0</ele><time>2026-04-12T07:21:20.606Z</time></trkpt><trkpt lat="43.9343308" lon="12.3353643"><ele>186.0</ele><time>2026-04-12T07:21:21.605Z</time></trkpt><trkpt lat="43.9341977" lon="12.3351721"><ele>184.66666666666666</ele><time>2026-04-12T07:21:22.606Z</time></trkpt><trkpt lat="43.934063" lon="12.3349822"><ele>183.33333333333331</ele><time>2026-04-12T07:21:23.606Z</time></trkpt><trkpt lat="43.9339334" lon="12.3347939"><ele>182.0</ele><time>2026-04-12T07:21:24.606Z</time></trkpt><trkpt lat="43.933811" lon="12.3346049"><ele>182.0</ele><time>2026-04-12T07:21:25.606Z</time></trkpt><trkpt lat="43.9336872" lon="12.3344081"><ele>182.0</ele><time>2026-04-12T07:21:26.605Z</time></trkpt><trkpt lat="43.9335619" lon="12.3342068"><ele>182.0</ele><time>2026-04-12T07:21:27.605Z</time></trkpt><trkpt lat="43.933431" lon="12.3340054"><ele>183.33333333333331</ele><time>2026-04-12T07:21:28.606Z</time></trkpt><trkpt lat="43.9332962" lon="12.3338086"><ele>184.66666666666666</ele><time>2026-04-12T07:21:29.606Z</time></trkpt><trkpt lat="43.9331635" lon="12.3336098"><ele>186.0</ele><time>2026-04-12T07:21:30.606Z</time></trkpt><trkpt lat="43.9330282" lon="12.3334115"><ele>186.0</ele><time>2026-04-12T07:21:31.606Z</time></trkpt><trkpt lat="43.9328882" lon="12.3332118"><ele>186.0</ele><time>2026-04-12T07:21:32.606Z</time></trkpt><trkpt lat="43.932745" lon="12.3330252"><ele>186.0</ele><time>2026-04-12T07:21:33.606Z</time></trkpt><trkpt lat="43.9326052" lon="12.3328371"><ele>185.0</ele><time>2026-04-12T07:21:34.605Z</time></trkpt><trkpt lat="43.9324639" lon="12.3326476"><ele>184.0</ele><time>2026-04-12T07:21:35.605Z</time></trkpt><trkpt lat="43.9323261" lon="12.3324457"><ele>183.0</ele><time>2026-04-12T07:21:36.606Z</time></trkpt><trkpt lat="43.9321922" lon="12.3322408"><ele>183.0</ele><time>2026-04-12T07:21:37.606Z</time></trkpt><trkpt lat="43.9320561" lon="12.3320377"><ele>183.0</ele><time>2026-04-12T07:21:38.606Z</time></trkpt><trkpt lat="43.9319317" lon="12.3318328"><ele>183.0</ele><time>2026-04-12T07:21:39.606Z</time></trkpt><trkpt lat="43.9318239" lon="12.3316096"><ele>184.0</ele><time>2026-04-12T07:21:40.606Z</time></trkpt><trkpt lat="43.9317425" lon="12.3313607"><ele>185.0</ele><time>2026-04-12T07:21:41.606Z</time></trkpt><trkpt lat="43.931684" lon="12.3310897"><ele>186.0</ele><time>2026-04-12T07:21:42.606Z</time></trkpt><trkpt lat="43.9316413" lon="12.3308129"><ele>188.0</ele><time>2026-04-12T07:21:43.606Z</time></trkpt><trkpt lat="43.9315982" lon="12.3305346"><ele>190.0</ele><time>2026-04-12T07:21:44.606Z</time></trkpt><trkpt lat="43.9315529" lon="12.3302627"><ele>192.0</ele><time>2026-04-12T07:21:45.605Z</time></trkpt><trkpt lat="43.9315052" lon="12.3300004"><ele>192.0</ele><time>2026-04-12T07:21:46.606Z</time></trkpt><trkpt lat="43.9314605" lon="12.3297363"><ele>192.0</ele><time>2026-04-12T07:21:47.606Z</time></trkpt><trkpt lat="43.9314153" lon="12.3294745"><ele>192.0</ele><time>2026-04-12T07:21:48.606Z</time></trkpt><trkpt lat="43.9313713" lon="12.329226"><ele>192.66666666666669</ele><time>2026-04-12T07:21:49.606Z</time></trkpt><trkpt lat="43.9313314" lon="12.328991"><ele>193.33333333333334</ele><time>2026-04-12T07:21:50.605Z</time></trkpt><trkpt lat="43.9312904" lon="12.3287535"><ele>194.0</ele><time>2026-04-12T07:21:51.606Z</time></trkpt><trkpt lat="43.9312536" lon="12.3285157"><ele>194.33333333333334</ele><time>2026-04-12T07:21:52.606Z</time></trkpt><trkpt lat="43.9312159" lon="12.3282854"><ele>194.66666666666669</ele><time>2026-04-12T07:21:53.605Z</time></trkpt><trkpt lat="43.931178" lon="12.3280548"><ele>195.0</ele><time>2026-04-12T07:21:54.605Z</time></trkpt><trkpt lat="43.9311381" lon="12.3278421"><ele>195.25</ele><time>2026-04-12T07:21:55.606Z</time></trkpt><trkpt lat="43.9311019" lon="12.3276463"><ele>195.5</ele><time>2026-04-12T07:21:56.605Z</time></trkpt><trkpt lat="43.9310721" lon="12.32746"><ele>195.75</ele><time>2026-04-12T07:21:57.606Z</time></trkpt><trkpt lat="43.93104" lon="12.3272713"><ele>196.0</ele><time>2026-04-12T07:21:58.605Z</time></trkpt><trkpt lat="43.9310072" lon="12.3270767"><ele>196.0</ele><time>2026-04-12T07:21:59.605Z</time></trkpt><trkpt lat="43.9309714" lon="12.3268984"><ele>196.0</ele><time>2026-04-12T07:22:00.605Z</time></trkpt><trkpt lat="43.9309295" lon="12.3267379"><ele>196.0</ele><time>2026-04-12T07:22:01.606Z</time></trkpt><trkpt lat="43.9308777" lon="12.3265833"><ele>196.0</ele><time>2026-04-12T07:22:02.606Z</time></trkpt><trkpt lat="43.9308134" lon="12.3264279"><ele>196.75</ele><time>2026-04-12T07:22:03.605Z</time></trkpt><trkpt lat="43.9307366" lon="12.3262714"><ele>197.5</ele><time>2026-04-12T07:22:04.605Z</time></trkpt><trkpt lat="43.9306511" lon="12.3261139"><ele>198.25</ele><time>2026-04-12T07:22:05.605Z</time></trkpt><trkpt lat="43.9305632" lon="12.3259504"><ele>199.0</ele><time>2026-04-12T07:22:06.606Z</time></trkpt><trkpt lat="43.9304767" lon="12.3257791"><ele>199.0</ele><time>2026-04-12T07:22:07.606Z</time></trkpt><trkpt lat="43.9303873" lon="12.3256003"><ele>199.0</ele><time>2026-04-12T07:22:08.606Z</time></trkpt><trkpt lat="43.9302987" lon="12.3254189"><ele>199.0</ele><time>2026-04-12T07:22:09.605Z</time></trkpt><trkpt lat="43.9302091" lon="12.3252462"><ele>198.66666666666666</ele><time>2026-04-12T07:22:10.606Z</time></trkpt><trkpt lat="43.9301154" lon="12.325078"><ele>198.33333333333331</ele><time>2026-04-12T07:22:11.606Z</time></trkpt><trkpt lat="43.9300137" lon="12.3249224"><ele>198.0</ele><time>2026-04-12T07:22:12.606Z</time></trkpt><trkpt lat="43.929911" lon="12.3247777"><ele>198.75</ele><time>2026-04-12T07:22:13.606Z</time></trkpt><trkpt lat="43.9298076" lon="12.3246444"><ele>199.5</ele><time>2026-04-12T07:22:14.606Z</time></trkpt><trkpt lat="43.9297106" lon="12.3245192"><ele>200.25</ele><time>2026-04-12T07:22:15.605Z</time></trkpt><trkpt lat="43.9296154" lon="12.3244013"><ele>201.0</ele><time>2026-04-12T07:22:16.605Z</time></trkpt><trkpt lat="43.9295207" lon="12.3242802"><ele>201.0</ele><time>2026-04-12T07:22:17.605Z</time></trkpt><trkpt lat="43.9294271" lon="12.324167"><ele>201.0</ele><time>2026-04-12T07:22:18.606Z</time></trkpt><trkpt lat="43.9293391" lon="12.3240607"><ele>201.0</ele><time>2026-04-12T07:22:19.606Z</time></trkpt><trkpt lat="43.9292599" lon="12.3239624"><ele>201.0</ele><time>2026-04-12T07:22:20.606Z</time></trkpt><trkpt lat="43.9291806" lon="12.3238729"><ele>201.0</ele><time>2026-04-12T07:22:21.606Z</time></trkpt><trkpt lat="43.9290975" lon="12.3237854"><ele>201.4</ele><time>2026-04-12T07:22:22.606Z</time></trkpt><trkpt lat="43.9290154" lon="12.3236923"><ele>201.8</ele><time>2026-04-12T07:22:23.606Z</time></trkpt><trkpt lat="43.9289355" lon="12.3235952"><ele>202.20000000000002</ele><time>2026-04-12T07:22:24.605Z</time></trkpt><trkpt lat="43.9288656" lon="12.3234986"><ele>202.60000000000002</ele><time>2026-04-12T07:22:25.605Z</time></trkpt><trkpt lat="43.9288045" lon="12.3233887"><ele>203.0</ele><time>2026-04-12T07:22:26.606Z</time></trkpt><trkpt lat="43.9287548" lon="12.3232719"><ele>203.00000000000003</ele><time>2026-04-12T07:22:27.606Z</time></trkpt><trkpt lat="43.9287106" lon="12.3231655"><ele>203.0</ele><time>2026-04-12T07:22:28.606Z</time></trkpt><trkpt lat="43.9286602" lon="12.3230761"><ele>203.0</ele><time>2026-04-12T07:22:29.606Z</time></trkpt><trkpt lat="43.928596" lon="12.3230223"><ele>203.0</ele><time>2026-04-12T07:22:30.605Z</time></trkpt><trkpt lat="43.9285182" lon="12.322985"><ele>203.00000000000003</ele><time>2026-04-12T07:22:31.606Z</time></trkpt><trkpt lat="43.9284339" lon="12.3229341"><ele>203.0</ele><time>2026-04-12T07:22:32.606Z</time></trkpt><trkpt lat="43.9283466" lon="12.322861"><ele>202.75</ele><time>2026-04-12T07:22:33.606Z</time></trkpt><trkpt lat="43.9282571" lon="12.3227717"><ele>202.5</ele><time>2026-04-12T07:22:34.605Z</time></trkpt><trkpt lat="43.928167" lon="12.3226623"><ele>202.25</ele><time>2026-04-12T07:22:35.606Z</time></trkpt><trkpt lat="43.9280758" lon="12.3225496"><ele>202.0</ele><time>2026-04-12T07:22:36.606Z</time></trkpt><trkpt lat="43.9279836" lon="12.3224394"><ele>202.0</ele><time>2026-04-12T07:22:37.605Z</time></trkpt><trkpt lat="43.9278913" lon="12.3223233"><ele>202.0</ele><time>2026-04-12T07:22:38.606Z</time></trkpt><trkpt lat="43.9277935" lon="12.3222056"><ele>202.0</ele><time>2026-04-12T07:22:39.606Z</time></trkpt><trkpt lat="43.9276962" lon="12.3220877"><ele>202.0</ele><time>2026-04-12T07:22:40.606Z</time></trkpt><trkpt lat="43.9276056" lon="12.3219681"><ele>203.0</ele><time>2026-04-12T07:22:41.606Z</time></trkpt><trkpt lat="43.9275226" lon="12.3218451"><ele>204.0</ele><time>2026-04-12T07:22:42.605Z</time></trkpt><trkpt lat="43.9274403" lon="12.3217183"><ele>205.0</ele><time>2026-04-12T07:22:43.606Z</time></trkpt><trkpt lat="43.9273576" lon="12.321578"><ele>206.0</ele><time>2026-04-12T07:22:44.606Z</time></trkpt><trkpt lat="43.9272743" lon="12.3214301"><ele>206.5</ele><time>2026-04-12T07:22:45.605Z</time></trkpt><trkpt lat="43.9271912" lon="12.3212878"><ele>207.0</ele><time>2026-04-12T07:22:46.606Z</time></trkpt><trkpt lat="43.9271032" lon="12.3211454"><ele>207.5</ele><time>2026-04-12T07:22:47.606Z</time></trkpt><trkpt lat="43.9270154" lon="12.3210031"><ele>208.0</ele><time>2026-04-12T07:22:48.605Z</time></trkpt><trkpt lat="43.9269341" lon="12.3208544"><ele>208.0</ele><time>2026-04-12T07:22:49.606Z</time></trkpt><trkpt lat="43.9268512" lon="12.3207081"><ele>208.0</ele><time>2026-04-12T07:22:50.606Z</time></trkpt><trkpt lat="43.9267692" lon="12.3205696"><ele>208.0</ele><time>2026-04-12T07:22:51.606Z</time></trkpt><trkpt lat="43.9266932" lon="12.3204343"><ele>208.0</ele><time>2026-04-12T07:22:52.606Z</time></trkpt><trkpt lat="43.9266156" lon="12.3202946"><ele>208.75</ele><time>2026-04-12T07:22:53.605Z</time></trkpt><trkpt lat="43.9265373" lon="12.3201544"><ele>209.5</ele><time>2026-04-12T07:22:54.605Z</time></trkpt><trkpt lat="43.9264592" lon="12.3200135"><ele>210.25</ele><time>2026-04-12T07:22:55.606Z</time></trkpt><trkpt lat="43.926383" lon="12.319873"><ele>211.0</ele><time>2026-04-12T07:22:56.606Z</time></trkpt><trkpt lat="43.9263073" lon="12.3197401"><ele>212.25</ele><time>2026-04-12T07:22:57.605Z</time></trkpt><trkpt lat="43.9262301" lon="12.3196029"><ele>213.5</ele><time>2026-04-12T07:22:58.606Z</time></trkpt><trkpt lat="43.9261457" lon="12.3194557"><ele>214.75</ele><time>2026-04-12T07:22:59.605Z</time></trkpt><trkpt lat="43.9260555" lon="12.3193063"><ele>216.0</ele><time>2026-04-12T07:23:00.606Z</time></trkpt><trkpt lat="43.9259642" lon="12.3191514"><ele>215.0</ele><time>2026-04-12T07:23:01.606Z</time></trkpt><trkpt lat="43.925873" lon="12.3189945"><ele>214.0</ele><time>2026-04-12T07:23:02.606Z</time></trkpt><trkpt lat="43.9257829" lon="12.3188351"><ele>213.0</ele><time>2026-04-12T07:23:03.606Z</time></trkpt><trkpt lat="43.925695" lon="12.3186791"><ele>212.0</ele><time>2026-04-12T07:23:04.605Z</time></trkpt><trkpt lat="43.9256078" lon="12.3185328"><ele>212.0</ele><time>2026-04-12T07:23:05.606Z</time></trkpt><trkpt lat="43.9255232" lon="12.318396"><ele>212.0</ele><time>2026-04-12T07:23:06.606Z</time></trkpt><trkpt lat="43.92543" lon="12.318276"><ele>212.0</ele><time>2026-04-12T07:23:07.605Z</time></trkpt><trkpt lat="43.9253227" lon="12.3181673"><ele>212.0</ele><time>2026-04-12T07:23:08.606Z</time></trkpt><trkpt lat="43.9251951" lon="12.3180937"><ele>212.25</ele><time>2026-04-12T07:23:09.606Z</time></trkpt><trkpt lat="43.9250667" lon="12.3180354"><ele>212.5</ele><time>2026-04-12T07:23:10.606Z</time></trkpt><trkpt lat="43.9249416" lon="12.3179809"><ele>212.75</ele><time>2026-04-12T07:23:11.606Z</time></trkpt><trkpt lat="43.9248253" lon="12.317923"><ele>213.0</ele><time>2026-04-12T07:23:12.606Z</time></trkpt><trkpt lat="43.924715" lon="12.3178682"><ele>213.5</ele><time>2026-04-12T07:23:13.606Z</time></trkpt><trkpt lat="43.9246123" lon="12.3178076"><ele>214.0</ele><time>2026-04-12T07:23:14.606Z</time></trkpt><trkpt lat="43.9245116" lon="12.3177409"><ele>214.5</ele><time>2026-04-12T07:23:15.605Z</time></trkpt><trkpt lat="43.9244095" lon="12.317669"><ele>215.0</ele><time>2026-04-12T07:23:16.606Z</time></trkpt><trkpt lat="43.9243094" lon="12.3175765"><ele>214.5</ele><time>2026-04-12T07:23:17.606Z</time></trkpt><trkpt lat="43.9242096" lon="12.3174671"><ele>214.0</ele><time>2026-04-12T07:23:18.606Z</time></trkpt><trkpt lat="43.9241087" lon="12.3173507"><ele>213.5</ele><time>2026-04-12T07:23:19.605Z</time></trkpt><trkpt lat="43.923996" lon="12.3172142"><ele>213.0</ele><time>2026-04-12T07:23:20.606Z</time></trkpt><trkpt lat="43.9238674" lon="12.3170534"><ele>213.0</ele><time>2026-04-12T07:23:21.605Z</time></trkpt><trkpt lat="43.923738" lon="12.3168841"><ele>213.0</ele><time>2026-04-12T07:23:22.606Z</time></trkpt><trkpt lat="43.9236206" lon="12.3167234"><ele>213.0</ele><time>2026-04-12T07:23:23.605Z</time></trkpt><trkpt lat="43.9235225" lon="12.316569"><ele>213.0</ele><time>2026-04-12T07:23:24.606Z</time></trkpt><trkpt lat="43.9234281" lon="12.3164391"><ele>213.0</ele><time>2026-04-12T07:23:25.605Z</time></trkpt><trkpt lat="43.9233423" lon="12.3163181"><ele>213.0</ele><time>2026-04-12T07:23:26.606Z</time></trkpt><trkpt lat="43.9232671" lon="12.3161921"><ele>213.0</ele><time>2026-04-12T07:23:27.606Z</time></trkpt><trkpt lat="43.9231967" lon="12.3160467"><ele>214.33333333333331</ele><time>2026-04-12T07:23:28.605Z</time></trkpt><trkpt lat="43.9231301" lon="12.3158684"><ele>215.66666666666666</ele><time>2026-04-12T07:23:29.606Z</time></trkpt><trkpt lat="43.9230665" lon="12.3156421"><ele>217.0</ele><time>2026-04-12T07:23:30.606Z</time></trkpt><trkpt lat="43.9229963" lon="12.3153933"><ele>217.0</ele><time>2026-04-12T07:23:31.606Z</time></trkpt><trkpt lat="43.9229171" lon="12.3151426"><ele>217.0</ele><time>2026-04-12T07:23:32.606Z</time></trkpt><trkpt lat="43.9228239" lon="12.3149156"><ele>217.0</ele><time>2026-04-12T07:23:33.606Z</time></trkpt><trkpt lat="43.9227195" lon="12.3147085"><ele>217.66666666666666</ele><time>2026-04-12T07:23:34.606Z</time></trkpt><trkpt lat="43.9226032" lon="12.3145173"><ele>218.33333333333331</ele><time>2026-04-12T07:23:35.606Z</time></trkpt><trkpt lat="43.9224839" lon="12.3143344"><ele>219.0</ele><time>2026-04-12T07:23:36.605Z</time></trkpt><trkpt lat="43.9223617" lon="12.3141449"><ele>217.0</ele><time>2026-04-12T07:23:37.605Z</time></trkpt><trkpt lat="43.9222409" lon="12.3139489"><ele>215.0</ele><time>2026-04-12T07:23:38.606Z</time></trkpt><trkpt lat="43.9221184" lon="12.3137465"><ele>213.0</ele><time>2026-04-12T07:23:39.606Z</time></trkpt><trkpt lat="43.9219945" lon="12.3135469"><ele>213.0</ele><time>2026-04-12T07:23:40.605Z</time></trkpt><trkpt lat="43.9218701" lon="12.3133464"><ele>213.0</ele><time>2026-04-12T07:23:41.606Z</time></trkpt><trkpt lat="43.9217368" lon="12.3131579"><ele>213.0</ele><time>2026-04-12T07:23:42.605Z</time></trkpt><trkpt lat="43.9215816" lon="12.3129927"><ele>211.33333333333331</ele><time>2026-04-12T07:23:43.605Z</time></trkpt><trkpt lat="43.9214151" lon="12.3128412"><ele>209.66666666666666</ele><time>2026-04-12T07:23:44.606Z</time></trkpt><trkpt lat="43.9212519" lon="12.3126969"><ele>208.0</ele><time>2026-04-12T07:23:45.605Z</time></trkpt><trkpt lat="43.921091" lon="12.3125517"><ele>208.0</ele><time>2026-04-12T07:23:46.606Z</time></trkpt><trkpt lat="43.9209363" lon="12.3123974"><ele>208.0</ele><time>2026-04-12T07:23:47.606Z</time></trkpt><trkpt lat="43.9207845" lon="12.312248"><ele>208.0</ele><time>2026-04-12T07:23:48.605Z</time></trkpt><trkpt lat="43.9206376" lon="12.3121073"><ele>211.0</ele><time>2026-04-12T07:23:49.606Z</time></trkpt><trkpt lat="43.9204954" lon="12.3119831"><ele>214.0</ele><time>2026-04-12T07:23:50.606Z</time></trkpt><trkpt lat="43.9203616" lon="12.3118606"><ele>217.0</ele><time>2026-04-12T07:23:51.606Z</time></trkpt><trkpt lat="43.9202306" lon="12.3117341"><ele>217.0</ele><time>2026-04-12T07:23:52.606Z</time></trkpt><trkpt lat="43.9201033" lon="12.3115942"><ele>217.0</ele><time>2026-04-12T07:23:53.605Z</time></trkpt><trkpt lat="43.9199946" lon="12.3114144"><ele>217.0</ele><time>2026-04-12T07:23:54.605Z</time></trkpt><trkpt lat="43.9199035" lon="12.3111897"><ele>217.33333333333331</ele><time>2026-04-12T07:23:55.606Z</time></trkpt><trkpt lat="43.9198146" lon="12.3109461"><ele>217.66666666666669</ele><time>2026-04-12T07:23:56.606Z</time></trkpt><trkpt lat="43.9197188" lon="12.3107021"><ele>218.0</ele><time>2026-04-12T07:23:57.605Z</time></trkpt><trkpt lat="43.9195968" lon="12.3104658"><ele>219.0</ele><time>2026-04-12T07:23:58.605Z</time></trkpt><trkpt lat="43.9194628" lon="12.3102433"><ele>220.0</ele><time>2026-04-12T07:23:59.606Z</time></trkpt><trkpt lat="43.9193237" lon="12.31004"><ele>221.0</ele><time>2026-04-12T07:24:00.606Z</time></trkpt><trkpt lat="43.9191812" lon="12.3098436"><ele>222.0</ele><time>2026-04-12T07:24:01.606Z</time></trkpt><trkpt lat="43.9190354" lon="12.3096473"><ele>223.0</ele><time>2026-04-12T07:24:02.606Z</time></trkpt><trkpt lat="43.9188898" lon="12.3094476"><ele>224.0</ele><time>2026-04-12T07:24:03.606Z</time></trkpt><trkpt lat="43.9187538" lon="12.3092454"><ele>224.0</ele><time>2026-04-12T07:24:04.605Z</time></trkpt><trkpt lat="43.9186187" lon="12.3090531"><ele>224.0</ele><time>2026-04-12T07:24:05.605Z</time></trkpt><trkpt lat="43.918481" lon="12.3088518"><ele>224.0</ele><time>2026-04-12T07:24:06.606Z</time></trkpt><trkpt lat="43.9183401" lon="12.3086552"><ele>224.66666666666669</ele><time>2026-04-12T07:24:07.606Z</time></trkpt><trkpt lat="43.9181999" lon="12.3084657"><ele>225.33333333333331</ele><time>2026-04-12T07:24:08.606Z</time></trkpt><trkpt lat="43.9180723" lon="12.3082905"><ele>226.0</ele><time>2026-04-12T07:24:09.606Z</time></trkpt><trkpt lat="43.9179549" lon="12.3081225"><ele>226.25</ele><time>2026-04-12T07:24:10.605Z</time></trkpt><trkpt lat="43.9178463" lon="12.3079672"><ele>226.5</ele><time>2026-04-12T07:24:11.606Z</time></trkpt><trkpt lat="43.9177425" lon="12.3078292"><ele>226.75</ele><time>2026-04-12T07:24:12.606Z</time></trkpt><trkpt lat="43.917645" lon="12.3076965"><ele>227.0</ele><time>2026-04-12T07:24:13.606Z</time></trkpt><trkpt lat="43.9175549" lon="12.3075701"><ele>227.0</ele><time>2026-04-12T07:24:14.606Z</time></trkpt><trkpt lat="43.9174697" lon="12.3074476"><ele>227.0</ele><time>2026-04-12T07:24:15.606Z</time></trkpt><trkpt lat="43.9173817" lon="12.307332"><ele>227.0</ele><time>2026-04-12T07:24:16.607Z</time></trkpt><trkpt lat="43.917299" lon="12.3072169"><ele>227.0</ele><time>2026-04-12T07:24:17.606Z</time></trkpt><trkpt lat="43.9172215" lon="12.3071058"><ele>227.75</ele><time>2026-04-12T07:24:18.607Z</time></trkpt><trkpt lat="43.9171476" lon="12.3070051"><ele>228.5</ele><time>2026-04-12T07:24:19.606Z</time></trkpt><trkpt lat="43.9170733" lon="12.3069037"><ele>229.25</ele><time>2026-04-12T07:24:20.606Z</time></trkpt><trkpt lat="43.9169895" lon="12.3067921"><ele>230.0</ele><time>2026-04-12T07:24:21.607Z</time></trkpt><trkpt lat="43.9168974" lon="12.3066633"><ele>230.0</ele><time>2026-04-12T07:24:22.607Z</time></trkpt><trkpt lat="43.9167905" lon="12.3065222"><ele>230.0</ele><time>2026-04-12T07:24:23.607Z</time></trkpt><trkpt lat="43.9166705" lon="12.3063816"><ele>230.0</ele><time>2026-04-12T07:24:24.607Z</time></trkpt><trkpt lat="43.9165264" lon="12.3062495"><ele>231.33333333333334</ele><time>2026-04-12T07:24:25.607Z</time></trkpt><trkpt lat="43.916355" lon="12.3061479"><ele>232.66666666666669</ele><time>2026-04-12T07:24:26.607Z</time></trkpt><trkpt lat="43.9161604" lon="12.3060679"><ele>234.0</ele><time>2026-04-12T07:24:27.607Z</time></trkpt><trkpt lat="43.9159549" lon="12.3060049"><ele>233.33333333333331</ele><time>2026-04-12T07:24:28.607Z</time></trkpt><trkpt lat="43.9157548" lon="12.3059415"><ele>232.66666666666666</ele><time>2026-04-12T07:24:29.606Z</time></trkpt><trkpt lat="43.9155606" lon="12.3058711"><ele>232.0</ele><time>2026-04-12T07:24:30.606Z</time></trkpt><trkpt lat="43.9153796" lon="12.3057899"><ele>232.0</ele><time>2026-04-12T07:24:31.607Z</time></trkpt><trkpt lat="43.9152084" lon="12.3057071"><ele>232.0</ele><time>2026-04-12T07:24:32.606Z</time></trkpt><trkpt lat="43.9150395" lon="12.305626"><ele>232.0</ele><time>2026-04-12T07:24:33.607Z</time></trkpt><trkpt lat="43.9148748" lon="12.3055411"><ele>232.0</ele><time>2026-04-12T07:24:34.607Z</time></trkpt><trkpt lat="43.9147091" lon="12.3054605"><ele>232.0</ele><time>2026-04-12T07:24:35.607Z</time></trkpt><trkpt lat="43.9145309" lon="12.3053726"><ele>232.0</ele><time>2026-04-12T07:24:36.607Z</time></trkpt><trkpt lat="43.914348" lon="12.3052744"><ele>231.66666666666666</ele><time>2026-04-12T07:24:37.607Z</time></trkpt><trkpt lat="43.9141697" lon="12.3051733"><ele>231.33333333333331</ele><time>2026-04-12T07:24:38.606Z</time></trkpt><trkpt lat="43.914005" lon="12.305077"><ele>231.0</ele><time>2026-04-12T07:24:39.607Z</time></trkpt><trkpt lat="43.913854" lon="12.3049926"><ele>231.0</ele><time>2026-04-12T07:24:40.607Z</time></trkpt><trkpt lat="43.913704" lon="12.304913"><ele>231.0</ele><time>2026-04-12T07:24:41.606Z</time></trkpt><trkpt lat="43.9135549" lon="12.3048363"><ele>231.0</ele><time>2026-04-12T07:24:42.607Z</time></trkpt><trkpt lat="43.9133989" lon="12.3047611"><ele>230.0</ele><time>2026-04-12T07:24:43.607Z</time></trkpt><trkpt lat="43.9132367" lon="12.3046814"><ele>229.0</ele><time>2026-04-12T07:24:44.606Z</time></trkpt><trkpt lat="43.9130789" lon="12.304589"><ele>228.0</ele><time>2026-04-12T07:24:45.607Z</time></trkpt><trkpt lat="43.9129327" lon="12.3044978"><ele>228.0</ele><time>2026-04-12T07:24:46.607Z</time></trkpt><trkpt lat="43.9127798" lon="12.3044241"><ele>228.0</ele><time>2026-04-12T07:24:47.606Z</time></trkpt><trkpt lat="43.9126093" lon="12.3043507"><ele>228.0</ele><time>2026-04-12T07:24:48.607Z</time></trkpt><trkpt lat="43.9124072" lon="12.304288"><ele>229.5</ele><time>2026-04-12T07:24:49.606Z</time></trkpt><trkpt lat="43.9121711" lon="12.3042382"><ele>231.0</ele><time>2026-04-12T07:24:50.606Z</time></trkpt><trkpt lat="43.9119204" lon="12.3041992"><ele>231.0</ele><time>2026-04-12T07:24:51.607Z</time></trkpt><trkpt lat="43.911681" lon="12.3041637"><ele>231.0</ele><time>2026-04-12T07:24:52.607Z</time></trkpt><trkpt lat="43.9114599" lon="12.3041275"><ele>231.0</ele><time>2026-04-12T07:24:53.607Z</time></trkpt><trkpt lat="43.9112545" lon="12.3040937"><ele>231.0</ele><time>2026-04-12T07:24:54.607Z</time></trkpt><trkpt lat="43.9110678" lon="12.3040465"><ele>231.0</ele><time>2026-04-12T07:24:55.607Z</time></trkpt><trkpt lat="43.9108945" lon="12.3039668"><ele>234.33333333333331</ele><time>2026-04-12T07:24:56.607Z</time></trkpt><trkpt lat="43.9107284" lon="12.3038459"><ele>237.66666666666666</ele><time>2026-04-12T07:24:57.606Z</time></trkpt><trkpt lat="43.9105635" lon="12.3036897"><ele>241.0</ele><time>2026-04-12T07:24:58.607Z</time></trkpt><trkpt lat="43.9104106" lon="12.3035089"><ele>241.0</ele><time>2026-04-12T07:24:59.606Z</time></trkpt><trkpt lat="43.9102796" lon="12.3033332"><ele>241.0</ele><time>2026-04-12T07:25:00.607Z</time></trkpt><trkpt lat="43.9101722" lon="12.3031868"><ele>241.0</ele><time>2026-04-12T07:25:01.607Z</time></trkpt><trkpt lat="43.910091" lon="12.3030528"><ele>242.0</ele><time>2026-04-12T07:25:02.607Z</time></trkpt><trkpt lat="43.9100514" lon="12.3029106"><ele>243.0</ele><time>2026-04-12T07:25:03.607Z</time></trkpt><trkpt lat="43.910051" lon="12.3027523"><ele>244.0</ele><time>2026-04-12T07:25:04.607Z</time></trkpt><trkpt lat="43.910095" lon="12.3025817"><ele>245.0</ele><time>2026-04-12T07:25:05.606Z</time></trkpt><trkpt lat="43.9101757" lon="12.3024027"><ele>246.66666666666669</ele><time>2026-04-12T07:25:06.607Z</time></trkpt><trkpt lat="43.9102479" lon="12.3021883"><ele>248.33333333333331</ele><time>2026-04-12T07:25:07.607Z</time></trkpt><trkpt lat="43.9103018" lon="12.3019223"><ele>250.0</ele><time>2026-04-12T07:25:08.607Z</time></trkpt><trkpt lat="43.9103434" lon="12.3016236"><ele>249.5</ele><time>2026-04-12T07:25:09.607Z</time></trkpt><trkpt lat="43.9104008" lon="12.3013025"><ele>249.0</ele><time>2026-04-12T07:25:10.606Z</time></trkpt><trkpt lat="43.9104661" lon="12.3009679"><ele>249.0</ele><time>2026-04-12T07:25:11.607Z</time></trkpt><trkpt lat="43.9105154" lon="12.300643"><ele>249.0</ele><time>2026-04-12T07:25:12.607Z</time></trkpt><trkpt lat="43.9105531" lon="12.3003329"><ele>248.0</ele><time>2026-04-12T07:25:13.607Z</time></trkpt><trkpt lat="43.910578" lon="12.3000358"><ele>247.0</ele><time>2026-04-12T07:25:14.606Z</time></trkpt><trkpt lat="43.9105889" lon="12.2997435"><ele>246.0</ele><time>2026-04-12T07:25:15.606Z</time></trkpt><trkpt lat="43.9105914" lon="12.2994679"><ele>246.0</ele><time>2026-04-12T07:25:16.607Z</time></trkpt><trkpt lat="43.9105837" lon="12.2992174"><ele>246.0</ele><time>2026-04-12T07:25:17.606Z</time></trkpt><trkpt lat="43.9105734" lon="12.2989911"><ele>246.0</ele><time>2026-04-12T07:25:18.606Z</time></trkpt><trkpt lat="43.9105395" lon="12.2987827"><ele>246.66666666666669</ele><time>2026-04-12T07:25:19.607Z</time></trkpt><trkpt lat="43.9104673" lon="12.2985987"><ele>247.33333333333334</ele><time>2026-04-12T07:25:20.606Z</time></trkpt><trkpt lat="43.9103506" lon="12.298448"><ele>248.0</ele><time>2026-04-12T07:25:21.607Z</time></trkpt><trkpt lat="43.9101893" lon="12.2983193"><ele>247.33333333333334</ele><time>2026-04-12T07:25:22.607Z</time></trkpt><trkpt lat="43.9100051" lon="12.2981915"><ele>246.66666666666669</ele><time>2026-04-12T07:25:23.607Z</time></trkpt><trkpt lat="43.909836" lon="12.2980561"><ele>246.0</ele><time>2026-04-12T07:25:24.606Z</time></trkpt><trkpt lat="43.9096853" lon="12.2979019"><ele>246.0</ele><time>2026-04-12T07:25:25.607Z</time></trkpt><trkpt lat="43.9095515" lon="12.2977261"><ele>246.0</ele><time>2026-04-12T07:25:26.606Z</time></trkpt><trkpt lat="43.9094264" lon="12.2975284"><ele>246.0</ele><time>2026-04-12T07:25:27.607Z</time></trkpt><trkpt lat="43.9093128" lon="12.2973283"><ele>244.33333333333331</ele><time>2026-04-12T07:25:28.606Z</time></trkpt><trkpt lat="43.909213" lon="12.2971349"><ele>242.66666666666666</ele><time>2026-04-12T07:25:29.607Z</time></trkpt><trkpt lat="43.9091266" lon="12.2969439"><ele>241.0</ele><time>2026-04-12T07:25:30.606Z</time></trkpt><trkpt lat="43.9090724" lon="12.2967532"><ele>241.0</ele><time>2026-04-12T07:25:31.607Z</time></trkpt><trkpt lat="43.9090449" lon="12.2965807"><ele>241.00000000000003</ele><time>2026-04-12T07:25:32.607Z</time></trkpt><trkpt lat="43.9090249" lon="12.2964407"><ele>241.00000000000003</ele><time>2026-04-12T07:25:33.606Z</time></trkpt><trkpt lat="43.9090011" lon="12.2963147"><ele>241.0</ele><time>2026-04-12T07:25:34.607Z</time></trkpt><trkpt lat="43.908964" lon="12.2961872"><ele>241.0</ele><time>2026-04-12T07:25:35.607Z</time></trkpt><trkpt lat="43.9089135" lon="12.2960443"><ele>241.25</ele><time>2026-04-12T07:25:36.607Z</time></trkpt><trkpt lat="43.9088554" lon="12.2958817"><ele>241.5</ele><time>2026-04-12T07:25:37.607Z</time></trkpt><trkpt lat="43.9087929" lon="12.2956923"><ele>241.75</ele><time>2026-04-12T07:25:38.607Z</time></trkpt><trkpt lat="43.9087242" lon="12.2954861"><ele>242.0</ele><time>2026-04-12T07:25:39.607Z</time></trkpt><trkpt lat="43.9086491" lon="12.2952723"><ele>242.66666666666669</ele><time>2026-04-12T07:25:40.607Z</time></trkpt><trkpt lat="43.908576" lon="12.2950622"><ele>243.33333333333331</ele><time>2026-04-12T07:25:41.607Z</time></trkpt><trkpt lat="43.9085164" lon="12.2948695"><ele>244.0</ele><time>2026-04-12T07:25:42.606Z</time></trkpt><trkpt lat="43.908464" lon="12.2946858"><ele>245.25</ele><time>2026-04-12T07:25:43.607Z</time></trkpt><trkpt lat="43.9084101" lon="12.2945197"><ele>246.5</ele><time>2026-04-12T07:25:44.606Z</time></trkpt><trkpt lat="43.9083498" lon="12.2943775"><ele>247.75</ele><time>2026-04-12T07:25:45.607Z</time></trkpt><trkpt lat="43.9082759" lon="12.2942639"><ele>249.0</ele><time>2026-04-12T07:25:46.607Z</time></trkpt><trkpt lat="43.908185" lon="12.2941787"><ele>246.5</ele><time>2026-04-12T07:25:47.607Z</time></trkpt><trkpt lat="43.9080691" lon="12.294118"><ele>244.0</ele><time>2026-04-12T07:25:48.606Z</time></trkpt><trkpt lat="43.9079426" lon="12.2940732"><ele>241.5</ele><time>2026-04-12T07:25:49.607Z</time></trkpt><trkpt lat="43.9078169" lon="12.2940415"><ele>239.0</ele><time>2026-04-12T07:25:50.606Z</time></trkpt><trkpt lat="43.9076938" lon="12.2940151"><ele>238.75</ele><time>2026-04-12T07:25:51.607Z</time></trkpt><trkpt lat="43.9075747" lon="12.2939875"><ele>238.5</ele><time>2026-04-12T07:25:52.607Z</time></trkpt><trkpt lat="43.9074556" lon="12.2939628"><ele>238.25</ele><time>2026-04-12T07:25:53.607Z</time></trkpt><trkpt lat="43.9073251" lon="12.2939319"><ele>238.0</ele><time>2026-04-12T07:25:54.607Z</time></trkpt><trkpt lat="43.9071748" lon="12.2938943"><ele>238.0</ele><time>2026-04-12T07:25:55.607Z</time></trkpt><trkpt lat="43.9070116" lon="12.2938523"><ele>238.0</ele><time>2026-04-12T07:25:56.607Z</time></trkpt><trkpt lat="43.9068359" lon="12.2938049"><ele>238.0</ele><time>2026-04-12T07:25:57.606Z</time></trkpt><trkpt lat="43.906651" lon="12.2937606"><ele>239.0</ele><time>2026-04-12T07:25:58.606Z</time></trkpt><trkpt lat="43.9064553" lon="12.2937231"><ele>240.0</ele><time>2026-04-12T07:25:59.607Z</time></trkpt><trkpt lat="43.906259" lon="12.2936781"><ele>241.0</ele><time>2026-04-12T07:26:00.606Z</time></trkpt><trkpt lat="43.9060752" lon="12.2936347"><ele>241.33333333333331</ele><time>2026-04-12T07:26:01.606Z</time></trkpt><trkpt lat="43.9059001" lon="12.2936034"><ele>241.66666666666669</ele><time>2026-04-12T07:26:02.607Z</time></trkpt><trkpt lat="43.9057309" lon="12.2935735"><ele>242.0</ele><time>2026-04-12T07:26:03.607Z</time></trkpt><trkpt lat="43.9055587" lon="12.2935321"><ele>242.0</ele><time>2026-04-12T07:26:04.607Z</time></trkpt><trkpt lat="43.9053812" lon="12.2934798"><ele>242.0</ele><time>2026-04-12T07:26:05.607Z</time></trkpt><trkpt lat="43.9051953" lon="12.2934244"><ele>242.0</ele><time>2026-04-12T07:26:06.607Z</time></trkpt><trkpt lat="43.9050122" lon="12.2933642"><ele>241.33333333333334</ele><time>2026-04-12T07:26:07.606Z</time></trkpt><trkpt lat="43.9048403" lon="12.2933076"><ele>240.66666666666669</ele><time>2026-04-12T07:26:08.607Z</time></trkpt><trkpt lat="43.9046732" lon="12.2932779"><ele>240.0</ele><time>2026-04-12T07:26:09.606Z</time></trkpt><trkpt lat="43.9045016" lon="12.2932671"><ele>240.0</ele><time>2026-04-12T07:26:10.607Z</time></trkpt><trkpt lat="43.9043279" lon="12.2933154"><ele>240.0</ele><time>2026-04-12T07:26:11.606Z</time></trkpt><trkpt lat="43.9041479" lon="12.2934318"><ele>240.0</ele><time>2026-04-12T07:26:12.607Z</time></trkpt><trkpt lat="43.9039722" lon="12.2936081"><ele>239.0</ele><time>2026-04-12T07:26:13.606Z</time></trkpt><trkpt lat="43.9038182" lon="12.2938062"><ele>238.0</ele><time>2026-04-12T07:26:14.606Z</time></trkpt><trkpt lat="43.9036826" lon="12.2939884"><ele>237.0</ele><time>2026-04-12T07:26:15.607Z</time></trkpt><trkpt lat="43.9035666" lon="12.2941656"><ele>237.0</ele><time>2026-04-12T07:26:16.606Z</time></trkpt><trkpt lat="43.9034683" lon="12.2943459"><ele>237.0</ele><time>2026-04-12T07:26:17.607Z</time></trkpt><trkpt lat="43.903387" lon="12.2945253"><ele>237.0</ele><time>2026-04-12T07:26:18.607Z</time></trkpt><trkpt lat="43.9033117" lon="12.2946883"><ele>237.25</ele><time>2026-04-12T07:26:19.606Z</time></trkpt><trkpt lat="43.9032335" lon="12.2948327"><ele>237.5</ele><time>2026-04-12T07:26:20.606Z</time></trkpt><trkpt lat="43.9031412" lon="12.2949591"><ele>237.75</ele><time>2026-04-12T07:26:21.607Z</time></trkpt><trkpt lat="43.9030148" lon="12.2950439"><ele>238.0</ele><time>2026-04-12T07:26:22.607Z</time></trkpt><trkpt lat="43.9028632" lon="12.2950883"><ele>238.0</ele><time>2026-04-12T07:26:23.606Z</time></trkpt><trkpt lat="43.9026945" lon="12.2950976"><ele>238.0</ele><time>2026-04-12T07:26:24.607Z</time></trkpt><trkpt lat="43.9025107" lon="12.2950744"><ele>238.0</ele><time>2026-04-12T07:26:25.606Z</time></trkpt><trkpt lat="43.9023275" lon="12.2950292"><ele>238.66666666666666</ele><time>2026-04-12T07:26:26.607Z</time></trkpt><trkpt lat="43.9021587" lon="12.2949779"><ele>239.33333333333331</ele><time>2026-04-12T07:26:27.606Z</time></trkpt><trkpt lat="43.9019893" lon="12.2949303"><ele>240.0</ele><time>2026-04-12T07:26:28.607Z</time></trkpt><trkpt lat="43.9018166" lon="12.2948793"><ele>239.33333333333331</ele><time>2026-04-12T07:26:29.606Z</time></trkpt><trkpt lat="43.9016427" lon="12.2948003"><ele>238.66666666666666</ele><time>2026-04-12T07:26:30.607Z</time></trkpt><trkpt lat="43.9014663" lon="12.2946734"><ele>238.0</ele><time>2026-04-12T07:26:31.607Z</time></trkpt><trkpt lat="43.9013055" lon="12.2945187"><ele>240.33333333333331</ele><time>2026-04-12T07:26:32.607Z</time></trkpt><trkpt lat="43.9011441" lon="12.2943488"><ele>242.66666666666669</ele><time>2026-04-12T07:26:33.607Z</time></trkpt><trkpt lat="43.9009722" lon="12.2941716"><ele>245.0</ele><time>2026-04-12T07:26:34.607Z</time></trkpt><trkpt lat="43.9007986" lon="12.293974"><ele>247.33333333333334</ele><time>2026-04-12T07:26:35.607Z</time></trkpt><trkpt lat="43.9006359" lon="12.2937777"><ele>249.66666666666669</ele><time>2026-04-12T07:26:36.607Z</time></trkpt><trkpt lat="43.9004886" lon="12.2935903"><ele>252.0</ele><time>2026-04-12T07:26:37.607Z</time></trkpt><trkpt lat="43.9003771" lon="12.2934031"><ele>252.0</ele><time>2026-04-12T07:26:38.607Z</time></trkpt><trkpt lat="43.9003014" lon="12.2932076"><ele>252.0</ele><time>2026-04-12T07:26:39.607Z</time></trkpt><trkpt lat="43.9002595" lon="12.2930027"><ele>252.0</ele><time>2026-04-12T07:26:40.607Z</time></trkpt><trkpt lat="43.9002428" lon="12.2927911"><ele>253.33333333333331</ele><time>2026-04-12T07:26:41.606Z</time></trkpt><trkpt lat="43.9002317" lon="12.29257"><ele>254.66666666666666</ele><time>2026-04-12T07:26:42.607Z</time></trkpt><trkpt lat="43.9002201" lon="12.2923427"><ele>256.0</ele><time>2026-04-12T07:26:43.607Z</time></trkpt><trkpt lat="43.9002008" lon="12.2921138"><ele>257.3333333333333</ele><time>2026-04-12T07:26:44.606Z</time></trkpt><trkpt lat="43.9001933" lon="12.2918937"><ele>258.6666666666667</ele><time>2026-04-12T07:26:45.607Z</time></trkpt><trkpt lat="43.900189" lon="12.2916813"><ele>260.0</ele><time>2026-04-12T07:26:46.606Z</time></trkpt><trkpt lat="43.9001819" lon="12.2914684"><ele>259.6666666666667</ele><time>2026-04-12T07:26:47.606Z</time></trkpt><trkpt lat="43.9001507" lon="12.2912608"><ele>259.3333333333333</ele><time>2026-04-12T07:26:48.607Z</time></trkpt><trkpt lat="43.9000815" lon="12.2910583"><ele>259.0</ele><time>2026-04-12T07:26:49.606Z</time></trkpt><trkpt lat="43.8999897" lon="12.2908618"><ele>259.0</ele><time>2026-04-12T07:26:50.606Z</time></trkpt><trkpt lat="43.8998906" lon="12.2906746"><ele>259.0</ele><time>2026-04-12T07:26:51.607Z</time></trkpt><trkpt lat="43.8997809" lon="12.2904911"><ele>259.0</ele><time>2026-04-12T07:26:52.606Z</time></trkpt><trkpt lat="43.899676" lon="12.2903138"><ele>260.66666666666663</ele><time>2026-04-12T07:26:53.607Z</time></trkpt><trkpt lat="43.8995747" lon="12.2901336"><ele>262.3333333333333</ele><time>2026-04-12T07:26:54.607Z</time></trkpt><trkpt lat="43.8994722" lon="12.2899579"><ele>264.0</ele><time>2026-04-12T07:26:55.606Z</time></trkpt><trkpt lat="43.8993747" lon="12.2897914"><ele>263.75</ele><time>2026-04-12T07:26:56.607Z</time></trkpt><trkpt lat="43.8992834" lon="12.2896313"><ele>263.5</ele><time>2026-04-12T07:26:57.606Z</time></trkpt><trkpt lat="43.8991907" lon="12.2894743"><ele>263.25</ele><time>2026-04-12T07:26:58.607Z</time></trkpt><trkpt lat="43.8990901" lon="12.2893317"><ele>263.0</ele><time>2026-04-12T07:26:59.607Z</time></trkpt><trkpt lat="43.8989758" lon="12.2891995"><ele>263.0</ele><time>2026-04-12T07:27:00.607Z</time></trkpt><trkpt lat="43.8988466" lon="12.289085"><ele>263.0</ele><time>2026-04-12T07:27:01.607Z</time></trkpt><trkpt lat="43.8987164" lon="12.2889966"><ele>263.0</ele><time>2026-04-12T07:27:02.607Z</time></trkpt><trkpt lat="43.8985817" lon="12.2889314"><ele>263.0</ele><time>2026-04-12T07:27:03.607Z</time></trkpt><trkpt lat="43.8984485" lon="12.2888818"><ele>265.75</ele><time>2026-04-12T07:27:04.607Z</time></trkpt><trkpt lat="43.8983186" lon="12.2888542"><ele>268.5</ele><time>2026-04-12T07:27:05.607Z</time></trkpt><trkpt lat="43.8981933" lon="12.2888493"><ele>271.25</ele><time>2026-04-12T07:27:06.607Z</time></trkpt><trkpt lat="43.8980828" lon="12.2888512"><ele>274.0</ele><time>2026-04-12T07:27:07.606Z</time></trkpt><trkpt lat="43.8979923" lon="12.288856"><ele>274.0</ele><time>2026-04-12T07:27:08.606Z</time></trkpt><trkpt lat="43.8979103" lon="12.2888687"><ele>274.0</ele><time>2026-04-12T07:27:09.607Z</time></trkpt><trkpt lat="43.8978301" lon="12.2888983"><ele>274.0</ele><time>2026-04-12T07:27:10.607Z</time></trkpt><trkpt lat="43.8977576" lon="12.2889481"><ele>274.0</ele><time>2026-04-12T07:27:11.607Z</time></trkpt><trkpt lat="43.8976875" lon="12.2889996"><ele>274.0</ele><time>2026-04-12T07:27:12.607Z</time></trkpt><trkpt lat="43.8975956" lon="12.2890118"><ele>274.0</ele><time>2026-04-12T07:27:13.606Z</time></trkpt><trkpt lat="43.8974914" lon="12.2889532"><ele>275.3333333333333</ele><time>2026-04-12T07:27:14.607Z</time></trkpt><trkpt lat="43.8973694" lon="12.2888641"><ele>276.6666666666667</ele><time>2026-04-12T07:27:15.607Z</time></trkpt><trkpt lat="43.8972372" lon="12.2887502"><ele>278.0</ele><time>2026-04-12T07:27:16.606Z</time></trkpt><trkpt lat="43.8970922" lon="12.2886176"><ele>278.0</ele><time>2026-04-12T07:27:17.607Z</time></trkpt><trkpt lat="43.896932" lon="12.2884806"><ele>278.0</ele><time>2026-04-12T07:27:18.607Z</time></trkpt><trkpt lat="43.8967711" lon="12.2883309"><ele>278.0</ele><time>2026-04-12T07:27:19.606Z</time></trkpt><trkpt lat="43.8966122" lon="12.2881935"><ele>279.0</ele><time>2026-04-12T07:27:20.607Z</time></trkpt><trkpt lat="43.8964626" lon="12.2880582"><ele>280.0</ele><time>2026-04-12T07:27:21.606Z</time></trkpt><trkpt lat="43.8963207" lon="12.2879367"><ele>281.0</ele><time>2026-04-12T07:27:22.606Z</time></trkpt><trkpt lat="43.8961899" lon="12.2878171"><ele>281.0</ele><time>2026-04-12T07:27:23.607Z</time></trkpt><trkpt lat="43.8960744" lon="12.2877044"><ele>281.0</ele><time>2026-04-12T07:27:24.607Z</time></trkpt><trkpt lat="43.8959722" lon="12.2876151"><ele>281.0</ele><time>2026-04-12T07:27:25.606Z</time></trkpt><trkpt lat="43.8958733" lon="12.2875516"><ele>281.0</ele><time>2026-04-12T07:27:26.606Z</time></trkpt><trkpt lat="43.8957733" lon="12.287517"><ele>281.25</ele><time>2026-04-12T07:27:27.607Z</time></trkpt><trkpt lat="43.8956613" lon="12.2875382"><ele>281.5</ele><time>2026-04-12T07:27:28.606Z</time></trkpt><trkpt lat="43.8955451" lon="12.2876255"><ele>281.75</ele><time>2026-04-12T07:27:29.607Z</time></trkpt><trkpt lat="43.8954233" lon="12.2877573"><ele>282.0</ele><time>2026-04-12T07:27:30.606Z</time></trkpt><trkpt lat="43.8953139" lon="12.2878961"><ele>282.0</ele><time>2026-04-12T07:27:31.607Z</time></trkpt><trkpt lat="43.8952266" lon="12.2880247"><ele>282.0</ele><time>2026-04-12T07:27:32.607Z</time></trkpt><trkpt lat="43.8951548" lon="12.2881504"><ele>282.0</ele><time>2026-04-12T07:27:33.606Z</time></trkpt><trkpt lat="43.8950986" lon="12.2882823"><ele>282.0</ele><time>2026-04-12T07:27:34.606Z</time></trkpt><trkpt lat="43.895061" lon="12.2884042"><ele>282.0</ele><time>2026-04-12T07:27:35.607Z</time></trkpt><trkpt lat="43.8950332" lon="12.2885108"><ele>283.2</ele><time>2026-04-12T07:27:36.607Z</time></trkpt><trkpt lat="43.8950008" lon="12.2885923"><ele>284.4</ele><time>2026-04-12T07:27:37.607Z</time></trkpt><trkpt lat="43.8949232" lon="12.2886628"><ele>285.6</ele><time>2026-04-12T07:27:39.606Z</time></trkpt><trkpt lat="43.8948529" lon="12.2885757"><ele>286.8</ele><time>2026-04-12T07:27:41.607Z</time></trkpt><trkpt lat="43.8948359" lon="12.2884395"><ele>288.0</ele><time>2026-04-12T07:27:42.607Z</time></trkpt><trkpt lat="43.8948268" lon="12.2882627"><ele>288.0</ele><time>2026-04-12T07:27:43.606Z</time></trkpt><trkpt lat="43.894812" lon="12.2880951"><ele>288.0</ele><time>2026-04-12T07:27:44.606Z</time></trkpt><trkpt lat="43.8948011" lon="12.2879517"><ele>288.0</ele><time>2026-04-12T07:27:45.606Z</time></trkpt><trkpt lat="43.8947992" lon="12.2878113"><ele>288.0</ele><time>2026-04-12T07:27:46.607Z</time></trkpt><trkpt lat="43.8947901" lon="12.2876729"><ele>288.0</ele><time>2026-04-12T07:27:47.607Z</time></trkpt><trkpt lat="43.8947707" lon="12.287544"><ele>288.8333333333333</ele><time>2026-04-12T07:27:48.607Z</time></trkpt><trkpt lat="43.894719" lon="12.2874377"><ele>289.6666666666667</ele><time>2026-04-12T07:27:49.607Z</time></trkpt><trkpt lat="43.894651" lon="12.2873612"><ele>290.5</ele><time>2026-04-12T07:27:50.606Z</time></trkpt><trkpt lat="43.8945726" lon="12.2873201"><ele>291.33333333333337</ele><time>2026-04-12T07:27:51.606Z</time></trkpt><trkpt lat="43.8944904" lon="12.2873188"><ele>292.1666666666667</ele><time>2026-04-12T07:27:52.606Z</time></trkpt><trkpt lat="43.8944061" lon="12.2873566"><ele>293.0</ele><time>2026-04-12T07:27:53.606Z</time></trkpt><trkpt lat="43.8943273" lon="12.2874742"><ele>293.0</ele><time>2026-04-12T07:27:54.607Z</time></trkpt><trkpt lat="43.8942624" lon="12.287637"><ele>293.0</ele><time>2026-04-12T07:27:55.606Z</time></trkpt><trkpt lat="43.8942055" lon="12.2878304"><ele>293.0</ele><time>2026-04-12T07:27:56.607Z</time></trkpt><trkpt lat="43.8941538" lon="12.2880221"><ele>293.0</ele><time>2026-04-12T07:27:57.607Z</time></trkpt><trkpt lat="43.8941051" lon="12.288185"><ele>293.8</ele><time>2026-04-12T07:27:58.606Z</time></trkpt><trkpt lat="43.8940451" lon="12.2883066"><ele>294.6</ele><time>2026-04-12T07:27:59.606Z</time></trkpt><trkpt lat="43.8939616" lon="12.2883897"><ele>295.4</ele><time>2026-04-12T07:28:00.606Z</time></trkpt><trkpt lat="43.8938681" lon="12.288418"><ele>296.2</ele><time>2026-04-12T07:28:01.606Z</time></trkpt><trkpt lat="43.893775" lon="12.2883873"><ele>297.0</ele><time>2026-04-12T07:28:02.607Z</time></trkpt><trkpt lat="43.8936952" lon="12.2883055"><ele>297.0</ele><time>2026-04-12T07:28:03.607Z</time></trkpt><trkpt lat="43.8936374" lon="12.2881816"><ele>297.0</ele><time>2026-04-12T07:28:04.607Z</time></trkpt><trkpt lat="43.893613" lon="12.2880156"><ele>297.0</ele><time>2026-04-12T07:28:05.607Z</time></trkpt><trkpt lat="43.8935932" lon="12.287857"><ele>297.0</ele><time>2026-04-12T07:28:06.606Z</time></trkpt><trkpt lat="43.8935624" lon="12.28771"><ele>300.25</ele><time>2026-04-12T07:28:07.606Z</time></trkpt><trkpt lat="43.8935018" lon="12.2875795"><ele>303.5</ele><time>2026-04-12T07:28:08.607Z</time></trkpt><trkpt lat="43.893416" lon="12.2874812"><ele>306.75</ele><time>2026-04-12T07:28:09.607Z</time></trkpt><trkpt lat="43.8933055" lon="12.2874328"><ele>310.0</ele><time>2026-04-12T07:28:10.607Z</time></trkpt><trkpt lat="43.8931736" lon="12.2874496"><ele>310.25</ele><time>2026-04-12T07:28:11.607Z</time></trkpt><trkpt lat="43.8930355" lon="12.2875282"><ele>310.5</ele><time>2026-04-12T07:28:12.607Z</time></trkpt><trkpt lat="43.8929104" lon="12.2876165"><ele>310.75</ele><time>2026-04-12T07:28:13.607Z</time></trkpt><trkpt lat="43.8927881" lon="12.2876602"><ele>311.0</ele><time>2026-04-12T07:28:14.607Z</time></trkpt><trkpt lat="43.8926678" lon="12.2876546"><ele>311.75</ele><time>2026-04-12T07:28:15.607Z</time></trkpt><trkpt lat="43.8925509" lon="12.2875851"><ele>312.5</ele><time>2026-04-12T07:28:16.607Z</time></trkpt><trkpt lat="43.8924384" lon="12.2874554"><ele>313.25</ele><time>2026-04-12T07:28:17.607Z</time></trkpt><trkpt lat="43.8923201" lon="12.2872991"><ele>314.0</ele><time>2026-04-12T07:28:18.607Z</time></trkpt><trkpt lat="43.8922066" lon="12.2871354"><ele>318.0</ele><time>2026-04-12T07:28:19.607Z</time></trkpt><trkpt lat="43.8921114" lon="12.2869666"><ele>322.0</ele><time>2026-04-12T07:28:20.607Z</time></trkpt><trkpt lat="43.892034" lon="12.2867731"><ele>326.0</ele><time>2026-04-12T07:28:21.607Z</time></trkpt><trkpt lat="43.8919743" lon="12.2865307"><ele>328.33333333333337</ele><time>2026-04-12T07:28:22.607Z</time></trkpt><trkpt lat="43.8919311" lon="12.2862696"><ele>330.6666666666667</ele><time>2026-04-12T07:28:23.607Z</time></trkpt><trkpt lat="43.8918935" lon="12.2860267"><ele>333.0</ele><time>2026-04-12T07:28:24.606Z</time></trkpt><trkpt lat="43.8918567" lon="12.2858181"><ele>333.0</ele><time>2026-04-12T07:28:25.607Z</time></trkpt><trkpt lat="43.8918261" lon="12.2856406"><ele>333.0</ele><time>2026-04-12T07:28:26.606Z</time></trkpt><trkpt lat="43.891817" lon="12.2854787"><ele>333.0</ele><time>2026-04-12T07:28:27.607Z</time></trkpt><trkpt lat="43.8918313" lon="12.2853339"><ele>333.0</ele><time>2026-04-12T07:28:28.606Z</time></trkpt><trkpt lat="43.8918851" lon="12.2852168"><ele>334.0</ele><time>2026-04-12T07:28:29.606Z</time></trkpt><trkpt lat="43.8919711" lon="12.2851427"><ele>335.0</ele><time>2026-04-12T07:28:30.607Z</time></trkpt><trkpt lat="43.8920722" lon="12.2851171"><ele>336.0</ele><time>2026-04-12T07:28:31.606Z</time></trkpt><trkpt lat="43.8921735" lon="12.2851404"><ele>337.0</ele><time>2026-04-12T07:28:32.607Z</time></trkpt><trkpt lat="43.8922795" lon="12.2852238"><ele>338.0</ele><time>2026-04-12T07:28:33.607Z</time></trkpt><trkpt lat="43.8923915" lon="12.2853509"><ele>338.0</ele><time>2026-04-12T07:28:34.606Z</time></trkpt><trkpt lat="43.8925014" lon="12.2854791"><ele>338.0</ele><time>2026-04-12T07:28:35.606Z</time></trkpt><trkpt lat="43.8926175" lon="12.2855824"><ele>338.0</ele><time>2026-04-12T07:28:36.608Z</time></trkpt><trkpt lat="43.8927431" lon="12.285648"><ele>338.0</ele><time>2026-04-12T07:28:37.607Z</time></trkpt><trkpt lat="43.8928759" lon="12.2856616"><ele>337.25</ele><time>2026-04-12T07:28:38.608Z</time></trkpt><trkpt lat="43.8930035" lon="12.2856201"><ele>336.5</ele><time>2026-04-12T07:28:39.607Z</time></trkpt><trkpt lat="43.8931229" lon="12.2855253"><ele>335.75</ele><time>2026-04-12T07:28:40.608Z</time></trkpt><trkpt lat="43.8932311" lon="12.2853908"><ele>335.0</ele><time>2026-04-12T07:28:41.607Z</time></trkpt><trkpt lat="43.8933367" lon="12.285193"><ele>337.6666666666667</ele><time>2026-04-12T07:28:42.608Z</time></trkpt><trkpt lat="43.8934469" lon="12.2849475"><ele>340.3333333333333</ele><time>2026-04-12T07:28:43.608Z</time></trkpt><trkpt lat="43.8935696" lon="12.2846838"><ele>343.0</ele><time>2026-04-12T07:28:44.608Z</time></trkpt><trkpt lat="43.8937008" lon="12.2844165"><ele>345.3333333333333</ele><time>2026-04-12T07:28:45.608Z</time></trkpt><trkpt lat="43.893839" lon="12.284159"><ele>347.6666666666667</ele><time>2026-04-12T07:28:46.607Z</time></trkpt><trkpt lat="43.8939635" lon="12.2839261"><ele>350.0</ele><time>2026-04-12T07:28:47.607Z</time></trkpt><trkpt lat="43.8940709" lon="12.2837082"><ele>351.0</ele><time>2026-04-12T07:28:48.607Z</time></trkpt><trkpt lat="43.894166" lon="12.2834978"><ele>352.0</ele><time>2026-04-12T07:28:49.608Z</time></trkpt><trkpt lat="43.8942379" lon="12.2832647"><ele>353.0</ele><time>2026-04-12T07:28:50.608Z</time></trkpt><trkpt lat="43.8942961" lon="12.283002"><ele>353.0</ele><time>2026-04-12T07:28:51.607Z</time></trkpt><trkpt lat="43.8943519" lon="12.2827125"><ele>353.0</ele><time>2026-04-12T07:28:52.608Z</time></trkpt><trkpt lat="43.8944041" lon="12.2824169"><ele>353.0</ele><time>2026-04-12T07:28:53.607Z</time></trkpt><trkpt lat="43.8944617" lon="12.282115"><ele>355.0</ele><time>2026-04-12T07:28:54.608Z</time></trkpt><trkpt lat="43.894515" lon="12.2818183"><ele>357.0</ele><time>2026-04-12T07:28:55.607Z</time></trkpt><trkpt lat="43.8945733" lon="12.2815217"><ele>359.0</ele><time>2026-04-12T07:28:56.608Z</time></trkpt><trkpt lat="43.8946283" lon="12.28122"><ele>359.33333333333337</ele><time>2026-04-12T07:28:57.608Z</time></trkpt><trkpt lat="43.8946717" lon="12.2809233"><ele>359.6666666666667</ele><time>2026-04-12T07:28:58.608Z</time></trkpt><trkpt lat="43.8947133" lon="12.2806483"><ele>360.0</ele><time>2026-04-12T07:28:59.607Z</time></trkpt><trkpt lat="43.89476" lon="12.2803817"><ele>361.6666666666667</ele><time>2026-04-12T07:29:00.608Z</time></trkpt><trkpt lat="43.8948" lon="12.2801283"><ele>363.33333333333337</ele><time>2026-04-12T07:29:01.608Z</time></trkpt><trkpt lat="43.8948317" lon="12.2798833"><ele>365.0</ele><time>2026-04-12T07:29:02.608Z</time></trkpt><trkpt lat="43.894845" lon="12.2796217"><ele>367.0</ele><time>2026-04-12T07:29:03.608Z</time></trkpt><trkpt lat="43.894835" lon="12.2793617"><ele>369.0</ele><time>2026-04-12T07:29:04.608Z</time></trkpt><trkpt lat="43.894825" lon="12.2791267"><ele>371.0</ele><time>2026-04-12T07:29:05.608Z</time></trkpt><trkpt lat="43.894815" lon="12.2789183"><ele>372.25</ele><time>2026-04-12T07:29:06.607Z</time></trkpt><trkpt lat="43.8948133" lon="12.2787333"><ele>373.5</ele><time>2026-04-12T07:29:07.607Z</time></trkpt><trkpt lat="43.894835" lon="12.278565"><ele>374.75</ele><time>2026-04-12T07:29:08.607Z</time></trkpt><trkpt lat="43.8948967" lon="12.2784233"><ele>376.0</ele><time>2026-04-12T07:29:09.608Z</time></trkpt><trkpt lat="43.89499" lon="12.2783183"><ele>378.0</ele><time>2026-04-12T07:29:10.608Z</time></trkpt><trkpt lat="43.89511" lon="12.2782633"><ele>380.0</ele><time>2026-04-12T07:29:11.607Z</time></trkpt><trkpt lat="43.8952433" lon="12.2782733"><ele>382.0</ele><time>2026-04-12T07:29:12.608Z</time></trkpt><trkpt lat="43.8953933" lon="12.278335"><ele>384.0</ele><time>2026-04-12T07:29:13.607Z</time></trkpt><trkpt lat="43.895545" lon="12.278435"><ele>384.0</ele><time>2026-04-12T07:29:14.608Z</time></trkpt><trkpt lat="43.8957083" lon="12.2785483"><ele>384.0</ele><time>2026-04-12T07:29:15.607Z</time></trkpt><trkpt lat="43.8958533" lon="12.27864"><ele>384.0</ele><time>2026-04-12T07:29:16.608Z</time></trkpt><trkpt lat="43.8959983" lon="12.2787117"><ele>385.0</ele><time>2026-04-12T07:29:17.608Z</time></trkpt><trkpt lat="43.896135" lon="12.2787583"><ele>386.0</ele><time>2026-04-12T07:29:18.607Z</time></trkpt><trkpt lat="43.8962767" lon="12.2787617"><ele>387.0</ele><time>2026-04-12T07:29:19.607Z</time></trkpt><trkpt lat="43.89643" lon="12.278725"><ele>388.0</ele><time>2026-04-12T07:29:20.608Z</time></trkpt><trkpt lat="43.896575" lon="12.278615"><ele>388.0</ele><time>2026-04-12T07:29:21.608Z</time></trkpt><trkpt lat="43.8967033" lon="12.278485"><ele>388.0</ele><time>2026-04-12T07:29:22.608Z</time></trkpt><trkpt lat="43.8968283" lon="12.2784"><ele>388.0</ele><time>2026-04-12T07:29:23.608Z</time></trkpt><trkpt lat="43.89696" lon="12.2783517"><ele>388.0</ele><time>2026-04-12T07:29:24.608Z</time></trkpt><trkpt lat="43.8971067" lon="12.2783783"><ele>391.0</ele><time>2026-04-12T07:29:25.607Z</time></trkpt><trkpt lat="43.8972567" lon="12.2784617"><ele>394.0</ele><time>2026-04-12T07:29:26.608Z</time></trkpt><trkpt lat="43.8973783" lon="12.2786117"><ele>397.0</ele><time>2026-04-12T07:29:27.607Z</time></trkpt><trkpt lat="43.8974867" lon="12.2788117"><ele>396.6666666666667</ele><time>2026-04-12T07:29:28.608Z</time></trkpt><trkpt lat="43.8975737" lon="12.2790015"><ele>396.33333333333337</ele><time>2026-04-12T07:29:29.608Z</time></trkpt><trkpt lat="43.8976623" lon="12.2791702"><ele>396.0</ele><time>2026-04-12T07:29:30.608Z</time></trkpt><trkpt lat="43.8977693" lon="12.2793105"><ele>396.0</ele><time>2026-04-12T07:29:31.608Z</time></trkpt><trkpt lat="43.8979169" lon="12.2794052"><ele>396.0</ele><time>2026-04-12T07:29:32.608Z</time></trkpt><trkpt lat="43.8980774" lon="12.279464"><ele>396.0</ele><time>2026-04-12T07:29:33.608Z</time></trkpt><trkpt lat="43.8982247" lon="12.2795134"><ele>396.0</ele><time>2026-04-12T07:29:34.607Z</time></trkpt><trkpt lat="43.8983529" lon="12.2795312"><ele>396.0</ele><time>2026-04-12T07:29:35.608Z</time></trkpt><trkpt lat="43.8984605" lon="12.2794954"><ele>396.0</ele><time>2026-04-12T07:29:36.608Z</time></trkpt><trkpt lat="43.8985456" lon="12.2794097"><ele>396.0</ele><time>2026-04-12T07:29:37.608Z</time></trkpt><trkpt lat="43.8986006" lon="12.279289"><ele>396.0</ele><time>2026-04-12T07:29:38.607Z</time></trkpt><trkpt lat="43.8986153" lon="12.2791416"><ele>397.5</ele><time>2026-04-12T07:29:39.608Z</time></trkpt><trkpt lat="43.8985821" lon="12.2789868"><ele>399.0</ele><time>2026-04-12T07:29:40.608Z</time></trkpt><trkpt lat="43.898502" lon="12.2788475"><ele>400.5</ele><time>2026-04-12T07:29:41.608Z</time></trkpt><trkpt lat="43.8983869" lon="12.278758"><ele>402.0</ele><time>2026-04-12T07:29:42.608Z</time></trkpt><trkpt lat="43.8982659" lon="12.2787283"><ele>406.25</ele><time>2026-04-12T07:29:43.607Z</time></trkpt><trkpt lat="43.8981505" lon="12.2787203"><ele>410.5</ele><time>2026-04-12T07:29:44.608Z</time></trkpt><trkpt lat="43.8980527" lon="12.2786684"><ele>414.75</ele><time>2026-04-12T07:29:45.608Z</time></trkpt><trkpt lat="43.8979701" lon="12.2785637"><ele>419.0</ele><time>2026-04-12T07:29:46.607Z</time></trkpt><trkpt lat="43.8979109" lon="12.2783958"><ele>419.0</ele><time>2026-04-12T07:29:47.608Z</time></trkpt><trkpt lat="43.897873" lon="12.2781695"><ele>419.0</ele><time>2026-04-12T07:29:48.607Z</time></trkpt><trkpt lat="43.8978339" lon="12.2779114"><ele>419.0</ele><time>2026-04-12T07:29:49.608Z</time></trkpt><trkpt lat="43.8977705" lon="12.2776255"><ele>421.66666666666663</ele><time>2026-04-12T07:29:50.607Z</time></trkpt><trkpt lat="43.8976906" lon="12.2773359"><ele>424.33333333333337</ele><time>2026-04-12T07:29:51.608Z</time></trkpt><trkpt lat="43.8976075" lon="12.2770659"><ele>427.0</ele><time>2026-04-12T07:29:52.608Z</time></trkpt><trkpt lat="43.8975056" lon="12.2768194"><ele>427.0</ele><time>2026-04-12T07:29:53.608Z</time></trkpt><trkpt lat="43.8973896" lon="12.2766102"><ele>427.0</ele><time>2026-04-12T07:29:54.608Z</time></trkpt><trkpt lat="43.8972708" lon="12.2764375"><ele>427.0</ele><time>2026-04-12T07:29:55.607Z</time></trkpt><trkpt lat="43.8971551" lon="12.2762926"><ele>430.25</ele><time>2026-04-12T07:29:56.608Z</time></trkpt><trkpt lat="43.8970387" lon="12.276176"><ele>433.5</ele><time>2026-04-12T07:29:57.608Z</time></trkpt><trkpt lat="43.8969481" lon="12.2760665"><ele>436.75</ele><time>2026-04-12T07:29:58.608Z</time></trkpt><trkpt lat="43.8968694" lon="12.2759494"><ele>440.0</ele><time>2026-04-12T07:29:59.607Z</time></trkpt><trkpt lat="43.8968157" lon="12.2758023"><ele>440.0</ele><time>2026-04-12T07:30:00.607Z</time></trkpt><trkpt lat="43.8968075" lon="12.2756309"><ele>440.0</ele><time>2026-04-12T07:30:01.608Z</time></trkpt><trkpt lat="43.8968482" lon="12.2754506"><ele>440.0</ele><time>2026-04-12T07:30:02.608Z</time></trkpt><trkpt lat="43.8969129" lon="12.275266"><ele>440.0</ele><time>2026-04-12T07:30:03.608Z</time></trkpt><trkpt lat="43.8969893" lon="12.275065"><ele>445.3333333333333</ele><time>2026-04-12T07:30:04.608Z</time></trkpt><trkpt lat="43.8970445" lon="12.2748254"><ele>450.66666666666663</ele><time>2026-04-12T07:30:05.608Z</time></trkpt><trkpt lat="43.897068" lon="12.2745514"><ele>456.0</ele><time>2026-04-12T07:30:06.608Z</time></trkpt><trkpt lat="43.8970772" lon="12.2742654"><ele>459.33333333333337</ele><time>2026-04-12T07:30:07.608Z</time></trkpt><trkpt lat="43.8970746" lon="12.2739835"><ele>462.6666666666667</ele><time>2026-04-12T07:30:08.608Z</time></trkpt><trkpt lat="43.8970707" lon="12.2737285"><ele>466.0</ele><time>2026-04-12T07:30:09.607Z</time></trkpt><trkpt lat="43.8970392" lon="12.2734775"><ele>467.33333333333337</ele><time>2026-04-12T07:30:10.607Z</time></trkpt><trkpt lat="43.8969761" lon="12.2732312"><ele>468.66666666666663</ele><time>2026-04-12T07:30:11.607Z</time></trkpt><trkpt lat="43.8968987" lon="12.2730123"><ele>470.0</ele><time>2026-04-12T07:30:12.608Z</time></trkpt><trkpt lat="43.8968211" lon="12.272802"><ele>471.0</ele><time>2026-04-12T07:30:13.608Z</time></trkpt><trkpt lat="43.8967549" lon="12.2725986"><ele>472.0</ele><time>2026-04-12T07:30:14.608Z</time></trkpt><trkpt lat="43.896716" lon="12.2723846"><ele>473.0</ele><time>2026-04-12T07:30:15.608Z</time></trkpt><trkpt lat="43.8967079" lon="12.2721394"><ele>473.66666666666663</ele><time>2026-04-12T07:30:16.608Z</time></trkpt><trkpt lat="43.896724" lon="12.2718609"><ele>474.33333333333337</ele><time>2026-04-12T07:30:17.608Z</time></trkpt><trkpt lat="43.8967594" lon="12.2715596"><ele>475.0</ele><time>2026-04-12T07:30:18.607Z</time></trkpt><trkpt lat="43.8968001" lon="12.2712354"><ele>475.5</ele><time>2026-04-12T07:30:19.608Z</time></trkpt><trkpt lat="43.8968381" lon="12.2708898"><ele>476.0</ele><time>2026-04-12T07:30:20.608Z</time></trkpt><trkpt lat="43.8968851" lon="12.2705444"><ele>478.3333333333333</ele><time>2026-04-12T07:30:21.608Z</time></trkpt><trkpt lat="43.8969265" lon="12.2702275"><ele>480.66666666666663</ele><time>2026-04-12T07:30:22.607Z</time></trkpt><trkpt lat="43.8969609" lon="12.2699404"><ele>483.0</ele><time>2026-04-12T07:30:23.607Z</time></trkpt><trkpt lat="43.896986" lon="12.2696763"><ele>486.66666666666663</ele><time>2026-04-12T07:30:24.607Z</time></trkpt><trkpt lat="43.8969776" lon="12.2694107"><ele>490.3333333333333</ele><time>2026-04-12T07:30:25.607Z</time></trkpt><trkpt lat="43.8969423" lon="12.2691279"><ele>494.0</ele><time>2026-04-12T07:30:26.608Z</time></trkpt><trkpt lat="43.8968916" lon="12.268819"><ele>498.0</ele><time>2026-04-12T07:30:27.607Z</time></trkpt><trkpt lat="43.896838" lon="12.2684856"><ele>502.0</ele><time>2026-04-12T07:30:28.608Z</time></trkpt><trkpt lat="43.8967842" lon="12.2681359"><ele>492.5</ele><time>2026-04-12T07:30:29.608Z</time></trkpt><trkpt lat="43.8967279" lon="12.2677852"><ele>483.0</ele><time>2026-04-12T07:30:30.607Z</time></trkpt><trkpt lat="43.8966764" lon="12.2674466"><ele>486.0</ele><time>2026-04-12T07:30:31.608Z</time></trkpt><trkpt lat="43.8966302" lon="12.2671343"><ele>489.0</ele><time>2026-04-12T07:30:32.607Z</time></trkpt><trkpt lat="43.8965897" lon="12.2668504"><ele>492.0</ele><time>2026-04-12T07:30:33.608Z</time></trkpt><trkpt lat="43.8965597" lon="12.2665894"><ele>493.66666666666663</ele><time>2026-04-12T07:30:34.608Z</time></trkpt><trkpt lat="43.8965315" lon="12.2663516"><ele>495.3333333333333</ele><time>2026-04-12T07:30:35.607Z</time></trkpt><trkpt lat="43.8965056" lon="12.266118"><ele>497.0</ele><time>2026-04-12T07:30:36.608Z</time></trkpt><trkpt lat="43.8964888" lon="12.2658869"><ele>497.0</ele><time>2026-04-12T07:30:37.607Z</time></trkpt><trkpt lat="43.8964878" lon="12.265661"><ele>497.0</ele><time>2026-04-12T07:30:38.607Z</time></trkpt><trkpt lat="43.8965177" lon="12.2654333"><ele>497.0</ele><time>2026-04-12T07:30:39.607Z</time></trkpt><trkpt lat="43.8965719" lon="12.2652246"><ele>496.3333333333333</ele><time>2026-04-12T07:30:40.607Z</time></trkpt><trkpt lat="43.8966342" lon="12.2649995"><ele>495.66666666666663</ele><time>2026-04-12T07:30:41.608Z</time></trkpt><trkpt lat="43.8966882" lon="12.2647788"><ele>495.0</ele><time>2026-04-12T07:30:42.608Z</time></trkpt><trkpt lat="43.8967203" lon="12.2645671"><ele>499.5</ele><time>2026-04-12T07:30:43.608Z</time></trkpt><trkpt lat="43.8967558" lon="12.2643738"><ele>504.0</ele><time>2026-04-12T07:30:44.608Z</time></trkpt><trkpt lat="43.8967929" lon="12.2642015"><ele>508.5</ele><time>2026-04-12T07:30:45.608Z</time></trkpt><trkpt lat="43.8968695" lon="12.2640399"><ele>513.0</ele><time>2026-04-12T07:30:46.608Z</time></trkpt><trkpt lat="43.8969856" lon="12.263915"><ele>513.0</ele><time>2026-04-12T07:30:47.608Z</time></trkpt><trkpt lat="43.8970999" lon="12.2637869"><ele>513.0</ele><time>2026-04-12T07:30:48.608Z</time></trkpt><trkpt lat="43.8971836" lon="12.2636051"><ele>513.0</ele><time>2026-04-12T07:30:49.608Z</time></trkpt><trkpt lat="43.8972357" lon="12.2633657"><ele>513.0</ele><time>2026-04-12T07:30:50.608Z</time></trkpt><trkpt lat="43.8972682" lon="12.2630985"><ele>513.0</ele><time>2026-04-12T07:30:51.608Z</time></trkpt><trkpt lat="43.8973016" lon="12.26284"><ele>513.0</ele><time>2026-04-12T07:30:52.608Z</time></trkpt><trkpt lat="43.8973439" lon="12.2626018"><ele>513.0</ele><time>2026-04-12T07:30:53.608Z</time></trkpt><trkpt lat="43.8973991" lon="12.2623728"><ele>513.0</ele><time>2026-04-12T07:30:54.608Z</time></trkpt><trkpt lat="43.8974746" lon="12.2621457"><ele>513.0</ele><time>2026-04-12T07:30:55.608Z</time></trkpt><trkpt lat="43.8975637" lon="12.261924"><ele>517.3333333333334</ele><time>2026-04-12T07:30:56.608Z</time></trkpt><trkpt lat="43.8976576" lon="12.2617032"><ele>521.6666666666667</ele><time>2026-04-12T07:30:57.608Z</time></trkpt><trkpt lat="43.8977716" lon="12.2614833"><ele>526.0</ele><time>2026-04-12T07:30:58.608Z</time></trkpt><trkpt lat="43.8979013" lon="12.2612778"><ele>526.0</ele><time>2026-04-12T07:30:59.608Z</time></trkpt><trkpt lat="43.8980361" lon="12.2611023"><ele>526.0</ele><time>2026-04-12T07:31:00.607Z</time></trkpt><trkpt lat="43.8981689" lon="12.2609439"><ele>526.0</ele><time>2026-04-12T07:31:01.607Z</time></trkpt><trkpt lat="43.8982923" lon="12.2607854"><ele>526.0</ele><time>2026-04-12T07:31:02.608Z</time></trkpt><trkpt lat="43.8984031" lon="12.2606127"><ele>526.0</ele><time>2026-04-12T07:31:03.607Z</time></trkpt><trkpt lat="43.8984862" lon="12.2604173"><ele>526.0</ele><time>2026-04-12T07:31:04.608Z</time></trkpt><trkpt lat="43.8985429" lon="12.2602007"><ele>530.3333333333334</ele><time>2026-04-12T07:31:05.608Z</time></trkpt><trkpt lat="43.8985784" lon="12.2599674"><ele>534.6666666666666</ele><time>2026-04-12T07:31:06.608Z</time></trkpt><trkpt lat="43.8986075" lon="12.2597322"><ele>539.0</ele><time>2026-04-12T07:31:07.608Z</time></trkpt><trkpt lat="43.8986333" lon="12.2594953"><ele>540.0</ele><time>2026-04-12T07:31:08.607Z</time></trkpt><trkpt lat="43.898655" lon="12.2592683"><ele>541.0</ele><time>2026-04-12T07:31:09.608Z</time></trkpt><trkpt lat="43.898685" lon="12.2590333"><ele>542.0</ele><time>2026-04-12T07:31:10.608Z</time></trkpt><trkpt lat="43.898715" lon="12.2588117"><ele>542.0</ele><time>2026-04-12T07:31:11.607Z</time></trkpt><trkpt lat="43.8987417" lon="12.258605"><ele>542.0</ele><time>2026-04-12T07:31:12.607Z</time></trkpt><trkpt lat="43.8987683" lon="12.2584083"><ele>542.0</ele><time>2026-04-12T07:31:13.608Z</time></trkpt><trkpt lat="43.8988033" lon="12.2582217"><ele>542.0</ele><time>2026-04-12T07:31:14.607Z</time></trkpt><trkpt lat="43.898815" lon="12.2580067"><ele>542.6666666666666</ele><time>2026-04-12T07:31:15.608Z</time></trkpt><trkpt lat="43.8987983" lon="12.2577833"><ele>543.3333333333334</ele><time>2026-04-12T07:31:16.607Z</time></trkpt><trkpt lat="43.8987367" lon="12.2575267"><ele>544.0</ele><time>2026-04-12T07:31:17.607Z</time></trkpt><trkpt lat="43.8986717" lon="12.2572483"><ele>545.0</ele><time>2026-04-12T07:31:18.608Z</time></trkpt><trkpt lat="43.8986083" lon="12.2569767"><ele>546.0</ele><time>2026-04-12T07:31:19.608Z</time></trkpt><trkpt lat="43.8985517" lon="12.2567117"><ele>547.0</ele><time>2026-04-12T07:31:20.607Z</time></trkpt><trkpt lat="43.8985017" lon="12.256475"><ele>547.0</ele><time>2026-04-12T07:31:21.608Z</time></trkpt><trkpt lat="43.898455" lon="12.2562633"><ele>547.0</ele><time>2026-04-12T07:31:22.608Z</time></trkpt><trkpt lat="43.89841" lon="12.25608"><ele>547.0</ele><time>2026-04-12T07:31:23.608Z</time></trkpt><trkpt lat="43.898365" lon="12.2559267"><ele>547.0</ele><time>2026-04-12T07:31:24.607Z</time></trkpt><trkpt lat="43.8982983" lon="12.2557883"><ele>545.25</ele><time>2026-04-12T07:31:25.608Z</time></trkpt><trkpt lat="43.89819" lon="12.2556817"><ele>543.5</ele><time>2026-04-12T07:31:26.607Z</time></trkpt><trkpt lat="43.89806" lon="12.255635"><ele>541.75</ele><time>2026-04-12T07:31:27.608Z</time></trkpt><trkpt lat="43.8979217" lon="12.2556517"><ele>540.0</ele><time>2026-04-12T07:31:28.607Z</time></trkpt><trkpt lat="43.8978" lon="12.2557183"><ele>540.0</ele><time>2026-04-12T07:31:29.608Z</time></trkpt><trkpt lat="43.8976917" lon="12.2557733"><ele>540.0</ele><time>2026-04-12T07:31:30.608Z</time></trkpt><trkpt lat="43.897595" lon="12.2557717"><ele>540.0</ele><time>2026-04-12T07:31:31.608Z</time></trkpt><trkpt lat="43.8975" lon="12.2557033"><ele>540.0</ele><time>2026-04-12T07:31:32.607Z</time></trkpt><trkpt lat="43.8974317" lon="12.2555967"><ele>540.0</ele><time>2026-04-12T07:31:33.608Z</time></trkpt><trkpt lat="43.8974033" lon="12.2554717"><ele>541.6</ele><time>2026-04-12T07:31:34.608Z</time></trkpt><trkpt lat="43.897425" lon="12.2553383"><ele>543.2</ele><time>2026-04-12T07:31:35.608Z</time></trkpt><trkpt lat="43.8974867" lon="12.2552217"><ele>544.8</ele><time>2026-04-12T07:31:36.608Z</time></trkpt><trkpt lat="43.897585" lon="12.2551433"><ele>546.4</ele><time>2026-04-12T07:31:37.608Z</time></trkpt><trkpt lat="43.8976983" lon="12.2551083"><ele>548.0</ele><time>2026-04-12T07:31:38.608Z</time></trkpt><trkpt lat="43.897835" lon="12.2551233"><ele>548.6666666666666</ele><time>2026-04-12T07:31:39.608Z</time></trkpt><trkpt lat="43.8979817" lon="12.2551583"><ele>549.3333333333334</ele><time>2026-04-12T07:31:40.608Z</time></trkpt><trkpt lat="43.8981433" lon="12.25518"><ele>550.0</ele><time>2026-04-12T07:31:41.607Z</time></trkpt><trkpt lat="43.8983233" lon="12.2551683"><ele>550.3333333333334</ele><time>2026-04-12T07:31:42.608Z</time></trkpt><trkpt lat="43.8985117" lon="12.25513"><ele>550.6666666666666</ele><time>2026-04-12T07:31:43.608Z</time></trkpt><trkpt lat="43.898695" lon="12.25504"><ele>551.0</ele><time>2026-04-12T07:31:44.607Z</time></trkpt><trkpt lat="43.8988883" lon="12.2549017"><ele>555.0</ele><time>2026-04-12T07:31:45.607Z</time></trkpt><trkpt lat="43.8990917" lon="12.2547317"><ele>559.0</ele><time>2026-04-12T07:31:46.608Z</time></trkpt><trkpt lat="43.8992917" lon="12.2545567"><ele>561.0</ele><time>2026-04-12T07:31:47.608Z</time></trkpt><trkpt lat="43.899485" lon="12.2543817"><ele>563.0</ele><time>2026-04-12T07:31:48.608Z</time></trkpt><trkpt lat="43.89966" lon="12.25423"><ele>565.0</ele><time>2026-04-12T07:31:49.608Z</time></trkpt><trkpt lat="43.899825" lon="12.254085"><ele>568.3333333333334</ele><time>2026-04-12T07:31:50.607Z</time></trkpt><trkpt lat="43.899965" lon="12.253955"><ele>571.6666666666666</ele><time>2026-04-12T07:31:51.608Z</time></trkpt><trkpt lat="43.9000967" lon="12.2538517"><ele>575.0</ele><time>2026-04-12T07:31:52.608Z</time></trkpt><trkpt lat="43.9002283" lon="12.2537883"><ele>576.0</ele><time>2026-04-12T07:31:53.607Z</time></trkpt><trkpt lat="43.9003633" lon="12.2537567"><ele>577.0</ele><time>2026-04-12T07:31:54.608Z</time></trkpt><trkpt lat="43.9005017" lon="12.253755"><ele>578.0</ele><time>2026-04-12T07:31:55.608Z</time></trkpt><trkpt lat="43.90062" lon="12.25377"><ele>579.0</ele><time>2026-04-12T07:31:56.608Z</time></trkpt><trkpt lat="43.900735" lon="12.2537783"><ele>579.0</ele><time>2026-04-12T07:31:57.608Z</time></trkpt><trkpt lat="43.900835" lon="12.2537333"><ele>579.0</ele><time>2026-04-12T07:31:58.607Z</time></trkpt><trkpt lat="43.9009183" lon="12.2536417"><ele>579.0</ele><time>2026-04-12T07:31:59.607Z</time></trkpt><trkpt lat="43.90097" lon="12.2535217"><ele>579.0</ele><time>2026-04-12T07:32:00.608Z</time></trkpt><trkpt lat="43.900985" lon="12.2533667"><ele>579.0</ele><time>2026-04-12T07:32:01.608Z</time></trkpt><trkpt lat="43.9009633" lon="12.2531817"><ele>580.0</ele><time>2026-04-12T07:32:02.607Z</time></trkpt><trkpt lat="43.90091" lon="12.2530117"><ele>581.0</ele><time>2026-04-12T07:32:03.608Z</time></trkpt><trkpt lat="43.900855" lon="12.252865"><ele>582.0</ele><time>2026-04-12T07:32:04.608Z</time></trkpt><trkpt lat="43.9007783" lon="12.2527267"><ele>583.0</ele><time>2026-04-12T07:32:05.608Z</time></trkpt><trkpt lat="43.9006633" lon="12.2526433"><ele>583.0</ele><time>2026-04-12T07:32:06.608Z</time></trkpt><trkpt lat="43.90053" lon="12.252625"><ele>583.0</ele><time>2026-04-12T07:32:07.608Z</time></trkpt><trkpt lat="43.9003833" lon="12.2526433"><ele>583.0</ele><time>2026-04-12T07:32:08.608Z</time></trkpt><trkpt lat="43.90023" lon="12.2526433"><ele>583.0</ele><time>2026-04-12T07:32:09.607Z</time></trkpt><trkpt lat="43.9000667" lon="12.2525867"><ele>582.0</ele><time>2026-04-12T07:32:10.608Z</time></trkpt><trkpt lat="43.8998967" lon="12.2525017"><ele>581.0</ele><time>2026-04-12T07:32:11.608Z</time></trkpt><trkpt lat="43.899715" lon="12.2523783"><ele>580.0</ele><time>2026-04-12T07:32:12.608Z</time></trkpt><trkpt lat="43.89955" lon="12.252295"><ele>583.3333333333334</ele><time>2026-04-12T07:32:13.608Z</time></trkpt><trkpt lat="43.8993883" lon="12.2522367"><ele>586.6666666666666</ele><time>2026-04-12T07:32:14.608Z</time></trkpt><trkpt lat="43.89924" lon="12.252175"><ele>590.0</ele><time>2026-04-12T07:32:15.608Z</time></trkpt><trkpt lat="43.8991133" lon="12.2521267"><ele>591.0</ele><time>2026-04-12T07:32:16.607Z</time></trkpt><trkpt lat="43.8989983" lon="12.25209"><ele>592.0</ele><time>2026-04-12T07:32:17.608Z</time></trkpt><trkpt lat="43.8989067" lon="12.2520033"><ele>593.0</ele><time>2026-04-12T07:32:18.608Z</time></trkpt><trkpt lat="43.89885" lon="12.2518783"><ele>594.0</ele><time>2026-04-12T07:32:19.608Z</time></trkpt><trkpt lat="43.8988367" lon="12.2517467"><ele>595.0</ele><time>2026-04-12T07:32:20.608Z</time></trkpt><trkpt lat="43.89887" lon="12.2516233"><ele>595.0</ele><time>2026-04-12T07:32:21.608Z</time></trkpt><trkpt lat="43.8989383" lon="12.2515183"><ele>595.0</ele><time>2026-04-12T07:32:22.607Z</time></trkpt><trkpt lat="43.899045" lon="12.25141"><ele>595.0</ele><time>2026-04-12T07:32:23.608Z</time></trkpt><trkpt lat="43.89918" lon="12.25129"><ele>595.0</ele><time>2026-04-12T07:32:24.607Z</time></trkpt><trkpt lat="43.8993267" lon="12.25115"><ele>596.3333333333334</ele><time>2026-04-12T07:32:25.608Z</time></trkpt><trkpt lat="43.8994983" lon="12.2509967"><ele>597.6666666666666</ele><time>2026-04-12T07:32:26.608Z</time></trkpt><trkpt lat="43.89968" lon="12.250835"><ele>599.0</ele><time>2026-04-12T07:32:27.607Z</time></trkpt><trkpt lat="43.8998417" lon="12.2506867"><ele>602.3333333333333</ele><time>2026-04-12T07:32:28.608Z</time></trkpt><trkpt lat="43.899985" lon="12.2505467"><ele>605.6666666666666</ele><time>2026-04-12T07:32:29.608Z</time></trkpt><trkpt lat="43.90011" lon="12.25042"><ele>609.0</ele><time>2026-04-12T07:32:30.608Z</time></trkpt><trkpt lat="43.9002217" lon="12.2503083"><ele>609.0</ele><time>2026-04-12T07:32:31.607Z</time></trkpt><trkpt lat="43.9003167" lon="12.2501867"><ele>609.0</ele><time>2026-04-12T07:32:32.608Z</time></trkpt><trkpt lat="43.9003683" lon="12.250045"><ele>609.0</ele><time>2026-04-12T07:32:33.607Z</time></trkpt><trkpt lat="43.9003683" lon="12.2498867"><ele>609.0</ele><time>2026-04-12T07:32:34.608Z</time></trkpt><trkpt lat="43.9003383" lon="12.2497333"><ele>612.0</ele><time>2026-04-12T07:32:35.608Z</time></trkpt><trkpt lat="43.9002767" lon="12.2495833"><ele>615.0</ele><time>2026-04-12T07:32:36.607Z</time></trkpt><trkpt lat="43.9001867" lon="12.2494583"><ele>618.0</ele><time>2026-04-12T07:32:37.607Z</time></trkpt><trkpt lat="43.9000683" lon="12.2493833"><ele>621.0</ele><time>2026-04-12T07:32:38.608Z</time></trkpt><trkpt lat="43.8999283" lon="12.2493733"><ele>622.0</ele><time>2026-04-12T07:32:39.608Z</time></trkpt><trkpt lat="43.8997833" lon="12.2494033"><ele>623.0</ele><time>2026-04-12T07:32:40.607Z</time></trkpt><trkpt lat="43.8996117" lon="12.2494617"><ele>624.0</ele><time>2026-04-12T07:32:41.608Z</time></trkpt><trkpt lat="43.899425" lon="12.2495367"><ele>626.6666666666666</ele><time>2026-04-12T07:32:42.608Z</time></trkpt><trkpt lat="43.899235" lon="12.2496117"><ele>629.3333333333333</ele><time>2026-04-12T07:32:43.607Z</time></trkpt><trkpt lat="43.8990617" lon="12.2496817"><ele>632.0</ele><time>2026-04-12T07:32:44.607Z</time></trkpt><trkpt lat="43.8988983" lon="12.249735"><ele>632.0</ele><time>2026-04-12T07:32:45.608Z</time></trkpt><trkpt lat="43.898755" lon="12.249785"><ele>632.0</ele><time>2026-04-12T07:32:46.607Z</time></trkpt><trkpt lat="43.8986267" lon="12.2498367"><ele>632.0</ele><time>2026-04-12T07:32:47.607Z</time></trkpt><trkpt lat="43.8985133" lon="12.2498783"><ele>632.0</ele><time>2026-04-12T07:32:48.607Z</time></trkpt><trkpt lat="43.898415" lon="12.249885"><ele>631.0</ele><time>2026-04-12T07:32:49.608Z</time></trkpt><trkpt lat="43.8983267" lon="12.24984"><ele>630.0</ele><time>2026-04-12T07:32:50.609Z</time></trkpt><trkpt lat="43.8982583" lon="12.2497367"><ele>629.0</ele><time>2026-04-12T07:32:51.609Z</time></trkpt><trkpt lat="43.8982056" lon="12.2496088"><ele>628.0</ele><time>2026-04-12T07:32:52.609Z</time></trkpt><trkpt lat="43.8982015" lon="12.2494563"><ele>627.0</ele><time>2026-04-12T07:32:53.608Z</time></trkpt><trkpt lat="43.8982473" lon="12.2493183"><ele>628.25</ele><time>2026-04-12T07:32:54.609Z</time></trkpt><trkpt lat="43.89833" lon="12.2492137"><ele>629.5</ele><time>2026-04-12T07:32:55.609Z</time></trkpt><trkpt lat="43.898452" lon="12.2491474"><ele>630.75</ele><time>2026-04-12T07:32:56.609Z</time></trkpt><trkpt lat="43.8985969" lon="12.2491356"><ele>632.0</ele><time>2026-04-12T07:32:57.608Z</time></trkpt><trkpt lat="43.8987365" lon="12.2491708"><ele>632.0</ele><time>2026-04-12T07:32:58.609Z</time></trkpt><trkpt lat="43.8988634" lon="12.2491812"><ele>632.0</ele><time>2026-04-12T07:32:59.608Z</time></trkpt><trkpt lat="43.898979" lon="12.2491585"><ele>632.0</ele><time>2026-04-12T07:33:00.609Z</time></trkpt><trkpt lat="43.8990739" lon="12.2490903"><ele>632.0</ele><time>2026-04-12T07:33:01.609Z</time></trkpt><trkpt lat="43.8991421" lon="12.2489631"><ele>634.0</ele><time>2026-04-12T07:33:02.609Z</time></trkpt><trkpt lat="43.8991693" lon="12.2488052"><ele>636.0</ele><time>2026-04-12T07:33:03.609Z</time></trkpt><trkpt lat="43.8991356" lon="12.2486393"><ele>638.0</ele><time>2026-04-12T07:33:04.609Z</time></trkpt><trkpt lat="43.8990538" lon="12.248503"><ele>640.0</ele><time>2026-04-12T07:33:05.608Z</time></trkpt><trkpt lat="43.8989491" lon="12.2484153"><ele>640.0</ele><time>2026-04-12T07:33:06.609Z</time></trkpt><trkpt lat="43.8988305" lon="12.2484088"><ele>640.0</ele><time>2026-04-12T07:33:07.609Z</time></trkpt><trkpt lat="43.8987183" lon="12.2484813"><ele>640.0</ele><time>2026-04-12T07:33:08.609Z</time></trkpt><trkpt lat="43.8986331" lon="12.2486048"><ele>640.0</ele><time>2026-04-12T07:33:09.609Z</time></trkpt><trkpt lat="43.8985547" lon="12.2487237"><ele>640.0</ele><time>2026-04-12T07:33:10.609Z</time></trkpt><trkpt lat="43.8984612" lon="12.2487957"><ele>640.0</ele><time>2026-04-12T07:33:11.608Z</time></trkpt><trkpt lat="43.8983515" lon="12.2488043"><ele>640.0</ele><time>2026-04-12T07:33:12.608Z</time></trkpt><trkpt lat="43.8982482" lon="12.2487457"><ele>640.0</ele><time>2026-04-12T07:33:13.608Z</time></trkpt><trkpt lat="43.8981726" lon="12.2486257"><ele>640.0</ele><time>2026-04-12T07:33:14.608Z</time></trkpt><trkpt lat="43.8981408" lon="12.2484835"><ele>641.6</ele><time>2026-04-12T07:33:15.608Z</time></trkpt><trkpt lat="43.8981572" lon="12.2483455"><ele>643.2</ele><time>2026-04-12T07:33:16.608Z</time></trkpt><trkpt lat="43.898217" lon="12.2482221"><ele>644.8</ele><time>2026-04-12T07:33:17.609Z</time></trkpt><trkpt lat="43.8983144" lon="12.2481386"><ele>646.4</ele><time>2026-04-12T07:33:18.609Z</time></trkpt><trkpt lat="43.8984393" lon="12.2481091"><ele>648.0</ele><time>2026-04-12T07:33:19.609Z</time></trkpt><trkpt lat="43.8985601" lon="12.2481218"><ele>649.0</ele><time>2026-04-12T07:33:20.609Z</time></trkpt><trkpt lat="43.8986747" lon="12.2481175"><ele>650.0</ele><time>2026-04-12T07:33:21.609Z</time></trkpt><trkpt lat="43.8987736" lon="12.2480612"><ele>651.0</ele><time>2026-04-12T07:33:22.608Z</time></trkpt><trkpt lat="43.8988476" lon="12.2479487"><ele>652.0</ele><time>2026-04-12T07:33:23.608Z</time></trkpt><trkpt lat="43.8988826" lon="12.2477993"><ele>653.0</ele><time>2026-04-12T07:33:24.609Z</time></trkpt><trkpt lat="43.8988751" lon="12.2476476"><ele>653.0</ele><time>2026-04-12T07:33:25.609Z</time></trkpt><trkpt lat="43.8988221" lon="12.247519"><ele>653.0</ele><time>2026-04-12T07:33:26.609Z</time></trkpt><trkpt lat="43.8987279" lon="12.2474207"><ele>653.0</ele><time>2026-04-12T07:33:27.609Z</time></trkpt><trkpt lat="43.8986085" lon="12.2473803"><ele>653.0</ele><time>2026-04-12T07:33:28.609Z</time></trkpt><trkpt lat="43.8984885" lon="12.2473918"><ele>653.5999999999999</ele><time>2026-04-12T07:33:29.609Z</time></trkpt><trkpt lat="43.8983851" lon="12.2474082"><ele>654.1999999999999</ele><time>2026-04-12T07:33:30.608Z</time></trkpt><trkpt lat="43.8982938" lon="12.2473724"><ele>654.8</ele><time>2026-04-12T07:33:31.609Z</time></trkpt><trkpt lat="43.8982034" lon="12.2473014"><ele>655.4</ele><time>2026-04-12T07:33:32.609Z</time></trkpt><trkpt lat="43.8981176" lon="12.2472059"><ele>656.0</ele><time>2026-04-12T07:33:33.609Z</time></trkpt><trkpt lat="43.8980278" lon="12.2471063"><ele>656.0</ele><time>2026-04-12T07:33:34.609Z</time></trkpt><trkpt lat="43.8979228" lon="12.2470155"><ele>656.0</ele><time>2026-04-12T07:33:35.609Z</time></trkpt><trkpt lat="43.8978019" lon="12.2469362"><ele>656.0</ele><time>2026-04-12T07:33:36.609Z</time></trkpt><trkpt lat="43.8976665" lon="12.2468721"><ele>656.0</ele><time>2026-04-12T07:33:37.608Z</time></trkpt><trkpt lat="43.8975144" lon="12.2468191"><ele>655.6666666666666</ele><time>2026-04-12T07:33:38.609Z</time></trkpt><trkpt lat="43.8973556" lon="12.2467638"><ele>655.3333333333334</ele><time>2026-04-12T07:33:39.609Z</time></trkpt><trkpt lat="43.8971902" lon="12.2466956"><ele>655.0</ele><time>2026-04-12T07:33:40.609Z</time></trkpt><trkpt lat="43.8970225" lon="12.2466173"><ele>655.0</ele><time>2026-04-12T07:33:41.609Z</time></trkpt><trkpt lat="43.8968508" lon="12.2465417"><ele>655.0</ele><time>2026-04-12T07:33:42.609Z</time></trkpt><trkpt lat="43.8966802" lon="12.2464734"><ele>655.0</ele><time>2026-04-12T07:33:43.609Z</time></trkpt><trkpt lat="43.8965078" lon="12.2463943"><ele>656.6666666666667</ele><time>2026-04-12T07:33:44.608Z</time></trkpt><trkpt lat="43.8963373" lon="12.2462966"><ele>658.3333333333334</ele><time>2026-04-12T07:33:45.609Z</time></trkpt><trkpt lat="43.8961686" lon="12.2461818"><ele>660.0</ele><time>2026-04-12T07:33:46.609Z</time></trkpt><trkpt lat="43.8960126" lon="12.2460663"><ele>662.6666666666666</ele><time>2026-04-12T07:33:47.609Z</time></trkpt><trkpt lat="43.8958559" lon="12.2459576"><ele>665.3333333333333</ele><time>2026-04-12T07:33:48.609Z</time></trkpt><trkpt lat="43.8956906" lon="12.24586"><ele>668.0</ele><time>2026-04-12T07:33:49.609Z</time></trkpt><trkpt lat="43.8955169" lon="12.2457733"><ele>668.0</ele><time>2026-04-12T07:33:50.609Z</time></trkpt><trkpt lat="43.8953383" lon="12.2456946"><ele>668.0</ele><time>2026-04-12T07:33:51.609Z</time></trkpt><trkpt lat="43.8951572" lon="12.2456242"><ele>668.0</ele><time>2026-04-12T07:33:52.609Z</time></trkpt><trkpt lat="43.894971" lon="12.2455504"><ele>673.0</ele><time>2026-04-12T07:33:53.609Z</time></trkpt><trkpt lat="43.8947872" lon="12.2454768"><ele>678.0</ele><time>2026-04-12T07:33:54.608Z</time></trkpt><trkpt lat="43.8946067" lon="12.2454049"><ele>683.0</ele><time>2026-04-12T07:33:55.609Z</time></trkpt><trkpt lat="43.8944219" lon="12.2453487"><ele>685.0</ele><time>2026-04-12T07:33:56.609Z</time></trkpt><trkpt lat="43.8942274" lon="12.245325"><ele>687.0</ele><time>2026-04-12T07:33:57.609Z</time></trkpt><trkpt lat="43.8940264" lon="12.2453249"><ele>689.0</ele><time>2026-04-12T07:33:58.609Z</time></trkpt><trkpt lat="43.8938268" lon="12.245352"><ele>689.0</ele><time>2026-04-12T07:33:59.609Z</time></trkpt><trkpt lat="43.8936411" lon="12.2453771"><ele>689.0</ele><time>2026-04-12T07:34:00.609Z</time></trkpt><trkpt lat="43.8934707" lon="12.2454014"><ele>689.0</ele><time>2026-04-12T07:34:01.608Z</time></trkpt><trkpt lat="43.8933134" lon="12.245421"><ele>691.0</ele><time>2026-04-12T07:34:02.608Z</time></trkpt><trkpt lat="43.8931592" lon="12.2454344"><ele>693.0</ele><time>2026-04-12T07:34:03.608Z</time></trkpt><trkpt lat="43.8930009" lon="12.2454236"><ele>695.0</ele><time>2026-04-12T07:34:04.608Z</time></trkpt><trkpt lat="43.8928481" lon="12.2453831"><ele>695.0</ele><time>2026-04-12T07:34:05.609Z</time></trkpt><trkpt lat="43.8927016" lon="12.2453423"><ele>695.0</ele><time>2026-04-12T07:34:06.609Z</time></trkpt><trkpt lat="43.8925557" lon="12.2453316"><ele>695.0</ele><time>2026-04-12T07:34:07.609Z</time></trkpt><trkpt lat="43.8924082" lon="12.245367"><ele>695.0</ele><time>2026-04-12T07:34:08.609Z</time></trkpt><trkpt lat="43.8922657" lon="12.2454293"><ele>697.3333333333333</ele><time>2026-04-12T07:34:09.608Z</time></trkpt><trkpt lat="43.8921186" lon="12.2454908"><ele>699.6666666666666</ele><time>2026-04-12T07:34:10.609Z</time></trkpt><trkpt lat="43.891966" lon="12.245534"><ele>702.0</ele><time>2026-04-12T07:34:11.609Z</time></trkpt><trkpt lat="43.89182" lon="12.2455615"><ele>704.0</ele><time>2026-04-12T07:34:12.609Z</time></trkpt><trkpt lat="43.8916941" lon="12.2455726"><ele>706.0</ele><time>2026-04-12T07:34:13.608Z</time></trkpt><trkpt lat="43.8915708" lon="12.2455642"><ele>708.0</ele><time>2026-04-12T07:34:14.609Z</time></trkpt><trkpt lat="43.8914487" lon="12.2455153"><ele>710.0</ele><time>2026-04-12T07:34:15.609Z</time></trkpt><trkpt lat="43.8913275" lon="12.2454296"><ele>710.0</ele><time>2026-04-12T07:34:16.608Z</time></trkpt><trkpt lat="43.8912036" lon="12.245333"><ele>710.0</ele><time>2026-04-12T07:34:17.609Z</time></trkpt><trkpt lat="43.8910743" lon="12.2452531"><ele>710.0</ele><time>2026-04-12T07:34:18.609Z</time></trkpt><trkpt lat="43.8909385" lon="12.2452062"><ele>710.0</ele><time>2026-04-12T07:34:19.609Z</time></trkpt><trkpt lat="43.8908075" lon="12.2452053"><ele>710.75</ele><time>2026-04-12T07:34:20.609Z</time></trkpt><trkpt lat="43.8906842" lon="12.2452555"><ele>711.5</ele><time>2026-04-12T07:34:21.609Z</time></trkpt><trkpt lat="43.890563" lon="12.2453706"><ele>712.25</ele><time>2026-04-12T07:34:22.609Z</time></trkpt><trkpt lat="43.8904514" lon="12.2455309"><ele>713.0</ele><time>2026-04-12T07:34:23.609Z</time></trkpt><trkpt lat="43.8903355" lon="12.2457071"><ele>713.6666666666666</ele><time>2026-04-12T07:34:24.609Z</time></trkpt><trkpt lat="43.8902071" lon="12.2458747"><ele>714.3333333333334</ele><time>2026-04-12T07:34:25.608Z</time></trkpt><trkpt lat="43.8900507" lon="12.2460279"><ele>715.0</ele><time>2026-04-12T07:34:26.608Z</time></trkpt><trkpt lat="43.889876" lon="12.2461597"><ele>715.0</ele><time>2026-04-12T07:34:27.609Z</time></trkpt><trkpt lat="43.8896833" lon="12.2462884"><ele>715.0</ele><time>2026-04-12T07:34:28.609Z</time></trkpt><trkpt lat="43.8894929" lon="12.2464037"><ele>715.0</ele><time>2026-04-12T07:34:29.609Z</time></trkpt><trkpt lat="43.8893115" lon="12.2465106"><ele>716.6666666666667</ele><time>2026-04-12T07:34:30.609Z</time></trkpt><trkpt lat="43.8891428" lon="12.2466006"><ele>718.3333333333334</ele><time>2026-04-12T07:34:31.609Z</time></trkpt><trkpt lat="43.8889669" lon="12.2466825"><ele>720.0</ele><time>2026-04-12T07:34:32.609Z</time></trkpt><trkpt lat="43.8887816" lon="12.2467487"><ele>720.0</ele><time>2026-04-12T07:34:33.609Z</time></trkpt><trkpt lat="43.8885893" lon="12.246795"><ele>720.0</ele><time>2026-04-12T07:34:34.609Z</time></trkpt><trkpt lat="43.888401" lon="12.2468304"><ele>720.0</ele><time>2026-04-12T07:34:35.609Z</time></trkpt><trkpt lat="43.8882224" lon="12.246856"><ele>723.6666666666666</ele><time>2026-04-12T07:34:36.609Z</time></trkpt><trkpt lat="43.8880561" lon="12.2468728"><ele>727.3333333333333</ele><time>2026-04-12T07:34:37.608Z</time></trkpt><trkpt lat="43.8878885" lon="12.2468931"><ele>731.0</ele><time>2026-04-12T07:34:38.609Z</time></trkpt><trkpt lat="43.8877147" lon="12.2469395"><ele>729.3333333333333</ele><time>2026-04-12T07:34:39.608Z</time></trkpt><trkpt lat="43.8875228" lon="12.2470391"><ele>727.6666666666666</ele><time>2026-04-12T07:34:40.608Z</time></trkpt><trkpt lat="43.8873263" lon="12.247161"><ele>726.0</ele><time>2026-04-12T07:34:41.609Z</time></trkpt><trkpt lat="43.8871345" lon="12.2472845"><ele>725.6666666666666</ele><time>2026-04-12T07:34:42.608Z</time></trkpt><trkpt lat="43.8869432" lon="12.2473956"><ele>725.3333333333333</ele><time>2026-04-12T07:34:43.608Z</time></trkpt><trkpt lat="43.8867552" lon="12.2474921"><ele>725.0</ele><time>2026-04-12T07:34:44.609Z</time></trkpt><trkpt lat="43.8865683" lon="12.2475635"><ele>725.0</ele><time>2026-04-12T07:34:45.609Z</time></trkpt><trkpt lat="43.8863927" lon="12.2476009"><ele>725.0</ele><time>2026-04-12T07:34:46.609Z</time></trkpt><trkpt lat="43.886224" lon="12.247629"><ele>725.0</ele><time>2026-04-12T07:34:47.608Z</time></trkpt><trkpt lat="43.8860685" lon="12.2476558"><ele>728.0</ele><time>2026-04-12T07:34:48.608Z</time></trkpt><trkpt lat="43.8859246" lon="12.2477"><ele>731.0</ele><time>2026-04-12T07:34:49.609Z</time></trkpt><trkpt lat="43.8857851" lon="12.2477952"><ele>734.0</ele><time>2026-04-12T07:34:50.609Z</time></trkpt><trkpt lat="43.8856588" lon="12.2479395"><ele>734.0</ele><time>2026-04-12T07:34:51.608Z</time></trkpt><trkpt lat="43.8855477" lon="12.2480853"><ele>734.0</ele><time>2026-04-12T07:34:52.609Z</time></trkpt><trkpt lat="43.885437" lon="12.2482114"><ele>734.0</ele><time>2026-04-12T07:34:53.608Z</time></trkpt><trkpt lat="43.8853125" lon="12.2482866"><ele>734.0</ele><time>2026-04-12T07:34:54.608Z</time></trkpt><trkpt lat="43.885186" lon="12.248318"><ele>736.0</ele><time>2026-04-12T07:34:55.609Z</time></trkpt><trkpt lat="43.8850652" lon="12.2482962"><ele>738.0</ele><time>2026-04-12T07:34:56.609Z</time></trkpt><trkpt lat="43.8849515" lon="12.2482192"><ele>740.0</ele><time>2026-04-12T07:34:57.608Z</time></trkpt><trkpt lat="43.8848326" lon="12.2480904"><ele>742.0</ele><time>2026-04-12T07:34:58.608Z</time></trkpt><trkpt lat="43.8847078" lon="12.2479227"><ele>743.3333333333334</ele><time>2026-04-12T07:34:59.608Z</time></trkpt><trkpt lat="43.8845969" lon="12.2477426"><ele>744.6666666666666</ele><time>2026-04-12T07:35:00.609Z</time></trkpt><trkpt lat="43.8845022" lon="12.2475751"><ele>746.0</ele><time>2026-04-12T07:35:01.609Z</time></trkpt><trkpt lat="43.884423" lon="12.2474368"><ele>746.0</ele><time>2026-04-12T07:35:02.608Z</time></trkpt><trkpt lat="43.8843402" lon="12.2473454"><ele>746.0</ele><time>2026-04-12T07:35:03.608Z</time></trkpt><trkpt lat="43.8842438" lon="12.2472922"><ele>746.0</ele><time>2026-04-12T07:35:04.609Z</time></trkpt><trkpt lat="43.8841369" lon="12.2472874"><ele>746.0</ele><time>2026-04-12T07:35:05.608Z</time></trkpt><trkpt lat="43.8840243" lon="12.2473308"><ele>746.0</ele><time>2026-04-12T07:35:06.609Z</time></trkpt><trkpt lat="43.8839111" lon="12.247414"><ele>748.0</ele><time>2026-04-12T07:35:07.609Z</time></trkpt><trkpt lat="43.8837928" lon="12.247536"><ele>750.0</ele><time>2026-04-12T07:35:08.609Z</time></trkpt><trkpt lat="43.8836691" lon="12.2476507"><ele>752.0</ele><time>2026-04-12T07:35:09.608Z</time></trkpt><trkpt lat="43.8835433" lon="12.2477464"><ele>754.0</ele><time>2026-04-12T07:35:10.609Z</time></trkpt><trkpt lat="43.8834259" lon="12.2478181"><ele>756.4000000000001</ele><time>2026-04-12T07:35:11.609Z</time></trkpt><trkpt lat="43.8833216" lon="12.2478803"><ele>758.8</ele><time>2026-04-12T07:35:12.609Z</time></trkpt><trkpt lat="43.8832353" lon="12.2479189"><ele>761.2</ele><time>2026-04-12T07:35:13.608Z</time></trkpt><trkpt lat="43.8831543" lon="12.2479309"><ele>763.5999999999999</ele><time>2026-04-12T07:35:14.609Z</time></trkpt><trkpt lat="43.8830658" lon="12.2479036"><ele>766.0</ele><time>2026-04-12T07:35:15.609Z</time></trkpt><trkpt lat="43.8829759" lon="12.2478325"><ele>766.0</ele><time>2026-04-12T07:35:16.609Z</time></trkpt><trkpt lat="43.882888" lon="12.247698"><ele>766.0</ele><time>2026-04-12T07:35:17.608Z</time></trkpt><trkpt lat="43.8828" lon="12.2475036"><ele>766.0</ele><time>2026-04-12T07:35:18.609Z</time></trkpt><trkpt lat="43.8827057" lon="12.2472677"><ele>764.3333333333334</ele><time>2026-04-12T07:35:19.609Z</time></trkpt><trkpt lat="43.8826088" lon="12.2470485"><ele>762.6666666666666</ele><time>2026-04-12T07:35:20.608Z</time></trkpt><trkpt lat="43.8825171" lon="12.2468697"><ele>761.0</ele><time>2026-04-12T07:35:21.609Z</time></trkpt><trkpt lat="43.8824173" lon="12.2467319"><ele>761.0</ele><time>2026-04-12T07:35:22.608Z</time></trkpt><trkpt lat="43.882293" lon="12.2466298"><ele>761.0</ele><time>2026-04-12T07:35:23.608Z</time></trkpt><trkpt lat="43.8821375" lon="12.2465715"><ele>761.0</ele><time>2026-04-12T07:35:24.609Z</time></trkpt><trkpt lat="43.8819594" lon="12.2465372"><ele>761.0</ele><time>2026-04-12T07:35:25.609Z</time></trkpt><trkpt lat="43.8817724" lon="12.2465183"><ele>761.0</ele><time>2026-04-12T07:35:26.609Z</time></trkpt><trkpt lat="43.8815974" lon="12.2464955"><ele>761.0</ele><time>2026-04-12T07:35:27.608Z</time></trkpt><trkpt lat="43.8814241" lon="12.2464522"><ele>759.0</ele><time>2026-04-12T07:35:28.609Z</time></trkpt><trkpt lat="43.8812518" lon="12.2463733"><ele>757.0</ele><time>2026-04-12T07:35:29.609Z</time></trkpt><trkpt lat="43.8810721" lon="12.2462535"><ele>755.0</ele><time>2026-04-12T07:35:30.609Z</time></trkpt><trkpt lat="43.8808825" lon="12.2461024"><ele>754.0</ele><time>2026-04-12T07:35:31.609Z</time></trkpt><trkpt lat="43.8806865" lon="12.2459243"><ele>753.0</ele><time>2026-04-12T07:35:32.608Z</time></trkpt><trkpt lat="43.8804882" lon="12.2457386"><ele>748.5</ele><time>2026-04-12T07:35:33.608Z</time></trkpt><trkpt lat="43.8802942" lon="12.2455662"><ele>744.0</ele><time>2026-04-12T07:35:34.609Z</time></trkpt><trkpt lat="43.8801015" lon="12.245407"><ele>746.6666666666666</ele><time>2026-04-12T07:35:35.608Z</time></trkpt><trkpt lat="43.8799163" lon="12.2452478"><ele>749.3333333333333</ele><time>2026-04-12T07:35:36.608Z</time></trkpt><trkpt lat="43.8797336" lon="12.2450846"><ele>752.0</ele><time>2026-04-12T07:35:37.609Z</time></trkpt><trkpt lat="43.8795509" lon="12.2449292"><ele>751.0</ele><time>2026-04-12T07:35:38.609Z</time></trkpt><trkpt lat="43.8793668" lon="12.2447721"><ele>750.0</ele><time>2026-04-12T07:35:39.609Z</time></trkpt><trkpt lat="43.8791811" lon="12.2446164"><ele>749.0</ele><time>2026-04-12T07:35:40.609Z</time></trkpt><trkpt lat="43.8790067" lon="12.24447"><ele>749.0</ele><time>2026-04-12T07:35:41.608Z</time></trkpt><trkpt lat="43.87885" lon="12.244325"><ele>749.0</ele><time>2026-04-12T07:35:42.609Z</time></trkpt><trkpt lat="43.8786983" lon="12.2441817"><ele>749.0</ele><time>2026-04-12T07:35:43.609Z</time></trkpt><trkpt lat="43.8785533" lon="12.244055"><ele>747.3333333333333</ele><time>2026-04-12T07:35:44.608Z</time></trkpt><trkpt lat="43.8784" lon="12.243955"><ele>745.6666666666666</ele><time>2026-04-12T07:35:45.609Z</time></trkpt><trkpt lat="43.878235" lon="12.2438817"><ele>744.0</ele><time>2026-04-12T07:35:46.608Z</time></trkpt><trkpt lat="43.8780517" lon="12.2438333"><ele>744.0</ele><time>2026-04-12T07:35:47.608Z</time></trkpt><trkpt lat="43.877855" lon="12.243825"><ele>744.0</ele><time>2026-04-12T07:35:48.608Z</time></trkpt><trkpt lat="43.8776617" lon="12.2438567"><ele>744.0</ele><time>2026-04-12T07:35:49.609Z</time></trkpt><trkpt lat="43.8774683" lon="12.243885"><ele>742.6666666666666</ele><time>2026-04-12T07:35:50.608Z</time></trkpt><trkpt lat="43.8772767" lon="12.2438833"><ele>741.3333333333333</ele><time>2026-04-12T07:35:51.608Z</time></trkpt><trkpt lat="43.8770817" lon="12.2438417"><ele>740.0</ele><time>2026-04-12T07:35:52.609Z</time></trkpt><trkpt lat="43.8768833" lon="12.24378"><ele>742.3333333333333</ele><time>2026-04-12T07:35:53.609Z</time></trkpt><trkpt lat="43.8766983" lon="12.2436917"><ele>744.6666666666666</ele><time>2026-04-12T07:35:54.608Z</time></trkpt><trkpt lat="43.87653" lon="12.243585"><ele>747.0</ele><time>2026-04-12T07:35:55.609Z</time></trkpt><trkpt lat="43.8763717" lon="12.24346"><ele>747.0</ele><time>2026-04-12T07:35:56.609Z</time></trkpt><trkpt lat="43.8762083" lon="12.2433117"><ele>747.0</ele><time>2026-04-12T07:35:57.609Z</time></trkpt><trkpt lat="43.8760583" lon="12.2431233"><ele>747.0</ele><time>2026-04-12T07:35:58.608Z</time></trkpt><trkpt lat="43.875915" lon="12.2429133"><ele>748.0</ele><time>2026-04-12T07:35:59.609Z</time></trkpt><trkpt lat="43.8757867" lon="12.242675"><ele>749.0</ele><time>2026-04-12T07:36:00.608Z</time></trkpt><trkpt lat="43.8756667" lon="12.242405"><ele>750.0</ele><time>2026-04-12T07:36:01.609Z</time></trkpt><trkpt lat="43.8755617" lon="12.2421067"><ele>750.0</ele><time>2026-04-12T07:36:02.608Z</time></trkpt><trkpt lat="43.8754667" lon="12.24179"><ele>750.0</ele><time>2026-04-12T07:36:03.608Z</time></trkpt><trkpt lat="43.8753667" lon="12.241465"><ele>749.5</ele><time>2026-04-12T07:36:04.609Z</time></trkpt><trkpt lat="43.8752817" lon="12.2411483"><ele>749.0</ele><time>2026-04-12T07:36:05.608Z</time></trkpt><trkpt lat="43.8752033" lon="12.2408433"><ele>747.0</ele><time>2026-04-12T07:36:06.608Z</time></trkpt><trkpt lat="43.875125" lon="12.2405433"><ele>745.0</ele><time>2026-04-12T07:36:07.609Z</time></trkpt><trkpt lat="43.87503" lon="12.2402633"><ele>752.5</ele><time>2026-04-12T07:36:08.609Z</time></trkpt><trkpt lat="43.874915" lon="12.2399933"><ele>760.0</ele><time>2026-04-12T07:36:09.609Z</time></trkpt><trkpt lat="43.8747767" lon="12.2397283"><ele>760.0</ele><time>2026-04-12T07:36:10.608Z</time></trkpt><trkpt lat="43.8746317" lon="12.239465"><ele>760.0</ele><time>2026-04-12T07:36:11.608Z</time></trkpt><trkpt lat="43.874495" lon="12.23922"><ele>760.0</ele><time>2026-04-12T07:36:12.609Z</time></trkpt><trkpt lat="43.874355" lon="12.2389867"><ele>760.0</ele><time>2026-04-12T07:36:13.609Z</time></trkpt><trkpt lat="43.8742167" lon="12.2387867"><ele>760.0</ele><time>2026-04-12T07:36:14.609Z</time></trkpt><trkpt lat="43.8740617" lon="12.2386183"><ele>758.6666666666667</ele><time>2026-04-12T07:36:15.608Z</time></trkpt><trkpt lat="43.8738783" lon="12.23845"><ele>757.3333333333334</ele><time>2026-04-12T07:36:16.608Z</time></trkpt><trkpt lat="43.8737017" lon="12.2382967"><ele>756.0</ele><time>2026-04-12T07:36:17.609Z</time></trkpt><trkpt lat="43.8735333" lon="12.2381233"><ele>762.3333333333333</ele><time>2026-04-12T07:36:18.609Z</time></trkpt><trkpt lat="43.8733633" lon="12.2379417"><ele>768.6666666666666</ele><time>2026-04-12T07:36:19.609Z</time></trkpt><trkpt lat="43.8731967" lon="12.2377367"><ele>775.0</ele><time>2026-04-12T07:36:20.609Z</time></trkpt><trkpt lat="43.8730467" lon="12.2375367"><ele>775.0</ele><time>2026-04-12T07:36:21.608Z</time></trkpt><trkpt lat="43.872915" lon="12.2373433"><ele>775.0</ele><time>2026-04-12T07:36:22.609Z</time></trkpt><trkpt lat="43.8727917" lon="12.2371583"><ele>775.0</ele><time>2026-04-12T07:36:23.608Z</time></trkpt><trkpt lat="43.872665" lon="12.237005"><ele>778.6666666666666</ele><time>2026-04-12T07:36:24.608Z</time></trkpt><trkpt lat="43.87253" lon="12.23688"><ele>782.3333333333333</ele><time>2026-04-12T07:36:25.609Z</time></trkpt><trkpt lat="43.8724" lon="12.2367567"><ele>786.0</ele><time>2026-04-12T07:36:26.609Z</time></trkpt><trkpt lat="43.872275" lon="12.2366383"><ele>786.0</ele><time>2026-04-12T07:36:27.609Z</time></trkpt><trkpt lat="43.8721617" lon="12.2365167"><ele>786.0</ele><time>2026-04-12T07:36:28.609Z</time></trkpt><trkpt lat="43.8720667" lon="12.236395"><ele>786.0</ele><time>2026-04-12T07:36:29.609Z</time></trkpt><trkpt lat="43.871995" lon="12.23626"><ele>786.0</ele><time>2026-04-12T07:36:30.609Z</time></trkpt><trkpt lat="43.8719667" lon="12.2360933"><ele>785.6666666666667</ele><time>2026-04-12T07:36:31.609Z</time></trkpt><trkpt lat="43.87196" lon="12.2358967"><ele>785.3333333333334</ele><time>2026-04-12T07:36:32.609Z</time></trkpt><trkpt lat="43.8719233" lon="12.235665"><ele>785.0</ele><time>2026-04-12T07:36:33.609Z</time></trkpt><trkpt lat="43.8718567" lon="12.2354167"><ele>785.0</ele><time>2026-04-12T07:36:34.609Z</time></trkpt><trkpt lat="43.8717783" lon="12.2351567"><ele>785.0</ele><time>2026-04-12T07:36:35.608Z</time></trkpt><trkpt lat="43.8716817" lon="12.2349"><ele>785.0</ele><time>2026-04-12T07:36:36.609Z</time></trkpt><trkpt lat="43.8715967" lon="12.2346567"><ele>789.6666666666667</ele><time>2026-04-12T07:36:37.608Z</time></trkpt><trkpt lat="43.87152" lon="12.23441"><ele>794.3333333333333</ele><time>2026-04-12T07:36:38.609Z</time></trkpt><trkpt lat="43.871465" lon="12.234175"><ele>799.0</ele><time>2026-04-12T07:36:39.608Z</time></trkpt><trkpt lat="43.8714217" lon="12.233955"><ele>799.0</ele><time>2026-04-12T07:36:40.609Z</time></trkpt><trkpt lat="43.8713733" lon="12.2337317"><ele>799.0</ele><time>2026-04-12T07:36:41.609Z</time></trkpt><trkpt lat="43.871305" lon="12.2335167"><ele>799.0</ele><time>2026-04-12T07:36:42.608Z</time></trkpt><trkpt lat="43.8712167" lon="12.233295"><ele>797.6666666666666</ele><time>2026-04-12T07:36:43.609Z</time></trkpt><trkpt lat="43.8711217" lon="12.2330867"><ele>796.3333333333333</ele><time>2026-04-12T07:36:44.608Z</time></trkpt><trkpt lat="43.87103" lon="12.2328933"><ele>795.0</ele><time>2026-04-12T07:36:45.608Z</time></trkpt><trkpt lat="43.8709383" lon="12.2327017"><ele>796.3333333333333</ele><time>2026-04-12T07:36:46.608Z</time></trkpt><trkpt lat="43.87085" lon="12.232505"><ele>797.6666666666666</ele><time>2026-04-12T07:36:47.609Z</time></trkpt><trkpt lat="43.8707533" lon="12.2322983"><ele>799.0</ele><time>2026-04-12T07:36:48.609Z</time></trkpt><trkpt lat="43.8706483" lon="12.2320883"><ele>799.0</ele><time>2026-04-12T07:36:49.608Z</time></trkpt><trkpt lat="43.8705428" lon="12.2318757"><ele>799.0</ele><time>2026-04-12T07:36:50.609Z</time></trkpt><trkpt lat="43.8704355" lon="12.2316537"><ele>799.0</ele><time>2026-04-12T07:36:51.609Z</time></trkpt><trkpt lat="43.8703327" lon="12.2314323"><ele>801.0</ele><time>2026-04-12T07:36:52.608Z</time></trkpt><trkpt lat="43.8702391" lon="12.2312055"><ele>803.0</ele><time>2026-04-12T07:36:53.609Z</time></trkpt><trkpt lat="43.8701599" lon="12.2309638"><ele>805.0</ele><time>2026-04-12T07:36:54.609Z</time></trkpt><trkpt lat="43.870097" lon="12.2307048"><ele>802.6666666666666</ele><time>2026-04-12T07:36:55.609Z</time></trkpt><trkpt lat="43.8700532" lon="12.2304428"><ele>800.3333333333333</ele><time>2026-04-12T07:36:56.609Z</time></trkpt><trkpt lat="43.8700139" lon="12.2301883"><ele>798.0</ele><time>2026-04-12T07:36:57.609Z</time></trkpt><trkpt lat="43.8699778" lon="12.2299454"><ele>796.0</ele><time>2026-04-12T07:36:58.609Z</time></trkpt><trkpt lat="43.8699389" lon="12.2296942"><ele>794.0</ele><time>2026-04-12T07:36:59.61Z</time></trkpt><trkpt lat="43.8698982" lon="12.2294289"><ele>792.0</ele><time>2026-04-12T07:37:00.61Z</time></trkpt><trkpt lat="43.8698584" lon="12.2291506"><ele>789.0</ele><time>2026-04-12T07:37:01.609Z</time></trkpt><trkpt lat="43.869816" lon="12.2288682"><ele>786.0</ele><time>2026-04-12T07:37:02.61Z</time></trkpt><trkpt lat="43.8697737" lon="12.2285922"><ele>783.0</ele><time>2026-04-12T07:37:03.61Z</time></trkpt><trkpt lat="43.8697274" lon="12.2283249"><ele>780.6666666666667</ele><time>2026-04-12T07:37:04.61Z</time></trkpt><trkpt lat="43.8696868" lon="12.2280682"><ele>778.3333333333334</ele><time>2026-04-12T07:37:05.609Z</time></trkpt><trkpt lat="43.8696475" lon="12.2278107"><ele>776.0</ele><time>2026-04-12T07:37:06.61Z</time></trkpt><trkpt lat="43.8696106" lon="12.2275569"><ele>775.0</ele><time>2026-04-12T07:37:07.609Z</time></trkpt><trkpt lat="43.8695764" lon="12.2273042"><ele>774.0</ele><time>2026-04-12T07:37:08.61Z</time></trkpt><trkpt lat="43.869538" lon="12.2270577"><ele>773.0</ele><time>2026-04-12T07:37:09.61Z</time></trkpt><trkpt lat="43.8694882" lon="12.2268092"><ele>773.0</ele><time>2026-04-12T07:37:10.61Z</time></trkpt><trkpt lat="43.8694206" lon="12.2265512"><ele>773.0</ele><time>2026-04-12T07:37:11.609Z</time></trkpt><trkpt lat="43.8693438" lon="12.2262988"><ele>773.0</ele><time>2026-04-12T07:37:12.61Z</time></trkpt><trkpt lat="43.8692601" lon="12.2260658"><ele>773.3333333333334</ele><time>2026-04-12T07:37:13.61Z</time></trkpt><trkpt lat="43.8691711" lon="12.2258505"><ele>773.6666666666667</ele><time>2026-04-12T07:37:14.61Z</time></trkpt><trkpt lat="43.869089" lon="12.2256485"><ele>774.0</ele><time>2026-04-12T07:37:15.61Z</time></trkpt><trkpt lat="43.8690142" lon="12.2254524"><ele>774.0</ele><time>2026-04-12T07:37:16.61Z</time></trkpt><trkpt lat="43.8689393" lon="12.2252728"><ele>774.0</ele><time>2026-04-12T07:37:17.609Z</time></trkpt><trkpt lat="43.8688654" lon="12.2251028"><ele>774.0</ele><time>2026-04-12T07:37:18.609Z</time></trkpt><trkpt lat="43.8687734" lon="12.2249485"><ele>774.0</ele><time>2026-04-12T07:37:19.61Z</time></trkpt><trkpt lat="43.8686556" lon="12.2248044"><ele>773.0</ele><time>2026-04-12T07:37:20.609Z</time></trkpt><trkpt lat="43.8685115" lon="12.2246841"><ele>772.0</ele><time>2026-04-12T07:37:21.609Z</time></trkpt><trkpt lat="43.8683491" lon="12.2246007"><ele>771.0</ele><time>2026-04-12T07:37:22.61Z</time></trkpt><trkpt lat="43.8681754" lon="12.2245526"><ele>770.0</ele><time>2026-04-12T07:37:23.61Z</time></trkpt><trkpt lat="43.8680029" lon="12.224529"><ele>769.0</ele><time>2026-04-12T07:37:24.61Z</time></trkpt><trkpt lat="43.8678607" lon="12.2244977"><ele>768.0</ele><time>2026-04-12T07:37:25.609Z</time></trkpt><trkpt lat="43.8677392" lon="12.224468"><ele>767.0</ele><time>2026-04-12T07:37:26.609Z</time></trkpt><trkpt lat="43.867629" lon="12.2244389"><ele>767.0</ele><time>2026-04-12T07:37:27.61Z</time></trkpt><trkpt lat="43.8675367" lon="12.2244023"><ele>767.0</ele><time>2026-04-12T07:37:28.61Z</time></trkpt><trkpt lat="43.8674614" lon="12.2243431"><ele>767.0</ele><time>2026-04-12T07:37:29.609Z</time></trkpt><trkpt lat="43.8674312" lon="12.2242423"><ele>767.0</ele><time>2026-04-12T07:37:30.609Z</time></trkpt><trkpt lat="43.8674343" lon="12.2241261"><ele>767.0</ele><time>2026-04-12T07:37:31.61Z</time></trkpt><trkpt lat="43.8674893" lon="12.2240237"><ele>767.0</ele><time>2026-04-12T07:37:32.61Z</time></trkpt><trkpt lat="43.8675769" lon="12.2239519"><ele>764.4000000000001</ele><time>2026-04-12T07:37:33.609Z</time></trkpt><trkpt lat="43.867679" lon="12.2239208"><ele>761.8000000000001</ele><time>2026-04-12T07:37:34.61Z</time></trkpt><trkpt lat="43.8677963" lon="12.2239041"><ele>759.2</ele><time>2026-04-12T07:37:35.61Z</time></trkpt><trkpt lat="43.8679002" lon="12.2238587"><ele>756.6</ele><time>2026-04-12T07:37:36.61Z</time></trkpt><trkpt lat="43.8679717" lon="12.2237645"><ele>754.0</ele><time>2026-04-12T07:37:37.609Z</time></trkpt><trkpt lat="43.8679993" lon="12.2236313"><ele>754.0</ele><time>2026-04-12T07:37:38.609Z</time></trkpt><trkpt lat="43.8679731" lon="12.223485"><ele>754.0</ele><time>2026-04-12T07:37:39.61Z</time></trkpt><trkpt lat="43.8678969" lon="12.2233588"><ele>754.0</ele><time>2026-04-12T07:37:40.61Z</time></trkpt><trkpt lat="43.8677818" lon="12.2232696"><ele>754.0</ele><time>2026-04-12T07:37:41.61Z</time></trkpt><trkpt lat="43.8676374" lon="12.2232176"><ele>754.0</ele><time>2026-04-12T07:37:42.61Z</time></trkpt><trkpt lat="43.867484" lon="12.2231854"><ele>754.0</ele><time>2026-04-12T07:37:43.609Z</time></trkpt><trkpt lat="43.8673345" lon="12.2231542"><ele>754.0</ele><time>2026-04-12T07:37:44.61Z</time></trkpt><trkpt lat="43.8671969" lon="12.2231121"><ele>754.0</ele><time>2026-04-12T07:37:45.609Z</time></trkpt><trkpt lat="43.867071" lon="12.2230704"><ele>752.2</ele><time>2026-04-12T07:37:46.609Z</time></trkpt><trkpt lat="43.8669493" lon="12.2230359"><ele>750.4000000000001</ele><time>2026-04-12T07:37:47.61Z</time></trkpt><trkpt lat="43.866842" lon="12.2229953"><ele>748.6</ele><time>2026-04-12T07:37:48.61Z</time></trkpt><trkpt lat="43.8667536" lon="12.2229271"><ele>746.8</ele><time>2026-04-12T07:37:49.61Z</time></trkpt><trkpt lat="43.8666932" lon="12.2228302"><ele>745.0</ele><time>2026-04-12T07:37:50.609Z</time></trkpt><trkpt lat="43.8666771" lon="12.2227066"><ele>745.0</ele><time>2026-04-12T07:37:51.609Z</time></trkpt><trkpt lat="43.8667142" lon="12.2225839"><ele>745.0</ele><time>2026-04-12T07:37:52.61Z</time></trkpt><trkpt lat="43.8667945" lon="12.2224804"><ele>745.0</ele><time>2026-04-12T07:37:53.61Z</time></trkpt><trkpt lat="43.8669182" lon="12.2224104"><ele>745.0</ele><time>2026-04-12T07:37:54.61Z</time></trkpt><trkpt lat="43.8670662" lon="12.2223763"><ele>744.0</ele><time>2026-04-12T07:37:55.61Z</time></trkpt><trkpt lat="43.8672054" lon="12.2223298"><ele>743.0</ele><time>2026-04-12T07:37:56.61Z</time></trkpt><trkpt lat="43.8673236" lon="12.2222375"><ele>742.0</ele><time>2026-04-12T07:37:57.61Z</time></trkpt><trkpt lat="43.8674121" lon="12.2221068"><ele>741.0</ele><time>2026-04-12T07:37:58.61Z</time></trkpt><trkpt lat="43.8674697" lon="12.2219508"><ele>738.75</ele><time>2026-04-12T07:37:59.609Z</time></trkpt><trkpt lat="43.867496" lon="12.2217744"><ele>736.5</ele><time>2026-04-12T07:38:00.61Z</time></trkpt><trkpt lat="43.867494" lon="12.2216013"><ele>734.25</ele><time>2026-04-12T07:38:01.609Z</time></trkpt><trkpt lat="43.8674613" lon="12.2214446"><ele>732.0</ele><time>2026-04-12T07:38:02.609Z</time></trkpt><trkpt lat="43.8673986" lon="12.2213068"><ele>729.25</ele><time>2026-04-12T07:38:03.609Z</time></trkpt><trkpt lat="43.8673034" lon="12.2211879"><ele>726.5</ele><time>2026-04-12T07:38:04.609Z</time></trkpt><trkpt lat="43.8671878" lon="12.2210873"><ele>723.75</ele><time>2026-04-12T07:38:05.61Z</time></trkpt><trkpt lat="43.8670407" lon="12.2210329"><ele>721.0</ele><time>2026-04-12T07:38:06.609Z</time></trkpt><trkpt lat="43.8668783" lon="12.221013"><ele>721.3333333333334</ele><time>2026-04-12T07:38:07.61Z</time></trkpt><trkpt lat="43.8667178" lon="12.2210126"><ele>721.6666666666666</ele><time>2026-04-12T07:38:08.61Z</time></trkpt><trkpt lat="43.8665634" lon="12.221008"><ele>722.0</ele><time>2026-04-12T07:38:09.609Z</time></trkpt><trkpt lat="43.8664112" lon="12.2210001"><ele>722.0</ele><time>2026-04-12T07:38:10.61Z</time></trkpt><trkpt lat="43.8662626" lon="12.2209874"><ele>722.0</ele><time>2026-04-12T07:38:11.609Z</time></trkpt><trkpt lat="43.8661155" lon="12.2209592"><ele>722.0</ele><time>2026-04-12T07:38:12.61Z</time></trkpt><trkpt lat="43.8659816" lon="12.2209057"><ele>722.0</ele><time>2026-04-12T07:38:13.61Z</time></trkpt><trkpt lat="43.8658644" lon="12.2208371"><ele>722.6</ele><time>2026-04-12T07:38:14.61Z</time></trkpt><trkpt lat="43.8657611" lon="12.2207586"><ele>723.2</ele><time>2026-04-12T07:38:15.61Z</time></trkpt><trkpt lat="43.8656653" lon="12.2206995"><ele>723.8</ele><time>2026-04-12T07:38:16.609Z</time></trkpt><trkpt lat="43.865568" lon="12.2206772"><ele>724.4</ele><time>2026-04-12T07:38:17.61Z</time></trkpt><trkpt lat="43.8654628" lon="12.220713"><ele>725.0</ele><time>2026-04-12T07:38:18.61Z</time></trkpt><trkpt lat="43.8653528" lon="12.2207765"><ele>725.0</ele><time>2026-04-12T07:38:19.61Z</time></trkpt><trkpt lat="43.8652397" lon="12.2208309"><ele>725.0</ele><time>2026-04-12T07:38:20.61Z</time></trkpt><trkpt lat="43.8651118" lon="12.220828"><ele>725.0</ele><time>2026-04-12T07:38:21.609Z</time></trkpt><trkpt lat="43.8649729" lon="12.2207548"><ele>725.0</ele><time>2026-04-12T07:38:22.61Z</time></trkpt><trkpt lat="43.8648271" lon="12.2206506"><ele>720.25</ele><time>2026-04-12T07:38:23.609Z</time></trkpt><trkpt lat="43.8646927" lon="12.2205447"><ele>715.5</ele><time>2026-04-12T07:38:24.61Z</time></trkpt><trkpt lat="43.8645635" lon="12.2204473"><ele>710.75</ele><time>2026-04-12T07:38:25.609Z</time></trkpt><trkpt lat="43.8644461" lon="12.2203629"><ele>706.0</ele><time>2026-04-12T07:38:26.61Z</time></trkpt><trkpt lat="43.8643412" lon="12.22029"><ele>706.4</ele><time>2026-04-12T07:38:27.61Z</time></trkpt><trkpt lat="43.8642604" lon="12.2202084"><ele>706.8</ele><time>2026-04-12T07:38:28.61Z</time></trkpt><trkpt lat="43.8642074" lon="12.2200999"><ele>707.1999999999999</ele><time>2026-04-12T07:38:29.61Z</time></trkpt><trkpt lat="43.8642133" lon="12.2199567"><ele>707.5999999999999</ele><time>2026-04-12T07:38:30.609Z</time></trkpt><trkpt lat="43.864265" lon="12.2198283"><ele>708.0</ele><time>2026-04-12T07:38:31.61Z</time></trkpt><trkpt lat="43.8643533" lon="12.2197183"><ele>705.2</ele><time>2026-04-12T07:38:32.61Z</time></trkpt><trkpt lat="43.86445" lon="12.219635"><ele>702.4</ele><time>2026-04-12T07:38:33.61Z</time></trkpt><trkpt lat="43.86454" lon="12.219555"><ele>699.6</ele><time>2026-04-12T07:38:34.61Z</time></trkpt><trkpt lat="43.8646183" lon="12.2194483"><ele>696.8000000000001</ele><time>2026-04-12T07:38:35.609Z</time></trkpt><trkpt lat="43.8646617" lon="12.2193117"><ele>694.0</ele><time>2026-04-12T07:38:36.609Z</time></trkpt><trkpt lat="43.8646633" lon="12.2191583"><ele>694.0</ele><time>2026-04-12T07:38:37.61Z</time></trkpt><trkpt lat="43.8646317" lon="12.219"><ele>694.0</ele><time>2026-04-12T07:38:38.61Z</time></trkpt><trkpt lat="43.86459" lon="12.218845"><ele>694.0</ele><time>2026-04-12T07:38:39.61Z</time></trkpt><trkpt lat="43.8645517" lon="12.2186817"><ele>694.0</ele><time>2026-04-12T07:38:40.61Z</time></trkpt><trkpt lat="43.8645267" lon="12.2184967"><ele>692.0</ele><time>2026-04-12T07:38:41.61Z</time></trkpt><trkpt lat="43.864525" lon="12.2182983"><ele>690.0</ele><time>2026-04-12T07:38:42.609Z</time></trkpt><trkpt lat="43.8645417" lon="12.2181083"><ele>688.0</ele><time>2026-04-12T07:38:43.61Z</time></trkpt><trkpt lat="43.86457" lon="12.2179233"><ele>686.0</ele><time>2026-04-12T07:38:44.61Z</time></trkpt><trkpt lat="43.8646017" lon="12.217735"><ele>684.0</ele><time>2026-04-12T07:38:45.61Z</time></trkpt><trkpt lat="43.8646233" lon="12.2175517"><ele>682.0</ele><time>2026-04-12T07:38:46.61Z</time></trkpt><trkpt lat="43.864645" lon="12.2173783"><ele>680.0</ele><time>2026-04-12T07:38:47.609Z</time></trkpt><trkpt lat="43.86465" lon="12.2172133"><ele>678.0</ele><time>2026-04-12T07:38:48.609Z</time></trkpt><trkpt lat="43.8646217" lon="12.2170467"><ele>676.5</ele><time>2026-04-12T07:38:49.61Z</time></trkpt><trkpt lat="43.8645733" lon="12.21688"><ele>675.0</ele><time>2026-04-12T07:38:50.61Z</time></trkpt><trkpt lat="43.8645217" lon="12.2167317"><ele>673.5</ele><time>2026-04-12T07:38:51.61Z</time></trkpt><trkpt lat="43.8644583" lon="12.2165933"><ele>672.0</ele><time>2026-04-12T07:38:52.609Z</time></trkpt><trkpt lat="43.8643767" lon="12.2164867"><ele>670.0</ele><time>2026-04-12T07:38:53.609Z</time></trkpt><trkpt lat="43.8642783" lon="12.2164133"><ele>668.0</ele><time>2026-04-12T07:38:54.61Z</time></trkpt><trkpt lat="43.8641617" lon="12.216375"><ele>666.0</ele><time>2026-04-12T07:38:55.61Z</time></trkpt><trkpt lat="43.86403" lon="12.2163733"><ele>664.0</ele><time>2026-04-12T07:38:56.609Z</time></trkpt><trkpt lat="43.8638767" lon="12.216415"><ele>664.0</ele><time>2026-04-12T07:38:57.61Z</time></trkpt><trkpt lat="43.8637233" lon="12.216465"><ele>664.0</ele><time>2026-04-12T07:38:58.61Z</time></trkpt><trkpt lat="43.8635733" lon="12.2165117"><ele>664.0</ele><time>2026-04-12T07:38:59.61Z</time></trkpt><trkpt lat="43.863445" lon="12.2165633"><ele>664.0</ele><time>2026-04-12T07:39:00.61Z</time></trkpt><trkpt lat="43.863335" lon="12.2166117"><ele>664.6</ele><time>2026-04-12T07:39:01.61Z</time></trkpt><trkpt lat="43.8632317" lon="12.2166483"><ele>665.2</ele><time>2026-04-12T07:39:02.61Z</time></trkpt><trkpt lat="43.86314" lon="12.2166833"><ele>665.8000000000001</ele><time>2026-04-12T07:39:03.609Z</time></trkpt><trkpt lat="43.8630633" lon="12.2167067"><ele>666.4000000000001</ele><time>2026-04-12T07:39:04.61Z</time></trkpt><trkpt lat="43.8629964" lon="12.2166981"><ele>667.0</ele><time>2026-04-12T07:39:05.609Z</time></trkpt><trkpt lat="43.8629388" lon="12.2165478"><ele>664.8</ele><time>2026-04-12T07:39:07.61Z</time></trkpt><trkpt lat="43.8629657" lon="12.2164207"><ele>662.6</ele><time>2026-04-12T07:39:08.609Z</time></trkpt><trkpt lat="43.8630128" lon="12.2162763"><ele>660.4</ele><time>2026-04-12T07:39:09.609Z</time></trkpt><trkpt lat="43.8630555" lon="12.2161193"><ele>658.1999999999999</ele><time>2026-04-12T07:39:10.61Z</time></trkpt><trkpt lat="43.8630726" lon="12.2159564"><ele>656.0</ele><time>2026-04-12T07:39:11.61Z</time></trkpt><trkpt lat="43.8630811" lon="12.2157976"><ele>653.25</ele><time>2026-04-12T07:39:12.609Z</time></trkpt><trkpt lat="43.8631235" lon="12.2156434"><ele>650.5</ele><time>2026-04-12T07:39:13.61Z</time></trkpt><trkpt lat="43.8632105" lon="12.2154986"><ele>647.75</ele><time>2026-04-12T07:39:14.609Z</time></trkpt><trkpt lat="43.8633074" lon="12.2153752"><ele>645.0</ele><time>2026-04-12T07:39:15.61Z</time></trkpt><trkpt lat="43.8633937" lon="12.2152461"><ele>644.25</ele><time>2026-04-12T07:39:16.609Z</time></trkpt><trkpt lat="43.8634668" lon="12.2150994"><ele>643.5</ele><time>2026-04-12T07:39:17.61Z</time></trkpt><trkpt lat="43.8635222" lon="12.2149405"><ele>642.75</ele><time>2026-04-12T07:39:18.61Z</time></trkpt><trkpt lat="43.8635614" lon="12.2147743"><ele>642.0</ele><time>2026-04-12T07:39:19.609Z</time></trkpt><trkpt lat="43.8635929" lon="12.2145955"><ele>642.0</ele><time>2026-04-12T07:39:20.609Z</time></trkpt><trkpt lat="43.8636173" lon="12.2144109"><ele>642.0</ele><time>2026-04-12T07:39:21.609Z</time></trkpt><trkpt lat="43.8636231" lon="12.2142169"><ele>642.0</ele><time>2026-04-12T07:39:22.61Z</time></trkpt><trkpt lat="43.8636099" lon="12.214024"><ele>642.0</ele><time>2026-04-12T07:39:23.61Z</time></trkpt><trkpt lat="43.8635803" lon="12.2138418"><ele>639.6</ele><time>2026-04-12T07:39:24.61Z</time></trkpt><trkpt lat="43.86355" lon="12.2136831"><ele>637.2</ele><time>2026-04-12T07:39:25.609Z</time></trkpt><trkpt lat="43.8635328" lon="12.2135469"><ele>634.8</ele><time>2026-04-12T07:39:26.61Z</time></trkpt><trkpt lat="43.8635443" lon="12.2134263"><ele>632.4</ele><time>2026-04-12T07:39:27.61Z</time></trkpt><trkpt lat="43.8635943" lon="12.21332"><ele>630.0</ele><time>2026-04-12T07:39:28.61Z</time></trkpt><trkpt lat="43.8636818" lon="12.2132213"><ele>627.5</ele><time>2026-04-12T07:39:29.61Z</time></trkpt><trkpt lat="43.8638" lon="12.2131406"><ele>625.0</ele><time>2026-04-12T07:39:30.609Z</time></trkpt><trkpt lat="43.8639189" lon="12.2130686"><ele>622.5</ele><time>2026-04-12T07:39:31.61Z</time></trkpt><trkpt lat="43.8640192" lon="12.2130053"><ele>620.0</ele><time>2026-04-12T07:39:32.609Z</time></trkpt><trkpt lat="43.8640978" lon="12.2129529"><ele>620.0</ele><time>2026-04-12T07:39:33.61Z</time></trkpt><trkpt lat="43.8641596" lon="12.2128962"><ele>620.0</ele><time>2026-04-12T07:39:34.61Z</time></trkpt><trkpt lat="43.8641941" lon="12.2128231"><ele>620.0</ele><time>2026-04-12T07:39:35.61Z</time></trkpt><trkpt lat="43.8641847" lon="12.2127322"><ele>620.0</ele><time>2026-04-12T07:39:36.609Z</time></trkpt><trkpt lat="43.8641241" lon="12.2126563"><ele>620.0</ele><time>2026-04-12T07:39:37.61Z</time></trkpt><trkpt lat="43.8640306" lon="12.2126177"><ele>620.0</ele><time>2026-04-12T07:39:38.61Z</time></trkpt><trkpt lat="43.8639305" lon="12.212623"><ele>620.0</ele><time>2026-04-12T07:39:39.609Z</time></trkpt><trkpt lat="43.8638274" lon="12.2126645"><ele>620.0</ele><time>2026-04-12T07:39:40.609Z</time></trkpt><trkpt lat="43.8637271" lon="12.2127147"><ele>620.0</ele><time>2026-04-12T07:39:41.61Z</time></trkpt><trkpt lat="43.8636347" lon="12.2127584"><ele>620.0</ele><time>2026-04-12T07:39:42.61Z</time></trkpt><trkpt lat="43.8635609" lon="12.2127852"><ele>620.0</ele><time>2026-04-12T07:39:43.609Z</time></trkpt><trkpt lat="43.8634555" lon="12.2127648"><ele>620.0</ele><time>2026-04-12T07:39:45.61Z</time></trkpt><trkpt lat="43.8634417" lon="12.2125856"><ele>620.0</ele><time>2026-04-12T07:39:47.61Z</time></trkpt><trkpt lat="43.8634882" lon="12.2124513"><ele>620.0</ele><time>2026-04-12T07:39:48.609Z</time></trkpt><trkpt lat="43.863547" lon="12.2123172"><ele>620.0</ele><time>2026-04-12T07:39:49.609Z</time></trkpt><trkpt lat="43.8636032" lon="12.2121905"><ele>617.8</ele><time>2026-04-12T07:39:50.61Z</time></trkpt><trkpt lat="43.8636552" lon="12.2120716"><ele>615.6</ele><time>2026-04-12T07:39:51.61Z</time></trkpt><trkpt lat="43.8637019" lon="12.2119584"><ele>613.4</ele><time>2026-04-12T07:39:52.61Z</time></trkpt><trkpt lat="43.8637412" lon="12.2118429"><ele>611.2</ele><time>2026-04-12T07:39:53.609Z</time></trkpt><trkpt lat="43.8637794" lon="12.2117241"><ele>609.0</ele><time>2026-04-12T07:39:54.609Z</time></trkpt><trkpt lat="43.8638149" lon="12.2116024"><ele>608.4</ele><time>2026-04-12T07:39:55.61Z</time></trkpt><trkpt lat="43.8638546" lon="12.2114696"><ele>607.8</ele><time>2026-04-12T07:39:56.609Z</time></trkpt><trkpt lat="43.8638887" lon="12.2113309"><ele>607.2</ele><time>2026-04-12T07:39:57.61Z</time></trkpt><trkpt lat="43.8639096" lon="12.2111844"><ele>606.6</ele><time>2026-04-12T07:39:58.609Z</time></trkpt><trkpt lat="43.8639035" lon="12.2110296"><ele>606.0</ele><time>2026-04-12T07:39:59.61Z</time></trkpt><trkpt lat="43.8638856" lon="12.2108759"><ele>606.0</ele><time>2026-04-12T07:40:00.61Z</time></trkpt><trkpt lat="43.8638609" lon="12.2107146"><ele>606.0</ele><time>2026-04-12T07:40:01.61Z</time></trkpt><trkpt lat="43.8638306" lon="12.2105554"><ele>606.0</ele><time>2026-04-12T07:40:02.61Z</time></trkpt><trkpt lat="43.8638115" lon="12.2104093"><ele>606.0</ele><time>2026-04-12T07:40:03.61Z</time></trkpt><trkpt lat="43.8637945" lon="12.2102591"><ele>605.0</ele><time>2026-04-12T07:40:04.61Z</time></trkpt><trkpt lat="43.8637631" lon="12.2101109"><ele>604.0</ele><time>2026-04-12T07:40:05.61Z</time></trkpt><trkpt lat="43.8637349" lon="12.209962"><ele>603.0</ele><time>2026-04-12T07:40:06.61Z</time></trkpt><trkpt lat="43.8637104" lon="12.2098138"><ele>602.0</ele><time>2026-04-12T07:40:07.61Z</time></trkpt><trkpt lat="43.8636893" lon="12.2096631"><ele>601.0</ele><time>2026-04-12T07:40:08.61Z</time></trkpt><trkpt lat="43.8636652" lon="12.2095191"><ele>599.2</ele><time>2026-04-12T07:40:09.61Z</time></trkpt><trkpt lat="43.8636409" lon="12.2093679"><ele>597.4000000000001</ele><time>2026-04-12T07:40:10.61Z</time></trkpt><trkpt lat="43.8636032" lon="12.2092187"><ele>595.6</ele><time>2026-04-12T07:40:11.609Z</time></trkpt><trkpt lat="43.8635467" lon="12.2090833"><ele>593.8000000000001</ele><time>2026-04-12T07:40:12.61Z</time></trkpt><trkpt lat="43.86348" lon="12.2089683"><ele>592.0</ele><time>2026-04-12T07:40:13.609Z</time></trkpt><trkpt lat="43.8633983" lon="12.2088667"><ele>589.5</ele><time>2026-04-12T07:40:14.609Z</time></trkpt><trkpt lat="43.8633" lon="12.2087683"><ele>587.0</ele><time>2026-04-12T07:40:15.609Z</time></trkpt><trkpt lat="43.8632" lon="12.2086933"><ele>584.5</ele><time>2026-04-12T07:40:16.609Z</time></trkpt><trkpt lat="43.8631033" lon="12.208615"><ele>582.0</ele><time>2026-04-12T07:40:17.609Z</time></trkpt><trkpt lat="43.86302" lon="12.2085317"><ele>582.0</ele><time>2026-04-12T07:40:18.61Z</time></trkpt><trkpt lat="43.862945" lon="12.2084183"><ele>582.0</ele><time>2026-04-12T07:40:19.61Z</time></trkpt><trkpt lat="43.86289" lon="12.2082917"><ele>582.0</ele><time>2026-04-12T07:40:20.609Z</time></trkpt><trkpt lat="43.8628533" lon="12.2081367"><ele>582.0</ele><time>2026-04-12T07:40:21.609Z</time></trkpt><trkpt lat="43.8628333" lon="12.2079633"><ele>580.3333333333334</ele><time>2026-04-12T07:40:22.609Z</time></trkpt><trkpt lat="43.8628367" lon="12.2077733"><ele>578.6666666666667</ele><time>2026-04-12T07:40:23.61Z</time></trkpt><trkpt lat="43.86285" lon="12.207545"><ele>577.0</ele><time>2026-04-12T07:40:24.61Z</time></trkpt><trkpt lat="43.8628633" lon="12.207305"><ele>575.0</ele><time>2026-04-12T07:40:25.61Z</time></trkpt><trkpt lat="43.86288" lon="12.207065"><ele>573.0</ele><time>2026-04-12T07:40:26.609Z</time></trkpt><trkpt lat="43.8628933" lon="12.2068383"><ele>571.0</ele><time>2026-04-12T07:40:27.61Z</time></trkpt><trkpt lat="43.8629133" lon="12.20662"><ele>570.0</ele><time>2026-04-12T07:40:28.609Z</time></trkpt><trkpt lat="43.8629233" lon="12.2063983"><ele>569.0</ele><time>2026-04-12T07:40:29.61Z</time></trkpt><trkpt lat="43.8629217" lon="12.2061683"><ele>568.0</ele><time>2026-04-12T07:40:30.609Z</time></trkpt><trkpt lat="43.86291" lon="12.2059283"><ele>568.0</ele><time>2026-04-12T07:40:31.61Z</time></trkpt><trkpt lat="43.8628733" lon="12.2057083"><ele>568.0</ele><time>2026-04-12T07:40:32.609Z</time></trkpt><trkpt lat="43.862835" lon="12.20551"><ele>568.0</ele><time>2026-04-12T07:40:33.61Z</time></trkpt><trkpt lat="43.862785" lon="12.2053233"><ele>567.25</ele><time>2026-04-12T07:40:34.61Z</time></trkpt><trkpt lat="43.8627383" lon="12.2051483"><ele>566.5</ele><time>2026-04-12T07:40:35.61Z</time></trkpt><trkpt lat="43.8626783" lon="12.2049783"><ele>565.75</ele><time>2026-04-12T07:40:36.61Z</time></trkpt><trkpt lat="43.86259" lon="12.2048117"><ele>565.0</ele><time>2026-04-12T07:40:37.61Z</time></trkpt><trkpt lat="43.8624833" lon="12.2046367"><ele>565.0</ele><time>2026-04-12T07:40:38.609Z</time></trkpt><trkpt lat="43.8623783" lon="12.204455"><ele>565.0</ele><time>2026-04-12T07:40:39.61Z</time></trkpt><trkpt lat="43.8622817" lon="12.2042933"><ele>565.0</ele><time>2026-04-12T07:40:40.61Z</time></trkpt><trkpt lat="43.8621933" lon="12.2041367"><ele>564.0</ele><time>2026-04-12T07:40:41.61Z</time></trkpt><trkpt lat="43.862105" lon="12.2039817"><ele>563.0</ele><time>2026-04-12T07:40:42.61Z</time></trkpt><trkpt lat="43.86205" lon="12.2038117"><ele>562.0</ele><time>2026-04-12T07:40:43.609Z</time></trkpt><trkpt lat="43.862005" lon="12.2036233"><ele>561.0</ele><time>2026-04-12T07:40:44.609Z</time></trkpt><trkpt lat="43.861985" lon="12.2034367"><ele>561.0</ele><time>2026-04-12T07:40:45.609Z</time></trkpt><trkpt lat="43.8619853" lon="12.2032362"><ele>561.0</ele><time>2026-04-12T07:40:46.61Z</time></trkpt><trkpt lat="43.8620297" lon="12.203026"><ele>561.0</ele><time>2026-04-12T07:40:47.61Z</time></trkpt><trkpt lat="43.8621044" lon="12.2028118"><ele>558.0</ele><time>2026-04-12T07:40:48.61Z</time></trkpt><trkpt lat="43.8622017" lon="12.2026036"><ele>555.0</ele><time>2026-04-12T07:40:49.61Z</time></trkpt><trkpt lat="43.862299" lon="12.2024106"><ele>552.0</ele><time>2026-04-12T07:40:50.61Z</time></trkpt><trkpt lat="43.8623896" lon="12.2022286"><ele>549.6666666666666</ele><time>2026-04-12T07:40:51.61Z</time></trkpt><trkpt lat="43.8624911" lon="12.2020634"><ele>547.3333333333333</ele><time>2026-04-12T07:40:52.61Z</time></trkpt><trkpt lat="43.8626048" lon="12.2019106"><ele>545.0</ele><time>2026-04-12T07:40:53.61Z</time></trkpt><trkpt lat="43.8627302" lon="12.201772"><ele>544.0</ele><time>2026-04-12T07:40:54.61Z</time></trkpt><trkpt lat="43.8628626" lon="12.201648"><ele>543.0</ele><time>2026-04-12T07:40:55.609Z</time></trkpt><trkpt lat="43.8629937" lon="12.2015356"><ele>542.0</ele><time>2026-04-12T07:40:56.61Z</time></trkpt><trkpt lat="43.8631172" lon="12.2014297"><ele>541.0</ele><time>2026-04-12T07:40:57.611Z</time></trkpt><trkpt lat="43.8632323" lon="12.2013181"><ele>540.0</ele><time>2026-04-12T07:40:58.611Z</time></trkpt><trkpt lat="43.8633437" lon="12.2012145"><ele>539.0</ele><time>2026-04-12T07:40:59.611Z</time></trkpt><trkpt lat="43.8634432" lon="12.2011054"><ele>538.0</ele><time>2026-04-12T07:41:00.61Z</time></trkpt><trkpt lat="43.8635342" lon="12.2009889"><ele>536.25</ele><time>2026-04-12T07:41:01.61Z</time></trkpt><trkpt lat="43.8636035" lon="12.2008463"><ele>534.5</ele><time>2026-04-12T07:41:02.611Z</time></trkpt><trkpt lat="43.8636473" lon="12.2006925"><ele>532.75</ele><time>2026-04-12T07:41:03.611Z</time></trkpt><trkpt lat="43.8636663" lon="12.2005396"><ele>531.0</ele><time>2026-04-12T07:41:04.611Z</time></trkpt><trkpt lat="43.8636532" lon="12.200382"><ele>531.25</ele><time>2026-04-12T07:41:05.611Z</time></trkpt><trkpt lat="43.8635991" lon="12.2002286"><ele>531.5</ele><time>2026-04-12T07:41:06.611Z</time></trkpt><trkpt lat="43.8635064" lon="12.2000723"><ele>531.75</ele><time>2026-04-12T07:41:07.611Z</time></trkpt><trkpt lat="43.863404" lon="12.1999211"><ele>532.0</ele><time>2026-04-12T07:41:08.61Z</time></trkpt><trkpt lat="43.8633101" lon="12.1997817"><ele>530.5</ele><time>2026-04-12T07:41:09.611Z</time></trkpt><trkpt lat="43.8632225" lon="12.1996449"><ele>529.0</ele><time>2026-04-12T07:41:10.61Z</time></trkpt><trkpt lat="43.8631358" lon="12.1995069"><ele>527.5</ele><time>2026-04-12T07:41:11.61Z</time></trkpt><trkpt lat="43.8630469" lon="12.1993755"><ele>526.0</ele><time>2026-04-12T07:41:12.611Z</time></trkpt><trkpt lat="43.8629528" lon="12.1992514"><ele>526.0</ele><time>2026-04-12T07:41:13.61Z</time></trkpt><trkpt lat="43.862855" lon="12.1991294"><ele>526.0</ele><time>2026-04-12T07:41:14.611Z</time></trkpt><trkpt lat="43.8627564" lon="12.1990051"><ele>526.0</ele><time>2026-04-12T07:41:15.611Z</time></trkpt><trkpt lat="43.8626572" lon="12.1988822"><ele>526.0</ele><time>2026-04-12T07:41:16.611Z</time></trkpt><trkpt lat="43.8625582" lon="12.1987751"><ele>524.75</ele><time>2026-04-12T07:41:17.611Z</time></trkpt><trkpt lat="43.8624457" lon="12.1987003"><ele>523.5</ele><time>2026-04-12T07:41:18.611Z</time></trkpt><trkpt lat="43.8623147" lon="12.1986627"><ele>522.25</ele><time>2026-04-12T07:41:19.611Z</time></trkpt><trkpt lat="43.862173" lon="12.1986635"><ele>521.0</ele><time>2026-04-12T07:41:20.611Z</time></trkpt><trkpt lat="43.8620331" lon="12.1986874"><ele>521.0</ele><time>2026-04-12T07:41:21.611Z</time></trkpt><trkpt lat="43.8619064" lon="12.198693"><ele>521.0</ele><time>2026-04-12T07:41:22.611Z</time></trkpt><trkpt lat="43.8617891" lon="12.1986574"><ele>521.0</ele><time>2026-04-12T07:41:23.611Z</time></trkpt><trkpt lat="43.8616872" lon="12.198572"><ele>521.0</ele><time>2026-04-12T07:41:24.61Z</time></trkpt><trkpt lat="43.8616084" lon="12.1984349"><ele>521.0</ele><time>2026-04-12T07:41:25.611Z</time></trkpt><trkpt lat="43.8615581" lon="12.1982711"><ele>521.0</ele><time>2026-04-12T07:41:26.611Z</time></trkpt><trkpt lat="43.8615198" lon="12.1980968"><ele>521.0</ele><time>2026-04-12T07:41:27.611Z</time></trkpt><trkpt lat="43.8614759" lon="12.1979112"><ele>521.0</ele><time>2026-04-12T07:41:28.611Z</time></trkpt><trkpt lat="43.8614246" lon="12.1977347"><ele>520.0</ele><time>2026-04-12T07:41:29.611Z</time></trkpt><trkpt lat="43.8613757" lon="12.1975589"><ele>519.0</ele><time>2026-04-12T07:41:30.61Z</time></trkpt><trkpt lat="43.8613345" lon="12.1973918"><ele>518.0</ele><time>2026-04-12T07:41:31.611Z</time></trkpt><trkpt lat="43.8613012" lon="12.1972285"><ele>517.0</ele><time>2026-04-12T07:41:32.61Z</time></trkpt><trkpt lat="43.8612824" lon="12.1970688"><ele>516.0</ele><time>2026-04-12T07:41:33.611Z</time></trkpt><trkpt lat="43.8612864" lon="12.1969085"><ele>515.0</ele><time>2026-04-12T07:41:34.61Z</time></trkpt><trkpt lat="43.8613199" lon="12.196748"><ele>514.0</ele><time>2026-04-12T07:41:35.61Z</time></trkpt><trkpt lat="43.8613988" lon="12.1965837"><ele>513.0</ele><time>2026-04-12T07:41:36.61Z</time></trkpt><trkpt lat="43.8614998" lon="12.1964198"><ele>510.0</ele><time>2026-04-12T07:41:37.611Z</time></trkpt><trkpt lat="43.8616046" lon="12.196258"><ele>507.0</ele><time>2026-04-12T07:41:38.61Z</time></trkpt><trkpt lat="43.8617045" lon="12.1961023"><ele>504.0</ele><time>2026-04-12T07:41:39.61Z</time></trkpt><trkpt lat="43.8618078" lon="12.1959614"><ele>503.75</ele><time>2026-04-12T07:41:40.611Z</time></trkpt><trkpt lat="43.8619258" lon="12.1958434"><ele>503.5</ele><time>2026-04-12T07:41:41.611Z</time></trkpt><trkpt lat="43.8620544" lon="12.1957465"><ele>503.25</ele><time>2026-04-12T07:41:42.611Z</time></trkpt><trkpt lat="43.8621818" lon="12.1956798"><ele>503.0</ele><time>2026-04-12T07:41:43.61Z</time></trkpt><trkpt lat="43.8622953" lon="12.1956125"><ele>502.25</ele><time>2026-04-12T07:41:44.611Z</time></trkpt><trkpt lat="43.8623903" lon="12.1955184"><ele>501.5</ele><time>2026-04-12T07:41:45.611Z</time></trkpt><trkpt lat="43.8624581" lon="12.195383"><ele>500.75</ele><time>2026-04-12T07:41:46.611Z</time></trkpt><trkpt lat="43.8624973" lon="12.1952151"><ele>500.0</ele><time>2026-04-12T07:41:47.611Z</time></trkpt><trkpt lat="43.8625021" lon="12.1950281"><ele>499.0</ele><time>2026-04-12T07:41:48.611Z</time></trkpt><trkpt lat="43.8624822" lon="12.1948232"><ele>498.0</ele><time>2026-04-12T07:41:49.611Z</time></trkpt><trkpt lat="43.862459" lon="12.1946282"><ele>497.0</ele><time>2026-04-12T07:41:50.61Z</time></trkpt><trkpt lat="43.8624428" lon="12.194439"><ele>496.0</ele><time>2026-04-12T07:41:51.61Z</time></trkpt><trkpt lat="43.8624297" lon="12.1942503"><ele>496.0</ele><time>2026-04-12T07:41:52.61Z</time></trkpt><trkpt lat="43.8624143" lon="12.194063"><ele>496.0</ele><time>2026-04-12T07:41:53.61Z</time></trkpt><trkpt lat="43.8624031" lon="12.19388"><ele>496.0</ele><time>2026-04-12T07:41:54.61Z</time></trkpt><trkpt lat="43.8624074" lon="12.1937139"><ele>496.0</ele><time>2026-04-12T07:41:55.611Z</time></trkpt><trkpt lat="43.8624326" lon="12.1935617"><ele>494.75</ele><time>2026-04-12T07:41:56.611Z</time></trkpt><trkpt lat="43.8624897" lon="12.1934245"><ele>493.5</ele><time>2026-04-12T07:41:57.611Z</time></trkpt><trkpt lat="43.8625762" lon="12.1933148"><ele>492.25</ele><time>2026-04-12T07:41:58.611Z</time></trkpt><trkpt lat="43.8626743" lon="12.1932309"><ele>491.0</ele><time>2026-04-12T07:41:59.61Z</time></trkpt><trkpt lat="43.862785" lon="12.1931629"><ele>489.75</ele><time>2026-04-12T07:42:00.61Z</time></trkpt><trkpt lat="43.8628963" lon="12.193092"><ele>488.5</ele><time>2026-04-12T07:42:01.611Z</time></trkpt><trkpt lat="43.8630064" lon="12.1930159"><ele>487.25</ele><time>2026-04-12T07:42:02.611Z</time></trkpt><trkpt lat="43.8631131" lon="12.1929302"><ele>486.0</ele><time>2026-04-12T07:42:03.61Z</time></trkpt><trkpt lat="43.8632252" lon="12.1928153"><ele>486.0</ele><time>2026-04-12T07:42:04.611Z</time></trkpt><trkpt lat="43.8633251" lon="12.1926522"><ele>486.0</ele><time>2026-04-12T07:42:05.61Z</time></trkpt><trkpt lat="43.863421" lon="12.192432"><ele>486.0</ele><time>2026-04-12T07:42:06.611Z</time></trkpt><trkpt lat="43.8635358" lon="12.1921649"><ele>485.5</ele><time>2026-04-12T07:42:07.611Z</time></trkpt><trkpt lat="43.863667" lon="12.1918793"><ele>485.0</ele><time>2026-04-12T07:42:08.611Z</time></trkpt><trkpt lat="43.8638052" lon="12.1916067"><ele>483.0</ele><time>2026-04-12T07:42:09.61Z</time></trkpt><trkpt lat="43.8639328" lon="12.1913478"><ele>481.0</ele><time>2026-04-12T07:42:10.611Z</time></trkpt><trkpt lat="43.8640369" lon="12.1910944"><ele>479.0</ele><time>2026-04-12T07:42:11.611Z</time></trkpt><trkpt lat="43.8641302" lon="12.190849"><ele>478.0</ele><time>2026-04-12T07:42:12.611Z</time></trkpt><trkpt lat="43.8642136" lon="12.1906254"><ele>477.0</ele><time>2026-04-12T07:42:13.611Z</time></trkpt><trkpt lat="43.8642837" lon="12.1904225"><ele>476.0</ele><time>2026-04-12T07:42:14.611Z</time></trkpt><trkpt lat="43.864317" lon="12.190229"><ele>475.3333333333333</ele><time>2026-04-12T07:42:15.611Z</time></trkpt><trkpt lat="43.8643155" lon="12.1900255"><ele>474.66666666666663</ele><time>2026-04-12T07:42:16.61Z</time></trkpt><trkpt lat="43.8642692" lon="12.189786"><ele>474.0</ele><time>2026-04-12T07:42:17.611Z</time></trkpt><trkpt lat="43.8642008" lon="12.1895155"><ele>474.0</ele><time>2026-04-12T07:42:18.611Z</time></trkpt><trkpt lat="43.8641353" lon="12.1892221"><ele>474.0</ele><time>2026-04-12T07:42:19.61Z</time></trkpt><trkpt lat="43.8640683" lon="12.1889138"><ele>473.0</ele><time>2026-04-12T07:42:20.61Z</time></trkpt><trkpt lat="43.8639995" lon="12.1886173"><ele>472.0</ele><time>2026-04-12T07:42:21.611Z</time></trkpt><trkpt lat="43.8639366" lon="12.1883362"><ele>471.0</ele><time>2026-04-12T07:42:22.611Z</time></trkpt><trkpt lat="43.8638804" lon="12.1880775"><ele>470.33333333333337</ele><time>2026-04-12T07:42:23.611Z</time></trkpt><trkpt lat="43.8638309" lon="12.1878383"><ele>469.6666666666667</ele><time>2026-04-12T07:42:24.611Z</time></trkpt><trkpt lat="43.8637872" lon="12.1876297"><ele>469.0</ele><time>2026-04-12T07:42:25.611Z</time></trkpt><trkpt lat="43.8637536" lon="12.1874489"><ele>468.0</ele><time>2026-04-12T07:42:26.61Z</time></trkpt><trkpt lat="43.8637378" lon="12.1872938"><ele>467.0</ele><time>2026-04-12T07:42:27.611Z</time></trkpt><trkpt lat="43.8637392" lon="12.1871404"><ele>466.0</ele><time>2026-04-12T07:42:28.61Z</time></trkpt><trkpt lat="43.8637748" lon="12.1869823"><ele>465.0</ele><time>2026-04-12T07:42:29.61Z</time></trkpt><trkpt lat="43.8638567" lon="12.1868165"><ele>465.0</ele><time>2026-04-12T07:42:30.611Z</time></trkpt><trkpt lat="43.8639702" lon="12.1866422"><ele>465.0</ele><time>2026-04-12T07:42:31.61Z</time></trkpt><trkpt lat="43.8640623" lon="12.1864416"><ele>465.0</ele><time>2026-04-12T07:42:32.61Z</time></trkpt><trkpt lat="43.8641291" lon="12.1862004"><ele>462.0</ele><time>2026-04-12T07:42:33.611Z</time></trkpt><trkpt lat="43.8641779" lon="12.1859144"><ele>459.0</ele><time>2026-04-12T07:42:34.611Z</time></trkpt><trkpt lat="43.8642232" lon="12.185613"><ele>456.0</ele><time>2026-04-12T07:42:35.611Z</time></trkpt><trkpt lat="43.8642703" lon="12.1853203"><ele>459.66666666666663</ele><time>2026-04-12T07:42:36.611Z</time></trkpt><trkpt lat="43.8643225" lon="12.1850492"><ele>463.3333333333333</ele><time>2026-04-12T07:42:37.611Z</time></trkpt><trkpt lat="43.864378" lon="12.1848069"><ele>467.0</ele><time>2026-04-12T07:42:38.611Z</time></trkpt><trkpt lat="43.8644177" lon="12.1845812"><ele>467.0</ele><time>2026-04-12T07:42:39.611Z</time></trkpt><trkpt lat="43.8644254" lon="12.1843612"><ele>467.0</ele><time>2026-04-12T07:42:40.611Z</time></trkpt><trkpt lat="43.8643928" lon="12.1841402"><ele>467.0</ele><time>2026-04-12T07:42:41.61Z</time></trkpt><trkpt lat="43.8643457" lon="12.1839509"><ele>462.0</ele><time>2026-04-12T07:42:42.611Z</time></trkpt><trkpt lat="43.8643162" lon="12.1837704"><ele>457.0</ele><time>2026-04-12T07:42:43.611Z</time></trkpt><trkpt lat="43.8643287" lon="12.1835912"><ele>452.0</ele><time>2026-04-12T07:42:44.611Z</time></trkpt><trkpt lat="43.8643824" lon="12.1834226"><ele>447.0</ele><time>2026-04-12T07:42:45.611Z</time></trkpt><trkpt lat="43.86447" lon="12.1832703"><ele>442.0</ele><time>2026-04-12T07:42:46.611Z</time></trkpt><trkpt lat="43.8645743" lon="12.1831543"><ele>437.0</ele><time>2026-04-12T07:42:47.611Z</time></trkpt><trkpt lat="43.8646928" lon="12.1830865"><ele>432.0</ele><time>2026-04-12T07:42:48.611Z</time></trkpt><trkpt lat="43.8648142" lon="12.1830661"><ele>427.0</ele><time>2026-04-12T07:42:49.61Z</time></trkpt><trkpt lat="43.8649528" lon="12.1831056"><ele>431.6666666666667</ele><time>2026-04-12T07:42:50.611Z</time></trkpt><trkpt lat="43.8650997" lon="12.1831864"><ele>436.33333333333337</ele><time>2026-04-12T07:42:51.611Z</time></trkpt><trkpt lat="43.8652486" lon="12.1832833"><ele>441.0</ele><time>2026-04-12T07:42:52.611Z</time></trkpt><trkpt lat="43.8653948" lon="12.1833534"><ele>441.0</ele><time>2026-04-12T07:42:53.611Z</time></trkpt><trkpt lat="43.8655438" lon="12.1833732"><ele>441.0</ele><time>2026-04-12T07:42:54.611Z</time></trkpt><trkpt lat="43.865705" lon="12.1833385"><ele>441.0</ele><time>2026-04-12T07:42:55.61Z</time></trkpt><trkpt lat="43.8658726" lon="12.1832575"><ele>437.66666666666663</ele><time>2026-04-12T07:42:56.611Z</time></trkpt><trkpt lat="43.8660247" lon="12.1831503"><ele>434.3333333333333</ele><time>2026-04-12T07:42:57.611Z</time></trkpt><trkpt lat="43.8661731" lon="12.1830363"><ele>431.0</ele><time>2026-04-12T07:42:58.611Z</time></trkpt><trkpt lat="43.8663151" lon="12.1829305"><ele>431.0</ele><time>2026-04-12T07:42:59.611Z</time></trkpt><trkpt lat="43.8664431" lon="12.1828331"><ele>431.0</ele><time>2026-04-12T07:43:00.611Z</time></trkpt><trkpt lat="43.8665648" lon="12.1827369"><ele>431.0</ele><time>2026-04-12T07:43:01.611Z</time></trkpt><trkpt lat="43.8666724" lon="12.1826262"><ele>431.0</ele><time>2026-04-12T07:43:02.61Z</time></trkpt><trkpt lat="43.8667617" lon="12.1824898"><ele>431.0</ele><time>2026-04-12T07:43:03.611Z</time></trkpt><trkpt lat="43.86684" lon="12.1823498"><ele>431.0</ele><time>2026-04-12T07:43:04.61Z</time></trkpt><trkpt lat="43.8669077" lon="12.1822081"><ele>431.0</ele><time>2026-04-12T07:43:05.61Z</time></trkpt><trkpt lat="43.8669533" lon="12.1820773"><ele>431.0</ele><time>2026-04-12T07:43:06.611Z</time></trkpt><trkpt lat="43.8669774" lon="12.1819324"><ele>431.0</ele><time>2026-04-12T07:43:07.61Z</time></trkpt><trkpt lat="43.8669689" lon="12.1817771"><ele>431.0</ele><time>2026-04-12T07:43:08.61Z</time></trkpt><trkpt lat="43.8669329" lon="12.1816201"><ele>431.0</ele><time>2026-04-12T07:43:09.61Z</time></trkpt><trkpt lat="43.8668737" lon="12.181475"><ele>431.0</ele><time>2026-04-12T07:43:10.61Z</time></trkpt><trkpt lat="43.8668103" lon="12.1813418"><ele>426.25</ele><time>2026-04-12T07:43:11.611Z</time></trkpt><trkpt lat="43.8667545" lon="12.1811977"><ele>421.5</ele><time>2026-04-12T07:43:12.61Z</time></trkpt><trkpt lat="43.8667323" lon="12.181039"><ele>416.75</ele><time>2026-04-12T07:43:13.61Z</time></trkpt><trkpt lat="43.8667432" lon="12.1808685"><ele>412.0</ele><time>2026-04-12T07:43:14.611Z</time></trkpt><trkpt lat="43.8667723" lon="12.1807017"><ele>411.20000000000005</ele><time>2026-04-12T07:43:15.611Z</time></trkpt><trkpt lat="43.8668011" lon="12.1805486"><ele>410.4</ele><time>2026-04-12T07:43:16.611Z</time></trkpt><trkpt lat="43.8668348" lon="12.1804068"><ele>409.6</ele><time>2026-04-12T07:43:17.61Z</time></trkpt><trkpt lat="43.8668841" lon="12.1802886"><ele>408.79999999999995</ele><time>2026-04-12T07:43:18.61Z</time></trkpt><trkpt lat="43.866956" lon="12.180198"><ele>408.0</ele><time>2026-04-12T07:43:19.611Z</time></trkpt><trkpt lat="43.8670386" lon="12.1801386"><ele>408.0</ele><time>2026-04-12T07:43:20.611Z</time></trkpt><trkpt lat="43.8671271" lon="12.1801109"><ele>408.0</ele><time>2026-04-12T07:43:21.61Z</time></trkpt><trkpt lat="43.8672194" lon="12.1801328"><ele>408.0</ele><time>2026-04-12T07:43:22.611Z</time></trkpt><trkpt lat="43.8673053" lon="12.1802027"><ele>408.0</ele><time>2026-04-12T07:43:23.611Z</time></trkpt><trkpt lat="43.8673772" lon="12.1803211"><ele>408.0</ele><time>2026-04-12T07:43:24.61Z</time></trkpt><trkpt lat="43.8674165" lon="12.1804588"><ele>408.0</ele><time>2026-04-12T07:43:25.61Z</time></trkpt><trkpt lat="43.8674375" lon="12.1806003"><ele>408.0</ele><time>2026-04-12T07:43:26.61Z</time></trkpt><trkpt lat="43.8674609" lon="12.1807328"><ele>408.0</ele><time>2026-04-12T07:43:27.611Z</time></trkpt><trkpt lat="43.8674907" lon="12.180861"><ele>408.0</ele><time>2026-04-12T07:43:28.61Z</time></trkpt><trkpt lat="43.8675434" lon="12.1809711"><ele>408.0</ele><time>2026-04-12T07:43:29.61Z</time></trkpt><trkpt lat="43.8676163" lon="12.1810574"><ele>407.5</ele><time>2026-04-12T07:43:30.611Z</time></trkpt><trkpt lat="43.8677045" lon="12.1810979"><ele>407.0</ele><time>2026-04-12T07:43:31.61Z</time></trkpt><trkpt lat="43.8678059" lon="12.1810965"><ele>406.5</ele><time>2026-04-12T07:43:32.61Z</time></trkpt><trkpt lat="43.8679245" lon="12.1810477"><ele>406.0</ele><time>2026-04-12T07:43:33.611Z</time></trkpt><trkpt lat="43.8680624" lon="12.1809552"><ele>406.0</ele><time>2026-04-12T07:43:34.611Z</time></trkpt><trkpt lat="43.8682119" lon="12.1808505"><ele>406.0</ele><time>2026-04-12T07:43:35.611Z</time></trkpt><trkpt lat="43.8683697" lon="12.1807761"><ele>406.0</ele><time>2026-04-12T07:43:36.611Z</time></trkpt><trkpt lat="43.868526" lon="12.1807382"><ele>407.0</ele><time>2026-04-12T07:43:37.611Z</time></trkpt><trkpt lat="43.8686753" lon="12.1807071"><ele>408.0</ele><time>2026-04-12T07:43:38.61Z</time></trkpt><trkpt lat="43.8688084" lon="12.1806305"><ele>409.0</ele><time>2026-04-12T07:43:39.611Z</time></trkpt><trkpt lat="43.8689252" lon="12.1804978"><ele>410.0</ele><time>2026-04-12T07:43:40.61Z</time></trkpt><trkpt lat="43.8690099" lon="12.1803266"><ele>406.0</ele><time>2026-04-12T07:43:41.611Z</time></trkpt><trkpt lat="43.8690861" lon="12.1801662"><ele>402.0</ele><time>2026-04-12T07:43:42.611Z</time></trkpt><trkpt lat="43.8691763" lon="12.180044"><ele>398.0</ele><time>2026-04-12T07:43:43.611Z</time></trkpt><trkpt lat="43.8692954" lon="12.1799652"><ele>394.0</ele><time>2026-04-12T07:43:44.611Z</time></trkpt><trkpt lat="43.8694264" lon="12.1799165"><ele>393.6666666666667</ele><time>2026-04-12T07:43:45.61Z</time></trkpt><trkpt lat="43.8695648" lon="12.1798517"><ele>393.33333333333337</ele><time>2026-04-12T07:43:46.611Z</time></trkpt><trkpt lat="43.869696" lon="12.1797288"><ele>393.0</ele><time>2026-04-12T07:43:47.611Z</time></trkpt><trkpt lat="43.8698029" lon="12.1795618"><ele>390.5</ele><time>2026-04-12T07:43:48.611Z</time></trkpt><trkpt lat="43.8698949" lon="12.1794082"><ele>388.0</ele><time>2026-04-12T07:43:49.61Z</time></trkpt><trkpt lat="43.8699829" lon="12.1792981"><ele>385.5</ele><time>2026-04-12T07:43:50.611Z</time></trkpt><trkpt lat="43.8700825" lon="12.1792395"><ele>383.0</ele><time>2026-04-12T07:43:51.611Z</time></trkpt><trkpt lat="43.8702032" lon="12.1792462"><ele>378.33333333333337</ele><time>2026-04-12T07:43:52.611Z</time></trkpt><trkpt lat="43.8703163" lon="12.1793122"><ele>373.6666666666667</ele><time>2026-04-12T07:43:53.611Z</time></trkpt><trkpt lat="43.8704311" lon="12.1794495"><ele>369.0</ele><time>2026-04-12T07:43:54.61Z</time></trkpt><trkpt lat="43.8705342" lon="12.1796642"><ele>372.0</ele><time>2026-04-12T07:43:55.61Z</time></trkpt><trkpt lat="43.8706414" lon="12.1798694"><ele>375.0</ele><time>2026-04-12T07:43:56.611Z</time></trkpt><trkpt lat="43.870733" lon="12.1800576"><ele>378.0</ele><time>2026-04-12T07:43:57.611Z</time></trkpt><trkpt lat="43.870816" lon="12.1802159"><ele>378.0</ele><time>2026-04-12T07:43:58.611Z</time></trkpt><trkpt lat="43.8709135" lon="12.1803421"><ele>378.0</ele><time>2026-04-12T07:43:59.61Z</time></trkpt><trkpt lat="43.8710454" lon="12.1804199"><ele>378.0</ele><time>2026-04-12T07:44:00.611Z</time></trkpt><trkpt lat="43.8711965" lon="12.180449"><ele>378.0</ele><time>2026-04-12T07:44:01.611Z</time></trkpt><trkpt lat="43.8713376" lon="12.1804543"><ele>376.25</ele><time>2026-04-12T07:44:02.611Z</time></trkpt><trkpt lat="43.8714624" lon="12.180429"><ele>374.5</ele><time>2026-04-12T07:44:03.611Z</time></trkpt><trkpt lat="43.8715809" lon="12.1803442"><ele>372.75</ele><time>2026-04-12T07:44:04.61Z</time></trkpt><trkpt lat="43.8717018" lon="12.1802034"><ele>371.0</ele><time>2026-04-12T07:44:05.611Z</time></trkpt><trkpt lat="43.8718235" lon="12.180029"><ele>370.33333333333337</ele><time>2026-04-12T07:44:06.611Z</time></trkpt><trkpt lat="43.8719332" lon="12.1798602"><ele>369.6666666666667</ele><time>2026-04-12T07:44:07.611Z</time></trkpt><trkpt lat="43.8720298" lon="12.1796998"><ele>369.0</ele><time>2026-04-12T07:44:08.61Z</time></trkpt><trkpt lat="43.8720967" lon="12.1795133"><ele>366.6666666666667</ele><time>2026-04-12T07:44:09.611Z</time></trkpt><trkpt lat="43.8721383" lon="12.1792733"><ele>364.33333333333337</ele><time>2026-04-12T07:44:10.611Z</time></trkpt><trkpt lat="43.87215" lon="12.17902"><ele>362.0</ele><time>2026-04-12T07:44:11.61Z</time></trkpt><trkpt lat="43.87216" lon="12.1787867"><ele>360.25</ele><time>2026-04-12T07:44:12.61Z</time></trkpt><trkpt lat="43.8721617" lon="12.1785683"><ele>358.5</ele><time>2026-04-12T07:44:13.611Z</time></trkpt><trkpt lat="43.8721583" lon="12.1783717"><ele>356.75</ele><time>2026-04-12T07:44:14.61Z</time></trkpt><trkpt lat="43.87212" lon="12.1781867"><ele>355.0</ele><time>2026-04-12T07:44:15.611Z</time></trkpt><trkpt lat="43.8720417" lon="12.1780183"><ele>355.0</ele><time>2026-04-12T07:44:16.611Z</time></trkpt><trkpt lat="43.871905" lon="12.1778433"><ele>355.0</ele><time>2026-04-12T07:44:17.611Z</time></trkpt><trkpt lat="43.8717583" lon="12.17766"><ele>355.0</ele><time>2026-04-12T07:44:18.611Z</time></trkpt><trkpt lat="43.8716017" lon="12.1774767"><ele>352.66666666666663</ele><time>2026-04-12T07:44:19.611Z</time></trkpt><trkpt lat="43.871465" lon="12.1773"><ele>350.3333333333333</ele><time>2026-04-12T07:44:20.611Z</time></trkpt><trkpt lat="43.871335" lon="12.1771267"><ele>348.0</ele><time>2026-04-12T07:44:21.611Z</time></trkpt><trkpt lat="43.871225" lon="12.176945"><ele>348.0</ele><time>2026-04-12T07:44:22.611Z</time></trkpt><trkpt lat="43.8711483" lon="12.1767883"><ele>348.0</ele><time>2026-04-12T07:44:23.611Z</time></trkpt><trkpt lat="43.8711017" lon="12.1766383"><ele>348.0</ele><time>2026-04-12T07:44:24.611Z</time></trkpt><trkpt lat="43.8710917" lon="12.1764883"><ele>348.0</ele><time>2026-04-12T07:44:25.611Z</time></trkpt><trkpt lat="43.87112" lon="12.1763483"><ele>345.75</ele><time>2026-04-12T07:44:26.611Z</time></trkpt><trkpt lat="43.87119" lon="12.1762383"><ele>343.5</ele><time>2026-04-12T07:44:27.611Z</time></trkpt><trkpt lat="43.87129" lon="12.176175"><ele>341.25</ele><time>2026-04-12T07:44:28.61Z</time></trkpt><trkpt lat="43.8714067" lon="12.1761667"><ele>339.0</ele><time>2026-04-12T07:44:29.61Z</time></trkpt><trkpt lat="43.8715467" lon="12.1762117"><ele>339.0</ele><time>2026-04-12T07:44:30.611Z</time></trkpt><trkpt lat="43.87172" lon="12.176305"><ele>339.0</ele><time>2026-04-12T07:44:31.611Z</time></trkpt><trkpt lat="43.8719317" lon="12.176425"><ele>339.0</ele><time>2026-04-12T07:44:32.611Z</time></trkpt><trkpt lat="43.87215" lon="12.1765367"><ele>338.6666666666667</ele><time>2026-04-12T07:44:33.611Z</time></trkpt><trkpt lat="43.8723617" lon="12.17664"><ele>338.33333333333337</ele><time>2026-04-12T07:44:34.611Z</time></trkpt><trkpt lat="43.8725567" lon="12.1767433"><ele>338.0</ele><time>2026-04-12T07:44:35.611Z</time></trkpt><trkpt lat="43.87273" lon="12.17684"><ele>336.0</ele><time>2026-04-12T07:44:36.611Z</time></trkpt><trkpt lat="43.8728867" lon="12.1769133"><ele>334.0</ele><time>2026-04-12T07:44:37.61Z</time></trkpt><trkpt lat="43.8730367" lon="12.1769383"><ele>332.0</ele><time>2026-04-12T07:44:38.611Z</time></trkpt><trkpt lat="43.8731867" lon="12.1769083"><ele>332.0</ele><time>2026-04-12T07:44:39.61Z</time></trkpt><trkpt lat="43.8733267" lon="12.1768067"><ele>332.0</ele><time>2026-04-12T07:44:40.61Z</time></trkpt><trkpt lat="43.8734483" lon="12.1766517"><ele>332.0</ele><time>2026-04-12T07:44:41.611Z</time></trkpt><trkpt lat="43.873555" lon="12.17649"><ele>329.0</ele><time>2026-04-12T07:44:42.611Z</time></trkpt><trkpt lat="43.8736467" lon="12.17637"><ele>326.0</ele><time>2026-04-12T07:44:43.61Z</time></trkpt><trkpt lat="43.8737467" lon="12.1762933"><ele>323.0</ele><time>2026-04-12T07:44:44.611Z</time></trkpt><trkpt lat="43.873865" lon="12.1762767"><ele>320.0</ele><time>2026-04-12T07:44:45.61Z</time></trkpt><trkpt lat="43.87399" lon="12.1763217"><ele>320.0</ele><time>2026-04-12T07:44:46.611Z</time></trkpt><trkpt lat="43.8741267" lon="12.176435"><ele>320.0</ele><time>2026-04-12T07:44:47.61Z</time></trkpt><trkpt lat="43.87426" lon="12.1765783"><ele>320.0</ele><time>2026-04-12T07:44:48.611Z</time></trkpt><trkpt lat="43.8743917" lon="12.1767017"><ele>320.0</ele><time>2026-04-12T07:44:49.611Z</time></trkpt><trkpt lat="43.8745217" lon="12.1768033"><ele>320.0</ele><time>2026-04-12T07:44:50.611Z</time></trkpt><trkpt lat="43.87466" lon="12.1768417"><ele>320.0</ele><time>2026-04-12T07:44:51.611Z</time></trkpt><trkpt lat="43.87479" lon="12.1768117"><ele>320.0</ele><time>2026-04-12T07:44:52.611Z</time></trkpt><trkpt lat="43.874915" lon="12.1767217"><ele>320.0</ele><time>2026-04-12T07:44:53.611Z</time></trkpt><trkpt lat="43.8750183" lon="12.17657"><ele>320.0</ele><time>2026-04-12T07:44:54.61Z</time></trkpt><trkpt lat="43.87509" lon="12.1763617"><ele>320.0</ele><time>2026-04-12T07:44:55.611Z</time></trkpt><trkpt lat="43.8751217" lon="12.1761333"><ele>313.33333333333337</ele><time>2026-04-12T07:44:56.61Z</time></trkpt><trkpt lat="43.8751467" lon="12.1759117"><ele>306.6666666666667</ele><time>2026-04-12T07:44:57.611Z</time></trkpt><trkpt lat="43.8751883" lon="12.1757167"><ele>300.0</ele><time>2026-04-12T07:44:58.61Z</time></trkpt><trkpt lat="43.8752633" lon="12.1755483"><ele>298.75</ele><time>2026-04-12T07:44:59.611Z</time></trkpt><trkpt lat="43.87536" lon="12.1754183"><ele>297.5</ele><time>2026-04-12T07:45:00.612Z</time></trkpt><trkpt lat="43.8754833" lon="12.1753367"><ele>296.25</ele><time>2026-04-12T07:45:01.612Z</time></trkpt><trkpt lat="43.8756217" lon="12.17532"><ele>295.0</ele><time>2026-04-12T07:45:02.612Z</time></trkpt><trkpt lat="43.875765" lon="12.175355"><ele>295.0</ele><time>2026-04-12T07:45:03.612Z</time></trkpt><trkpt lat="43.8759017" lon="12.1754467"><ele>295.0</ele><time>2026-04-12T07:45:04.611Z</time></trkpt><trkpt lat="43.8760283" lon="12.175545"><ele>295.0</ele><time>2026-04-12T07:45:05.612Z</time></trkpt><trkpt lat="43.876145" lon="12.1756133"><ele>295.0</ele><time>2026-04-12T07:45:06.612Z</time></trkpt><trkpt lat="43.8762717" lon="12.1756383"><ele>292.25</ele><time>2026-04-12T07:45:07.612Z</time></trkpt><trkpt lat="43.8764017" lon="12.1756133"><ele>289.5</ele><time>2026-04-12T07:45:08.612Z</time></trkpt><trkpt lat="43.87652" lon="12.175545"><ele>286.75</ele><time>2026-04-12T07:45:09.612Z</time></trkpt><trkpt lat="43.8766283" lon="12.1754433"><ele>284.0</ele><time>2026-04-12T07:45:10.612Z</time></trkpt><trkpt lat="43.876705" lon="12.175275"><ele>284.0</ele><time>2026-04-12T07:45:11.611Z</time></trkpt><trkpt lat="43.8767533" lon="12.1750683"><ele>284.0</ele><time>2026-04-12T07:45:12.612Z</time></trkpt><trkpt lat="43.8767833" lon="12.1748433"><ele>284.0</ele><time>2026-04-12T07:45:13.612Z</time></trkpt><trkpt lat="43.87681" lon="12.174645"><ele>283.25</ele><time>2026-04-12T07:45:14.611Z</time></trkpt><trkpt lat="43.8768367" lon="12.17447"><ele>282.5</ele><time>2026-04-12T07:45:15.612Z</time></trkpt><trkpt lat="43.87689" lon="12.1743367"><ele>281.75</ele><time>2026-04-12T07:45:16.611Z</time></trkpt><trkpt lat="43.8769667" lon="12.1740833"><ele>281.0</ele><time>2026-04-12T07:45:17.856Z</time></trkpt><trkpt lat="43.8770233" lon="12.174005"><ele>289.0</ele><time>2026-04-12T07:45:19.105Z</time></trkpt><trkpt lat="43.8771883" lon="12.1739033"><ele>297.0</ele><time>2026-04-12T07:45:20.106Z</time></trkpt><trkpt lat="43.8774333" lon="12.173735"><ele>297.0</ele><time>2026-04-12T07:45:21.606Z</time></trkpt><trkpt lat="43.8776" lon="12.17361"><ele>297.0</ele><time>2026-04-12T07:45:22.606Z</time></trkpt><trkpt lat="43.8777833" lon="12.1734983"><ele>297.0</ele><time>2026-04-12T07:45:23.606Z</time></trkpt><trkpt lat="43.8779467" lon="12.1733917"><ele>290.6666666666667</ele><time>2026-04-12T07:45:24.606Z</time></trkpt><trkpt lat="43.87811" lon="12.17328"><ele>284.33333333333337</ele><time>2026-04-12T07:45:25.605Z</time></trkpt><trkpt lat="43.8782717" lon="12.1731983"><ele>278.0</ele><time>2026-04-12T07:45:26.605Z</time></trkpt><trkpt lat="43.8783717" lon="12.1733033"><ele>275.33333333333337</ele><time>2026-04-12T07:45:27.761Z</time></trkpt><trkpt lat="43.8786067" lon="12.1731517"><ele>272.6666666666667</ele><time>2026-04-12T07:45:29.107Z</time></trkpt><trkpt lat="43.8787617" lon="12.1730017"><ele>270.0</ele><time>2026-04-12T07:45:30.106Z</time></trkpt><trkpt lat="43.8789633" lon="12.1728567"><ele>270.0</ele><time>2026-04-12T07:45:31.607Z</time></trkpt><trkpt lat="43.879075" lon="12.1727033"><ele>270.0</ele><time>2026-04-12T07:45:32.607Z</time></trkpt><trkpt lat="43.8791567" lon="12.1725183"><ele>270.0</ele><time>2026-04-12T07:45:33.608Z</time></trkpt><trkpt lat="43.8792217" lon="12.17235"><ele>268.0</ele><time>2026-04-12T07:45:34.608Z</time></trkpt><trkpt lat="43.8792833" lon="12.1721817"><ele>266.0</ele><time>2026-04-12T07:45:35.608Z</time></trkpt><trkpt lat="43.879385" lon="12.1720267"><ele>264.0</ele><time>2026-04-12T07:45:36.608Z</time></trkpt><trkpt lat="43.879525" lon="12.1718917"><ele>264.0</ele><time>2026-04-12T07:45:37.607Z</time></trkpt><trkpt lat="43.8797" lon="12.1717717"><ele>264.0</ele><time>2026-04-12T07:45:38.608Z</time></trkpt><trkpt lat="43.8798917" lon="12.1716667"><ele>264.0</ele><time>2026-04-12T07:45:39.607Z</time></trkpt><trkpt lat="43.8800983" lon="12.17156"><ele>270.6666666666667</ele><time>2026-04-12T07:45:40.607Z</time></trkpt><trkpt lat="43.8803" lon="12.1714583"><ele>277.33333333333337</ele><time>2026-04-12T07:45:41.608Z</time></trkpt><trkpt lat="43.880495" lon="12.17138"><ele>284.0</ele><time>2026-04-12T07:45:42.607Z</time></trkpt><trkpt lat="43.8806767" lon="12.1713133"><ele>284.0</ele><time>2026-04-12T07:45:43.608Z</time></trkpt><trkpt lat="43.88086" lon="12.17128"><ele>284.0</ele><time>2026-04-12T07:45:44.608Z</time></trkpt><trkpt lat="43.8810633" lon="12.1712883"><ele>284.0</ele><time>2026-04-12T07:45:45.607Z</time></trkpt><trkpt lat="43.8812817" lon="12.1713033"><ele>282.33333333333337</ele><time>2026-04-12T07:45:46.608Z</time></trkpt><trkpt lat="43.8815067" lon="12.1713433"><ele>280.6666666666667</ele><time>2026-04-12T07:45:47.608Z</time></trkpt><trkpt lat="43.881715" lon="12.1713633"><ele>279.0</ele><time>2026-04-12T07:45:48.608Z</time></trkpt><trkpt lat="43.8819133" lon="12.1713983"><ele>278.0</ele><time>2026-04-12T07:45:49.608Z</time></trkpt><trkpt lat="43.882105" lon="12.1714367"><ele>277.0</ele><time>2026-04-12T07:45:50.608Z</time></trkpt><trkpt lat="43.8822617" lon="12.1714833"><ele>276.0</ele><time>2026-04-12T07:45:51.608Z</time></trkpt><trkpt lat="43.882405" lon="12.1715517"><ele>268.6666666666667</ele><time>2026-04-12T07:45:52.608Z</time></trkpt><trkpt lat="43.882545" lon="12.1716633"><ele>261.33333333333337</ele><time>2026-04-12T07:45:53.608Z</time></trkpt><trkpt lat="43.8826717" lon="12.1718017"><ele>254.0</ele><time>2026-04-12T07:45:54.608Z</time></trkpt><trkpt lat="43.8827783" lon="12.1719267"><ele>252.0</ele><time>2026-04-12T07:45:55.607Z</time></trkpt><trkpt lat="43.88286" lon="12.17202"><ele>249.99999999999997</ele><time>2026-04-12T07:45:56.608Z</time></trkpt><trkpt lat="43.8829433" lon="12.1720617"><ele>247.99999999999997</ele><time>2026-04-12T07:45:57.608Z</time></trkpt><trkpt lat="43.88304" lon="12.1720367"><ele>246.0</ele><time>2026-04-12T07:45:58.607Z</time></trkpt><trkpt lat="43.8831317" lon="12.171935"><ele>244.0</ele><time>2026-04-12T07:45:59.608Z</time></trkpt><trkpt lat="43.8832067" lon="12.1717633"><ele>244.0</ele><time>2026-04-12T07:46:00.608Z</time></trkpt><trkpt lat="43.8832483" lon="12.1715517"><ele>244.0</ele><time>2026-04-12T07:46:01.607Z</time></trkpt><trkpt lat="43.8832733" lon="12.17132"><ele>244.0</ele><time>2026-04-12T07:46:02.608Z</time></trkpt><trkpt lat="43.8833133" lon="12.17113"><ele>244.0</ele><time>2026-04-12T07:46:03.608Z</time></trkpt><trkpt lat="43.883365" lon="12.170985"><ele>244.0</ele><time>2026-04-12T07:46:04.608Z</time></trkpt><trkpt lat="43.883445" lon="12.1708633"><ele>244.0</ele><time>2026-04-12T07:46:05.608Z</time></trkpt><trkpt lat="43.883555" lon="12.1707733"><ele>244.0</ele><time>2026-04-12T07:46:06.608Z</time></trkpt><trkpt lat="43.8836817" lon="12.170725"><ele>244.0</ele><time>2026-04-12T07:46:07.608Z</time></trkpt><trkpt lat="43.88382" lon="12.1707383"><ele>244.0</ele><time>2026-04-12T07:46:08.608Z</time></trkpt><trkpt lat="43.88398" lon="12.1708"><ele>244.0</ele><time>2026-04-12T07:46:09.608Z</time></trkpt><trkpt lat="43.88413" lon="12.1708817"><ele>243.0</ele><time>2026-04-12T07:46:10.607Z</time></trkpt><trkpt lat="43.884275" lon="12.1709417"><ele>242.0</ele><time>2026-04-12T07:46:11.607Z</time></trkpt><trkpt lat="43.8844083" lon="12.1709867"><ele>241.0</ele><time>2026-04-12T07:46:12.608Z</time></trkpt><trkpt lat="43.884555" lon="12.1709883"><ele>240.0</ele><time>2026-04-12T07:46:13.607Z</time></trkpt><trkpt lat="43.8847183" lon="12.1709467"><ele>240.0</ele><time>2026-04-12T07:46:14.607Z</time></trkpt><trkpt lat="43.884905" lon="12.1708583"><ele>240.0</ele><time>2026-04-12T07:46:15.608Z</time></trkpt><trkpt lat="43.8850933" lon="12.1707733"><ele>240.0</ele><time>2026-04-12T07:46:16.608Z</time></trkpt><trkpt lat="43.8852683" lon="12.1707"><ele>241.0</ele><time>2026-04-12T07:46:17.607Z</time></trkpt><trkpt lat="43.8854233" lon="12.1706167"><ele>242.0</ele><time>2026-04-12T07:46:18.607Z</time></trkpt><trkpt lat="43.8855667" lon="12.1705067"><ele>243.0</ele><time>2026-04-12T07:46:19.607Z</time></trkpt><trkpt lat="43.8856967" lon="12.1703583"><ele>243.0</ele><time>2026-04-12T07:46:20.608Z</time></trkpt><trkpt lat="43.8858" lon="12.1701883"><ele>243.0</ele><time>2026-04-12T07:46:21.608Z</time></trkpt><trkpt lat="43.885915" lon="12.170035"><ele>243.0</ele><time>2026-04-12T07:46:22.607Z</time></trkpt><trkpt lat="43.8860517" lon="12.1699233"><ele>241.33333333333331</ele><time>2026-04-12T07:46:23.607Z</time></trkpt><trkpt lat="43.8862117" lon="12.1698733"><ele>239.66666666666666</ele><time>2026-04-12T07:46:24.607Z</time></trkpt><trkpt lat="43.8863844" lon="12.1698787"><ele>238.0</ele><time>2026-04-12T07:46:25.608Z</time></trkpt><trkpt lat="43.8865634" lon="12.1699267"><ele>238.0</ele><time>2026-04-12T07:46:26.608Z</time></trkpt><trkpt lat="43.8867407" lon="12.1699728"><ele>238.0</ele><time>2026-04-12T07:46:27.607Z</time></trkpt><trkpt lat="43.8869279" lon="12.1699862"><ele>238.0</ele><time>2026-04-12T07:46:28.607Z</time></trkpt><trkpt lat="43.887132" lon="12.1699563"><ele>236.0</ele><time>2026-04-12T07:46:29.607Z</time></trkpt><trkpt lat="43.8873435" lon="12.1699121"><ele>234.0</ele><time>2026-04-12T07:46:30.608Z</time></trkpt><trkpt lat="43.8875408" lon="12.169871"><ele>232.0</ele><time>2026-04-12T07:46:31.608Z</time></trkpt><trkpt lat="43.8877299" lon="12.1698371"><ele>237.33333333333331</ele><time>2026-04-12T07:46:32.607Z</time></trkpt><trkpt lat="43.8878985" lon="12.1698109"><ele>242.66666666666669</ele><time>2026-04-12T07:46:33.607Z</time></trkpt><trkpt lat="43.8880482" lon="12.1697734"><ele>248.0</ele><time>2026-04-12T07:46:34.608Z</time></trkpt><trkpt lat="43.8881901" lon="12.169697"><ele>248.0</ele><time>2026-04-12T07:46:35.607Z</time></trkpt><trkpt lat="43.8883251" lon="12.1695652"><ele>248.0</ele><time>2026-04-12T07:46:36.608Z</time></trkpt><trkpt lat="43.8884647" lon="12.1694121"><ele>248.0</ele><time>2026-04-12T07:46:37.608Z</time></trkpt><trkpt lat="43.8886212" lon="12.1692874"><ele>243.0</ele><time>2026-04-12T07:46:38.608Z</time></trkpt><trkpt lat="43.8888075" lon="12.1691997"><ele>238.0</ele><time>2026-04-12T07:46:39.608Z</time></trkpt><trkpt lat="43.8890163" lon="12.1691407"><ele>233.0</ele><time>2026-04-12T07:46:40.608Z</time></trkpt><trkpt lat="43.8892221" lon="12.1690985"><ele>230.66666666666669</ele><time>2026-04-12T07:46:41.607Z</time></trkpt><trkpt lat="43.8894142" lon="12.169061"><ele>228.33333333333331</ele><time>2026-04-12T07:46:42.607Z</time></trkpt><trkpt lat="43.8895865" lon="12.1690317"><ele>226.0</ele><time>2026-04-12T07:46:43.608Z</time></trkpt><trkpt lat="43.8897532" lon="12.1690165"><ele>226.0</ele><time>2026-04-12T07:46:44.608Z</time></trkpt><trkpt lat="43.8899288" lon="12.1690519"><ele>226.0</ele><time>2026-04-12T07:46:45.608Z</time></trkpt><trkpt lat="43.8901126" lon="12.1691159"><ele>226.0</ele><time>2026-04-12T07:46:46.608Z</time></trkpt><trkpt lat="43.8903091" lon="12.1691766"><ele>226.0</ele><time>2026-04-12T07:46:47.607Z</time></trkpt><trkpt lat="43.8904885" lon="12.1692244"><ele>226.0</ele><time>2026-04-12T07:46:48.607Z</time></trkpt><trkpt lat="43.8906516" lon="12.1692575"><ele>226.0</ele><time>2026-04-12T07:46:49.608Z</time></trkpt><trkpt lat="43.8908022" lon="12.1692673"><ele>223.0</ele><time>2026-04-12T07:46:50.607Z</time></trkpt><trkpt lat="43.890958" lon="12.169243"><ele>220.0</ele><time>2026-04-12T07:46:51.607Z</time></trkpt><trkpt lat="43.8911281" lon="12.1691877"><ele>217.0</ele><time>2026-04-12T07:46:52.608Z</time></trkpt><trkpt lat="43.8913174" lon="12.1690979"><ele>224.0</ele><time>2026-04-12T07:46:53.608Z</time></trkpt><trkpt lat="43.8915092" lon="12.1690016"><ele>231.0</ele><time>2026-04-12T07:46:54.608Z</time></trkpt><trkpt lat="43.8916896" lon="12.168919"><ele>238.0</ele><time>2026-04-12T07:46:55.607Z</time></trkpt><trkpt lat="43.891861" lon="12.1688525"><ele>238.0</ele><time>2026-04-12T07:46:56.607Z</time></trkpt><trkpt lat="43.8920246" lon="12.1688081"><ele>238.0</ele><time>2026-04-12T07:46:57.607Z</time></trkpt><trkpt lat="43.8921888" lon="12.1688027"><ele>238.0</ele><time>2026-04-12T07:46:58.608Z</time></trkpt><trkpt lat="43.8923624" lon="12.1688314"><ele>238.0</ele><time>2026-04-12T07:46:59.607Z</time></trkpt><trkpt lat="43.8925411" lon="12.168913"><ele>238.0</ele><time>2026-04-12T07:47:00.608Z</time></trkpt><trkpt lat="43.8927129" lon="12.1690174"><ele>238.0</ele><time>2026-04-12T07:47:01.608Z</time></trkpt><trkpt lat="43.892878" lon="12.1691017"><ele>234.5</ele><time>2026-04-12T07:47:02.608Z</time></trkpt><trkpt lat="43.8930294" lon="12.1691713"><ele>231.0</ele><time>2026-04-12T07:47:03.608Z</time></trkpt><trkpt lat="43.8931637" lon="12.1692326"><ele>227.5</ele><time>2026-04-12T07:47:04.607Z</time></trkpt><trkpt lat="43.8932771" lon="12.1693485"><ele>224.0</ele><time>2026-04-12T07:47:05.608Z</time></trkpt><trkpt lat="43.8933733" lon="12.1695059"><ele>224.5</ele><time>2026-04-12T07:47:06.608Z</time></trkpt><trkpt lat="43.8934525" lon="12.1696757"><ele>225.0</ele><time>2026-04-12T07:47:07.608Z</time></trkpt><trkpt lat="43.8935358" lon="12.1698269"><ele>225.5</ele><time>2026-04-12T07:47:08.607Z</time></trkpt><trkpt lat="43.8936374" lon="12.1699525"><ele>226.0</ele><time>2026-04-12T07:47:09.608Z</time></trkpt><trkpt lat="43.8937613" lon="12.1700309"><ele>222.75</ele><time>2026-04-12T07:47:10.607Z</time></trkpt><trkpt lat="43.8938914" lon="12.1700664"><ele>219.5</ele><time>2026-04-12T07:47:11.607Z</time></trkpt><trkpt lat="43.8940134" lon="12.1700504"><ele>216.25</ele><time>2026-04-12T07:47:12.608Z</time></trkpt><trkpt lat="43.8941363" lon="12.1699873"><ele>213.0</ele><time>2026-04-12T07:47:13.607Z</time></trkpt><trkpt lat="43.8942546" lon="12.1698614"><ele>210.0</ele><time>2026-04-12T07:47:14.608Z</time></trkpt><trkpt lat="43.8943667" lon="12.1696729"><ele>207.0</ele><time>2026-04-12T07:47:15.607Z</time></trkpt><trkpt lat="43.8944872" lon="12.1694328"><ele>204.0</ele><time>2026-04-12T07:47:16.608Z</time></trkpt><trkpt lat="43.8946146" lon="12.1691622"><ele>206.5</ele><time>2026-04-12T07:47:17.607Z</time></trkpt><trkpt lat="43.8947403" lon="12.1688762"><ele>209.0</ele><time>2026-04-12T07:47:18.608Z</time></trkpt><trkpt lat="43.8948532" lon="12.1686035"><ele>209.0</ele><time>2026-04-12T07:47:19.608Z</time></trkpt><trkpt lat="43.8949461" lon="12.1683395"><ele>209.0</ele><time>2026-04-12T07:47:20.608Z</time></trkpt><trkpt lat="43.8950177" lon="12.1680725"><ele>209.0</ele><time>2026-04-12T07:47:21.608Z</time></trkpt><trkpt lat="43.8950732" lon="12.1677971"><ele>207.0</ele><time>2026-04-12T07:47:22.607Z</time></trkpt><trkpt lat="43.8951327" lon="12.1675197"><ele>205.0</ele><time>2026-04-12T07:47:23.607Z</time></trkpt><trkpt lat="43.8951976" lon="12.1672632"><ele>203.0</ele><time>2026-04-12T07:47:24.608Z</time></trkpt><trkpt lat="43.8952766" lon="12.1670278"><ele>203.0</ele><time>2026-04-12T07:47:25.608Z</time></trkpt><trkpt lat="43.8953575" lon="12.1668139"><ele>203.0</ele><time>2026-04-12T07:47:26.608Z</time></trkpt><trkpt lat="43.8954376" lon="12.1666174"><ele>203.0</ele><time>2026-04-12T07:47:27.608Z</time></trkpt><trkpt lat="43.895516" lon="12.166444"><ele>204.33333333333334</ele><time>2026-04-12T07:47:28.608Z</time></trkpt><trkpt lat="43.895616" lon="12.1662859"><ele>205.66666666666669</ele><time>2026-04-12T07:47:29.608Z</time></trkpt><trkpt lat="43.8957514" lon="12.1661625"><ele>207.0</ele><time>2026-04-12T07:47:30.607Z</time></trkpt><trkpt lat="43.8959118" lon="12.1660845"><ele>206.33333333333331</ele><time>2026-04-12T07:47:31.608Z</time></trkpt><trkpt lat="43.8960823" lon="12.1660363"><ele>205.66666666666666</ele><time>2026-04-12T07:47:32.607Z</time></trkpt><trkpt lat="43.8962593" lon="12.1659938"><ele>205.0</ele><time>2026-04-12T07:47:33.608Z</time></trkpt><trkpt lat="43.8964327" lon="12.1659292"><ele>205.0</ele><time>2026-04-12T07:47:34.607Z</time></trkpt><trkpt lat="43.8966079" lon="12.1658486"><ele>205.0</ele><time>2026-04-12T07:47:35.607Z</time></trkpt><trkpt lat="43.8967852" lon="12.1657676"><ele>205.0</ele><time>2026-04-12T07:47:36.608Z</time></trkpt><trkpt lat="43.8969597" lon="12.1656815"><ele>205.66666666666666</ele><time>2026-04-12T07:47:37.608Z</time></trkpt><trkpt lat="43.8971223" lon="12.1655962"><ele>206.33333333333331</ele><time>2026-04-12T07:47:38.608Z</time></trkpt><trkpt lat="43.8972882" lon="12.1655213"><ele>207.0</ele><time>2026-04-12T07:47:39.608Z</time></trkpt><trkpt lat="43.897441" lon="12.1654435"><ele>207.0</ele><time>2026-04-12T07:47:40.608Z</time></trkpt><trkpt lat="43.8975783" lon="12.165362"><ele>207.0</ele><time>2026-04-12T07:47:41.608Z</time></trkpt><trkpt lat="43.8977007" lon="12.1652715"><ele>207.0</ele><time>2026-04-12T07:47:42.607Z</time></trkpt><trkpt lat="43.8978133" lon="12.165157"><ele>207.0</ele><time>2026-04-12T07:47:43.608Z</time></trkpt><trkpt lat="43.8979051" lon="12.1649965"><ele>204.66666666666669</ele><time>2026-04-12T07:47:44.608Z</time></trkpt><trkpt lat="43.8979727" lon="12.1647978"><ele>202.33333333333334</ele><time>2026-04-12T07:47:45.608Z</time></trkpt><trkpt lat="43.8980048" lon="12.1645751"><ele>200.0</ele><time>2026-04-12T07:47:46.608Z</time></trkpt><trkpt lat="43.898012" lon="12.1643544"><ele>200.0</ele><time>2026-04-12T07:47:47.608Z</time></trkpt><trkpt lat="43.8980453" lon="12.1641513"><ele>200.0</ele><time>2026-04-12T07:47:48.608Z</time></trkpt><trkpt lat="43.8981137" lon="12.16398"><ele>200.0</ele><time>2026-04-12T07:47:49.607Z</time></trkpt><trkpt lat="43.8982214" lon="12.1638419"><ele>200.0</ele><time>2026-04-12T07:47:50.608Z</time></trkpt><trkpt lat="43.8983629" lon="12.1637526"><ele>198.75</ele><time>2026-04-12T07:47:51.608Z</time></trkpt><trkpt lat="43.8985004" lon="12.1637024"><ele>197.5</ele><time>2026-04-12T07:47:52.608Z</time></trkpt><trkpt lat="43.8986271" lon="12.163631"><ele>196.25</ele><time>2026-04-12T07:47:53.607Z</time></trkpt><trkpt lat="43.8987304" lon="12.1635102"><ele>195.0</ele><time>2026-04-12T07:47:54.607Z</time></trkpt><trkpt lat="43.8988024" lon="12.1633241"><ele>195.33333333333331</ele><time>2026-04-12T07:47:55.608Z</time></trkpt><trkpt lat="43.8988485" lon="12.163091"><ele>195.66666666666666</ele><time>2026-04-12T07:47:56.608Z</time></trkpt><trkpt lat="43.8988853" lon="12.1628312"><ele>196.0</ele><time>2026-04-12T07:47:57.608Z</time></trkpt><trkpt lat="43.8989389" lon="12.1625681"><ele>199.66666666666666</ele><time>2026-04-12T07:47:58.607Z</time></trkpt><trkpt lat="43.8990087" lon="12.1623195"><ele>203.33333333333331</ele><time>2026-04-12T07:47:59.608Z</time></trkpt><trkpt lat="43.8990928" lon="12.1620968"><ele>207.0</ele><time>2026-04-12T07:48:00.607Z</time></trkpt><trkpt lat="43.8991931" lon="12.1618969"><ele>204.0</ele><time>2026-04-12T07:48:01.608Z</time></trkpt><trkpt lat="43.8993081" lon="12.16172"><ele>201.0</ele><time>2026-04-12T07:48:02.608Z</time></trkpt><trkpt lat="43.8994366" lon="12.1615552"><ele>198.0</ele><time>2026-04-12T07:48:03.607Z</time></trkpt><trkpt lat="43.8995657" lon="12.1614027"><ele>198.0</ele><time>2026-04-12T07:48:04.608Z</time></trkpt><trkpt lat="43.899693" lon="12.161249"><ele>198.0</ele><time>2026-04-12T07:48:05.608Z</time></trkpt><trkpt lat="43.8998267" lon="12.1611083"><ele>198.0</ele><time>2026-04-12T07:48:06.608Z</time></trkpt><trkpt lat="43.9000233" lon="12.1609117"><ele>200.0</ele><time>2026-04-12T07:48:08.271Z</time></trkpt><trkpt lat="43.900135" lon="12.1608267"><ele>202.0</ele><time>2026-04-12T07:48:09.206Z</time></trkpt><trkpt lat="43.9003867" lon="12.16076"><ele>204.0</ele><time>2026-04-12T07:48:10.605Z</time></trkpt><trkpt lat="43.9005533" lon="12.160595"><ele>204.0</ele><time>2026-04-12T07:48:11.605Z</time></trkpt><trkpt lat="43.900805" lon="12.1603683"><ele>204.0</ele><time>2026-04-12T07:48:13.105Z</time></trkpt><trkpt lat="43.9010733" lon="12.1601967"><ele>206.33333333333331</ele><time>2026-04-12T07:48:14.605Z</time></trkpt><trkpt lat="43.9012583" lon="12.1600617"><ele>208.66666666666666</ele><time>2026-04-12T07:48:15.605Z</time></trkpt><trkpt lat="43.9014467" lon="12.1599117"><ele>211.0</ele><time>2026-04-12T07:48:16.605Z</time></trkpt><trkpt lat="43.90163" lon="12.1597683"><ele>206.33333333333331</ele><time>2026-04-12T07:48:17.605Z</time></trkpt><trkpt lat="43.901795" lon="12.1596333"><ele>201.66666666666669</ele><time>2026-04-12T07:48:18.605Z</time></trkpt><trkpt lat="43.90196" lon="12.1595083"><ele>197.0</ele><time>2026-04-12T07:48:19.605Z</time></trkpt><trkpt lat="43.9021283" lon="12.1593817"><ele>197.0</ele><time>2026-04-12T07:48:20.605Z</time></trkpt><trkpt lat="43.9023017" lon="12.1592517"><ele>197.0</ele><time>2026-04-12T07:48:21.604Z</time></trkpt><trkpt lat="43.9024717" lon="12.1591183"><ele>197.0</ele><time>2026-04-12T07:48:22.604Z</time></trkpt><trkpt lat="43.9026417" lon="12.1589967"><ele>197.66666666666669</ele><time>2026-04-12T07:48:23.604Z</time></trkpt><trkpt lat="43.9028017" lon="12.1588717"><ele>198.33333333333331</ele><time>2026-04-12T07:48:24.605Z</time></trkpt><trkpt lat="43.90297" lon="12.1587517"><ele>199.0</ele><time>2026-04-12T07:48:25.604Z</time></trkpt><trkpt lat="43.9031283" lon="12.1586333"><ele>199.0</ele><time>2026-04-12T07:48:26.605Z</time></trkpt><trkpt lat="43.9032883" lon="12.1585067"><ele>199.0</ele><time>2026-04-12T07:48:27.604Z</time></trkpt><trkpt lat="43.90344" lon="12.15837"><ele>199.0</ele><time>2026-04-12T07:48:28.605Z</time></trkpt><trkpt lat="43.9035783" lon="12.15823"><ele>202.0</ele><time>2026-04-12T07:48:29.605Z</time></trkpt><trkpt lat="43.90371" lon="12.15809"><ele>205.0</ele><time>2026-04-12T07:48:30.604Z</time></trkpt><trkpt lat="43.9038467" lon="12.1579683"><ele>208.0</ele><time>2026-04-12T07:48:31.605Z</time></trkpt><trkpt lat="43.9039917" lon="12.15787"><ele>208.0</ele><time>2026-04-12T07:48:32.605Z</time></trkpt><trkpt lat="43.904135" lon="12.1577767"><ele>208.0</ele><time>2026-04-12T07:48:33.605Z</time></trkpt><trkpt lat="43.9042783" lon="12.1577167"><ele>208.0</ele><time>2026-04-12T07:48:34.605Z</time></trkpt><trkpt lat="43.90441" lon="12.15767"><ele>208.0</ele><time>2026-04-12T07:48:35.605Z</time></trkpt><trkpt lat="43.904545" lon="12.1576533"><ele>205.5</ele><time>2026-04-12T07:48:36.605Z</time></trkpt><trkpt lat="43.90467" lon="12.1576417"><ele>203.0</ele><time>2026-04-12T07:48:37.605Z</time></trkpt><trkpt lat="43.9048083" lon="12.1576117"><ele>200.5</ele><time>2026-04-12T07:48:38.605Z</time></trkpt><trkpt lat="43.904945" lon="12.1575333"><ele>198.0</ele><time>2026-04-12T07:48:39.604Z</time></trkpt><trkpt lat="43.9050717" lon="12.1574333"><ele>196.5</ele><time>2026-04-12T07:48:40.604Z</time></trkpt><trkpt lat="43.90519" lon="12.1573333"><ele>195.0</ele><time>2026-04-12T07:48:41.604Z</time></trkpt><trkpt lat="43.9052883" lon="12.1572167"><ele>193.5</ele><time>2026-04-12T07:48:42.604Z</time></trkpt><trkpt lat="43.90536" lon="12.1570383"><ele>192.0</ele><time>2026-04-12T07:48:43.604Z</time></trkpt><trkpt lat="43.9054117" lon="12.1568283"><ele>192.0</ele><time>2026-04-12T07:48:44.604Z</time></trkpt><trkpt lat="43.90544" lon="12.156625"><ele>192.0</ele><time>2026-04-12T07:48:45.605Z</time></trkpt><trkpt lat="43.90548" lon="12.156435"><ele>192.0</ele><time>2026-04-12T07:48:46.605Z</time></trkpt><trkpt lat="43.905535" lon="12.1562767"><ele>192.0</ele><time>2026-04-12T07:48:47.605Z</time></trkpt><trkpt lat="43.9056033" lon="12.15616"><ele>192.75</ele><time>2026-04-12T07:48:48.605Z</time></trkpt><trkpt lat="43.905705" lon="12.1560783"><ele>193.5</ele><time>2026-04-12T07:48:49.605Z</time></trkpt><trkpt lat="43.90581" lon="12.156035"><ele>194.25</ele><time>2026-04-12T07:48:50.605Z</time></trkpt><trkpt lat="43.905935" lon="12.1560633"><ele>195.0</ele><time>2026-04-12T07:48:51.605Z</time></trkpt><trkpt lat="43.9060567" lon="12.15616"><ele>195.0</ele><time>2026-04-12T07:48:52.605Z</time></trkpt><trkpt lat="43.90618" lon="12.1562867"><ele>195.0</ele><time>2026-04-12T07:48:53.604Z</time></trkpt><trkpt lat="43.9063267" lon="12.1563933"><ele>195.0</ele><time>2026-04-12T07:48:54.605Z</time></trkpt><trkpt lat="43.9064733" lon="12.1564683"><ele>195.0</ele><time>2026-04-12T07:48:55.604Z</time></trkpt><trkpt lat="43.9066517" lon="12.1564967"><ele>195.0</ele><time>2026-04-12T07:48:56.604Z</time></trkpt><trkpt lat="43.906815" lon="12.156515"><ele>195.0</ele><time>2026-04-12T07:48:57.605Z</time></trkpt><trkpt lat="43.90696" lon="12.1565717"><ele>193.75</ele><time>2026-04-12T07:48:58.604Z</time></trkpt><trkpt lat="43.9070883" lon="12.1566817"><ele>192.5</ele><time>2026-04-12T07:48:59.604Z</time></trkpt><trkpt lat="43.9071883" lon="12.156835"><ele>191.25</ele><time>2026-04-12T07:49:00.605Z</time></trkpt><trkpt lat="43.9072683" lon="12.1569917"><ele>190.0</ele><time>2026-04-12T07:49:01.605Z</time></trkpt><trkpt lat="43.9073567" lon="12.1571133"><ele>190.0</ele><time>2026-04-12T07:49:02.604Z</time></trkpt><trkpt lat="43.90747" lon="12.1572083"><ele>190.0</ele><time>2026-04-12T07:49:03.604Z</time></trkpt><trkpt lat="43.9076133" lon="12.157275"><ele>190.0</ele><time>2026-04-12T07:49:04.604Z</time></trkpt><trkpt lat="43.907775" lon="12.1573067"><ele>190.0</ele><time>2026-04-12T07:49:05.605Z</time></trkpt><trkpt lat="43.90795" lon="12.157295"><ele>190.0</ele><time>2026-04-12T07:49:06.605Z</time></trkpt><trkpt lat="43.90811" lon="12.1572683"><ele>190.0</ele><time>2026-04-12T07:49:07.605Z</time></trkpt><trkpt lat="43.9082533" lon="12.1572267"><ele>190.0</ele><time>2026-04-12T07:49:08.605Z</time></trkpt><trkpt lat="43.90838" lon="12.1571633"><ele>190.0</ele><time>2026-04-12T07:49:09.605Z</time></trkpt><trkpt lat="43.9084917" lon="12.1570667"><ele>189.25</ele><time>2026-04-12T07:49:10.605Z</time></trkpt><trkpt lat="43.90859" lon="12.1569017"><ele>188.5</ele><time>2026-04-12T07:49:11.604Z</time></trkpt><trkpt lat="43.9086583" lon="12.1567133"><ele>187.75</ele><time>2026-04-12T07:49:12.605Z</time></trkpt><trkpt lat="43.908735" lon="12.15655"><ele>187.0</ele><time>2026-04-12T07:49:13.605Z</time></trkpt><trkpt lat="43.90883" lon="12.1564267"><ele>189.33333333333334</ele><time>2026-04-12T07:49:14.604Z</time></trkpt><trkpt lat="43.9089483" lon="12.1563233"><ele>191.66666666666669</ele><time>2026-04-12T07:49:15.605Z</time></trkpt><trkpt lat="43.9090833" lon="12.1562433"><ele>194.0</ele><time>2026-04-12T07:49:16.605Z</time></trkpt><trkpt lat="43.909255" lon="12.1561867"><ele>194.0</ele><time>2026-04-12T07:49:17.605Z</time></trkpt><trkpt lat="43.9094333" lon="12.1561483"><ele>194.0</ele><time>2026-04-12T07:49:18.605Z</time></trkpt><trkpt lat="43.9096083" lon="12.15613"><ele>194.0</ele><time>2026-04-12T07:49:19.605Z</time></trkpt><trkpt lat="43.909775" lon="12.1561267"><ele>194.0</ele><time>2026-04-12T07:49:20.605Z</time></trkpt><trkpt lat="43.90994" lon="12.156145"><ele>194.0</ele><time>2026-04-12T07:49:21.605Z</time></trkpt><trkpt lat="43.9101067" lon="12.15619"><ele>194.0</ele><time>2026-04-12T07:49:22.604Z</time></trkpt><trkpt lat="43.9102717" lon="12.1562733"><ele>192.66666666666669</ele><time>2026-04-12T07:49:23.604Z</time></trkpt><trkpt lat="43.9104333" lon="12.1563817"><ele>191.33333333333334</ele><time>2026-04-12T07:49:24.605Z</time></trkpt><trkpt lat="43.910575" lon="12.1565083"><ele>190.0</ele><time>2026-04-12T07:49:25.605Z</time></trkpt><trkpt lat="43.9106983" lon="12.1566283"><ele>190.0</ele><time>2026-04-12T07:49:26.604Z</time></trkpt><trkpt lat="43.9108183" lon="12.1567417"><ele>190.0</ele><time>2026-04-12T07:49:27.605Z</time></trkpt><trkpt lat="43.9109517" lon="12.1568283"><ele>190.0</ele><time>2026-04-12T07:49:28.605Z</time></trkpt><trkpt lat="43.9110917" lon="12.1568933"><ele>190.0</ele><time>2026-04-12T07:49:29.604Z</time></trkpt><trkpt lat="43.91124" lon="12.1569367"><ele>190.0</ele><time>2026-04-12T07:49:30.604Z</time></trkpt><trkpt lat="43.9113983" lon="12.156935"><ele>190.0</ele><time>2026-04-12T07:49:31.605Z</time></trkpt><trkpt lat="43.9115733" lon="12.1569033"><ele>190.0</ele><time>2026-04-12T07:49:32.605Z</time></trkpt><trkpt lat="43.9117517" lon="12.1568283"><ele>189.0</ele><time>2026-04-12T07:49:33.604Z</time></trkpt><trkpt lat="43.9119517" lon="12.15671"><ele>188.0</ele><time>2026-04-12T07:49:34.605Z</time></trkpt><trkpt lat="43.9121483" lon="12.156575"><ele>187.0</ele><time>2026-04-12T07:49:35.605Z</time></trkpt><trkpt lat="43.9123317" lon="12.1564517"><ele>191.33333333333334</ele><time>2026-04-12T07:49:36.605Z</time></trkpt><trkpt lat="43.9125133" lon="12.1563567"><ele>195.66666666666669</ele><time>2026-04-12T07:49:37.604Z</time></trkpt><trkpt lat="43.9127067" lon="12.1562933"><ele>200.0</ele><time>2026-04-12T07:49:38.604Z</time></trkpt><trkpt lat="43.9129217" lon="12.1562533"><ele>200.33333333333334</ele><time>2026-04-12T07:49:39.605Z</time></trkpt><trkpt lat="43.913125" lon="12.156225"><ele>200.66666666666669</ele><time>2026-04-12T07:49:40.604Z</time></trkpt><trkpt lat="43.91332" lon="12.1562"><ele>201.0</ele><time>2026-04-12T07:49:41.604Z</time></trkpt><trkpt lat="43.9135033" lon="12.1561817"><ele>201.0</ele><time>2026-04-12T07:49:42.604Z</time></trkpt><trkpt lat="43.9136667" lon="12.1561567"><ele>201.0</ele><time>2026-04-12T07:49:43.605Z</time></trkpt><trkpt lat="43.9138183" lon="12.1561233"><ele>201.0</ele><time>2026-04-12T07:49:44.605Z</time></trkpt><trkpt lat="43.913955" lon="12.1560933"><ele>201.0</ele><time>2026-04-12T07:49:45.605Z</time></trkpt><trkpt lat="43.91409" lon="12.1560517"><ele>201.0</ele><time>2026-04-12T07:49:46.605Z</time></trkpt><trkpt lat="43.9142217" lon="12.1559833"><ele>201.0</ele><time>2026-04-12T07:49:47.604Z</time></trkpt><trkpt lat="43.9143533" lon="12.1558733"><ele>201.0</ele><time>2026-04-12T07:49:48.605Z</time></trkpt><trkpt lat="43.9145033" lon="12.1557583"><ele>204.33333333333331</ele><time>2026-04-12T07:49:49.605Z</time></trkpt><trkpt lat="43.914645" lon="12.1556467"><ele>207.66666666666666</ele><time>2026-04-12T07:49:50.605Z</time></trkpt><trkpt lat="43.914785" lon="12.15556"><ele>211.0</ele><time>2026-04-12T07:49:51.605Z</time></trkpt><trkpt lat="43.9149283" lon="12.1555133"><ele>212.66666666666666</ele><time>2026-04-12T07:49:52.605Z</time></trkpt><trkpt lat="43.9150817" lon="12.1555083"><ele>214.33333333333331</ele><time>2026-04-12T07:49:53.604Z</time></trkpt><trkpt lat="43.9152483" lon="12.1555383"><ele>216.0</ele><time>2026-04-12T07:49:54.604Z</time></trkpt><trkpt lat="43.915405" lon="12.1556"><ele>216.0</ele><time>2026-04-12T07:49:55.604Z</time></trkpt><trkpt lat="43.915535" lon="12.1556733"><ele>216.0</ele><time>2026-04-12T07:49:56.605Z</time></trkpt><trkpt lat="43.9156567" lon="12.1557317"><ele>216.0</ele><time>2026-04-12T07:49:57.605Z</time></trkpt><trkpt lat="43.915785" lon="12.1557533"><ele>216.0</ele><time>2026-04-12T07:49:58.605Z</time></trkpt><trkpt lat="43.915925" lon="12.1557283"><ele>217.0</ele><time>2026-04-12T07:49:59.604Z</time></trkpt><trkpt lat="43.91607" lon="12.15568"><ele>218.0</ele><time>2026-04-12T07:50:00.604Z</time></trkpt><trkpt lat="43.9162283" lon="12.1556"><ele>219.0</ele><time>2026-04-12T07:50:01.604Z</time></trkpt><trkpt lat="43.9164033" lon="12.1555267"><ele>219.0</ele><time>2026-04-12T07:50:02.605Z</time></trkpt><trkpt lat="43.9165783" lon="12.1554667"><ele>219.0</ele><time>2026-04-12T07:50:03.605Z</time></trkpt><trkpt lat="43.9167517" lon="12.1554367"><ele>219.0</ele><time>2026-04-12T07:50:04.605Z</time></trkpt><trkpt lat="43.9169283" lon="12.1554317"><ele>219.0</ele><time>2026-04-12T07:50:05.605Z</time></trkpt><trkpt lat="43.9170933" lon="12.15545"><ele>219.0</ele><time>2026-04-12T07:50:06.605Z</time></trkpt><trkpt lat="43.9172383" lon="12.1554683"><ele>219.0</ele><time>2026-04-12T07:50:07.605Z</time></trkpt><trkpt lat="43.9173767" lon="12.1554933"><ele>219.0</ele><time>2026-04-12T07:50:08.605Z</time></trkpt><trkpt lat="43.9174983" lon="12.1555117"><ele>218.99999999999997</ele><time>2026-04-12T07:50:09.604Z</time></trkpt><trkpt lat="43.9176133" lon="12.1555267"><ele>218.99999999999997</ele><time>2026-04-12T07:50:10.605Z</time></trkpt><trkpt lat="43.9177117" lon="12.1555167"><ele>219.0</ele><time>2026-04-12T07:50:11.605Z</time></trkpt><trkpt lat="43.9178033" lon="12.1554733"><ele>219.0</ele><time>2026-04-12T07:50:12.604Z</time></trkpt><trkpt lat="43.9178833" lon="12.1553983"><ele>217.0</ele><time>2026-04-12T07:50:13.605Z</time></trkpt><trkpt lat="43.9179367" lon="12.1552867"><ele>215.0</ele><time>2026-04-12T07:50:14.605Z</time></trkpt><trkpt lat="43.9179733" lon="12.1551417"><ele>213.0</ele><time>2026-04-12T07:50:15.605Z</time></trkpt><trkpt lat="43.9179783" lon="12.1549617"><ele>211.0</ele><time>2026-04-12T07:50:16.605Z</time></trkpt><trkpt lat="43.917965" lon="12.1547683"><ele>205.66666666666666</ele><time>2026-04-12T07:50:17.605Z</time></trkpt><trkpt lat="43.9179317" lon="12.1545633"><ele>200.33333333333331</ele><time>2026-04-12T07:50:18.605Z</time></trkpt><trkpt lat="43.9178867" lon="12.15436"><ele>195.0</ele><time>2026-04-12T07:50:19.604Z</time></trkpt><trkpt lat="43.9178233" lon="12.1541683"><ele>192.0</ele><time>2026-04-12T07:50:20.605Z</time></trkpt><trkpt lat="43.917745" lon="12.15399"><ele>189.0</ele><time>2026-04-12T07:50:21.604Z</time></trkpt><trkpt lat="43.91765" lon="12.153825"><ele>186.0</ele><time>2026-04-12T07:50:22.605Z</time></trkpt><trkpt lat="43.9175333" lon="12.153675"><ele>192.33333333333331</ele><time>2026-04-12T07:50:23.605Z</time></trkpt><trkpt lat="43.917415" lon="12.1535367"><ele>198.66666666666666</ele><time>2026-04-12T07:50:24.604Z</time></trkpt><trkpt lat="43.917305" lon="12.15339"><ele>205.0</ele><time>2026-04-12T07:50:25.605Z</time></trkpt><trkpt lat="43.91721" lon="12.1532267"><ele>201.66666666666666</ele><time>2026-04-12T07:50:26.605Z</time></trkpt><trkpt lat="43.9171217" lon="12.1530333"><ele>198.33333333333331</ele><time>2026-04-12T07:50:27.604Z</time></trkpt><trkpt lat="43.9170567" lon="12.1528117"><ele>195.0</ele><time>2026-04-12T07:50:28.605Z</time></trkpt><trkpt lat="43.9170117" lon="12.1525717"><ele>194.33333333333331</ele><time>2026-04-12T07:50:29.604Z</time></trkpt><trkpt lat="43.9169933" lon="12.1523167"><ele>193.66666666666666</ele><time>2026-04-12T07:50:30.605Z</time></trkpt><trkpt lat="43.916985" lon="12.1520767"><ele>193.0</ele><time>2026-04-12T07:50:31.604Z</time></trkpt><trkpt lat="43.916985" lon="12.1518383"><ele>193.0</ele><time>2026-04-12T07:50:32.604Z</time></trkpt><trkpt lat="43.9169983" lon="12.15161"><ele>193.0</ele><time>2026-04-12T07:50:33.604Z</time></trkpt><trkpt lat="43.9170367" lon="12.151385"><ele>193.0</ele><time>2026-04-12T07:50:34.605Z</time></trkpt><trkpt lat="43.9170867" lon="12.15117"><ele>192.5</ele><time>2026-04-12T07:50:35.604Z</time></trkpt><trkpt lat="43.9171317" lon="12.150975"><ele>192.0</ele><time>2026-04-12T07:50:36.604Z</time></trkpt><trkpt lat="43.9171717" lon="12.15079"><ele>191.5</ele><time>2026-04-12T07:50:37.605Z</time></trkpt><trkpt lat="43.9172033" lon="12.15061"><ele>191.0</ele><time>2026-04-12T07:50:38.605Z</time></trkpt><trkpt lat="43.9172067" lon="12.1504467"><ele>189.0</ele><time>2026-04-12T07:50:39.605Z</time></trkpt><trkpt lat="43.917175" lon="12.15027"><ele>187.0</ele><time>2026-04-12T07:50:40.604Z</time></trkpt><trkpt lat="43.9171067" lon="12.1500833"><ele>185.0</ele><time>2026-04-12T07:50:41.605Z</time></trkpt><trkpt lat="43.9170017" lon="12.1499133"><ele>183.0</ele><time>2026-04-12T07:50:42.604Z</time></trkpt><trkpt lat="43.916865" lon="12.1497483"><ele>184.0</ele><time>2026-04-12T07:50:43.605Z</time></trkpt><trkpt lat="43.91672" lon="12.1496017"><ele>185.0</ele><time>2026-04-12T07:50:44.605Z</time></trkpt><trkpt lat="43.91658" lon="12.1494817"><ele>186.0</ele><time>2026-04-12T07:50:45.605Z</time></trkpt><trkpt lat="43.9164517" lon="12.1493683"><ele>186.0</ele><time>2026-04-12T07:50:46.605Z</time></trkpt><trkpt lat="43.9163467" lon="12.1492567"><ele>186.0</ele><time>2026-04-12T07:50:47.605Z</time></trkpt><trkpt lat="43.9162733" lon="12.1491333"><ele>186.0</ele><time>2026-04-12T07:50:48.605Z</time></trkpt><trkpt lat="43.9162367" lon="12.1489667"><ele>186.0</ele><time>2026-04-12T07:50:49.605Z</time></trkpt><trkpt lat="43.9162383" lon="12.1487733"><ele>184.5</ele><time>2026-04-12T07:50:50.604Z</time></trkpt><trkpt lat="43.9162533" lon="12.1485767"><ele>183.0</ele><time>2026-04-12T07:50:51.605Z</time></trkpt><trkpt lat="43.9162617" lon="12.148395"><ele>181.5</ele><time>2026-04-12T07:50:52.604Z</time></trkpt><trkpt lat="43.91623" lon="12.1482117"><ele>180.0</ele><time>2026-04-12T07:50:53.605Z</time></trkpt><trkpt lat="43.9161733" lon="12.1480417"><ele>179.25</ele><time>2026-04-12T07:50:54.605Z</time></trkpt><trkpt lat="43.9161067" lon="12.1478817"><ele>178.5</ele><time>2026-04-12T07:50:55.605Z</time></trkpt><trkpt lat="43.916045" lon="12.1477183"><ele>177.75</ele><time>2026-04-12T07:50:56.605Z</time></trkpt><trkpt lat="43.9159917" lon="12.1475367"><ele>177.0</ele><time>2026-04-12T07:50:57.604Z</time></trkpt><trkpt lat="43.91596" lon="12.1473517"><ele>177.0</ele><time>2026-04-12T07:50:58.605Z</time></trkpt><trkpt lat="43.9159467" lon="12.1471817"><ele>177.0</ele><time>2026-04-12T07:50:59.605Z</time></trkpt><trkpt lat="43.9159517" lon="12.1470417"><ele>177.0</ele><time>2026-04-12T07:51:00.604Z</time></trkpt><trkpt lat="43.9159817" lon="12.1469233"><ele>177.0</ele><time>2026-04-12T07:51:01.605Z</time></trkpt><trkpt lat="43.916045" lon="12.14682"><ele>177.0</ele><time>2026-04-12T07:51:02.604Z</time></trkpt><trkpt lat="43.9161417" lon="12.1467333"><ele>177.0</ele><time>2026-04-12T07:51:03.604Z</time></trkpt><trkpt lat="43.9162333" lon="12.1466467"><ele>177.0</ele><time>2026-04-12T07:51:04.605Z</time></trkpt><trkpt lat="43.9163617" lon="12.1465517"><ele>177.0</ele><time>2026-04-12T07:51:05.605Z</time></trkpt><trkpt lat="43.9165083" lon="12.1464633"><ele>177.0</ele><time>2026-04-12T07:51:06.604Z</time></trkpt><trkpt lat="43.916665" lon="12.1463633"><ele>184.33333333333331</ele><time>2026-04-12T07:51:07.604Z</time></trkpt><trkpt lat="43.9168383" lon="12.14629"><ele>191.66666666666666</ele><time>2026-04-12T07:51:08.605Z</time></trkpt><trkpt lat="43.9170183" lon="12.1462383"><ele>199.0</ele><time>2026-04-12T07:51:09.605Z</time></trkpt><trkpt lat="43.91721" lon="12.1461967"><ele>199.0</ele><time>2026-04-12T07:51:10.605Z</time></trkpt><trkpt lat="43.917395" lon="12.1461467"><ele>199.0</ele><time>2026-04-12T07:51:11.605Z</time></trkpt><trkpt lat="43.9175717" lon="12.14609"><ele>199.0</ele><time>2026-04-12T07:51:12.605Z</time></trkpt><trkpt lat="43.9177383" lon="12.14603"><ele>198.33333333333331</ele><time>2026-04-12T07:51:13.604Z</time></trkpt><trkpt lat="43.9179" lon="12.1459717"><ele>197.66666666666669</ele><time>2026-04-12T07:51:14.605Z</time></trkpt><trkpt lat="43.918055" lon="12.145915"><ele>197.0</ele><time>2026-04-12T07:51:15.605Z</time></trkpt><trkpt lat="43.9182117" lon="12.1458483"><ele>197.0</ele><time>2026-04-12T07:51:16.604Z</time></trkpt><trkpt lat="43.9183717" lon="12.1458167"><ele>197.0</ele><time>2026-04-12T07:51:17.605Z</time></trkpt><trkpt lat="43.91853" lon="12.14583"><ele>197.0</ele><time>2026-04-12T07:51:18.605Z</time></trkpt><trkpt lat="43.9186883" lon="12.1458767"><ele>199.33333333333334</ele><time>2026-04-12T07:51:19.604Z</time></trkpt><trkpt lat="43.9188433" lon="12.1459383"><ele>201.66666666666669</ele><time>2026-04-12T07:51:20.605Z</time></trkpt><trkpt lat="43.9189967" lon="12.1459767"><ele>204.0</ele><time>2026-04-12T07:51:21.605Z</time></trkpt><trkpt lat="43.9191583" lon="12.1459917"><ele>203.66666666666669</ele><time>2026-04-12T07:51:22.605Z</time></trkpt><trkpt lat="43.919325" lon="12.1459567"><ele>203.33333333333334</ele><time>2026-04-12T07:51:23.606Z</time></trkpt><trkpt lat="43.91949" lon="12.1459033"><ele>203.0</ele><time>2026-04-12T07:51:24.606Z</time></trkpt><trkpt lat="43.9196367" lon="12.1458383"><ele>203.0</ele><time>2026-04-12T07:51:25.605Z</time></trkpt><trkpt lat="43.91977" lon="12.145755"><ele>203.0</ele><time>2026-04-12T07:51:26.606Z</time></trkpt><trkpt lat="43.9198917" lon="12.14567"><ele>203.0</ele><time>2026-04-12T07:51:27.606Z</time></trkpt><trkpt lat="43.920005" lon="12.145615"><ele>203.0</ele><time>2026-04-12T07:51:28.606Z</time></trkpt><trkpt lat="43.9201083" lon="12.1456033"><ele>205.2</ele><time>2026-04-12T07:51:29.606Z</time></trkpt><trkpt lat="43.9201933" lon="12.1456383"><ele>207.4</ele><time>2026-04-12T07:51:30.606Z</time></trkpt><trkpt lat="43.920265" lon="12.1457"><ele>209.59999999999997</ele><time>2026-04-12T07:51:31.605Z</time></trkpt><trkpt lat="43.9203433" lon="12.145805"><ele>211.79999999999998</ele><time>2026-04-12T07:51:33.606Z</time></trkpt><trkpt lat="43.9204017" lon="12.1458567"><ele>214.0</ele><time>2026-04-12T07:51:35.606Z</time></trkpt><trkpt lat="43.9206982" lon="12.1458811"><ele>214.0</ele><time>2026-04-12T07:52:10.606Z</time></trkpt><trkpt lat="43.9208288" lon="12.1459113"><ele>214.0</ele><time>2026-04-12T07:52:11.606Z</time></trkpt><trkpt lat="43.9209534" lon="12.145954"><ele>214.0</ele><time>2026-04-12T07:52:12.606Z</time></trkpt><trkpt lat="43.9210693" lon="12.1460131"><ele>214.0</ele><time>2026-04-12T07:52:13.606Z</time></trkpt><trkpt lat="43.9211914" lon="12.1460757"><ele>217.0</ele><time>2026-04-12T07:52:14.606Z</time></trkpt><trkpt lat="43.921306" lon="12.1461594"><ele>220.0</ele><time>2026-04-12T07:52:15.606Z</time></trkpt><trkpt lat="43.9214223" lon="12.1462603"><ele>223.0</ele><time>2026-04-12T07:52:16.606Z</time></trkpt><trkpt lat="43.9215158" lon="12.1463872"><ele>226.0</ele><time>2026-04-12T07:52:17.606Z</time></trkpt><trkpt lat="43.9215814" lon="12.1465409"><ele>225.0</ele><time>2026-04-12T07:52:18.606Z</time></trkpt><trkpt lat="43.9216123" lon="12.1467047"><ele>224.00000000000003</ele><time>2026-04-12T07:52:19.605Z</time></trkpt><trkpt lat="43.9216279" lon="12.1468568"><ele>223.00000000000003</ele><time>2026-04-12T07:52:20.605Z</time></trkpt><trkpt lat="43.921633" lon="12.1469787"><ele>222.0</ele><time>2026-04-12T07:52:21.606Z</time></trkpt><trkpt lat="43.9216339" lon="12.1470695"><ele>221.0</ele><time>2026-04-12T07:52:22.606Z</time></trkpt><trkpt lat="43.9217166" lon="12.1470782"><ele>227.25</ele><time>2026-04-12T07:52:26.606Z</time></trkpt><trkpt lat="43.9217639" lon="12.1468897"><ele>233.5</ele><time>2026-04-12T07:52:28.605Z</time></trkpt><trkpt lat="43.9217755" lon="12.146715"><ele>239.75</ele><time>2026-04-12T07:52:29.606Z</time></trkpt><trkpt lat="43.9217815" lon="12.1465257"><ele>246.0</ele><time>2026-04-12T07:52:30.606Z</time></trkpt><trkpt lat="43.9217896" lon="12.146333"><ele>246.5</ele><time>2026-04-12T07:52:31.605Z</time></trkpt><trkpt lat="43.9217948" lon="12.1461518"><ele>247.0</ele><time>2026-04-12T07:52:32.605Z</time></trkpt><trkpt lat="43.921796" lon="12.1459987"><ele>247.5</ele><time>2026-04-12T07:52:33.606Z</time></trkpt><trkpt lat="43.9217776" lon="12.1458535"><ele>248.0</ele><time>2026-04-12T07:52:34.606Z</time></trkpt><trkpt lat="43.9217226" lon="12.1457153"><ele>247.0</ele><time>2026-04-12T07:52:35.606Z</time></trkpt><trkpt lat="43.9216332" lon="12.1456064"><ele>246.0</ele><time>2026-04-12T07:52:36.605Z</time></trkpt><trkpt lat="43.9215074" lon="12.1455227"><ele>245.0</ele><time>2026-04-12T07:52:37.605Z</time></trkpt><trkpt lat="43.9213493" lon="12.1454669"><ele>244.0</ele><time>2026-04-12T07:52:38.606Z</time></trkpt><trkpt lat="43.92118" lon="12.1454029"><ele>244.0</ele><time>2026-04-12T07:52:39.606Z</time></trkpt><trkpt lat="43.9210082" lon="12.1453184"><ele>244.0</ele><time>2026-04-12T07:52:40.606Z</time></trkpt><trkpt lat="43.9208444" lon="12.1452192"><ele>244.0</ele><time>2026-04-12T07:52:41.606Z</time></trkpt><trkpt lat="43.920696" lon="12.1451097"><ele>242.33333333333331</ele><time>2026-04-12T07:52:42.606Z</time></trkpt><trkpt lat="43.9205484" lon="12.1450052"><ele>240.66666666666669</ele><time>2026-04-12T07:52:43.605Z</time></trkpt><trkpt lat="43.9203974" lon="12.1449224"><ele>239.0</ele><time>2026-04-12T07:52:44.606Z</time></trkpt><trkpt lat="43.9202517" lon="12.144866"><ele>241.25</ele><time>2026-04-12T07:52:45.606Z</time></trkpt><trkpt lat="43.9201166" lon="12.1448204"><ele>243.5</ele><time>2026-04-12T07:52:46.605Z</time></trkpt><trkpt lat="43.9199933" lon="12.1447881"><ele>245.75</ele><time>2026-04-12T07:52:47.606Z</time></trkpt><trkpt lat="43.9198836" lon="12.1447742"><ele>248.0</ele><time>2026-04-12T07:52:48.606Z</time></trkpt><trkpt lat="43.919781" lon="12.1447839"><ele>248.0</ele><time>2026-04-12T07:52:49.606Z</time></trkpt><trkpt lat="43.9196817" lon="12.1447966"><ele>248.0</ele><time>2026-04-12T07:52:50.606Z</time></trkpt><trkpt lat="43.9195786" lon="12.1448168"><ele>248.0</ele><time>2026-04-12T07:52:51.606Z</time></trkpt><trkpt lat="43.9194742" lon="12.1448427"><ele>248.0</ele><time>2026-04-12T07:52:52.606Z</time></trkpt><trkpt lat="43.9193584" lon="12.1448667"><ele>248.0</ele><time>2026-04-12T07:52:53.606Z</time></trkpt><trkpt lat="43.9192453" lon="12.1448855"><ele>244.25</ele><time>2026-04-12T07:52:54.606Z</time></trkpt><trkpt lat="43.9191298" lon="12.1449025"><ele>240.5</ele><time>2026-04-12T07:52:55.606Z</time></trkpt><trkpt lat="43.9190076" lon="12.1449205"><ele>236.75</ele><time>2026-04-12T07:52:56.606Z</time></trkpt><trkpt lat="43.9188803" lon="12.1449198"><ele>233.0</ele><time>2026-04-12T07:52:57.605Z</time></trkpt><trkpt lat="43.9187379" lon="12.1449089"><ele>233.0</ele><time>2026-04-12T07:52:58.606Z</time></trkpt><trkpt lat="43.9185855" lon="12.1448924"><ele>233.0</ele><time>2026-04-12T07:52:59.606Z</time></trkpt><trkpt lat="43.918426" lon="12.1448719"><ele>233.0</ele><time>2026-04-12T07:53:00.605Z</time></trkpt><trkpt lat="43.918277" lon="12.1448513"><ele>235.25</ele><time>2026-04-12T07:53:01.606Z</time></trkpt><trkpt lat="43.9181479" lon="12.1448213"><ele>237.5</ele><time>2026-04-12T07:53:02.606Z</time></trkpt><trkpt lat="43.9180351" lon="12.1447791"><ele>239.75</ele><time>2026-04-12T07:53:03.606Z</time></trkpt><trkpt lat="43.9179375" lon="12.1446679"><ele>242.0</ele><time>2026-04-12T07:53:04.606Z</time></trkpt><trkpt lat="43.9178619" lon="12.1444963"><ele>242.0</ele><time>2026-04-12T07:53:05.606Z</time></trkpt><trkpt lat="43.9178153" lon="12.1442878"><ele>242.0</ele><time>2026-04-12T07:53:06.605Z</time></trkpt><trkpt lat="43.9177792" lon="12.1440679"><ele>242.0</ele><time>2026-04-12T07:53:07.606Z</time></trkpt><trkpt lat="43.9177497" lon="12.1438611"><ele>243.0</ele><time>2026-04-12T07:53:08.606Z</time></trkpt><trkpt lat="43.9177212" lon="12.1436658"><ele>244.0</ele><time>2026-04-12T07:53:09.606Z</time></trkpt><trkpt lat="43.9176932" lon="12.1434947"><ele>245.0</ele><time>2026-04-12T07:53:10.606Z</time></trkpt><trkpt lat="43.9176519" lon="12.1433468"><ele>246.0</ele><time>2026-04-12T07:53:11.606Z</time></trkpt><trkpt lat="43.9175967" lon="12.1432162"><ele>244.0</ele><time>2026-04-12T07:53:12.606Z</time></trkpt><trkpt lat="43.9175357" lon="12.1430716"><ele>242.0</ele><time>2026-04-12T07:53:13.606Z</time></trkpt><trkpt lat="43.9174698" lon="12.1429187"><ele>240.0</ele><time>2026-04-12T07:53:14.606Z</time></trkpt><trkpt lat="43.9174111" lon="12.142757"><ele>238.0</ele><time>2026-04-12T07:53:15.605Z</time></trkpt><trkpt lat="43.9173659" lon="12.142592"><ele>238.0</ele><time>2026-04-12T07:53:16.605Z</time></trkpt><trkpt lat="43.9173255" lon="12.1424218"><ele>238.0</ele><time>2026-04-12T07:53:17.605Z</time></trkpt><trkpt lat="43.9173066" lon="12.1422399"><ele>238.0</ele><time>2026-04-12T07:53:18.606Z</time></trkpt><trkpt lat="43.9173024" lon="12.1420331"><ele>238.0</ele><time>2026-04-12T07:53:19.606Z</time></trkpt><trkpt lat="43.9173113" lon="12.1418362"><ele>237.33333333333331</ele><time>2026-04-12T07:53:20.606Z</time></trkpt><trkpt lat="43.9173303" lon="12.1416558"><ele>236.66666666666669</ele><time>2026-04-12T07:53:21.605Z</time></trkpt><trkpt lat="43.9173872" lon="12.1414761"><ele>236.0</ele><time>2026-04-12T07:53:23.079Z</time></trkpt><trkpt lat="43.91726" lon="12.1411044"><ele>234.0</ele><time>2026-04-12T07:53:24.258Z</time></trkpt><trkpt lat="43.9171926" lon="12.1408514"><ele>232.0</ele><time>2026-04-12T07:53:25.605Z</time></trkpt><trkpt lat="43.9170971" lon="12.1406502"><ele>230.0</ele><time>2026-04-12T07:53:26.606Z</time></trkpt><trkpt lat="43.9169866" lon="12.1404648"><ele>230.66666666666669</ele><time>2026-04-12T07:53:27.606Z</time></trkpt><trkpt lat="43.9168561" lon="12.1402673"><ele>231.33333333333331</ele><time>2026-04-12T07:53:28.606Z</time></trkpt><trkpt lat="43.9167244" lon="12.1400556"><ele>232.0</ele><time>2026-04-12T07:53:29.605Z</time></trkpt><trkpt lat="43.916595" lon="12.1398485"><ele>232.0</ele><time>2026-04-12T07:53:30.606Z</time></trkpt><trkpt lat="43.9164647" lon="12.1396341"><ele>232.0</ele><time>2026-04-12T07:53:31.605Z</time></trkpt><trkpt lat="43.9163294" lon="12.1394144"><ele>232.0</ele><time>2026-04-12T07:53:32.606Z</time></trkpt><trkpt lat="43.9161919" lon="12.1391996"><ele>232.33333333333331</ele><time>2026-04-12T07:53:33.606Z</time></trkpt><trkpt lat="43.9160667" lon="12.1389962"><ele>232.66666666666669</ele><time>2026-04-12T07:53:34.606Z</time></trkpt><trkpt lat="43.9159437" lon="12.138809"><ele>233.0</ele><time>2026-04-12T07:53:35.606Z</time></trkpt><trkpt lat="43.9158157" lon="12.1386523"><ele>233.0</ele><time>2026-04-12T07:53:36.606Z</time></trkpt><trkpt lat="43.9156803" lon="12.1385325"><ele>233.0</ele><time>2026-04-12T07:53:37.606Z</time></trkpt><trkpt lat="43.9155405" lon="12.1384349"><ele>233.0</ele><time>2026-04-12T07:53:38.605Z</time></trkpt><trkpt lat="43.9154043" lon="12.1383588"><ele>233.0</ele><time>2026-04-12T07:53:39.606Z</time></trkpt><trkpt lat="43.9152821" lon="12.138281"><ele>233.0</ele><time>2026-04-12T07:53:40.606Z</time></trkpt><trkpt lat="43.9151854" lon="12.1381988"><ele>233.0</ele><time>2026-04-12T07:53:41.606Z</time></trkpt><trkpt lat="43.9151141" lon="12.1380971"><ele>233.0</ele><time>2026-04-12T07:53:42.605Z</time></trkpt><trkpt lat="43.9150711" lon="12.1379584"><ele>233.25</ele><time>2026-04-12T07:53:43.605Z</time></trkpt><trkpt lat="43.9150524" lon="12.1377844"><ele>233.5</ele><time>2026-04-12T07:53:44.606Z</time></trkpt><trkpt lat="43.9150599" lon="12.1375853"><ele>233.75</ele><time>2026-04-12T07:53:45.606Z</time></trkpt><trkpt lat="43.915074" lon="12.1373843"><ele>234.0</ele><time>2026-04-12T07:53:46.606Z</time></trkpt><trkpt lat="43.9150911" lon="12.1371827"><ele>234.0</ele><time>2026-04-12T07:53:47.606Z</time></trkpt><trkpt lat="43.9151073" lon="12.1369785"><ele>234.0</ele><time>2026-04-12T07:53:48.606Z</time></trkpt><trkpt lat="43.9151202" lon="12.1367812"><ele>234.0</ele><time>2026-04-12T07:53:49.605Z</time></trkpt><trkpt lat="43.9151282" lon="12.1365912"><ele>234.0</ele><time>2026-04-12T07:53:50.606Z</time></trkpt><trkpt lat="43.9151335" lon="12.1364144"><ele>234.75</ele><time>2026-04-12T07:53:51.606Z</time></trkpt><trkpt lat="43.9151358" lon="12.1362521"><ele>235.5</ele><time>2026-04-12T07:53:52.606Z</time></trkpt><trkpt lat="43.9151285" lon="12.136085"><ele>236.25</ele><time>2026-04-12T07:53:53.606Z</time></trkpt><trkpt lat="43.9151031" lon="12.1359088"><ele>237.0</ele><time>2026-04-12T07:53:54.606Z</time></trkpt><trkpt lat="43.9150671" lon="12.1357141"><ele>237.0</ele><time>2026-04-12T07:53:55.606Z</time></trkpt><trkpt lat="43.9150219" lon="12.1355024"><ele>237.0</ele><time>2026-04-12T07:53:56.606Z</time></trkpt><trkpt lat="43.9149709" lon="12.1352794"><ele>237.0</ele><time>2026-04-12T07:53:57.605Z</time></trkpt><trkpt lat="43.9149277" lon="12.1350474"><ele>241.0</ele><time>2026-04-12T07:53:58.605Z</time></trkpt><trkpt lat="43.9149" lon="12.1348013"><ele>245.0</ele><time>2026-04-12T07:53:59.605Z</time></trkpt><trkpt lat="43.9148816" lon="12.1345578"><ele>249.0</ele><time>2026-04-12T07:54:00.606Z</time></trkpt><trkpt lat="43.9148568" lon="12.1343202"><ele>249.0</ele><time>2026-04-12T07:54:01.606Z</time></trkpt><trkpt lat="43.9148208" lon="12.13409"><ele>249.0</ele><time>2026-04-12T07:54:02.606Z</time></trkpt><trkpt lat="43.914778" lon="12.1338801"><ele>249.0</ele><time>2026-04-12T07:54:03.605Z</time></trkpt><trkpt lat="43.9147285" lon="12.1336729"><ele>251.0</ele><time>2026-04-12T07:54:04.606Z</time></trkpt><trkpt lat="43.9146773" lon="12.1334747"><ele>253.0</ele><time>2026-04-12T07:54:05.605Z</time></trkpt><trkpt lat="43.9146288" lon="12.1332937"><ele>255.0</ele><time>2026-04-12T07:54:06.605Z</time></trkpt><trkpt lat="43.914579" lon="12.1331157"><ele>257.0</ele><time>2026-04-12T07:54:07.605Z</time></trkpt><trkpt lat="43.9145271" lon="12.1329481"><ele>258.5</ele><time>2026-04-12T07:54:08.606Z</time></trkpt><trkpt lat="43.9144834" lon="12.1327942"><ele>260.0</ele><time>2026-04-12T07:54:09.606Z</time></trkpt><trkpt lat="43.9144436" lon="12.1326309"><ele>261.5</ele><time>2026-04-12T07:54:10.606Z</time></trkpt><trkpt lat="43.9144058" lon="12.1324581"><ele>263.0</ele><time>2026-04-12T07:54:11.606Z</time></trkpt><trkpt lat="43.9143928" lon="12.1322697"><ele>263.6</ele><time>2026-04-12T07:54:12.605Z</time></trkpt><trkpt lat="43.914396" lon="12.1320924"><ele>264.20000000000005</ele><time>2026-04-12T07:54:13.606Z</time></trkpt><trkpt lat="43.9144023" lon="12.1319378"><ele>264.8</ele><time>2026-04-12T07:54:14.606Z</time></trkpt><trkpt lat="43.914409" lon="12.1318252"><ele>265.40000000000003</ele><time>2026-04-12T07:54:15.606Z</time></trkpt><trkpt lat="43.9144088" lon="12.1317338"><ele>266.0</ele><time>2026-04-12T07:54:16.606Z</time></trkpt><trkpt lat="43.9144198" lon="12.1316129"><ele>267.6</ele><time>2026-04-12T07:54:18.606Z</time></trkpt><trkpt lat="43.9144317" lon="12.131517"><ele>269.20000000000005</ele><time>2026-04-12T07:54:21.605Z</time></trkpt><trkpt lat="43.9144094" lon="12.1314026"><ele>270.79999999999995</ele><time>2026-04-12T07:54:28.605Z</time></trkpt><trkpt lat="43.9144081" lon="12.1312908"><ele>272.4</ele><time>2026-04-12T07:54:29.606Z</time></trkpt><trkpt lat="43.914419" lon="12.1311361"><ele>274.0</ele><time>2026-04-12T07:54:30.606Z</time></trkpt><trkpt lat="43.9144282" lon="12.1309318"><ele>275.5</ele><time>2026-04-12T07:54:31.606Z</time></trkpt><trkpt lat="43.9144297" lon="12.130721"><ele>277.0</ele><time>2026-04-12T07:54:32.606Z</time></trkpt><trkpt lat="43.9144298" lon="12.1305217"><ele>278.5</ele><time>2026-04-12T07:54:33.605Z</time></trkpt><trkpt lat="43.914427" lon="12.1303275"><ele>280.0</ele><time>2026-04-12T07:54:34.605Z</time></trkpt><trkpt lat="43.9144261" lon="12.1301387"><ele>280.0</ele><time>2026-04-12T07:54:35.606Z</time></trkpt><trkpt lat="43.9144239" lon="12.1299663"><ele>280.0</ele><time>2026-04-12T07:54:36.605Z</time></trkpt><trkpt lat="43.9144048" lon="12.1297958"><ele>280.0</ele><time>2026-04-12T07:54:37.605Z</time></trkpt><trkpt lat="43.9143615" lon="12.1296285"><ele>280.0</ele><time>2026-04-12T07:54:38.606Z</time></trkpt><trkpt lat="43.9142945" lon="12.1294513"><ele>275.5</ele><time>2026-04-12T07:54:39.606Z</time></trkpt><trkpt lat="43.9142199" lon="12.1292673"><ele>271.0</ele><time>2026-04-12T07:54:40.606Z</time></trkpt><trkpt lat="43.9141485" lon="12.1290911"><ele>266.5</ele><time>2026-04-12T07:54:41.606Z</time></trkpt><trkpt lat="43.9140772" lon="12.1289144"><ele>262.0</ele><time>2026-04-12T07:54:42.606Z</time></trkpt><trkpt lat="43.9139863" lon="12.1287517"><ele>262.0</ele><time>2026-04-12T07:54:43.605Z</time></trkpt><trkpt lat="43.9138729" lon="12.1285974"><ele>262.0</ele><time>2026-04-12T07:54:44.606Z</time></trkpt><trkpt lat="43.9137455" lon="12.1284591"><ele>262.0</ele><time>2026-04-12T07:54:45.605Z</time></trkpt><trkpt lat="43.9136092" lon="12.1283007"><ele>258.66666666666663</ele><time>2026-04-12T07:54:46.606Z</time></trkpt><trkpt lat="43.9134813" lon="12.1281103"><ele>255.33333333333331</ele><time>2026-04-12T07:54:47.605Z</time></trkpt><trkpt lat="43.9133532" lon="12.1279267"><ele>252.0</ele><time>2026-04-12T07:54:48.606Z</time></trkpt><trkpt lat="43.9132264" lon="12.1277617"><ele>252.0</ele><time>2026-04-12T07:54:49.606Z</time></trkpt><trkpt lat="43.9131026" lon="12.1276142"><ele>252.0</ele><time>2026-04-12T07:54:50.606Z</time></trkpt><trkpt lat="43.9129843" lon="12.1274735"><ele>252.0</ele><time>2026-04-12T07:54:51.606Z</time></trkpt><trkpt lat="43.9128701" lon="12.1273106"><ele>248.0</ele><time>2026-04-12T07:54:52.606Z</time></trkpt><trkpt lat="43.9127638" lon="12.1271267"><ele>244.0</ele><time>2026-04-12T07:54:53.606Z</time></trkpt><trkpt lat="43.9126637" lon="12.1269196"><ele>240.0</ele><time>2026-04-12T07:54:54.606Z</time></trkpt><trkpt lat="43.9125706" lon="12.1267069"><ele>242.0</ele><time>2026-04-12T07:54:55.606Z</time></trkpt><trkpt lat="43.9124859" lon="12.1265061"><ele>244.0</ele><time>2026-04-12T07:54:56.605Z</time></trkpt><trkpt lat="43.9124112" lon="12.1263145"><ele>246.0</ele><time>2026-04-12T07:54:57.606Z</time></trkpt><trkpt lat="43.9123483" lon="12.1261355"><ele>246.0</ele><time>2026-04-12T07:54:58.606Z</time></trkpt><trkpt lat="43.9123076" lon="12.1259529"><ele>246.0</ele><time>2026-04-12T07:54:59.606Z</time></trkpt><trkpt lat="43.9123091" lon="12.1257368"><ele>246.0</ele><time>2026-04-12T07:55:00.606Z</time></trkpt><trkpt lat="43.9123249" lon="12.1255271"><ele>246.0</ele><time>2026-04-12T07:55:01.606Z</time></trkpt><trkpt lat="43.912366" lon="12.1253027"><ele>247.0</ele><time>2026-04-12T07:55:02.606Z</time></trkpt><trkpt lat="43.9124324" lon="12.1250856"><ele>248.0</ele><time>2026-04-12T07:55:03.606Z</time></trkpt><trkpt lat="43.9125073" lon="12.1248961"><ele>249.0</ele><time>2026-04-12T07:55:04.606Z</time></trkpt><trkpt lat="43.9125659" lon="12.1247181"><ele>250.0</ele><time>2026-04-12T07:55:05.606Z</time></trkpt><trkpt lat="43.9126045" lon="12.124544"><ele>251.0</ele><time>2026-04-12T07:55:06.605Z</time></trkpt><trkpt lat="43.9126053" lon="12.1243767"><ele>252.0</ele><time>2026-04-12T07:55:07.605Z</time></trkpt><trkpt lat="43.912581" lon="12.1242279"><ele>253.0</ele><time>2026-04-12T07:55:08.606Z</time></trkpt><trkpt lat="43.9125274" lon="12.1240824"><ele>253.0</ele><time>2026-04-12T07:55:09.606Z</time></trkpt><trkpt lat="43.9124436" lon="12.1239703"><ele>253.0</ele><time>2026-04-12T07:55:10.605Z</time></trkpt><trkpt lat="43.9123426" lon="12.1239251"><ele>253.0</ele><time>2026-04-12T07:55:11.605Z</time></trkpt><trkpt lat="43.9122365" lon="12.1239551"><ele>253.0</ele><time>2026-04-12T07:55:12.606Z</time></trkpt><trkpt lat="43.9121406" lon="12.124027"><ele>253.0</ele><time>2026-04-12T07:55:13.606Z</time></trkpt><trkpt lat="43.912041" lon="12.1240926"><ele>253.0</ele><time>2026-04-12T07:55:14.606Z</time></trkpt><trkpt lat="43.91193" lon="12.1240963"><ele>253.0</ele><time>2026-04-12T07:55:15.606Z</time></trkpt><trkpt lat="43.9118096" lon="12.1240352"><ele>253.0</ele><time>2026-04-12T07:55:16.606Z</time></trkpt><trkpt lat="43.9116896" lon="12.123909"><ele>253.0</ele><time>2026-04-12T07:55:17.606Z</time></trkpt><trkpt lat="43.911576" lon="12.1237376"><ele>254.66666666666666</ele><time>2026-04-12T07:55:18.606Z</time></trkpt><trkpt lat="43.9114657" lon="12.1235311"><ele>256.3333333333333</ele><time>2026-04-12T07:55:19.606Z</time></trkpt><trkpt lat="43.911361" lon="12.1233377"><ele>258.0</ele><time>2026-04-12T07:55:20.606Z</time></trkpt><trkpt lat="43.9112688" lon="12.1231567"><ele>259.25</ele><time>2026-04-12T07:55:21.605Z</time></trkpt><trkpt lat="43.9111896" lon="12.1229953"><ele>260.5</ele><time>2026-04-12T07:55:22.606Z</time></trkpt><trkpt lat="43.9111228" lon="12.1228322"><ele>261.75</ele><time>2026-04-12T07:55:23.606Z</time></trkpt><trkpt lat="43.9110585" lon="12.1226873"><ele>263.0</ele><time>2026-04-12T07:55:24.606Z</time></trkpt><trkpt lat="43.910999" lon="12.1225468"><ele>263.0</ele><time>2026-04-12T07:55:25.606Z</time></trkpt><trkpt lat="43.9109326" lon="12.1224115"><ele>263.0</ele><time>2026-04-12T07:55:26.605Z</time></trkpt><trkpt lat="43.9108606" lon="12.1222872"><ele>263.0</ele><time>2026-04-12T07:55:27.605Z</time></trkpt><trkpt lat="43.9107872" lon="12.1221668"><ele>263.0</ele><time>2026-04-12T07:55:28.606Z</time></trkpt><trkpt lat="43.9107067" lon="12.1220542"><ele>261.25</ele><time>2026-04-12T07:55:29.606Z</time></trkpt><trkpt lat="43.9106098" lon="12.1219376"><ele>259.5</ele><time>2026-04-12T07:55:30.606Z</time></trkpt><trkpt lat="43.9104955" lon="12.121804"><ele>257.75</ele><time>2026-04-12T07:55:31.606Z</time></trkpt><trkpt lat="43.9103749" lon="12.1216597"><ele>256.0</ele><time>2026-04-12T07:55:32.605Z</time></trkpt><trkpt lat="43.9102515" lon="12.1215092"><ele>256.3333333333333</ele><time>2026-04-12T07:55:33.606Z</time></trkpt><trkpt lat="43.910129" lon="12.1213609"><ele>256.6666666666667</ele><time>2026-04-12T07:55:34.606Z</time></trkpt><trkpt lat="43.9100145" lon="12.1211954"><ele>257.0</ele><time>2026-04-12T07:55:35.605Z</time></trkpt><trkpt lat="43.9099072" lon="12.1210111"><ele>257.0</ele><time>2026-04-12T07:55:36.606Z</time></trkpt><trkpt lat="43.9098003" lon="12.1208037"><ele>257.0</ele><time>2026-04-12T07:55:37.606Z</time></trkpt><trkpt lat="43.9096998" lon="12.1205876"><ele>257.0</ele><time>2026-04-12T07:55:38.606Z</time></trkpt><trkpt lat="43.9096014" lon="12.1203475"><ele>258.33333333333337</ele><time>2026-04-12T07:55:39.606Z</time></trkpt><trkpt lat="43.9094856" lon="12.1200897"><ele>259.6666666666667</ele><time>2026-04-12T07:55:40.605Z</time></trkpt><trkpt lat="43.909362" lon="12.1198567"><ele>261.0</ele><time>2026-04-12T07:55:41.606Z</time></trkpt><trkpt lat="43.9092414" lon="12.1196314"><ele>261.0</ele><time>2026-04-12T07:55:42.606Z</time></trkpt><trkpt lat="43.9091257" lon="12.1194002"><ele>261.0</ele><time>2026-04-12T07:55:43.606Z</time></trkpt><trkpt lat="43.9090088" lon="12.1191619"><ele>261.0</ele><time>2026-04-12T07:55:44.606Z</time></trkpt><trkpt lat="43.9088963" lon="12.1189465"><ele>264.0</ele><time>2026-04-12T07:55:45.606Z</time></trkpt><trkpt lat="43.9087908" lon="12.1187379"><ele>267.0</ele><time>2026-04-12T07:55:46.605Z</time></trkpt><trkpt lat="43.9086936" lon="12.1185486"><ele>270.0</ele><time>2026-04-12T07:55:47.605Z</time></trkpt><trkpt lat="43.9086061" lon="12.1183737"><ele>270.6</ele><time>2026-04-12T07:55:48.606Z</time></trkpt><trkpt lat="43.908527" lon="12.118216"><ele>271.2</ele><time>2026-04-12T07:55:49.606Z</time></trkpt><trkpt lat="43.9084676" lon="12.1180762"><ele>271.8</ele><time>2026-04-12T07:55:50.605Z</time></trkpt><trkpt lat="43.9084416" lon="12.1179492"><ele>272.4</ele><time>2026-04-12T07:55:51.606Z</time></trkpt><trkpt lat="43.908458" lon="12.1178267"><ele>273.0</ele><time>2026-04-12T07:55:52.606Z</time></trkpt><trkpt lat="43.9085102" lon="12.1176977"><ele>273.0</ele><time>2026-04-12T07:55:53.606Z</time></trkpt><trkpt lat="43.9086076" lon="12.117548"><ele>273.0</ele><time>2026-04-12T07:55:54.607Z</time></trkpt><trkpt lat="43.9087277" lon="12.1173996"><ele>273.0</ele><time>2026-04-12T07:55:55.606Z</time></trkpt><trkpt lat="43.9088441" lon="12.1172672"><ele>271.4</ele><time>2026-04-12T07:55:56.606Z</time></trkpt><trkpt lat="43.9089342" lon="12.1171515"><ele>269.8</ele><time>2026-04-12T07:55:57.607Z</time></trkpt><trkpt lat="43.9089871" lon="12.1170246"><ele>268.2</ele><time>2026-04-12T07:55:58.607Z</time></trkpt><trkpt lat="43.9090032" lon="12.1168841"><ele>266.6</ele><time>2026-04-12T07:55:59.607Z</time></trkpt><trkpt lat="43.9089735" lon="12.116742"><ele>265.0</ele><time>2026-04-12T07:56:00.607Z</time></trkpt><trkpt lat="43.9089194" lon="12.1166153"><ele>270.75</ele><time>2026-04-12T07:56:01.607Z</time></trkpt><trkpt lat="43.9088325" lon="12.1165239"><ele>276.5</ele><time>2026-04-12T07:56:02.607Z</time></trkpt><trkpt lat="43.908724" lon="12.1164786"><ele>282.25</ele><time>2026-04-12T07:56:03.607Z</time></trkpt><trkpt lat="43.908593" lon="12.1164962"><ele>288.0</ele><time>2026-04-12T07:56:04.607Z</time></trkpt><trkpt lat="43.9084482" lon="12.1165634"><ele>280.25</ele><time>2026-04-12T07:56:05.606Z</time></trkpt><trkpt lat="43.9082998" lon="12.1166606"><ele>272.5</ele><time>2026-04-12T07:56:06.606Z</time></trkpt><trkpt lat="43.9081721" lon="12.1167459"><ele>264.75</ele><time>2026-04-12T07:56:07.606Z</time></trkpt><trkpt lat="43.9080631" lon="12.1167964"><ele>257.0</ele><time>2026-04-12T07:56:08.606Z</time></trkpt><trkpt lat="43.9079654" lon="12.1167944"><ele>257.0</ele><time>2026-04-12T07:56:09.607Z</time></trkpt><trkpt lat="43.9078801" lon="12.1167427"><ele>257.0</ele><time>2026-04-12T07:56:10.607Z</time></trkpt><trkpt lat="43.9078129" lon="12.116619"><ele>257.0</ele><time>2026-04-12T07:56:11.607Z</time></trkpt><trkpt lat="43.907761" lon="12.1164366"><ele>257.0</ele><time>2026-04-12T07:56:12.607Z</time></trkpt><trkpt lat="43.9077141" lon="12.1162147"><ele>259.6666666666667</ele><time>2026-04-12T07:56:13.606Z</time></trkpt><trkpt lat="43.9076652" lon="12.1159623"><ele>262.3333333333333</ele><time>2026-04-12T07:56:14.607Z</time></trkpt><trkpt lat="43.9076126" lon="12.115694"><ele>265.0</ele><time>2026-04-12T07:56:15.607Z</time></trkpt><trkpt lat="43.9075608" lon="12.1154384"><ele>265.0</ele><time>2026-04-12T07:56:16.606Z</time></trkpt><trkpt lat="43.90752" lon="12.115215"><ele>265.0</ele><time>2026-04-12T07:56:17.606Z</time></trkpt><trkpt lat="43.90746" lon="12.1150017"><ele>265.0</ele><time>2026-04-12T07:56:18.606Z</time></trkpt><trkpt lat="43.9073667" lon="12.1148017"><ele>268.66666666666663</ele><time>2026-04-12T07:56:19.606Z</time></trkpt><trkpt lat="43.90725" lon="12.1146117"><ele>272.3333333333333</ele><time>2026-04-12T07:56:20.607Z</time></trkpt><trkpt lat="43.9071183" lon="12.1144083"><ele>276.0</ele><time>2026-04-12T07:56:21.607Z</time></trkpt><trkpt lat="43.90698" lon="12.1142083"><ele>277.0</ele><time>2026-04-12T07:56:22.606Z</time></trkpt><trkpt lat="43.90685" lon="12.1140283"><ele>278.0</ele><time>2026-04-12T07:56:23.606Z</time></trkpt><trkpt lat="43.9067267" lon="12.1138483"><ele>279.0</ele><time>2026-04-12T07:56:24.607Z</time></trkpt><trkpt lat="43.90661" lon="12.1136833"><ele>279.0</ele><time>2026-04-12T07:56:25.607Z</time></trkpt><trkpt lat="43.9064883" lon="12.1135367"><ele>279.0</ele><time>2026-04-12T07:56:26.607Z</time></trkpt><trkpt lat="43.90635" lon="12.1134"><ele>279.0</ele><time>2026-04-12T07:56:27.607Z</time></trkpt><trkpt lat="43.9061817" lon="12.1133083"><ele>279.0</ele><time>2026-04-12T07:56:28.606Z</time></trkpt><trkpt lat="43.90598" lon="12.1132533"><ele>279.0</ele><time>2026-04-12T07:56:29.607Z</time></trkpt><trkpt lat="43.9057633" lon="12.1132233"><ele>279.0</ele><time>2026-04-12T07:56:30.607Z</time></trkpt><trkpt lat="43.9055583" lon="12.1131833"><ele>277.6666666666667</ele><time>2026-04-12T07:56:31.607Z</time></trkpt><trkpt lat="43.9053567" lon="12.1131383"><ele>276.33333333333337</ele><time>2026-04-12T07:56:32.606Z</time></trkpt><trkpt lat="43.905155" lon="12.1130767"><ele>275.0</ele><time>2026-04-12T07:56:33.607Z</time></trkpt><trkpt lat="43.90496" lon="12.113025"><ele>275.0</ele><time>2026-04-12T07:56:34.606Z</time></trkpt><trkpt lat="43.90478" lon="12.1129567"><ele>275.0</ele><time>2026-04-12T07:56:35.607Z</time></trkpt><trkpt lat="43.9045933" lon="12.1129033"><ele>275.0</ele><time>2026-04-12T07:56:36.607Z</time></trkpt><trkpt lat="43.904405" lon="12.1128917"><ele>275.0</ele><time>2026-04-12T07:56:37.606Z</time></trkpt><trkpt lat="43.9042117" lon="12.11289"><ele>275.0</ele><time>2026-04-12T07:56:38.607Z</time></trkpt><trkpt lat="43.9040267" lon="12.1129367"><ele>275.0</ele><time>2026-04-12T07:56:39.607Z</time></trkpt><trkpt lat="43.90387" lon="12.11297"><ele>275.0</ele><time>2026-04-12T07:56:40.607Z</time></trkpt><trkpt lat="43.9037467" lon="12.1130217"><ele>275.0</ele><time>2026-04-12T07:56:41.607Z</time></trkpt><trkpt lat="43.9036567" lon="12.1130817"><ele>275.0</ele><time>2026-04-12T07:56:42.607Z</time></trkpt><trkpt lat="43.90359" lon="12.1131333"><ele>275.0</ele><time>2026-04-12T07:56:43.607Z</time></trkpt><trkpt lat="43.9035183" lon="12.1131933"><ele>275.0</ele><time>2026-04-12T07:56:45.606Z</time></trkpt><trkpt lat="43.9032999" lon="12.1134445"><ele>272.0</ele><time>2026-04-12T07:57:27.607Z</time></trkpt><trkpt lat="43.9032009" lon="12.1135489"><ele>269.0</ele><time>2026-04-12T07:57:28.606Z</time></trkpt><trkpt lat="43.9031134" lon="12.1136474"><ele>266.0</ele><time>2026-04-12T07:57:29.606Z</time></trkpt><trkpt lat="43.9030356" lon="12.113732"><ele>263.0</ele><time>2026-04-12T07:57:30.607Z</time></trkpt><trkpt lat="43.9029538" lon="12.1138126"><ele>260.0</ele><time>2026-04-12T07:57:31.607Z</time></trkpt><trkpt lat="43.902881" lon="12.1138965"><ele>260.0</ele><time>2026-04-12T07:57:32.606Z</time></trkpt><trkpt lat="43.902812" lon="12.113981"><ele>260.0</ele><time>2026-04-12T07:57:33.607Z</time></trkpt><trkpt lat="43.902745" lon="12.1140501"><ele>260.0</ele><time>2026-04-12T07:57:34.606Z</time></trkpt><trkpt lat="43.9026753" lon="12.1141086"><ele>260.0</ele><time>2026-04-12T07:57:35.607Z</time></trkpt><trkpt lat="43.9026009" lon="12.1141497"><ele>260.0</ele><time>2026-04-12T07:57:36.607Z</time></trkpt><trkpt lat="43.9025214" lon="12.1141699"><ele>260.0</ele><time>2026-04-12T07:57:37.606Z</time></trkpt><trkpt lat="43.9024391" lon="12.1141541"><ele>260.25</ele><time>2026-04-12T07:57:38.606Z</time></trkpt><trkpt lat="43.9023485" lon="12.1141011"><ele>260.5</ele><time>2026-04-12T07:57:39.606Z</time></trkpt><trkpt lat="43.9022601" lon="12.1140059"><ele>260.75</ele><time>2026-04-12T07:57:40.607Z</time></trkpt><trkpt lat="43.9021728" lon="12.1138616"><ele>261.0</ele><time>2026-04-12T07:57:41.606Z</time></trkpt><trkpt lat="43.9020877" lon="12.113681"><ele>264.0</ele><time>2026-04-12T07:57:42.606Z</time></trkpt><trkpt lat="43.9019925" lon="12.1134679"><ele>267.0</ele><time>2026-04-12T07:57:43.607Z</time></trkpt><trkpt lat="43.9018836" lon="12.1132382"><ele>270.0</ele><time>2026-04-12T07:57:44.607Z</time></trkpt><trkpt lat="43.9017757" lon="12.113023"><ele>268.0</ele><time>2026-04-12T07:57:45.607Z</time></trkpt><trkpt lat="43.9016742" lon="12.1128241"><ele>266.0</ele><time>2026-04-12T07:57:46.607Z</time></trkpt><trkpt lat="43.901586" lon="12.1126318"><ele>264.0</ele><time>2026-04-12T07:57:47.607Z</time></trkpt><trkpt lat="43.9015034" lon="12.1124548"><ele>265.25</ele><time>2026-04-12T07:57:48.607Z</time></trkpt><trkpt lat="43.9014301" lon="12.1123042"><ele>266.5</ele><time>2026-04-12T07:57:49.607Z</time></trkpt><trkpt lat="43.9013692" lon="12.1121577"><ele>267.75</ele><time>2026-04-12T07:57:50.606Z</time></trkpt><trkpt lat="43.9013314" lon="12.1120063"><ele>269.0</ele><time>2026-04-12T07:57:51.607Z</time></trkpt><trkpt lat="43.9013223" lon="12.1118373"><ele>269.0</ele><time>2026-04-12T07:57:52.606Z</time></trkpt><trkpt lat="43.9013459" lon="12.1116737"><ele>269.0</ele><time>2026-04-12T07:57:53.607Z</time></trkpt><trkpt lat="43.9013947" lon="12.1114985"><ele>269.0</ele><time>2026-04-12T07:57:54.607Z</time></trkpt><trkpt lat="43.9014514" lon="12.1113327"><ele>269.0</ele><time>2026-04-12T07:57:55.607Z</time></trkpt><trkpt lat="43.9015057" lon="12.1111787"><ele>266.5</ele><time>2026-04-12T07:57:56.606Z</time></trkpt><trkpt lat="43.9015378" lon="12.1110305"><ele>264.0</ele><time>2026-04-12T07:57:57.607Z</time></trkpt><trkpt lat="43.9015296" lon="12.1108631"><ele>261.5</ele><time>2026-04-12T07:57:58.606Z</time></trkpt><trkpt lat="43.9014677" lon="12.1106914"><ele>259.0</ele><time>2026-04-12T07:57:59.607Z</time></trkpt><trkpt lat="43.9013747" lon="12.1105124"><ele>257.66666666666663</ele><time>2026-04-12T07:58:00.607Z</time></trkpt><trkpt lat="43.9012594" lon="12.1103109"><ele>256.3333333333333</ele><time>2026-04-12T07:58:01.606Z</time></trkpt><trkpt lat="43.9011405" lon="12.1101009"><ele>255.0</ele><time>2026-04-12T07:58:02.607Z</time></trkpt><trkpt lat="43.9010286" lon="12.1099033"><ele>255.0</ele><time>2026-04-12T07:58:03.606Z</time></trkpt><trkpt lat="43.9009276" lon="12.1097137"><ele>255.0</ele><time>2026-04-12T07:58:04.607Z</time></trkpt><trkpt lat="43.9008373" lon="12.1095236"><ele>255.0</ele><time>2026-04-12T07:58:05.607Z</time></trkpt><trkpt lat="43.9007599" lon="12.1093087"><ele>257.3333333333333</ele><time>2026-04-12T07:58:06.607Z</time></trkpt><trkpt lat="43.9007045" lon="12.1090723"><ele>259.66666666666663</ele><time>2026-04-12T07:58:07.607Z</time></trkpt><trkpt lat="43.9006756" lon="12.1088156"><ele>262.0</ele><time>2026-04-12T07:58:08.607Z</time></trkpt><trkpt lat="43.9006748" lon="12.108544"><ele>262.0</ele><time>2026-04-12T07:58:09.607Z</time></trkpt><trkpt lat="43.9007021" lon="12.1082527"><ele>262.0</ele><time>2026-04-12T07:58:10.607Z</time></trkpt><trkpt lat="43.9007424" lon="12.1079493"><ele>262.0</ele><time>2026-04-12T07:58:11.606Z</time></trkpt><trkpt lat="43.900779" lon="12.107639"><ele>260.0</ele><time>2026-04-12T07:58:12.606Z</time></trkpt><trkpt lat="43.9008053" lon="12.1073401"><ele>258.0</ele><time>2026-04-12T07:58:13.607Z</time></trkpt><trkpt lat="43.9008238" lon="12.1070544"><ele>256.0</ele><time>2026-04-12T07:58:14.606Z</time></trkpt><trkpt lat="43.9008357" lon="12.1067719"><ele>260.3333333333333</ele><time>2026-04-12T07:58:15.607Z</time></trkpt><trkpt lat="43.9008293" lon="12.1064813"><ele>264.6666666666667</ele><time>2026-04-12T07:58:16.607Z</time></trkpt><trkpt lat="43.9008052" lon="12.1061834"><ele>269.0</ele><time>2026-04-12T07:58:17.606Z</time></trkpt><trkpt lat="43.900734" lon="12.1058905"><ele>277.5</ele><time>2026-04-12T07:58:18.606Z</time></trkpt><trkpt lat="43.9006434" lon="12.1055951"><ele>286.0</ele><time>2026-04-12T07:58:19.607Z</time></trkpt><trkpt lat="43.9005454" lon="12.1053143"><ele>286.0</ele><time>2026-04-12T07:58:20.606Z</time></trkpt><trkpt lat="43.9004522" lon="12.1050549"><ele>286.0</ele><time>2026-04-12T07:58:21.606Z</time></trkpt><trkpt lat="43.9003682" lon="12.1048154"><ele>286.0</ele><time>2026-04-12T07:58:22.607Z</time></trkpt><trkpt lat="43.9002988" lon="12.1045921"><ele>290.0</ele><time>2026-04-12T07:58:23.607Z</time></trkpt><trkpt lat="43.9002503" lon="12.1043732"><ele>294.0</ele><time>2026-04-12T07:58:24.607Z</time></trkpt><trkpt lat="43.9002153" lon="12.1041396"><ele>298.0</ele><time>2026-04-12T07:58:25.607Z</time></trkpt><trkpt lat="43.900195" lon="12.1038903"><ele>297.66666666666663</ele><time>2026-04-12T07:58:26.607Z</time></trkpt><trkpt lat="43.9001871" lon="12.1036251"><ele>297.3333333333333</ele><time>2026-04-12T07:58:27.607Z</time></trkpt><trkpt lat="43.9001825" lon="12.103372"><ele>297.0</ele><time>2026-04-12T07:58:28.607Z</time></trkpt><trkpt lat="43.9001801" lon="12.1031572"><ele>297.0</ele><time>2026-04-12T07:58:29.607Z</time></trkpt><trkpt lat="43.9001772" lon="12.1029727"><ele>297.0</ele><time>2026-04-12T07:58:30.607Z</time></trkpt><trkpt lat="43.9001927" lon="12.1028095"><ele>297.0</ele><time>2026-04-12T07:58:31.607Z</time></trkpt><trkpt lat="43.9002377" lon="12.1026549"><ele>297.0</ele><time>2026-04-12T07:58:32.606Z</time></trkpt><trkpt lat="43.9003192" lon="12.1025117"><ele>295.0</ele><time>2026-04-12T07:58:33.607Z</time></trkpt><trkpt lat="43.9004305" lon="12.1023903"><ele>293.0</ele><time>2026-04-12T07:58:34.606Z</time></trkpt><trkpt lat="43.9005315" lon="12.102287"><ele>291.0</ele><time>2026-04-12T07:58:35.606Z</time></trkpt><trkpt lat="43.9006194" lon="12.1021919"><ele>289.0</ele><time>2026-04-12T07:58:36.607Z</time></trkpt><trkpt lat="43.900669" lon="12.102066"><ele>289.0</ele><time>2026-04-12T07:58:37.607Z</time></trkpt><trkpt lat="43.900674" lon="12.1019187"><ele>289.0</ele><time>2026-04-12T07:58:38.606Z</time></trkpt><trkpt lat="43.9006269" lon="12.1017852"><ele>289.0</ele><time>2026-04-12T07:58:39.607Z</time></trkpt><trkpt lat="43.9005368" lon="12.1016799"><ele>289.0</ele><time>2026-04-12T07:58:40.606Z</time></trkpt><trkpt lat="43.9004197" lon="12.1016026"><ele>289.75</ele><time>2026-04-12T07:58:41.607Z</time></trkpt><trkpt lat="43.9002857" lon="12.1015482"><ele>290.5</ele><time>2026-04-12T07:58:42.607Z</time></trkpt><trkpt lat="43.9001641" lon="12.1014786"><ele>291.25</ele><time>2026-04-12T07:58:43.607Z</time></trkpt><trkpt lat="43.9000523" lon="12.1013584"><ele>292.0</ele><time>2026-04-12T07:58:44.607Z</time></trkpt><trkpt lat="43.8999577" lon="12.1011943"><ele>292.0</ele><time>2026-04-12T07:58:45.607Z</time></trkpt><trkpt lat="43.8998608" lon="12.1010293"><ele>292.0</ele><time>2026-04-12T07:58:46.607Z</time></trkpt><trkpt lat="43.8997392" lon="12.100917"><ele>292.0</ele><time>2026-04-12T07:58:47.606Z</time></trkpt><trkpt lat="43.8996115" lon="12.1008506"><ele>292.0</ele><time>2026-04-12T07:58:48.606Z</time></trkpt><trkpt lat="43.899497" lon="12.1007941"><ele>294.75</ele><time>2026-04-12T07:58:49.607Z</time></trkpt><trkpt lat="43.8994148" lon="12.1006871"><ele>297.5</ele><time>2026-04-12T07:58:50.606Z</time></trkpt><trkpt lat="43.8993633" lon="12.1005352"><ele>300.25</ele><time>2026-04-12T07:58:51.607Z</time></trkpt><trkpt lat="43.8993558" lon="12.1003411"><ele>303.0</ele><time>2026-04-12T07:58:52.607Z</time></trkpt><trkpt lat="43.8993833" lon="12.1001188"><ele>304.3333333333333</ele><time>2026-04-12T07:58:53.606Z</time></trkpt><trkpt lat="43.8994153" lon="12.0998934"><ele>305.66666666666663</ele><time>2026-04-12T07:58:54.607Z</time></trkpt><trkpt lat="43.8994304" lon="12.0996836"><ele>307.0</ele><time>2026-04-12T07:58:55.607Z</time></trkpt><trkpt lat="43.899419" lon="12.0994814"><ele>307.0</ele><time>2026-04-12T07:58:56.607Z</time></trkpt><trkpt lat="43.8993656" lon="12.0992802"><ele>307.0</ele><time>2026-04-12T07:58:57.607Z</time></trkpt><trkpt lat="43.8992709" lon="12.099085"><ele>307.0</ele><time>2026-04-12T07:58:58.606Z</time></trkpt><trkpt lat="43.8991647" lon="12.0988872"><ele>304.0</ele><time>2026-04-12T07:58:59.606Z</time></trkpt><trkpt lat="43.8990816" lon="12.0986735"><ele>301.0</ele><time>2026-04-12T07:59:00.606Z</time></trkpt><trkpt lat="43.8990309" lon="12.098467"><ele>298.0</ele><time>2026-04-12T07:59:01.607Z</time></trkpt><trkpt lat="43.8989808" lon="12.0982784"><ele>304.75</ele><time>2026-04-12T07:59:02.607Z</time></trkpt><trkpt lat="43.8989159" lon="12.0981111"><ele>311.5</ele><time>2026-04-12T07:59:03.607Z</time></trkpt><trkpt lat="43.8988124" lon="12.0979813"><ele>318.25</ele><time>2026-04-12T07:59:04.607Z</time></trkpt><trkpt lat="43.8986879" lon="12.0978908"><ele>325.0</ele><time>2026-04-12T07:59:05.607Z</time></trkpt><trkpt lat="43.898579" lon="12.0978163"><ele>325.0</ele><time>2026-04-12T07:59:06.607Z</time></trkpt><trkpt lat="43.8984715" lon="12.0977418"><ele>325.0</ele><time>2026-04-12T07:59:07.607Z</time></trkpt><trkpt lat="43.898381" lon="12.097644"><ele>325.0</ele><time>2026-04-12T07:59:08.607Z</time></trkpt><trkpt lat="43.8983121" lon="12.097514"><ele>325.0</ele><time>2026-04-12T07:59:09.607Z</time></trkpt><trkpt lat="43.8982472" lon="12.0973643"><ele>321.5</ele><time>2026-04-12T07:59:10.607Z</time></trkpt><trkpt lat="43.8981898" lon="12.0972037"><ele>318.0</ele><time>2026-04-12T07:59:11.607Z</time></trkpt><trkpt lat="43.8981379" lon="12.0970497"><ele>314.5</ele><time>2026-04-12T07:59:12.607Z</time></trkpt><trkpt lat="43.8980901" lon="12.0968967"><ele>311.0</ele><time>2026-04-12T07:59:13.606Z</time></trkpt><trkpt lat="43.8980489" lon="12.0967463"><ele>311.0</ele><time>2026-04-12T07:59:14.606Z</time></trkpt><trkpt lat="43.898021" lon="12.0965864"><ele>311.0</ele><time>2026-04-12T07:59:15.607Z</time></trkpt><trkpt lat="43.8980044" lon="12.0964186"><ele>311.0</ele><time>2026-04-12T07:59:16.607Z</time></trkpt><trkpt lat="43.8980039" lon="12.0962664"><ele>311.0</ele><time>2026-04-12T07:59:17.607Z</time></trkpt><trkpt lat="43.898018" lon="12.0961151"><ele>311.6666666666667</ele><time>2026-04-12T07:59:18.607Z</time></trkpt><trkpt lat="43.8980557" lon="12.0959727"><ele>312.33333333333337</ele><time>2026-04-12T07:59:19.607Z</time></trkpt><trkpt lat="43.8980951" lon="12.0958513"><ele>313.0</ele><time>2026-04-12T07:59:20.607Z</time></trkpt><trkpt lat="43.8981185" lon="12.0957455"><ele>313.6666666666667</ele><time>2026-04-12T07:59:21.607Z</time></trkpt><trkpt lat="43.8981144" lon="12.0956419"><ele>314.3333333333333</ele><time>2026-04-12T07:59:22.607Z</time></trkpt><trkpt lat="43.8980747" lon="12.0955461"><ele>315.0</ele><time>2026-04-12T07:59:23.606Z</time></trkpt><trkpt lat="43.8979909" lon="12.0954817"><ele>314.2</ele><time>2026-04-12T07:59:24.607Z</time></trkpt><trkpt lat="43.8978845" lon="12.0954533"><ele>313.4</ele><time>2026-04-12T07:59:25.606Z</time></trkpt><trkpt lat="43.8977755" lon="12.0954609"><ele>312.6</ele><time>2026-04-12T07:59:26.607Z</time></trkpt><trkpt lat="43.8976741" lon="12.0954747"><ele>311.8</ele><time>2026-04-12T07:59:27.606Z</time></trkpt><trkpt lat="43.8975833" lon="12.0954529"><ele>311.0</ele><time>2026-04-12T07:59:28.607Z</time></trkpt><trkpt lat="43.8974996" lon="12.0953881"><ele>311.0</ele><time>2026-04-12T07:59:29.607Z</time></trkpt><trkpt lat="43.8974343" lon="12.0952845"><ele>311.0</ele><time>2026-04-12T07:59:30.606Z</time></trkpt><trkpt lat="43.8973847" lon="12.0951445"><ele>311.0</ele><time>2026-04-12T07:59:31.606Z</time></trkpt><trkpt lat="43.8973512" lon="12.094963"><ele>311.0</ele><time>2026-04-12T07:59:32.607Z</time></trkpt><trkpt lat="43.8973214" lon="12.0947852"><ele>315.6</ele><time>2026-04-12T07:59:33.607Z</time></trkpt><trkpt lat="43.8972914" lon="12.0946254"><ele>320.20000000000005</ele><time>2026-04-12T07:59:34.607Z</time></trkpt><trkpt lat="43.8972495" lon="12.0944792"><ele>324.79999999999995</ele><time>2026-04-12T07:59:35.607Z</time></trkpt><trkpt lat="43.8971941" lon="12.0943585"><ele>329.4</ele><time>2026-04-12T07:59:36.606Z</time></trkpt><trkpt lat="43.8971385" lon="12.0942668"><ele>334.0</ele><time>2026-04-12T07:59:37.606Z</time></trkpt><trkpt lat="43.8971016" lon="12.0941608"><ele>334.6</ele><time>2026-04-12T07:59:38.607Z</time></trkpt><trkpt lat="43.8970752" lon="12.0940505"><ele>335.2</ele><time>2026-04-12T07:59:39.607Z</time></trkpt><trkpt lat="43.8970769" lon="12.0939134"><ele>335.8</ele><time>2026-04-12T07:59:40.607Z</time></trkpt><trkpt lat="43.8971028" lon="12.0937522"><ele>336.40000000000003</ele><time>2026-04-12T07:59:41.607Z</time></trkpt><trkpt lat="43.8971379" lon="12.0936056"><ele>337.0</ele><time>2026-04-12T07:59:42.607Z</time></trkpt><trkpt lat="43.8971659" lon="12.093476"><ele>337.0</ele><time>2026-04-12T07:59:43.607Z</time></trkpt><trkpt lat="43.8971698" lon="12.0933542"><ele>337.0</ele><time>2026-04-12T07:59:44.607Z</time></trkpt><trkpt lat="43.8971419" lon="12.0932445"><ele>337.0</ele><time>2026-04-12T07:59:45.607Z</time></trkpt><trkpt lat="43.8970834" lon="12.0931545"><ele>337.0</ele><time>2026-04-12T07:59:46.606Z</time></trkpt><trkpt lat="43.8969957" lon="12.0930911"><ele>337.0</ele><time>2026-04-12T07:59:47.607Z</time></trkpt><trkpt lat="43.8968864" lon="12.0930723"><ele>337.25</ele><time>2026-04-12T07:59:48.607Z</time></trkpt><trkpt lat="43.8967671" lon="12.0931304"><ele>337.5</ele><time>2026-04-12T07:59:49.607Z</time></trkpt><trkpt lat="43.896653" lon="12.0932538"><ele>337.75</ele><time>2026-04-12T07:59:50.607Z</time></trkpt><trkpt lat="43.8965482" lon="12.0934048"><ele>338.0</ele><time>2026-04-12T07:59:51.606Z</time></trkpt><trkpt lat="43.8964624" lon="12.0935466"><ele>332.25</ele><time>2026-04-12T07:59:52.607Z</time></trkpt><trkpt lat="43.8963817" lon="12.0936655"><ele>326.5</ele><time>2026-04-12T07:59:53.607Z</time></trkpt><trkpt lat="43.8962819" lon="12.0937547"><ele>320.75</ele><time>2026-04-12T07:59:54.607Z</time></trkpt><trkpt lat="43.8961587" lon="12.0938104"><ele>315.0</ele><time>2026-04-12T07:59:55.606Z</time></trkpt><trkpt lat="43.8960276" lon="12.0938354"><ele>319.75</ele><time>2026-04-12T07:59:56.607Z</time></trkpt><trkpt lat="43.8959014" lon="12.0938198"><ele>324.5</ele><time>2026-04-12T07:59:57.607Z</time></trkpt><trkpt lat="43.8957771" lon="12.093751"><ele>329.25</ele><time>2026-04-12T07:59:58.606Z</time></trkpt><trkpt lat="43.8956544" lon="12.0936265"><ele>334.0</ele><time>2026-04-12T07:59:59.607Z</time></trkpt><trkpt lat="43.8955171" lon="12.0934722"><ele>334.0</ele><time>2026-04-12T08:00:00.606Z</time></trkpt><trkpt lat="43.8953585" lon="12.0933081"><ele>334.0</ele><time>2026-04-12T08:00:01.607Z</time></trkpt><trkpt lat="43.8951794" lon="12.0931482"><ele>334.0</ele><time>2026-04-12T08:00:02.606Z</time></trkpt><trkpt lat="43.8949826" lon="12.0929807"><ele>336.66666666666663</ele><time>2026-04-12T08:00:03.607Z</time></trkpt><trkpt lat="43.8947855" lon="12.0928254"><ele>339.3333333333333</ele><time>2026-04-12T08:00:04.606Z</time></trkpt><trkpt lat="43.894599" lon="12.0926992"><ele>342.0</ele><time>2026-04-12T08:00:05.607Z</time></trkpt><trkpt lat="43.894428" lon="12.0925968"><ele>342.0</ele><time>2026-04-12T08:00:06.607Z</time></trkpt><trkpt lat="43.8942692" lon="12.0925071"><ele>342.0</ele><time>2026-04-12T08:00:07.607Z</time></trkpt><trkpt lat="43.894121" lon="12.0924256"><ele>342.0</ele><time>2026-04-12T08:00:08.606Z</time></trkpt><trkpt lat="43.8939893" lon="12.0923571"><ele>340.0</ele><time>2026-04-12T08:00:09.607Z</time></trkpt><trkpt lat="43.8938715" lon="12.0922906"><ele>338.0</ele><time>2026-04-12T08:00:10.607Z</time></trkpt><trkpt lat="43.8937724" lon="12.09222"><ele>336.0</ele><time>2026-04-12T08:00:11.606Z</time></trkpt><trkpt lat="43.893704" lon="12.0921268"><ele>334.0</ele><time>2026-04-12T08:00:12.606Z</time></trkpt><trkpt lat="43.8936752" lon="12.0919946"><ele>332.0</ele><time>2026-04-12T08:00:13.606Z</time></trkpt><trkpt lat="43.8936921" lon="12.0918344"><ele>332.0</ele><time>2026-04-12T08:00:14.607Z</time></trkpt><trkpt lat="43.8937534" lon="12.0916665"><ele>332.0</ele><time>2026-04-12T08:00:15.606Z</time></trkpt><trkpt lat="43.8938491" lon="12.09149"><ele>332.0</ele><time>2026-04-12T08:00:16.606Z</time></trkpt><trkpt lat="43.8939592" lon="12.0913093"><ele>331.0</ele><time>2026-04-12T08:00:17.607Z</time></trkpt><trkpt lat="43.8940628" lon="12.0911387"><ele>330.0</ele><time>2026-04-12T08:00:18.607Z</time></trkpt><trkpt lat="43.894145" lon="12.0909664"><ele>329.0</ele><time>2026-04-12T08:00:19.607Z</time></trkpt><trkpt lat="43.894198" lon="12.0907763"><ele>328.33333333333337</ele><time>2026-04-12T08:00:20.606Z</time></trkpt><trkpt lat="43.8942255" lon="12.0905641"><ele>327.6666666666667</ele><time>2026-04-12T08:00:21.607Z</time></trkpt><trkpt lat="43.8942297" lon="12.0903238"><ele>327.0</ele><time>2026-04-12T08:00:22.607Z</time></trkpt><trkpt lat="43.8942197" lon="12.090088"><ele>329.5</ele><time>2026-04-12T08:00:23.607Z</time></trkpt><trkpt lat="43.8942082" lon="12.0898686"><ele>332.0</ele><time>2026-04-12T08:00:24.607Z</time></trkpt><trkpt lat="43.8941886" lon="12.089679"><ele>334.5</ele><time>2026-04-12T08:00:25.606Z</time></trkpt><trkpt lat="43.8941439" lon="12.089516"><ele>337.0</ele><time>2026-04-12T08:00:26.607Z</time></trkpt><trkpt lat="43.8940592" lon="12.089384"><ele>337.0</ele><time>2026-04-12T08:00:27.606Z</time></trkpt><trkpt lat="43.8939424" lon="12.0892912"><ele>337.0</ele><time>2026-04-12T08:00:28.607Z</time></trkpt><trkpt lat="43.8937893" lon="12.0892376"><ele>337.0</ele><time>2026-04-12T08:00:29.606Z</time></trkpt><trkpt lat="43.8936134" lon="12.0892212"><ele>338.3333333333333</ele><time>2026-04-12T08:00:30.607Z</time></trkpt><trkpt lat="43.8934202" lon="12.0892155"><ele>339.6666666666667</ele><time>2026-04-12T08:00:31.607Z</time></trkpt><trkpt lat="43.8932199" lon="12.0892157"><ele>341.0</ele><time>2026-04-12T08:00:32.607Z</time></trkpt><trkpt lat="43.8930216" lon="12.0892286"><ele>341.0</ele><time>2026-04-12T08:00:33.608Z</time></trkpt><trkpt lat="43.8928395" lon="12.0892625"><ele>341.0</ele><time>2026-04-12T08:00:34.608Z</time></trkpt><trkpt lat="43.8926768" lon="12.0892878"><ele>341.0</ele><time>2026-04-12T08:00:35.608Z</time></trkpt><trkpt lat="43.8925281" lon="12.0893006"><ele>341.0</ele><time>2026-04-12T08:00:36.608Z</time></trkpt><trkpt lat="43.8923893" lon="12.08931"><ele>341.0</ele><time>2026-04-12T08:00:37.608Z</time></trkpt><trkpt lat="43.8922693" lon="12.0893098"><ele>341.0</ele><time>2026-04-12T08:00:38.607Z</time></trkpt><trkpt lat="43.8921675" lon="12.0892806"><ele>341.0</ele><time>2026-04-12T08:00:39.608Z</time></trkpt><trkpt lat="43.8920871" lon="12.0892058"><ele>342.5</ele><time>2026-04-12T08:00:40.608Z</time></trkpt><trkpt lat="43.8920334" lon="12.0890919"><ele>344.0</ele><time>2026-04-12T08:00:41.608Z</time></trkpt><trkpt lat="43.8920045" lon="12.0889463"><ele>345.5</ele><time>2026-04-12T08:00:42.608Z</time></trkpt><trkpt lat="43.8919978" lon="12.0887794"><ele>347.0</ele><time>2026-04-12T08:00:43.608Z</time></trkpt><trkpt lat="43.8920014" lon="12.0886024"><ele>347.0</ele><time>2026-04-12T08:00:44.608Z</time></trkpt><trkpt lat="43.8920147" lon="12.0884144"><ele>347.0</ele><time>2026-04-12T08:00:45.607Z</time></trkpt><trkpt lat="43.8920169" lon="12.0882243"><ele>347.0</ele><time>2026-04-12T08:00:46.607Z</time></trkpt><trkpt lat="43.8920164" lon="12.0880301"><ele>347.0</ele><time>2026-04-12T08:00:47.608Z</time></trkpt><trkpt lat="43.8920076" lon="12.0878309"><ele>347.25</ele><time>2026-04-12T08:00:48.608Z</time></trkpt><trkpt lat="43.8920056" lon="12.0876444"><ele>347.5</ele><time>2026-04-12T08:00:49.608Z</time></trkpt><trkpt lat="43.8920084" lon="12.0874688"><ele>347.75</ele><time>2026-04-12T08:00:50.608Z</time></trkpt><trkpt lat="43.8920066" lon="12.0873013"><ele>348.0</ele><time>2026-04-12T08:00:51.607Z</time></trkpt><trkpt lat="43.8920031" lon="12.0871373"><ele>348.5</ele><time>2026-04-12T08:00:52.608Z</time></trkpt><trkpt lat="43.8920019" lon="12.0869632"><ele>349.0</ele><time>2026-04-12T08:00:53.607Z</time></trkpt><trkpt lat="43.892001" lon="12.0867791"><ele>349.5</ele><time>2026-04-12T08:00:54.607Z</time></trkpt><trkpt lat="43.8919984" lon="12.0865819"><ele>350.0</ele><time>2026-04-12T08:00:55.608Z</time></trkpt><trkpt lat="43.8919999" lon="12.0863754"><ele>351.75</ele><time>2026-04-12T08:00:56.608Z</time></trkpt><trkpt lat="43.8920038" lon="12.0861727"><ele>353.5</ele><time>2026-04-12T08:00:57.608Z</time></trkpt><trkpt lat="43.8920091" lon="12.0859752"><ele>355.25</ele><time>2026-04-12T08:00:58.608Z</time></trkpt><trkpt lat="43.892009" lon="12.0857831"><ele>357.0</ele><time>2026-04-12T08:00:59.608Z</time></trkpt><trkpt lat="43.8920056" lon="12.0855955"><ele>358.25</ele><time>2026-04-12T08:01:00.607Z</time></trkpt><trkpt lat="43.8920087" lon="12.0854154"><ele>359.5</ele><time>2026-04-12T08:01:01.607Z</time></trkpt><trkpt lat="43.8920195" lon="12.0852384"><ele>360.75</ele><time>2026-04-12T08:01:02.607Z</time></trkpt><trkpt lat="43.8920444" lon="12.0850636"><ele>362.0</ele><time>2026-04-12T08:01:03.608Z</time></trkpt><trkpt lat="43.8920775" lon="12.0848954"><ele>359.0</ele><time>2026-04-12T08:01:04.608Z</time></trkpt><trkpt lat="43.8921141" lon="12.0847348"><ele>356.0</ele><time>2026-04-12T08:01:05.608Z</time></trkpt><trkpt lat="43.8921477" lon="12.0845736"><ele>353.0</ele><time>2026-04-12T08:01:06.608Z</time></trkpt><trkpt lat="43.892178" lon="12.0844158"><ele>350.0</ele><time>2026-04-12T08:01:07.608Z</time></trkpt><trkpt lat="43.89221" lon="12.0842631"><ele>350.0</ele><time>2026-04-12T08:01:08.608Z</time></trkpt><trkpt lat="43.8922367" lon="12.0841052"><ele>350.0</ele><time>2026-04-12T08:01:09.607Z</time></trkpt><trkpt lat="43.8922614" lon="12.0839429"><ele>350.0</ele><time>2026-04-12T08:01:10.608Z</time></trkpt><trkpt lat="43.8922753" lon="12.0837714"><ele>350.0</ele><time>2026-04-12T08:01:11.608Z</time></trkpt><trkpt lat="43.892276" lon="12.0835977"><ele>349.25</ele><time>2026-04-12T08:01:12.608Z</time></trkpt><trkpt lat="43.8922598" lon="12.0834175"><ele>348.5</ele><time>2026-04-12T08:01:13.608Z</time></trkpt><trkpt lat="43.8922325" lon="12.0832486"><ele>347.75</ele><time>2026-04-12T08:01:14.608Z</time></trkpt><trkpt lat="43.8922057" lon="12.0830964"><ele>347.0</ele><time>2026-04-12T08:01:15.608Z</time></trkpt><trkpt lat="43.8921835" lon="12.0829569"><ele>346.5</ele><time>2026-04-12T08:01:16.607Z</time></trkpt><trkpt lat="43.8921798" lon="12.0828166"><ele>346.0</ele><time>2026-04-12T08:01:17.608Z</time></trkpt><trkpt lat="43.8922108" lon="12.0826819"><ele>345.5</ele><time>2026-04-12T08:01:18.608Z</time></trkpt><trkpt lat="43.8922811" lon="12.0825477"><ele>345.0</ele><time>2026-04-12T08:01:19.607Z</time></trkpt><trkpt lat="43.8923772" lon="12.0824215"><ele>343.25</ele><time>2026-04-12T08:01:20.608Z</time></trkpt><trkpt lat="43.8924759" lon="12.0823162"><ele>341.5</ele><time>2026-04-12T08:01:21.607Z</time></trkpt><trkpt lat="43.8925548" lon="12.0821965"><ele>339.75</ele><time>2026-04-12T08:01:22.608Z</time></trkpt><trkpt lat="43.8926046" lon="12.0820431"><ele>338.0</ele><time>2026-04-12T08:01:23.607Z</time></trkpt><trkpt lat="43.8926186" lon="12.0818692"><ele>341.25</ele><time>2026-04-12T08:01:24.608Z</time></trkpt><trkpt lat="43.8925948" lon="12.0816917"><ele>344.5</ele><time>2026-04-12T08:01:25.608Z</time></trkpt><trkpt lat="43.8925403" lon="12.0815363"><ele>347.75</ele><time>2026-04-12T08:01:26.607Z</time></trkpt><trkpt lat="43.8924571" lon="12.0814117"><ele>351.0</ele><time>2026-04-12T08:01:27.607Z</time></trkpt><trkpt lat="43.8923425" lon="12.0813205"><ele>351.0</ele><time>2026-04-12T08:01:28.608Z</time></trkpt><trkpt lat="43.8922135" lon="12.0812578"><ele>351.0</ele><time>2026-04-12T08:01:29.608Z</time></trkpt><trkpt lat="43.8920881" lon="12.0811882"><ele>351.0</ele><time>2026-04-12T08:01:30.608Z</time></trkpt><trkpt lat="43.8919781" lon="12.0810792"><ele>351.0</ele><time>2026-04-12T08:01:31.608Z</time></trkpt><trkpt lat="43.8918932" lon="12.0809286"><ele>352.6666666666667</ele><time>2026-04-12T08:01:32.608Z</time></trkpt><trkpt lat="43.8918261" lon="12.0807478"><ele>354.33333333333337</ele><time>2026-04-12T08:01:33.608Z</time></trkpt><trkpt lat="43.8917764" lon="12.0805294"><ele>356.0</ele><time>2026-04-12T08:01:34.608Z</time></trkpt><trkpt lat="43.8917232" lon="12.0803147"><ele>353.33333333333337</ele><time>2026-04-12T08:01:35.607Z</time></trkpt><trkpt lat="43.8916605" lon="12.0801177"><ele>350.6666666666667</ele><time>2026-04-12T08:01:36.608Z</time></trkpt><trkpt lat="43.8915651" lon="12.0799353"><ele>348.0</ele><time>2026-04-12T08:01:37.608Z</time></trkpt><trkpt lat="43.8914329" lon="12.0797685"><ele>348.0</ele><time>2026-04-12T08:01:38.607Z</time></trkpt><trkpt lat="43.8912846" lon="12.0796363"><ele>348.0</ele><time>2026-04-12T08:01:39.608Z</time></trkpt><trkpt lat="43.8911417" lon="12.0795153"><ele>348.0</ele><time>2026-04-12T08:01:40.608Z</time></trkpt><trkpt lat="43.891007" lon="12.0793719"><ele>344.0</ele><time>2026-04-12T08:01:41.608Z</time></trkpt><trkpt lat="43.8908688" lon="12.0792035"><ele>340.0</ele><time>2026-04-12T08:01:42.608Z</time></trkpt><trkpt lat="43.8907371" lon="12.0790068"><ele>336.0</ele><time>2026-04-12T08:01:43.608Z</time></trkpt><trkpt lat="43.8906089" lon="12.0787968"><ele>336.0</ele><time>2026-04-12T08:01:44.608Z</time></trkpt><trkpt lat="43.8904875" lon="12.078591"><ele>336.0</ele><time>2026-04-12T08:01:45.608Z</time></trkpt><trkpt lat="43.89037" lon="12.0783998"><ele>336.0</ele><time>2026-04-12T08:01:46.608Z</time></trkpt><trkpt lat="43.8902596" lon="12.0782146"><ele>334.0</ele><time>2026-04-12T08:01:47.608Z</time></trkpt><trkpt lat="43.8901577" lon="12.0780515"><ele>332.0</ele><time>2026-04-12T08:01:48.608Z</time></trkpt><trkpt lat="43.8900615" lon="12.0778999"><ele>330.0</ele><time>2026-04-12T08:01:49.608Z</time></trkpt><trkpt lat="43.8899707" lon="12.077758"><ele>328.0</ele><time>2026-04-12T08:01:50.608Z</time></trkpt><trkpt lat="43.8898894" lon="12.0776164"><ele>328.0</ele><time>2026-04-12T08:01:51.607Z</time></trkpt><trkpt lat="43.889822" lon="12.07747"><ele>328.0</ele><time>2026-04-12T08:01:52.608Z</time></trkpt><trkpt lat="43.8897643" lon="12.0773296"><ele>328.0</ele><time>2026-04-12T08:01:53.608Z</time></trkpt><trkpt lat="43.8897205" lon="12.0771697"><ele>328.0</ele><time>2026-04-12T08:01:54.608Z</time></trkpt><trkpt lat="43.8897176" lon="12.0769792"><ele>329.0</ele><time>2026-04-12T08:01:55.607Z</time></trkpt><trkpt lat="43.8897657" lon="12.0767463"><ele>330.0</ele><time>2026-04-12T08:01:56.607Z</time></trkpt><trkpt lat="43.8898446" lon="12.0764882"><ele>331.0</ele><time>2026-04-12T08:01:57.608Z</time></trkpt><trkpt lat="43.8899411" lon="12.0762194"><ele>332.66666666666663</ele><time>2026-04-12T08:01:58.607Z</time></trkpt><trkpt lat="43.8900361" lon="12.0759597"><ele>334.3333333333333</ele><time>2026-04-12T08:01:59.607Z</time></trkpt><trkpt lat="43.8901181" lon="12.0757104"><ele>336.0</ele><time>2026-04-12T08:02:00.608Z</time></trkpt><trkpt lat="43.8901928" lon="12.0754724"><ele>336.0</ele><time>2026-04-12T08:02:01.607Z</time></trkpt><trkpt lat="43.8902655" lon="12.0752355"><ele>336.0</ele><time>2026-04-12T08:02:02.607Z</time></trkpt><trkpt lat="43.8903273" lon="12.0750039"><ele>336.0</ele><time>2026-04-12T08:02:03.608Z</time></trkpt><trkpt lat="43.8903777" lon="12.0747485"><ele>340.0</ele><time>2026-04-12T08:02:04.608Z</time></trkpt><trkpt lat="43.8904214" lon="12.0744923"><ele>344.0</ele><time>2026-04-12T08:02:05.608Z</time></trkpt><trkpt lat="43.8904339" lon="12.0742099"><ele>348.0</ele><time>2026-04-12T08:02:06.607Z</time></trkpt><trkpt lat="43.8904201" lon="12.0739149"><ele>354.5</ele><time>2026-04-12T08:02:07.608Z</time></trkpt><trkpt lat="43.8903834" lon="12.0736131"><ele>361.0</ele><time>2026-04-12T08:02:08.608Z</time></trkpt><trkpt lat="43.8903265" lon="12.0733008"><ele>365.0</ele><time>2026-04-12T08:02:09.608Z</time></trkpt><trkpt lat="43.8902485" lon="12.072971"><ele>369.0</ele><time>2026-04-12T08:02:10.608Z</time></trkpt><trkpt lat="43.8901532" lon="12.0726291"><ele>351.5</ele><time>2026-04-12T08:02:11.608Z</time></trkpt><trkpt lat="43.8900298" lon="12.0722781"><ele>334.0</ele><time>2026-04-12T08:02:12.608Z</time></trkpt><trkpt lat="43.8898975" lon="12.0719261"><ele>343.5</ele><time>2026-04-12T08:02:13.608Z</time></trkpt><trkpt lat="43.8897665" lon="12.0715872"><ele>353.0</ele><time>2026-04-12T08:02:14.608Z</time></trkpt><trkpt lat="43.8896423" lon="12.0712735"><ele>353.0</ele><time>2026-04-12T08:02:15.607Z</time></trkpt><trkpt lat="43.8895253" lon="12.0709735"><ele>353.0</ele><time>2026-04-12T08:02:16.608Z</time></trkpt><trkpt lat="43.8894095" lon="12.0706866"><ele>358.33333333333337</ele><time>2026-04-12T08:02:17.608Z</time></trkpt><trkpt lat="43.8893007" lon="12.0704138"><ele>363.6666666666667</ele><time>2026-04-12T08:02:18.607Z</time></trkpt><trkpt lat="43.8892131" lon="12.0701456"><ele>369.0</ele><time>2026-04-12T08:02:19.608Z</time></trkpt><trkpt lat="43.8891362" lon="12.0698893"><ele>357.0</ele><time>2026-04-12T08:02:20.608Z</time></trkpt><trkpt lat="43.8890786" lon="12.069629"><ele>345.0</ele><time>2026-04-12T08:02:21.607Z</time></trkpt><trkpt lat="43.8890299" lon="12.0693617"><ele>333.0</ele><time>2026-04-12T08:02:22.608Z</time></trkpt><trkpt lat="43.8890039" lon="12.0690958"><ele>332.3333333333333</ele><time>2026-04-12T08:02:23.608Z</time></trkpt><trkpt lat="43.8890152" lon="12.0688153"><ele>331.66666666666663</ele><time>2026-04-12T08:02:24.607Z</time></trkpt><trkpt lat="43.8890645" lon="12.0685361"><ele>331.0</ele><time>2026-04-12T08:02:25.608Z</time></trkpt><trkpt lat="43.8891195" lon="12.0682617"><ele>332.66666666666663</ele><time>2026-04-12T08:02:26.607Z</time></trkpt><trkpt lat="43.8891473" lon="12.0679839"><ele>334.3333333333333</ele><time>2026-04-12T08:02:27.608Z</time></trkpt><trkpt lat="43.8891501" lon="12.0677041"><ele>336.0</ele><time>2026-04-12T08:02:28.607Z</time></trkpt><trkpt lat="43.8891414" lon="12.0674318"><ele>336.0</ele><time>2026-04-12T08:02:29.608Z</time></trkpt><trkpt lat="43.8891284" lon="12.0671711"><ele>336.0</ele><time>2026-04-12T08:02:30.607Z</time></trkpt><trkpt lat="43.8891106" lon="12.066911"><ele>336.0</ele><time>2026-04-12T08:02:31.608Z</time></trkpt><trkpt lat="43.8890912" lon="12.0666353"><ele>337.0</ele><time>2026-04-12T08:02:32.608Z</time></trkpt><trkpt lat="43.8890733" lon="12.066355"><ele>338.0</ele><time>2026-04-12T08:02:33.608Z</time></trkpt><trkpt lat="43.8890551" lon="12.0660731"><ele>339.0</ele><time>2026-04-12T08:02:34.608Z</time></trkpt><trkpt lat="43.8890345" lon="12.0658031"><ele>338.6666666666667</ele><time>2026-04-12T08:02:35.607Z</time></trkpt><trkpt lat="43.8890167" lon="12.0655422"><ele>338.33333333333337</ele><time>2026-04-12T08:02:36.608Z</time></trkpt><trkpt lat="43.8890068" lon="12.065289"><ele>338.0</ele><time>2026-04-12T08:02:37.608Z</time></trkpt><trkpt lat="43.8889985" lon="12.065026"><ele>337.33333333333337</ele><time>2026-04-12T08:02:38.608Z</time></trkpt><trkpt lat="43.8889871" lon="12.0647516"><ele>336.6666666666667</ele><time>2026-04-12T08:02:39.607Z</time></trkpt><trkpt lat="43.8889724" lon="12.0644921"><ele>336.0</ele><time>2026-04-12T08:02:40.608Z</time></trkpt><trkpt lat="43.8889626" lon="12.0642458"><ele>337.0</ele><time>2026-04-12T08:02:41.607Z</time></trkpt><trkpt lat="43.88895" lon="12.0640211"><ele>338.0</ele><time>2026-04-12T08:02:42.608Z</time></trkpt><trkpt lat="43.8889366" lon="12.0638148"><ele>339.0</ele><time>2026-04-12T08:02:43.608Z</time></trkpt><trkpt lat="43.8889314" lon="12.0636109"><ele>339.0</ele><time>2026-04-12T08:02:44.607Z</time></trkpt><trkpt lat="43.8889523" lon="12.0634059"><ele>339.0</ele><time>2026-04-12T08:02:45.608Z</time></trkpt><trkpt lat="43.8890034" lon="12.0631918"><ele>339.0</ele><time>2026-04-12T08:02:46.608Z</time></trkpt><trkpt lat="43.8890721" lon="12.0629556"><ele>338.3333333333333</ele><time>2026-04-12T08:02:47.608Z</time></trkpt><trkpt lat="43.8891387" lon="12.0627142"><ele>337.66666666666663</ele><time>2026-04-12T08:02:48.608Z</time></trkpt><trkpt lat="43.8891734" lon="12.0624651"><ele>337.0</ele><time>2026-04-12T08:02:49.608Z</time></trkpt><trkpt lat="43.8891817" lon="12.0622317"><ele>335.75</ele><time>2026-04-12T08:02:50.607Z</time></trkpt><trkpt lat="43.8891874" lon="12.0620263"><ele>334.5</ele><time>2026-04-12T08:02:51.608Z</time></trkpt><trkpt lat="43.8892048" lon="12.0618511"><ele>333.25</ele><time>2026-04-12T08:02:52.608Z</time></trkpt><trkpt lat="43.8892496" lon="12.0616959"><ele>332.0</ele><time>2026-04-12T08:02:53.608Z</time></trkpt><trkpt lat="43.8893339" lon="12.0615638"><ele>336.33333333333337</ele><time>2026-04-12T08:02:54.607Z</time></trkpt><trkpt lat="43.8894569" lon="12.0614544"><ele>340.6666666666667</ele><time>2026-04-12T08:02:55.608Z</time></trkpt><trkpt lat="43.8895965" lon="12.0613475"><ele>345.0</ele><time>2026-04-12T08:02:56.608Z</time></trkpt><trkpt lat="43.8897337" lon="12.0612092"><ele>345.0</ele><time>2026-04-12T08:02:57.607Z</time></trkpt><trkpt lat="43.8898588" lon="12.0610297"><ele>345.0</ele><time>2026-04-12T08:02:58.607Z</time></trkpt><trkpt lat="43.8899656" lon="12.060824"><ele>345.0</ele><time>2026-04-12T08:02:59.608Z</time></trkpt><trkpt lat="43.8900233" lon="12.0605731"><ele>341.6666666666667</ele><time>2026-04-12T08:03:00.607Z</time></trkpt><trkpt lat="43.8900363" lon="12.060295"><ele>338.33333333333337</ele><time>2026-04-12T08:03:01.608Z</time></trkpt><trkpt lat="43.8900336" lon="12.0599969"><ele>335.0</ele><time>2026-04-12T08:03:02.608Z</time></trkpt><trkpt lat="43.8900337" lon="12.0596956"><ele>331.5</ele><time>2026-04-12T08:03:03.607Z</time></trkpt><trkpt lat="43.8900339" lon="12.0593797"><ele>328.0</ele><time>2026-04-12T08:03:04.608Z</time></trkpt><trkpt lat="43.8900161" lon="12.0590474"><ele>326.5</ele><time>2026-04-12T08:03:05.608Z</time></trkpt><trkpt lat="43.8899863" lon="12.0587106"><ele>325.0</ele><time>2026-04-12T08:03:06.607Z</time></trkpt><trkpt lat="43.8899481" lon="12.0583797"><ele>327.66666666666663</ele><time>2026-04-12T08:03:07.607Z</time></trkpt><trkpt lat="43.889915" lon="12.0580725"><ele>330.3333333333333</ele><time>2026-04-12T08:03:08.608Z</time></trkpt><trkpt lat="43.889885" lon="12.0577983"><ele>333.0</ele><time>2026-04-12T08:03:09.607Z</time></trkpt><trkpt lat="43.8898717" lon="12.05754"><ele>334.0</ele><time>2026-04-12T08:03:10.607Z</time></trkpt><trkpt lat="43.8898517" lon="12.0573"><ele>335.0</ele><time>2026-04-12T08:03:11.608Z</time></trkpt><trkpt lat="43.8898367" lon="12.0570617"><ele>336.0</ele><time>2026-04-12T08:03:12.608Z</time></trkpt><trkpt lat="43.8898417" lon="12.0568283"><ele>336.6666666666667</ele><time>2026-04-12T08:03:13.608Z</time></trkpt><trkpt lat="43.88987" lon="12.0566183"><ele>337.33333333333337</ele><time>2026-04-12T08:03:14.607Z</time></trkpt><trkpt lat="43.8898933" lon="12.056415"><ele>338.0</ele><time>2026-04-12T08:03:15.608Z</time></trkpt><trkpt lat="43.889875" lon="12.056205"><ele>338.0</ele><time>2026-04-12T08:03:16.607Z</time></trkpt><trkpt lat="43.8898067" lon="12.0559833"><ele>338.0</ele><time>2026-04-12T08:03:17.608Z</time></trkpt><trkpt lat="43.889725" lon="12.0557817"><ele>338.0</ele><time>2026-04-12T08:03:18.608Z</time></trkpt><trkpt lat="43.8896417" lon="12.0555983"><ele>339.33333333333337</ele><time>2026-04-12T08:03:19.608Z</time></trkpt><trkpt lat="43.8895783" lon="12.055415"><ele>340.6666666666667</ele><time>2026-04-12T08:03:20.607Z</time></trkpt><trkpt lat="43.8895417" lon="12.05521"><ele>342.0</ele><time>2026-04-12T08:03:21.608Z</time></trkpt><trkpt lat="43.88955" lon="12.0549767"><ele>342.0</ele><time>2026-04-12T08:03:22.608Z</time></trkpt><trkpt lat="43.8895833" lon="12.0547533"><ele>342.0</ele><time>2026-04-12T08:03:23.608Z</time></trkpt><trkpt lat="43.8896417" lon="12.054515"><ele>342.0</ele><time>2026-04-12T08:03:24.608Z</time></trkpt><trkpt lat="43.88972" lon="12.0542667"><ele>339.6666666666667</ele><time>2026-04-12T08:03:25.608Z</time></trkpt><trkpt lat="43.88982" lon="12.0540117"><ele>337.33333333333337</ele><time>2026-04-12T08:03:26.608Z</time></trkpt><trkpt lat="43.889925" lon="12.0537533"><ele>335.0</ele><time>2026-04-12T08:03:27.607Z</time></trkpt><trkpt lat="43.8900267" lon="12.0535083"><ele>342.6666666666667</ele><time>2026-04-12T08:03:28.608Z</time></trkpt><trkpt lat="43.8901167" lon="12.053275"><ele>350.3333333333333</ele><time>2026-04-12T08:03:29.608Z</time></trkpt><trkpt lat="43.8902117" lon="12.0530333"><ele>358.0</ele><time>2026-04-12T08:03:30.608Z</time></trkpt><trkpt lat="43.890305" lon="12.0528033"><ele>358.0</ele><time>2026-04-12T08:03:31.607Z</time></trkpt><trkpt lat="43.8903933" lon="12.0525817"><ele>358.0</ele><time>2026-04-12T08:03:32.608Z</time></trkpt><trkpt lat="43.89047" lon="12.0523767"><ele>358.0</ele><time>2026-04-12T08:03:33.608Z</time></trkpt><trkpt lat="43.890545" lon="12.05219"><ele>357.5</ele><time>2026-04-12T08:03:34.608Z</time></trkpt><trkpt lat="43.8906067" lon="12.05201"><ele>357.0</ele><time>2026-04-12T08:03:35.608Z</time></trkpt><trkpt lat="43.8906367" lon="12.0518133"><ele>356.5</ele><time>2026-04-12T08:03:36.608Z</time></trkpt><trkpt lat="43.89062" lon="12.0516217"><ele>356.0</ele><time>2026-04-12T08:03:37.607Z</time></trkpt><trkpt lat="43.890545" lon="12.051455"><ele>355.5</ele><time>2026-04-12T08:03:38.608Z</time></trkpt><trkpt lat="43.8904683" lon="12.05131"><ele>355.0</ele><time>2026-04-12T08:03:39.608Z</time></trkpt><trkpt lat="43.8904083" lon="12.0511367"><ele>354.5</ele><time>2026-04-12T08:03:40.608Z</time></trkpt><trkpt lat="43.8903817" lon="12.0509383"><ele>354.0</ele><time>2026-04-12T08:03:41.607Z</time></trkpt><trkpt lat="43.8904017" lon="12.05073"><ele>350.0</ele><time>2026-04-12T08:03:42.608Z</time></trkpt><trkpt lat="43.890465" lon="12.0505167"><ele>346.0</ele><time>2026-04-12T08:03:43.608Z</time></trkpt><trkpt lat="43.8905487" lon="12.0502821"><ele>342.0</ele><time>2026-04-12T08:03:44.607Z</time></trkpt><trkpt lat="43.8906342" lon="12.0500492"><ele>339.3333333333333</ele><time>2026-04-12T08:03:45.608Z</time></trkpt><trkpt lat="43.8907051" lon="12.0498355"><ele>336.66666666666663</ele><time>2026-04-12T08:03:46.608Z</time></trkpt><trkpt lat="43.8907824" lon="12.0496439"><ele>334.0</ele><time>2026-04-12T08:03:47.608Z</time></trkpt><trkpt lat="43.8908846" lon="12.0494669"><ele>339.3333333333333</ele><time>2026-04-12T08:03:48.607Z</time></trkpt><trkpt lat="43.8910079" lon="12.049313"><ele>344.6666666666667</ele><time>2026-04-12T08:03:49.608Z</time></trkpt><trkpt lat="43.8911474" lon="12.0491841"><ele>350.0</ele><time>2026-04-12T08:03:50.608Z</time></trkpt><trkpt lat="43.8912745" lon="12.0490464"><ele>350.0</ele><time>2026-04-12T08:03:51.607Z</time></trkpt><trkpt lat="43.8913709" lon="12.048879"><ele>350.0</ele><time>2026-04-12T08:03:52.608Z</time></trkpt><trkpt lat="43.8914293" lon="12.0486823"><ele>350.0</ele><time>2026-04-12T08:03:53.608Z</time></trkpt><trkpt lat="43.8914561" lon="12.0484853"><ele>346.5</ele><time>2026-04-12T08:03:54.608Z</time></trkpt><trkpt lat="43.8914782" lon="12.0482901"><ele>343.0</ele><time>2026-04-12T08:03:55.608Z</time></trkpt><trkpt lat="43.8915232" lon="12.0481102"><ele>339.5</ele><time>2026-04-12T08:03:56.608Z</time></trkpt><trkpt lat="43.8916026" lon="12.0479349"><ele>336.0</ele><time>2026-04-12T08:03:57.608Z</time></trkpt><trkpt lat="43.8917119" lon="12.0477617"><ele>338.6666666666667</ele><time>2026-04-12T08:03:58.608Z</time></trkpt><trkpt lat="43.8918446" lon="12.0475936"><ele>341.33333333333337</ele><time>2026-04-12T08:03:59.608Z</time></trkpt><trkpt lat="43.8919772" lon="12.0474286"><ele>344.0</ele><time>2026-04-12T08:04:00.607Z</time></trkpt><trkpt lat="43.8920958" lon="12.0472533"><ele>344.0</ele><time>2026-04-12T08:04:01.607Z</time></trkpt><trkpt lat="43.8922232" lon="12.0470931"><ele>344.0</ele><time>2026-04-12T08:04:02.607Z</time></trkpt><trkpt lat="43.8923637" lon="12.0469571"><ele>344.0</ele><time>2026-04-12T08:04:03.608Z</time></trkpt><trkpt lat="43.8924939" lon="12.0468293"><ele>350.5</ele><time>2026-04-12T08:04:04.608Z</time></trkpt><trkpt lat="43.8926225" lon="12.0467291"><ele>357.0</ele><time>2026-04-12T08:04:05.607Z</time></trkpt><trkpt lat="43.8927216" lon="12.046618"><ele>363.5</ele><time>2026-04-12T08:04:06.607Z</time></trkpt><trkpt lat="43.8927934" lon="12.0464614"><ele>370.0</ele><time>2026-04-12T08:04:07.608Z</time></trkpt><trkpt lat="43.8928302" lon="12.0462448"><ele>370.0</ele><time>2026-04-12T08:04:08.608Z</time></trkpt><trkpt lat="43.8928463" lon="12.0460001"><ele>370.0</ele><time>2026-04-12T08:04:09.608Z</time></trkpt><trkpt lat="43.892858" lon="12.0457682"><ele>370.0</ele><time>2026-04-12T08:04:10.607Z</time></trkpt><trkpt lat="43.8928539" lon="12.0455553"><ele>369.0</ele><time>2026-04-12T08:04:11.608Z</time></trkpt><trkpt lat="43.8928149" lon="12.0453728"><ele>368.0</ele><time>2026-04-12T08:04:12.608Z</time></trkpt><trkpt lat="43.8927478" lon="12.0452283"><ele>367.0</ele><time>2026-04-12T08:04:13.607Z</time></trkpt><trkpt lat="43.8926837" lon="12.0451117"><ele>366.0</ele><time>2026-04-12T08:04:14.608Z</time></trkpt><trkpt lat="43.8926455" lon="12.0449929"><ele>361.75</ele><time>2026-04-12T08:04:15.607Z</time></trkpt><trkpt lat="43.8926481" lon="12.0448667"><ele>357.5</ele><time>2026-04-12T08:04:16.607Z</time></trkpt><trkpt lat="43.8927038" lon="12.0447498"><ele>353.25</ele><time>2026-04-12T08:04:17.608Z</time></trkpt><trkpt lat="43.8927958" lon="12.0446454"><ele>349.0</ele><time>2026-04-12T08:04:18.608Z</time></trkpt><trkpt lat="43.8929191" lon="12.0445564"><ele>349.0</ele><time>2026-04-12T08:04:19.608Z</time></trkpt><trkpt lat="43.8930448" lon="12.0444584"><ele>349.0</ele><time>2026-04-12T08:04:20.608Z</time></trkpt><trkpt lat="43.8931307" lon="12.0443263"><ele>349.0</ele><time>2026-04-12T08:04:21.608Z</time></trkpt><trkpt lat="43.8931842" lon="12.0441638"><ele>349.0</ele><time>2026-04-12T08:04:22.608Z</time></trkpt><trkpt lat="43.8931957" lon="12.0439915"><ele>350.75</ele><time>2026-04-12T08:04:23.607Z</time></trkpt><trkpt lat="43.8931478" lon="12.0438124"><ele>352.5</ele><time>2026-04-12T08:04:24.608Z</time></trkpt><trkpt lat="43.8930654" lon="12.043645"><ele>354.25</ele><time>2026-04-12T08:04:25.608Z</time></trkpt><trkpt lat="43.8929609" lon="12.0435053"><ele>356.0</ele><time>2026-04-12T08:04:26.608Z</time></trkpt><trkpt lat="43.8928099" lon="12.0434022"><ele>356.0</ele><time>2026-04-12T08:04:27.608Z</time></trkpt><trkpt lat="43.8926188" lon="12.0433477"><ele>356.0</ele><time>2026-04-12T08:04:28.608Z</time></trkpt><trkpt lat="43.8923941" lon="12.0433108"><ele>356.0</ele><time>2026-04-12T08:04:29.608Z</time></trkpt><trkpt lat="43.8921726" lon="12.0432725"><ele>357.6666666666667</ele><time>2026-04-12T08:04:30.608Z</time></trkpt><trkpt lat="43.8919851" lon="12.0432141"><ele>359.3333333333333</ele><time>2026-04-12T08:04:31.608Z</time></trkpt><trkpt lat="43.8918238" lon="12.0431693"><ele>361.0</ele><time>2026-04-12T08:04:32.608Z</time></trkpt><trkpt lat="43.8916824" lon="12.0431131"><ele>361.0</ele><time>2026-04-12T08:04:33.608Z</time></trkpt><trkpt lat="43.8915696" lon="12.0430264"><ele>361.0</ele><time>2026-04-12T08:04:34.608Z</time></trkpt><trkpt lat="43.8914966" lon="12.0429002"><ele>361.0</ele><time>2026-04-12T08:04:35.608Z</time></trkpt><trkpt lat="43.8914611" lon="12.0427406"><ele>361.0</ele><time>2026-04-12T08:04:36.607Z</time></trkpt><trkpt lat="43.8914648" lon="12.042558"><ele>360.66666666666663</ele><time>2026-04-12T08:04:37.608Z</time></trkpt><trkpt lat="43.891516" lon="12.0423512"><ele>360.3333333333333</ele><time>2026-04-12T08:04:38.608Z</time></trkpt><trkpt lat="43.8916064" lon="12.0421287"><ele>360.0</ele><time>2026-04-12T08:04:39.607Z</time></trkpt><trkpt lat="43.8916998" lon="12.0419057"><ele>372.66666666666663</ele><time>2026-04-12T08:04:40.608Z</time></trkpt><trkpt lat="43.8917725" lon="12.041695"><ele>385.3333333333333</ele><time>2026-04-12T08:04:41.608Z</time></trkpt><trkpt lat="43.8918303" lon="12.0414756"><ele>398.0</ele><time>2026-04-12T08:04:42.608Z</time></trkpt><trkpt lat="43.8918628" lon="12.0412281"><ele>402.3333333333333</ele><time>2026-04-12T08:04:43.608Z</time></trkpt><trkpt lat="43.891855" lon="12.0409509"><ele>406.66666666666663</ele><time>2026-04-12T08:04:44.607Z</time></trkpt><trkpt lat="43.8918243" lon="12.0406868"><ele>411.0</ele><time>2026-04-12T08:04:45.608Z</time></trkpt><trkpt lat="43.8917702" lon="12.0404354"><ele>407.0</ele><time>2026-04-12T08:04:46.608Z</time></trkpt><trkpt lat="43.8916821" lon="12.0401973"><ele>403.0</ele><time>2026-04-12T08:04:47.607Z</time></trkpt><trkpt lat="43.8915684" lon="12.0399735"><ele>399.0</ele><time>2026-04-12T08:04:48.608Z</time></trkpt><trkpt lat="43.89145" lon="12.0397767"><ele>399.0</ele><time>2026-04-12T08:04:49.608Z</time></trkpt><trkpt lat="43.8913355" lon="12.0396167"><ele>399.0</ele><time>2026-04-12T08:04:50.608Z</time></trkpt><trkpt lat="43.8912533" lon="12.039455"><ele>399.0</ele><time>2026-04-12T08:04:51.608Z</time></trkpt><trkpt lat="43.8912033" lon="12.039265"><ele>401.5</ele><time>2026-04-12T08:04:52.608Z</time></trkpt><trkpt lat="43.8911883" lon="12.0390833"><ele>404.0</ele><time>2026-04-12T08:04:53.608Z</time></trkpt><trkpt lat="43.8911617" lon="12.0389133"><ele>406.5</ele><time>2026-04-12T08:04:54.608Z</time></trkpt><trkpt lat="43.891105" lon="12.0387633"><ele>409.0</ele><time>2026-04-12T08:04:55.607Z</time></trkpt><trkpt lat="43.8910133" lon="12.0386533"><ele>402.5</ele><time>2026-04-12T08:04:56.608Z</time></trkpt><trkpt lat="43.890895" lon="12.03858"><ele>396.0</ele><time>2026-04-12T08:04:57.608Z</time></trkpt><trkpt lat="43.8907783" lon="12.0385083"><ele>389.5</ele><time>2026-04-12T08:04:58.608Z</time></trkpt><trkpt lat="43.8906867" lon="12.0384067"><ele>383.0</ele><time>2026-04-12T08:04:59.608Z</time></trkpt><trkpt lat="43.8906167" lon="12.0382583"><ele>383.0</ele><time>2026-04-12T08:05:00.608Z</time></trkpt><trkpt lat="43.8905767" lon="12.038075"><ele>383.0</ele><time>2026-04-12T08:05:01.608Z</time></trkpt><trkpt lat="43.8905783" lon="12.037865"><ele>383.0</ele><time>2026-04-12T08:05:02.608Z</time></trkpt><trkpt lat="43.8905983" lon="12.0376417"><ele>388.0</ele><time>2026-04-12T08:05:03.607Z</time></trkpt><trkpt lat="43.8905783" lon="12.0374033"><ele>393.0</ele><time>2026-04-12T08:05:04.607Z</time></trkpt><trkpt lat="43.8905117" lon="12.037155"><ele>398.0</ele><time>2026-04-12T08:05:05.608Z</time></trkpt><trkpt lat="43.8904167" lon="12.0369"><ele>398.0</ele><time>2026-04-12T08:05:06.608Z</time></trkpt><trkpt lat="43.8903233" lon="12.0366517"><ele>398.0</ele><time>2026-04-12T08:05:07.608Z</time></trkpt><trkpt lat="43.8902367" lon="12.0364183"><ele>398.0</ele><time>2026-04-12T08:05:08.608Z</time></trkpt><trkpt lat="43.8901517" lon="12.0362183"><ele>390.3333333333333</ele><time>2026-04-12T08:05:09.608Z</time></trkpt><trkpt lat="43.8900517" lon="12.0360383"><ele>382.66666666666663</ele><time>2026-04-12T08:05:10.608Z</time></trkpt><trkpt lat="43.8899183" lon="12.0358867"><ele>375.0</ele><time>2026-04-12T08:05:11.608Z</time></trkpt><trkpt lat="43.8897667" lon="12.0357817"><ele>375.0</ele><time>2026-04-12T08:05:12.607Z</time></trkpt><trkpt lat="43.8896283" lon="12.035705"><ele>375.0</ele><time>2026-04-12T08:05:13.608Z</time></trkpt><trkpt lat="43.88951" lon="12.0356533"><ele>375.0</ele><time>2026-04-12T08:05:14.608Z</time></trkpt><trkpt lat="43.889425" lon="12.0355633"><ele>375.0</ele><time>2026-04-12T08:05:15.607Z</time></trkpt><trkpt lat="43.889365" lon="12.035435"><ele>375.0</ele><time>2026-04-12T08:05:16.607Z</time></trkpt><trkpt lat="43.88935" lon="12.035275"><ele>375.0</ele><time>2026-04-12T08:05:17.607Z</time></trkpt><trkpt lat="43.88937" lon="12.0351217"><ele>375.0</ele><time>2026-04-12T08:05:18.608Z</time></trkpt><trkpt lat="43.8894333" lon="12.03497"><ele>375.0</ele><time>2026-04-12T08:05:19.608Z</time></trkpt><trkpt lat="43.8895333" lon="12.0348417"><ele>370.75</ele><time>2026-04-12T08:05:20.609Z</time></trkpt><trkpt lat="43.8896733" lon="12.034745"><ele>366.5</ele><time>2026-04-12T08:05:21.608Z</time></trkpt><trkpt lat="43.8898183" lon="12.0346767"><ele>362.25</ele><time>2026-04-12T08:05:22.608Z</time></trkpt><trkpt lat="43.8899383" lon="12.034605"><ele>358.0</ele><time>2026-04-12T08:05:23.609Z</time></trkpt><trkpt lat="43.8900217" lon="12.0345133"><ele>358.0</ele><time>2026-04-12T08:05:24.608Z</time></trkpt><trkpt lat="43.890065" lon="12.0343783"><ele>358.0</ele><time>2026-04-12T08:05:25.609Z</time></trkpt><trkpt lat="43.8900754" lon="12.0342233"><ele>358.0</ele><time>2026-04-12T08:05:26.609Z</time></trkpt><trkpt lat="43.890054" lon="12.0340585"><ele>358.0</ele><time>2026-04-12T08:05:27.609Z</time></trkpt><trkpt lat="43.8900131" lon="12.0339177"><ele>358.0</ele><time>2026-04-12T08:05:28.609Z</time></trkpt><trkpt lat="43.8899415" lon="12.0338032"><ele>362.5</ele><time>2026-04-12T08:05:29.608Z</time></trkpt><trkpt lat="43.8898351" lon="12.0337364"><ele>367.0</ele><time>2026-04-12T08:05:30.609Z</time></trkpt><trkpt lat="43.8896969" lon="12.0337104"><ele>371.5</ele><time>2026-04-12T08:05:31.609Z</time></trkpt><trkpt lat="43.8895515" lon="12.0336787"><ele>376.0</ele><time>2026-04-12T08:05:32.609Z</time></trkpt><trkpt lat="43.889401" lon="12.0336005"><ele>378.3333333333333</ele><time>2026-04-12T08:05:33.609Z</time></trkpt><trkpt lat="43.889243" lon="12.0334448"><ele>380.6666666666667</ele><time>2026-04-12T08:05:34.608Z</time></trkpt><trkpt lat="43.8890781" lon="12.0332439"><ele>383.0</ele><time>2026-04-12T08:05:35.608Z</time></trkpt><trkpt lat="43.8889035" lon="12.0330406"><ele>383.0</ele><time>2026-04-12T08:05:36.609Z</time></trkpt><trkpt lat="43.8887429" lon="12.0328543"><ele>383.0</ele><time>2026-04-12T08:05:37.609Z</time></trkpt><trkpt lat="43.8885924" lon="12.0326963"><ele>383.0</ele><time>2026-04-12T08:05:38.609Z</time></trkpt><trkpt lat="43.8884571" lon="12.032557"><ele>377.25</ele><time>2026-04-12T08:05:39.609Z</time></trkpt><trkpt lat="43.8883357" lon="12.0324306"><ele>371.5</ele><time>2026-04-12T08:05:40.609Z</time></trkpt><trkpt lat="43.8882436" lon="12.0322904"><ele>365.75</ele><time>2026-04-12T08:05:41.609Z</time></trkpt><trkpt lat="43.8881739" lon="12.0321264"><ele>360.0</ele><time>2026-04-12T08:05:42.609Z</time></trkpt><trkpt lat="43.8881392" lon="12.0319168"><ele>360.0</ele><time>2026-04-12T08:05:43.608Z</time></trkpt><trkpt lat="43.8881232" lon="12.0316816"><ele>360.0</ele><time>2026-04-12T08:05:44.609Z</time></trkpt><trkpt lat="43.8881104" lon="12.0314344"><ele>360.0</ele><time>2026-04-12T08:05:45.609Z</time></trkpt><trkpt lat="43.8880724" lon="12.0311846"><ele>363.6666666666667</ele><time>2026-04-12T08:05:46.609Z</time></trkpt><trkpt lat="43.8879959" lon="12.030927"><ele>367.33333333333337</ele><time>2026-04-12T08:05:47.609Z</time></trkpt><trkpt lat="43.8878831" lon="12.0306777"><ele>371.0</ele><time>2026-04-12T08:05:48.609Z</time></trkpt><trkpt lat="43.887748" lon="12.0304586"><ele>371.6666666666667</ele><time>2026-04-12T08:05:49.609Z</time></trkpt><trkpt lat="43.8876084" lon="12.0302281"><ele>372.3333333333333</ele><time>2026-04-12T08:05:50.608Z</time></trkpt><trkpt lat="43.8874893" lon="12.0299723"><ele>373.0</ele><time>2026-04-12T08:05:51.609Z</time></trkpt><trkpt lat="43.8873777" lon="12.0296989"><ele>373.0</ele><time>2026-04-12T08:05:52.609Z</time></trkpt><trkpt lat="43.8872847" lon="12.0294275"><ele>373.0</ele><time>2026-04-12T08:05:53.609Z</time></trkpt><trkpt lat="43.8872076" lon="12.0291562"><ele>373.0</ele><time>2026-04-12T08:05:54.609Z</time></trkpt><trkpt lat="43.8871423" lon="12.028889"><ele>376.3333333333333</ele><time>2026-04-12T08:05:55.608Z</time></trkpt><trkpt lat="43.8870892" lon="12.0286347"><ele>379.6666666666667</ele><time>2026-04-12T08:05:56.608Z</time></trkpt><trkpt lat="43.887053" lon="12.0284043"><ele>383.0</ele><time>2026-04-12T08:05:57.609Z</time></trkpt><trkpt lat="43.8870417" lon="12.0282033"><ele>383.5</ele><time>2026-04-12T08:05:58.609Z</time></trkpt><trkpt lat="43.8870183" lon="12.02802"><ele>384.0</ele><time>2026-04-12T08:05:59.609Z</time></trkpt><trkpt lat="43.886975" lon="12.02786"><ele>384.5</ele><time>2026-04-12T08:06:00.609Z</time></trkpt><trkpt lat="43.886905" lon="12.0276917"><ele>385.0</ele><time>2026-04-12T08:06:01.609Z</time></trkpt><trkpt lat="43.8867883" lon="12.0275383"><ele>371.0</ele><time>2026-04-12T08:06:02.609Z</time></trkpt><trkpt lat="43.8866233" lon="12.02742"><ele>357.0</ele><time>2026-04-12T08:06:03.609Z</time></trkpt><trkpt lat="43.8864767" lon="12.027305"><ele>343.0</ele><time>2026-04-12T08:06:04.609Z</time></trkpt><trkpt lat="43.8863467" lon="12.027205"><ele>343.0</ele><time>2026-04-12T08:06:05.609Z</time></trkpt><trkpt lat="43.8862133" lon="12.0271"><ele>343.0</ele><time>2026-04-12T08:06:06.609Z</time></trkpt><trkpt lat="43.8860933" lon="12.0269733"><ele>343.0</ele><time>2026-04-12T08:06:07.609Z</time></trkpt><trkpt lat="43.8859967" lon="12.0267917"><ele>348.3333333333333</ele><time>2026-04-12T08:06:08.608Z</time></trkpt><trkpt lat="43.8859267" lon="12.026585"><ele>353.6666666666667</ele><time>2026-04-12T08:06:09.609Z</time></trkpt><trkpt lat="43.8858833" lon="12.02635"><ele>359.0</ele><time>2026-04-12T08:06:10.609Z</time></trkpt><trkpt lat="43.88586" lon="12.02609"><ele>359.0</ele><time>2026-04-12T08:06:11.608Z</time></trkpt><trkpt lat="43.885865" lon="12.025845"><ele>359.0</ele><time>2026-04-12T08:06:12.608Z</time></trkpt><trkpt lat="43.88586" lon="12.02559"><ele>359.0</ele><time>2026-04-12T08:06:13.608Z</time></trkpt><trkpt lat="43.8858483" lon="12.0253483"><ele>358.0</ele><time>2026-04-12T08:06:14.608Z</time></trkpt><trkpt lat="43.8858133" lon="12.0251117"><ele>357.0</ele><time>2026-04-12T08:06:15.608Z</time></trkpt><trkpt lat="43.8857617" lon="12.024885"><ele>356.0</ele><time>2026-04-12T08:06:16.609Z</time></trkpt><trkpt lat="43.88568" lon="12.0246683"><ele>354.0</ele><time>2026-04-12T08:06:17.609Z</time></trkpt><trkpt lat="43.8855683" lon="12.0244683"><ele>352.0</ele><time>2026-04-12T08:06:18.608Z</time></trkpt><trkpt lat="43.8854483" lon="12.024275"><ele>350.0</ele><time>2026-04-12T08:06:19.609Z</time></trkpt><trkpt lat="43.885335" lon="12.0240433"><ele>349.6666666666667</ele><time>2026-04-12T08:06:20.609Z</time></trkpt><trkpt lat="43.885265" lon="12.0237783"><ele>349.3333333333333</ele><time>2026-04-12T08:06:21.609Z</time></trkpt><trkpt lat="43.885205" lon="12.0235317"><ele>349.0</ele><time>2026-04-12T08:06:22.608Z</time></trkpt><trkpt lat="43.88514" lon="12.023295"><ele>349.0</ele><time>2026-04-12T08:06:23.608Z</time></trkpt><trkpt lat="43.8851083" lon="12.0230667"><ele>349.0</ele><time>2026-04-12T08:06:24.609Z</time></trkpt><trkpt lat="43.885115" lon="12.0228417"><ele>349.0</ele><time>2026-04-12T08:06:25.609Z</time></trkpt><trkpt lat="43.8851417" lon="12.0226233"><ele>349.25</ele><time>2026-04-12T08:06:26.608Z</time></trkpt><trkpt lat="43.8851683" lon="12.0224417"><ele>349.5</ele><time>2026-04-12T08:06:27.608Z</time></trkpt><trkpt lat="43.8851817" lon="12.0222617"><ele>349.75</ele><time>2026-04-12T08:06:28.608Z</time></trkpt><trkpt lat="43.8851633" lon="12.0220983"><ele>350.0</ele><time>2026-04-12T08:06:29.609Z</time></trkpt><trkpt lat="43.8851083" lon="12.0219417"><ele>352.0</ele><time>2026-04-12T08:06:30.609Z</time></trkpt><trkpt lat="43.8850083" lon="12.0218183"><ele>354.0</ele><time>2026-04-12T08:06:31.608Z</time></trkpt><trkpt lat="43.8848767" lon="12.021715"><ele>356.0</ele><time>2026-04-12T08:06:32.609Z</time></trkpt><trkpt lat="43.8847189" lon="12.0216375"><ele>356.33333333333337</ele><time>2026-04-12T08:06:33.609Z</time></trkpt><trkpt lat="43.8845466" lon="12.0215672"><ele>356.6666666666667</ele><time>2026-04-12T08:06:34.608Z</time></trkpt><trkpt lat="43.8843731" lon="12.0214746"><ele>357.0</ele><time>2026-04-12T08:06:35.609Z</time></trkpt><trkpt lat="43.884209" lon="12.0213394"><ele>357.0</ele><time>2026-04-12T08:06:36.608Z</time></trkpt><trkpt lat="43.8840502" lon="12.0211769"><ele>357.0</ele><time>2026-04-12T08:06:37.609Z</time></trkpt><trkpt lat="43.8838971" lon="12.0210147"><ele>357.0</ele><time>2026-04-12T08:06:38.609Z</time></trkpt><trkpt lat="43.8837594" lon="12.0208683"><ele>358.0</ele><time>2026-04-12T08:06:39.609Z</time></trkpt><trkpt lat="43.8836278" lon="12.0207364"><ele>359.0</ele><time>2026-04-12T08:06:40.608Z</time></trkpt><trkpt lat="43.8834986" lon="12.0206166"><ele>360.0</ele><time>2026-04-12T08:06:41.609Z</time></trkpt><trkpt lat="43.8833744" lon="12.0204989"><ele>360.3333333333333</ele><time>2026-04-12T08:06:42.609Z</time></trkpt><trkpt lat="43.8832496" lon="12.0203728"><ele>360.66666666666663</ele><time>2026-04-12T08:06:43.609Z</time></trkpt><trkpt lat="43.8831263" lon="12.02023"><ele>361.0</ele><time>2026-04-12T08:06:44.609Z</time></trkpt><trkpt lat="43.8830001" lon="12.0200814"><ele>360.3333333333333</ele><time>2026-04-12T08:06:45.609Z</time></trkpt><trkpt lat="43.8828688" lon="12.0199252"><ele>359.6666666666667</ele><time>2026-04-12T08:06:46.609Z</time></trkpt><trkpt lat="43.8827452" lon="12.0197468"><ele>359.0</ele><time>2026-04-12T08:06:47.608Z</time></trkpt><trkpt lat="43.8826262" lon="12.0195219"><ele>360.33333333333337</ele><time>2026-04-12T08:06:48.609Z</time></trkpt><trkpt lat="43.8825221" lon="12.0192729"><ele>361.6666666666667</ele><time>2026-04-12T08:06:49.609Z</time></trkpt><trkpt lat="43.8824253" lon="12.0190153"><ele>363.0</ele><time>2026-04-12T08:06:50.608Z</time></trkpt><trkpt lat="43.882336" lon="12.0187451"><ele>363.0</ele><time>2026-04-12T08:06:51.608Z</time></trkpt><trkpt lat="43.8822563" lon="12.0184621"><ele>363.0</ele><time>2026-04-12T08:06:52.609Z</time></trkpt><trkpt lat="43.8821848" lon="12.0181671"><ele>363.0</ele><time>2026-04-12T08:06:53.609Z</time></trkpt><trkpt lat="43.8821218" lon="12.0178751"><ele>362.0</ele><time>2026-04-12T08:06:54.608Z</time></trkpt><trkpt lat="43.8820634" lon="12.0175987"><ele>361.0</ele><time>2026-04-12T08:06:55.609Z</time></trkpt><trkpt lat="43.8820177" lon="12.0173319"><ele>360.0</ele><time>2026-04-12T08:06:56.609Z</time></trkpt><trkpt lat="43.8819765" lon="12.0170721"><ele>359.0</ele><time>2026-04-12T08:06:57.608Z</time></trkpt><trkpt lat="43.8819358" lon="12.0168286"><ele>358.0</ele><time>2026-04-12T08:06:58.609Z</time></trkpt><trkpt lat="43.8818912" lon="12.0165897"><ele>357.0</ele><time>2026-04-12T08:06:59.609Z</time></trkpt><trkpt lat="43.8818383" lon="12.0163528"><ele>356.6666666666667</ele><time>2026-04-12T08:07:00.608Z</time></trkpt><trkpt lat="43.8817747" lon="12.0161278"><ele>356.33333333333337</ele><time>2026-04-12T08:07:01.608Z</time></trkpt><trkpt lat="43.8816881" lon="12.0159368"><ele>356.0</ele><time>2026-04-12T08:07:02.608Z</time></trkpt><trkpt lat="43.8816051" lon="12.0157607"><ele>360.0</ele><time>2026-04-12T08:07:03.608Z</time></trkpt><trkpt lat="43.8815357" lon="12.0155773"><ele>364.0</ele><time>2026-04-12T08:07:04.608Z</time></trkpt><trkpt lat="43.881498" lon="12.0153767"><ele>368.0</ele><time>2026-04-12T08:07:05.609Z</time></trkpt><trkpt lat="43.8814886" lon="12.0151611"><ele>370.25</ele><time>2026-04-12T08:07:06.608Z</time></trkpt><trkpt lat="43.8814988" lon="12.0149578"><ele>372.5</ele><time>2026-04-12T08:07:07.609Z</time></trkpt><trkpt lat="43.8815199" lon="12.0147682"><ele>374.75</ele><time>2026-04-12T08:07:08.609Z</time></trkpt><trkpt lat="43.8815458" lon="12.0145999"><ele>377.0</ele><time>2026-04-12T08:07:09.609Z</time></trkpt><trkpt lat="43.8815683" lon="12.0144407"><ele>377.0</ele><time>2026-04-12T08:07:10.609Z</time></trkpt><trkpt lat="43.8815874" lon="12.0143006"><ele>377.0</ele><time>2026-04-12T08:07:11.609Z</time></trkpt><trkpt lat="43.8815994" lon="12.0141787"><ele>377.0</ele><time>2026-04-12T08:07:12.609Z</time></trkpt><trkpt lat="43.8816067" lon="12.0140744"><ele>377.0</ele><time>2026-04-12T08:07:13.609Z</time></trkpt><trkpt lat="43.881608" lon="12.013979"><ele>377.0</ele><time>2026-04-12T08:07:14.608Z</time></trkpt><trkpt lat="43.8816264" lon="12.0138332"><ele>377.0</ele><time>2026-04-12T08:07:16.609Z</time></trkpt><trkpt lat="43.881642" lon="12.0137113"><ele>379.0</ele><time>2026-04-12T08:07:19.608Z</time></trkpt><trkpt lat="43.8816469" lon="12.0136229"><ele>381.0</ele><time>2026-04-12T08:07:21.609Z</time></trkpt><trkpt lat="43.8816591" lon="12.013506"><ele>383.0</ele><time>2026-04-12T08:07:24.608Z</time></trkpt><trkpt lat="43.8816802" lon="12.0133664"><ele>385.0</ele><time>2026-04-12T08:07:35.609Z</time></trkpt><trkpt lat="43.8816916" lon="12.0132138"><ele>387.0</ele><time>2026-04-12T08:07:36.608Z</time></trkpt><trkpt lat="43.8817092" lon="12.0130248"><ele>387.5</ele><time>2026-04-12T08:07:37.609Z</time></trkpt><trkpt lat="43.8817255" lon="12.0128224"><ele>388.0</ele><time>2026-04-12T08:07:38.609Z</time></trkpt><trkpt lat="43.8817389" lon="12.0126318"><ele>388.5</ele><time>2026-04-12T08:07:39.609Z</time></trkpt><trkpt lat="43.8817549" lon="12.0124603"><ele>389.0</ele><time>2026-04-12T08:07:40.609Z</time></trkpt><trkpt lat="43.8817768" lon="12.0123193"><ele>383.79999999999995</ele><time>2026-04-12T08:07:41.609Z</time></trkpt><trkpt lat="43.8818105" lon="12.0122068"><ele>378.59999999999997</ele><time>2026-04-12T08:07:42.609Z</time></trkpt><trkpt lat="43.8818483" lon="12.0121093"><ele>373.4</ele><time>2026-04-12T08:07:43.608Z</time></trkpt><trkpt lat="43.8818958" lon="12.0120064"><ele>368.2</ele><time>2026-04-12T08:07:44.609Z</time></trkpt><trkpt lat="43.8819624" lon="12.0118992"><ele>363.0</ele><time>2026-04-12T08:07:45.609Z</time></trkpt><trkpt lat="43.8821046" lon="12.0118325"><ele>363.0</ele><time>2026-04-12T08:07:46.608Z</time></trkpt><trkpt lat="43.8823028" lon="12.0118038"><ele>363.0</ele><time>2026-04-12T08:07:47.608Z</time></trkpt><trkpt lat="43.8825014" lon="12.0117759"><ele>363.0</ele><time>2026-04-12T08:07:48.608Z</time></trkpt><trkpt lat="43.882717" lon="12.0117686"><ele>366.0</ele><time>2026-04-12T08:07:49.609Z</time></trkpt><trkpt lat="43.8829128" lon="12.0117378"><ele>369.0</ele><time>2026-04-12T08:07:50.608Z</time></trkpt><trkpt lat="43.8830847" lon="12.0116622"><ele>372.0</ele><time>2026-04-12T08:07:51.609Z</time></trkpt><trkpt lat="43.8832383" lon="12.01153"><ele>372.0</ele><time>2026-04-12T08:07:52.609Z</time></trkpt><trkpt lat="43.883355" lon="12.0113733"><ele>372.0</ele><time>2026-04-12T08:07:53.609Z</time></trkpt><trkpt lat="43.8834383" lon="12.011195"><ele>372.0</ele><time>2026-04-12T08:07:54.609Z</time></trkpt><trkpt lat="43.8834917" lon="12.0109917"><ele>374.6666666666667</ele><time>2026-04-12T08:07:55.609Z</time></trkpt><trkpt lat="43.88351" lon="12.01077"><ele>377.33333333333337</ele><time>2026-04-12T08:07:56.608Z</time></trkpt><trkpt lat="43.8834717" lon="12.0105317"><ele>380.0</ele><time>2026-04-12T08:07:57.609Z</time></trkpt><trkpt lat="43.8834" lon="12.0102983"><ele>380.0</ele><time>2026-04-12T08:07:58.609Z</time></trkpt><trkpt lat="43.88331" lon="12.0100883"><ele>380.0</ele><time>2026-04-12T08:07:59.609Z</time></trkpt><trkpt lat="43.8832267" lon="12.0098967"><ele>380.0</ele><time>2026-04-12T08:08:00.609Z</time></trkpt><trkpt lat="43.88316" lon="12.0097083"><ele>382.0</ele><time>2026-04-12T08:08:01.609Z</time></trkpt><trkpt lat="43.8831117" lon="12.0094983"><ele>384.0</ele><time>2026-04-12T08:08:02.609Z</time></trkpt><trkpt lat="43.883085" lon="12.0092617"><ele>386.0</ele><time>2026-04-12T08:08:03.608Z</time></trkpt><trkpt lat="43.883065" lon="12.0090033"><ele>387.0</ele><time>2026-04-12T08:08:04.609Z</time></trkpt><trkpt lat="43.8830567" lon="12.0087333"><ele>388.0</ele><time>2026-04-12T08:08:05.609Z</time></trkpt><trkpt lat="43.883045" lon="12.008445"><ele>389.0</ele><time>2026-04-12T08:08:06.609Z</time></trkpt><trkpt lat="43.8830367" lon="12.00817"><ele>391.0</ele><time>2026-04-12T08:08:07.609Z</time></trkpt><trkpt lat="43.88301" lon="12.0079133"><ele>393.0</ele><time>2026-04-12T08:08:08.609Z</time></trkpt><trkpt lat="43.8829667" lon="12.0076717"><ele>395.0</ele><time>2026-04-12T08:08:09.609Z</time></trkpt><trkpt lat="43.882915" lon="12.0074683"><ele>396.0</ele><time>2026-04-12T08:08:10.609Z</time></trkpt><trkpt lat="43.8828533" lon="12.00729"><ele>397.0</ele><time>2026-04-12T08:08:11.608Z</time></trkpt><trkpt lat="43.8828017" lon="12.0071133"><ele>398.0</ele><time>2026-04-12T08:08:12.609Z</time></trkpt><trkpt lat="43.8827633" lon="12.00691"><ele>399.0</ele><time>2026-04-12T08:08:13.609Z</time></trkpt><trkpt lat="43.882755" lon="12.0066717"><ele>400.66666666666663</ele><time>2026-04-12T08:08:14.609Z</time></trkpt><trkpt lat="43.8827683" lon="12.0064133"><ele>402.3333333333333</ele><time>2026-04-12T08:08:15.609Z</time></trkpt><trkpt lat="43.8827717" lon="12.0061283"><ele>404.0</ele><time>2026-04-12T08:08:16.608Z</time></trkpt><trkpt lat="43.8827517" lon="12.0058317"><ele>404.3333333333333</ele><time>2026-04-12T08:08:17.609Z</time></trkpt><trkpt lat="43.8827167" lon="12.0055533"><ele>404.66666666666663</ele><time>2026-04-12T08:08:18.609Z</time></trkpt><trkpt lat="43.8826717" lon="12.00532"><ele>405.0</ele><time>2026-04-12T08:08:19.608Z</time></trkpt><trkpt lat="43.8826233" lon="12.005125"><ele>403.0</ele><time>2026-04-12T08:08:20.609Z</time></trkpt><trkpt lat="43.882595" lon="12.0049483"><ele>401.0</ele><time>2026-04-12T08:08:21.609Z</time></trkpt><trkpt lat="43.8825933" lon="12.004785"><ele>399.0</ele><time>2026-04-12T08:08:22.609Z</time></trkpt><trkpt lat="43.8826317" lon="12.00463"><ele>397.0</ele><time>2026-04-12T08:08:23.608Z</time></trkpt><trkpt lat="43.8827117" lon="12.004495"><ele>397.0</ele><time>2026-04-12T08:08:24.608Z</time></trkpt><trkpt lat="43.88283" lon="12.004365"><ele>397.0</ele><time>2026-04-12T08:08:25.609Z</time></trkpt><trkpt lat="43.8829717" lon="12.0042367"><ele>397.0</ele><time>2026-04-12T08:08:26.609Z</time></trkpt><trkpt lat="43.8831094" lon="12.0041151"><ele>395.5</ele><time>2026-04-12T08:08:27.609Z</time></trkpt><trkpt lat="43.8832373" lon="12.0040094"><ele>394.0</ele><time>2026-04-12T08:08:28.609Z</time></trkpt><trkpt lat="43.8833435" lon="12.0038858"><ele>392.5</ele><time>2026-04-12T08:08:29.609Z</time></trkpt><trkpt lat="43.8834296" lon="12.0037259"><ele>391.0</ele><time>2026-04-12T08:08:30.609Z</time></trkpt><trkpt lat="43.8834952" lon="12.0035223"><ele>395.0</ele><time>2026-04-12T08:08:31.609Z</time></trkpt><trkpt lat="43.883542" lon="12.0032784"><ele>399.0</ele><time>2026-04-12T08:08:32.608Z</time></trkpt><trkpt lat="43.8835854" lon="12.0030082"><ele>403.0</ele><time>2026-04-12T08:08:33.608Z</time></trkpt><trkpt lat="43.8836273" lon="12.0027516"><ele>403.0</ele><time>2026-04-12T08:08:34.608Z</time></trkpt><trkpt lat="43.8836636" lon="12.0025259"><ele>403.0</ele><time>2026-04-12T08:08:35.609Z</time></trkpt><trkpt lat="43.8837012" lon="12.0023225"><ele>403.0</ele><time>2026-04-12T08:08:36.609Z</time></trkpt><trkpt lat="43.8837643" lon="12.0021281"><ele>401.5</ele><time>2026-04-12T08:08:37.609Z</time></trkpt><trkpt lat="43.8838493" lon="12.0019559"><ele>400.0</ele><time>2026-04-12T08:08:38.609Z</time></trkpt><trkpt lat="43.8839419" lon="12.0018228"><ele>398.5</ele><time>2026-04-12T08:08:39.609Z</time></trkpt><trkpt lat="43.8840116" lon="12.0016975"><ele>397.0</ele><time>2026-04-12T08:08:40.608Z</time></trkpt><trkpt lat="43.8840414" lon="12.0015478"><ele>397.0</ele><time>2026-04-12T08:08:41.608Z</time></trkpt><trkpt lat="43.8840194" lon="12.0013676"><ele>397.0</ele><time>2026-04-12T08:08:42.609Z</time></trkpt><trkpt lat="43.8839471" lon="12.0011777"><ele>397.0</ele><time>2026-04-12T08:08:43.608Z</time></trkpt><trkpt lat="43.8838476" lon="12.0009771"><ele>400.0</ele><time>2026-04-12T08:08:44.609Z</time></trkpt><trkpt lat="43.8837391" lon="12.0007552"><ele>403.0</ele><time>2026-04-12T08:08:45.609Z</time></trkpt><trkpt lat="43.8836255" lon="12.0005169"><ele>406.0</ele><time>2026-04-12T08:08:46.609Z</time></trkpt><trkpt lat="43.8835173" lon="12.0002746"><ele>402.6666666666667</ele><time>2026-04-12T08:08:47.609Z</time></trkpt><trkpt lat="43.8834241" lon="12.0000554"><ele>399.33333333333337</ele><time>2026-04-12T08:08:48.608Z</time></trkpt><trkpt lat="43.8833401" lon="11.9998604"><ele>396.0</ele><time>2026-04-12T08:08:49.608Z</time></trkpt><trkpt lat="43.8832685" lon="11.9996717"><ele>396.0</ele><time>2026-04-12T08:08:50.608Z</time></trkpt><trkpt lat="43.8832156" lon="11.9994724"><ele>396.0</ele><time>2026-04-12T08:08:51.609Z</time></trkpt><trkpt lat="43.8831916" lon="11.9992514"><ele>396.0</ele><time>2026-04-12T08:08:52.609Z</time></trkpt><trkpt lat="43.8831991" lon="11.9990166"><ele>397.0</ele><time>2026-04-12T08:08:53.609Z</time></trkpt><trkpt lat="43.8832384" lon="11.9987811"><ele>398.0</ele><time>2026-04-12T08:08:54.608Z</time></trkpt><trkpt lat="43.883318" lon="11.9985479"><ele>399.0</ele><time>2026-04-12T08:08:55.609Z</time></trkpt><trkpt lat="43.8834245" lon="11.9983128"><ele>404.0</ele><time>2026-04-12T08:08:56.608Z</time></trkpt><trkpt lat="43.8835511" lon="11.9980727"><ele>409.0</ele><time>2026-04-12T08:08:57.609Z</time></trkpt><trkpt lat="43.883672" lon="11.9978423"><ele>414.0</ele><time>2026-04-12T08:08:58.608Z</time></trkpt><trkpt lat="43.8837731" lon="11.9976279"><ele>411.33333333333337</ele><time>2026-04-12T08:08:59.609Z</time></trkpt><trkpt lat="43.8838553" lon="11.9974345"><ele>408.6666666666667</ele><time>2026-04-12T08:09:00.609Z</time></trkpt><trkpt lat="43.8839123" lon="11.9972408"><ele>406.0</ele><time>2026-04-12T08:09:01.608Z</time></trkpt><trkpt lat="43.883927" lon="11.9970343"><ele>406.0</ele><time>2026-04-12T08:09:02.609Z</time></trkpt><trkpt lat="43.8838989" lon="11.9968169"><ele>406.0</ele><time>2026-04-12T08:09:03.609Z</time></trkpt><trkpt lat="43.8838523" lon="11.9966006"><ele>406.0</ele><time>2026-04-12T08:09:04.608Z</time></trkpt><trkpt lat="43.8837995" lon="11.9964078"><ele>407.0</ele><time>2026-04-12T08:09:05.609Z</time></trkpt><trkpt lat="43.8837443" lon="11.9962366"><ele>408.0</ele><time>2026-04-12T08:09:06.609Z</time></trkpt><trkpt lat="43.8836655" lon="11.9961059"><ele>409.0</ele><time>2026-04-12T08:09:07.609Z</time></trkpt><trkpt lat="43.8835523" lon="11.9960222"><ele>410.0</ele><time>2026-04-12T08:09:08.609Z</time></trkpt><trkpt lat="43.8834038" lon="11.9960066"><ele>407.3333333333333</ele><time>2026-04-12T08:09:09.609Z</time></trkpt><trkpt lat="43.8832299" lon="11.9960591"><ele>404.66666666666663</ele><time>2026-04-12T08:09:10.609Z</time></trkpt><trkpt lat="43.8830424" lon="11.9961427"><ele>402.0</ele><time>2026-04-12T08:09:11.608Z</time></trkpt><trkpt lat="43.8828462" lon="11.9962374"><ele>402.0</ele><time>2026-04-12T08:09:12.609Z</time></trkpt><trkpt lat="43.8826566" lon="11.9963241"><ele>402.0</ele><time>2026-04-12T08:09:13.609Z</time></trkpt><trkpt lat="43.8824801" lon="11.9964025"><ele>402.0</ele><time>2026-04-12T08:09:14.609Z</time></trkpt><trkpt lat="43.8823131" lon="11.9964586"><ele>403.0</ele><time>2026-04-12T08:09:15.608Z</time></trkpt><trkpt lat="43.8821376" lon="11.9964879"><ele>404.0</ele><time>2026-04-12T08:09:16.609Z</time></trkpt><trkpt lat="43.8819506" lon="11.996489"><ele>405.0</ele><time>2026-04-12T08:09:17.609Z</time></trkpt><trkpt lat="43.8817491" lon="11.9964818"><ele>410.0</ele><time>2026-04-12T08:09:18.609Z</time></trkpt><trkpt lat="43.8815437" lon="11.996468"><ele>415.0</ele><time>2026-04-12T08:09:19.609Z</time></trkpt><trkpt lat="43.8813501" lon="11.9964589"><ele>420.0</ele><time>2026-04-12T08:09:20.609Z</time></trkpt><trkpt lat="43.8811598" lon="11.9964526"><ele>420.0</ele><time>2026-04-12T08:09:21.609Z</time></trkpt><trkpt lat="43.8809737" lon="11.9964372"><ele>420.0</ele><time>2026-04-12T08:09:22.608Z</time></trkpt><trkpt lat="43.8807922" lon="11.9963948"><ele>420.0</ele><time>2026-04-12T08:09:23.608Z</time></trkpt><trkpt lat="43.8806088" lon="11.9963476"><ele>419.0</ele><time>2026-04-12T08:09:24.609Z</time></trkpt><trkpt lat="43.8804254" lon="11.9963125"><ele>418.0</ele><time>2026-04-12T08:09:25.608Z</time></trkpt><trkpt lat="43.8802573" lon="11.99628"><ele>417.0</ele><time>2026-04-12T08:09:26.608Z</time></trkpt><trkpt lat="43.8801042" lon="11.9962505"><ele>416.5</ele><time>2026-04-12T08:09:27.608Z</time></trkpt><trkpt lat="43.8799646" lon="11.9962258"><ele>416.0</ele><time>2026-04-12T08:09:28.609Z</time></trkpt><trkpt lat="43.879829" lon="11.9961865"><ele>415.5</ele><time>2026-04-12T08:09:29.609Z</time></trkpt><trkpt lat="43.8796952" lon="11.9961171"><ele>415.0</ele><time>2026-04-12T08:09:30.608Z</time></trkpt><trkpt lat="43.879569" lon="11.996005"><ele>415.0</ele><time>2026-04-12T08:09:31.608Z</time></trkpt><trkpt lat="43.8794434" lon="11.995844"><ele>415.0</ele><time>2026-04-12T08:09:32.609Z</time></trkpt><trkpt lat="43.8793085" lon="11.9956535"><ele>415.0</ele><time>2026-04-12T08:09:33.609Z</time></trkpt><trkpt lat="43.8791672" lon="11.995463"><ele>418.33333333333337</ele><time>2026-04-12T08:09:34.608Z</time></trkpt><trkpt lat="43.8790135" lon="11.9952747"><ele>421.66666666666663</ele><time>2026-04-12T08:09:35.608Z</time></trkpt><trkpt lat="43.8788442" lon="11.9951037"><ele>425.0</ele><time>2026-04-12T08:09:36.608Z</time></trkpt><trkpt lat="43.8786743" lon="11.9949586"><ele>427.0</ele><time>2026-04-12T08:09:37.608Z</time></trkpt><trkpt lat="43.8785113" lon="11.9948402"><ele>429.0</ele><time>2026-04-12T08:09:38.609Z</time></trkpt><trkpt lat="43.8783604" lon="11.9947359"><ele>431.0</ele><time>2026-04-12T08:09:39.609Z</time></trkpt><trkpt lat="43.8782239" lon="11.9946386"><ele>431.0</ele><time>2026-04-12T08:09:40.609Z</time></trkpt><trkpt lat="43.8781005" lon="11.9945296"><ele>431.0</ele><time>2026-04-12T08:09:41.609Z</time></trkpt><trkpt lat="43.8779877" lon="11.9943935"><ele>431.0</ele><time>2026-04-12T08:09:42.609Z</time></trkpt><trkpt lat="43.8778829" lon="11.9942124"><ele>441.0</ele><time>2026-04-12T08:09:43.609Z</time></trkpt><trkpt lat="43.8777832" lon="11.9939921"><ele>451.0</ele><time>2026-04-12T08:09:44.609Z</time></trkpt><trkpt lat="43.8776897" lon="11.9937698"><ele>461.0</ele><time>2026-04-12T08:09:45.608Z</time></trkpt><trkpt lat="43.8776042" lon="11.9935678"><ele>457.0</ele><time>2026-04-12T08:09:46.609Z</time></trkpt><trkpt lat="43.877511" lon="11.9933876"><ele>453.0</ele><time>2026-04-12T08:09:47.609Z</time></trkpt><trkpt lat="43.8773867" lon="11.9932343"><ele>449.0</ele><time>2026-04-12T08:09:48.609Z</time></trkpt><trkpt lat="43.8772568" lon="11.9931054"><ele>449.0</ele><time>2026-04-12T08:09:49.609Z</time></trkpt><trkpt lat="43.8771207" lon="11.9929746"><ele>449.0</ele><time>2026-04-12T08:09:50.609Z</time></trkpt><trkpt lat="43.8769858" lon="11.9928101"><ele>449.0</ele><time>2026-04-12T08:09:51.609Z</time></trkpt><trkpt lat="43.8768672" lon="11.9926007"><ele>445.66666666666663</ele><time>2026-04-12T08:09:52.609Z</time></trkpt><trkpt lat="43.8767646" lon="11.9923842"><ele>442.33333333333337</ele><time>2026-04-12T08:09:53.608Z</time></trkpt><trkpt lat="43.876673" lon="11.9921691"><ele>439.0</ele><time>2026-04-12T08:09:54.609Z</time></trkpt><trkpt lat="43.8765925" lon="11.9919442"><ele>439.0</ele><time>2026-04-12T08:09:55.609Z</time></trkpt><trkpt lat="43.8765227" lon="11.9916977"><ele>439.0</ele><time>2026-04-12T08:09:56.608Z</time></trkpt><trkpt lat="43.8764554" lon="11.9914205"><ele>439.0</ele><time>2026-04-12T08:09:57.609Z</time></trkpt><trkpt lat="43.8763945" lon="11.9911409"><ele>445.6666666666667</ele><time>2026-04-12T08:09:58.609Z</time></trkpt><trkpt lat="43.876347" lon="11.9908675"><ele>452.33333333333337</ele><time>2026-04-12T08:09:59.609Z</time></trkpt><trkpt lat="43.8762983" lon="11.9906079"><ele>459.0</ele><time>2026-04-12T08:10:00.608Z</time></trkpt><trkpt lat="43.8762309" lon="11.9903693"><ele>458.66666666666663</ele><time>2026-04-12T08:10:01.609Z</time></trkpt><trkpt lat="43.8761452" lon="11.9901388"><ele>458.3333333333333</ele><time>2026-04-12T08:10:02.609Z</time></trkpt><trkpt lat="43.8760323" lon="11.9899199"><ele>458.0</ele><time>2026-04-12T08:10:03.609Z</time></trkpt><trkpt lat="43.8758931" lon="11.9896952"><ele>458.0</ele><time>2026-04-12T08:10:04.608Z</time></trkpt><trkpt lat="43.8757345" lon="11.9894725"><ele>458.0</ele><time>2026-04-12T08:10:05.609Z</time></trkpt><trkpt lat="43.8755577" lon="11.9892647"><ele>457.0</ele><time>2026-04-12T08:10:06.609Z</time></trkpt><trkpt lat="43.8753846" lon="11.9890633"><ele>456.0</ele><time>2026-04-12T08:10:07.609Z</time></trkpt><trkpt lat="43.8752279" lon="11.9888754"><ele>455.0</ele><time>2026-04-12T08:10:08.609Z</time></trkpt><trkpt lat="43.8750797" lon="11.9887019"><ele>455.0</ele><time>2026-04-12T08:10:09.61Z</time></trkpt><trkpt lat="43.8749423" lon="11.9885417"><ele>455.0</ele><time>2026-04-12T08:10:10.61Z</time></trkpt><trkpt lat="43.8748161" lon="11.9883976"><ele>455.0</ele><time>2026-04-12T08:10:11.61Z</time></trkpt><trkpt lat="43.8747008" lon="11.9882561"><ele>458.0</ele><time>2026-04-12T08:10:12.61Z</time></trkpt><trkpt lat="43.8745967" lon="11.9881042"><ele>461.0</ele><time>2026-04-12T08:10:13.61Z</time></trkpt><trkpt lat="43.8745162" lon="11.9879301"><ele>464.0</ele><time>2026-04-12T08:10:14.61Z</time></trkpt><trkpt lat="43.8744613" lon="11.9877278"><ele>466.66666666666663</ele><time>2026-04-12T08:10:15.61Z</time></trkpt><trkpt lat="43.8744424" lon="11.9875093"><ele>469.33333333333337</ele><time>2026-04-12T08:10:16.609Z</time></trkpt><trkpt lat="43.8744603" lon="11.9872824"><ele>472.0</ele><time>2026-04-12T08:10:17.61Z</time></trkpt><trkpt lat="43.8745014" lon="11.9870681"><ele>472.0</ele><time>2026-04-12T08:10:18.61Z</time></trkpt><trkpt lat="43.8745261" lon="11.9868681"><ele>472.0</ele><time>2026-04-12T08:10:19.61Z</time></trkpt><trkpt lat="43.8745125" lon="11.9866663"><ele>472.0</ele><time>2026-04-12T08:10:20.61Z</time></trkpt><trkpt lat="43.8744431" lon="11.9864811"><ele>472.0</ele><time>2026-04-12T08:10:21.61Z</time></trkpt><trkpt lat="43.8743183" lon="11.9862872"><ele>473.0</ele><time>2026-04-12T08:10:22.61Z</time></trkpt><trkpt lat="43.8741659" lon="11.9860748"><ele>474.0</ele><time>2026-04-12T08:10:23.609Z</time></trkpt><trkpt lat="43.8740068" lon="11.9858415"><ele>475.0</ele><time>2026-04-12T08:10:24.61Z</time></trkpt><trkpt lat="43.873852" lon="11.9855829"><ele>475.0</ele><time>2026-04-12T08:10:25.609Z</time></trkpt><trkpt lat="43.8737132" lon="11.9853228"><ele>475.0</ele><time>2026-04-12T08:10:26.61Z</time></trkpt><trkpt lat="43.8735879" lon="11.9850727"><ele>472.6666666666667</ele><time>2026-04-12T08:10:27.61Z</time></trkpt><trkpt lat="43.8734698" lon="11.9848343"><ele>470.33333333333337</ele><time>2026-04-12T08:10:28.61Z</time></trkpt><trkpt lat="43.8733466" lon="11.984615"><ele>468.0</ele><time>2026-04-12T08:10:29.61Z</time></trkpt><trkpt lat="43.873211" lon="11.9844099"><ele>468.0</ele><time>2026-04-12T08:10:30.609Z</time></trkpt><trkpt lat="43.8730607" lon="11.9842255"><ele>468.0</ele><time>2026-04-12T08:10:31.61Z</time></trkpt><trkpt lat="43.8729016" lon="11.984076"><ele>468.0</ele><time>2026-04-12T08:10:32.609Z</time></trkpt><trkpt lat="43.8727496" lon="11.9839597"><ele>466.25</ele><time>2026-04-12T08:10:33.609Z</time></trkpt><trkpt lat="43.8726169" lon="11.9838547"><ele>464.5</ele><time>2026-04-12T08:10:34.61Z</time></trkpt><trkpt lat="43.8725049" lon="11.9837525"><ele>462.75</ele><time>2026-04-12T08:10:35.61Z</time></trkpt><trkpt lat="43.8724302" lon="11.9836218"><ele>461.0</ele><time>2026-04-12T08:10:36.609Z</time></trkpt><trkpt lat="43.8723917" lon="11.9834553"><ele>464.25</ele><time>2026-04-12T08:10:37.61Z</time></trkpt><trkpt lat="43.8723915" lon="11.9832677"><ele>467.5</ele><time>2026-04-12T08:10:38.609Z</time></trkpt><trkpt lat="43.8724382" lon="11.983069"><ele>470.75</ele><time>2026-04-12T08:10:39.61Z</time></trkpt><trkpt lat="43.8725164" lon="11.9828778"><ele>474.0</ele><time>2026-04-12T08:10:40.609Z</time></trkpt><trkpt lat="43.8725928" lon="11.9826845"><ele>473.66666666666663</ele><time>2026-04-12T08:10:41.61Z</time></trkpt><trkpt lat="43.8726484" lon="11.9824887"><ele>473.3333333333333</ele><time>2026-04-12T08:10:42.609Z</time></trkpt><trkpt lat="43.872653" lon="11.9822832"><ele>473.0</ele><time>2026-04-12T08:10:43.61Z</time></trkpt><trkpt lat="43.8725926" lon="11.9820794"><ele>473.0</ele><time>2026-04-12T08:10:44.61Z</time></trkpt><trkpt lat="43.8724748" lon="11.9818905"><ele>473.0</ele><time>2026-04-12T08:10:45.61Z</time></trkpt><trkpt lat="43.8723058" lon="11.9817332"><ele>473.0</ele><time>2026-04-12T08:10:46.61Z</time></trkpt><trkpt lat="43.8721" lon="11.9815954"><ele>473.3333333333333</ele><time>2026-04-12T08:10:47.61Z</time></trkpt><trkpt lat="43.871892" lon="11.9814525"><ele>473.66666666666663</ele><time>2026-04-12T08:10:48.61Z</time></trkpt><trkpt lat="43.8717029" lon="11.9813203"><ele>474.0</ele><time>2026-04-12T08:10:49.61Z</time></trkpt><trkpt lat="43.8715358" lon="11.9812017"><ele>473.75</ele><time>2026-04-12T08:10:50.61Z</time></trkpt><trkpt lat="43.8713892" lon="11.9811142"><ele>473.5</ele><time>2026-04-12T08:10:51.61Z</time></trkpt><trkpt lat="43.8712538" lon="11.9810436"><ele>473.25</ele><time>2026-04-12T08:10:52.61Z</time></trkpt><trkpt lat="43.8711376" lon="11.9809657"><ele>473.0</ele><time>2026-04-12T08:10:53.61Z</time></trkpt><trkpt lat="43.8710414" lon="11.9808459"><ele>473.0</ele><time>2026-04-12T08:10:54.609Z</time></trkpt><trkpt lat="43.8709749" lon="11.9806839"><ele>473.0</ele><time>2026-04-12T08:10:55.61Z</time></trkpt><trkpt lat="43.8709374" lon="11.98048"><ele>473.0</ele><time>2026-04-12T08:10:56.609Z</time></trkpt><trkpt lat="43.8709123" lon="11.9802491"><ele>470.3333333333333</ele><time>2026-04-12T08:10:57.61Z</time></trkpt><trkpt lat="43.8708658" lon="11.980003"><ele>467.66666666666663</ele><time>2026-04-12T08:10:58.61Z</time></trkpt><trkpt lat="43.8707735" lon="11.9797609"><ele>465.0</ele><time>2026-04-12T08:10:59.609Z</time></trkpt><trkpt lat="43.8706542" lon="11.9795461"><ele>465.0</ele><time>2026-04-12T08:11:00.61Z</time></trkpt><trkpt lat="43.8705369" lon="11.9793609"><ele>465.0</ele><time>2026-04-12T08:11:01.61Z</time></trkpt><trkpt lat="43.8704253" lon="11.9791877"><ele>465.0</ele><time>2026-04-12T08:11:02.61Z</time></trkpt><trkpt lat="43.8703025" lon="11.9790344"><ele>464.66666666666663</ele><time>2026-04-12T08:11:03.609Z</time></trkpt><trkpt lat="43.8701616" lon="11.9789138"><ele>464.3333333333333</ele><time>2026-04-12T08:11:04.609Z</time></trkpt><trkpt lat="43.8699981" lon="11.9788403"><ele>464.0</ele><time>2026-04-12T08:11:05.61Z</time></trkpt><trkpt lat="43.8698179" lon="11.9788241"><ele>464.0</ele><time>2026-04-12T08:11:06.61Z</time></trkpt><trkpt lat="43.8696229" lon="11.9788446"><ele>464.0</ele><time>2026-04-12T08:11:07.609Z</time></trkpt><trkpt lat="43.8694197" lon="11.9788805"><ele>464.0</ele><time>2026-04-12T08:11:08.61Z</time></trkpt><trkpt lat="43.8692066" lon="11.9789112"><ele>464.66666666666663</ele><time>2026-04-12T08:11:09.609Z</time></trkpt><trkpt lat="43.8689871" lon="11.9789402"><ele>465.33333333333337</ele><time>2026-04-12T08:11:10.61Z</time></trkpt><trkpt lat="43.8687604" lon="11.9789668"><ele>466.0</ele><time>2026-04-12T08:11:11.609Z</time></trkpt><trkpt lat="43.8685328" lon="11.9789964"><ele>466.33333333333337</ele><time>2026-04-12T08:11:12.61Z</time></trkpt><trkpt lat="43.8683143" lon="11.9790239"><ele>466.66666666666663</ele><time>2026-04-12T08:11:13.609Z</time></trkpt><trkpt lat="43.8681098" lon="11.9790481"><ele>467.0</ele><time>2026-04-12T08:11:14.609Z</time></trkpt><trkpt lat="43.8679151" lon="11.9790808"><ele>467.0</ele><time>2026-04-12T08:11:15.61Z</time></trkpt><trkpt lat="43.867726" lon="11.9791167"><ele>467.0</ele><time>2026-04-12T08:11:16.609Z</time></trkpt><trkpt lat="43.8675511" lon="11.9791393"><ele>467.0</ele><time>2026-04-12T08:11:17.61Z</time></trkpt><trkpt lat="43.867379" lon="11.9791415"><ele>466.3333333333333</ele><time>2026-04-12T08:11:18.61Z</time></trkpt><trkpt lat="43.8672062" lon="11.9791073"><ele>465.66666666666663</ele><time>2026-04-12T08:11:19.61Z</time></trkpt><trkpt lat="43.8670327" lon="11.9790342"><ele>465.0</ele><time>2026-04-12T08:11:20.609Z</time></trkpt><trkpt lat="43.8668647" lon="11.9789279"><ele>464.33333333333337</ele><time>2026-04-12T08:11:21.61Z</time></trkpt><trkpt lat="43.866701" lon="11.9787968"><ele>463.6666666666667</ele><time>2026-04-12T08:11:22.61Z</time></trkpt><trkpt lat="43.8665442" lon="11.9786541"><ele>463.0</ele><time>2026-04-12T08:11:23.61Z</time></trkpt><trkpt lat="43.8663964" lon="11.9785229"><ele>463.0</ele><time>2026-04-12T08:11:24.61Z</time></trkpt><trkpt lat="43.8662576" lon="11.978395"><ele>463.0</ele><time>2026-04-12T08:11:25.609Z</time></trkpt><trkpt lat="43.8661231" lon="11.9782759"><ele>463.0</ele><time>2026-04-12T08:11:26.61Z</time></trkpt><trkpt lat="43.8659924" lon="11.9781695"><ele>463.75</ele><time>2026-04-12T08:11:27.61Z</time></trkpt><trkpt lat="43.8658735" lon="11.9780578"><ele>464.5</ele><time>2026-04-12T08:11:28.609Z</time></trkpt><trkpt lat="43.8657551" lon="11.9779498"><ele>465.25</ele><time>2026-04-12T08:11:29.61Z</time></trkpt><trkpt lat="43.8656431" lon="11.9778554"><ele>466.0</ele><time>2026-04-12T08:11:30.609Z</time></trkpt><trkpt lat="43.8655354" lon="11.9777622"><ele>466.0</ele><time>2026-04-12T08:11:31.61Z</time></trkpt><trkpt lat="43.8654315" lon="11.9776674"><ele>466.0</ele><time>2026-04-12T08:11:32.609Z</time></trkpt><trkpt lat="43.8653285" lon="11.9775733"><ele>466.0</ele><time>2026-04-12T08:11:33.609Z</time></trkpt><trkpt lat="43.8652228" lon="11.9774893"><ele>466.0</ele><time>2026-04-12T08:11:34.61Z</time></trkpt><trkpt lat="43.8651133" lon="11.977413"><ele>465.5</ele><time>2026-04-12T08:11:35.61Z</time></trkpt><trkpt lat="43.8650034" lon="11.9773415"><ele>465.0</ele><time>2026-04-12T08:11:36.609Z</time></trkpt><trkpt lat="43.8648838" lon="11.9772986"><ele>464.5</ele><time>2026-04-12T08:11:37.61Z</time></trkpt><trkpt lat="43.864757" lon="11.9772829"><ele>464.0</ele><time>2026-04-12T08:11:38.61Z</time></trkpt><trkpt lat="43.8646273" lon="11.9772874"><ele>464.0</ele><time>2026-04-12T08:11:39.609Z</time></trkpt><trkpt lat="43.8644996" lon="11.9772912"><ele>464.0</ele><time>2026-04-12T08:11:40.61Z</time></trkpt><trkpt lat="43.8643762" lon="11.9772921"><ele>464.0</ele><time>2026-04-12T08:11:41.61Z</time></trkpt><trkpt lat="43.8642506" lon="11.9772876"><ele>464.0</ele><time>2026-04-12T08:11:42.609Z</time></trkpt><trkpt lat="43.8641257" lon="11.9772868"><ele>463.5</ele><time>2026-04-12T08:11:43.609Z</time></trkpt><trkpt lat="43.8640047" lon="11.9772858"><ele>463.0</ele><time>2026-04-12T08:11:44.61Z</time></trkpt><trkpt lat="43.8638836" lon="11.9772853"><ele>462.5</ele><time>2026-04-12T08:11:45.61Z</time></trkpt><trkpt lat="43.8637611" lon="11.9772846"><ele>462.0</ele><time>2026-04-12T08:11:46.61Z</time></trkpt><trkpt lat="43.8636418" lon="11.9772785"><ele>462.0</ele><time>2026-04-12T08:11:47.61Z</time></trkpt><trkpt lat="43.8635232" lon="11.9772718"><ele>462.0</ele><time>2026-04-12T08:11:48.61Z</time></trkpt><trkpt lat="43.8634069" lon="11.977267"><ele>462.0</ele><time>2026-04-12T08:11:49.609Z</time></trkpt><trkpt lat="43.8632898" lon="11.977258"><ele>462.0</ele><time>2026-04-12T08:11:50.61Z</time></trkpt><trkpt lat="43.8631714" lon="11.9772576"><ele>461.75</ele><time>2026-04-12T08:11:51.61Z</time></trkpt><trkpt lat="43.8630509" lon="11.9772543"><ele>461.5</ele><time>2026-04-12T08:11:52.61Z</time></trkpt><trkpt lat="43.8629296" lon="11.9772474"><ele>461.25</ele><time>2026-04-12T08:11:53.61Z</time></trkpt><trkpt lat="43.8628011" lon="11.9772475"><ele>461.0</ele><time>2026-04-12T08:11:54.61Z</time></trkpt><trkpt lat="43.8626773" lon="11.9772571"><ele>461.0</ele><time>2026-04-12T08:11:55.61Z</time></trkpt><trkpt lat="43.8625538" lon="11.9772613"><ele>461.0</ele><time>2026-04-12T08:11:56.61Z</time></trkpt><trkpt lat="43.8624317" lon="11.9772627"><ele>461.0</ele><time>2026-04-12T08:11:57.61Z</time></trkpt><trkpt lat="43.86231" lon="11.9772587"><ele>461.0</ele><time>2026-04-12T08:11:58.61Z</time></trkpt><trkpt lat="43.8621877" lon="11.9772569"><ele>461.0</ele><time>2026-04-12T08:11:59.61Z</time></trkpt><trkpt lat="43.8620677" lon="11.9772598"><ele>461.0</ele><time>2026-04-12T08:12:00.609Z</time></trkpt><trkpt lat="43.8619506" lon="11.9772599"><ele>461.0</ele><time>2026-04-12T08:12:01.61Z</time></trkpt><trkpt lat="43.8618363" lon="11.977257"><ele>461.0</ele><time>2026-04-12T08:12:02.609Z</time></trkpt><trkpt lat="43.8617238" lon="11.9772533"><ele>460.5</ele><time>2026-04-12T08:12:03.609Z</time></trkpt><trkpt lat="43.8616096" lon="11.9772456"><ele>460.0</ele><time>2026-04-12T08:12:04.61Z</time></trkpt><trkpt lat="43.8614971" lon="11.9772397"><ele>459.5</ele><time>2026-04-12T08:12:05.61Z</time></trkpt><trkpt lat="43.8613829" lon="11.9772345"><ele>459.0</ele><time>2026-04-12T08:12:06.61Z</time></trkpt><trkpt lat="43.8612697" lon="11.9772348"><ele>459.0</ele><time>2026-04-12T08:12:07.61Z</time></trkpt><trkpt lat="43.8611579" lon="11.9772401"><ele>459.0</ele><time>2026-04-12T08:12:08.61Z</time></trkpt><trkpt lat="43.8610457" lon="11.9772458"><ele>459.0</ele><time>2026-04-12T08:12:09.609Z</time></trkpt><trkpt lat="43.8609389" lon="11.9772464"><ele>459.0</ele><time>2026-04-12T08:12:10.609Z</time></trkpt><trkpt lat="43.8608283" lon="11.9772432"><ele>459.0</ele><time>2026-04-12T08:12:11.61Z</time></trkpt><trkpt lat="43.8607144" lon="11.9772363"><ele>460.25</ele><time>2026-04-12T08:12:12.609Z</time></trkpt><trkpt lat="43.8605995" lon="11.9772312"><ele>461.5</ele><time>2026-04-12T08:12:13.61Z</time></trkpt><trkpt lat="43.8604829" lon="11.9772251"><ele>462.75</ele><time>2026-04-12T08:12:14.61Z</time></trkpt><trkpt lat="43.8603691" lon="11.9772168"><ele>464.0</ele><time>2026-04-12T08:12:15.61Z</time></trkpt><trkpt lat="43.8602567" lon="11.9772147"><ele>464.0</ele><time>2026-04-12T08:12:16.61Z</time></trkpt><trkpt lat="43.8601493" lon="11.9772108"><ele>464.0</ele><time>2026-04-12T08:12:17.61Z</time></trkpt><trkpt lat="43.8600434" lon="11.9772132"><ele>464.0</ele><time>2026-04-12T08:12:18.609Z</time></trkpt><trkpt lat="43.8599351" lon="11.9772191"><ele>464.0</ele><time>2026-04-12T08:12:19.61Z</time></trkpt><trkpt lat="43.8598205" lon="11.9772254"><ele>464.0</ele><time>2026-04-12T08:12:20.61Z</time></trkpt><trkpt lat="43.859704" lon="11.9772227"><ele>464.0</ele><time>2026-04-12T08:12:21.61Z</time></trkpt><trkpt lat="43.8595918" lon="11.9772193"><ele>464.0</ele><time>2026-04-12T08:12:22.609Z</time></trkpt><trkpt lat="43.8594858" lon="11.9772259"><ele>464.0</ele><time>2026-04-12T08:12:23.61Z</time></trkpt><trkpt lat="43.8593827" lon="11.9772317"><ele>464.0</ele><time>2026-04-12T08:12:24.61Z</time></trkpt><trkpt lat="43.8592774" lon="11.9772321"><ele>464.0</ele><time>2026-04-12T08:12:25.609Z</time></trkpt><trkpt lat="43.8591766" lon="11.9772303"><ele>463.99999999999994</ele><time>2026-04-12T08:12:26.61Z</time></trkpt><trkpt lat="43.8590839" lon="11.9772279"><ele>464.0</ele><time>2026-04-12T08:12:27.61Z</time></trkpt><trkpt lat="43.8589943" lon="11.9772252"><ele>464.0</ele><time>2026-04-12T08:12:28.61Z</time></trkpt><trkpt lat="43.8589048" lon="11.9772204"><ele>464.0</ele><time>2026-04-12T08:12:29.609Z</time></trkpt><trkpt lat="43.8588179" lon="11.9772183"><ele>463.99999999999994</ele><time>2026-04-12T08:12:30.61Z</time></trkpt><trkpt lat="43.8587355" lon="11.9772195"><ele>464.0</ele><time>2026-04-12T08:12:31.61Z</time></trkpt><trkpt lat="43.8586498" lon="11.9772169"><ele>464.0</ele><time>2026-04-12T08:12:32.61Z</time></trkpt><trkpt lat="43.8585603" lon="11.9772053"><ele>464.0</ele><time>2026-04-12T08:12:33.61Z</time></trkpt><trkpt lat="43.8584686" lon="11.9771929"><ele>464.0</ele><time>2026-04-12T08:12:34.61Z</time></trkpt><trkpt lat="43.8583691" lon="11.9771804"><ele>464.0</ele><time>2026-04-12T08:12:35.61Z</time></trkpt><trkpt lat="43.8582648" lon="11.9771705"><ele>464.0</ele><time>2026-04-12T08:12:36.609Z</time></trkpt><trkpt lat="43.8581678" lon="11.977161"><ele>464.4</ele><time>2026-04-12T08:12:37.61Z</time></trkpt><trkpt lat="43.8580729" lon="11.9771455"><ele>464.79999999999995</ele><time>2026-04-12T08:12:38.61Z</time></trkpt><trkpt lat="43.857981" lon="11.9771344"><ele>465.20000000000005</ele><time>2026-04-12T08:12:39.61Z</time></trkpt><trkpt lat="43.857884" lon="11.9771211"><ele>465.6</ele><time>2026-04-12T08:12:40.609Z</time></trkpt><trkpt lat="43.8577884" lon="11.9770968"><ele>466.0</ele><time>2026-04-12T08:12:41.609Z</time></trkpt><trkpt lat="43.8576878" lon="11.9770742"><ele>466.0</ele><time>2026-04-12T08:12:42.61Z</time></trkpt><trkpt lat="43.8575905" lon="11.9770417"><ele>466.0</ele><time>2026-04-12T08:12:43.609Z</time></trkpt><trkpt lat="43.8574965" lon="11.9770222"><ele>466.0</ele><time>2026-04-12T08:12:44.609Z</time></trkpt><trkpt lat="43.8573957" lon="11.9770118"><ele>466.0</ele><time>2026-04-12T08:12:45.61Z</time></trkpt><trkpt lat="43.8572935" lon="11.9769927"><ele>466.0</ele><time>2026-04-12T08:12:46.61Z</time></trkpt><trkpt lat="43.8571922" lon="11.9769742"><ele>466.0</ele><time>2026-04-12T08:12:47.61Z</time></trkpt><trkpt lat="43.8570926" lon="11.976946"><ele>466.0</ele><time>2026-04-12T08:12:48.61Z</time></trkpt><trkpt lat="43.8569918" lon="11.9769137"><ele>466.0</ele><time>2026-04-12T08:12:49.609Z</time></trkpt><trkpt lat="43.8568927" lon="11.9768827"><ele>466.0</ele><time>2026-04-12T08:12:50.61Z</time></trkpt><trkpt lat="43.856792" lon="11.9768588"><ele>466.0</ele><time>2026-04-12T08:12:51.609Z</time></trkpt><trkpt lat="43.8566931" lon="11.9768284"><ele>465.4</ele><time>2026-04-12T08:12:52.61Z</time></trkpt><trkpt lat="43.8565911" lon="11.9768017"><ele>464.8</ele><time>2026-04-12T08:12:53.609Z</time></trkpt><trkpt lat="43.8564941" lon="11.976769"><ele>464.19999999999993</ele><time>2026-04-12T08:12:54.609Z</time></trkpt><trkpt lat="43.8563938" lon="11.9767397"><ele>463.59999999999997</ele><time>2026-04-12T08:12:55.61Z</time></trkpt><trkpt lat="43.8562919" lon="11.9767198"><ele>463.0</ele><time>2026-04-12T08:12:56.61Z</time></trkpt><trkpt lat="43.8561866" lon="11.976697"><ele>463.25</ele><time>2026-04-12T08:12:57.61Z</time></trkpt><trkpt lat="43.8560723" lon="11.976665"><ele>463.5</ele><time>2026-04-12T08:12:58.609Z</time></trkpt><trkpt lat="43.8559628" lon="11.9766367"><ele>463.75</ele><time>2026-04-12T08:12:59.61Z</time></trkpt><trkpt lat="43.8558449" lon="11.9766047"><ele>464.0</ele><time>2026-04-12T08:13:00.609Z</time></trkpt><trkpt lat="43.8557351" lon="11.9765766"><ele>464.75</ele><time>2026-04-12T08:13:01.61Z</time></trkpt><trkpt lat="43.8556215" lon="11.9765532"><ele>465.5</ele><time>2026-04-12T08:13:02.61Z</time></trkpt><trkpt lat="43.8555056" lon="11.9765274"><ele>466.25</ele><time>2026-04-12T08:13:03.61Z</time></trkpt><trkpt lat="43.8553852" lon="11.9765049"><ele>467.0</ele><time>2026-04-12T08:13:04.609Z</time></trkpt><trkpt lat="43.855271" lon="11.976477"><ele>467.0</ele><time>2026-04-12T08:13:05.61Z</time></trkpt><trkpt lat="43.8551524" lon="11.9764425"><ele>467.0</ele><time>2026-04-12T08:13:06.61Z</time></trkpt><trkpt lat="43.8550323" lon="11.9764108"><ele>467.0</ele><time>2026-04-12T08:13:07.609Z</time></trkpt><trkpt lat="43.8549104" lon="11.9763768"><ele>467.0</ele><time>2026-04-12T08:13:08.61Z</time></trkpt><trkpt lat="43.8547866" lon="11.9763422"><ele>466.75</ele><time>2026-04-12T08:13:09.609Z</time></trkpt><trkpt lat="43.8546734" lon="11.9763164"><ele>466.5</ele><time>2026-04-12T08:13:10.61Z</time></trkpt><trkpt lat="43.8545637" lon="11.9762802"><ele>466.25</ele><time>2026-04-12T08:13:11.609Z</time></trkpt><trkpt lat="43.8544525" lon="11.9762472"><ele>466.0</ele><time>2026-04-12T08:13:12.61Z</time></trkpt><trkpt lat="43.8543396" lon="11.9762238"><ele>465.25</ele><time>2026-04-12T08:13:13.61Z</time></trkpt><trkpt lat="43.8542177" lon="11.9761929"><ele>464.5</ele><time>2026-04-12T08:13:14.61Z</time></trkpt><trkpt lat="43.8540908" lon="11.9761562"><ele>463.75</ele><time>2026-04-12T08:13:15.609Z</time></trkpt><trkpt lat="43.8539577" lon="11.9761211"><ele>463.0</ele><time>2026-04-12T08:13:16.609Z</time></trkpt><trkpt lat="43.8538254" lon="11.9760931"><ele>463.0</ele><time>2026-04-12T08:13:17.61Z</time></trkpt><trkpt lat="43.8536832" lon="11.9760661"><ele>463.0</ele><time>2026-04-12T08:13:18.61Z</time></trkpt><trkpt lat="43.8535421" lon="11.9760351"><ele>463.0</ele><time>2026-04-12T08:13:19.61Z</time></trkpt><trkpt lat="43.8534045" lon="11.9759972"><ele>463.0</ele><time>2026-04-12T08:13:20.61Z</time></trkpt><trkpt lat="43.8532684" lon="11.9759576"><ele>463.0</ele><time>2026-04-12T08:13:21.609Z</time></trkpt><trkpt lat="43.8531284" lon="11.9759068"><ele>463.0</ele><time>2026-04-12T08:13:22.609Z</time></trkpt><trkpt lat="43.8529823" lon="11.97586"><ele>463.0</ele><time>2026-04-12T08:13:23.609Z</time></trkpt><trkpt lat="43.8528376" lon="11.9758124"><ele>463.0</ele><time>2026-04-12T08:13:24.61Z</time></trkpt><trkpt lat="43.8526929" lon="11.9757655"><ele>464.25</ele><time>2026-04-12T08:13:25.609Z</time></trkpt><trkpt lat="43.8525525" lon="11.9757186"><ele>465.5</ele><time>2026-04-12T08:13:26.61Z</time></trkpt><trkpt lat="43.8524162" lon="11.975673"><ele>466.75</ele><time>2026-04-12T08:13:27.609Z</time></trkpt><trkpt lat="43.8522799" lon="11.9756352"><ele>468.0</ele><time>2026-04-12T08:13:28.609Z</time></trkpt><trkpt lat="43.8521441" lon="11.9756048"><ele>468.0</ele><time>2026-04-12T08:13:29.61Z</time></trkpt><trkpt lat="43.8520037" lon="11.9755665"><ele>468.0</ele><time>2026-04-12T08:13:30.61Z</time></trkpt><trkpt lat="43.8518622" lon="11.9755288"><ele>468.0</ele><time>2026-04-12T08:13:31.609Z</time></trkpt><trkpt lat="43.8517159" lon="11.9754877"><ele>468.0</ele><time>2026-04-12T08:13:32.61Z</time></trkpt><trkpt lat="43.8515653" lon="11.9754436"><ele>467.25</ele><time>2026-04-12T08:13:33.61Z</time></trkpt><trkpt lat="43.8514218" lon="11.9753993"><ele>466.5</ele><time>2026-04-12T08:13:34.61Z</time></trkpt><trkpt lat="43.851291" lon="11.9753456"><ele>465.75</ele><time>2026-04-12T08:13:35.609Z</time></trkpt><trkpt lat="43.8511654" lon="11.9752779"><ele>465.0</ele><time>2026-04-12T08:13:36.609Z</time></trkpt><trkpt lat="43.851039" lon="11.975183"><ele>464.66666666666663</ele><time>2026-04-12T08:13:37.61Z</time></trkpt><trkpt lat="43.8509142" lon="11.9750685"><ele>464.3333333333333</ele><time>2026-04-12T08:13:38.61Z</time></trkpt><trkpt lat="43.8507857" lon="11.9749412"><ele>464.0</ele><time>2026-04-12T08:13:39.61Z</time></trkpt><trkpt lat="43.8506539" lon="11.9748056"><ele>465.66666666666663</ele><time>2026-04-12T08:13:40.61Z</time></trkpt><trkpt lat="43.8505225" lon="11.9746545"><ele>467.33333333333337</ele><time>2026-04-12T08:13:41.61Z</time></trkpt><trkpt lat="43.8503887" lon="11.9744878"><ele>469.0</ele><time>2026-04-12T08:13:42.61Z</time></trkpt><trkpt lat="43.850241" lon="11.9743189"><ele>471.0</ele><time>2026-04-12T08:13:43.61Z</time></trkpt><trkpt lat="43.8500859" lon="11.9741335"><ele>473.0</ele><time>2026-04-12T08:13:44.61Z</time></trkpt><trkpt lat="43.8499346" lon="11.9739356"><ele>475.0</ele><time>2026-04-12T08:13:45.61Z</time></trkpt><trkpt lat="43.8497812" lon="11.9737311"><ele>475.0</ele><time>2026-04-12T08:13:46.61Z</time></trkpt><trkpt lat="43.8496201" lon="11.9735213"><ele>475.0</ele><time>2026-04-12T08:13:47.61Z</time></trkpt><trkpt lat="43.8494601" lon="11.9733203"><ele>475.0</ele><time>2026-04-12T08:13:48.609Z</time></trkpt><trkpt lat="43.8493092" lon="11.9731332"><ele>474.0</ele><time>2026-04-12T08:13:49.61Z</time></trkpt><trkpt lat="43.8491617" lon="11.9729536"><ele>473.0</ele><time>2026-04-12T08:13:50.61Z</time></trkpt><trkpt lat="43.8490112" lon="11.9727687"><ele>472.0</ele><time>2026-04-12T08:13:51.609Z</time></trkpt><trkpt lat="43.8488557" lon="11.9725804"><ele>471.0</ele><time>2026-04-12T08:13:52.609Z</time></trkpt><trkpt lat="43.8486958" lon="11.9723844"><ele>470.0</ele><time>2026-04-12T08:13:53.61Z</time></trkpt><trkpt lat="43.8485377" lon="11.9721851"><ele>469.0</ele><time>2026-04-12T08:13:54.61Z</time></trkpt><trkpt lat="43.8483816" lon="11.9719903"><ele>469.0</ele><time>2026-04-12T08:13:55.609Z</time></trkpt><trkpt lat="43.8482262" lon="11.971798"><ele>469.0</ele><time>2026-04-12T08:13:56.609Z</time></trkpt><trkpt lat="43.8480713" lon="11.9716064"><ele>469.0</ele><time>2026-04-12T08:13:57.61Z</time></trkpt><trkpt lat="43.8479205" lon="11.9714117"><ele>471.0</ele><time>2026-04-12T08:13:58.61Z</time></trkpt><trkpt lat="43.8477697" lon="11.9712217"><ele>473.0</ele><time>2026-04-12T08:13:59.609Z</time></trkpt><trkpt lat="43.8476284" lon="11.971034"><ele>475.0</ele><time>2026-04-12T08:14:00.61Z</time></trkpt><trkpt lat="43.8474846" lon="11.9708522"><ele>475.0</ele><time>2026-04-12T08:14:01.61Z</time></trkpt><trkpt lat="43.8473377" lon="11.9706835"><ele>475.0</ele><time>2026-04-12T08:14:02.609Z</time></trkpt><trkpt lat="43.8471756" lon="11.9705436"><ele>475.0</ele><time>2026-04-12T08:14:03.61Z</time></trkpt><trkpt lat="43.8470058" lon="11.9704278"><ele>475.0</ele><time>2026-04-12T08:14:04.609Z</time></trkpt><trkpt lat="43.8468369" lon="11.97034"><ele>475.0</ele><time>2026-04-12T08:14:05.609Z</time></trkpt><trkpt lat="43.8466728" lon="11.9702683"><ele>475.0</ele><time>2026-04-12T08:14:06.609Z</time></trkpt><trkpt lat="43.846516" lon="11.9702195"><ele>475.2</ele><time>2026-04-12T08:14:07.61Z</time></trkpt><trkpt lat="43.8463732" lon="11.9701789"><ele>475.4</ele><time>2026-04-12T08:14:08.609Z</time></trkpt><trkpt lat="43.8462524" lon="11.9701366"><ele>475.6</ele><time>2026-04-12T08:14:09.61Z</time></trkpt><trkpt lat="43.8461572" lon="11.9700982"><ele>475.8</ele><time>2026-04-12T08:14:10.61Z</time></trkpt><trkpt lat="43.846088" lon="11.9700657"><ele>476.0</ele><time>2026-04-12T08:14:11.61Z</time></trkpt><trkpt lat="43.8459893" lon="11.9699772"><ele>475.6</ele><time>2026-04-12T08:14:13.61Z</time></trkpt><trkpt lat="43.845928" lon="11.9699193"><ele>475.20000000000005</ele><time>2026-04-12T08:14:14.609Z</time></trkpt><trkpt lat="43.8458513" lon="11.9698739"><ele>474.79999999999995</ele><time>2026-04-12T08:14:15.609Z</time></trkpt><trkpt lat="43.8457607" lon="11.9698523"><ele>474.4</ele><time>2026-04-12T08:14:16.61Z</time></trkpt><trkpt lat="43.8456521" lon="11.969849"><ele>474.0</ele><time>2026-04-12T08:14:17.61Z</time></trkpt><trkpt lat="43.8455333" lon="11.9698416"><ele>474.0</ele><time>2026-04-12T08:14:18.609Z</time></trkpt><trkpt lat="43.8454158" lon="11.9698173"><ele>474.0</ele><time>2026-04-12T08:14:19.609Z</time></trkpt><trkpt lat="43.845305" lon="11.9697826"><ele>474.0</ele><time>2026-04-12T08:14:20.61Z</time></trkpt><trkpt lat="43.8451997" lon="11.9697389"><ele>474.0</ele><time>2026-04-12T08:14:21.609Z</time></trkpt><trkpt lat="43.8451003" lon="11.969696"><ele>474.0</ele><time>2026-04-12T08:14:22.609Z</time></trkpt><trkpt lat="43.8449994" lon="11.9696539"><ele>474.0</ele><time>2026-04-12T08:14:23.61Z</time></trkpt><trkpt lat="43.844895" lon="11.9696121"><ele>474.0</ele><time>2026-04-12T08:14:24.61Z</time></trkpt><trkpt lat="43.8447843" lon="11.9695643"><ele>474.0</ele><time>2026-04-12T08:14:25.61Z</time></trkpt><trkpt lat="43.844671" lon="11.9695142"><ele>474.0</ele><time>2026-04-12T08:14:26.609Z</time></trkpt><trkpt lat="43.8445562" lon="11.9694663"><ele>474.0</ele><time>2026-04-12T08:14:27.609Z</time></trkpt><trkpt lat="43.8444352" lon="11.9694263"><ele>474.0</ele><time>2026-04-12T08:14:28.61Z</time></trkpt><trkpt lat="43.84432" lon="11.9693819"><ele>474.0</ele><time>2026-04-12T08:14:29.61Z</time></trkpt><trkpt lat="43.8442122" lon="11.9693234"><ele>474.0</ele><time>2026-04-12T08:14:30.61Z</time></trkpt><trkpt lat="43.8441008" lon="11.9692538"><ele>477.25</ele><time>2026-04-12T08:14:31.61Z</time></trkpt><trkpt lat="43.8439845" lon="11.9691819"><ele>480.5</ele><time>2026-04-12T08:14:32.61Z</time></trkpt><trkpt lat="43.8438694" lon="11.9691093"><ele>483.75</ele><time>2026-04-12T08:14:33.61Z</time></trkpt><trkpt lat="43.8437498" lon="11.9690339"><ele>487.0</ele><time>2026-04-12T08:14:34.61Z</time></trkpt><trkpt lat="43.843641" lon="11.9689464"><ele>487.0</ele><time>2026-04-12T08:14:35.609Z</time></trkpt><trkpt lat="43.843544" lon="11.9688447"><ele>487.0</ele><time>2026-04-12T08:14:36.61Z</time></trkpt><trkpt lat="43.8434489" lon="11.9687334"><ele>487.0</ele><time>2026-04-12T08:14:37.61Z</time></trkpt><trkpt lat="43.843361" lon="11.9685989"><ele>487.0</ele><time>2026-04-12T08:14:38.609Z</time></trkpt><trkpt lat="43.8432731" lon="11.9684626"><ele>488.5</ele><time>2026-04-12T08:14:39.609Z</time></trkpt><trkpt lat="43.8431853" lon="11.9683271"><ele>490.0</ele><time>2026-04-12T08:14:40.61Z</time></trkpt><trkpt lat="43.8430988" lon="11.9681951"><ele>491.5</ele><time>2026-04-12T08:14:41.61Z</time></trkpt><trkpt lat="43.8430065" lon="11.9680633"><ele>493.0</ele><time>2026-04-12T08:14:42.61Z</time></trkpt><trkpt lat="43.8429153" lon="11.9679273"><ele>493.0</ele><time>2026-04-12T08:14:43.61Z</time></trkpt><trkpt lat="43.8428219" lon="11.9677845"><ele>493.0</ele><time>2026-04-12T08:14:44.609Z</time></trkpt><trkpt lat="43.8427316" lon="11.967633"><ele>493.0</ele><time>2026-04-12T08:14:45.611Z</time></trkpt><trkpt lat="43.8426567" lon="11.9674623"><ele>493.0</ele><time>2026-04-12T08:14:46.611Z</time></trkpt><trkpt lat="43.8425853" lon="11.9672735"><ele>494.25</ele><time>2026-04-12T08:14:47.611Z</time></trkpt><trkpt lat="43.8425124" lon="11.9670885"><ele>495.5</ele><time>2026-04-12T08:14:48.61Z</time></trkpt><trkpt lat="43.8424404" lon="11.9669083"><ele>496.75</ele><time>2026-04-12T08:14:49.611Z</time></trkpt><trkpt lat="43.8423661" lon="11.966734"><ele>498.0</ele><time>2026-04-12T08:14:50.61Z</time></trkpt><trkpt lat="43.8422856" lon="11.9665658"><ele>498.0</ele><time>2026-04-12T08:14:51.611Z</time></trkpt><trkpt lat="43.8422072" lon="11.9664081"><ele>498.0</ele><time>2026-04-12T08:14:52.611Z</time></trkpt><trkpt lat="43.8421263" lon="11.9662519"><ele>498.0</ele><time>2026-04-12T08:14:53.61Z</time></trkpt><trkpt lat="43.8420443" lon="11.9660978"><ele>498.0</ele><time>2026-04-12T08:14:54.61Z</time></trkpt><trkpt lat="43.8419628" lon="11.965946"><ele>499.25</ele><time>2026-04-12T08:14:55.61Z</time></trkpt><trkpt lat="43.84188" lon="11.96581"><ele>500.5</ele><time>2026-04-12T08:14:56.61Z</time></trkpt><trkpt lat="43.8417876" lon="11.9656874"><ele>501.75</ele><time>2026-04-12T08:14:57.61Z</time></trkpt><trkpt lat="43.8416889" lon="11.965581"><ele>503.0</ele><time>2026-04-12T08:14:58.61Z</time></trkpt><trkpt lat="43.8415977" lon="11.9654824"><ele>499.2</ele><time>2026-04-12T08:14:59.61Z</time></trkpt><trkpt lat="43.841513" lon="11.965385"><ele>495.4</ele><time>2026-04-12T08:15:00.611Z</time></trkpt><trkpt lat="43.8414347" lon="11.9652894"><ele>491.59999999999997</ele><time>2026-04-12T08:15:01.611Z</time></trkpt><trkpt lat="43.8413621" lon="11.9651951"><ele>487.79999999999995</ele><time>2026-04-12T08:15:02.611Z</time></trkpt><trkpt lat="43.8412998" lon="11.9650944"><ele>484.0</ele><time>2026-04-12T08:15:03.611Z</time></trkpt><trkpt lat="43.8412379" lon="11.9649968"><ele>484.0</ele><time>2026-04-12T08:15:04.611Z</time></trkpt><trkpt lat="43.8411672" lon="11.9649131"><ele>484.0</ele><time>2026-04-12T08:15:05.611Z</time></trkpt><trkpt lat="43.8410771" lon="11.9648243"><ele>484.0</ele><time>2026-04-12T08:15:06.611Z</time></trkpt><trkpt lat="43.8409809" lon="11.9647318"><ele>484.0</ele><time>2026-04-12T08:15:07.61Z</time></trkpt><trkpt lat="43.8408904" lon="11.9646406"><ele>484.0</ele><time>2026-04-12T08:15:08.611Z</time></trkpt><trkpt lat="43.840805" lon="11.9645473"><ele>483.79999999999995</ele><time>2026-04-12T08:15:09.611Z</time></trkpt><trkpt lat="43.8407214" lon="11.9644522"><ele>483.59999999999997</ele><time>2026-04-12T08:15:10.611Z</time></trkpt><trkpt lat="43.8406379" lon="11.9643613"><ele>483.4</ele><time>2026-04-12T08:15:11.61Z</time></trkpt><trkpt lat="43.8405522" lon="11.9642736"><ele>483.2</ele><time>2026-04-12T08:15:12.61Z</time></trkpt><trkpt lat="43.8404633" lon="11.9641967"><ele>483.0</ele><time>2026-04-12T08:15:13.61Z</time></trkpt><trkpt lat="43.8403683" lon="11.9641233"><ele>483.5</ele><time>2026-04-12T08:15:14.611Z</time></trkpt><trkpt lat="43.840275" lon="11.9640467"><ele>484.0</ele><time>2026-04-12T08:15:15.61Z</time></trkpt><trkpt lat="43.840175" lon="11.9639667"><ele>484.5</ele><time>2026-04-12T08:15:16.61Z</time></trkpt><trkpt lat="43.8400717" lon="11.963885"><ele>485.0</ele><time>2026-04-12T08:15:17.61Z</time></trkpt><trkpt lat="43.83997" lon="11.9638017"><ele>485.0</ele><time>2026-04-12T08:15:18.611Z</time></trkpt><trkpt lat="43.8398633" lon="11.9637133"><ele>485.0</ele><time>2026-04-12T08:15:19.611Z</time></trkpt><trkpt lat="43.839745" lon="11.963615"><ele>485.0</ele><time>2026-04-12T08:15:20.61Z</time></trkpt><trkpt lat="43.8396317" lon="11.9635117"><ele>485.0</ele><time>2026-04-12T08:15:21.61Z</time></trkpt><trkpt lat="43.8395167" lon="11.9634183"><ele>485.25</ele><time>2026-04-12T08:15:22.611Z</time></trkpt><trkpt lat="43.8394017" lon="11.96332"><ele>485.5</ele><time>2026-04-12T08:15:23.61Z</time></trkpt><trkpt lat="43.8392967" lon="11.9632267"><ele>485.75</ele><time>2026-04-12T08:15:24.611Z</time></trkpt><trkpt lat="43.8391867" lon="11.963135"><ele>486.0</ele><time>2026-04-12T08:15:25.611Z</time></trkpt><trkpt lat="43.8390833" lon="11.96304"><ele>486.0</ele><time>2026-04-12T08:15:26.61Z</time></trkpt><trkpt lat="43.838985" lon="11.9629533"><ele>486.0</ele><time>2026-04-12T08:15:27.611Z</time></trkpt><trkpt lat="43.838885" lon="11.9628717"><ele>486.0</ele><time>2026-04-12T08:15:28.611Z</time></trkpt><trkpt lat="43.838785" lon="11.962785"><ele>486.0</ele><time>2026-04-12T08:15:29.611Z</time></trkpt><trkpt lat="43.8386867" lon="11.9626967"><ele>486.0</ele><time>2026-04-12T08:15:30.611Z</time></trkpt><trkpt lat="43.838595" lon="11.9626167"><ele>486.0</ele><time>2026-04-12T08:15:31.611Z</time></trkpt><trkpt lat="43.8385017" lon="11.9625433"><ele>486.0</ele><time>2026-04-12T08:15:32.611Z</time></trkpt><trkpt lat="43.8384033" lon="11.96247"><ele>486.0</ele><time>2026-04-12T08:15:33.611Z</time></trkpt><trkpt lat="43.838305" lon="11.9624017"><ele>486.0</ele><time>2026-04-12T08:15:34.61Z</time></trkpt><trkpt lat="43.83822" lon="11.9623333"><ele>486.20000000000005</ele><time>2026-04-12T08:15:35.611Z</time></trkpt><trkpt lat="43.8381283" lon="11.9622667"><ele>486.40000000000003</ele><time>2026-04-12T08:15:36.611Z</time></trkpt><trkpt lat="43.838045" lon="11.9622117"><ele>486.6</ele><time>2026-04-12T08:15:37.611Z</time></trkpt><trkpt lat="43.8379633" lon="11.962155"><ele>486.8</ele><time>2026-04-12T08:15:38.611Z</time></trkpt><trkpt lat="43.837885" lon="11.9621017"><ele>487.0</ele><time>2026-04-12T08:15:39.61Z</time></trkpt><trkpt lat="43.8378067" lon="11.9620483"><ele>487.00000000000006</ele><time>2026-04-12T08:15:40.61Z</time></trkpt><trkpt lat="43.83773" lon="11.9619933"><ele>487.0</ele><time>2026-04-12T08:15:41.61Z</time></trkpt><trkpt lat="43.83766" lon="11.9619183"><ele>487.0</ele><time>2026-04-12T08:15:42.611Z</time></trkpt><trkpt lat="43.8375967" lon="11.9618367"><ele>487.0</ele><time>2026-04-12T08:15:43.61Z</time></trkpt><trkpt lat="43.8375467" lon="11.9617467"><ele>487.00000000000006</ele><time>2026-04-12T08:15:44.611Z</time></trkpt><trkpt lat="43.8375" lon="11.9616483"><ele>487.0</ele><time>2026-04-12T08:15:45.611Z</time></trkpt><trkpt lat="43.8374517" lon="11.9615567"><ele>487.20000000000005</ele><time>2026-04-12T08:15:46.611Z</time></trkpt><trkpt lat="43.8374002" lon="11.9614613"><ele>487.40000000000003</ele><time>2026-04-12T08:15:47.611Z</time></trkpt><trkpt lat="43.83733" lon="11.9613714"><ele>487.59999999999997</ele><time>2026-04-12T08:15:48.611Z</time></trkpt><trkpt lat="43.8372521" lon="11.9612796"><ele>487.79999999999995</ele><time>2026-04-12T08:15:49.611Z</time></trkpt><trkpt lat="43.8371784" lon="11.9611777"><ele>488.0</ele><time>2026-04-12T08:15:50.61Z</time></trkpt><trkpt lat="43.8371152" lon="11.9610644"><ele>488.0</ele><time>2026-04-12T08:15:51.611Z</time></trkpt><trkpt lat="43.8370581" lon="11.9609462"><ele>487.99999999999994</ele><time>2026-04-12T08:15:52.611Z</time></trkpt><trkpt lat="43.8370032" lon="11.9608257"><ele>487.99999999999994</ele><time>2026-04-12T08:15:53.611Z</time></trkpt><trkpt lat="43.8369452" lon="11.9607107"><ele>488.0</ele><time>2026-04-12T08:15:54.611Z</time></trkpt><trkpt lat="43.8368832" lon="11.9605973"><ele>488.0</ele><time>2026-04-12T08:15:55.611Z</time></trkpt><trkpt lat="43.8368194" lon="11.9604858"><ele>488.2</ele><time>2026-04-12T08:15:56.611Z</time></trkpt><trkpt lat="43.8367542" lon="11.9603757"><ele>488.4</ele><time>2026-04-12T08:15:57.61Z</time></trkpt><trkpt lat="43.8366887" lon="11.9602689"><ele>488.59999999999997</ele><time>2026-04-12T08:15:58.61Z</time></trkpt><trkpt lat="43.8366203" lon="11.9601718"><ele>488.79999999999995</ele><time>2026-04-12T08:15:59.61Z</time></trkpt><trkpt lat="43.83655" lon="11.9600753"><ele>489.0</ele><time>2026-04-12T08:16:00.611Z</time></trkpt><trkpt lat="43.8364764" lon="11.9599794"><ele>489.6</ele><time>2026-04-12T08:16:01.61Z</time></trkpt><trkpt lat="43.8364035" lon="11.9598867"><ele>490.2</ele><time>2026-04-12T08:16:02.611Z</time></trkpt><trkpt lat="43.8363329" lon="11.9598049"><ele>490.80000000000007</ele><time>2026-04-12T08:16:03.611Z</time></trkpt><trkpt lat="43.8362502" lon="11.9597316"><ele>491.40000000000003</ele><time>2026-04-12T08:16:04.611Z</time></trkpt><trkpt lat="43.8361634" lon="11.9596646"><ele>492.0</ele><time>2026-04-12T08:16:05.61Z</time></trkpt><trkpt lat="43.8360772" lon="11.9595949"><ele>492.0</ele><time>2026-04-12T08:16:06.61Z</time></trkpt><trkpt lat="43.8359899" lon="11.959516"><ele>492.00000000000006</ele><time>2026-04-12T08:16:07.611Z</time></trkpt><trkpt lat="43.8358978" lon="11.9594376"><ele>492.00000000000006</ele><time>2026-04-12T08:16:08.611Z</time></trkpt><trkpt lat="43.8358091" lon="11.9593597"><ele>492.0</ele><time>2026-04-12T08:16:09.611Z</time></trkpt><trkpt lat="43.8357155" lon="11.9592841"><ele>492.0</ele><time>2026-04-12T08:16:10.611Z</time></trkpt><trkpt lat="43.8356189" lon="11.9592008"><ele>494.0</ele><time>2026-04-12T08:16:11.611Z</time></trkpt><trkpt lat="43.8355218" lon="11.9591182"><ele>496.0</ele><time>2026-04-12T08:16:12.61Z</time></trkpt><trkpt lat="43.8354184" lon="11.959046"><ele>498.0</ele><time>2026-04-12T08:16:13.61Z</time></trkpt><trkpt lat="43.835317" lon="11.9589754"><ele>500.0</ele><time>2026-04-12T08:16:14.611Z</time></trkpt><trkpt lat="43.835219" lon="11.9589038"><ele>499.25</ele><time>2026-04-12T08:16:15.61Z</time></trkpt><trkpt lat="43.8351162" lon="11.9588381"><ele>498.5</ele><time>2026-04-12T08:16:16.611Z</time></trkpt><trkpt lat="43.8350173" lon="11.9587631"><ele>497.75</ele><time>2026-04-12T08:16:17.61Z</time></trkpt><trkpt lat="43.834919" lon="11.9586933"><ele>497.0</ele><time>2026-04-12T08:16:18.61Z</time></trkpt><trkpt lat="43.8348136" lon="11.9586262"><ele>497.0</ele><time>2026-04-12T08:16:19.61Z</time></trkpt><trkpt lat="43.8347051" lon="11.9585527"><ele>497.0</ele><time>2026-04-12T08:16:20.611Z</time></trkpt><trkpt lat="43.8345948" lon="11.9584745"><ele>497.0</ele><time>2026-04-12T08:16:21.61Z</time></trkpt><trkpt lat="43.8344771" lon="11.9584008"><ele>497.0</ele><time>2026-04-12T08:16:22.611Z</time></trkpt><trkpt lat="43.8343577" lon="11.9583203"><ele>497.5</ele><time>2026-04-12T08:16:23.61Z</time></trkpt><trkpt lat="43.8342364" lon="11.9582336"><ele>498.0</ele><time>2026-04-12T08:16:24.61Z</time></trkpt><trkpt lat="43.8341099" lon="11.9581436"><ele>498.5</ele><time>2026-04-12T08:16:25.61Z</time></trkpt><trkpt lat="43.8339778" lon="11.9580532"><ele>499.0</ele><time>2026-04-12T08:16:26.611Z</time></trkpt><trkpt lat="43.8338439" lon="11.9579645"><ele>499.0</ele><time>2026-04-12T08:16:27.611Z</time></trkpt><trkpt lat="43.8337107" lon="11.9578854"><ele>499.0</ele><time>2026-04-12T08:16:28.611Z</time></trkpt><trkpt lat="43.8335823" lon="11.9578026"><ele>499.0</ele><time>2026-04-12T08:16:29.611Z</time></trkpt><trkpt lat="43.8334583" lon="11.9577129"><ele>499.0</ele><time>2026-04-12T08:16:30.61Z</time></trkpt><trkpt lat="43.8333428" lon="11.9576192"><ele>499.75</ele><time>2026-04-12T08:16:31.61Z</time></trkpt><trkpt lat="43.8332358" lon="11.957523"><ele>500.5</ele><time>2026-04-12T08:16:32.611Z</time></trkpt><trkpt lat="43.8331321" lon="11.9574258"><ele>501.25</ele><time>2026-04-12T08:16:33.611Z</time></trkpt><trkpt lat="43.8330288" lon="11.9573279"><ele>502.0</ele><time>2026-04-12T08:16:34.611Z</time></trkpt><trkpt lat="43.8329211" lon="11.9572269"><ele>502.0</ele><time>2026-04-12T08:16:35.611Z</time></trkpt><trkpt lat="43.8328126" lon="11.9571177"><ele>502.0</ele><time>2026-04-12T08:16:36.611Z</time></trkpt><trkpt lat="43.8327011" lon="11.957013"><ele>502.0</ele><time>2026-04-12T08:16:37.611Z</time></trkpt><trkpt lat="43.832592" lon="11.9569082"><ele>502.0</ele><time>2026-04-12T08:16:38.611Z</time></trkpt><trkpt lat="43.8324835" lon="11.9568089"><ele>502.25</ele><time>2026-04-12T08:16:39.61Z</time></trkpt><trkpt lat="43.8323765" lon="11.9566961"><ele>502.5</ele><time>2026-04-12T08:16:40.61Z</time></trkpt><trkpt lat="43.8322659" lon="11.956588"><ele>502.75</ele><time>2026-04-12T08:16:41.61Z</time></trkpt><trkpt lat="43.8321501" lon="11.9564834"><ele>503.0</ele><time>2026-04-12T08:16:42.611Z</time></trkpt><trkpt lat="43.8320317" lon="11.9563817"><ele>503.0</ele><time>2026-04-12T08:16:43.61Z</time></trkpt><trkpt lat="43.831914" lon="11.9562817"><ele>503.0</ele><time>2026-04-12T08:16:44.611Z</time></trkpt><trkpt lat="43.8318049" lon="11.9561797"><ele>503.0</ele><time>2026-04-12T08:16:45.611Z</time></trkpt><trkpt lat="43.8317019" lon="11.9560814"><ele>503.0</ele><time>2026-04-12T08:16:46.611Z</time></trkpt><trkpt lat="43.8316019" lon="11.9559848"><ele>502.75</ele><time>2026-04-12T08:16:47.61Z</time></trkpt><trkpt lat="43.8314984" lon="11.955885"><ele>502.5</ele><time>2026-04-12T08:16:48.611Z</time></trkpt><trkpt lat="43.8313893" lon="11.9557835"><ele>502.25</ele><time>2026-04-12T08:16:49.611Z</time></trkpt><trkpt lat="43.8312687" lon="11.9556948"><ele>502.0</ele><time>2026-04-12T08:16:50.611Z</time></trkpt><trkpt lat="43.8311445" lon="11.9556178"><ele>502.0</ele><time>2026-04-12T08:16:51.611Z</time></trkpt><trkpt lat="43.8310117" lon="11.9555589"><ele>502.0</ele><time>2026-04-12T08:16:52.611Z</time></trkpt><trkpt lat="43.8308747" lon="11.9555348"><ele>502.0</ele><time>2026-04-12T08:16:53.611Z</time></trkpt><trkpt lat="43.8307353" lon="11.95554"><ele>502.0</ele><time>2026-04-12T08:16:54.611Z</time></trkpt><trkpt lat="43.830593" lon="11.9555791"><ele>500.0</ele><time>2026-04-12T08:16:55.611Z</time></trkpt><trkpt lat="43.830451" lon="11.9556598"><ele>498.0</ele><time>2026-04-12T08:16:56.611Z</time></trkpt><trkpt lat="43.8303204" lon="11.9557812"><ele>496.0</ele><time>2026-04-12T08:16:57.61Z</time></trkpt><trkpt lat="43.8302043" lon="11.9559369"><ele>497.6666666666667</ele><time>2026-04-12T08:16:58.611Z</time></trkpt><trkpt lat="43.8300908" lon="11.9561287"><ele>499.33333333333337</ele><time>2026-04-12T08:16:59.61Z</time></trkpt><trkpt lat="43.8299745" lon="11.9563547"><ele>501.0</ele><time>2026-04-12T08:17:00.611Z</time></trkpt><trkpt lat="43.8298631" lon="11.9565945"><ele>500.33333333333337</ele><time>2026-04-12T08:17:01.611Z</time></trkpt><trkpt lat="43.8297615" lon="11.9568255"><ele>499.6666666666667</ele><time>2026-04-12T08:17:02.611Z</time></trkpt><trkpt lat="43.8296702" lon="11.9570448"><ele>499.0</ele><time>2026-04-12T08:17:03.611Z</time></trkpt><trkpt lat="43.8295951" lon="11.9572582"><ele>499.0</ele><time>2026-04-12T08:17:04.611Z</time></trkpt><trkpt lat="43.8295332" lon="11.9574538"><ele>499.0</ele><time>2026-04-12T08:17:05.611Z</time></trkpt><trkpt lat="43.8294792" lon="11.9576331"><ele>499.0</ele><time>2026-04-12T08:17:06.611Z</time></trkpt><trkpt lat="43.8294195" lon="11.9578021"><ele>499.0</ele><time>2026-04-12T08:17:07.611Z</time></trkpt><trkpt lat="43.8293408" lon="11.9579476"><ele>499.0</ele><time>2026-04-12T08:17:08.611Z</time></trkpt><trkpt lat="43.8292385" lon="11.958076"><ele>499.0</ele><time>2026-04-12T08:17:09.61Z</time></trkpt><trkpt lat="43.8291055" lon="11.9581867"><ele>499.0</ele><time>2026-04-12T08:17:10.611Z</time></trkpt><trkpt lat="43.8289598" lon="11.9582861"><ele>498.0</ele><time>2026-04-12T08:17:11.61Z</time></trkpt><trkpt lat="43.8288197" lon="11.9583824"><ele>497.0</ele><time>2026-04-12T08:17:12.611Z</time></trkpt><trkpt lat="43.8286804" lon="11.9584802"><ele>496.0</ele><time>2026-04-12T08:17:13.611Z</time></trkpt><trkpt lat="43.8285426" lon="11.9585823"><ele>497.0</ele><time>2026-04-12T08:17:14.611Z</time></trkpt><trkpt lat="43.8284113" lon="11.9586764"><ele>498.0</ele><time>2026-04-12T08:17:15.61Z</time></trkpt><trkpt lat="43.828285" lon="11.9587649"><ele>499.0</ele><time>2026-04-12T08:17:16.61Z</time></trkpt><trkpt lat="43.8281564" lon="11.9588496"><ele>500.0</ele><time>2026-04-12T08:17:17.611Z</time></trkpt><trkpt lat="43.8280281" lon="11.9589331"><ele>500.0</ele><time>2026-04-12T08:17:18.611Z</time></trkpt><trkpt lat="43.8278994" lon="11.9590099"><ele>500.0</ele><time>2026-04-12T08:17:19.611Z</time></trkpt><trkpt lat="43.8277672" lon="11.959075"><ele>500.0</ele><time>2026-04-12T08:17:20.61Z</time></trkpt><trkpt lat="43.827625" lon="11.9591227"><ele>500.0</ele><time>2026-04-12T08:17:21.61Z</time></trkpt><trkpt lat="43.8274785" lon="11.9591428"><ele>500.75</ele><time>2026-04-12T08:17:22.61Z</time></trkpt><trkpt lat="43.8273342" lon="11.9591227"><ele>501.5</ele><time>2026-04-12T08:17:23.61Z</time></trkpt><trkpt lat="43.827193" lon="11.9590662"><ele>502.25</ele><time>2026-04-12T08:17:24.611Z</time></trkpt><trkpt lat="43.8270567" lon="11.9589998"><ele>503.0</ele><time>2026-04-12T08:17:25.61Z</time></trkpt><trkpt lat="43.8269109" lon="11.9589382"><ele>503.66666666666663</ele><time>2026-04-12T08:17:26.611Z</time></trkpt><trkpt lat="43.8267509" lon="11.9588603"><ele>504.33333333333337</ele><time>2026-04-12T08:17:27.611Z</time></trkpt><trkpt lat="43.8265865" lon="11.9587702"><ele>505.0</ele><time>2026-04-12T08:17:28.61Z</time></trkpt><trkpt lat="43.8264091" lon="11.958679"><ele>505.0</ele><time>2026-04-12T08:17:29.61Z</time></trkpt><trkpt lat="43.8262268" lon="11.9585839"><ele>505.0</ele><time>2026-04-12T08:17:30.611Z</time></trkpt><trkpt lat="43.8260347" lon="11.9585059"><ele>505.0</ele><time>2026-04-12T08:17:31.611Z</time></trkpt><trkpt lat="43.8258441" lon="11.9584442"><ele>505.6666666666667</ele><time>2026-04-12T08:17:32.611Z</time></trkpt><trkpt lat="43.8256674" lon="11.9583903"><ele>506.33333333333337</ele><time>2026-04-12T08:17:33.611Z</time></trkpt><trkpt lat="43.8255036" lon="11.9583322"><ele>507.0</ele><time>2026-04-12T08:17:34.611Z</time></trkpt><trkpt lat="43.8253458" lon="11.9583035"><ele>506.66666666666663</ele><time>2026-04-12T08:17:35.611Z</time></trkpt><trkpt lat="43.8251941" lon="11.9583107"><ele>506.3333333333333</ele><time>2026-04-12T08:17:36.611Z</time></trkpt><trkpt lat="43.8250339" lon="11.9583612"><ele>506.0</ele><time>2026-04-12T08:17:37.61Z</time></trkpt><trkpt lat="43.8248735" lon="11.9584357"><ele>506.0</ele><time>2026-04-12T08:17:38.611Z</time></trkpt><trkpt lat="43.8247204" lon="11.9585207"><ele>506.0</ele><time>2026-04-12T08:17:39.611Z</time></trkpt><trkpt lat="43.8245789" lon="11.9586025"><ele>506.0</ele><time>2026-04-12T08:17:40.61Z</time></trkpt><trkpt lat="43.824452" lon="11.9586703"><ele>506.0</ele><time>2026-04-12T08:17:41.611Z</time></trkpt><trkpt lat="43.8243408" lon="11.9587013"><ele>506.0</ele><time>2026-04-12T08:17:42.611Z</time></trkpt><trkpt lat="43.8242487" lon="11.9587074"><ele>506.0</ele><time>2026-04-12T08:17:43.611Z</time></trkpt><trkpt lat="43.8241727" lon="11.9586708"><ele>506.0</ele><time>2026-04-12T08:17:44.611Z</time></trkpt><trkpt lat="43.8241077" lon="11.9585869"><ele>506.0</ele><time>2026-04-12T08:17:45.611Z</time></trkpt><trkpt lat="43.8240646" lon="11.9584373"><ele>509.66666666666663</ele><time>2026-04-12T08:17:46.61Z</time></trkpt><trkpt lat="43.8240351" lon="11.9582272"><ele>513.3333333333334</ele><time>2026-04-12T08:17:47.61Z</time></trkpt><trkpt lat="43.8239943" lon="11.9580122"><ele>517.0</ele><time>2026-04-12T08:17:48.61Z</time></trkpt><trkpt lat="43.8239309" lon="11.9578198"><ele>517.0</ele><time>2026-04-12T08:17:49.611Z</time></trkpt><trkpt lat="43.8238496" lon="11.957663"><ele>517.0</ele><time>2026-04-12T08:17:50.611Z</time></trkpt><trkpt lat="43.8237637" lon="11.9575418"><ele>517.0</ele><time>2026-04-12T08:17:51.61Z</time></trkpt><trkpt lat="43.8236621" lon="11.957486"><ele>517.0</ele><time>2026-04-12T08:17:52.611Z</time></trkpt><trkpt lat="43.8235497" lon="11.9574691"><ele>516.8000000000001</ele><time>2026-04-12T08:17:53.61Z</time></trkpt><trkpt lat="43.8234295" lon="11.9574711"><ele>516.6</ele><time>2026-04-12T08:17:54.611Z</time></trkpt><trkpt lat="43.8233129" lon="11.9574811"><ele>516.4000000000001</ele><time>2026-04-12T08:17:55.611Z</time></trkpt><trkpt lat="43.8232104" lon="11.9574973"><ele>516.2</ele><time>2026-04-12T08:17:56.611Z</time></trkpt><trkpt lat="43.8231298" lon="11.9575086"><ele>516.0</ele><time>2026-04-12T08:17:57.611Z</time></trkpt><trkpt lat="43.8230394" lon="11.9575179"><ele>514.2</ele><time>2026-04-12T08:17:59.611Z</time></trkpt><trkpt lat="43.8229558" lon="11.9578012"><ele>512.4000000000001</ele><time>2026-04-12T08:18:12.437Z</time></trkpt><trkpt lat="43.8228917" lon="11.9577783"><ele>510.6</ele><time>2026-04-12T08:18:34.606Z</time></trkpt><trkpt lat="43.8229433" lon="11.957715"><ele>508.8</ele><time>2026-04-12T08:18:43.606Z</time></trkpt><trkpt lat="43.8230038" lon="11.9577399"><ele>507.0</ele><time>2026-04-12T08:19:28.213Z</time></trkpt><trkpt lat="43.8228872" lon="11.9578274"><ele>507.0</ele><time>2026-04-12T08:19:38.605Z</time></trkpt><trkpt lat="43.8227735" lon="11.9578483"><ele>507.0</ele><time>2026-04-12T08:19:39.606Z</time></trkpt><trkpt lat="43.8226474" lon="11.9578486"><ele>507.0</ele><time>2026-04-12T08:19:40.605Z</time></trkpt><trkpt lat="43.8225131" lon="11.9578612"><ele>507.0</ele><time>2026-04-12T08:19:41.605Z</time></trkpt><trkpt lat="43.8223685" lon="11.9578841"><ele>508.0</ele><time>2026-04-12T08:19:42.605Z</time></trkpt><trkpt lat="43.8222177" lon="11.9579153"><ele>509.0</ele><time>2026-04-12T08:19:43.606Z</time></trkpt><trkpt lat="43.8220715" lon="11.9579448"><ele>510.0</ele><time>2026-04-12T08:19:44.606Z</time></trkpt><trkpt lat="43.821931" lon="11.9579665"><ele>511.0</ele><time>2026-04-12T08:19:45.605Z</time></trkpt><trkpt lat="43.8217838" lon="11.9579541"><ele>511.0</ele><time>2026-04-12T08:19:46.605Z</time></trkpt><trkpt lat="43.8216266" lon="11.9579036"><ele>511.0</ele><time>2026-04-12T08:19:47.606Z</time></trkpt><trkpt lat="43.8214822" lon="11.9578423"><ele>511.0</ele><time>2026-04-12T08:19:48.606Z</time></trkpt><trkpt lat="43.8213425" lon="11.9577957"><ele>511.0</ele><time>2026-04-12T08:19:49.606Z</time></trkpt><trkpt lat="43.8212061" lon="11.9577912"><ele>511.0</ele><time>2026-04-12T08:19:50.605Z</time></trkpt><trkpt lat="43.8210774" lon="11.9578348"><ele>511.0</ele><time>2026-04-12T08:19:51.606Z</time></trkpt><trkpt lat="43.8209694" lon="11.9579244"><ele>511.0</ele><time>2026-04-12T08:19:52.606Z</time></trkpt><trkpt lat="43.8208802" lon="11.9580543"><ele>512.0</ele><time>2026-04-12T08:19:53.605Z</time></trkpt><trkpt lat="43.8208128" lon="11.9582271"><ele>513.0</ele><time>2026-04-12T08:19:54.606Z</time></trkpt><trkpt lat="43.82077" lon="11.9584345"><ele>514.0</ele><time>2026-04-12T08:19:55.606Z</time></trkpt><trkpt lat="43.8207466" lon="11.958655"><ele>514.0</ele><time>2026-04-12T08:19:56.606Z</time></trkpt><trkpt lat="43.8207294" lon="11.9588605"><ele>514.0</ele><time>2026-04-12T08:19:57.605Z</time></trkpt><trkpt lat="43.8207178" lon="11.959046"><ele>514.0</ele><time>2026-04-12T08:19:58.606Z</time></trkpt><trkpt lat="43.8206862" lon="11.9592102"><ele>514.0</ele><time>2026-04-12T08:19:59.606Z</time></trkpt><trkpt lat="43.8206298" lon="11.9593347"><ele>516.0</ele><time>2026-04-12T08:20:00.605Z</time></trkpt><trkpt lat="43.8205554" lon="11.9594207"><ele>518.0</ele><time>2026-04-12T08:20:01.605Z</time></trkpt><trkpt lat="43.8204638" lon="11.9594733"><ele>520.0</ele><time>2026-04-12T08:20:02.606Z</time></trkpt><trkpt lat="43.8203665" lon="11.959498"><ele>522.0</ele><time>2026-04-12T08:20:03.606Z</time></trkpt><trkpt lat="43.8202532" lon="11.9594903"><ele>524.0</ele><time>2026-04-12T08:20:04.605Z</time></trkpt><trkpt lat="43.8201192" lon="11.9594227"><ele>524.0</ele><time>2026-04-12T08:20:05.605Z</time></trkpt><trkpt lat="43.8199664" lon="11.959346"><ele>524.0</ele><time>2026-04-12T08:20:06.606Z</time></trkpt><trkpt lat="43.8198065" lon="11.959287"><ele>524.0</ele><time>2026-04-12T08:20:07.605Z</time></trkpt><trkpt lat="43.8196446" lon="11.9592476"><ele>524.0</ele><time>2026-04-12T08:20:08.606Z</time></trkpt><trkpt lat="43.8194931" lon="11.9592485"><ele>524.0</ele><time>2026-04-12T08:20:09.606Z</time></trkpt><trkpt lat="43.819348" lon="11.9593249"><ele>524.0</ele><time>2026-04-12T08:20:10.606Z</time></trkpt><trkpt lat="43.8192161" lon="11.9594608"><ele>524.6666666666666</ele><time>2026-04-12T08:20:11.605Z</time></trkpt><trkpt lat="43.8191084" lon="11.9596455"><ele>525.3333333333334</ele><time>2026-04-12T08:20:12.605Z</time></trkpt><trkpt lat="43.819032" lon="11.9598748"><ele>526.0</ele><time>2026-04-12T08:20:13.606Z</time></trkpt><trkpt lat="43.8190029" lon="11.9601412"><ele>526.0</ele><time>2026-04-12T08:20:14.605Z</time></trkpt><trkpt lat="43.8189838" lon="11.9604075"><ele>526.0</ele><time>2026-04-12T08:20:15.605Z</time></trkpt><trkpt lat="43.818968" lon="11.9606441"><ele>526.0</ele><time>2026-04-12T08:20:16.606Z</time></trkpt><trkpt lat="43.8189474" lon="11.9608381"><ele>527.2</ele><time>2026-04-12T08:20:17.605Z</time></trkpt><trkpt lat="43.8189304" lon="11.9609972"><ele>528.4000000000001</ele><time>2026-04-12T08:20:18.606Z</time></trkpt><trkpt lat="43.8188986" lon="11.9611086"><ele>529.6</ele><time>2026-04-12T08:20:19.606Z</time></trkpt><trkpt lat="43.8188249" lon="11.9611788"><ele>530.8000000000001</ele><time>2026-04-12T08:20:20.605Z</time></trkpt><trkpt lat="43.8187374" lon="11.9612393"><ele>532.0</ele><time>2026-04-12T08:20:21.606Z</time></trkpt><trkpt lat="43.81864" lon="11.9612917"><ele>532.0</ele><time>2026-04-12T08:20:22.606Z</time></trkpt><trkpt lat="43.8185483" lon="11.9613633"><ele>532.0</ele><time>2026-04-12T08:20:23.605Z</time></trkpt><trkpt lat="43.8184483" lon="11.961425"><ele>532.0</ele><time>2026-04-12T08:20:24.606Z</time></trkpt><trkpt lat="43.8182667" lon="11.96147"><ele>532.0</ele><time>2026-04-12T08:20:25.606Z</time></trkpt><trkpt lat="43.8180367" lon="11.9614983"><ele>532.3333333333334</ele><time>2026-04-12T08:20:26.606Z</time></trkpt><trkpt lat="43.8178317" lon="11.9615633"><ele>532.6666666666666</ele><time>2026-04-12T08:20:27.606Z</time></trkpt><trkpt lat="43.8176517" lon="11.9616333"><ele>533.0</ele><time>2026-04-12T08:20:28.605Z</time></trkpt><trkpt lat="43.8174983" lon="11.9617217"><ele>533.3333333333333</ele><time>2026-04-12T08:20:29.605Z</time></trkpt><trkpt lat="43.8173567" lon="11.961845"><ele>533.6666666666666</ele><time>2026-04-12T08:20:30.606Z</time></trkpt><trkpt lat="43.8172117" lon="11.9619817"><ele>534.0</ele><time>2026-04-12T08:20:31.606Z</time></trkpt><trkpt lat="43.8170617" lon="11.9621067"><ele>534.0</ele><time>2026-04-12T08:20:32.606Z</time></trkpt><trkpt lat="43.8169067" lon="11.9622367"><ele>534.0</ele><time>2026-04-12T08:20:33.605Z</time></trkpt><trkpt lat="43.816765" lon="11.9623583"><ele>534.0</ele><time>2026-04-12T08:20:34.605Z</time></trkpt><trkpt lat="43.8166467" lon="11.9624817"><ele>538.25</ele><time>2026-04-12T08:20:35.606Z</time></trkpt><trkpt lat="43.8165533" lon="11.9625983"><ele>542.5</ele><time>2026-04-12T08:20:36.606Z</time></trkpt><trkpt lat="43.8164733" lon="11.962715"><ele>546.75</ele><time>2026-04-12T08:20:37.605Z</time></trkpt><trkpt lat="43.81638" lon="11.9628033"><ele>551.0</ele><time>2026-04-12T08:20:38.606Z</time></trkpt><trkpt lat="43.816275" lon="11.9628683"><ele>551.0</ele><time>2026-04-12T08:20:39.606Z</time></trkpt><trkpt lat="43.81616" lon="11.962895"><ele>551.0</ele><time>2026-04-12T08:20:40.606Z</time></trkpt><trkpt lat="43.8160383" lon="11.962935"><ele>551.0</ele><time>2026-04-12T08:20:41.606Z</time></trkpt><trkpt lat="43.8159083" lon="11.9630367"><ele>551.0</ele><time>2026-04-12T08:20:42.606Z</time></trkpt><trkpt lat="43.8158" lon="11.9631767"><ele>554.3333333333333</ele><time>2026-04-12T08:20:43.606Z</time></trkpt><trkpt lat="43.815725" lon="11.9633483"><ele>557.6666666666666</ele><time>2026-04-12T08:20:44.605Z</time></trkpt><trkpt lat="43.815665" lon="11.9635417"><ele>561.0</ele><time>2026-04-12T08:20:45.605Z</time></trkpt><trkpt lat="43.815625" lon="11.9637567"><ele>561.0</ele><time>2026-04-12T08:20:46.605Z</time></trkpt><trkpt lat="43.8156233" lon="11.9639717"><ele>561.0</ele><time>2026-04-12T08:20:47.606Z</time></trkpt><trkpt lat="43.8156517" lon="11.9641983"><ele>561.0</ele><time>2026-04-12T08:20:48.606Z</time></trkpt><trkpt lat="43.81572" lon="11.96442"><ele>559.6666666666666</ele><time>2026-04-12T08:20:49.606Z</time></trkpt><trkpt lat="43.8158133" lon="11.9646783"><ele>558.3333333333333</ele><time>2026-04-12T08:20:50.606Z</time></trkpt><trkpt lat="43.8159467" lon="11.9649283"><ele>557.0</ele><time>2026-04-12T08:20:51.606Z</time></trkpt><trkpt lat="43.8160633" lon="11.965165"><ele>556.3333333333333</ele><time>2026-04-12T08:20:52.605Z</time></trkpt><trkpt lat="43.8161717" lon="11.9653833"><ele>555.6666666666666</ele><time>2026-04-12T08:20:53.606Z</time></trkpt><trkpt lat="43.8162567" lon="11.9655933"><ele>555.0</ele><time>2026-04-12T08:20:54.605Z</time></trkpt><trkpt lat="43.8163117" lon="11.965805"><ele>557.6</ele><time>2026-04-12T08:20:55.606Z</time></trkpt><trkpt lat="43.81636" lon="11.9659833"><ele>560.2</ele><time>2026-04-12T08:20:56.606Z</time></trkpt><trkpt lat="43.8164033" lon="11.9661267"><ele>562.8</ele><time>2026-04-12T08:20:57.606Z</time></trkpt><trkpt lat="43.8164183" lon="11.9662483"><ele>565.4</ele><time>2026-04-12T08:20:58.606Z</time></trkpt><trkpt lat="43.8164033" lon="11.96636"><ele>568.0</ele><time>2026-04-12T08:20:59.605Z</time></trkpt><trkpt lat="43.8163467" lon="11.9664583"><ele>568.0</ele><time>2026-04-12T08:21:00.605Z</time></trkpt><trkpt lat="43.81625" lon="11.9665583"><ele>568.0</ele><time>2026-04-12T08:21:01.606Z</time></trkpt><trkpt lat="43.8161467" lon="11.9666483"><ele>568.0</ele><time>2026-04-12T08:21:02.606Z</time></trkpt><trkpt lat="43.8160333" lon="11.9666917"><ele>568.0</ele><time>2026-04-12T08:21:03.606Z</time></trkpt><trkpt lat="43.81591" lon="11.9666733"><ele>565.0</ele><time>2026-04-12T08:21:04.606Z</time></trkpt><trkpt lat="43.81577" lon="11.966595"><ele>562.0</ele><time>2026-04-12T08:21:05.606Z</time></trkpt><trkpt lat="43.815635" lon="11.9665133"><ele>559.0</ele><time>2026-04-12T08:21:06.606Z</time></trkpt><trkpt lat="43.8155033" lon="11.9664383"><ele>556.0</ele><time>2026-04-12T08:21:07.606Z</time></trkpt><trkpt lat="43.81538" lon="11.9664167"><ele>556.0</ele><time>2026-04-12T08:21:08.606Z</time></trkpt><trkpt lat="43.815265" lon="11.9664717"><ele>556.0</ele><time>2026-04-12T08:21:09.606Z</time></trkpt><trkpt lat="43.8151633" lon="11.9665983"><ele>556.0</ele><time>2026-04-12T08:21:10.605Z</time></trkpt><trkpt lat="43.8150983" lon="11.966775"><ele>556.0</ele><time>2026-04-12T08:21:11.605Z</time></trkpt><trkpt lat="43.815075" lon="11.9669883"><ele>556.3333333333334</ele><time>2026-04-12T08:21:12.606Z</time></trkpt><trkpt lat="43.8150633" lon="11.9672067"><ele>556.6666666666666</ele><time>2026-04-12T08:21:13.605Z</time></trkpt><trkpt lat="43.81502" lon="11.9674383"><ele>557.0</ele><time>2026-04-12T08:21:14.606Z</time></trkpt><trkpt lat="43.814945" lon="11.9676733"><ele>561.3333333333333</ele><time>2026-04-12T08:21:15.606Z</time></trkpt><trkpt lat="43.8148617" lon="11.9678883"><ele>565.6666666666666</ele><time>2026-04-12T08:21:16.606Z</time></trkpt><trkpt lat="43.8147683" lon="11.9680617"><ele>570.0</ele><time>2026-04-12T08:21:17.605Z</time></trkpt><trkpt lat="43.8146683" lon="11.9681983"><ele>570.0</ele><time>2026-04-12T08:21:18.606Z</time></trkpt><trkpt lat="43.8145517" lon="11.96831"><ele>570.0</ele><time>2026-04-12T08:21:19.606Z</time></trkpt><trkpt lat="43.8144133" lon="11.968385"><ele>570.0</ele><time>2026-04-12T08:21:20.605Z</time></trkpt><trkpt lat="43.8142717" lon="11.9684217"><ele>570.0</ele><time>2026-04-12T08:21:21.606Z</time></trkpt><trkpt lat="43.8141317" lon="11.9684567"><ele>574.3333333333334</ele><time>2026-04-12T08:21:22.606Z</time></trkpt><trkpt lat="43.8139583" lon="11.9684883"><ele>578.6666666666667</ele><time>2026-04-12T08:21:23.605Z</time></trkpt><trkpt lat="43.813795" lon="11.9685767"><ele>583.0</ele><time>2026-04-12T08:21:24.605Z</time></trkpt><trkpt lat="43.8136383" lon="11.9686683"><ele>583.0</ele><time>2026-04-12T08:21:25.605Z</time></trkpt><trkpt lat="43.8134983" lon="11.968735"><ele>583.0</ele><time>2026-04-12T08:21:26.605Z</time></trkpt><trkpt lat="43.8133633" lon="11.9687633"><ele>583.0</ele><time>2026-04-12T08:21:27.606Z</time></trkpt><trkpt lat="43.813225" lon="11.9687433"><ele>583.0</ele><time>2026-04-12T08:21:28.606Z</time></trkpt><trkpt lat="43.8130717" lon="11.968665"><ele>582.3333333333334</ele><time>2026-04-12T08:21:29.605Z</time></trkpt><trkpt lat="43.8128983" lon="11.9685267"><ele>581.6666666666666</ele><time>2026-04-12T08:21:30.605Z</time></trkpt><trkpt lat="43.81272" lon="11.9683933"><ele>581.0</ele><time>2026-04-12T08:21:31.606Z</time></trkpt><trkpt lat="43.8125483" lon="11.9682917"><ele>576.3333333333333</ele><time>2026-04-12T08:21:32.606Z</time></trkpt><trkpt lat="43.812365" lon="11.9682167"><ele>571.6666666666666</ele><time>2026-04-12T08:21:33.605Z</time></trkpt><trkpt lat="43.8121967" lon="11.968145"><ele>567.0</ele><time>2026-04-12T08:21:34.606Z</time></trkpt><trkpt lat="43.8120417" lon="11.96809"><ele>567.0</ele><time>2026-04-12T08:21:35.605Z</time></trkpt><trkpt lat="43.8118917" lon="11.968025"><ele>567.0</ele><time>2026-04-12T08:21:36.606Z</time></trkpt><trkpt lat="43.8117567" lon="11.9679267"><ele>567.0</ele><time>2026-04-12T08:21:37.606Z</time></trkpt><trkpt lat="43.8116417" lon="11.9678383"><ele>567.0</ele><time>2026-04-12T08:21:38.606Z</time></trkpt><trkpt lat="43.8115167" lon="11.9677833"><ele>575.3333333333334</ele><time>2026-04-12T08:21:39.606Z</time></trkpt><trkpt lat="43.8113667" lon="11.96776"><ele>583.6666666666667</ele><time>2026-04-12T08:21:40.605Z</time></trkpt><trkpt lat="43.811195" lon="11.9677817"><ele>592.0</ele><time>2026-04-12T08:21:41.606Z</time></trkpt><trkpt lat="43.8110117" lon="11.9678733"><ele>587.3333333333334</ele><time>2026-04-12T08:21:42.606Z</time></trkpt><trkpt lat="43.8108217" lon="11.9679833"><ele>582.6666666666666</ele><time>2026-04-12T08:21:43.606Z</time></trkpt><trkpt lat="43.8106367" lon="11.9680917"><ele>578.0</ele><time>2026-04-12T08:21:44.606Z</time></trkpt><trkpt lat="43.81046" lon="11.96818"><ele>578.0</ele><time>2026-04-12T08:21:45.605Z</time></trkpt><trkpt lat="43.8103033" lon="11.968255"><ele>578.0</ele><time>2026-04-12T08:21:46.606Z</time></trkpt><trkpt lat="43.8101483" lon="11.9682917"><ele>578.0</ele><time>2026-04-12T08:21:47.606Z</time></trkpt><trkpt lat="43.810005" lon="11.9683033"><ele>576.3333333333333</ele><time>2026-04-12T08:21:48.605Z</time></trkpt><trkpt lat="43.8098533" lon="11.9682817"><ele>574.6666666666666</ele><time>2026-04-12T08:21:49.605Z</time></trkpt><trkpt lat="43.8096867" lon="11.9682667"><ele>573.0</ele><time>2026-04-12T08:21:50.605Z</time></trkpt><trkpt lat="43.8095067" lon="11.9682717"><ele>573.0</ele><time>2026-04-12T08:21:51.606Z</time></trkpt><trkpt lat="43.8093283" lon="11.9683067"><ele>573.0</ele><time>2026-04-12T08:21:52.606Z</time></trkpt><trkpt lat="43.8091717" lon="11.96836"><ele>573.0</ele><time>2026-04-12T08:21:53.605Z</time></trkpt><trkpt lat="43.809025" lon="11.9684483"><ele>579.5</ele><time>2026-04-12T08:21:54.606Z</time></trkpt><trkpt lat="43.8089017" lon="11.96854"><ele>586.0</ele><time>2026-04-12T08:21:55.605Z</time></trkpt><trkpt lat="43.8087733" lon="11.9686133"><ele>592.5</ele><time>2026-04-12T08:21:56.606Z</time></trkpt><trkpt lat="43.8086283" lon="11.9686483"><ele>599.0</ele><time>2026-04-12T08:21:57.606Z</time></trkpt><trkpt lat="43.8084617" lon="11.9686517"><ele>599.0</ele><time>2026-04-12T08:21:58.605Z</time></trkpt><trkpt lat="43.8082667" lon="11.968635"><ele>599.0</ele><time>2026-04-12T08:21:59.605Z</time></trkpt><trkpt lat="43.8080633" lon="11.9686433"><ele>599.0</ele><time>2026-04-12T08:22:00.606Z</time></trkpt><trkpt lat="43.8078883" lon="11.9686567"><ele>599.0</ele><time>2026-04-12T08:22:01.606Z</time></trkpt><trkpt lat="43.80773" lon="11.9686717"><ele>599.0</ele><time>2026-04-12T08:22:02.606Z</time></trkpt><trkpt lat="43.8075683" lon="11.968685"><ele>599.0</ele><time>2026-04-12T08:22:03.605Z</time></trkpt><trkpt lat="43.807435" lon="11.96871"><ele>595.6</ele><time>2026-04-12T08:22:04.606Z</time></trkpt><trkpt lat="43.8073231" lon="11.9687386"><ele>592.2</ele><time>2026-04-12T08:22:05.606Z</time></trkpt><trkpt lat="43.807218" lon="11.9687949"><ele>588.8000000000001</ele><time>2026-04-12T08:22:06.605Z</time></trkpt><trkpt lat="43.8071314" lon="11.9688736"><ele>585.4</ele><time>2026-04-12T08:22:07.606Z</time></trkpt><trkpt lat="43.8070674" lon="11.968985"><ele>582.0</ele><time>2026-04-12T08:22:08.606Z</time></trkpt><trkpt lat="43.8070256" lon="11.9691284"><ele>585.0</ele><time>2026-04-12T08:22:09.606Z</time></trkpt><trkpt lat="43.8070132" lon="11.9692996"><ele>588.0</ele><time>2026-04-12T08:22:10.605Z</time></trkpt><trkpt lat="43.8070303" lon="11.9694866"><ele>591.0</ele><time>2026-04-12T08:22:11.606Z</time></trkpt><trkpt lat="43.8070839" lon="11.9696795"><ele>594.0</ele><time>2026-04-12T08:22:12.606Z</time></trkpt><trkpt lat="43.8071482" lon="11.9698724"><ele>595.0</ele><time>2026-04-12T08:22:13.605Z</time></trkpt><trkpt lat="43.8071946" lon="11.970082"><ele>596.0</ele><time>2026-04-12T08:22:14.605Z</time></trkpt><trkpt lat="43.8072053" lon="11.9703287"><ele>597.0</ele><time>2026-04-12T08:22:15.605Z</time></trkpt><trkpt lat="43.8071821" lon="11.9706109"><ele>599.3333333333334</ele><time>2026-04-12T08:22:16.605Z</time></trkpt><trkpt lat="43.8071485" lon="11.9709065"><ele>601.6666666666667</ele><time>2026-04-12T08:22:17.606Z</time></trkpt><trkpt lat="43.8071133" lon="11.9711744"><ele>604.0</ele><time>2026-04-12T08:22:18.605Z</time></trkpt><trkpt lat="43.8070805" lon="11.9714079"><ele>604.0</ele><time>2026-04-12T08:22:19.605Z</time></trkpt><trkpt lat="43.8070456" lon="11.9716056"><ele>604.0</ele><time>2026-04-12T08:22:20.605Z</time></trkpt><trkpt lat="43.8069801" lon="11.9717688"><ele>604.0</ele><time>2026-04-12T08:22:21.605Z</time></trkpt><trkpt lat="43.8068826" lon="11.9719113"><ele>604.0</ele><time>2026-04-12T08:22:22.606Z</time></trkpt><trkpt lat="43.8067587" lon="11.9720432"><ele>598.0</ele><time>2026-04-12T08:22:23.606Z</time></trkpt><trkpt lat="43.806617" lon="11.9721909"><ele>592.0</ele><time>2026-04-12T08:22:24.606Z</time></trkpt><trkpt lat="43.8064894" lon="11.9723412"><ele>586.0</ele><time>2026-04-12T08:22:25.605Z</time></trkpt><trkpt lat="43.8063777" lon="11.9724723"><ele>587.2</ele><time>2026-04-12T08:22:26.606Z</time></trkpt><trkpt lat="43.8062839" lon="11.972586"><ele>588.4000000000001</ele><time>2026-04-12T08:22:27.606Z</time></trkpt><trkpt lat="43.8062171" lon="11.9726896"><ele>589.6</ele><time>2026-04-12T08:22:28.606Z</time></trkpt><trkpt lat="43.8061935" lon="11.9728103"><ele>590.8000000000001</ele><time>2026-04-12T08:22:29.606Z</time></trkpt><trkpt lat="43.8062251" lon="11.9729439"><ele>592.0</ele><time>2026-04-12T08:22:30.605Z</time></trkpt><trkpt lat="43.8063163" lon="11.9730727"><ele>592.0</ele><time>2026-04-12T08:22:31.605Z</time></trkpt><trkpt lat="43.8064499" lon="11.9732021"><ele>592.0</ele><time>2026-04-12T08:22:32.606Z</time></trkpt><trkpt lat="43.8065884" lon="11.9733604"><ele>592.0</ele><time>2026-04-12T08:22:33.605Z</time></trkpt><trkpt lat="43.8067033" lon="11.973529"><ele>592.25</ele><time>2026-04-12T08:22:34.606Z</time></trkpt><trkpt lat="43.8067939" lon="11.9736797"><ele>592.5</ele><time>2026-04-12T08:22:35.606Z</time></trkpt><trkpt lat="43.806866" lon="11.9738256"><ele>592.75</ele><time>2026-04-12T08:22:36.606Z</time></trkpt><trkpt lat="43.8069139" lon="11.9739885"><ele>593.0</ele><time>2026-04-12T08:22:37.605Z</time></trkpt><trkpt lat="43.8069303" lon="11.9741679"><ele>596.0</ele><time>2026-04-12T08:22:38.606Z</time></trkpt><trkpt lat="43.8069086" lon="11.9743563"><ele>599.0</ele><time>2026-04-12T08:22:39.605Z</time></trkpt><trkpt lat="43.8068568" lon="11.9745075"><ele>602.0</ele><time>2026-04-12T08:22:40.606Z</time></trkpt><trkpt lat="43.8067743" lon="11.9746339"><ele>605.0</ele><time>2026-04-12T08:22:41.605Z</time></trkpt><trkpt lat="43.8066534" lon="11.9747275"><ele>605.0</ele><time>2026-04-12T08:22:42.606Z</time></trkpt><trkpt lat="43.8065252" lon="11.9747795"><ele>605.0</ele><time>2026-04-12T08:22:43.605Z</time></trkpt><trkpt lat="43.8063981" lon="11.9748159"><ele>605.0</ele><time>2026-04-12T08:22:44.606Z</time></trkpt><trkpt lat="43.8062764" lon="11.9748697"><ele>605.0</ele><time>2026-04-12T08:22:45.606Z</time></trkpt><trkpt lat="43.8061669" lon="11.9749539"><ele>601.25</ele><time>2026-04-12T08:22:46.605Z</time></trkpt><trkpt lat="43.8060781" lon="11.9750526"><ele>597.5</ele><time>2026-04-12T08:22:47.606Z</time></trkpt><trkpt lat="43.8060219" lon="11.9751698"><ele>593.75</ele><time>2026-04-12T08:22:48.606Z</time></trkpt><trkpt lat="43.8059924" lon="11.9753205"><ele>590.0</ele><time>2026-04-12T08:22:49.606Z</time></trkpt><trkpt lat="43.8060017" lon="11.9755069"><ele>601.0</ele><time>2026-04-12T08:22:50.606Z</time></trkpt><trkpt lat="43.8060461" lon="11.9757131"><ele>612.0</ele><time>2026-04-12T08:22:51.606Z</time></trkpt><trkpt lat="43.8061183" lon="11.9759354"><ele>623.0</ele><time>2026-04-12T08:22:52.606Z</time></trkpt><trkpt lat="43.8061888" lon="11.9761855"><ele>623.0</ele><time>2026-04-12T08:22:53.605Z</time></trkpt><trkpt lat="43.806243" lon="11.9764423"><ele>623.0</ele><time>2026-04-12T08:22:54.606Z</time></trkpt><trkpt lat="43.8062824" lon="11.9766923"><ele>623.0</ele><time>2026-04-12T08:22:55.606Z</time></trkpt><trkpt lat="43.8063175" lon="11.97693"><ele>620.5</ele><time>2026-04-12T08:22:56.606Z</time></trkpt><trkpt lat="43.8063486" lon="11.9771619"><ele>618.0</ele><time>2026-04-12T08:22:57.605Z</time></trkpt><trkpt lat="43.806375" lon="11.9773669"><ele>615.5</ele><time>2026-04-12T08:22:58.606Z</time></trkpt><trkpt lat="43.806389" lon="11.9775407"><ele>613.0</ele><time>2026-04-12T08:22:59.606Z</time></trkpt><trkpt lat="43.8063829" lon="11.9777179"><ele>611.75</ele><time>2026-04-12T08:23:00.606Z</time></trkpt><trkpt lat="43.8063493" lon="11.9779134"><ele>610.5</ele><time>2026-04-12T08:23:01.606Z</time></trkpt><trkpt lat="43.8063072" lon="11.9781105"><ele>609.25</ele><time>2026-04-12T08:23:02.606Z</time></trkpt><trkpt lat="43.806266" lon="11.9782856"><ele>608.0</ele><time>2026-04-12T08:23:03.606Z</time></trkpt><trkpt lat="43.8062216" lon="11.9784438"><ele>608.0</ele><time>2026-04-12T08:23:04.606Z</time></trkpt><trkpt lat="43.806164" lon="11.9785773"><ele>608.0</ele><time>2026-04-12T08:23:05.606Z</time></trkpt><trkpt lat="43.8060791" lon="11.978679"><ele>608.0</ele><time>2026-04-12T08:23:06.606Z</time></trkpt><trkpt lat="43.805971" lon="11.9787421"><ele>608.0</ele><time>2026-04-12T08:23:07.606Z</time></trkpt><trkpt lat="43.8058324" lon="11.9787655"><ele>619.3333333333333</ele><time>2026-04-12T08:23:08.606Z</time></trkpt><trkpt lat="43.8056686" lon="11.9787433"><ele>630.6666666666666</ele><time>2026-04-12T08:23:09.606Z</time></trkpt><trkpt lat="43.8054929" lon="11.9786983"><ele>642.0</ele><time>2026-04-12T08:23:10.605Z</time></trkpt><trkpt lat="43.8052991" lon="11.9786372"><ele>645.0</ele><time>2026-04-12T08:23:11.606Z</time></trkpt><trkpt lat="43.8051142" lon="11.9785711"><ele>648.0</ele><time>2026-04-12T08:23:12.605Z</time></trkpt><trkpt lat="43.8049529" lon="11.9784913"><ele>651.0</ele><time>2026-04-12T08:23:13.606Z</time></trkpt><trkpt lat="43.8048267" lon="11.9784207"><ele>651.0</ele><time>2026-04-12T08:23:14.606Z</time></trkpt><trkpt lat="43.8047259" lon="11.9783681"><ele>651.0</ele><time>2026-04-12T08:23:15.606Z</time></trkpt><trkpt lat="43.8046216" lon="11.9783573"><ele>651.0</ele><time>2026-04-12T08:23:16.605Z</time></trkpt><trkpt lat="43.8045042" lon="11.9784174"><ele>651.0</ele><time>2026-04-12T08:23:17.606Z</time></trkpt><trkpt lat="43.8043736" lon="11.9785391"><ele>643.6666666666666</ele><time>2026-04-12T08:23:18.606Z</time></trkpt><trkpt lat="43.8042251" lon="11.9786909"><ele>636.3333333333333</ele><time>2026-04-12T08:23:19.606Z</time></trkpt><trkpt lat="43.8040645" lon="11.978836"><ele>629.0</ele><time>2026-04-12T08:23:20.606Z</time></trkpt><trkpt lat="43.8039003" lon="11.9789634"><ele>629.0</ele><time>2026-04-12T08:23:21.606Z</time></trkpt><trkpt lat="43.8037586" lon="11.9790673"><ele>629.0</ele><time>2026-04-12T08:23:22.605Z</time></trkpt><trkpt lat="43.8036322" lon="11.9791443"><ele>629.0</ele><time>2026-04-12T08:23:23.606Z</time></trkpt><trkpt lat="43.8035116" lon="11.9791742"><ele>629.0</ele><time>2026-04-12T08:23:24.606Z</time></trkpt><trkpt lat="43.8033831" lon="11.9791386"><ele>629.75</ele><time>2026-04-12T08:23:25.605Z</time></trkpt><trkpt lat="43.8032493" lon="11.9790933"><ele>630.5</ele><time>2026-04-12T08:23:26.605Z</time></trkpt><trkpt lat="43.8031173" lon="11.9790767"><ele>631.25</ele><time>2026-04-12T08:23:27.606Z</time></trkpt><trkpt lat="43.8030031" lon="11.9790856"><ele>632.0</ele><time>2026-04-12T08:23:28.606Z</time></trkpt><trkpt lat="43.8029014" lon="11.979072"><ele>632.0</ele><time>2026-04-12T08:23:29.605Z</time></trkpt><trkpt lat="43.8028154" lon="11.9790249"><ele>632.0</ele><time>2026-04-12T08:23:30.606Z</time></trkpt><trkpt lat="43.8027367" lon="11.9789526"><ele>632.0</ele><time>2026-04-12T08:23:31.606Z</time></trkpt><trkpt lat="43.8026546" lon="11.9788926"><ele>632.0</ele><time>2026-04-12T08:23:32.606Z</time></trkpt><trkpt lat="43.8025551" lon="11.9788887"><ele>632.0</ele><time>2026-04-12T08:23:33.606Z</time></trkpt><trkpt lat="43.8024367" lon="11.9789488"><ele>631.6666666666666</ele><time>2026-04-12T08:23:34.606Z</time></trkpt><trkpt lat="43.8023023" lon="11.9790633"><ele>631.3333333333334</ele><time>2026-04-12T08:23:35.605Z</time></trkpt><trkpt lat="43.8021427" lon="11.9792016"><ele>631.0</ele><time>2026-04-12T08:23:36.605Z</time></trkpt><trkpt lat="43.8019634" lon="11.9793355"><ele>641.3333333333334</ele><time>2026-04-12T08:23:37.605Z</time></trkpt><trkpt lat="43.8017842" lon="11.9794399"><ele>651.6666666666666</ele><time>2026-04-12T08:23:38.606Z</time></trkpt><trkpt lat="43.8016175" lon="11.9795164"><ele>662.0</ele><time>2026-04-12T08:23:39.605Z</time></trkpt><trkpt lat="43.8014482" lon="11.9795494"><ele>662.0</ele><time>2026-04-12T08:23:40.605Z</time></trkpt><trkpt lat="43.801285" lon="11.9795386"><ele>662.0</ele><time>2026-04-12T08:23:41.606Z</time></trkpt><trkpt lat="43.8011206" lon="11.9795152"><ele>662.0</ele><time>2026-04-12T08:23:42.606Z</time></trkpt><trkpt lat="43.8009524" lon="11.9795132"><ele>662.3333333333333</ele><time>2026-04-12T08:23:43.605Z</time></trkpt><trkpt lat="43.8007744" lon="11.979532"><ele>662.6666666666666</ele><time>2026-04-12T08:23:44.606Z</time></trkpt><trkpt lat="43.8005809" lon="11.9795783"><ele>663.0</ele><time>2026-04-12T08:23:45.605Z</time></trkpt><trkpt lat="43.8003914" lon="11.9796383"><ele>663.0</ele><time>2026-04-12T08:23:46.606Z</time></trkpt><trkpt lat="43.8002053" lon="11.9797058"><ele>663.0</ele><time>2026-04-12T08:23:47.605Z</time></trkpt><trkpt lat="43.8000263" lon="11.9797652"><ele>663.0</ele><time>2026-04-12T08:23:48.606Z</time></trkpt><trkpt lat="43.7998623" lon="11.9798098"><ele>660.25</ele><time>2026-04-12T08:23:49.606Z</time></trkpt><trkpt lat="43.7997165" lon="11.9798219"><ele>657.5</ele><time>2026-04-12T08:23:50.605Z</time></trkpt><trkpt lat="43.7995883" lon="11.9798043"><ele>654.75</ele><time>2026-04-12T08:23:51.606Z</time></trkpt><trkpt lat="43.7994792" lon="11.9797749"><ele>652.0</ele><time>2026-04-12T08:23:52.605Z</time></trkpt><trkpt lat="43.7993752" lon="11.9797737"><ele>653.5</ele><time>2026-04-12T08:23:53.606Z</time></trkpt><trkpt lat="43.7992702" lon="11.9798268"><ele>655.0</ele><time>2026-04-12T08:23:54.605Z</time></trkpt><trkpt lat="43.7991602" lon="11.9799499"><ele>656.5</ele><time>2026-04-12T08:23:55.605Z</time></trkpt><trkpt lat="43.7990546" lon="11.9801288"><ele>658.0</ele><time>2026-04-12T08:23:56.606Z</time></trkpt><trkpt lat="43.7989429" lon="11.9803342"><ele>658.0</ele><time>2026-04-12T08:23:57.606Z</time></trkpt><trkpt lat="43.7988308" lon="11.980524"><ele>658.0</ele><time>2026-04-12T08:23:58.606Z</time></trkpt><trkpt lat="43.7987194" lon="11.9806927"><ele>658.0</ele><time>2026-04-12T08:23:59.606Z</time></trkpt><trkpt lat="43.7986094" lon="11.9808485"><ele>656.25</ele><time>2026-04-12T08:24:00.606Z</time></trkpt><trkpt lat="43.7984991" lon="11.9809911"><ele>654.5</ele><time>2026-04-12T08:24:01.606Z</time></trkpt><trkpt lat="43.7983838" lon="11.9811174"><ele>652.75</ele><time>2026-04-12T08:24:02.605Z</time></trkpt><trkpt lat="43.7982742" lon="11.9812247"><ele>651.0</ele><time>2026-04-12T08:24:03.605Z</time></trkpt><trkpt lat="43.7981755" lon="11.9813261"><ele>651.0</ele><time>2026-04-12T08:24:04.606Z</time></trkpt><trkpt lat="43.7980889" lon="11.9814374"><ele>651.0</ele><time>2026-04-12T08:24:05.606Z</time></trkpt><trkpt lat="43.798018" lon="11.9815651"><ele>651.0</ele><time>2026-04-12T08:24:06.606Z</time></trkpt><trkpt lat="43.7979702" lon="11.9816967"><ele>651.0</ele><time>2026-04-12T08:24:07.606Z</time></trkpt><trkpt lat="43.7979627" lon="11.9818263"><ele>651.0</ele><time>2026-04-12T08:24:08.605Z</time></trkpt><trkpt lat="43.7979815" lon="11.9819545"><ele>650.25</ele><time>2026-04-12T08:24:09.606Z</time></trkpt><trkpt lat="43.7980488" lon="11.9820698"><ele>649.5</ele><time>2026-04-12T08:24:10.606Z</time></trkpt><trkpt lat="43.7981319" lon="11.982182"><ele>648.75</ele><time>2026-04-12T08:24:11.605Z</time></trkpt><trkpt lat="43.7982233" lon="11.9822952"><ele>648.0</ele><time>2026-04-12T08:24:12.606Z</time></trkpt><trkpt lat="43.7982822" lon="11.9824222"><ele>648.75</ele><time>2026-04-12T08:24:13.605Z</time></trkpt><trkpt lat="43.7983065" lon="11.9825794"><ele>649.5</ele><time>2026-04-12T08:24:14.606Z</time></trkpt><trkpt lat="43.7982955" lon="11.9827759"><ele>650.25</ele><time>2026-04-12T08:24:15.606Z</time></trkpt><trkpt lat="43.7982699" lon="11.9829809"><ele>651.0</ele><time>2026-04-12T08:24:16.605Z</time></trkpt><trkpt lat="43.7982399" lon="11.9831625"><ele>651.0</ele><time>2026-04-12T08:24:17.606Z</time></trkpt><trkpt lat="43.7982164" lon="11.9833358"><ele>651.0</ele><time>2026-04-12T08:24:18.605Z</time></trkpt><trkpt lat="43.7982099" lon="11.9835051"><ele>651.0</ele><time>2026-04-12T08:24:19.606Z</time></trkpt><trkpt lat="43.7982476" lon="11.9836697"><ele>651.0</ele><time>2026-04-12T08:24:20.606Z</time></trkpt><trkpt lat="43.7983323" lon="11.9838296"><ele>649.6666666666666</ele><time>2026-04-12T08:24:21.605Z</time></trkpt><trkpt lat="43.7984442" lon="11.9839908"><ele>648.3333333333333</ele><time>2026-04-12T08:24:22.605Z</time></trkpt><trkpt lat="43.7985723" lon="11.9841538"><ele>647.0</ele><time>2026-04-12T08:24:23.606Z</time></trkpt><trkpt lat="43.7986829" lon="11.9843245"><ele>655.25</ele><time>2026-04-12T08:24:24.605Z</time></trkpt><trkpt lat="43.7987624" lon="11.9844999"><ele>663.5</ele><time>2026-04-12T08:24:25.606Z</time></trkpt><trkpt lat="43.7988355" lon="11.9846576"><ele>671.75</ele><time>2026-04-12T08:24:26.606Z</time></trkpt><trkpt lat="43.7989192" lon="11.9847853"><ele>680.0</ele><time>2026-04-12T08:24:27.606Z</time></trkpt><trkpt lat="43.7989989" lon="11.9849031"><ele>677.0</ele><time>2026-04-12T08:24:28.606Z</time></trkpt><trkpt lat="43.7990754" lon="11.9850397"><ele>674.0</ele><time>2026-04-12T08:24:29.605Z</time></trkpt><trkpt lat="43.799138" lon="11.985208"><ele>671.0</ele><time>2026-04-12T08:24:30.606Z</time></trkpt><trkpt lat="43.7991715" lon="11.9854139"><ele>668.0</ele><time>2026-04-12T08:24:31.606Z</time></trkpt><trkpt lat="43.7991783" lon="11.9856412"><ele>663.75</ele><time>2026-04-12T08:24:32.606Z</time></trkpt><trkpt lat="43.7991766" lon="11.9858581"><ele>659.5</ele><time>2026-04-12T08:24:33.605Z</time></trkpt><trkpt lat="43.799177" lon="11.9860527"><ele>655.25</ele><time>2026-04-12T08:24:34.605Z</time></trkpt><trkpt lat="43.7991948" lon="11.9862265"><ele>651.0</ele><time>2026-04-12T08:24:35.606Z</time></trkpt><trkpt lat="43.7992421" lon="11.9864001"><ele>651.0</ele><time>2026-04-12T08:24:36.606Z</time></trkpt><trkpt lat="43.7993307" lon="11.9865641"><ele>651.0</ele><time>2026-04-12T08:24:37.605Z</time></trkpt><trkpt lat="43.7994443" lon="11.986704"><ele>651.0</ele><time>2026-04-12T08:24:38.606Z</time></trkpt><trkpt lat="43.7995655" lon="11.9868315"><ele>659.3333333333334</ele><time>2026-04-12T08:24:39.606Z</time></trkpt><trkpt lat="43.7996801" lon="11.9869632"><ele>667.6666666666667</ele><time>2026-04-12T08:24:40.606Z</time></trkpt><trkpt lat="43.799779" lon="11.9871205"><ele>676.0</ele><time>2026-04-12T08:24:41.606Z</time></trkpt><trkpt lat="43.7998527" lon="11.9873076"><ele>676.0</ele><time>2026-04-12T08:24:42.606Z</time></trkpt><trkpt lat="43.7999054" lon="11.9874956"><ele>676.0</ele><time>2026-04-12T08:24:43.605Z</time></trkpt><trkpt lat="43.7999494" lon="11.9876639"><ele>676.0</ele><time>2026-04-12T08:24:44.605Z</time></trkpt><trkpt lat="43.799997" lon="11.9878064"><ele>676.0</ele><time>2026-04-12T08:24:45.606Z</time></trkpt><trkpt lat="43.8000332" lon="11.9879547"><ele>674.5</ele><time>2026-04-12T08:24:46.605Z</time></trkpt><trkpt lat="43.8000559" lon="11.9881256"><ele>673.0</ele><time>2026-04-12T08:24:47.606Z</time></trkpt><trkpt lat="43.8000577" lon="11.988342"><ele>671.5</ele><time>2026-04-12T08:24:48.605Z</time></trkpt><trkpt lat="43.8000575" lon="11.9885743"><ele>670.0</ele><time>2026-04-12T08:24:49.606Z</time></trkpt><trkpt lat="43.8000738" lon="11.9887933"><ele>669.5</ele><time>2026-04-12T08:24:50.606Z</time></trkpt><trkpt lat="43.8001061" lon="11.9890016"><ele>669.0</ele><time>2026-04-12T08:24:51.605Z</time></trkpt><trkpt lat="43.8001358" lon="11.9892002"><ele>668.5</ele><time>2026-04-12T08:24:52.606Z</time></trkpt><trkpt lat="43.8001487" lon="11.989386"><ele>668.0</ele><time>2026-04-12T08:24:53.606Z</time></trkpt><trkpt lat="43.8001367" lon="11.9895534"><ele>669.5</ele><time>2026-04-12T08:24:54.606Z</time></trkpt><trkpt lat="43.800086" lon="11.9897212"><ele>671.0</ele><time>2026-04-12T08:24:55.606Z</time></trkpt><trkpt lat="43.8000097" lon="11.9898859"><ele>672.5</ele><time>2026-04-12T08:24:56.606Z</time></trkpt><trkpt lat="43.7999303" lon="11.9900252"><ele>674.0</ele><time>2026-04-12T08:24:57.606Z</time></trkpt><trkpt lat="43.7998385" lon="11.9901376"><ele>676.6</ele><time>2026-04-12T08:24:58.606Z</time></trkpt><trkpt lat="43.7997305" lon="11.9902108"><ele>679.2</ele><time>2026-04-12T08:24:59.606Z</time></trkpt><trkpt lat="43.7996266" lon="11.990267"><ele>681.8000000000001</ele><time>2026-04-12T08:25:00.605Z</time></trkpt><trkpt lat="43.7995384" lon="11.9903371"><ele>684.4000000000001</ele><time>2026-04-12T08:25:01.606Z</time></trkpt><trkpt lat="43.7994704" lon="11.9904551"><ele>687.0</ele><time>2026-04-12T08:25:02.605Z</time></trkpt><trkpt lat="43.7994394" lon="11.9906272"><ele>687.0</ele><time>2026-04-12T08:25:03.606Z</time></trkpt><trkpt lat="43.7994466" lon="11.9908363"><ele>687.0</ele><time>2026-04-12T08:25:04.606Z</time></trkpt><trkpt lat="43.7994672" lon="11.9910347"><ele>687.0</ele><time>2026-04-12T08:25:05.605Z</time></trkpt><trkpt lat="43.7994665" lon="11.9912141"><ele>687.0</ele><time>2026-04-12T08:25:06.606Z</time></trkpt><trkpt lat="43.7994246" lon="11.9913867"><ele>686.0</ele><time>2026-04-12T08:25:07.606Z</time></trkpt><trkpt lat="43.7993408" lon="11.9915511"><ele>685.0</ele><time>2026-04-12T08:25:08.606Z</time></trkpt><trkpt lat="43.7992305" lon="11.9916972"><ele>684.0</ele><time>2026-04-12T08:25:09.606Z</time></trkpt><trkpt lat="43.7991293" lon="11.991852"><ele>683.0</ele><time>2026-04-12T08:25:10.606Z</time></trkpt><trkpt lat="43.7990373" lon="11.9920417"><ele>683.0</ele><time>2026-04-12T08:25:11.606Z</time></trkpt><trkpt lat="43.798959" lon="11.9922541"><ele>683.0</ele><time>2026-04-12T08:25:12.606Z</time></trkpt><trkpt lat="43.7988978" lon="11.992471"><ele>683.0</ele><time>2026-04-12T08:25:13.606Z</time></trkpt><trkpt lat="43.7988566" lon="11.992717"><ele>686.6666666666666</ele><time>2026-04-12T08:25:14.605Z</time></trkpt><trkpt lat="43.7988397" lon="11.9929761"><ele>690.3333333333334</ele><time>2026-04-12T08:25:15.606Z</time></trkpt><trkpt lat="43.7988318" lon="11.9932171"><ele>694.0</ele><time>2026-04-12T08:25:16.606Z</time></trkpt><trkpt lat="43.7988272" lon="11.993437"><ele>694.25</ele><time>2026-04-12T08:25:17.606Z</time></trkpt><trkpt lat="43.7988293" lon="11.9936366"><ele>694.5</ele><time>2026-04-12T08:25:18.606Z</time></trkpt><trkpt lat="43.798847" lon="11.9938348"><ele>694.75</ele><time>2026-04-12T08:25:19.605Z</time></trkpt><trkpt lat="43.7988877" lon="11.994036"><ele>695.0</ele><time>2026-04-12T08:25:20.606Z</time></trkpt><trkpt lat="43.7989382" lon="11.9942137"><ele>694.25</ele><time>2026-04-12T08:25:21.605Z</time></trkpt><trkpt lat="43.7989748" lon="11.9943671"><ele>693.5</ele><time>2026-04-12T08:25:22.605Z</time></trkpt><trkpt lat="43.7989752" lon="11.9945086"><ele>692.75</ele><time>2026-04-12T08:25:23.606Z</time></trkpt><trkpt lat="43.7989319" lon="11.9946497"><ele>692.0</ele><time>2026-04-12T08:25:24.605Z</time></trkpt><trkpt lat="43.7988567" lon="11.9948164"><ele>692.0</ele><time>2026-04-12T08:25:25.605Z</time></trkpt><trkpt lat="43.7987682" lon="11.9949851"><ele>692.0</ele><time>2026-04-12T08:25:26.606Z</time></trkpt><trkpt lat="43.7986773" lon="11.9951454"><ele>692.0</ele><time>2026-04-12T08:25:27.606Z</time></trkpt><trkpt lat="43.7985715" lon="11.9952946"><ele>692.0</ele><time>2026-04-12T08:25:28.606Z</time></trkpt><trkpt lat="43.7984451" lon="11.9954337"><ele>697.3333333333333</ele><time>2026-04-12T08:25:29.606Z</time></trkpt><trkpt lat="43.7982934" lon="11.995556"><ele>702.6666666666666</ele><time>2026-04-12T08:25:30.605Z</time></trkpt><trkpt lat="43.798125" lon="11.9956412"><ele>708.0</ele><time>2026-04-12T08:25:31.606Z</time></trkpt><trkpt lat="43.7979566" lon="11.9957022"><ele>708.0</ele><time>2026-04-12T08:25:32.606Z</time></trkpt><trkpt lat="43.7978063" lon="11.9957691"><ele>708.0</ele><time>2026-04-12T08:25:33.605Z</time></trkpt><trkpt lat="43.7976632" lon="11.9958523"><ele>708.0</ele><time>2026-04-12T08:25:34.606Z</time></trkpt><trkpt lat="43.797535" lon="11.995958"><ele>708.3333333333334</ele><time>2026-04-12T08:25:35.606Z</time></trkpt><trkpt lat="43.797426" lon="11.9960985"><ele>708.6666666666667</ele><time>2026-04-12T08:25:36.606Z</time></trkpt><trkpt lat="43.7973434" lon="11.9962718"><ele>709.0</ele><time>2026-04-12T08:25:37.605Z</time></trkpt><trkpt lat="43.7972851" lon="11.9964648"><ele>709.0</ele><time>2026-04-12T08:25:38.605Z</time></trkpt><trkpt lat="43.797244" lon="11.9966602"><ele>709.0</ele><time>2026-04-12T08:25:39.606Z</time></trkpt><trkpt lat="43.7971923" lon="11.9968304"><ele>709.0</ele><time>2026-04-12T08:25:40.606Z</time></trkpt><trkpt lat="43.7971071" lon="11.9969647"><ele>709.0</ele><time>2026-04-12T08:25:41.605Z</time></trkpt><trkpt lat="43.7969818" lon="11.9970712"><ele>711.0</ele><time>2026-04-12T08:25:42.606Z</time></trkpt><trkpt lat="43.7968296" lon="11.9971554"><ele>713.0</ele><time>2026-04-12T08:25:43.605Z</time></trkpt><trkpt lat="43.7966694" lon="11.9972158"><ele>715.0</ele><time>2026-04-12T08:25:44.605Z</time></trkpt><trkpt lat="43.7965133" lon="11.9973095"><ele>715.0</ele><time>2026-04-12T08:25:45.606Z</time></trkpt><trkpt lat="43.7963559" lon="11.9974521"><ele>715.0</ele><time>2026-04-12T08:25:46.605Z</time></trkpt><trkpt lat="43.796207" lon="11.9976221"><ele>715.0</ele><time>2026-04-12T08:25:47.606Z</time></trkpt><trkpt lat="43.796078" lon="11.9977871"><ele>713.75</ele><time>2026-04-12T08:25:48.606Z</time></trkpt><trkpt lat="43.7959681" lon="11.9979263"><ele>712.5</ele><time>2026-04-12T08:25:49.606Z</time></trkpt><trkpt lat="43.7958803" lon="11.9980567"><ele>711.25</ele><time>2026-04-12T08:25:50.606Z</time></trkpt><trkpt lat="43.7958123" lon="11.9981794"><ele>710.0</ele><time>2026-04-12T08:25:51.606Z</time></trkpt><trkpt lat="43.7957792" lon="11.9983135"><ele>709.0</ele><time>2026-04-12T08:25:52.606Z</time></trkpt><trkpt lat="43.7957958" lon="11.9984557"><ele>708.0</ele><time>2026-04-12T08:25:53.606Z</time></trkpt><trkpt lat="43.7958614" lon="11.9985908"><ele>707.0</ele><time>2026-04-12T08:25:54.606Z</time></trkpt><trkpt lat="43.7959656" lon="11.9987086"><ele>706.0</ele><time>2026-04-12T08:25:55.606Z</time></trkpt><trkpt lat="43.7960849" lon="11.9988107"><ele>704.75</ele><time>2026-04-12T08:25:56.605Z</time></trkpt><trkpt lat="43.7962026" lon="11.9989037"><ele>703.5</ele><time>2026-04-12T08:25:57.606Z</time></trkpt><trkpt lat="43.7963083" lon="11.9990006"><ele>702.25</ele><time>2026-04-12T08:25:58.605Z</time></trkpt><trkpt lat="43.796399" lon="11.9990923"><ele>701.0</ele><time>2026-04-12T08:25:59.605Z</time></trkpt><trkpt lat="43.7964846" lon="11.9991816"><ele>701.0</ele><time>2026-04-12T08:26:00.606Z</time></trkpt><trkpt lat="43.7965727" lon="11.9992597"><ele>701.0</ele><time>2026-04-12T08:26:01.605Z</time></trkpt><trkpt lat="43.7966668" lon="11.9993252"><ele>701.0</ele><time>2026-04-12T08:26:02.606Z</time></trkpt><trkpt lat="43.7967654" lon="11.9993625"><ele>701.0</ele><time>2026-04-12T08:26:03.605Z</time></trkpt><trkpt lat="43.7968734" lon="11.9993577"><ele>701.0</ele><time>2026-04-12T08:26:04.605Z</time></trkpt><trkpt lat="43.7969726" lon="11.9993225"><ele>703.4</ele><time>2026-04-12T08:26:05.606Z</time></trkpt><trkpt lat="43.7970656" lon="11.9992645"><ele>705.8</ele><time>2026-04-12T08:26:06.606Z</time></trkpt><trkpt lat="43.7971531" lon="11.9992049"><ele>708.1999999999999</ele><time>2026-04-12T08:26:07.606Z</time></trkpt><trkpt lat="43.7972469" lon="11.9991473"><ele>710.5999999999999</ele><time>2026-04-12T08:26:08.606Z</time></trkpt><trkpt lat="43.79735" lon="11.9991067"><ele>713.0</ele><time>2026-04-12T08:26:09.606Z</time></trkpt><trkpt lat="43.7974626" lon="11.9990789"><ele>715.4</ele><time>2026-04-12T08:26:10.606Z</time></trkpt><trkpt lat="43.7975748" lon="11.9990593"><ele>717.8</ele><time>2026-04-12T08:26:11.606Z</time></trkpt><trkpt lat="43.7976848" lon="11.9990516"><ele>720.2</ele><time>2026-04-12T08:26:12.606Z</time></trkpt><trkpt lat="43.7977956" lon="11.9990597"><ele>722.6</ele><time>2026-04-12T08:26:13.606Z</time></trkpt><trkpt lat="43.7979016" lon="11.9990848"><ele>725.0</ele><time>2026-04-12T08:26:14.606Z</time></trkpt><trkpt lat="43.79801" lon="11.9991234"><ele>726.5</ele><time>2026-04-12T08:26:15.606Z</time></trkpt><trkpt lat="43.7981299" lon="11.9991527"><ele>728.0</ele><time>2026-04-12T08:26:16.606Z</time></trkpt><trkpt lat="43.7982583" lon="11.9991518"><ele>729.5</ele><time>2026-04-12T08:26:17.605Z</time></trkpt><trkpt lat="43.7983863" lon="11.9991104"><ele>731.0</ele><time>2026-04-12T08:26:18.605Z</time></trkpt><trkpt lat="43.7985079" lon="11.9990289"><ele>732.25</ele><time>2026-04-12T08:26:19.606Z</time></trkpt><trkpt lat="43.7986239" lon="11.9989419"><ele>733.5</ele><time>2026-04-12T08:26:20.606Z</time></trkpt><trkpt lat="43.7987397" lon="11.9988657"><ele>734.75</ele><time>2026-04-12T08:26:21.606Z</time></trkpt><trkpt lat="43.7988669" lon="11.9988243"><ele>736.0</ele><time>2026-04-12T08:26:22.606Z</time></trkpt><trkpt lat="43.7989923" lon="11.9988222"><ele>736.0</ele><time>2026-04-12T08:26:23.606Z</time></trkpt><trkpt lat="43.7991078" lon="11.9988481"><ele>736.0</ele><time>2026-04-12T08:26:24.605Z</time></trkpt><trkpt lat="43.7992244" lon="11.9988912"><ele>736.0</ele><time>2026-04-12T08:26:25.605Z</time></trkpt><trkpt lat="43.7993425" lon="11.9989559"><ele>736.0</ele><time>2026-04-12T08:26:26.606Z</time></trkpt><trkpt lat="43.7994585" lon="11.9990545"><ele>735.5</ele><time>2026-04-12T08:26:27.605Z</time></trkpt><trkpt lat="43.7995748" lon="11.9991828"><ele>735.0</ele><time>2026-04-12T08:26:28.605Z</time></trkpt><trkpt lat="43.7996841" lon="11.9993129"><ele>734.5</ele><time>2026-04-12T08:26:29.606Z</time></trkpt><trkpt lat="43.7997908" lon="11.9994243"><ele>734.0</ele><time>2026-04-12T08:26:30.606Z</time></trkpt><trkpt lat="43.7999058" lon="11.9995115"><ele>734.0</ele><time>2026-04-12T08:26:31.606Z</time></trkpt><trkpt lat="43.8000371" lon="11.9995715"><ele>734.0</ele><time>2026-04-12T08:26:32.605Z</time></trkpt><trkpt lat="43.8001904" lon="11.999586"><ele>734.0</ele><time>2026-04-12T08:26:33.606Z</time></trkpt><trkpt lat="43.8003422" lon="11.9995854"><ele>734.0</ele><time>2026-04-12T08:26:34.606Z</time></trkpt><trkpt lat="43.8004959" lon="11.9996097"><ele>738.0</ele><time>2026-04-12T08:26:35.606Z</time></trkpt><trkpt lat="43.8006341" lon="11.9996838"><ele>742.0</ele><time>2026-04-12T08:26:36.605Z</time></trkpt><trkpt lat="43.8007579" lon="11.9998157"><ele>746.0</ele><time>2026-04-12T08:26:37.606Z</time></trkpt><trkpt lat="43.8008594" lon="11.9999543"><ele>750.0</ele><time>2026-04-12T08:26:38.606Z</time></trkpt><trkpt lat="43.8009486" lon="12.0000869"><ele>758.5</ele><time>2026-04-12T08:26:39.606Z</time></trkpt><trkpt lat="43.8010317" lon="12.000213"><ele>767.0</ele><time>2026-04-12T08:26:40.606Z</time></trkpt><trkpt lat="43.8010838" lon="12.0003586"><ele>775.5</ele><time>2026-04-12T08:26:41.605Z</time></trkpt><trkpt lat="43.8011045" lon="12.0005253"><ele>784.0</ele><time>2026-04-12T08:26:42.605Z</time></trkpt><trkpt lat="43.801087" lon="12.0007051"><ele>780.75</ele><time>2026-04-12T08:26:43.606Z</time></trkpt><trkpt lat="43.801038" lon="12.0008734"><ele>777.5</ele><time>2026-04-12T08:26:44.606Z</time></trkpt><trkpt lat="43.8009632" lon="12.0010188"><ele>774.25</ele><time>2026-04-12T08:26:45.606Z</time></trkpt><trkpt lat="43.8008766" lon="12.0011449"><ele>771.0</ele><time>2026-04-12T08:26:46.606Z</time></trkpt><trkpt lat="43.8007725" lon="12.001245"><ele>765.5</ele><time>2026-04-12T08:26:47.606Z</time></trkpt><trkpt lat="43.8006574" lon="12.0013305"><ele>760.0</ele><time>2026-04-12T08:26:48.606Z</time></trkpt><trkpt lat="43.8005461" lon="12.0013809"><ele>754.5</ele><time>2026-04-12T08:26:49.605Z</time></trkpt><trkpt lat="43.8004327" lon="12.0013791"><ele>749.0</ele><time>2026-04-12T08:26:50.606Z</time></trkpt><trkpt lat="43.8003143" lon="12.0013305"><ele>749.0</ele><time>2026-04-12T08:26:51.606Z</time></trkpt><trkpt lat="43.8001924" lon="12.0012486"><ele>749.0</ele><time>2026-04-12T08:26:52.606Z</time></trkpt><trkpt lat="43.8000794" lon="12.0011464"><ele>749.0</ele><time>2026-04-12T08:26:53.606Z</time></trkpt><trkpt lat="43.7999678" lon="12.0010422"><ele>749.0</ele><time>2026-04-12T08:26:54.606Z</time></trkpt><trkpt lat="43.7998406" lon="12.0009722"><ele>749.25</ele><time>2026-04-12T08:26:55.605Z</time></trkpt><trkpt lat="43.7997072" lon="12.0009441"><ele>749.5</ele><time>2026-04-12T08:26:56.605Z</time></trkpt><trkpt lat="43.7995677" lon="12.0009616"><ele>749.75</ele><time>2026-04-12T08:26:57.606Z</time></trkpt><trkpt lat="43.7994186" lon="12.0010143"><ele>750.0</ele><time>2026-04-12T08:26:58.605Z</time></trkpt><trkpt lat="43.7992571" lon="12.0011003"><ele>750.0</ele><time>2026-04-12T08:26:59.606Z</time></trkpt><trkpt lat="43.7990877" lon="12.0012138"><ele>750.0</ele><time>2026-04-12T08:27:00.606Z</time></trkpt><trkpt lat="43.7989271" lon="12.0013231"><ele>750.0</ele><time>2026-04-12T08:27:01.606Z</time></trkpt><trkpt lat="43.7987714" lon="12.0014351"><ele>750.0</ele><time>2026-04-12T08:27:02.606Z</time></trkpt><trkpt lat="43.798613" lon="12.0015487"><ele>750.0</ele><time>2026-04-12T08:27:03.605Z</time></trkpt><trkpt lat="43.7984491" lon="12.0016601"><ele>750.0</ele><time>2026-04-12T08:27:04.606Z</time></trkpt><trkpt lat="43.7982867" lon="12.0017787"><ele>754.6666666666666</ele><time>2026-04-12T08:27:05.605Z</time></trkpt><trkpt lat="43.7981269" lon="12.0018969"><ele>759.3333333333333</ele><time>2026-04-12T08:27:06.605Z</time></trkpt><trkpt lat="43.7979798" lon="12.0020145"><ele>764.0</ele><time>2026-04-12T08:27:07.606Z</time></trkpt><trkpt lat="43.7978413" lon="12.002125"><ele>764.0</ele><time>2026-04-12T08:27:08.605Z</time></trkpt><trkpt lat="43.7977063" lon="12.0022374"><ele>764.0</ele><time>2026-04-12T08:27:09.606Z</time></trkpt><trkpt lat="43.7975639" lon="12.0023515"><ele>764.0</ele><time>2026-04-12T08:27:10.605Z</time></trkpt><trkpt lat="43.7974207" lon="12.0024674"><ele>769.0</ele><time>2026-04-12T08:27:11.606Z</time></trkpt><trkpt lat="43.7972758" lon="12.0025858"><ele>774.0</ele><time>2026-04-12T08:27:12.606Z</time></trkpt><trkpt lat="43.7971257" lon="12.0027048"><ele>779.0</ele><time>2026-04-12T08:27:13.606Z</time></trkpt><trkpt lat="43.796973" lon="12.002827"><ele>772.6666666666667</ele><time>2026-04-12T08:27:14.605Z</time></trkpt><trkpt lat="43.7968259" lon="12.0029399"><ele>766.3333333333334</ele><time>2026-04-12T08:27:15.605Z</time></trkpt><trkpt lat="43.7966871" lon="12.0030447"><ele>760.0</ele><time>2026-04-12T08:27:16.606Z</time></trkpt><trkpt lat="43.7965546" lon="12.0031512"><ele>760.0</ele><time>2026-04-12T08:27:17.605Z</time></trkpt><trkpt lat="43.7964286" lon="12.0032739"><ele>760.0</ele><time>2026-04-12T08:27:18.606Z</time></trkpt><trkpt lat="43.7963182" lon="12.0034369"><ele>760.0</ele><time>2026-04-12T08:27:19.605Z</time></trkpt><trkpt lat="43.7962304" lon="12.0036225"><ele>768.5</ele><time>2026-04-12T08:27:20.606Z</time></trkpt><trkpt lat="43.7961621" lon="12.0038024"><ele>777.0</ele><time>2026-04-12T08:27:21.606Z</time></trkpt><trkpt lat="43.7961054" lon="12.0039661"><ele>785.5</ele><time>2026-04-12T08:27:22.606Z</time></trkpt><trkpt lat="43.7960279" lon="12.0040963"><ele>794.0</ele><time>2026-04-12T08:27:23.605Z</time></trkpt><trkpt lat="43.795924" lon="12.0042018"><ele>794.0</ele><time>2026-04-12T08:27:24.605Z</time></trkpt><trkpt lat="43.7957971" lon="12.0042734"><ele>794.0</ele><time>2026-04-12T08:27:25.606Z</time></trkpt><trkpt lat="43.7956681" lon="12.0043525"><ele>794.0</ele><time>2026-04-12T08:27:26.606Z</time></trkpt><trkpt lat="43.7955409" lon="12.0044153"><ele>794.0</ele><time>2026-04-12T08:27:27.605Z</time></trkpt><trkpt lat="43.7954108" lon="12.0044724"><ele>794.0</ele><time>2026-04-12T08:27:28.606Z</time></trkpt><trkpt lat="43.7952763" lon="12.0045229"><ele>794.0</ele><time>2026-04-12T08:27:29.605Z</time></trkpt><trkpt lat="43.7951434" lon="12.0045721"><ele>794.0</ele><time>2026-04-12T08:27:30.606Z</time></trkpt><trkpt lat="43.795013" lon="12.0046105"><ele>794.0</ele><time>2026-04-12T08:27:31.606Z</time></trkpt><trkpt lat="43.794871" lon="12.0046404"><ele>793.25</ele><time>2026-04-12T08:27:32.605Z</time></trkpt><trkpt lat="43.7947316" lon="12.0046521"><ele>792.5</ele><time>2026-04-12T08:27:33.605Z</time></trkpt><trkpt lat="43.7946007" lon="12.0046402"><ele>791.75</ele><time>2026-04-12T08:27:34.606Z</time></trkpt><trkpt lat="43.7944673" lon="12.0045988"><ele>791.0</ele><time>2026-04-12T08:27:35.606Z</time></trkpt><trkpt lat="43.7943392" lon="12.004544"><ele>792.75</ele><time>2026-04-12T08:27:36.606Z</time></trkpt><trkpt lat="43.7942099" lon="12.0044905"><ele>794.5</ele><time>2026-04-12T08:27:37.606Z</time></trkpt><trkpt lat="43.7940789" lon="12.0044458"><ele>796.25</ele><time>2026-04-12T08:27:38.606Z</time></trkpt><trkpt lat="43.7939542" lon="12.0044108"><ele>798.0</ele><time>2026-04-12T08:27:39.607Z</time></trkpt><trkpt lat="43.7938393" lon="12.0043846"><ele>798.0</ele><time>2026-04-12T08:27:40.607Z</time></trkpt><trkpt lat="43.7937238" lon="12.0043667"><ele>798.0</ele><time>2026-04-12T08:27:41.607Z</time></trkpt><trkpt lat="43.7936122" lon="12.0043474"><ele>798.0</ele><time>2026-04-12T08:27:42.607Z</time></trkpt><trkpt lat="43.7935078" lon="12.0043142"><ele>798.0</ele><time>2026-04-12T08:27:43.607Z</time></trkpt><trkpt lat="43.793422" lon="12.0042661"><ele>798.0</ele><time>2026-04-12T08:27:44.606Z</time></trkpt><trkpt lat="43.793356" lon="12.0042011"><ele>796.3333333333334</ele><time>2026-04-12T08:27:45.607Z</time></trkpt><trkpt lat="43.793301" lon="12.0041321"><ele>794.6666666666667</ele><time>2026-04-12T08:27:46.607Z</time></trkpt><trkpt lat="43.793242" lon="12.004067"><ele>793.0</ele><time>2026-04-12T08:27:47.607Z</time></trkpt><trkpt lat="43.7931773" lon="12.0040137"><ele>791.3333333333334</ele><time>2026-04-12T08:27:48.607Z</time></trkpt><trkpt lat="43.7931018" lon="12.0039838"><ele>789.6666666666667</ele><time>2026-04-12T08:27:49.606Z</time></trkpt><trkpt lat="43.7930255" lon="12.003983"><ele>788.0</ele><time>2026-04-12T08:27:50.606Z</time></trkpt><trkpt lat="43.792956" lon="12.0040082"><ele>788.0000000000001</ele><time>2026-04-12T08:27:51.607Z</time></trkpt><trkpt lat="43.7929022" lon="12.004055"><ele>788.0</ele><time>2026-04-12T08:27:52.607Z</time></trkpt><trkpt lat="43.7928707" lon="12.0041335"><ele>788.0</ele><time>2026-04-12T08:27:53.606Z</time></trkpt><trkpt lat="43.7928477" lon="12.0042469"><ele>788.0</ele><time>2026-04-12T08:27:54.607Z</time></trkpt><trkpt lat="43.7928482" lon="12.0043918"><ele>788.0000000000001</ele><time>2026-04-12T08:27:55.606Z</time></trkpt><trkpt lat="43.7928845" lon="12.0045568"><ele>788.0</ele><time>2026-04-12T08:27:56.607Z</time></trkpt><trkpt lat="43.7929712" lon="12.004746"><ele>792.6666666666667</ele><time>2026-04-12T08:27:57.606Z</time></trkpt><trkpt lat="43.793091" lon="12.0049343"><ele>797.3333333333333</ele><time>2026-04-12T08:27:58.607Z</time></trkpt><trkpt lat="43.793202" lon="12.0051053"><ele>802.0</ele><time>2026-04-12T08:27:59.607Z</time></trkpt><trkpt lat="43.7932918" lon="12.0052539"><ele>802.8</ele><time>2026-04-12T08:28:00.607Z</time></trkpt><trkpt lat="43.7933627" lon="12.0053882"><ele>803.6</ele><time>2026-04-12T08:28:01.606Z</time></trkpt><trkpt lat="43.7933948" lon="12.0055106"><ele>804.4</ele><time>2026-04-12T08:28:02.606Z</time></trkpt><trkpt lat="43.7933873" lon="12.0056351"><ele>805.1999999999999</ele><time>2026-04-12T08:28:03.607Z</time></trkpt><trkpt lat="43.7933389" lon="12.0057453"><ele>806.0</ele><time>2026-04-12T08:28:04.607Z</time></trkpt><trkpt lat="43.7932568" lon="12.005826"><ele>806.0</ele><time>2026-04-12T08:28:05.606Z</time></trkpt><trkpt lat="43.7931494" lon="12.0058621"><ele>806.0</ele><time>2026-04-12T08:28:06.607Z</time></trkpt><trkpt lat="43.7930077" lon="12.0058639"><ele>806.0</ele><time>2026-04-12T08:28:07.607Z</time></trkpt><trkpt lat="43.7928424" lon="12.0058464"><ele>806.0</ele><time>2026-04-12T08:28:08.607Z</time></trkpt><trkpt lat="43.7926833" lon="12.0058283"><ele>801.5</ele><time>2026-04-12T08:28:09.607Z</time></trkpt><trkpt lat="43.7925407" lon="12.005804"><ele>797.0</ele><time>2026-04-12T08:28:10.607Z</time></trkpt><trkpt lat="43.7924142" lon="12.0057477"><ele>792.5</ele><time>2026-04-12T08:28:11.607Z</time></trkpt><trkpt lat="43.792307" lon="12.0056539"><ele>788.0</ele><time>2026-04-12T08:28:12.607Z</time></trkpt><trkpt lat="43.7922108" lon="12.0055669"><ele>788.0</ele><time>2026-04-12T08:28:13.607Z</time></trkpt><trkpt lat="43.7921111" lon="12.0055166"><ele>788.0</ele><time>2026-04-12T08:28:14.606Z</time></trkpt><trkpt lat="43.7920197" lon="12.0055131"><ele>788.0</ele><time>2026-04-12T08:28:15.607Z</time></trkpt><trkpt lat="43.7919256" lon="12.0055671"><ele>788.0</ele><time>2026-04-12T08:28:16.607Z</time></trkpt><trkpt lat="43.791854" lon="12.005673"><ele>788.0</ele><time>2026-04-12T08:28:17.607Z</time></trkpt><trkpt lat="43.7918147" lon="12.0058198"><ele>787.75</ele><time>2026-04-12T08:28:18.607Z</time></trkpt><trkpt lat="43.7918212" lon="12.0059907"><ele>787.5</ele><time>2026-04-12T08:28:19.607Z</time></trkpt><trkpt lat="43.7918716" lon="12.0061687"><ele>787.25</ele><time>2026-04-12T08:28:20.607Z</time></trkpt><trkpt lat="43.7919262" lon="12.0063359"><ele>787.0</ele><time>2026-04-12T08:28:21.607Z</time></trkpt><trkpt lat="43.7919595" lon="12.0064967"><ele>787.75</ele><time>2026-04-12T08:28:22.607Z</time></trkpt><trkpt lat="43.7919546" lon="12.0066553"><ele>788.5</ele><time>2026-04-12T08:28:23.606Z</time></trkpt><trkpt lat="43.7919128" lon="12.0068193"><ele>789.25</ele><time>2026-04-12T08:28:24.607Z</time></trkpt><trkpt lat="43.7918417" lon="12.006987"><ele>790.0</ele><time>2026-04-12T08:28:25.607Z</time></trkpt><trkpt lat="43.7917537" lon="12.0071588"><ele>790.0</ele><time>2026-04-12T08:28:26.606Z</time></trkpt><trkpt lat="43.7916594" lon="12.0073382"><ele>790.0</ele><time>2026-04-12T08:28:27.607Z</time></trkpt><trkpt lat="43.7915669" lon="12.0074933"><ele>790.0</ele><time>2026-04-12T08:28:28.606Z</time></trkpt><trkpt lat="43.791473" lon="12.0076118"><ele>790.0</ele><time>2026-04-12T08:28:29.607Z</time></trkpt><trkpt lat="43.7913577" lon="12.0076898"><ele>792.0</ele><time>2026-04-12T08:28:30.606Z</time></trkpt><trkpt lat="43.7912124" lon="12.0077454"><ele>794.0</ele><time>2026-04-12T08:28:31.607Z</time></trkpt><trkpt lat="43.7910409" lon="12.0078007"><ele>796.0</ele><time>2026-04-12T08:28:32.607Z</time></trkpt><trkpt lat="43.7908574" lon="12.0078437"><ele>792.5</ele><time>2026-04-12T08:28:33.606Z</time></trkpt><trkpt lat="43.7906933" lon="12.0078903"><ele>789.0</ele><time>2026-04-12T08:28:34.607Z</time></trkpt><trkpt lat="43.7905545" lon="12.007928"><ele>785.5</ele><time>2026-04-12T08:28:35.606Z</time></trkpt><trkpt lat="43.790439" lon="12.0079597"><ele>782.0</ele><time>2026-04-12T08:28:36.606Z</time></trkpt><trkpt lat="43.7903524" lon="12.0080227"><ele>782.0</ele><time>2026-04-12T08:28:37.607Z</time></trkpt><trkpt lat="43.7902878" lon="12.0081397"><ele>782.0</ele><time>2026-04-12T08:28:38.606Z</time></trkpt><trkpt lat="43.7902433" lon="12.0083188"><ele>782.0</ele><time>2026-04-12T08:28:39.607Z</time></trkpt><trkpt lat="43.790211" lon="12.0085442"><ele>782.0</ele><time>2026-04-12T08:28:40.607Z</time></trkpt><trkpt lat="43.7901864" lon="12.0087707"><ele>778.6666666666667</ele><time>2026-04-12T08:28:41.607Z</time></trkpt><trkpt lat="43.7901562" lon="12.0089948"><ele>775.3333333333333</ele><time>2026-04-12T08:28:42.607Z</time></trkpt><trkpt lat="43.7901306" lon="12.0092341"><ele>772.0</ele><time>2026-04-12T08:28:43.606Z</time></trkpt><trkpt lat="43.7901318" lon="12.009484"><ele>772.0</ele><time>2026-04-12T08:28:44.607Z</time></trkpt><trkpt lat="43.7901383" lon="12.009715"><ele>772.0</ele><time>2026-04-12T08:28:45.606Z</time></trkpt><trkpt lat="43.7901472" lon="12.0099473"><ele>772.0</ele><time>2026-04-12T08:28:46.607Z</time></trkpt><trkpt lat="43.7901529" lon="12.0101647"><ele>779.5</ele><time>2026-04-12T08:28:47.606Z</time></trkpt><trkpt lat="43.7901788" lon="12.0103665"><ele>787.0</ele><time>2026-04-12T08:28:48.606Z</time></trkpt><trkpt lat="43.7902355" lon="12.0105489"><ele>794.5</ele><time>2026-04-12T08:28:49.606Z</time></trkpt><trkpt lat="43.79032" lon="12.0107107"><ele>802.0</ele><time>2026-04-12T08:28:50.607Z</time></trkpt><trkpt lat="43.7904271" lon="12.0108396"><ele>802.0</ele><time>2026-04-12T08:28:51.607Z</time></trkpt><trkpt lat="43.7905281" lon="12.0109591"><ele>802.0</ele><time>2026-04-12T08:28:52.606Z</time></trkpt><trkpt lat="43.7906049" lon="12.0110876"><ele>802.0</ele><time>2026-04-12T08:28:53.606Z</time></trkpt><trkpt lat="43.7906455" lon="12.0112338"><ele>802.0</ele><time>2026-04-12T08:28:54.607Z</time></trkpt><trkpt lat="43.7906527" lon="12.011384"><ele>802.0</ele><time>2026-04-12T08:28:55.607Z</time></trkpt><trkpt lat="43.7906278" lon="12.0115331"><ele>802.0</ele><time>2026-04-12T08:28:56.607Z</time></trkpt><trkpt lat="43.7905713" lon="12.0116696"><ele>802.0</ele><time>2026-04-12T08:28:57.606Z</time></trkpt><trkpt lat="43.7905044" lon="12.0118005"><ele>802.0</ele><time>2026-04-12T08:28:58.607Z</time></trkpt><trkpt lat="43.790443" lon="12.0119403"><ele>800.75</ele><time>2026-04-12T08:28:59.607Z</time></trkpt><trkpt lat="43.7904085" lon="12.0121022"><ele>799.5</ele><time>2026-04-12T08:29:00.607Z</time></trkpt><trkpt lat="43.7904142" lon="12.0122846"><ele>798.25</ele><time>2026-04-12T08:29:01.607Z</time></trkpt><trkpt lat="43.7904585" lon="12.0124966"><ele>797.0</ele><time>2026-04-12T08:29:02.607Z</time></trkpt><trkpt lat="43.7905308" lon="12.0127362"><ele>795.3333333333334</ele><time>2026-04-12T08:29:03.607Z</time></trkpt><trkpt lat="43.7906056" lon="12.0129783"><ele>793.6666666666667</ele><time>2026-04-12T08:29:04.606Z</time></trkpt><trkpt lat="43.7906717" lon="12.0132311"><ele>792.0</ele><time>2026-04-12T08:29:05.607Z</time></trkpt><trkpt lat="43.7907338" lon="12.0134669"><ele>789.5</ele><time>2026-04-12T08:29:06.607Z</time></trkpt><trkpt lat="43.790789" lon="12.0136706"><ele>787.0</ele><time>2026-04-12T08:29:07.606Z</time></trkpt><trkpt lat="43.7908379" lon="12.0138498"><ele>784.5</ele><time>2026-04-12T08:29:08.607Z</time></trkpt><trkpt lat="43.7908726" lon="12.0140215"><ele>782.0</ele><time>2026-04-12T08:29:09.606Z</time></trkpt><trkpt lat="43.7908697" lon="12.0141954"><ele>780.5</ele><time>2026-04-12T08:29:10.606Z</time></trkpt><trkpt lat="43.7908256" lon="12.0143494"><ele>779.0</ele><time>2026-04-12T08:29:11.607Z</time></trkpt><trkpt lat="43.790754" lon="12.0144869"><ele>777.5</ele><time>2026-04-12T08:29:12.607Z</time></trkpt><trkpt lat="43.7906588" lon="12.0146042"><ele>776.0</ele><time>2026-04-12T08:29:13.606Z</time></trkpt><trkpt lat="43.7905335" lon="12.0146938"><ele>776.0</ele><time>2026-04-12T08:29:14.607Z</time></trkpt><trkpt lat="43.7903873" lon="12.0147441"><ele>776.0</ele><time>2026-04-12T08:29:15.606Z</time></trkpt><trkpt lat="43.7902115" lon="12.0147431"><ele>776.0</ele><time>2026-04-12T08:29:16.607Z</time></trkpt><trkpt lat="43.7900211" lon="12.0146977"><ele>770.3333333333334</ele><time>2026-04-12T08:29:17.606Z</time></trkpt><trkpt lat="43.7898328" lon="12.0146312"><ele>764.6666666666667</ele><time>2026-04-12T08:29:18.606Z</time></trkpt><trkpt lat="43.7896537" lon="12.0145757"><ele>759.0</ele><time>2026-04-12T08:29:19.607Z</time></trkpt><trkpt lat="43.7894912" lon="12.0145137"><ele>758.6666666666666</ele><time>2026-04-12T08:29:20.607Z</time></trkpt><trkpt lat="43.7893408" lon="12.0144312"><ele>758.3333333333333</ele><time>2026-04-12T08:29:21.607Z</time></trkpt><trkpt lat="43.7892012" lon="12.014311"><ele>758.0</ele><time>2026-04-12T08:29:22.607Z</time></trkpt><trkpt lat="43.7890767" lon="12.0141784"><ele>756.75</ele><time>2026-04-12T08:29:23.607Z</time></trkpt><trkpt lat="43.7889717" lon="12.0140483"><ele>755.5</ele><time>2026-04-12T08:29:24.607Z</time></trkpt><trkpt lat="43.7888683" lon="12.01397"><ele>754.25</ele><time>2026-04-12T08:29:25.607Z</time></trkpt><trkpt lat="43.7887583" lon="12.01396"><ele>753.0</ele><time>2026-04-12T08:29:26.607Z</time></trkpt><trkpt lat="43.7886567" lon="12.014"><ele>753.0</ele><time>2026-04-12T08:29:27.607Z</time></trkpt><trkpt lat="43.7885633" lon="12.0140967"><ele>753.0</ele><time>2026-04-12T08:29:28.606Z</time></trkpt><trkpt lat="43.7884867" lon="12.01425"><ele>753.0</ele><time>2026-04-12T08:29:29.607Z</time></trkpt><trkpt lat="43.7884067" lon="12.0144267"><ele>753.0</ele><time>2026-04-12T08:29:30.607Z</time></trkpt><trkpt lat="43.7883217" lon="12.0145833"><ele>755.0</ele><time>2026-04-12T08:29:31.606Z</time></trkpt><trkpt lat="43.7882167" lon="12.01472"><ele>757.0</ele><time>2026-04-12T08:29:32.606Z</time></trkpt><trkpt lat="43.788085" lon="12.0148033"><ele>759.0</ele><time>2026-04-12T08:29:33.607Z</time></trkpt><trkpt lat="43.787935" lon="12.0148467"><ele>761.0</ele><time>2026-04-12T08:29:34.606Z</time></trkpt><trkpt lat="43.7877933" lon="12.0148667"><ele>761.25</ele><time>2026-04-12T08:29:35.606Z</time></trkpt><trkpt lat="43.7876583" lon="12.014875"><ele>761.5</ele><time>2026-04-12T08:29:36.607Z</time></trkpt><trkpt lat="43.787535" lon="12.0149233"><ele>761.75</ele><time>2026-04-12T08:29:37.606Z</time></trkpt><trkpt lat="43.7874333" lon="12.0150217"><ele>762.0</ele><time>2026-04-12T08:29:38.607Z</time></trkpt><trkpt lat="43.7873717" lon="12.0151517"><ele>764.0</ele><time>2026-04-12T08:29:39.607Z</time></trkpt><trkpt lat="43.78734" lon="12.015305"><ele>766.0</ele><time>2026-04-12T08:29:40.607Z</time></trkpt><trkpt lat="43.7873383" lon="12.01546"><ele>768.0</ele><time>2026-04-12T08:29:41.607Z</time></trkpt><trkpt lat="43.7873767" lon="12.0156083"><ele>770.0</ele><time>2026-04-12T08:29:42.607Z</time></trkpt><trkpt lat="43.78745" lon="12.0157267"><ele>770.0</ele><time>2026-04-12T08:29:43.607Z</time></trkpt><trkpt lat="43.787545" lon="12.0158067"><ele>770.0</ele><time>2026-04-12T08:29:44.606Z</time></trkpt><trkpt lat="43.7876733" lon="12.0158417"><ele>770.0</ele><time>2026-04-12T08:29:45.607Z</time></trkpt><trkpt lat="43.7878117" lon="12.0158117"><ele>770.0</ele><time>2026-04-12T08:29:46.607Z</time></trkpt><trkpt lat="43.78794" lon="12.01575"><ele>770.4</ele><time>2026-04-12T08:29:47.607Z</time></trkpt><trkpt lat="43.7880483" lon="12.0157017"><ele>770.8</ele><time>2026-04-12T08:29:48.607Z</time></trkpt><trkpt lat="43.7881467" lon="12.0157033"><ele>771.2</ele><time>2026-04-12T08:29:49.607Z</time></trkpt><trkpt lat="43.7882333" lon="12.0157467"><ele>771.6</ele><time>2026-04-12T08:29:50.606Z</time></trkpt><trkpt lat="43.7882967" lon="12.0158367"><ele>772.0</ele><time>2026-04-12T08:29:51.606Z</time></trkpt><trkpt lat="43.788335" lon="12.0159583"><ele>773.6</ele><time>2026-04-12T08:29:52.607Z</time></trkpt><trkpt lat="43.7883283" lon="12.016085"><ele>775.2</ele><time>2026-04-12T08:29:53.607Z</time></trkpt><trkpt lat="43.7882767" lon="12.016205"><ele>776.8</ele><time>2026-04-12T08:29:54.607Z</time></trkpt><trkpt lat="43.7881783" lon="12.016285"><ele>778.4</ele><time>2026-04-12T08:29:55.607Z</time></trkpt><trkpt lat="43.7880567" lon="12.0163267"><ele>780.0</ele><time>2026-04-12T08:29:56.606Z</time></trkpt><trkpt lat="43.78792" lon="12.0163283"><ele>780.0</ele><time>2026-04-12T08:29:57.607Z</time></trkpt><trkpt lat="43.7878" lon="12.0163433"><ele>780.0</ele><time>2026-04-12T08:29:58.607Z</time></trkpt><trkpt lat="43.7876977" lon="12.0163941"><ele>780.0</ele><time>2026-04-12T08:29:59.606Z</time></trkpt><trkpt lat="43.7876242" lon="12.0164866"><ele>780.0</ele><time>2026-04-12T08:30:00.606Z</time></trkpt><trkpt lat="43.787579" lon="12.0166022"><ele>780.0</ele><time>2026-04-12T08:30:01.607Z</time></trkpt><trkpt lat="43.787582" lon="12.0167361"><ele>781.5</ele><time>2026-04-12T08:30:02.607Z</time></trkpt><trkpt lat="43.7876328" lon="12.0168666"><ele>783.0</ele><time>2026-04-12T08:30:03.607Z</time></trkpt><trkpt lat="43.7877237" lon="12.0169673"><ele>784.5</ele><time>2026-04-12T08:30:04.607Z</time></trkpt><trkpt lat="43.7878387" lon="12.0170277"><ele>786.0</ele><time>2026-04-12T08:30:05.607Z</time></trkpt><trkpt lat="43.7879632" lon="12.0170602"><ele>787.0</ele><time>2026-04-12T08:30:06.607Z</time></trkpt><trkpt lat="43.7880839" lon="12.0171151"><ele>788.0</ele><time>2026-04-12T08:30:07.606Z</time></trkpt><trkpt lat="43.788192" lon="12.0172162"><ele>789.0</ele><time>2026-04-12T08:30:08.607Z</time></trkpt><trkpt lat="43.7882911" lon="12.0173779"><ele>790.0</ele><time>2026-04-12T08:30:09.607Z</time></trkpt><trkpt lat="43.7883878" lon="12.0175783"><ele>790.5</ele><time>2026-04-12T08:30:10.606Z</time></trkpt><trkpt lat="43.7884796" lon="12.0177631"><ele>791.0</ele><time>2026-04-12T08:30:11.607Z</time></trkpt><trkpt lat="43.7885789" lon="12.0179048"><ele>791.5</ele><time>2026-04-12T08:30:12.606Z</time></trkpt><trkpt lat="43.788675" lon="12.018004"><ele>792.0</ele><time>2026-04-12T08:30:13.607Z</time></trkpt><trkpt lat="43.788751" lon="12.0180917"><ele>792.0</ele><time>2026-04-12T08:30:14.607Z</time></trkpt><trkpt lat="43.7887983" lon="12.0181925"><ele>792.0</ele><time>2026-04-12T08:30:15.607Z</time></trkpt><trkpt lat="43.7888116" lon="12.0182982"><ele>792.0</ele><time>2026-04-12T08:30:16.606Z</time></trkpt><trkpt lat="43.788793" lon="12.0183941"><ele>792.0</ele><time>2026-04-12T08:30:17.607Z</time></trkpt><trkpt lat="43.7887275" lon="12.0184571"><ele>792.0</ele><time>2026-04-12T08:30:18.607Z</time></trkpt><trkpt lat="43.7886361" lon="12.0184639"><ele>792.0</ele><time>2026-04-12T08:30:19.606Z</time></trkpt><trkpt lat="43.7885437" lon="12.0184195"><ele>793.8</ele><time>2026-04-12T08:30:20.606Z</time></trkpt><trkpt lat="43.7884699" lon="12.0183325"><ele>795.6</ele><time>2026-04-12T08:30:21.607Z</time></trkpt><trkpt lat="43.7884207" lon="12.0181997"><ele>797.4</ele><time>2026-04-12T08:30:22.607Z</time></trkpt><trkpt lat="43.7883749" lon="12.0180488"><ele>799.1999999999999</ele><time>2026-04-12T08:30:23.607Z</time></trkpt><trkpt lat="43.7883151" lon="12.017927"><ele>801.0</ele><time>2026-04-12T08:30:24.607Z</time></trkpt><trkpt lat="43.7882385" lon="12.0178602"><ele>801.0</ele><time>2026-04-12T08:30:25.607Z</time></trkpt><trkpt lat="43.7881603" lon="12.0178556"><ele>801.0</ele><time>2026-04-12T08:30:26.607Z</time></trkpt><trkpt lat="43.7880794" lon="12.0179"><ele>801.0</ele><time>2026-04-12T08:30:27.606Z</time></trkpt><trkpt lat="43.788019" lon="12.0179893"><ele>801.0</ele><time>2026-04-12T08:30:28.607Z</time></trkpt><trkpt lat="43.7880163" lon="12.0181383"><ele>801.0</ele><time>2026-04-12T08:30:29.606Z</time></trkpt><trkpt lat="43.7880607" lon="12.0183051"><ele>803.0</ele><time>2026-04-12T08:30:30.607Z</time></trkpt><trkpt lat="43.78813" lon="12.0184517"><ele>805.0</ele><time>2026-04-12T08:30:31.607Z</time></trkpt><trkpt lat="43.7882062" lon="12.0185943"><ele>807.0</ele><time>2026-04-12T08:30:32.606Z</time></trkpt><trkpt lat="43.788259" lon="12.0187436"><ele>809.0</ele><time>2026-04-12T08:30:33.606Z</time></trkpt><trkpt lat="43.7882787" lon="12.0189082"><ele>809.0</ele><time>2026-04-12T08:30:34.607Z</time></trkpt><trkpt lat="43.7882571" lon="12.0190955"><ele>809.0</ele><time>2026-04-12T08:30:35.606Z</time></trkpt><trkpt lat="43.7882033" lon="12.0193112"><ele>809.0</ele><time>2026-04-12T08:30:36.607Z</time></trkpt><trkpt lat="43.7881443" lon="12.0195246"><ele>810.75</ele><time>2026-04-12T08:30:37.607Z</time></trkpt><trkpt lat="43.7880929" lon="12.0197174"><ele>812.5</ele><time>2026-04-12T08:30:38.607Z</time></trkpt><trkpt lat="43.7880499" lon="12.0198959"><ele>814.25</ele><time>2026-04-12T08:30:39.607Z</time></trkpt><trkpt lat="43.7880088" lon="12.0200802"><ele>816.0</ele><time>2026-04-12T08:30:40.607Z</time></trkpt><trkpt lat="43.7879646" lon="12.0202683"><ele>818.0</ele><time>2026-04-12T08:30:41.607Z</time></trkpt><trkpt lat="43.7879192" lon="12.0204775"><ele>820.0</ele><time>2026-04-12T08:30:42.607Z</time></trkpt><trkpt lat="43.7878797" lon="12.0206853"><ele>822.0</ele><time>2026-04-12T08:30:43.607Z</time></trkpt><trkpt lat="43.7878439" lon="12.0208889"><ele>824.3333333333333</ele><time>2026-04-12T08:30:44.606Z</time></trkpt><trkpt lat="43.7878086" lon="12.0211118"><ele>826.6666666666666</ele><time>2026-04-12T08:30:45.606Z</time></trkpt><trkpt lat="43.7877942" lon="12.0213554"><ele>829.0</ele><time>2026-04-12T08:30:46.607Z</time></trkpt><trkpt lat="43.7878048" lon="12.0216071"><ele>829.6666666666666</ele><time>2026-04-12T08:30:47.607Z</time></trkpt><trkpt lat="43.7878191" lon="12.0218534"><ele>830.3333333333333</ele><time>2026-04-12T08:30:48.607Z</time></trkpt><trkpt lat="43.7878311" lon="12.0220883"><ele>831.0</ele><time>2026-04-12T08:30:49.607Z</time></trkpt><trkpt lat="43.7878377" lon="12.0223103"><ele>830.3333333333333</ele><time>2026-04-12T08:30:50.606Z</time></trkpt><trkpt lat="43.7878431" lon="12.022527"><ele>829.6666666666666</ele><time>2026-04-12T08:30:51.607Z</time></trkpt><trkpt lat="43.787856" lon="12.0227556"><ele>829.0</ele><time>2026-04-12T08:30:52.607Z</time></trkpt><trkpt lat="43.7878901" lon="12.0229888"><ele>829.0</ele><time>2026-04-12T08:30:53.607Z</time></trkpt><trkpt lat="43.7879331" lon="12.0232196"><ele>829.0</ele><time>2026-04-12T08:30:54.606Z</time></trkpt><trkpt lat="43.7879844" lon="12.0234601"><ele>829.0</ele><time>2026-04-12T08:30:55.607Z</time></trkpt><trkpt lat="43.7880468" lon="12.0237009"><ele>828.6666666666666</ele><time>2026-04-12T08:30:56.607Z</time></trkpt><trkpt lat="43.788105" lon="12.0239504"><ele>828.3333333333333</ele><time>2026-04-12T08:30:57.607Z</time></trkpt><trkpt lat="43.7881577" lon="12.0241992"><ele>828.0</ele><time>2026-04-12T08:30:58.607Z</time></trkpt><trkpt lat="43.7882087" lon="12.0244302"><ele>828.0</ele><time>2026-04-12T08:30:59.607Z</time></trkpt><trkpt lat="43.7882546" lon="12.0246423"><ele>828.0</ele><time>2026-04-12T08:31:00.606Z</time></trkpt><trkpt lat="43.7883067" lon="12.0248481"><ele>828.0</ele><time>2026-04-12T08:31:01.606Z</time></trkpt><trkpt lat="43.788385" lon="12.0250533"><ele>828.3333333333333</ele><time>2026-04-12T08:31:02.606Z</time></trkpt><trkpt lat="43.7884868" lon="12.02525"><ele>828.6666666666666</ele><time>2026-04-12T08:31:03.607Z</time></trkpt><trkpt lat="43.7886006" lon="12.0254347"><ele>829.0</ele><time>2026-04-12T08:31:04.606Z</time></trkpt><trkpt lat="43.7887128" lon="12.0256221"><ele>834.3333333333333</ele><time>2026-04-12T08:31:05.607Z</time></trkpt><trkpt lat="43.7888047" lon="12.025827"><ele>839.6666666666667</ele><time>2026-04-12T08:31:06.607Z</time></trkpt><trkpt lat="43.7888794" lon="12.0260424"><ele>845.0</ele><time>2026-04-12T08:31:07.607Z</time></trkpt><trkpt lat="43.7889386" lon="12.0262463"><ele>845.0</ele><time>2026-04-12T08:31:08.607Z</time></trkpt><trkpt lat="43.7889892" lon="12.0264437"><ele>845.0</ele><time>2026-04-12T08:31:09.607Z</time></trkpt><trkpt lat="43.7890326" lon="12.0266263"><ele>845.0</ele><time>2026-04-12T08:31:10.607Z</time></trkpt><trkpt lat="43.7890699" lon="12.0267881"><ele>845.0</ele><time>2026-04-12T08:31:11.607Z</time></trkpt><trkpt lat="43.7891085" lon="12.0269367"><ele>844.4</ele><time>2026-04-12T08:31:12.607Z</time></trkpt><trkpt lat="43.7891268" lon="12.0270766"><ele>843.8</ele><time>2026-04-12T08:31:13.606Z</time></trkpt><trkpt lat="43.7891155" lon="12.0272142"><ele>843.2</ele><time>2026-04-12T08:31:14.607Z</time></trkpt><trkpt lat="43.7890728" lon="12.0273398"><ele>842.6</ele><time>2026-04-12T08:31:15.606Z</time></trkpt><trkpt lat="43.7890029" lon="12.02744"><ele>842.0</ele><time>2026-04-12T08:31:16.607Z</time></trkpt><trkpt lat="43.7889031" lon="12.0275219"><ele>842.0</ele><time>2026-04-12T08:31:17.606Z</time></trkpt><trkpt lat="43.7887895" lon="12.0275765"><ele>842.0</ele><time>2026-04-12T08:31:18.607Z</time></trkpt><trkpt lat="43.7886777" lon="12.0275921"><ele>842.0</ele><time>2026-04-12T08:31:19.607Z</time></trkpt><trkpt lat="43.7885729" lon="12.027567"><ele>842.0</ele><time>2026-04-12T08:31:20.607Z</time></trkpt><trkpt lat="43.7884807" lon="12.0274935"><ele>842.0</ele><time>2026-04-12T08:31:21.606Z</time></trkpt><trkpt lat="43.7883884" lon="12.0273596"><ele>840.6666666666667</ele><time>2026-04-12T08:31:22.607Z</time></trkpt><trkpt lat="43.7882902" lon="12.0271635"><ele>839.3333333333333</ele><time>2026-04-12T08:31:23.607Z</time></trkpt><trkpt lat="43.7881772" lon="12.0269126"><ele>838.0</ele><time>2026-04-12T08:31:24.607Z</time></trkpt><trkpt lat="43.7880718" lon="12.0266545"><ele>835.0</ele><time>2026-04-12T08:31:25.606Z</time></trkpt><trkpt lat="43.7879815" lon="12.0264205"><ele>832.0</ele><time>2026-04-12T08:31:26.607Z</time></trkpt><trkpt lat="43.7879035" lon="12.0262349"><ele>829.0</ele><time>2026-04-12T08:31:27.607Z</time></trkpt><trkpt lat="43.7878325" lon="12.0260993"><ele>829.0</ele><time>2026-04-12T08:31:28.607Z</time></trkpt><trkpt lat="43.7877435" lon="12.0260229"><ele>829.0</ele><time>2026-04-12T08:31:29.607Z</time></trkpt><trkpt lat="43.787634" lon="12.0260039"><ele>829.0</ele><time>2026-04-12T08:31:30.607Z</time></trkpt><trkpt lat="43.7875096" lon="12.0260486"><ele>829.0</ele><time>2026-04-12T08:31:31.607Z</time></trkpt><trkpt lat="43.7873885" lon="12.0260807"><ele>830.75</ele><time>2026-04-12T08:31:32.607Z</time></trkpt><trkpt lat="43.7872745" lon="12.0260749"><ele>832.5</ele><time>2026-04-12T08:31:33.606Z</time></trkpt><trkpt lat="43.7871777" lon="12.0260131"><ele>834.25</ele><time>2026-04-12T08:31:34.607Z</time></trkpt><trkpt lat="43.7870985" lon="12.0258796"><ele>836.0</ele><time>2026-04-12T08:31:35.606Z</time></trkpt><trkpt lat="43.7870424" lon="12.0256836"><ele>836.0</ele><time>2026-04-12T08:31:36.606Z</time></trkpt><trkpt lat="43.7869989" lon="12.0254721"><ele>836.0</ele><time>2026-04-12T08:31:37.607Z</time></trkpt><trkpt lat="43.7869457" lon="12.0252831"><ele>836.0</ele><time>2026-04-12T08:31:38.607Z</time></trkpt><trkpt lat="43.7868683" lon="12.0251291"><ele>836.0</ele><time>2026-04-12T08:31:39.607Z</time></trkpt><trkpt lat="43.7867631" lon="12.0250139"><ele>838.0</ele><time>2026-04-12T08:31:40.606Z</time></trkpt><trkpt lat="43.7866343" lon="12.0249508"><ele>840.0</ele><time>2026-04-12T08:31:41.606Z</time></trkpt><trkpt lat="43.7864915" lon="12.0249477"><ele>842.0</ele><time>2026-04-12T08:31:42.607Z</time></trkpt><trkpt lat="43.7863308" lon="12.025004"><ele>844.0</ele><time>2026-04-12T08:31:43.607Z</time></trkpt><trkpt lat="43.786168" lon="12.0250964"><ele>851.3333333333333</ele><time>2026-04-12T08:31:44.607Z</time></trkpt><trkpt lat="43.786009" lon="12.025202"><ele>858.6666666666667</ele><time>2026-04-12T08:31:45.606Z</time></trkpt><trkpt lat="43.7858572" lon="12.0253049"><ele>866.0</ele><time>2026-04-12T08:31:46.607Z</time></trkpt><trkpt lat="43.785711" lon="12.025386"><ele>866.0</ele><time>2026-04-12T08:31:47.607Z</time></trkpt><trkpt lat="43.78557" lon="12.0254427"><ele>866.0</ele><time>2026-04-12T08:31:48.606Z</time></trkpt><trkpt lat="43.7854278" lon="12.0254595"><ele>866.0</ele><time>2026-04-12T08:31:49.606Z</time></trkpt><trkpt lat="43.7852781" lon="12.0254363"><ele>866.0</ele><time>2026-04-12T08:31:50.607Z</time></trkpt><trkpt lat="43.7851286" lon="12.0253834"><ele>864.6666666666667</ele><time>2026-04-12T08:31:51.607Z</time></trkpt><trkpt lat="43.7849876" lon="12.0253383"><ele>863.3333333333333</ele><time>2026-04-12T08:31:52.606Z</time></trkpt><trkpt lat="43.7848407" lon="12.0253218"><ele>862.0</ele><time>2026-04-12T08:31:53.606Z</time></trkpt><trkpt lat="43.7846697" lon="12.0253545"><ele>862.0</ele><time>2026-04-12T08:31:54.607Z</time></trkpt><trkpt lat="43.7844724" lon="12.0254168"><ele>862.0</ele><time>2026-04-12T08:31:55.607Z</time></trkpt><trkpt lat="43.7842593" lon="12.0254951"><ele>862.0</ele><time>2026-04-12T08:31:56.606Z</time></trkpt><trkpt lat="43.7840484" lon="12.0255738"><ele>861.6666666666666</ele><time>2026-04-12T08:31:57.607Z</time></trkpt><trkpt lat="43.7838494" lon="12.0256588"><ele>861.3333333333333</ele><time>2026-04-12T08:31:58.606Z</time></trkpt><trkpt lat="43.7836498" lon="12.0257571"><ele>861.0</ele><time>2026-04-12T08:31:59.607Z</time></trkpt><trkpt lat="43.7834545" lon="12.0258587"><ele>856.0</ele><time>2026-04-12T08:32:00.607Z</time></trkpt><trkpt lat="43.783265" lon="12.0259625"><ele>851.0</ele><time>2026-04-12T08:32:01.607Z</time></trkpt><trkpt lat="43.7830888" lon="12.0260552"><ele>846.0</ele><time>2026-04-12T08:32:02.607Z</time></trkpt><trkpt lat="43.7829334" lon="12.0261489"><ele>846.0</ele><time>2026-04-12T08:32:03.606Z</time></trkpt><trkpt lat="43.7827964" lon="12.0262632"><ele>846.0</ele><time>2026-04-12T08:32:04.607Z</time></trkpt><trkpt lat="43.7826856" lon="12.0263947"><ele>846.0</ele><time>2026-04-12T08:32:05.607Z</time></trkpt><trkpt lat="43.7825923" lon="12.0265334"><ele>846.0</ele><time>2026-04-12T08:32:06.606Z</time></trkpt><trkpt lat="43.7825065" lon="12.0266508"><ele>843.0</ele><time>2026-04-12T08:32:07.607Z</time></trkpt><trkpt lat="43.7824094" lon="12.0267362"><ele>840.0</ele><time>2026-04-12T08:32:08.607Z</time></trkpt><trkpt lat="43.7822906" lon="12.026779"><ele>837.0</ele><time>2026-04-12T08:32:09.607Z</time></trkpt><trkpt lat="43.7821381" lon="12.0267872"><ele>834.0</ele><time>2026-04-12T08:32:10.606Z</time></trkpt><trkpt lat="43.7819763" lon="12.0267809"><ele>833.25</ele><time>2026-04-12T08:32:11.607Z</time></trkpt><trkpt lat="43.7818278" lon="12.026768"><ele>832.5</ele><time>2026-04-12T08:32:12.607Z</time></trkpt><trkpt lat="43.7816892" lon="12.0267281"><ele>831.75</ele><time>2026-04-12T08:32:13.607Z</time></trkpt><trkpt lat="43.7815598" lon="12.0266487"><ele>831.0</ele><time>2026-04-12T08:32:14.607Z</time></trkpt><trkpt lat="43.7814464" lon="12.0265455"><ele>831.0</ele><time>2026-04-12T08:32:15.607Z</time></trkpt><trkpt lat="43.7813327" lon="12.026453"><ele>831.0</ele><time>2026-04-12T08:32:16.607Z</time></trkpt><trkpt lat="43.7811937" lon="12.0263954"><ele>831.0</ele><time>2026-04-12T08:32:17.607Z</time></trkpt><trkpt lat="43.781031" lon="12.0263922"><ele>831.0</ele><time>2026-04-12T08:32:18.607Z</time></trkpt><trkpt lat="43.780861" lon="12.0264206"><ele>830.6666666666667</ele><time>2026-04-12T08:32:19.606Z</time></trkpt><trkpt lat="43.7807044" lon="12.0264623"><ele>830.3333333333334</ele><time>2026-04-12T08:32:20.606Z</time></trkpt><trkpt lat="43.7805619" lon="12.0265482"><ele>830.0</ele><time>2026-04-12T08:32:21.606Z</time></trkpt><trkpt lat="43.7804242" lon="12.0266914"><ele>828.3333333333334</ele><time>2026-04-12T08:32:22.607Z</time></trkpt><trkpt lat="43.7802908" lon="12.0268677"><ele>826.6666666666667</ele><time>2026-04-12T08:32:23.607Z</time></trkpt><trkpt lat="43.7801692" lon="12.0270683"><ele>825.0</ele><time>2026-04-12T08:32:24.607Z</time></trkpt><trkpt lat="43.7800594" lon="12.0272697"><ele>824.0</ele><time>2026-04-12T08:32:25.607Z</time></trkpt><trkpt lat="43.7799501" lon="12.027455"><ele>823.0</ele><time>2026-04-12T08:32:26.606Z</time></trkpt><trkpt lat="43.7798234" lon="12.0276331"><ele>822.0</ele><time>2026-04-12T08:32:27.607Z</time></trkpt><trkpt lat="43.7796857" lon="12.0278022"><ele>822.0</ele><time>2026-04-12T08:32:28.607Z</time></trkpt><trkpt lat="43.779552" lon="12.0279547"><ele>822.0</ele><time>2026-04-12T08:32:29.607Z</time></trkpt><trkpt lat="43.7794299" lon="12.0280924"><ele>822.0</ele><time>2026-04-12T08:32:30.607Z</time></trkpt><trkpt lat="43.7793295" lon="12.0282108"><ele>821.6</ele><time>2026-04-12T08:32:31.607Z</time></trkpt><trkpt lat="43.7792381" lon="12.0283018"><ele>821.2</ele><time>2026-04-12T08:32:32.606Z</time></trkpt><trkpt lat="43.7791445" lon="12.0283518"><ele>820.8</ele><time>2026-04-12T08:32:33.607Z</time></trkpt><trkpt lat="43.7790534" lon="12.0283583"><ele>820.4</ele><time>2026-04-12T08:32:34.607Z</time></trkpt><trkpt lat="43.7789592" lon="12.0283004"><ele>820.0</ele><time>2026-04-12T08:32:35.607Z</time></trkpt><trkpt lat="43.778871" lon="12.0281803"><ele>822.5</ele><time>2026-04-12T08:32:36.607Z</time></trkpt><trkpt lat="43.7787996" lon="12.0280259"><ele>825.0</ele><time>2026-04-12T08:32:37.607Z</time></trkpt><trkpt lat="43.7787309" lon="12.0278889"><ele>827.5</ele><time>2026-04-12T08:32:38.607Z</time></trkpt><trkpt lat="43.7786408" lon="12.0277855"><ele>830.0</ele><time>2026-04-12T08:32:39.607Z</time></trkpt><trkpt lat="43.7785239" lon="12.0277299"><ele>828.3333333333334</ele><time>2026-04-12T08:32:40.607Z</time></trkpt><trkpt lat="43.7783758" lon="12.0277257"><ele>826.6666666666667</ele><time>2026-04-12T08:32:41.607Z</time></trkpt><trkpt lat="43.7782007" lon="12.0277671"><ele>825.0</ele><time>2026-04-12T08:32:42.607Z</time></trkpt><trkpt lat="43.778001" lon="12.0278208"><ele>825.0</ele><time>2026-04-12T08:32:43.606Z</time></trkpt><trkpt lat="43.7778084" lon="12.0278688"><ele>825.0</ele><time>2026-04-12T08:32:44.607Z</time></trkpt><trkpt lat="43.7776369" lon="12.0279065"><ele>825.0</ele><time>2026-04-12T08:32:45.606Z</time></trkpt><trkpt lat="43.7774833" lon="12.0279595"><ele>824.75</ele><time>2026-04-12T08:32:46.607Z</time></trkpt><trkpt lat="43.7773373" lon="12.0280302"><ele>824.5</ele><time>2026-04-12T08:32:47.606Z</time></trkpt><trkpt lat="43.7772163" lon="12.0281258"><ele>824.25</ele><time>2026-04-12T08:32:48.607Z</time></trkpt><trkpt lat="43.7771149" lon="12.0282401"><ele>824.0</ele><time>2026-04-12T08:32:49.607Z</time></trkpt><trkpt lat="43.7770209" lon="12.028338"><ele>820.0</ele><time>2026-04-12T08:32:50.607Z</time></trkpt><trkpt lat="43.7769131" lon="12.0284146"><ele>816.0</ele><time>2026-04-12T08:32:51.607Z</time></trkpt><trkpt lat="43.7767963" lon="12.0284612"><ele>812.0</ele><time>2026-04-12T08:32:52.607Z</time></trkpt><trkpt lat="43.7766764" lon="12.0284846"><ele>808.0</ele><time>2026-04-12T08:32:53.607Z</time></trkpt><trkpt lat="43.7765651" lon="12.0285013"><ele>807.9999999999999</ele><time>2026-04-12T08:32:54.606Z</time></trkpt><trkpt lat="43.7764745" lon="12.0285191"><ele>808.0</ele><time>2026-04-12T08:32:55.607Z</time></trkpt><trkpt lat="43.7764031" lon="12.0285634"><ele>808.0</ele><time>2026-04-12T08:32:56.607Z</time></trkpt><trkpt lat="43.776352" lon="12.02862"><ele>808.0</ele><time>2026-04-12T08:32:57.607Z</time></trkpt><trkpt lat="43.7763259" lon="12.028754"><ele>807.9999999999999</ele><time>2026-04-12T08:32:59.606Z</time></trkpt><trkpt lat="43.7764256" lon="12.0288031"><ele>808.0</ele><time>2026-04-12T08:33:01.607Z</time></trkpt><trkpt lat="43.7765062" lon="12.0287872"><ele>808.0</ele><time>2026-04-12T08:33:02.607Z</time></trkpt><trkpt lat="43.7766131" lon="12.0287633"><ele>808.0</ele><time>2026-04-12T08:33:03.606Z</time></trkpt><trkpt lat="43.7767294" lon="12.028764"><ele>808.0</ele><time>2026-04-12T08:33:04.607Z</time></trkpt><trkpt lat="43.776861" lon="12.028816"><ele>808.0</ele><time>2026-04-12T08:33:05.607Z</time></trkpt><trkpt lat="43.7770099" lon="12.0288992"><ele>807.25</ele><time>2026-04-12T08:33:06.607Z</time></trkpt><trkpt lat="43.7771552" lon="12.0289719"><ele>806.5</ele><time>2026-04-12T08:33:07.607Z</time></trkpt><trkpt lat="43.7772957" lon="12.0290214"><ele>805.75</ele><time>2026-04-12T08:33:08.607Z</time></trkpt><trkpt lat="43.7774169" lon="12.0290495"><ele>805.0</ele><time>2026-04-12T08:33:09.607Z</time></trkpt><trkpt lat="43.7775162" lon="12.0291026"><ele>805.25</ele><time>2026-04-12T08:33:10.607Z</time></trkpt><trkpt lat="43.7775997" lon="12.0292013"><ele>805.5</ele><time>2026-04-12T08:33:11.607Z</time></trkpt><trkpt lat="43.7776795" lon="12.0293346"><ele>805.75</ele><time>2026-04-12T08:33:12.606Z</time></trkpt><trkpt lat="43.7777557" lon="12.029458"><ele>806.0</ele><time>2026-04-12T08:33:13.607Z</time></trkpt><trkpt lat="43.7778289" lon="12.0295659"><ele>806.0</ele><time>2026-04-12T08:33:14.606Z</time></trkpt><trkpt lat="43.7778803" lon="12.0296793"><ele>806.0</ele><time>2026-04-12T08:33:15.606Z</time></trkpt><trkpt lat="43.7779053" lon="12.0298217"><ele>806.0</ele><time>2026-04-12T08:33:16.606Z</time></trkpt><trkpt lat="43.7779017" lon="12.0299856"><ele>806.0</ele><time>2026-04-12T08:33:17.607Z</time></trkpt><trkpt lat="43.7778667" lon="12.0301498"><ele>806.0</ele><time>2026-04-12T08:33:18.606Z</time></trkpt><trkpt lat="43.777819" lon="12.0303062"><ele>805.0</ele><time>2026-04-12T08:33:19.607Z</time></trkpt><trkpt lat="43.7777807" lon="12.0304702"><ele>804.0</ele><time>2026-04-12T08:33:20.607Z</time></trkpt><trkpt lat="43.7777851" lon="12.0306495"><ele>803.0</ele><time>2026-04-12T08:33:21.607Z</time></trkpt><trkpt lat="43.7778254" lon="12.0308392"><ele>802.0</ele><time>2026-04-12T08:33:22.607Z</time></trkpt><trkpt lat="43.77788" lon="12.0310205"><ele>802.0</ele><time>2026-04-12T08:33:23.607Z</time></trkpt><trkpt lat="43.7779157" lon="12.0311816"><ele>802.0</ele><time>2026-04-12T08:33:24.607Z</time></trkpt><trkpt lat="43.7779193" lon="12.031341"><ele>802.0</ele><time>2026-04-12T08:33:25.606Z</time></trkpt><trkpt lat="43.7778888" lon="12.0315162"><ele>802.0</ele><time>2026-04-12T08:33:26.606Z</time></trkpt><trkpt lat="43.7778371" lon="12.0317004"><ele>803.3333333333333</ele><time>2026-04-12T08:33:27.607Z</time></trkpt><trkpt lat="43.7777721" lon="12.0319004"><ele>804.6666666666667</ele><time>2026-04-12T08:33:28.606Z</time></trkpt><trkpt lat="43.7777005" lon="12.0321147"><ele>806.0</ele><time>2026-04-12T08:33:29.607Z</time></trkpt><trkpt lat="43.777624" lon="12.0323122"><ele>804.75</ele><time>2026-04-12T08:33:30.607Z</time></trkpt><trkpt lat="43.7775349" lon="12.0324878"><ele>803.5</ele><time>2026-04-12T08:33:31.607Z</time></trkpt><trkpt lat="43.7774283" lon="12.0326349"><ele>802.25</ele><time>2026-04-12T08:33:32.606Z</time></trkpt><trkpt lat="43.7773096" lon="12.0327421"><ele>801.0</ele><time>2026-04-12T08:33:33.607Z</time></trkpt><trkpt lat="43.7771969" lon="12.0328191"><ele>801.0</ele><time>2026-04-12T08:33:34.607Z</time></trkpt><trkpt lat="43.7770969" lon="12.0329033"><ele>801.0</ele><time>2026-04-12T08:33:35.607Z</time></trkpt><trkpt lat="43.7770167" lon="12.0330143"><ele>801.0</ele><time>2026-04-12T08:33:36.606Z</time></trkpt><trkpt lat="43.7769571" lon="12.0331525"><ele>801.0</ele><time>2026-04-12T08:33:37.607Z</time></trkpt><trkpt lat="43.7769309" lon="12.0333183"><ele>805.0</ele><time>2026-04-12T08:33:38.607Z</time></trkpt><trkpt lat="43.7769463" lon="12.0335003"><ele>809.0</ele><time>2026-04-12T08:33:39.606Z</time></trkpt><trkpt lat="43.7770012" lon="12.0336788"><ele>813.0</ele><time>2026-04-12T08:33:40.606Z</time></trkpt><trkpt lat="43.7770705" lon="12.0338334"><ele>817.0</ele><time>2026-04-12T08:33:41.606Z</time></trkpt><trkpt lat="43.7771167" lon="12.0339553"><ele>817.0</ele><time>2026-04-12T08:33:42.607Z</time></trkpt><trkpt lat="43.7771291" lon="12.0340704"><ele>817.0</ele><time>2026-04-12T08:33:43.607Z</time></trkpt><trkpt lat="43.7770834" lon="12.0341854"><ele>817.0</ele><time>2026-04-12T08:33:44.607Z</time></trkpt><trkpt lat="43.7769898" lon="12.0342935"><ele>817.0</ele><time>2026-04-12T08:33:45.607Z</time></trkpt><trkpt lat="43.776853" lon="12.0343797"><ele>812.0</ele><time>2026-04-12T08:33:46.607Z</time></trkpt><trkpt lat="43.7766901" lon="12.0344639"><ele>807.0</ele><time>2026-04-12T08:33:47.606Z</time></trkpt><trkpt lat="43.7765244" lon="12.034543"><ele>802.0</ele><time>2026-04-12T08:33:48.606Z</time></trkpt><trkpt lat="43.7763463" lon="12.0346344"><ele>802.0</ele><time>2026-04-12T08:33:49.607Z</time></trkpt><trkpt lat="43.776172" lon="12.0347516"><ele>802.0</ele><time>2026-04-12T08:33:50.607Z</time></trkpt><trkpt lat="43.7760115" lon="12.0348977"><ele>802.0</ele><time>2026-04-12T08:33:51.607Z</time></trkpt><trkpt lat="43.7758642" lon="12.0350586"><ele>806.0</ele><time>2026-04-12T08:33:52.606Z</time></trkpt><trkpt lat="43.775728" lon="12.03521"><ele>810.0</ele><time>2026-04-12T08:33:53.607Z</time></trkpt><trkpt lat="43.7755952" lon="12.035344"><ele>814.0</ele><time>2026-04-12T08:33:54.607Z</time></trkpt><trkpt lat="43.7754732" lon="12.0354519"><ele>814.0</ele><time>2026-04-12T08:33:55.607Z</time></trkpt><trkpt lat="43.7753647" lon="12.0355833"><ele>814.0</ele><time>2026-04-12T08:33:56.607Z</time></trkpt><trkpt lat="43.7752737" lon="12.0357476"><ele>814.0</ele><time>2026-04-12T08:33:57.607Z</time></trkpt><trkpt lat="43.7752103" lon="12.03595"><ele>814.3333333333333</ele><time>2026-04-12T08:33:58.606Z</time></trkpt><trkpt lat="43.7751481" lon="12.0361669"><ele>814.6666666666667</ele><time>2026-04-12T08:33:59.606Z</time></trkpt><trkpt lat="43.7750643" lon="12.0363791"><ele>815.0</ele><time>2026-04-12T08:34:00.607Z</time></trkpt><trkpt lat="43.7749729" lon="12.0365861"><ele>820.6666666666667</ele><time>2026-04-12T08:34:01.607Z</time></trkpt><trkpt lat="43.7748858" lon="12.0368125"><ele>826.3333333333333</ele><time>2026-04-12T08:34:02.607Z</time></trkpt><trkpt lat="43.7747996" lon="12.0370509"><ele>832.0</ele><time>2026-04-12T08:34:03.606Z</time></trkpt><trkpt lat="43.7747194" lon="12.037281"><ele>836.0</ele><time>2026-04-12T08:34:04.607Z</time></trkpt><trkpt lat="43.774638" lon="12.0374791"><ele>840.0</ele><time>2026-04-12T08:34:05.606Z</time></trkpt><trkpt lat="43.774567" lon="12.0376585"><ele>844.0</ele><time>2026-04-12T08:34:06.607Z</time></trkpt><trkpt lat="43.7745165" lon="12.0378399"><ele>844.0</ele><time>2026-04-12T08:34:07.607Z</time></trkpt><trkpt lat="43.7744813" lon="12.0380266"><ele>844.0</ele><time>2026-04-12T08:34:08.607Z</time></trkpt><trkpt lat="43.7744425" lon="12.0382127"><ele>844.0</ele><time>2026-04-12T08:34:09.607Z</time></trkpt><trkpt lat="43.7743847" lon="12.0383747"><ele>844.0</ele><time>2026-04-12T08:34:10.607Z</time></trkpt><trkpt lat="43.774327" lon="12.0385304"><ele>845.8000000000001</ele><time>2026-04-12T08:34:11.607Z</time></trkpt><trkpt lat="43.7742847" lon="12.0386811"><ele>847.6</ele><time>2026-04-12T08:34:12.606Z</time></trkpt><trkpt lat="43.7742549" lon="12.0388212"><ele>849.4</ele><time>2026-04-12T08:34:13.606Z</time></trkpt><trkpt lat="43.7742671" lon="12.0389614"><ele>851.2</ele><time>2026-04-12T08:34:14.607Z</time></trkpt><trkpt lat="43.7743226" lon="12.0390858"><ele>853.0</ele><time>2026-04-12T08:34:15.607Z</time></trkpt><trkpt lat="43.7744024" lon="12.0391766"><ele>853.0</ele><time>2026-04-12T08:34:16.607Z</time></trkpt><trkpt lat="43.7744831" lon="12.0392645"><ele>853.0</ele><time>2026-04-12T08:34:17.607Z</time></trkpt><trkpt lat="43.7745358" lon="12.039377"><ele>853.0</ele><time>2026-04-12T08:34:18.606Z</time></trkpt><trkpt lat="43.7745436" lon="12.0395296"><ele>853.0</ele><time>2026-04-12T08:34:19.606Z</time></trkpt><trkpt lat="43.7745129" lon="12.0397273"><ele>853.0</ele><time>2026-04-12T08:34:20.607Z</time></trkpt><trkpt lat="43.7744584" lon="12.0399549"><ele>853.0</ele><time>2026-04-12T08:34:21.606Z</time></trkpt><trkpt lat="43.774408" lon="12.0401808"><ele>853.0</ele><time>2026-04-12T08:34:22.607Z</time></trkpt><trkpt lat="43.7743766" lon="12.0403837"><ele>852.0</ele><time>2026-04-12T08:34:23.607Z</time></trkpt><trkpt lat="43.7743526" lon="12.0405569"><ele>851.0</ele><time>2026-04-12T08:34:24.607Z</time></trkpt><trkpt lat="43.7743113" lon="12.0406975"><ele>850.0</ele><time>2026-04-12T08:34:25.607Z</time></trkpt><trkpt lat="43.7742437" lon="12.0408101"><ele>849.0</ele><time>2026-04-12T08:34:26.607Z</time></trkpt><trkpt lat="43.7741461" lon="12.0408904"><ele>849.0</ele><time>2026-04-12T08:34:27.606Z</time></trkpt><trkpt lat="43.7740107" lon="12.0409462"><ele>849.0</ele><time>2026-04-12T08:34:28.606Z</time></trkpt><trkpt lat="43.7738698" lon="12.0410119"><ele>849.0</ele><time>2026-04-12T08:34:29.607Z</time></trkpt><trkpt lat="43.7737286" lon="12.041082"><ele>849.0</ele><time>2026-04-12T08:34:30.606Z</time></trkpt><trkpt lat="43.7735865" lon="12.0411353"><ele>848.6666666666667</ele><time>2026-04-12T08:34:31.607Z</time></trkpt><trkpt lat="43.7734352" lon="12.0411435"><ele>848.3333333333334</ele><time>2026-04-12T08:34:32.607Z</time></trkpt><trkpt lat="43.7732663" lon="12.0410912"><ele>848.0</ele><time>2026-04-12T08:34:33.607Z</time></trkpt><trkpt lat="43.7731017" lon="12.0410043"><ele>848.0</ele><time>2026-04-12T08:34:34.607Z</time></trkpt><trkpt lat="43.7729453" lon="12.0409333"><ele>848.0</ele><time>2026-04-12T08:34:35.607Z</time></trkpt><trkpt lat="43.7727879" lon="12.0408874"><ele>848.0</ele><time>2026-04-12T08:34:36.607Z</time></trkpt><trkpt lat="43.7726403" lon="12.0408563"><ele>850.75</ele><time>2026-04-12T08:34:37.606Z</time></trkpt><trkpt lat="43.7725099" lon="12.0408231"><ele>853.5</ele><time>2026-04-12T08:34:38.606Z</time></trkpt><trkpt lat="43.7723944" lon="12.0407926"><ele>856.25</ele><time>2026-04-12T08:34:39.607Z</time></trkpt><trkpt lat="43.7722778" lon="12.0407907"><ele>859.0</ele><time>2026-04-12T08:34:40.607Z</time></trkpt><trkpt lat="43.7721499" lon="12.0408319"><ele>859.0</ele><time>2026-04-12T08:34:41.607Z</time></trkpt><trkpt lat="43.7720156" lon="12.0409179"><ele>859.0</ele><time>2026-04-12T08:34:42.606Z</time></trkpt><trkpt lat="43.7718796" lon="12.0410486"><ele>859.0</ele><time>2026-04-12T08:34:43.607Z</time></trkpt><trkpt lat="43.7717398" lon="12.0411843"><ele>856.25</ele><time>2026-04-12T08:34:44.607Z</time></trkpt><trkpt lat="43.7716047" lon="12.0412995"><ele>853.5</ele><time>2026-04-12T08:34:45.607Z</time></trkpt><trkpt lat="43.7714915" lon="12.0413826"><ele>850.75</ele><time>2026-04-12T08:34:46.606Z</time></trkpt><trkpt lat="43.7713895" lon="12.0414554"><ele>848.0</ele><time>2026-04-12T08:34:47.606Z</time></trkpt><trkpt lat="43.7712896" lon="12.0415632"><ele>848.6666666666667</ele><time>2026-04-12T08:34:48.607Z</time></trkpt><trkpt lat="43.7711841" lon="12.0417184"><ele>849.3333333333333</ele><time>2026-04-12T08:34:49.607Z</time></trkpt><trkpt lat="43.7710652" lon="12.0419018"><ele>850.0</ele><time>2026-04-12T08:34:50.607Z</time></trkpt><trkpt lat="43.7709444" lon="12.0420816"><ele>850.0</ele><time>2026-04-12T08:34:51.607Z</time></trkpt><trkpt lat="43.7708345" lon="12.0422458"><ele>850.0</ele><time>2026-04-12T08:34:52.607Z</time></trkpt><trkpt lat="43.7707387" lon="12.0423935"><ele>850.0</ele><time>2026-04-12T08:34:53.607Z</time></trkpt><trkpt lat="43.7706602" lon="12.0425471"><ele>850.0</ele><time>2026-04-12T08:34:54.607Z</time></trkpt><trkpt lat="43.7706034" lon="12.0427099"><ele>857.75</ele><time>2026-04-12T08:34:55.607Z</time></trkpt><trkpt lat="43.7705674" lon="12.0428656"><ele>865.5</ele><time>2026-04-12T08:34:56.607Z</time></trkpt><trkpt lat="43.7705501" lon="12.0430211"><ele>873.25</ele><time>2026-04-12T08:34:57.607Z</time></trkpt><trkpt lat="43.7705625" lon="12.0431897"><ele>881.0</ele><time>2026-04-12T08:34:58.606Z</time></trkpt><trkpt lat="43.7706058" lon="12.0433613"><ele>883.0</ele><time>2026-04-12T08:34:59.607Z</time></trkpt><trkpt lat="43.7706843" lon="12.043533"><ele>885.0</ele><time>2026-04-12T08:35:00.607Z</time></trkpt><trkpt lat="43.7707803" lon="12.0436851"><ele>887.0</ele><time>2026-04-12T08:35:01.607Z</time></trkpt><trkpt lat="43.7709037" lon="12.0438164"><ele>889.0</ele><time>2026-04-12T08:35:02.607Z</time></trkpt><trkpt lat="43.771051" lon="12.0439235"><ele>894.0</ele><time>2026-04-12T08:35:03.607Z</time></trkpt><trkpt lat="43.7711779" lon="12.0440144"><ele>899.0</ele><time>2026-04-12T08:35:04.607Z</time></trkpt><trkpt lat="43.7712839" lon="12.0440807"><ele>904.0</ele><time>2026-04-12T08:35:05.606Z</time></trkpt><trkpt lat="43.7713885" lon="12.04411"><ele>909.0</ele><time>2026-04-12T08:35:06.607Z</time></trkpt><trkpt lat="43.7714986" lon="12.044104"><ele>909.0</ele><time>2026-04-12T08:35:07.607Z</time></trkpt><trkpt lat="43.7716255" lon="12.0440568"><ele>909.0</ele><time>2026-04-12T08:35:08.607Z</time></trkpt><trkpt lat="43.7717718" lon="12.0439799"><ele>909.0</ele><time>2026-04-12T08:35:09.607Z</time></trkpt><trkpt lat="43.7719278" lon="12.0438671"><ele>907.0</ele><time>2026-04-12T08:35:10.607Z</time></trkpt><trkpt lat="43.7720916" lon="12.043739"><ele>905.0</ele><time>2026-04-12T08:35:11.607Z</time></trkpt><trkpt lat="43.7722676" lon="12.0436345"><ele>903.0</ele><time>2026-04-12T08:35:12.607Z</time></trkpt><trkpt lat="43.7724536" lon="12.0435606"><ele>903.0</ele><time>2026-04-12T08:35:13.606Z</time></trkpt><trkpt lat="43.7726309" lon="12.0435068"><ele>903.0</ele><time>2026-04-12T08:35:14.607Z</time></trkpt><trkpt lat="43.7727889" lon="12.0434501"><ele>903.0</ele><time>2026-04-12T08:35:15.607Z</time></trkpt><trkpt lat="43.7729237" lon="12.0433913"><ele>900.75</ele><time>2026-04-12T08:35:16.607Z</time></trkpt><trkpt lat="43.7730506" lon="12.0433652"><ele>898.5</ele><time>2026-04-12T08:35:17.607Z</time></trkpt><trkpt lat="43.7731795" lon="12.0433852"><ele>896.25</ele><time>2026-04-12T08:35:18.607Z</time></trkpt><trkpt lat="43.7733081" lon="12.0434402"><ele>894.0</ele><time>2026-04-12T08:35:19.607Z</time></trkpt><trkpt lat="43.7734339" lon="12.0434872"><ele>894.75</ele><time>2026-04-12T08:35:20.607Z</time></trkpt><trkpt lat="43.77355" lon="12.0435197"><ele>895.5</ele><time>2026-04-12T08:35:21.607Z</time></trkpt><trkpt lat="43.7736547" lon="12.0435686"><ele>896.25</ele><time>2026-04-12T08:35:22.607Z</time></trkpt><trkpt lat="43.7737511" lon="12.0436614"><ele>897.0</ele><time>2026-04-12T08:35:23.607Z</time></trkpt><trkpt lat="43.773838" lon="12.0437921"><ele>897.0</ele><time>2026-04-12T08:35:24.607Z</time></trkpt><trkpt lat="43.7739306" lon="12.0439269"><ele>897.0</ele><time>2026-04-12T08:35:25.606Z</time></trkpt><trkpt lat="43.7740476" lon="12.0440414"><ele>897.0</ele><time>2026-04-12T08:35:26.607Z</time></trkpt><trkpt lat="43.7741631" lon="12.0441417"><ele>897.0</ele><time>2026-04-12T08:35:27.607Z</time></trkpt><trkpt lat="43.7742574" lon="12.044238"><ele>898.5</ele><time>2026-04-12T08:35:28.607Z</time></trkpt><trkpt lat="43.7743138" lon="12.044344"><ele>900.0</ele><time>2026-04-12T08:35:29.606Z</time></trkpt><trkpt lat="43.7743301" lon="12.0444782"><ele>901.5</ele><time>2026-04-12T08:35:30.607Z</time></trkpt><trkpt lat="43.7743024" lon="12.0446538"><ele>903.0</ele><time>2026-04-12T08:35:31.607Z</time></trkpt><trkpt lat="43.7742506" lon="12.0448629"><ele>901.0</ele><time>2026-04-12T08:35:32.607Z</time></trkpt><trkpt lat="43.7741986" lon="12.0450995"><ele>899.0</ele><time>2026-04-12T08:35:33.606Z</time></trkpt><trkpt lat="43.7741533" lon="12.0453247"><ele>897.0</ele><time>2026-04-12T08:35:34.606Z</time></trkpt><trkpt lat="43.7741064" lon="12.0455097"><ele>897.0</ele><time>2026-04-12T08:35:35.606Z</time></trkpt><trkpt lat="43.7740692" lon="12.0456643"><ele>897.0</ele><time>2026-04-12T08:35:36.607Z</time></trkpt><trkpt lat="43.774056" lon="12.0457972"><ele>897.0</ele><time>2026-04-12T08:35:37.606Z</time></trkpt><trkpt lat="43.7740799" lon="12.0459121"><ele>897.0</ele><time>2026-04-12T08:35:38.607Z</time></trkpt><trkpt lat="43.7741521" lon="12.0460217"><ele>897.0</ele><time>2026-04-12T08:35:39.607Z</time></trkpt><trkpt lat="43.7742541" lon="12.0461039"><ele>897.8</ele><time>2026-04-12T08:35:40.607Z</time></trkpt><trkpt lat="43.7743605" lon="12.046148"><ele>898.6</ele><time>2026-04-12T08:35:41.607Z</time></trkpt><trkpt lat="43.7744528" lon="12.0461503"><ele>899.3999999999999</ele><time>2026-04-12T08:35:42.607Z</time></trkpt><trkpt lat="43.7745375" lon="12.0461002"><ele>900.1999999999999</ele><time>2026-04-12T08:35:43.606Z</time></trkpt><trkpt lat="43.7746084" lon="12.0459906"><ele>901.0</ele><time>2026-04-12T08:35:44.607Z</time></trkpt><trkpt lat="43.7746758" lon="12.0458366"><ele>905.75</ele><time>2026-04-12T08:35:45.606Z</time></trkpt><trkpt lat="43.7747394" lon="12.0456957"><ele>910.5</ele><time>2026-04-12T08:35:46.606Z</time></trkpt><trkpt lat="43.7748263" lon="12.0455917"><ele>915.25</ele><time>2026-04-12T08:35:47.607Z</time></trkpt><trkpt lat="43.7749473" lon="12.0455327"><ele>920.0</ele><time>2026-04-12T08:35:48.607Z</time></trkpt><trkpt lat="43.7750939" lon="12.0454893"><ele>914.6666666666667</ele><time>2026-04-12T08:35:49.607Z</time></trkpt><trkpt lat="43.7752521" lon="12.0454262"><ele>909.3333333333333</ele><time>2026-04-12T08:35:50.606Z</time></trkpt><trkpt lat="43.7754057" lon="12.0453485"><ele>904.0</ele><time>2026-04-12T08:35:51.607Z</time></trkpt><trkpt lat="43.7755435" lon="12.045276"><ele>904.0</ele><time>2026-04-12T08:35:52.607Z</time></trkpt><trkpt lat="43.7756619" lon="12.0451818"><ele>904.0</ele><time>2026-04-12T08:35:53.607Z</time></trkpt><trkpt lat="43.7757514" lon="12.0450618"><ele>904.0</ele><time>2026-04-12T08:35:54.607Z</time></trkpt><trkpt lat="43.7758277" lon="12.0449306"><ele>904.0</ele><time>2026-04-12T08:35:55.607Z</time></trkpt><trkpt lat="43.7759192" lon="12.0448143"><ele>908.5</ele><time>2026-04-12T08:35:56.608Z</time></trkpt><trkpt lat="43.7760389" lon="12.0447314"><ele>913.0</ele><time>2026-04-12T08:35:57.608Z</time></trkpt><trkpt lat="43.7761715" lon="12.04469"><ele>917.5</ele><time>2026-04-12T08:35:58.608Z</time></trkpt><trkpt lat="43.7762922" lon="12.0446871"><ele>922.0</ele><time>2026-04-12T08:35:59.608Z</time></trkpt><trkpt lat="43.7763888" lon="12.0447236"><ele>922.0</ele><time>2026-04-12T08:36:00.608Z</time></trkpt><trkpt lat="43.776478" lon="12.0448098"><ele>922.0</ele><time>2026-04-12T08:36:01.608Z</time></trkpt><trkpt lat="43.7765391" lon="12.0449535"><ele>922.0</ele><time>2026-04-12T08:36:02.607Z</time></trkpt><trkpt lat="43.7765624" lon="12.0451416"><ele>922.0</ele><time>2026-04-12T08:36:03.607Z</time></trkpt><trkpt lat="43.7765603" lon="12.0453387"><ele>917.3333333333333</ele><time>2026-04-12T08:36:04.608Z</time></trkpt><trkpt lat="43.7765304" lon="12.0455343"><ele>912.6666666666667</ele><time>2026-04-12T08:36:05.608Z</time></trkpt><trkpt lat="43.7764739" lon="12.0457344"><ele>908.0</ele><time>2026-04-12T08:36:06.608Z</time></trkpt><trkpt lat="43.7763853" lon="12.0459419"><ele>908.0</ele><time>2026-04-12T08:36:07.608Z</time></trkpt><trkpt lat="43.776279" lon="12.046153"><ele>908.0</ele><time>2026-04-12T08:36:08.608Z</time></trkpt><trkpt lat="43.7761812" lon="12.046345"><ele>908.0</ele><time>2026-04-12T08:36:09.607Z</time></trkpt><trkpt lat="43.7760858" lon="12.0465147"><ele>909.5</ele><time>2026-04-12T08:36:10.607Z</time></trkpt><trkpt lat="43.7759721" lon="12.0466418"><ele>911.0</ele><time>2026-04-12T08:36:11.607Z</time></trkpt><trkpt lat="43.775841" lon="12.0467215"><ele>912.5</ele><time>2026-04-12T08:36:12.608Z</time></trkpt><trkpt lat="43.7757178" lon="12.0467672"><ele>914.0</ele><time>2026-04-12T08:36:13.608Z</time></trkpt><trkpt lat="43.7755987" lon="12.0468159"><ele>914.0</ele><time>2026-04-12T08:36:14.608Z</time></trkpt><trkpt lat="43.7754909" lon="12.0469064"><ele>914.0</ele><time>2026-04-12T08:36:15.607Z</time></trkpt><trkpt lat="43.7753794" lon="12.0470291"><ele>914.0</ele><time>2026-04-12T08:36:16.608Z</time></trkpt><trkpt lat="43.7752584" lon="12.0471752"><ele>914.0</ele><time>2026-04-12T08:36:17.607Z</time></trkpt><trkpt lat="43.7751315" lon="12.0473229"><ele>915.25</ele><time>2026-04-12T08:36:18.607Z</time></trkpt><trkpt lat="43.7750035" lon="12.0474485"><ele>916.5</ele><time>2026-04-12T08:36:19.608Z</time></trkpt><trkpt lat="43.7748972" lon="12.0475559"><ele>917.75</ele><time>2026-04-12T08:36:20.608Z</time></trkpt><trkpt lat="43.7748075" lon="12.0476695"><ele>919.0</ele><time>2026-04-12T08:36:21.607Z</time></trkpt><trkpt lat="43.7747255" lon="12.0478152"><ele>919.0</ele><time>2026-04-12T08:36:22.608Z</time></trkpt><trkpt lat="43.7746522" lon="12.0479949"><ele>919.0</ele><time>2026-04-12T08:36:23.608Z</time></trkpt><trkpt lat="43.7745872" lon="12.0481856"><ele>919.0</ele><time>2026-04-12T08:36:24.608Z</time></trkpt><trkpt lat="43.7745322" lon="12.0483566"><ele>919.0</ele><time>2026-04-12T08:36:25.608Z</time></trkpt><trkpt lat="43.7744832" lon="12.0484933"><ele>918.0</ele><time>2026-04-12T08:36:26.608Z</time></trkpt><trkpt lat="43.7744165" lon="12.0486016"><ele>917.0</ele><time>2026-04-12T08:36:27.607Z</time></trkpt><trkpt lat="43.7743179" lon="12.0486843"><ele>916.0</ele><time>2026-04-12T08:36:28.607Z</time></trkpt><trkpt lat="43.7741915" lon="12.0487372"><ele>915.0</ele><time>2026-04-12T08:36:29.607Z</time></trkpt><trkpt lat="43.7740283" lon="12.048755"><ele>915.0</ele><time>2026-04-12T08:36:30.607Z</time></trkpt><trkpt lat="43.7738539" lon="12.0487615"><ele>915.0</ele><time>2026-04-12T08:36:31.608Z</time></trkpt><trkpt lat="43.7736806" lon="12.0487732"><ele>915.0</ele><time>2026-04-12T08:36:32.608Z</time></trkpt><trkpt lat="43.7735095" lon="12.0488103"><ele>911.3333333333333</ele><time>2026-04-12T08:36:33.608Z</time></trkpt><trkpt lat="43.7733327" lon="12.0488932"><ele>907.6666666666666</ele><time>2026-04-12T08:36:34.608Z</time></trkpt><trkpt lat="43.7731581" lon="12.0490022"><ele>904.0</ele><time>2026-04-12T08:36:35.608Z</time></trkpt><trkpt lat="43.772988" lon="12.0490999"><ele>915.6666666666666</ele><time>2026-04-12T08:36:36.608Z</time></trkpt><trkpt lat="43.7728139" lon="12.0491723"><ele>927.3333333333333</ele><time>2026-04-12T08:36:37.608Z</time></trkpt><trkpt lat="43.7726235" lon="12.0492144"><ele>939.0</ele><time>2026-04-12T08:36:38.608Z</time></trkpt><trkpt lat="43.772412" lon="12.0492411"><ele>939.0</ele><time>2026-04-12T08:36:39.607Z</time></trkpt><trkpt lat="43.7721996" lon="12.0492685"><ele>939.0</ele><time>2026-04-12T08:36:40.608Z</time></trkpt><trkpt lat="43.772014" lon="12.0493018"><ele>939.0</ele><time>2026-04-12T08:36:41.608Z</time></trkpt><trkpt lat="43.7718442" lon="12.0493324"><ele>938.5</ele><time>2026-04-12T08:36:42.608Z</time></trkpt><trkpt lat="43.7716901" lon="12.0493698"><ele>938.0</ele><time>2026-04-12T08:36:43.607Z</time></trkpt><trkpt lat="43.771555" lon="12.0494104"><ele>937.5</ele><time>2026-04-12T08:36:44.608Z</time></trkpt><trkpt lat="43.7714339" lon="12.0494502"><ele>937.0</ele><time>2026-04-12T08:36:45.608Z</time></trkpt><trkpt lat="43.7713253" lon="12.0494951"><ele>937.0</ele><time>2026-04-12T08:36:46.607Z</time></trkpt><trkpt lat="43.7712309" lon="12.0495406"><ele>937.0</ele><time>2026-04-12T08:36:47.608Z</time></trkpt><trkpt lat="43.771153" lon="12.0496065"><ele>937.0</ele><time>2026-04-12T08:36:48.608Z</time></trkpt><trkpt lat="43.7710948" lon="12.0497032"><ele>937.0</ele><time>2026-04-12T08:36:49.607Z</time></trkpt><trkpt lat="43.771064" lon="12.0498441"><ele>937.0</ele><time>2026-04-12T08:36:50.608Z</time></trkpt><trkpt lat="43.7710662" lon="12.0500388"><ele>945.6666666666666</ele><time>2026-04-12T08:36:51.607Z</time></trkpt><trkpt lat="43.7710866" lon="12.0502718"><ele>954.3333333333333</ele><time>2026-04-12T08:36:52.607Z</time></trkpt><trkpt lat="43.7710827" lon="12.0505043"><ele>963.0</ele><time>2026-04-12T08:36:53.607Z</time></trkpt><trkpt lat="43.7710462" lon="12.0507214"><ele>961.0</ele><time>2026-04-12T08:36:54.608Z</time></trkpt><trkpt lat="43.7709983" lon="12.0508928"><ele>959.0</ele><time>2026-04-12T08:36:55.608Z</time></trkpt><trkpt lat="43.770924" lon="12.0510282"><ele>957.0</ele><time>2026-04-12T08:36:56.608Z</time></trkpt><trkpt lat="43.7708338" lon="12.0511139"><ele>955.0</ele><time>2026-04-12T08:36:57.607Z</time></trkpt><trkpt lat="43.7707479" lon="12.0511768"><ele>955.0</ele><time>2026-04-12T08:36:58.608Z</time></trkpt><trkpt lat="43.7706824" lon="12.0512597"><ele>955.0</ele><time>2026-04-12T08:36:59.608Z</time></trkpt><trkpt lat="43.7706507" lon="12.0513818"><ele>955.0</ele><time>2026-04-12T08:37:00.608Z</time></trkpt><trkpt lat="43.7706683" lon="12.0515417"><ele>955.0</ele><time>2026-04-12T08:37:01.608Z</time></trkpt><trkpt lat="43.7707343" lon="12.0517365"><ele>958.0</ele><time>2026-04-12T08:37:02.608Z</time></trkpt><trkpt lat="43.7708136" lon="12.0519479"><ele>961.0</ele><time>2026-04-12T08:37:03.608Z</time></trkpt><trkpt lat="43.7708636" lon="12.0521603"><ele>964.0</ele><time>2026-04-12T08:37:04.607Z</time></trkpt><trkpt lat="43.7708773" lon="12.0523624"><ele>965.25</ele><time>2026-04-12T08:37:05.608Z</time></trkpt><trkpt lat="43.7708556" lon="12.0525544"><ele>966.5</ele><time>2026-04-12T08:37:06.608Z</time></trkpt><trkpt lat="43.770785" lon="12.0527315"><ele>967.75</ele><time>2026-04-12T08:37:07.607Z</time></trkpt><trkpt lat="43.7707034" lon="12.0529038"><ele>969.0</ele><time>2026-04-12T08:37:08.607Z</time></trkpt><trkpt lat="43.770646" lon="12.0530914"><ele>969.0</ele><time>2026-04-12T08:37:09.608Z</time></trkpt><trkpt lat="43.7706198" lon="12.0532756"><ele>969.0</ele><time>2026-04-12T08:37:10.607Z</time></trkpt><trkpt lat="43.7705963" lon="12.0534477"><ele>969.0</ele><time>2026-04-12T08:37:11.607Z</time></trkpt><trkpt lat="43.7705401" lon="12.0536104"><ele>969.0</ele><time>2026-04-12T08:37:12.608Z</time></trkpt><trkpt lat="43.7704392" lon="12.0537555"><ele>969.0</ele><time>2026-04-12T08:37:13.607Z</time></trkpt><trkpt lat="43.7703275" lon="12.0538667"><ele>969.0</ele><time>2026-04-12T08:37:14.608Z</time></trkpt><trkpt lat="43.770229" lon="12.0539716"><ele>969.0</ele><time>2026-04-12T08:37:15.608Z</time></trkpt><trkpt lat="43.770152" lon="12.0540876"><ele>969.0</ele><time>2026-04-12T08:37:16.608Z</time></trkpt><trkpt lat="43.7700986" lon="12.0542267"><ele>971.6666666666667</ele><time>2026-04-12T08:37:17.607Z</time></trkpt><trkpt lat="43.7700815" lon="12.054407"><ele>974.3333333333334</ele><time>2026-04-12T08:37:18.608Z</time></trkpt><trkpt lat="43.7700981" lon="12.0546277"><ele>977.0</ele><time>2026-04-12T08:37:19.608Z</time></trkpt><trkpt lat="43.7701268" lon="12.0548507"><ele>978.75</ele><time>2026-04-12T08:37:20.607Z</time></trkpt><trkpt lat="43.7701364" lon="12.0550676"><ele>980.5</ele><time>2026-04-12T08:37:21.607Z</time></trkpt><trkpt lat="43.7701123" lon="12.0552639"><ele>982.25</ele><time>2026-04-12T08:37:22.608Z</time></trkpt><trkpt lat="43.7700765" lon="12.0554464"><ele>984.0</ele><time>2026-04-12T08:37:23.608Z</time></trkpt><trkpt lat="43.7700499" lon="12.0556336"><ele>984.5</ele><time>2026-04-12T08:37:24.607Z</time></trkpt><trkpt lat="43.7700415" lon="12.0558326"><ele>985.0</ele><time>2026-04-12T08:37:25.607Z</time></trkpt><trkpt lat="43.7700498" lon="12.0560384"><ele>985.5</ele><time>2026-04-12T08:37:26.607Z</time></trkpt><trkpt lat="43.7700798" lon="12.0562501"><ele>986.0</ele><time>2026-04-12T08:37:27.608Z</time></trkpt><trkpt lat="43.7701285" lon="12.0564696"><ele>985.0</ele><time>2026-04-12T08:37:28.607Z</time></trkpt><trkpt lat="43.7701768" lon="12.0566972"><ele>984.0</ele><time>2026-04-12T08:37:29.608Z</time></trkpt><trkpt lat="43.7702186" lon="12.0569333"><ele>983.0</ele><time>2026-04-12T08:37:30.608Z</time></trkpt><trkpt lat="43.7702404" lon="12.0571847"><ele>990.6666666666667</ele><time>2026-04-12T08:37:31.608Z</time></trkpt><trkpt lat="43.7702473" lon="12.0574387"><ele>998.3333333333333</ele><time>2026-04-12T08:37:32.608Z</time></trkpt><trkpt lat="43.7702532" lon="12.0576749"><ele>1006.0</ele><time>2026-04-12T08:37:33.607Z</time></trkpt><trkpt lat="43.7702726" lon="12.057891"><ele>1006.0</ele><time>2026-04-12T08:37:34.608Z</time></trkpt><trkpt lat="43.7702976" lon="12.0580794"><ele>1006.0</ele><time>2026-04-12T08:37:35.607Z</time></trkpt><trkpt lat="43.7703426" lon="12.0582675"><ele>1006.0</ele><time>2026-04-12T08:37:36.608Z</time></trkpt><trkpt lat="43.7704228" lon="12.0584537"><ele>1006.0</ele><time>2026-04-12T08:37:37.608Z</time></trkpt><trkpt lat="43.7705385" lon="12.0586413"><ele>1006.0</ele><time>2026-04-12T08:37:38.607Z</time></trkpt><trkpt lat="43.7706636" lon="12.0588293"><ele>1006.0</ele><time>2026-04-12T08:37:39.608Z</time></trkpt><trkpt lat="43.7707647" lon="12.0590186"><ele>1006.0</ele><time>2026-04-12T08:37:40.608Z</time></trkpt><trkpt lat="43.7708431" lon="12.0592241"><ele>1003.0</ele><time>2026-04-12T08:37:41.608Z</time></trkpt><trkpt lat="43.7709185" lon="12.059408"><ele>1000.0</ele><time>2026-04-12T08:37:42.607Z</time></trkpt><trkpt lat="43.7709984" lon="12.0595681"><ele>997.0</ele><time>2026-04-12T08:37:43.608Z</time></trkpt><trkpt lat="43.7710819" lon="12.0597103"><ele>994.0</ele><time>2026-04-12T08:37:44.608Z</time></trkpt><trkpt lat="43.7711569" lon="12.0598364"><ele>997.0</ele><time>2026-04-12T08:37:45.608Z</time></trkpt><trkpt lat="43.7712207" lon="12.0599524"><ele>1000.0000000000001</ele><time>2026-04-12T08:37:46.608Z</time></trkpt><trkpt lat="43.7712817" lon="12.060059"><ele>1003.0000000000001</ele><time>2026-04-12T08:37:47.608Z</time></trkpt><trkpt lat="43.771341" lon="12.0601597"><ele>1006.0</ele><time>2026-04-12T08:37:48.608Z</time></trkpt><trkpt lat="43.7713942" lon="12.0602615"><ele>1009.0</ele><time>2026-04-12T08:37:49.608Z</time></trkpt><trkpt lat="43.7714511" lon="12.0603571"><ele>1009.0</ele><time>2026-04-12T08:37:50.608Z</time></trkpt><trkpt lat="43.7715199" lon="12.0604571"><ele>1009.0</ele><time>2026-04-12T08:37:51.608Z</time></trkpt><trkpt lat="43.7716009" lon="12.0605841"><ele>1009.0</ele><time>2026-04-12T08:37:52.607Z</time></trkpt><trkpt lat="43.7716728" lon="12.0607371"><ele>1009.0</ele><time>2026-04-12T08:37:53.608Z</time></trkpt><trkpt lat="43.7717356" lon="12.060916"><ele>1008.75</ele><time>2026-04-12T08:37:54.608Z</time></trkpt><trkpt lat="43.7717823" lon="12.0611112"><ele>1008.5</ele><time>2026-04-12T08:37:55.608Z</time></trkpt><trkpt lat="43.7718136" lon="12.0613069"><ele>1008.25</ele><time>2026-04-12T08:37:56.607Z</time></trkpt><trkpt lat="43.77184" lon="12.0614915"><ele>1008.0</ele><time>2026-04-12T08:37:57.608Z</time></trkpt><trkpt lat="43.7718641" lon="12.0616692"><ele>1008.0</ele><time>2026-04-12T08:37:58.607Z</time></trkpt><trkpt lat="43.7718847" lon="12.0618287"><ele>1008.0</ele><time>2026-04-12T08:37:59.608Z</time></trkpt><trkpt lat="43.7718967" lon="12.061981"><ele>1008.0</ele><time>2026-04-12T08:38:00.608Z</time></trkpt><trkpt lat="43.7719201" lon="12.0621255"><ele>1008.0</ele><time>2026-04-12T08:38:01.608Z</time></trkpt><trkpt lat="43.7719764" lon="12.0622755"><ele>1008.0</ele><time>2026-04-12T08:38:02.608Z</time></trkpt><trkpt lat="43.7720757" lon="12.0624153"><ele>1008.0</ele><time>2026-04-12T08:38:03.607Z</time></trkpt><trkpt lat="43.7722068" lon="12.0625578"><ele>1008.0</ele><time>2026-04-12T08:38:04.608Z</time></trkpt><trkpt lat="43.7723457" lon="12.0627312"><ele>1004.3333333333333</ele><time>2026-04-12T08:38:05.608Z</time></trkpt><trkpt lat="43.7724596" lon="12.0629104"><ele>1000.6666666666666</ele><time>2026-04-12T08:38:06.608Z</time></trkpt><trkpt lat="43.7725497" lon="12.0630788"><ele>997.0</ele><time>2026-04-12T08:38:07.607Z</time></trkpt><trkpt lat="43.7726253" lon="12.0632329"><ele>994.5</ele><time>2026-04-12T08:38:08.608Z</time></trkpt><trkpt lat="43.7726821" lon="12.0633999"><ele>992.0</ele><time>2026-04-12T08:38:09.608Z</time></trkpt><trkpt lat="43.772722" lon="12.0635985"><ele>989.5</ele><time>2026-04-12T08:38:10.607Z</time></trkpt><trkpt lat="43.7727564" lon="12.0638056"><ele>987.0</ele><time>2026-04-12T08:38:11.608Z</time></trkpt><trkpt lat="43.772814" lon="12.0640179"><ele>990.0</ele><time>2026-04-12T08:38:12.608Z</time></trkpt><trkpt lat="43.77288" lon="12.0642091"><ele>993.0</ele><time>2026-04-12T08:38:13.608Z</time></trkpt><trkpt lat="43.7729472" lon="12.0643874"><ele>996.0</ele><time>2026-04-12T08:38:14.607Z</time></trkpt><trkpt lat="43.7730268" lon="12.0645647"><ele>999.0</ele><time>2026-04-12T08:38:15.608Z</time></trkpt><trkpt lat="43.7731162" lon="12.0647417"><ele>999.0</ele><time>2026-04-12T08:38:16.608Z</time></trkpt><trkpt lat="43.7732136" lon="12.0649066"><ele>999.0</ele><time>2026-04-12T08:38:17.607Z</time></trkpt><trkpt lat="43.7733045" lon="12.0650625"><ele>999.0</ele><time>2026-04-12T08:38:18.607Z</time></trkpt><trkpt lat="43.7733795" lon="12.0652301"><ele>999.0</ele><time>2026-04-12T08:38:19.608Z</time></trkpt><trkpt lat="43.7734269" lon="12.0654103"><ele>997.5</ele><time>2026-04-12T08:38:20.608Z</time></trkpt><trkpt lat="43.7734415" lon="12.0655993"><ele>996.0</ele><time>2026-04-12T08:38:21.608Z</time></trkpt><trkpt lat="43.7734345" lon="12.0657722"><ele>994.5</ele><time>2026-04-12T08:38:22.607Z</time></trkpt><trkpt lat="43.7734485" lon="12.0659566"><ele>993.0</ele><time>2026-04-12T08:38:23.608Z</time></trkpt><trkpt lat="43.7735138" lon="12.0661674"><ele>995.0</ele><time>2026-04-12T08:38:24.607Z</time></trkpt><trkpt lat="43.773597" lon="12.0664"><ele>997.0</ele><time>2026-04-12T08:38:25.608Z</time></trkpt><trkpt lat="43.7736751" lon="12.0666178"><ele>999.0</ele><time>2026-04-12T08:38:26.607Z</time></trkpt><trkpt lat="43.7737367" lon="12.0668215"><ele>999.0</ele><time>2026-04-12T08:38:27.608Z</time></trkpt><trkpt lat="43.7737941" lon="12.067007"><ele>999.0</ele><time>2026-04-12T08:38:28.607Z</time></trkpt><trkpt lat="43.7738509" lon="12.0671857"><ele>999.0</ele><time>2026-04-12T08:38:29.608Z</time></trkpt><trkpt lat="43.773896" lon="12.0673741"><ele>999.0</ele><time>2026-04-12T08:38:30.607Z</time></trkpt><trkpt lat="43.7739163" lon="12.0675766"><ele>1000.0</ele><time>2026-04-12T08:38:31.608Z</time></trkpt><trkpt lat="43.7739173" lon="12.0677999"><ele>1001.0</ele><time>2026-04-12T08:38:32.608Z</time></trkpt><trkpt lat="43.7739079" lon="12.0680332"><ele>1002.0</ele><time>2026-04-12T08:38:33.608Z</time></trkpt><trkpt lat="43.7739182" lon="12.0682668"><ele>1003.6666666666667</ele><time>2026-04-12T08:38:34.607Z</time></trkpt><trkpt lat="43.7739459" lon="12.0684807"><ele>1005.3333333333334</ele><time>2026-04-12T08:38:35.607Z</time></trkpt><trkpt lat="43.7739592" lon="12.0686802"><ele>1007.0</ele><time>2026-04-12T08:38:36.607Z</time></trkpt><trkpt lat="43.7739513" lon="12.0688968"><ele>1009.3333333333334</ele><time>2026-04-12T08:38:37.608Z</time></trkpt><trkpt lat="43.7739008" lon="12.0691182"><ele>1011.6666666666667</ele><time>2026-04-12T08:38:38.608Z</time></trkpt><trkpt lat="43.7738442" lon="12.0693358"><ele>1014.0</ele><time>2026-04-12T08:38:39.607Z</time></trkpt><trkpt lat="43.7738042" lon="12.069548"><ele>1014.0</ele><time>2026-04-12T08:38:40.608Z</time></trkpt><trkpt lat="43.7737628" lon="12.0697613"><ele>1014.0</ele><time>2026-04-12T08:38:41.607Z</time></trkpt><trkpt lat="43.7737028" lon="12.0699745"><ele>1014.0</ele><time>2026-04-12T08:38:42.607Z</time></trkpt><trkpt lat="43.7736207" lon="12.0701612"><ele>1018.0</ele><time>2026-04-12T08:38:43.608Z</time></trkpt><trkpt lat="43.7735309" lon="12.0703298"><ele>1022.0</ele><time>2026-04-12T08:38:44.608Z</time></trkpt><trkpt lat="43.7734539" lon="12.0705136"><ele>1026.0</ele><time>2026-04-12T08:38:45.608Z</time></trkpt><trkpt lat="43.7733993" lon="12.0707123"><ele>1020.75</ele><time>2026-04-12T08:38:46.607Z</time></trkpt><trkpt lat="43.7733678" lon="12.0709104"><ele>1015.5</ele><time>2026-04-12T08:38:47.608Z</time></trkpt><trkpt lat="43.7733543" lon="12.0710946"><ele>1010.25</ele><time>2026-04-12T08:38:48.607Z</time></trkpt><trkpt lat="43.7733612" lon="12.0712583"><ele>1005.0</ele><time>2026-04-12T08:38:49.607Z</time></trkpt><trkpt lat="43.773376" lon="12.0713984"><ele>1005.0</ele><time>2026-04-12T08:38:50.608Z</time></trkpt><trkpt lat="43.7733699" lon="12.0715215"><ele>1005.0</ele><time>2026-04-12T08:38:51.607Z</time></trkpt><trkpt lat="43.7733233" lon="12.0716413"><ele>1005.0</ele><time>2026-04-12T08:38:52.608Z</time></trkpt><trkpt lat="43.7732222" lon="12.0717623"><ele>1005.0</ele><time>2026-04-12T08:38:53.608Z</time></trkpt><trkpt lat="43.773092" lon="12.0718891"><ele>1007.0</ele><time>2026-04-12T08:38:54.608Z</time></trkpt><trkpt lat="43.7729623" lon="12.0720234"><ele>1009.0</ele><time>2026-04-12T08:38:55.608Z</time></trkpt><trkpt lat="43.7728447" lon="12.0721646"><ele>1011.0</ele><time>2026-04-12T08:38:56.608Z</time></trkpt><trkpt lat="43.7727401" lon="12.0723316"><ele>1009.0</ele><time>2026-04-12T08:38:57.608Z</time></trkpt><trkpt lat="43.7726453" lon="12.0725402"><ele>1007.0</ele><time>2026-04-12T08:38:58.607Z</time></trkpt><trkpt lat="43.7725631" lon="12.0727552"><ele>1005.0</ele><time>2026-04-12T08:38:59.608Z</time></trkpt><trkpt lat="43.7724888" lon="12.0729455"><ele>1005.0</ele><time>2026-04-12T08:39:00.608Z</time></trkpt><trkpt lat="43.7724209" lon="12.0731147"><ele>1005.0</ele><time>2026-04-12T08:39:01.608Z</time></trkpt><trkpt lat="43.7723758" lon="12.0732821"><ele>1005.0</ele><time>2026-04-12T08:39:02.608Z</time></trkpt><trkpt lat="43.7723551" lon="12.0734792"><ele>1005.0</ele><time>2026-04-12T08:39:03.608Z</time></trkpt><trkpt lat="43.7723514" lon="12.073711"><ele>1008.0</ele><time>2026-04-12T08:39:04.608Z</time></trkpt><trkpt lat="43.7723473" lon="12.0739627"><ele>1011.0</ele><time>2026-04-12T08:39:05.608Z</time></trkpt><trkpt lat="43.7723326" lon="12.0742379"><ele>1014.0</ele><time>2026-04-12T08:39:06.608Z</time></trkpt><trkpt lat="43.7723078" lon="12.0745331"><ele>1015.0</ele><time>2026-04-12T08:39:07.607Z</time></trkpt><trkpt lat="43.7722857" lon="12.0748292"><ele>1016.0</ele><time>2026-04-12T08:39:08.607Z</time></trkpt><trkpt lat="43.772265" lon="12.0751105"><ele>1017.0</ele><time>2026-04-12T08:39:09.608Z</time></trkpt><trkpt lat="43.7722436" lon="12.0753833"><ele>1017.0</ele><time>2026-04-12T08:39:10.607Z</time></trkpt><trkpt lat="43.7722198" lon="12.0756392"><ele>1017.0</ele><time>2026-04-12T08:39:11.608Z</time></trkpt><trkpt lat="43.7721954" lon="12.0758841"><ele>1017.0</ele><time>2026-04-12T08:39:12.608Z</time></trkpt><trkpt lat="43.7721769" lon="12.0761154"><ele>1018.0</ele><time>2026-04-12T08:39:13.607Z</time></trkpt><trkpt lat="43.7721576" lon="12.0763277"><ele>1019.0</ele><time>2026-04-12T08:39:14.607Z</time></trkpt><trkpt lat="43.7721464" lon="12.0765237"><ele>1020.0</ele><time>2026-04-12T08:39:15.607Z</time></trkpt><trkpt lat="43.7721373" lon="12.0767132"><ele>1021.0</ele><time>2026-04-12T08:39:16.607Z</time></trkpt><trkpt lat="43.7721432" lon="12.0769089"><ele>1021.0</ele><time>2026-04-12T08:39:17.608Z</time></trkpt><trkpt lat="43.7721777" lon="12.0770946"><ele>1021.0</ele><time>2026-04-12T08:39:18.608Z</time></trkpt><trkpt lat="43.7722225" lon="12.0772655"><ele>1021.0</ele><time>2026-04-12T08:39:19.608Z</time></trkpt><trkpt lat="43.7722854" lon="12.0774145"><ele>1021.0</ele><time>2026-04-12T08:39:20.608Z</time></trkpt><trkpt lat="43.772371" lon="12.0775424"><ele>1021.6666666666666</ele><time>2026-04-12T08:39:21.608Z</time></trkpt><trkpt lat="43.7724939" lon="12.0776466"><ele>1022.3333333333333</ele><time>2026-04-12T08:39:22.607Z</time></trkpt><trkpt lat="43.772652" lon="12.0777431"><ele>1023.0</ele><time>2026-04-12T08:39:23.607Z</time></trkpt><trkpt lat="43.7728356" lon="12.0778439"><ele>1023.0</ele><time>2026-04-12T08:39:24.608Z</time></trkpt><trkpt lat="43.7730284" lon="12.0779559"><ele>1023.0</ele><time>2026-04-12T08:39:25.607Z</time></trkpt><trkpt lat="43.7732093" lon="12.0780679"><ele>1023.0</ele><time>2026-04-12T08:39:26.608Z</time></trkpt><trkpt lat="43.7733756" lon="12.0781689"><ele>1022.3333333333333</ele><time>2026-04-12T08:39:27.607Z</time></trkpt><trkpt lat="43.7735381" lon="12.0782563"><ele>1021.6666666666666</ele><time>2026-04-12T08:39:28.608Z</time></trkpt><trkpt lat="43.7737056" lon="12.078326"><ele>1021.0</ele><time>2026-04-12T08:39:29.607Z</time></trkpt><trkpt lat="43.7738802" lon="12.078364"><ele>1021.0</ele><time>2026-04-12T08:39:30.608Z</time></trkpt><trkpt lat="43.7740491" lon="12.0783887"><ele>1021.0</ele><time>2026-04-12T08:39:31.607Z</time></trkpt><trkpt lat="43.7742078" lon="12.0784141"><ele>1021.0</ele><time>2026-04-12T08:39:32.608Z</time></trkpt><trkpt lat="43.7743459" lon="12.0784448"><ele>1023.5</ele><time>2026-04-12T08:39:33.608Z</time></trkpt><trkpt lat="43.7744667" lon="12.0784817"><ele>1026.0</ele><time>2026-04-12T08:39:34.608Z</time></trkpt><trkpt lat="43.7745833" lon="12.0785417"><ele>1028.5</ele><time>2026-04-12T08:39:35.608Z</time></trkpt><trkpt lat="43.7746767" lon="12.078645"><ele>1031.0</ele><time>2026-04-12T08:39:36.607Z</time></trkpt><trkpt lat="43.7747283" lon="12.0787983"><ele>1031.0</ele><time>2026-04-12T08:39:37.608Z</time></trkpt><trkpt lat="43.774755" lon="12.0789533"><ele>1031.0</ele><time>2026-04-12T08:39:38.607Z</time></trkpt><trkpt lat="43.774725" lon="12.0791383"><ele>1031.0</ele><time>2026-04-12T08:39:39.608Z</time></trkpt><trkpt lat="43.7746483" lon="12.079305"><ele>1031.0</ele><time>2026-04-12T08:39:40.608Z</time></trkpt><trkpt lat="43.7745133" lon="12.079415"><ele>1031.25</ele><time>2026-04-12T08:39:41.608Z</time></trkpt><trkpt lat="43.7743867" lon="12.079475"><ele>1031.5</ele><time>2026-04-12T08:39:42.607Z</time></trkpt><trkpt lat="43.7742583" lon="12.079515"><ele>1031.75</ele><time>2026-04-12T08:39:43.608Z</time></trkpt><trkpt lat="43.774145" lon="12.0795633"><ele>1032.0</ele><time>2026-04-12T08:39:44.608Z</time></trkpt><trkpt lat="43.7740517" lon="12.0796567"><ele>1032.0</ele><time>2026-04-12T08:39:45.607Z</time></trkpt><trkpt lat="43.7739833" lon="12.0797967"><ele>1032.0</ele><time>2026-04-12T08:39:46.607Z</time></trkpt><trkpt lat="43.7739417" lon="12.0799917"><ele>1032.0</ele><time>2026-04-12T08:39:47.607Z</time></trkpt><trkpt lat="43.7739167" lon="12.0802"><ele>1032.0</ele><time>2026-04-12T08:39:48.607Z</time></trkpt><trkpt lat="43.7738767" lon="12.080385"><ele>1032.0</ele><time>2026-04-12T08:39:49.607Z</time></trkpt><trkpt lat="43.77382" lon="12.0805417"><ele>1032.0</ele><time>2026-04-12T08:39:50.607Z</time></trkpt><trkpt lat="43.7737483" lon="12.0806767"><ele>1032.0</ele><time>2026-04-12T08:39:51.607Z</time></trkpt><trkpt lat="43.7736833" lon="12.0807917"><ele>1032.0</ele><time>2026-04-12T08:39:52.608Z</time></trkpt><trkpt lat="43.7736217" lon="12.0808967"><ele>1032.6</ele><time>2026-04-12T08:39:53.607Z</time></trkpt><trkpt lat="43.7735667" lon="12.0810017"><ele>1033.2</ele><time>2026-04-12T08:39:54.608Z</time></trkpt><trkpt lat="43.7735217" lon="12.0810983"><ele>1033.8</ele><time>2026-04-12T08:39:55.607Z</time></trkpt><trkpt lat="43.7734933" lon="12.0811933"><ele>1034.4</ele><time>2026-04-12T08:39:56.608Z</time></trkpt><trkpt lat="43.773515" lon="12.081375"><ele>1035.0</ele><time>2026-04-12T08:39:58.608Z</time></trkpt><trkpt lat="43.7735667" lon="12.081465"><ele>1035.0</ele><time>2026-04-12T08:39:59.608Z</time></trkpt><trkpt lat="43.77365" lon="12.081545"><ele>1035.0</ele><time>2026-04-12T08:40:00.608Z</time></trkpt><trkpt lat="43.77374" lon="12.0816283"><ele>1035.0</ele><time>2026-04-12T08:40:01.608Z</time></trkpt><trkpt lat="43.77383" lon="12.0817067"><ele>1035.0</ele><time>2026-04-12T08:40:02.608Z</time></trkpt><trkpt lat="43.7739167" lon="12.0817733"><ele>1035.0</ele><time>2026-04-12T08:40:03.608Z</time></trkpt><trkpt lat="43.7740033" lon="12.08184"><ele>1034.75</ele><time>2026-04-12T08:40:04.608Z</time></trkpt><trkpt lat="43.7740883" lon="12.08191"><ele>1034.5</ele><time>2026-04-12T08:40:05.608Z</time></trkpt><trkpt lat="43.7741983" lon="12.08197"><ele>1034.25</ele><time>2026-04-12T08:40:06.607Z</time></trkpt><trkpt lat="43.77431" lon="12.082025"><ele>1034.0</ele><time>2026-04-12T08:40:07.608Z</time></trkpt><trkpt lat="43.77442" lon="12.0820767"><ele>1036.75</ele><time>2026-04-12T08:40:08.608Z</time></trkpt><trkpt lat="43.7745336" lon="12.0821256"><ele>1039.5</ele><time>2026-04-12T08:40:09.607Z</time></trkpt><trkpt lat="43.7746511" lon="12.0821752"><ele>1042.25</ele><time>2026-04-12T08:40:10.608Z</time></trkpt><trkpt lat="43.7747701" lon="12.0822152"><ele>1045.0</ele><time>2026-04-12T08:40:11.607Z</time></trkpt><trkpt lat="43.7748841" lon="12.0822472"><ele>1045.0</ele><time>2026-04-12T08:40:12.607Z</time></trkpt><trkpt lat="43.774992" lon="12.0822719"><ele>1045.0</ele><time>2026-04-12T08:40:13.608Z</time></trkpt><trkpt lat="43.7750873" lon="12.0822954"><ele>1045.0</ele><time>2026-04-12T08:40:14.608Z</time></trkpt><trkpt lat="43.7751781" lon="12.082335"><ele>1045.0</ele><time>2026-04-12T08:40:15.608Z</time></trkpt><trkpt lat="43.7752657" lon="12.0824019"><ele>1045.0</ele><time>2026-04-12T08:40:16.608Z</time></trkpt><trkpt lat="43.775339" lon="12.0825073"><ele>1047.5</ele><time>2026-04-12T08:40:17.608Z</time></trkpt><trkpt lat="43.7753809" lon="12.0826606"><ele>1050.0</ele><time>2026-04-12T08:40:18.608Z</time></trkpt><trkpt lat="43.7754042" lon="12.0828472"><ele>1052.5</ele><time>2026-04-12T08:40:19.608Z</time></trkpt><trkpt lat="43.7754311" lon="12.083039"><ele>1055.0</ele><time>2026-04-12T08:40:20.607Z</time></trkpt><trkpt lat="43.7754536" lon="12.0832253"><ele>1055.25</ele><time>2026-04-12T08:40:21.608Z</time></trkpt><trkpt lat="43.7754845" lon="12.0833965"><ele>1055.5</ele><time>2026-04-12T08:40:22.607Z</time></trkpt><trkpt lat="43.7755437" lon="12.0835493"><ele>1055.75</ele><time>2026-04-12T08:40:23.608Z</time></trkpt><trkpt lat="43.7756307" lon="12.0836815"><ele>1056.0</ele><time>2026-04-12T08:40:24.607Z</time></trkpt><trkpt lat="43.7757459" lon="12.0837965"><ele>1056.0</ele><time>2026-04-12T08:40:25.607Z</time></trkpt><trkpt lat="43.7758688" lon="12.0839015"><ele>1056.0</ele><time>2026-04-12T08:40:26.607Z</time></trkpt><trkpt lat="43.7759829" lon="12.0839989"><ele>1056.0</ele><time>2026-04-12T08:40:27.608Z</time></trkpt><trkpt lat="43.7760866" lon="12.0841142"><ele>1056.0</ele><time>2026-04-12T08:40:28.608Z</time></trkpt><trkpt lat="43.7761733" lon="12.0842653"><ele>1058.3333333333333</ele><time>2026-04-12T08:40:29.607Z</time></trkpt><trkpt lat="43.7762428" lon="12.0844419"><ele>1060.6666666666665</ele><time>2026-04-12T08:40:30.608Z</time></trkpt><trkpt lat="43.7762919" lon="12.0846497"><ele>1063.0</ele><time>2026-04-12T08:40:31.608Z</time></trkpt><trkpt lat="43.7763207" lon="12.084887"><ele>1063.3333333333333</ele><time>2026-04-12T08:40:32.608Z</time></trkpt><trkpt lat="43.7763291" lon="12.0851341"><ele>1063.6666666666667</ele><time>2026-04-12T08:40:33.608Z</time></trkpt><trkpt lat="43.776324" lon="12.0853887"><ele>1064.0</ele><time>2026-04-12T08:40:34.607Z</time></trkpt><trkpt lat="43.7763172" lon="12.0856452"><ele>1066.0</ele><time>2026-04-12T08:40:35.608Z</time></trkpt><trkpt lat="43.7763045" lon="12.0859037"><ele>1068.0</ele><time>2026-04-12T08:40:36.608Z</time></trkpt><trkpt lat="43.7762894" lon="12.0861506"><ele>1070.0</ele><time>2026-04-12T08:40:37.607Z</time></trkpt><trkpt lat="43.7762732" lon="12.0863784"><ele>1070.0</ele><time>2026-04-12T08:40:38.608Z</time></trkpt><trkpt lat="43.7762562" lon="12.0865854"><ele>1070.0</ele><time>2026-04-12T08:40:39.608Z</time></trkpt><trkpt lat="43.7762465" lon="12.0867867"><ele>1070.0</ele><time>2026-04-12T08:40:40.608Z</time></trkpt><trkpt lat="43.7762422" lon="12.0869851"><ele>1070.0</ele><time>2026-04-12T08:40:41.608Z</time></trkpt><trkpt lat="43.7762541" lon="12.0871778"><ele>1071.25</ele><time>2026-04-12T08:40:42.608Z</time></trkpt><trkpt lat="43.7762879" lon="12.0873596"><ele>1072.5</ele><time>2026-04-12T08:40:43.608Z</time></trkpt><trkpt lat="43.7763336" lon="12.0875281"><ele>1073.75</ele><time>2026-04-12T08:40:44.608Z</time></trkpt><trkpt lat="43.7763834" lon="12.0876739"><ele>1075.0</ele><time>2026-04-12T08:40:45.608Z</time></trkpt><trkpt lat="43.776424" lon="12.0877968"><ele>1075.8</ele><time>2026-04-12T08:40:46.608Z</time></trkpt><trkpt lat="43.7764568" lon="12.0878951"><ele>1076.6</ele><time>2026-04-12T08:40:47.607Z</time></trkpt><trkpt lat="43.7764867" lon="12.088018"><ele>1077.4</ele><time>2026-04-12T08:40:49.607Z</time></trkpt><trkpt lat="43.7764489" lon="12.0881229"><ele>1078.2</ele><time>2026-04-12T08:40:52.607Z</time></trkpt><trkpt lat="43.7763291" lon="12.0882086"><ele>1079.0</ele><time>2026-04-12T08:40:54.607Z</time></trkpt><trkpt lat="43.7762296" lon="12.0882655"><ele>1079.5</ele><time>2026-04-12T08:40:55.607Z</time></trkpt><trkpt lat="43.7761136" lon="12.0883373"><ele>1080.0</ele><time>2026-04-12T08:40:56.607Z</time></trkpt><trkpt lat="43.7759931" lon="12.0884141"><ele>1080.5</ele><time>2026-04-12T08:40:57.607Z</time></trkpt><trkpt lat="43.7758766" lon="12.0884879"><ele>1081.0</ele><time>2026-04-12T08:40:58.607Z</time></trkpt><trkpt lat="43.7757544" lon="12.0885602"><ele>1079.3333333333333</ele><time>2026-04-12T08:40:59.608Z</time></trkpt><trkpt lat="43.7756187" lon="12.0886075"><ele>1077.6666666666667</ele><time>2026-04-12T08:41:00.608Z</time></trkpt><trkpt lat="43.7754692" lon="12.0886085"><ele>1076.0</ele><time>2026-04-12T08:41:01.608Z</time></trkpt><trkpt lat="43.7753083" lon="12.0885681"><ele>1071.6666666666667</ele><time>2026-04-12T08:41:02.608Z</time></trkpt><trkpt lat="43.7751422" lon="12.0885152"><ele>1067.3333333333333</ele><time>2026-04-12T08:41:03.608Z</time></trkpt><trkpt lat="43.7749787" lon="12.0884733"><ele>1063.0</ele><time>2026-04-12T08:41:04.608Z</time></trkpt><trkpt lat="43.7748174" lon="12.0884697"><ele>1063.0</ele><time>2026-04-12T08:41:05.608Z</time></trkpt><trkpt lat="43.7746424" lon="12.0885129"><ele>1063.0</ele><time>2026-04-12T08:41:06.608Z</time></trkpt><trkpt lat="43.7744576" lon="12.0886068"><ele>1063.0</ele><time>2026-04-12T08:41:07.608Z</time></trkpt><trkpt lat="43.774256" lon="12.0887386"><ele>1062.5</ele><time>2026-04-12T08:41:08.607Z</time></trkpt><trkpt lat="43.7740355" lon="12.088889"><ele>1062.0</ele><time>2026-04-12T08:41:09.608Z</time></trkpt><trkpt lat="43.7737958" lon="12.0890473"><ele>1059.0</ele><time>2026-04-12T08:41:10.608Z</time></trkpt><trkpt lat="43.7735406" lon="12.0892153"><ele>1056.0</ele><time>2026-04-12T08:41:11.608Z</time></trkpt><trkpt lat="43.7732724" lon="12.0893895"><ele>1054.5</ele><time>2026-04-12T08:41:12.607Z</time></trkpt><trkpt lat="43.7730075" lon="12.0895497"><ele>1053.0</ele><time>2026-04-12T08:41:13.607Z</time></trkpt><trkpt lat="43.7727541" lon="12.0897026"><ele>1052.5</ele><time>2026-04-12T08:41:14.607Z</time></trkpt><trkpt lat="43.7725117" lon="12.089845"><ele>1052.0</ele><time>2026-04-12T08:41:15.607Z</time></trkpt><trkpt lat="43.7722783" lon="12.08999"><ele>1049.5</ele><time>2026-04-12T08:41:16.607Z</time></trkpt><trkpt lat="43.772055" lon="12.0901267"><ele>1047.0</ele><time>2026-04-12T08:41:17.607Z</time></trkpt><trkpt lat="43.7718367" lon="12.0902583"><ele>1046.0</ele><time>2026-04-12T08:41:18.607Z</time></trkpt><trkpt lat="43.77163" lon="12.0903883"><ele>1045.0</ele><time>2026-04-12T08:41:19.607Z</time></trkpt><trkpt lat="43.7714283" lon="12.090515"><ele>1044.0</ele><time>2026-04-12T08:41:20.608Z</time></trkpt><trkpt lat="43.77124" lon="12.0906333"><ele>1044.0</ele><time>2026-04-12T08:41:21.608Z</time></trkpt><trkpt lat="43.7710567" lon="12.09075"><ele>1044.0</ele><time>2026-04-12T08:41:22.608Z</time></trkpt><trkpt lat="43.7708717" lon="12.090875"><ele>1044.0</ele><time>2026-04-12T08:41:23.608Z</time></trkpt><trkpt lat="43.7706783" lon="12.0910017"><ele>1042.0</ele><time>2026-04-12T08:41:24.608Z</time></trkpt><trkpt lat="43.770475" lon="12.0911317"><ele>1040.0</ele><time>2026-04-12T08:41:25.608Z</time></trkpt><trkpt lat="43.7702567" lon="12.0912683"><ele>1039.5</ele><time>2026-04-12T08:41:26.608Z</time></trkpt><trkpt lat="43.77003" lon="12.0914133"><ele>1039.0</ele><time>2026-04-12T08:41:27.608Z</time></trkpt><trkpt lat="43.7698033" lon="12.091555"><ele>1035.0</ele><time>2026-04-12T08:41:28.608Z</time></trkpt><trkpt lat="43.7695833" lon="12.09169"><ele>1031.0</ele><time>2026-04-12T08:41:29.608Z</time></trkpt><trkpt lat="43.769375" lon="12.09181"><ele>1029.3333333333335</ele><time>2026-04-12T08:41:30.608Z</time></trkpt><trkpt lat="43.7691783" lon="12.091935"><ele>1027.6666666666667</ele><time>2026-04-12T08:41:31.608Z</time></trkpt><trkpt lat="43.768985" lon="12.09206"><ele>1026.0</ele><time>2026-04-12T08:41:32.608Z</time></trkpt><trkpt lat="43.7688017" lon="12.0921783"><ele>1026.0</ele><time>2026-04-12T08:41:33.608Z</time></trkpt><trkpt lat="43.7686317" lon="12.092285"><ele>1026.0</ele><time>2026-04-12T08:41:34.608Z</time></trkpt><trkpt lat="43.7684767" lon="12.0923783"><ele>1026.0</ele><time>2026-04-12T08:41:35.607Z</time></trkpt><trkpt lat="43.76833" lon="12.09247"><ele>1024.6666666666667</ele><time>2026-04-12T08:41:36.608Z</time></trkpt><trkpt lat="43.76819" lon="12.0925583"><ele>1023.3333333333334</ele><time>2026-04-12T08:41:37.608Z</time></trkpt><trkpt lat="43.76807" lon="12.0926733"><ele>1022.0</ele><time>2026-04-12T08:41:38.608Z</time></trkpt><trkpt lat="43.7679633" lon="12.0928333"><ele>1022.0</ele><time>2026-04-12T08:41:39.607Z</time></trkpt><trkpt lat="43.76788" lon="12.09303"><ele>1022.0</ele><time>2026-04-12T08:41:40.608Z</time></trkpt><trkpt lat="43.7678017" lon="12.0932183"><ele>1022.0</ele><time>2026-04-12T08:41:41.608Z</time></trkpt><trkpt lat="43.7677167" lon="12.0933817"><ele>1020.0</ele><time>2026-04-12T08:41:42.607Z</time></trkpt><trkpt lat="43.7676183" lon="12.0935283"><ele>1018.0</ele><time>2026-04-12T08:41:43.607Z</time></trkpt><trkpt lat="43.7674917" lon="12.0936483"><ele>1016.0</ele><time>2026-04-12T08:41:44.608Z</time></trkpt><trkpt lat="43.7673417" lon="12.093745"><ele>1016.0</ele><time>2026-04-12T08:41:45.608Z</time></trkpt><trkpt lat="43.7671867" lon="12.0938117"><ele>1016.0</ele><time>2026-04-12T08:41:46.608Z</time></trkpt><trkpt lat="43.767045" lon="12.093875"><ele>1016.0</ele><time>2026-04-12T08:41:47.607Z</time></trkpt><trkpt lat="43.7669133" lon="12.093945"><ele>1011.3333333333334</ele><time>2026-04-12T08:41:48.608Z</time></trkpt><trkpt lat="43.7667867" lon="12.09406"><ele>1006.6666666666667</ele><time>2026-04-12T08:41:49.607Z</time></trkpt><trkpt lat="43.7666681" lon="12.0942158"><ele>1002.0</ele><time>2026-04-12T08:41:50.608Z</time></trkpt><trkpt lat="43.7665616" lon="12.0944213"><ele>1001.6666666666667</ele><time>2026-04-12T08:41:51.608Z</time></trkpt><trkpt lat="43.7664609" lon="12.0946589"><ele>1001.3333333333334</ele><time>2026-04-12T08:41:52.608Z</time></trkpt><trkpt lat="43.7663573" lon="12.0949138"><ele>1001.0</ele><time>2026-04-12T08:41:53.607Z</time></trkpt><trkpt lat="43.7662519" lon="12.0951665"><ele>1000.3333333333334</ele><time>2026-04-12T08:41:54.608Z</time></trkpt><trkpt lat="43.7661448" lon="12.0954015"><ele>999.6666666666667</ele><time>2026-04-12T08:41:55.608Z</time></trkpt><trkpt lat="43.7660339" lon="12.0956197"><ele>999.0</ele><time>2026-04-12T08:41:56.608Z</time></trkpt><trkpt lat="43.7659103" lon="12.0958193"><ele>998.0</ele><time>2026-04-12T08:41:57.608Z</time></trkpt><trkpt lat="43.7657604" lon="12.0959967"><ele>997.0</ele><time>2026-04-12T08:41:58.608Z</time></trkpt><trkpt lat="43.7655841" lon="12.0961631"><ele>996.0</ele><time>2026-04-12T08:41:59.608Z</time></trkpt><trkpt lat="43.7653902" lon="12.096325"><ele>996.5</ele><time>2026-04-12T08:42:00.608Z</time></trkpt><trkpt lat="43.7651903" lon="12.0964876"><ele>997.0</ele><time>2026-04-12T08:42:01.607Z</time></trkpt><trkpt lat="43.764988" lon="12.0966578"><ele>997.0</ele><time>2026-04-12T08:42:02.607Z</time></trkpt><trkpt lat="43.7647768" lon="12.0968372"><ele>997.0</ele><time>2026-04-12T08:42:03.608Z</time></trkpt><trkpt lat="43.7645641" lon="12.0970198"><ele>997.0</ele><time>2026-04-12T08:42:04.608Z</time></trkpt><trkpt lat="43.7643659" lon="12.0971921"><ele>997.0</ele><time>2026-04-12T08:42:05.607Z</time></trkpt><trkpt lat="43.7641838" lon="12.0973515"><ele>997.0</ele><time>2026-04-12T08:42:06.608Z</time></trkpt><trkpt lat="43.7640103" lon="12.0974977"><ele>999.0</ele><time>2026-04-12T08:42:07.608Z</time></trkpt><trkpt lat="43.7638546" lon="12.0976363"><ele>1001.0</ele><time>2026-04-12T08:42:08.607Z</time></trkpt><trkpt lat="43.7637029" lon="12.0977628"><ele>1003.0</ele><time>2026-04-12T08:42:09.608Z</time></trkpt><trkpt lat="43.7635451" lon="12.0978625"><ele>1003.6666666666666</ele><time>2026-04-12T08:42:10.607Z</time></trkpt><trkpt lat="43.7633705" lon="12.0979142"><ele>1004.3333333333333</ele><time>2026-04-12T08:42:11.607Z</time></trkpt><trkpt lat="43.7631774" lon="12.0979184"><ele>1005.0</ele><time>2026-04-12T08:42:12.608Z</time></trkpt><trkpt lat="43.7629849" lon="12.097888"><ele>1005.0</ele><time>2026-04-12T08:42:13.607Z</time></trkpt><trkpt lat="43.7628024" lon="12.0978526"><ele>1005.0</ele><time>2026-04-12T08:42:14.608Z</time></trkpt><trkpt lat="43.7626302" lon="12.0978332"><ele>1005.0</ele><time>2026-04-12T08:42:15.607Z</time></trkpt><trkpt lat="43.7624672" lon="12.0978261"><ele>1005.5</ele><time>2026-04-12T08:42:16.607Z</time></trkpt><trkpt lat="43.7623223" lon="12.0978323"><ele>1006.0</ele><time>2026-04-12T08:42:17.608Z</time></trkpt><trkpt lat="43.7622022" lon="12.0978544"><ele>1006.5</ele><time>2026-04-12T08:42:18.608Z</time></trkpt><trkpt lat="43.7620948" lon="12.0979269"><ele>1007.0</ele><time>2026-04-12T08:42:19.607Z</time></trkpt><trkpt lat="43.7619894" lon="12.0980555"><ele>1007.0</ele><time>2026-04-12T08:42:20.608Z</time></trkpt><trkpt lat="43.7618786" lon="12.0982431"><ele>1007.0</ele><time>2026-04-12T08:42:21.608Z</time></trkpt><trkpt lat="43.7617666" lon="12.0984477"><ele>1007.0</ele><time>2026-04-12T08:42:22.608Z</time></trkpt><trkpt lat="43.7616574" lon="12.0986414"><ele>1009.0</ele><time>2026-04-12T08:42:23.608Z</time></trkpt><trkpt lat="43.7615454" lon="12.0988062"><ele>1011.0</ele><time>2026-04-12T08:42:24.608Z</time></trkpt><trkpt lat="43.7614157" lon="12.098927"><ele>1013.0</ele><time>2026-04-12T08:42:25.608Z</time></trkpt><trkpt lat="43.7612668" lon="12.0989934"><ele>1013.0</ele><time>2026-04-12T08:42:26.608Z</time></trkpt><trkpt lat="43.7611135" lon="12.0990085"><ele>1013.0</ele><time>2026-04-12T08:42:27.608Z</time></trkpt><trkpt lat="43.760959" lon="12.0989982"><ele>1013.0</ele><time>2026-04-12T08:42:28.608Z</time></trkpt><trkpt lat="43.7608057" lon="12.0990056"><ele>1013.0</ele><time>2026-04-12T08:42:29.608Z</time></trkpt><trkpt lat="43.7606515" lon="12.0990524"><ele>1013.0</ele><time>2026-04-12T08:42:30.608Z</time></trkpt><trkpt lat="43.7604937" lon="12.099135"><ele>1013.0</ele><time>2026-04-12T08:42:31.608Z</time></trkpt><trkpt lat="43.7603376" lon="12.0992386"><ele>1011.6666666666667</ele><time>2026-04-12T08:42:32.608Z</time></trkpt><trkpt lat="43.7601811" lon="12.099366"><ele>1010.3333333333333</ele><time>2026-04-12T08:42:33.607Z</time></trkpt><trkpt lat="43.760031" lon="12.0995122"><ele>1009.0</ele><time>2026-04-12T08:42:34.608Z</time></trkpt><trkpt lat="43.7598783" lon="12.0996847"><ele>1009.0</ele><time>2026-04-12T08:42:35.607Z</time></trkpt><trkpt lat="43.7597209" lon="12.0998698"><ele>1009.0</ele><time>2026-04-12T08:42:36.608Z</time></trkpt><trkpt lat="43.759567" lon="12.1000502"><ele>1009.0</ele><time>2026-04-12T08:42:37.607Z</time></trkpt><trkpt lat="43.7594198" lon="12.1002271"><ele>1009.0</ele><time>2026-04-12T08:42:38.607Z</time></trkpt><trkpt lat="43.7592791" lon="12.1004151"><ele>1009.0</ele><time>2026-04-12T08:42:39.607Z</time></trkpt><trkpt lat="43.7591383" lon="12.1006025"><ele>1009.0</ele><time>2026-04-12T08:42:40.608Z</time></trkpt><trkpt lat="43.758993" lon="12.1007852"><ele>1012.0</ele><time>2026-04-12T08:42:41.607Z</time></trkpt><trkpt lat="43.7588513" lon="12.10096"><ele>1015.0</ele><time>2026-04-12T08:42:42.607Z</time></trkpt><trkpt lat="43.7587072" lon="12.1011224"><ele>1018.0</ele><time>2026-04-12T08:42:43.608Z</time></trkpt><trkpt lat="43.7585637" lon="12.1012752"><ele>1017.0</ele><time>2026-04-12T08:42:44.608Z</time></trkpt><trkpt lat="43.7584215" lon="12.1014195"><ele>1016.0</ele><time>2026-04-12T08:42:45.607Z</time></trkpt><trkpt lat="43.7582751" lon="12.1015456"><ele>1015.0</ele><time>2026-04-12T08:42:46.607Z</time></trkpt><trkpt lat="43.7581253" lon="12.1016509"><ele>1015.0</ele><time>2026-04-12T08:42:47.607Z</time></trkpt><trkpt lat="43.7579706" lon="12.1017359"><ele>1015.0</ele><time>2026-04-12T08:42:48.608Z</time></trkpt><trkpt lat="43.757819" lon="12.1018003"><ele>1015.0</ele><time>2026-04-12T08:42:49.608Z</time></trkpt><trkpt lat="43.7576845" lon="12.1018265"><ele>1014.0</ele><time>2026-04-12T08:42:50.608Z</time></trkpt><trkpt lat="43.7575586" lon="12.1017937"><ele>1013.0</ele><time>2026-04-12T08:42:51.608Z</time></trkpt><trkpt lat="43.7574423" lon="12.1016943"><ele>1012.0</ele><time>2026-04-12T08:42:52.608Z</time></trkpt><trkpt lat="43.7573449" lon="12.1015553"><ele>1011.0</ele><time>2026-04-12T08:42:53.608Z</time></trkpt><trkpt lat="43.7572637" lon="12.1014128"><ele>1008.5</ele><time>2026-04-12T08:42:54.608Z</time></trkpt><trkpt lat="43.757184" lon="12.1013056"><ele>1006.0</ele><time>2026-04-12T08:42:55.607Z</time></trkpt><trkpt lat="43.7570934" lon="12.1012381"><ele>1003.5</ele><time>2026-04-12T08:42:56.607Z</time></trkpt><trkpt lat="43.7569823" lon="12.1012152"><ele>1001.0</ele><time>2026-04-12T08:42:57.607Z</time></trkpt><trkpt lat="43.7568477" lon="12.1012516"><ele>1001.0</ele><time>2026-04-12T08:42:58.607Z</time></trkpt><trkpt lat="43.7566992" lon="12.1013078"><ele>1001.0</ele><time>2026-04-12T08:42:59.608Z</time></trkpt><trkpt lat="43.7565395" lon="12.1013294"><ele>1001.0</ele><time>2026-04-12T08:43:00.608Z</time></trkpt><trkpt lat="43.7563636" lon="12.1013075"><ele>1001.0</ele><time>2026-04-12T08:43:01.607Z</time></trkpt><trkpt lat="43.7561756" lon="12.1012512"><ele>1001.0</ele><time>2026-04-12T08:43:02.608Z</time></trkpt><trkpt lat="43.7559793" lon="12.1011819"><ele>1001.0</ele><time>2026-04-12T08:43:03.607Z</time></trkpt><trkpt lat="43.7557843" lon="12.1011107"><ele>1001.0</ele><time>2026-04-12T08:43:04.608Z</time></trkpt><trkpt lat="43.7555998" lon="12.1010407"><ele>1001.0</ele><time>2026-04-12T08:43:05.608Z</time></trkpt><trkpt lat="43.7554203" lon="12.1009821"><ele>1001.0</ele><time>2026-04-12T08:43:06.608Z</time></trkpt><trkpt lat="43.7552549" lon="12.1009378"><ele>1001.75</ele><time>2026-04-12T08:43:07.608Z</time></trkpt><trkpt lat="43.7551091" lon="12.1009169"><ele>1002.5</ele><time>2026-04-12T08:43:08.608Z</time></trkpt><trkpt lat="43.7549761" lon="12.1009153"><ele>1003.25</ele><time>2026-04-12T08:43:09.608Z</time></trkpt><trkpt lat="43.7548541" lon="12.1008886"><ele>1004.0</ele><time>2026-04-12T08:43:10.607Z</time></trkpt><trkpt lat="43.754739" lon="12.1008099"><ele>1000.3333333333334</ele><time>2026-04-12T08:43:11.608Z</time></trkpt><trkpt lat="43.7546346" lon="12.1006691"><ele>996.6666666666667</ele><time>2026-04-12T08:43:12.608Z</time></trkpt><trkpt lat="43.7545409" lon="12.1004978"><ele>993.0</ele><time>2026-04-12T08:43:13.608Z</time></trkpt><trkpt lat="43.7544382" lon="12.1003318"><ele>994.3333333333333</ele><time>2026-04-12T08:43:14.608Z</time></trkpt><trkpt lat="43.7543195" lon="12.1001871"><ele>995.6666666666666</ele><time>2026-04-12T08:43:15.608Z</time></trkpt><trkpt lat="43.7541896" lon="12.1000676"><ele>997.0</ele><time>2026-04-12T08:43:16.608Z</time></trkpt><trkpt lat="43.7540634" lon="12.0999621"><ele>994.75</ele><time>2026-04-12T08:43:17.608Z</time></trkpt><trkpt lat="43.7539525" lon="12.0998772"><ele>992.5</ele><time>2026-04-12T08:43:18.607Z</time></trkpt><trkpt lat="43.7538457" lon="12.0998204"><ele>990.25</ele><time>2026-04-12T08:43:19.608Z</time></trkpt><trkpt lat="43.7537194" lon="12.0998067"><ele>988.0</ele><time>2026-04-12T08:43:20.608Z</time></trkpt><trkpt lat="43.7535689" lon="12.0998368"><ele>989.0</ele><time>2026-04-12T08:43:21.608Z</time></trkpt><trkpt lat="43.7533966" lon="12.0999012"><ele>990.0</ele><time>2026-04-12T08:43:22.608Z</time></trkpt><trkpt lat="43.7532232" lon="12.0999686"><ele>991.0</ele><time>2026-04-12T08:43:23.608Z</time></trkpt><trkpt lat="43.7530715" lon="12.1000338"><ele>990.75</ele><time>2026-04-12T08:43:24.607Z</time></trkpt><trkpt lat="43.7529398" lon="12.100081"><ele>990.5</ele><time>2026-04-12T08:43:25.608Z</time></trkpt><trkpt lat="43.7528182" lon="12.1000797"><ele>990.25</ele><time>2026-04-12T08:43:26.608Z</time></trkpt><trkpt lat="43.7526983" lon="12.1000087"><ele>990.0</ele><time>2026-04-12T08:43:27.607Z</time></trkpt><trkpt lat="43.7525812" lon="12.0998768"><ele>990.0</ele><time>2026-04-12T08:43:28.608Z</time></trkpt><trkpt lat="43.7524736" lon="12.0997194"><ele>990.0</ele><time>2026-04-12T08:43:29.607Z</time></trkpt><trkpt lat="43.7523865" lon="12.0995461"><ele>990.0</ele><time>2026-04-12T08:43:30.608Z</time></trkpt><trkpt lat="43.7523353" lon="12.0993581"><ele>990.0</ele><time>2026-04-12T08:43:31.608Z</time></trkpt><trkpt lat="43.7523092" lon="12.0991596"><ele>990.0</ele><time>2026-04-12T08:43:32.608Z</time></trkpt><trkpt lat="43.7522934" lon="12.0989732"><ele>990.0</ele><time>2026-04-12T08:43:33.608Z</time></trkpt><trkpt lat="43.7522731" lon="12.0988073"><ele>990.0</ele><time>2026-04-12T08:43:34.607Z</time></trkpt><trkpt lat="43.7522263" lon="12.0986661"><ele>989.25</ele><time>2026-04-12T08:43:35.608Z</time></trkpt><trkpt lat="43.752143" lon="12.0985472"><ele>988.5</ele><time>2026-04-12T08:43:36.607Z</time></trkpt><trkpt lat="43.7520188" lon="12.0984537"><ele>987.75</ele><time>2026-04-12T08:43:37.608Z</time></trkpt><trkpt lat="43.7518538" lon="12.0983826"><ele>987.0</ele><time>2026-04-12T08:43:38.608Z</time></trkpt><trkpt lat="43.7516649" lon="12.0983213"><ele>987.0</ele><time>2026-04-12T08:43:39.608Z</time></trkpt><trkpt lat="43.7514623" lon="12.0982542"><ele>987.0</ele><time>2026-04-12T08:43:40.607Z</time></trkpt><trkpt lat="43.7512512" lon="12.0981657"><ele>987.0</ele><time>2026-04-12T08:43:41.608Z</time></trkpt><trkpt lat="43.7510436" lon="12.0980693"><ele>982.0</ele><time>2026-04-12T08:43:42.608Z</time></trkpt><trkpt lat="43.7508373" lon="12.0979747"><ele>977.0</ele><time>2026-04-12T08:43:43.608Z</time></trkpt><trkpt lat="43.7506371" lon="12.0978798"><ele>972.0</ele><time>2026-04-12T08:43:44.608Z</time></trkpt><trkpt lat="43.7504402" lon="12.0977844"><ele>972.0</ele><time>2026-04-12T08:43:45.608Z</time></trkpt><trkpt lat="43.7502498" lon="12.0976906"><ele>972.0</ele><time>2026-04-12T08:43:46.607Z</time></trkpt><trkpt lat="43.7500524" lon="12.0975937"><ele>972.0</ele><time>2026-04-12T08:43:47.608Z</time></trkpt><trkpt lat="43.7498601" lon="12.097504"><ele>973.3333333333333</ele><time>2026-04-12T08:43:48.607Z</time></trkpt><trkpt lat="43.7496909" lon="12.097428"><ele>974.6666666666666</ele><time>2026-04-12T08:43:49.608Z</time></trkpt><trkpt lat="43.7495506" lon="12.097362"><ele>976.0</ele><time>2026-04-12T08:43:50.607Z</time></trkpt><trkpt lat="43.7494228" lon="12.0972986"><ele>970.75</ele><time>2026-04-12T08:43:51.608Z</time></trkpt><trkpt lat="43.7492953" lon="12.0972558"><ele>965.5</ele><time>2026-04-12T08:43:52.608Z</time></trkpt><trkpt lat="43.7491647" lon="12.0972536"><ele>960.25</ele><time>2026-04-12T08:43:53.608Z</time></trkpt><trkpt lat="43.7490412" lon="12.0972914"><ele>955.0</ele><time>2026-04-12T08:43:54.608Z</time></trkpt><trkpt lat="43.7489319" lon="12.097371"><ele>959.25</ele><time>2026-04-12T08:43:55.608Z</time></trkpt><trkpt lat="43.7488385" lon="12.0974961"><ele>963.5</ele><time>2026-04-12T08:43:56.608Z</time></trkpt><trkpt lat="43.7487648" lon="12.0976661"><ele>967.75</ele><time>2026-04-12T08:43:57.608Z</time></trkpt><trkpt lat="43.7487068" lon="12.0978507"><ele>972.0</ele><time>2026-04-12T08:43:58.607Z</time></trkpt><trkpt lat="43.7486457" lon="12.0980183"><ele>972.0</ele><time>2026-04-12T08:43:59.608Z</time></trkpt><trkpt lat="43.7485549" lon="12.0981483"><ele>972.0</ele><time>2026-04-12T08:44:00.607Z</time></trkpt><trkpt lat="43.7484341" lon="12.0982229"><ele>972.0</ele><time>2026-04-12T08:44:01.608Z</time></trkpt><trkpt lat="43.7482975" lon="12.0982281"><ele>972.0</ele><time>2026-04-12T08:44:02.608Z</time></trkpt><trkpt lat="43.748145" lon="12.0981624"><ele>968.3333333333333</ele><time>2026-04-12T08:44:03.608Z</time></trkpt><trkpt lat="43.7479927" lon="12.0980627"><ele>964.6666666666666</ele><time>2026-04-12T08:44:04.608Z</time></trkpt><trkpt lat="43.747848" lon="12.0979772"><ele>961.0</ele><time>2026-04-12T08:44:05.608Z</time></trkpt><trkpt lat="43.7477151" lon="12.0979199"><ele>958.3333333333333</ele><time>2026-04-12T08:44:06.608Z</time></trkpt><trkpt lat="43.7475796" lon="12.0979094"><ele>955.6666666666667</ele><time>2026-04-12T08:44:07.608Z</time></trkpt><trkpt lat="43.7474385" lon="12.0979609"><ele>953.0</ele><time>2026-04-12T08:44:08.607Z</time></trkpt><trkpt lat="43.7472898" lon="12.0980835"><ele>953.0</ele><time>2026-04-12T08:44:09.608Z</time></trkpt><trkpt lat="43.7471365" lon="12.0982494"><ele>953.0</ele><time>2026-04-12T08:44:10.608Z</time></trkpt><trkpt lat="43.7469906" lon="12.098395"><ele>953.0</ele><time>2026-04-12T08:44:11.608Z</time></trkpt><trkpt lat="43.7468547" lon="12.0985042"><ele>952.3333333333334</ele><time>2026-04-12T08:44:12.608Z</time></trkpt><trkpt lat="43.7467165" lon="12.0985721"><ele>951.6666666666667</ele><time>2026-04-12T08:44:13.608Z</time></trkpt><trkpt lat="43.7465599" lon="12.0985854"><ele>951.0</ele><time>2026-04-12T08:44:14.608Z</time></trkpt><trkpt lat="43.7463843" lon="12.0985487"><ele>951.0</ele><time>2026-04-12T08:44:15.607Z</time></trkpt><trkpt lat="43.7462054" lon="12.0985001"><ele>951.0</ele><time>2026-04-12T08:44:16.607Z</time></trkpt><trkpt lat="43.7460412" lon="12.0984662"><ele>951.0</ele><time>2026-04-12T08:44:17.607Z</time></trkpt><trkpt lat="43.7458922" lon="12.0984497"><ele>948.0</ele><time>2026-04-12T08:44:18.608Z</time></trkpt><trkpt lat="43.7457452" lon="12.0984651"><ele>945.0</ele><time>2026-04-12T08:44:19.607Z</time></trkpt><trkpt lat="43.7456005" lon="12.0985322"><ele>942.0</ele><time>2026-04-12T08:44:20.608Z</time></trkpt><trkpt lat="43.7454664" lon="12.0986525"><ele>942.0</ele><time>2026-04-12T08:44:21.608Z</time></trkpt><trkpt lat="43.745354" lon="12.0987874"><ele>942.0</ele><time>2026-04-12T08:44:22.608Z</time></trkpt><trkpt lat="43.7452511" lon="12.0988953"><ele>942.0</ele><time>2026-04-12T08:44:23.607Z</time></trkpt><trkpt lat="43.7451445" lon="12.0989578"><ele>942.0</ele><time>2026-04-12T08:44:24.608Z</time></trkpt><trkpt lat="43.7450365" lon="12.0989634"><ele>939.5</ele><time>2026-04-12T08:44:25.608Z</time></trkpt><trkpt lat="43.7449442" lon="12.0988929"><ele>937.0</ele><time>2026-04-12T08:44:26.607Z</time></trkpt><trkpt lat="43.7449001" lon="12.0987397"><ele>934.5</ele><time>2026-04-12T08:44:27.607Z</time></trkpt><trkpt lat="43.7449131" lon="12.0985444"><ele>932.0</ele><time>2026-04-12T08:44:28.608Z</time></trkpt><trkpt lat="43.7449791" lon="12.0983257"><ele>932.6666666666667</ele><time>2026-04-12T08:44:29.608Z</time></trkpt><trkpt lat="43.7450794" lon="12.0980752"><ele>933.3333333333333</ele><time>2026-04-12T08:44:30.607Z</time></trkpt><trkpt lat="43.7451874" lon="12.0978183"><ele>934.0</ele><time>2026-04-12T08:44:31.608Z</time></trkpt><trkpt lat="43.745284" lon="12.0975759"><ele>931.6666666666666</ele><time>2026-04-12T08:44:32.608Z</time></trkpt><trkpt lat="43.7453728" lon="12.0973495"><ele>929.3333333333333</ele><time>2026-04-12T08:44:33.607Z</time></trkpt><trkpt lat="43.7454476" lon="12.097152"><ele>927.0</ele><time>2026-04-12T08:44:34.607Z</time></trkpt><trkpt lat="43.7455107" lon="12.0969781"><ele>927.0</ele><time>2026-04-12T08:44:35.608Z</time></trkpt><trkpt lat="43.7455434" lon="12.0968122"><ele>927.0</ele><time>2026-04-12T08:44:36.607Z</time></trkpt><trkpt lat="43.7455281" lon="12.0966391"><ele>927.0</ele><time>2026-04-12T08:44:37.607Z</time></trkpt><trkpt lat="43.7454433" lon="12.0964817"><ele>927.0</ele><time>2026-04-12T08:44:38.608Z</time></trkpt><trkpt lat="43.7453383" lon="12.09635"><ele>926.25</ele><time>2026-04-12T08:44:39.607Z</time></trkpt><trkpt lat="43.7452183" lon="12.0962633"><ele>925.5</ele><time>2026-04-12T08:44:40.608Z</time></trkpt><trkpt lat="43.7450867" lon="12.0962267"><ele>924.75</ele><time>2026-04-12T08:44:41.609Z</time></trkpt><trkpt lat="43.744945" lon="12.0962467"><ele>924.0</ele><time>2026-04-12T08:44:42.609Z</time></trkpt><trkpt lat="43.7447917" lon="12.0963267"><ele>922.0</ele><time>2026-04-12T08:44:43.608Z</time></trkpt><trkpt lat="43.7446517" lon="12.0964317"><ele>920.0</ele><time>2026-04-12T08:44:44.609Z</time></trkpt><trkpt lat="43.7445217" lon="12.096525"><ele>918.0</ele><time>2026-04-12T08:44:45.608Z</time></trkpt><trkpt lat="43.744395" lon="12.0965767"><ele>916.0</ele><time>2026-04-12T08:44:46.609Z</time></trkpt><trkpt lat="43.7442683" lon="12.0965633"><ele>912.3333333333333</ele><time>2026-04-12T08:44:47.608Z</time></trkpt><trkpt lat="43.7441233" lon="12.0964783"><ele>908.6666666666667</ele><time>2026-04-12T08:44:48.608Z</time></trkpt><trkpt lat="43.743975" lon="12.0963333"><ele>905.0</ele><time>2026-04-12T08:44:49.608Z</time></trkpt><trkpt lat="43.743835" lon="12.0961733"><ele>905.0</ele><time>2026-04-12T08:44:50.609Z</time></trkpt><trkpt lat="43.7437017" lon="12.0960367"><ele>905.0</ele><time>2026-04-12T08:44:51.609Z</time></trkpt><trkpt lat="43.74357" lon="12.0959183"><ele>905.0</ele><time>2026-04-12T08:44:52.609Z</time></trkpt><trkpt lat="43.7434233" lon="12.09583"><ele>903.0</ele><time>2026-04-12T08:44:53.609Z</time></trkpt><trkpt lat="43.743255" lon="12.0957733"><ele>901.0</ele><time>2026-04-12T08:44:54.609Z</time></trkpt><trkpt lat="43.7430667" lon="12.0957483"><ele>899.0</ele><time>2026-04-12T08:44:55.609Z</time></trkpt><trkpt lat="43.7428783" lon="12.0957483"><ele>896.75</ele><time>2026-04-12T08:44:56.608Z</time></trkpt><trkpt lat="43.7427183" lon="12.0957533"><ele>894.5</ele><time>2026-04-12T08:44:57.609Z</time></trkpt><trkpt lat="43.7425767" lon="12.0957617"><ele>892.25</ele><time>2026-04-12T08:44:58.609Z</time></trkpt><trkpt lat="43.7424633" lon="12.095795"><ele>890.0</ele><time>2026-04-12T08:44:59.609Z</time></trkpt><trkpt lat="43.7423717" lon="12.0958817"><ele>890.0</ele><time>2026-04-12T08:45:00.609Z</time></trkpt><trkpt lat="43.7423183" lon="12.096025"><ele>890.0</ele><time>2026-04-12T08:45:01.608Z</time></trkpt><trkpt lat="43.7423117" lon="12.096185"><ele>890.0</ele><time>2026-04-12T08:45:02.609Z</time></trkpt><trkpt lat="43.7423467" lon="12.0963617"><ele>890.0</ele><time>2026-04-12T08:45:03.608Z</time></trkpt><trkpt lat="43.7424417" lon="12.0965283"><ele>889.75</ele><time>2026-04-12T08:45:04.609Z</time></trkpt><trkpt lat="43.74256" lon="12.0966717"><ele>889.5</ele><time>2026-04-12T08:45:05.608Z</time></trkpt><trkpt lat="43.7426767" lon="12.0968017"><ele>889.25</ele><time>2026-04-12T08:45:06.609Z</time></trkpt><trkpt lat="43.7427683" lon="12.0969317"><ele>889.0</ele><time>2026-04-12T08:45:07.608Z</time></trkpt><trkpt lat="43.7428217" lon="12.0970767"><ele>889.0</ele><time>2026-04-12T08:45:08.609Z</time></trkpt><trkpt lat="43.742815" lon="12.0972233"><ele>889.0</ele><time>2026-04-12T08:45:09.608Z</time></trkpt><trkpt lat="43.7427617" lon="12.0973617"><ele>889.0</ele><time>2026-04-12T08:45:10.609Z</time></trkpt><trkpt lat="43.74267" lon="12.09746"><ele>889.0</ele><time>2026-04-12T08:45:11.609Z</time></trkpt><trkpt lat="43.7425483" lon="12.0975"><ele>889.0</ele><time>2026-04-12T08:45:12.609Z</time></trkpt><trkpt lat="43.7424187" lon="12.0975002"><ele>889.0</ele><time>2026-04-12T08:45:13.608Z</time></trkpt><trkpt lat="43.7422592" lon="12.0974413"><ele>889.0</ele><time>2026-04-12T08:45:14.609Z</time></trkpt><trkpt lat="43.7420834" lon="12.0973555"><ele>889.0</ele><time>2026-04-12T08:45:15.609Z</time></trkpt><trkpt lat="43.7419087" lon="12.0972637"><ele>889.0</ele><time>2026-04-12T08:45:16.609Z</time></trkpt><trkpt lat="43.7417473" lon="12.0971933"><ele>889.0</ele><time>2026-04-12T08:45:17.608Z</time></trkpt><trkpt lat="43.7416015" lon="12.0971379"><ele>886.75</ele><time>2026-04-12T08:45:18.608Z</time></trkpt><trkpt lat="43.7414647" lon="12.0970987"><ele>884.5</ele><time>2026-04-12T08:45:19.609Z</time></trkpt><trkpt lat="43.7413242" lon="12.0971064"><ele>882.25</ele><time>2026-04-12T08:45:20.609Z</time></trkpt><trkpt lat="43.741181" lon="12.0971786"><ele>880.0</ele><time>2026-04-12T08:45:21.609Z</time></trkpt><trkpt lat="43.7410367" lon="12.0973178"><ele>877.6666666666666</ele><time>2026-04-12T08:45:22.609Z</time></trkpt><trkpt lat="43.7408853" lon="12.0975176"><ele>875.3333333333333</ele><time>2026-04-12T08:45:23.609Z</time></trkpt><trkpt lat="43.7407265" lon="12.0977473"><ele>873.0</ele><time>2026-04-12T08:45:24.609Z</time></trkpt><trkpt lat="43.7405626" lon="12.0979717"><ele>873.0</ele><time>2026-04-12T08:45:25.608Z</time></trkpt><trkpt lat="43.7404079" lon="12.0981737"><ele>873.0</ele><time>2026-04-12T08:45:26.608Z</time></trkpt><trkpt lat="43.7402637" lon="12.0983593"><ele>873.0</ele><time>2026-04-12T08:45:27.609Z</time></trkpt><trkpt lat="43.7401339" lon="12.0985306"><ele>872.0</ele><time>2026-04-12T08:45:28.609Z</time></trkpt><trkpt lat="43.7400153" lon="12.0986854"><ele>871.0</ele><time>2026-04-12T08:45:29.608Z</time></trkpt><trkpt lat="43.7399131" lon="12.0988246"><ele>870.0</ele><time>2026-04-12T08:45:30.608Z</time></trkpt><trkpt lat="43.7398239" lon="12.0989674"><ele>869.0</ele><time>2026-04-12T08:45:31.609Z</time></trkpt><trkpt lat="43.7397553" lon="12.0991309"><ele>871.25</ele><time>2026-04-12T08:45:32.609Z</time></trkpt><trkpt lat="43.7397077" lon="12.0993096"><ele>873.5</ele><time>2026-04-12T08:45:33.609Z</time></trkpt><trkpt lat="43.7396757" lon="12.0995017"><ele>875.75</ele><time>2026-04-12T08:45:34.609Z</time></trkpt><trkpt lat="43.7396448" lon="12.099697"><ele>878.0</ele><time>2026-04-12T08:45:35.609Z</time></trkpt><trkpt lat="43.7396091" lon="12.0998901"><ele>878.25</ele><time>2026-04-12T08:45:36.609Z</time></trkpt><trkpt lat="43.739566" lon="12.1000902"><ele>878.5</ele><time>2026-04-12T08:45:37.608Z</time></trkpt><trkpt lat="43.7395266" lon="12.1002862"><ele>878.75</ele><time>2026-04-12T08:45:38.609Z</time></trkpt><trkpt lat="43.7394871" lon="12.1004798"><ele>879.0</ele><time>2026-04-12T08:45:39.609Z</time></trkpt><trkpt lat="43.739452" lon="12.1006603"><ele>877.25</ele><time>2026-04-12T08:45:40.609Z</time></trkpt><trkpt lat="43.7394192" lon="12.1008289"><ele>875.5</ele><time>2026-04-12T08:45:41.608Z</time></trkpt><trkpt lat="43.739382" lon="12.1009845"><ele>873.75</ele><time>2026-04-12T08:45:42.608Z</time></trkpt><trkpt lat="43.7393314" lon="12.1011381"><ele>872.0</ele><time>2026-04-12T08:45:43.609Z</time></trkpt><trkpt lat="43.7392544" lon="12.1012625"><ele>870.75</ele><time>2026-04-12T08:45:44.609Z</time></trkpt><trkpt lat="43.7391638" lon="12.1013666"><ele>869.5</ele><time>2026-04-12T08:45:45.608Z</time></trkpt><trkpt lat="43.7390595" lon="12.1014455"><ele>868.25</ele><time>2026-04-12T08:45:46.609Z</time></trkpt><trkpt lat="43.7389374" lon="12.1015043"><ele>867.0</ele><time>2026-04-12T08:45:47.609Z</time></trkpt><trkpt lat="43.7387997" lon="12.1015353"><ele>867.0</ele><time>2026-04-12T08:45:48.609Z</time></trkpt><trkpt lat="43.7386592" lon="12.1015528"><ele>867.0</ele><time>2026-04-12T08:45:49.609Z</time></trkpt><trkpt lat="43.7385154" lon="12.1015684"><ele>867.0</ele><time>2026-04-12T08:45:50.609Z</time></trkpt><trkpt lat="43.7383765" lon="12.1015844"><ele>867.0</ele><time>2026-04-12T08:45:51.608Z</time></trkpt><trkpt lat="43.738241" lon="12.1016037"><ele>866.75</ele><time>2026-04-12T08:45:52.609Z</time></trkpt><trkpt lat="43.7381126" lon="12.1016184"><ele>866.5</ele><time>2026-04-12T08:45:53.608Z</time></trkpt><trkpt lat="43.7379908" lon="12.1016333"><ele>866.25</ele><time>2026-04-12T08:45:54.609Z</time></trkpt><trkpt lat="43.7378685" lon="12.1016557"><ele>866.0</ele><time>2026-04-12T08:45:55.608Z</time></trkpt><trkpt lat="43.7377458" lon="12.1016759"><ele>866.0</ele><time>2026-04-12T08:45:56.609Z</time></trkpt><trkpt lat="43.7376258" lon="12.1016891"><ele>866.0</ele><time>2026-04-12T08:45:57.608Z</time></trkpt><trkpt lat="43.7375142" lon="12.1016974"><ele>866.0</ele><time>2026-04-12T08:45:58.609Z</time></trkpt><trkpt lat="43.7373967" lon="12.1017169"><ele>866.0</ele><time>2026-04-12T08:45:59.609Z</time></trkpt><trkpt lat="43.7372773" lon="12.1017356"><ele>866.0</ele><time>2026-04-12T08:46:00.609Z</time></trkpt><trkpt lat="43.7371576" lon="12.1017514"><ele>866.0</ele><time>2026-04-12T08:46:01.609Z</time></trkpt><trkpt lat="43.7370428" lon="12.1017697"><ele>866.0</ele><time>2026-04-12T08:46:02.608Z</time></trkpt><trkpt lat="43.7369268" lon="12.1017996"><ele>866.0</ele><time>2026-04-12T08:46:03.608Z</time></trkpt><trkpt lat="43.7368119" lon="12.1018517"><ele>865.0</ele><time>2026-04-12T08:46:04.608Z</time></trkpt><trkpt lat="43.7367042" lon="12.1019304"><ele>864.0</ele><time>2026-04-12T08:46:05.609Z</time></trkpt><trkpt lat="43.7366039" lon="12.1020277"><ele>863.0</ele><time>2026-04-12T08:46:06.609Z</time></trkpt><trkpt lat="43.7365196" lon="12.1021473"><ele>862.0</ele><time>2026-04-12T08:46:07.609Z</time></trkpt><trkpt lat="43.7364515" lon="12.1022968"><ele>862.0</ele><time>2026-04-12T08:46:08.609Z</time></trkpt><trkpt lat="43.7364181" lon="12.1024932"><ele>862.0</ele><time>2026-04-12T08:46:09.609Z</time></trkpt><trkpt lat="43.736414" lon="12.1027297"><ele>862.0</ele><time>2026-04-12T08:46:10.609Z</time></trkpt><trkpt lat="43.7364179" lon="12.1029721"><ele>862.0</ele><time>2026-04-12T08:46:11.609Z</time></trkpt><trkpt lat="43.7364193" lon="12.1032118"><ele>862.0</ele><time>2026-04-12T08:46:12.609Z</time></trkpt><trkpt lat="43.7364153" lon="12.1034564"><ele>862.0</ele><time>2026-04-12T08:46:13.608Z</time></trkpt><trkpt lat="43.7364068" lon="12.1037073"><ele>861.0</ele><time>2026-04-12T08:46:14.609Z</time></trkpt><trkpt lat="43.7363985" lon="12.1039918"><ele>860.0</ele><time>2026-04-12T08:46:15.609Z</time></trkpt><trkpt lat="43.7363792" lon="12.1042892"><ele>859.0</ele><time>2026-04-12T08:46:16.608Z</time></trkpt><trkpt lat="43.7363628" lon="12.1045829"><ele>859.0</ele><time>2026-04-12T08:46:17.608Z</time></trkpt><trkpt lat="43.7363484" lon="12.1048684"><ele>859.0</ele><time>2026-04-12T08:46:18.609Z</time></trkpt><trkpt lat="43.7363294" lon="12.1051508"><ele>859.0</ele><time>2026-04-12T08:46:19.608Z</time></trkpt><trkpt lat="43.7363019" lon="12.1054318"><ele>861.3333333333333</ele><time>2026-04-12T08:46:20.609Z</time></trkpt><trkpt lat="43.7362574" lon="12.1057006"><ele>863.6666666666667</ele><time>2026-04-12T08:46:21.609Z</time></trkpt><trkpt lat="43.736187" lon="12.1059751"><ele>866.0</ele><time>2026-04-12T08:46:22.608Z</time></trkpt><trkpt lat="43.7360931" lon="12.106274"><ele>863.5</ele><time>2026-04-12T08:46:23.608Z</time></trkpt><trkpt lat="43.7359828" lon="12.1065986"><ele>861.0</ele><time>2026-04-12T08:46:24.609Z</time></trkpt><trkpt lat="43.7358684" lon="12.1069359"><ele>861.0</ele><time>2026-04-12T08:46:25.609Z</time></trkpt><trkpt lat="43.7357575" lon="12.1072682"><ele>861.0</ele><time>2026-04-12T08:46:26.609Z</time></trkpt><trkpt lat="43.7356549" lon="12.1075871"><ele>863.0</ele><time>2026-04-12T08:46:27.609Z</time></trkpt><trkpt lat="43.7355621" lon="12.1078782"><ele>865.0</ele><time>2026-04-12T08:46:28.609Z</time></trkpt><trkpt lat="43.7354732" lon="12.1081479"><ele>867.0</ele><time>2026-04-12T08:46:29.609Z</time></trkpt><trkpt lat="43.7353875" lon="12.1084022"><ele>864.3333333333333</ele><time>2026-04-12T08:46:30.609Z</time></trkpt><trkpt lat="43.7353024" lon="12.1086442"><ele>861.6666666666666</ele><time>2026-04-12T08:46:31.609Z</time></trkpt><trkpt lat="43.7351986" lon="12.1088691"><ele>859.0</ele><time>2026-04-12T08:46:32.608Z</time></trkpt><trkpt lat="43.7350708" lon="12.1090691"><ele>863.0</ele><time>2026-04-12T08:46:33.608Z</time></trkpt><trkpt lat="43.7349196" lon="12.1092426"><ele>867.0</ele><time>2026-04-12T08:46:34.609Z</time></trkpt><trkpt lat="43.7347436" lon="12.1093888"><ele>871.0</ele><time>2026-04-12T08:46:35.608Z</time></trkpt><trkpt lat="43.734542" lon="12.1095117"><ele>870.0</ele><time>2026-04-12T08:46:36.608Z</time></trkpt><trkpt lat="43.7343378" lon="12.1096172"><ele>869.0</ele><time>2026-04-12T08:46:37.609Z</time></trkpt><trkpt lat="43.7341446" lon="12.1097174"><ele>868.0</ele><time>2026-04-12T08:46:38.609Z</time></trkpt><trkpt lat="43.7339667" lon="12.1098173"><ele>870.0</ele><time>2026-04-12T08:46:39.608Z</time></trkpt><trkpt lat="43.7337908" lon="12.1099096"><ele>872.0</ele><time>2026-04-12T08:46:40.609Z</time></trkpt><trkpt lat="43.7336282" lon="12.1099932"><ele>874.0</ele><time>2026-04-12T08:46:41.609Z</time></trkpt><trkpt lat="43.7334845" lon="12.1100634"><ele>874.0</ele><time>2026-04-12T08:46:42.609Z</time></trkpt><trkpt lat="43.7333462" lon="12.1101511"><ele>874.0</ele><time>2026-04-12T08:46:43.609Z</time></trkpt><trkpt lat="43.7332138" lon="12.1102884"><ele>874.0</ele><time>2026-04-12T08:46:44.608Z</time></trkpt><trkpt lat="43.7330955" lon="12.1104815"><ele>874.0</ele><time>2026-04-12T08:46:45.609Z</time></trkpt><trkpt lat="43.7329792" lon="12.1107067"><ele>874.0</ele><time>2026-04-12T08:46:46.608Z</time></trkpt><trkpt lat="43.7328567" lon="12.1109489"><ele>874.0</ele><time>2026-04-12T08:46:47.609Z</time></trkpt><trkpt lat="43.732721" lon="12.1112179"><ele>873.5</ele><time>2026-04-12T08:46:48.608Z</time></trkpt><trkpt lat="43.7325817" lon="12.1114974"><ele>873.0</ele><time>2026-04-12T08:46:49.609Z</time></trkpt><trkpt lat="43.7324453" lon="12.1117801"><ele>874.5</ele><time>2026-04-12T08:46:50.609Z</time></trkpt><trkpt lat="43.7323185" lon="12.1120531"><ele>876.0</ele><time>2026-04-12T08:46:51.609Z</time></trkpt><trkpt lat="43.7321944" lon="12.1123112"><ele>877.0</ele><time>2026-04-12T08:46:52.609Z</time></trkpt><trkpt lat="43.7320681" lon="12.1125498"><ele>878.0</ele><time>2026-04-12T08:46:53.609Z</time></trkpt><trkpt lat="43.731955" lon="12.1127583"><ele>879.0</ele><time>2026-04-12T08:46:54.609Z</time></trkpt><trkpt lat="43.7318317" lon="12.11295"><ele>879.0</ele><time>2026-04-12T08:46:55.609Z</time></trkpt><trkpt lat="43.73169" lon="12.11312"><ele>879.0</ele><time>2026-04-12T08:46:56.608Z</time></trkpt><trkpt lat="43.73152" lon="12.1132633"><ele>879.0</ele><time>2026-04-12T08:46:57.609Z</time></trkpt><trkpt lat="43.7313217" lon="12.1133833"><ele>879.0</ele><time>2026-04-12T08:46:58.609Z</time></trkpt><trkpt lat="43.7311017" lon="12.1134867"><ele>879.0</ele><time>2026-04-12T08:46:59.609Z</time></trkpt><trkpt lat="43.7308733" lon="12.1135933"><ele>874.0</ele><time>2026-04-12T08:47:00.609Z</time></trkpt><trkpt lat="43.7306483" lon="12.1136967"><ele>869.0</ele><time>2026-04-12T08:47:01.609Z</time></trkpt><trkpt lat="43.7304333" lon="12.11378"><ele>869.0</ele><time>2026-04-12T08:47:02.608Z</time></trkpt><trkpt lat="43.7302333" lon="12.1138517"><ele>869.0</ele><time>2026-04-12T08:47:03.608Z</time></trkpt><trkpt lat="43.7300483" lon="12.1139"><ele>869.0</ele><time>2026-04-12T08:47:04.608Z</time></trkpt><trkpt lat="43.72988" lon="12.1139167"><ele>866.3333333333334</ele><time>2026-04-12T08:47:05.609Z</time></trkpt><trkpt lat="43.7297233" lon="12.113935"><ele>863.6666666666667</ele><time>2026-04-12T08:47:06.608Z</time></trkpt><trkpt lat="43.72957" lon="12.1139783"><ele>861.0</ele><time>2026-04-12T08:47:07.609Z</time></trkpt><trkpt lat="43.7294167" lon="12.1140817"><ele>864.3333333333333</ele><time>2026-04-12T08:47:08.609Z</time></trkpt><trkpt lat="43.72927" lon="12.1141967"><ele>867.6666666666666</ele><time>2026-04-12T08:47:09.608Z</time></trkpt><trkpt lat="43.7291433" lon="12.114335"><ele>871.0</ele><time>2026-04-12T08:47:10.608Z</time></trkpt><trkpt lat="43.72903" lon="12.11452"><ele>871.0</ele><time>2026-04-12T08:47:11.609Z</time></trkpt><trkpt lat="43.7289333" lon="12.11475"><ele>871.0</ele><time>2026-04-12T08:47:12.609Z</time></trkpt><trkpt lat="43.7288517" lon="12.1149833"><ele>871.0</ele><time>2026-04-12T08:47:13.609Z</time></trkpt><trkpt lat="43.7287833" lon="12.115185"><ele>871.3333333333333</ele><time>2026-04-12T08:47:14.608Z</time></trkpt><trkpt lat="43.7287033" lon="12.1153483"><ele>871.6666666666667</ele><time>2026-04-12T08:47:15.608Z</time></trkpt><trkpt lat="43.7285883" lon="12.11547"><ele>872.0</ele><time>2026-04-12T08:47:16.609Z</time></trkpt><trkpt lat="43.7284283" lon="12.1155433"><ele>872.0</ele><time>2026-04-12T08:47:17.609Z</time></trkpt><trkpt lat="43.7282533" lon="12.115585"><ele>872.0</ele><time>2026-04-12T08:47:18.609Z</time></trkpt><trkpt lat="43.7280667" lon="12.1156117"><ele>872.0</ele><time>2026-04-12T08:47:19.609Z</time></trkpt><trkpt lat="43.7278883" lon="12.1156383"><ele>868.3333333333334</ele><time>2026-04-12T08:47:20.609Z</time></trkpt><trkpt lat="43.7277217" lon="12.1156617"><ele>864.6666666666667</ele><time>2026-04-12T08:47:21.609Z</time></trkpt><trkpt lat="43.72757" lon="12.1156833"><ele>861.0</ele><time>2026-04-12T08:47:22.609Z</time></trkpt><trkpt lat="43.727415" lon="12.1157333"><ele>870.0</ele><time>2026-04-12T08:47:23.608Z</time></trkpt><trkpt lat="43.7272567" lon="12.1158383"><ele>879.0</ele><time>2026-04-12T08:47:24.608Z</time></trkpt><trkpt lat="43.7271083" lon="12.1160117"><ele>888.0</ele><time>2026-04-12T08:47:25.609Z</time></trkpt><trkpt lat="43.7269683" lon="12.1162167"><ele>892.0</ele><time>2026-04-12T08:47:26.608Z</time></trkpt><trkpt lat="43.72682" lon="12.1164067"><ele>896.0</ele><time>2026-04-12T08:47:27.609Z</time></trkpt><trkpt lat="43.7266467" lon="12.1165883"><ele>900.0</ele><time>2026-04-12T08:47:28.608Z</time></trkpt><trkpt lat="43.7264617" lon="12.1167433"><ele>900.0</ele><time>2026-04-12T08:47:29.609Z</time></trkpt><trkpt lat="43.7262817" lon="12.1168717"><ele>900.0</ele><time>2026-04-12T08:47:30.609Z</time></trkpt><trkpt lat="43.72612" lon="12.1169817"><ele>900.0</ele><time>2026-04-12T08:47:31.609Z</time></trkpt><trkpt lat="43.7259667" lon="12.117095"><ele>899.3333333333333</ele><time>2026-04-12T08:47:32.608Z</time></trkpt><trkpt lat="43.7258167" lon="12.11721"><ele>898.6666666666666</ele><time>2026-04-12T08:47:33.609Z</time></trkpt><trkpt lat="43.72567" lon="12.1173133"><ele>898.0</ele><time>2026-04-12T08:47:34.608Z</time></trkpt><trkpt lat="43.7255367" lon="12.117425"><ele>900.0</ele><time>2026-04-12T08:47:35.608Z</time></trkpt><trkpt lat="43.7254067" lon="12.1175667"><ele>902.0</ele><time>2026-04-12T08:47:36.609Z</time></trkpt><trkpt lat="43.7252967" lon="12.117745"><ele>904.0</ele><time>2026-04-12T08:47:37.608Z</time></trkpt><trkpt lat="43.7252017" lon="12.117955"><ele>903.3333333333333</ele><time>2026-04-12T08:47:38.609Z</time></trkpt><trkpt lat="43.7251083" lon="12.1181483"><ele>902.6666666666667</ele><time>2026-04-12T08:47:39.608Z</time></trkpt><trkpt lat="43.725005" lon="12.1183217"><ele>902.0</ele><time>2026-04-12T08:47:40.608Z</time></trkpt><trkpt lat="43.7248767" lon="12.1184767"><ele>902.0</ele><time>2026-04-12T08:47:41.609Z</time></trkpt><trkpt lat="43.7247267" lon="12.1185967"><ele>902.0</ele><time>2026-04-12T08:47:42.608Z</time></trkpt><trkpt lat="43.7245367" lon="12.1186633"><ele>902.0</ele><time>2026-04-12T08:47:43.608Z</time></trkpt><trkpt lat="43.7243467" lon="12.1187"><ele>898.3333333333334</ele><time>2026-04-12T08:47:44.609Z</time></trkpt><trkpt lat="43.7241467" lon="12.1187417"><ele>894.6666666666667</ele><time>2026-04-12T08:47:45.609Z</time></trkpt><trkpt lat="43.7239433" lon="12.1187783"><ele>891.0</ele><time>2026-04-12T08:47:46.609Z</time></trkpt><trkpt lat="43.7237617" lon="12.1188133"><ele>891.0</ele><time>2026-04-12T08:47:47.609Z</time></trkpt><trkpt lat="43.7236" lon="12.118855"><ele>891.0</ele><time>2026-04-12T08:47:48.609Z</time></trkpt><trkpt lat="43.7234467" lon="12.1189067"><ele>891.0</ele><time>2026-04-12T08:47:49.609Z</time></trkpt><trkpt lat="43.7233117" lon="12.11898"><ele>891.3333333333333</ele><time>2026-04-12T08:47:50.608Z</time></trkpt><trkpt lat="43.72318" lon="12.119125"><ele>891.6666666666666</ele><time>2026-04-12T08:47:51.609Z</time></trkpt><trkpt lat="43.7230683" lon="12.1193033"><ele>892.0</ele><time>2026-04-12T08:47:52.609Z</time></trkpt><trkpt lat="43.7229683" lon="12.11948"><ele>892.0</ele><time>2026-04-12T08:47:53.609Z</time></trkpt><trkpt lat="43.7228883" lon="12.1196417"><ele>892.0</ele><time>2026-04-12T08:47:54.609Z</time></trkpt><trkpt lat="43.722825" lon="12.1197967"><ele>892.0</ele><time>2026-04-12T08:47:55.609Z</time></trkpt><trkpt lat="43.722795" lon="12.1199667"><ele>892.0</ele><time>2026-04-12T08:47:56.609Z</time></trkpt><trkpt lat="43.7228067" lon="12.1201533"><ele>892.3333333333333</ele><time>2026-04-12T08:47:57.609Z</time></trkpt><trkpt lat="43.7228783" lon="12.1203333"><ele>892.6666666666667</ele><time>2026-04-12T08:47:58.609Z</time></trkpt><trkpt lat="43.723015" lon="12.120485"><ele>893.0</ele><time>2026-04-12T08:47:59.609Z</time></trkpt><trkpt lat="43.72319" lon="12.1206183"><ele>891.6666666666667</ele><time>2026-04-12T08:48:00.609Z</time></trkpt><trkpt lat="43.7233933" lon="12.1207433"><ele>890.3333333333333</ele><time>2026-04-12T08:48:01.608Z</time></trkpt><trkpt lat="43.7235867" lon="12.1208733"><ele>889.0</ele><time>2026-04-12T08:48:02.609Z</time></trkpt><trkpt lat="43.723765" lon="12.12099"><ele>889.0</ele><time>2026-04-12T08:48:03.609Z</time></trkpt><trkpt lat="43.72392" lon="12.1211117"><ele>889.0</ele><time>2026-04-12T08:48:04.609Z</time></trkpt><trkpt lat="43.72406" lon="12.1212233"><ele>889.0</ele><time>2026-04-12T08:48:05.609Z</time></trkpt><trkpt lat="43.7241733" lon="12.1213483"><ele>889.0</ele><time>2026-04-12T08:48:06.608Z</time></trkpt><trkpt lat="43.7242617" lon="12.1215083"><ele>889.0</ele><time>2026-04-12T08:48:07.609Z</time></trkpt><trkpt lat="43.7243183" lon="12.1217217"><ele>889.0</ele><time>2026-04-12T08:48:08.609Z</time></trkpt><trkpt lat="43.724365" lon="12.121975"><ele>889.6666666666666</ele><time>2026-04-12T08:48:09.609Z</time></trkpt><trkpt lat="43.7244067" lon="12.122235"><ele>890.3333333333333</ele><time>2026-04-12T08:48:10.608Z</time></trkpt><trkpt lat="43.7244483" lon="12.1224483"><ele>891.0</ele><time>2026-04-12T08:48:11.609Z</time></trkpt><trkpt lat="43.7244667" lon="12.12265"><ele>891.0</ele><time>2026-04-12T08:48:12.608Z</time></trkpt><trkpt lat="43.7244433" lon="12.12283"><ele>891.0</ele><time>2026-04-12T08:48:13.608Z</time></trkpt><trkpt lat="43.72438" lon="12.123"><ele>891.0</ele><time>2026-04-12T08:48:14.609Z</time></trkpt><trkpt lat="43.7242633" lon="12.1231517"><ele>891.0</ele><time>2026-04-12T08:48:15.608Z</time></trkpt><trkpt lat="43.7241167" lon="12.123275"><ele>884.6666666666667</ele><time>2026-04-12T08:48:16.609Z</time></trkpt><trkpt lat="43.723945" lon="12.1233617"><ele>878.3333333333334</ele><time>2026-04-12T08:48:17.609Z</time></trkpt><trkpt lat="43.72376" lon="12.12342"><ele>872.0</ele><time>2026-04-12T08:48:18.608Z</time></trkpt><trkpt lat="43.7235483" lon="12.12345"><ele>869.0</ele><time>2026-04-12T08:48:19.609Z</time></trkpt><trkpt lat="43.7233167" lon="12.123495"><ele>866.0</ele><time>2026-04-12T08:48:20.608Z</time></trkpt><trkpt lat="43.723065" lon="12.1235567"><ele>866.0</ele><time>2026-04-12T08:48:21.609Z</time></trkpt><trkpt lat="43.7228167" lon="12.12361"><ele>866.0</ele><time>2026-04-12T08:48:22.608Z</time></trkpt><trkpt lat="43.7225883" lon="12.1236533"><ele>864.0</ele><time>2026-04-12T08:48:23.609Z</time></trkpt><trkpt lat="43.7223667" lon="12.1236983"><ele>862.0</ele><time>2026-04-12T08:48:24.608Z</time></trkpt><trkpt lat="43.72216" lon="12.123735"><ele>860.0</ele><time>2026-04-12T08:48:25.609Z</time></trkpt><trkpt lat="43.7219767" lon="12.1237683"><ele>857.75</ele><time>2026-04-12T08:48:26.608Z</time></trkpt><trkpt lat="43.7218183" lon="12.1238"><ele>855.5</ele><time>2026-04-12T08:48:27.609Z</time></trkpt><trkpt lat="43.7216767" lon="12.1238517"><ele>853.25</ele><time>2026-04-12T08:48:28.608Z</time></trkpt><trkpt lat="43.7215667" lon="12.1239233"><ele>851.0</ele><time>2026-04-12T08:48:29.608Z</time></trkpt><trkpt lat="43.7214917" lon="12.1240583"><ele>853.0</ele><time>2026-04-12T08:48:30.608Z</time></trkpt><trkpt lat="43.7214333" lon="12.12422"><ele>855.0</ele><time>2026-04-12T08:48:31.609Z</time></trkpt><trkpt lat="43.721435" lon="12.12442"><ele>857.0</ele><time>2026-04-12T08:48:32.609Z</time></trkpt><trkpt lat="43.7214983" lon="12.124635"><ele>859.0</ele><time>2026-04-12T08:48:33.609Z</time></trkpt><trkpt lat="43.7215967" lon="12.1248383"><ele>857.0</ele><time>2026-04-12T08:48:34.609Z</time></trkpt><trkpt lat="43.7216917" lon="12.125035"><ele>855.0</ele><time>2026-04-12T08:48:35.608Z</time></trkpt><trkpt lat="43.7217603" lon="12.1252519"><ele>853.0</ele><time>2026-04-12T08:48:36.609Z</time></trkpt><trkpt lat="43.7217905" lon="12.1254943"><ele>850.3333333333333</ele><time>2026-04-12T08:48:37.609Z</time></trkpt><trkpt lat="43.7217793" lon="12.1257725"><ele>847.6666666666667</ele><time>2026-04-12T08:48:38.608Z</time></trkpt><trkpt lat="43.7217278" lon="12.1260858"><ele>845.0</ele><time>2026-04-12T08:48:39.609Z</time></trkpt><trkpt lat="43.7216654" lon="12.1264308"><ele>843.5</ele><time>2026-04-12T08:48:40.609Z</time></trkpt><trkpt lat="43.7216073" lon="12.1267855"><ele>842.0</ele><time>2026-04-12T08:48:41.608Z</time></trkpt><trkpt lat="43.7215581" lon="12.1271227"><ele>842.3333333333334</ele><time>2026-04-12T08:48:42.609Z</time></trkpt><trkpt lat="43.7215149" lon="12.1274276"><ele>842.6666666666667</ele><time>2026-04-12T08:48:43.609Z</time></trkpt><trkpt lat="43.7214767" lon="12.1277081"><ele>843.0</ele><time>2026-04-12T08:48:44.609Z</time></trkpt><trkpt lat="43.7214558" lon="12.1279865"><ele>843.0</ele><time>2026-04-12T08:48:45.609Z</time></trkpt><trkpt lat="43.7214549" lon="12.1282756"><ele>843.0</ele><time>2026-04-12T08:48:46.609Z</time></trkpt><trkpt lat="43.7214744" lon="12.1285723"><ele>843.0</ele><time>2026-04-12T08:48:47.609Z</time></trkpt><trkpt lat="43.7215087" lon="12.1288562"><ele>842.3333333333333</ele><time>2026-04-12T08:48:48.609Z</time></trkpt><trkpt lat="43.7215436" lon="12.1291126"><ele>841.6666666666666</ele><time>2026-04-12T08:48:49.609Z</time></trkpt><trkpt lat="43.7215918" lon="12.1293546"><ele>841.0</ele><time>2026-04-12T08:48:50.609Z</time></trkpt><trkpt lat="43.7216601" lon="12.1295847"><ele>841.0</ele><time>2026-04-12T08:48:51.609Z</time></trkpt><trkpt lat="43.7217545" lon="12.1298019"><ele>841.0</ele><time>2026-04-12T08:48:52.608Z</time></trkpt><trkpt lat="43.7218529" lon="12.1299875"><ele>841.0</ele><time>2026-04-12T08:48:53.608Z</time></trkpt><trkpt lat="43.7219351" lon="12.1301567"><ele>839.5</ele><time>2026-04-12T08:48:54.609Z</time></trkpt><trkpt lat="43.7220099" lon="12.1303138"><ele>838.0</ele><time>2026-04-12T08:48:55.609Z</time></trkpt><trkpt lat="43.7220587" lon="12.130458"><ele>836.5</ele><time>2026-04-12T08:48:56.609Z</time></trkpt><trkpt lat="43.7220745" lon="12.1306029"><ele>835.0</ele><time>2026-04-12T08:48:57.609Z</time></trkpt><trkpt lat="43.7220504" lon="12.130768"><ele>835.0</ele><time>2026-04-12T08:48:58.608Z</time></trkpt><trkpt lat="43.7219807" lon="12.1309348"><ele>835.0</ele><time>2026-04-12T08:48:59.609Z</time></trkpt><trkpt lat="43.7218695" lon="12.1311082"><ele>835.0</ele><time>2026-04-12T08:49:00.609Z</time></trkpt><trkpt lat="43.7217548" lon="12.1312735"><ele>831.5</ele><time>2026-04-12T08:49:01.608Z</time></trkpt><trkpt lat="43.7216482" lon="12.1314194"><ele>828.0</ele><time>2026-04-12T08:49:02.609Z</time></trkpt><trkpt lat="43.7215451" lon="12.1315044"><ele>824.5</ele><time>2026-04-12T08:49:03.609Z</time></trkpt><trkpt lat="43.721429" lon="12.1315266"><ele>821.0</ele><time>2026-04-12T08:49:04.608Z</time></trkpt><trkpt lat="43.7213126" lon="12.131484"><ele>821.0</ele><time>2026-04-12T08:49:05.609Z</time></trkpt><trkpt lat="43.7212067" lon="12.1313654"><ele>821.0</ele><time>2026-04-12T08:49:06.609Z</time></trkpt><trkpt lat="43.7211216" lon="12.131168"><ele>821.0</ele><time>2026-04-12T08:49:07.609Z</time></trkpt><trkpt lat="43.7210362" lon="12.1309233"><ele>816.5</ele><time>2026-04-12T08:49:08.609Z</time></trkpt><trkpt lat="43.7209383" lon="12.1306283"><ele>812.0</ele><time>2026-04-12T08:49:09.609Z</time></trkpt><trkpt lat="43.72083" lon="12.1303167"><ele>812.0</ele><time>2026-04-12T08:49:10.609Z</time></trkpt><trkpt lat="43.720715" lon="12.130015"><ele>812.0</ele><time>2026-04-12T08:49:11.608Z</time></trkpt><trkpt lat="43.7206133" lon="12.1297283"><ele>814.0</ele><time>2026-04-12T08:49:12.609Z</time></trkpt><trkpt lat="43.720515" lon="12.12946"><ele>816.0</ele><time>2026-04-12T08:49:13.609Z</time></trkpt><trkpt lat="43.72042" lon="12.1292017"><ele>818.0</ele><time>2026-04-12T08:49:14.609Z</time></trkpt><trkpt lat="43.7203267" lon="12.1289367"><ele>818.3333333333334</ele><time>2026-04-12T08:49:15.609Z</time></trkpt><trkpt lat="43.7202433" lon="12.1286817"><ele>818.6666666666667</ele><time>2026-04-12T08:49:16.609Z</time></trkpt><trkpt lat="43.7201817" lon="12.1284083"><ele>819.0</ele><time>2026-04-12T08:49:17.609Z</time></trkpt><trkpt lat="43.7201433" lon="12.1281217"><ele>811.0</ele><time>2026-04-12T08:49:18.609Z</time></trkpt><trkpt lat="43.72012" lon="12.127835"><ele>803.0</ele><time>2026-04-12T08:49:19.609Z</time></trkpt><trkpt lat="43.7201" lon="12.12755"><ele>795.0</ele><time>2026-04-12T08:49:20.609Z</time></trkpt><trkpt lat="43.72007" lon="12.1272833"><ele>795.0</ele><time>2026-04-12T08:49:21.608Z</time></trkpt><trkpt lat="43.7200183" lon="12.127025"><ele>795.0</ele><time>2026-04-12T08:49:22.609Z</time></trkpt><trkpt lat="43.7199333" lon="12.1267667"><ele>795.0</ele><time>2026-04-12T08:49:23.609Z</time></trkpt><trkpt lat="43.71981" lon="12.1265083"><ele>798.0</ele><time>2026-04-12T08:49:24.608Z</time></trkpt><trkpt lat="43.71968" lon="12.1262383"><ele>801.0</ele><time>2026-04-12T08:49:25.609Z</time></trkpt><trkpt lat="43.719545" lon="12.125945"><ele>802.5</ele><time>2026-04-12T08:49:26.609Z</time></trkpt><trkpt lat="43.719415" lon="12.12563"><ele>804.0</ele><time>2026-04-12T08:49:27.608Z</time></trkpt><trkpt lat="43.7193067" lon="12.1252967"><ele>789.5</ele><time>2026-04-12T08:49:28.608Z</time></trkpt><trkpt lat="43.7192017" lon="12.1249317"><ele>775.0</ele><time>2026-04-12T08:49:29.609Z</time></trkpt><trkpt lat="43.7190983" lon="12.1245517"><ele>775.0</ele><time>2026-04-12T08:49:30.609Z</time></trkpt><trkpt lat="43.7190033" lon="12.1241767"><ele>775.0</ele><time>2026-04-12T08:49:31.608Z</time></trkpt><trkpt lat="43.71891" lon="12.12382"><ele>783.0</ele><time>2026-04-12T08:49:32.608Z</time></trkpt><trkpt lat="43.718825" lon="12.1234883"><ele>791.0</ele><time>2026-04-12T08:49:33.609Z</time></trkpt><trkpt lat="43.7187417" lon="12.1231783"><ele>793.0</ele><time>2026-04-12T08:49:34.609Z</time></trkpt><trkpt lat="43.718665" lon="12.122885"><ele>795.0</ele><time>2026-04-12T08:49:35.608Z</time></trkpt><trkpt lat="43.7186083" lon="12.1226083"><ele>797.0</ele><time>2026-04-12T08:49:36.609Z</time></trkpt><trkpt lat="43.7185467" lon="12.12235"><ele>790.6666666666667</ele><time>2026-04-12T08:49:37.608Z</time></trkpt><trkpt lat="43.7185017" lon="12.1220983"><ele>784.3333333333333</ele><time>2026-04-12T08:49:38.609Z</time></trkpt><trkpt lat="43.718465" lon="12.12185"><ele>778.0</ele><time>2026-04-12T08:49:39.608Z</time></trkpt><trkpt lat="43.7184183" lon="12.12164"><ele>780.0</ele><time>2026-04-12T08:49:40.608Z</time></trkpt><trkpt lat="43.7183617" lon="12.1214433"><ele>782.0</ele><time>2026-04-12T08:49:41.609Z</time></trkpt><trkpt lat="43.7182817" lon="12.1212567"><ele>784.0</ele><time>2026-04-12T08:49:42.609Z</time></trkpt><trkpt lat="43.7181917" lon="12.121095"><ele>784.0</ele><time>2026-04-12T08:49:43.609Z</time></trkpt><trkpt lat="43.7181033" lon="12.1209683"><ele>784.0</ele><time>2026-04-12T08:49:44.608Z</time></trkpt><trkpt lat="43.7180067" lon="12.1208933"><ele>784.0</ele><time>2026-04-12T08:49:45.608Z</time></trkpt><trkpt lat="43.7178867" lon="12.12089"><ele>784.0</ele><time>2026-04-12T08:49:46.609Z</time></trkpt><trkpt lat="43.7177667" lon="12.1209417"><ele>780.0</ele><time>2026-04-12T08:49:47.609Z</time></trkpt><trkpt lat="43.71766" lon="12.121035"><ele>776.0</ele><time>2026-04-12T08:49:48.609Z</time></trkpt><trkpt lat="43.7175817" lon="12.1211717"><ele>772.0</ele><time>2026-04-12T08:49:49.609Z</time></trkpt><trkpt lat="43.7175433" lon="12.1213517"><ele>768.0</ele><time>2026-04-12T08:49:50.608Z</time></trkpt><trkpt lat="43.717545" lon="12.121545"><ele>767.0</ele><time>2026-04-12T08:49:51.609Z</time></trkpt><trkpt lat="43.7176033" lon="12.1217383"><ele>766.0</ele><time>2026-04-12T08:49:52.609Z</time></trkpt><trkpt lat="43.7177067" lon="12.1219283"><ele>765.0</ele><time>2026-04-12T08:49:53.608Z</time></trkpt><trkpt lat="43.7178317" lon="12.122095"><ele>767.0</ele><time>2026-04-12T08:49:54.609Z</time></trkpt><trkpt lat="43.7179283" lon="12.122255"><ele>769.0</ele><time>2026-04-12T08:49:55.609Z</time></trkpt><trkpt lat="43.7179983" lon="12.1224233"><ele>771.0</ele><time>2026-04-12T08:49:56.608Z</time></trkpt><trkpt lat="43.7180333" lon="12.1226117"><ele>773.0</ele><time>2026-04-12T08:49:57.609Z</time></trkpt><trkpt lat="43.7180183" lon="12.1227983"><ele>773.0</ele><time>2026-04-12T08:49:58.609Z</time></trkpt><trkpt lat="43.7179667" lon="12.1229667"><ele>773.0</ele><time>2026-04-12T08:49:59.608Z</time></trkpt><trkpt lat="43.717875" lon="12.1231133"><ele>773.0</ele><time>2026-04-12T08:50:00.609Z</time></trkpt><trkpt lat="43.71775" lon="12.1232283"><ele>773.0</ele><time>2026-04-12T08:50:01.609Z</time></trkpt><trkpt lat="43.717605" lon="12.123345"><ele>766.0</ele><time>2026-04-12T08:50:02.609Z</time></trkpt><trkpt lat="43.7174283" lon="12.1234733"><ele>759.0</ele><time>2026-04-12T08:50:03.609Z</time></trkpt><trkpt lat="43.7172417" lon="12.123605"><ele>752.0</ele><time>2026-04-12T08:50:04.608Z</time></trkpt><trkpt lat="43.717065" lon="12.1237467"><ele>752.0</ele><time>2026-04-12T08:50:05.609Z</time></trkpt><trkpt lat="43.716905" lon="12.1238767"><ele>752.0</ele><time>2026-04-12T08:50:06.609Z</time></trkpt><trkpt lat="43.7167567" lon="12.1239967"><ele>752.0</ele><time>2026-04-12T08:50:07.609Z</time></trkpt><trkpt lat="43.7166317" lon="12.1241183"><ele>750.0</ele><time>2026-04-12T08:50:08.609Z</time></trkpt><trkpt lat="43.716525" lon="12.1242917"><ele>748.0</ele><time>2026-04-12T08:50:09.609Z</time></trkpt><trkpt lat="43.7164417" lon="12.124475"><ele>746.0</ele><time>2026-04-12T08:50:10.609Z</time></trkpt><trkpt lat="43.7164033" lon="12.1246883"><ele>747.6666666666666</ele><time>2026-04-12T08:50:11.608Z</time></trkpt><trkpt lat="43.7163933" lon="12.1249433"><ele>749.3333333333334</ele><time>2026-04-12T08:50:12.609Z</time></trkpt><trkpt lat="43.7163883" lon="12.1252233"><ele>751.0</ele><time>2026-04-12T08:50:13.608Z</time></trkpt><trkpt lat="43.716375" lon="12.125485"><ele>751.0</ele><time>2026-04-12T08:50:14.608Z</time></trkpt><trkpt lat="43.7163683" lon="12.1257383"><ele>751.0</ele><time>2026-04-12T08:50:15.609Z</time></trkpt><trkpt lat="43.7163717" lon="12.1259983"><ele>751.0</ele><time>2026-04-12T08:50:16.609Z</time></trkpt><trkpt lat="43.7163967" lon="12.1262867"><ele>749.0</ele><time>2026-04-12T08:50:17.609Z</time></trkpt><trkpt lat="43.7164383" lon="12.1265833"><ele>747.0</ele><time>2026-04-12T08:50:18.609Z</time></trkpt><trkpt lat="43.7164767" lon="12.1268683"><ele>745.0</ele><time>2026-04-12T08:50:19.609Z</time></trkpt><trkpt lat="43.7165183" lon="12.12713"><ele>745.0</ele><time>2026-04-12T08:50:20.609Z</time></trkpt><trkpt lat="43.7165583" lon="12.12736"><ele>745.0</ele><time>2026-04-12T08:50:21.608Z</time></trkpt><trkpt lat="43.71658" lon="12.1275517"><ele>745.0</ele><time>2026-04-12T08:50:22.608Z</time></trkpt><trkpt lat="43.716575" lon="12.127715"><ele>745.0</ele><time>2026-04-12T08:50:23.609Z</time></trkpt><trkpt lat="43.7165467" lon="12.12785"><ele>743.0</ele><time>2026-04-12T08:50:24.609Z</time></trkpt><trkpt lat="43.7164717" lon="12.1279583"><ele>741.0</ele><time>2026-04-12T08:50:25.609Z</time></trkpt><trkpt lat="43.716365" lon="12.128015"><ele>739.0</ele><time>2026-04-12T08:50:26.609Z</time></trkpt><trkpt lat="43.7162367" lon="12.1279933"><ele>737.0</ele><time>2026-04-12T08:50:27.609Z</time></trkpt><trkpt lat="43.7160967" lon="12.1278883"><ele>733.0</ele><time>2026-04-12T08:50:28.609Z</time></trkpt><trkpt lat="43.7159483" lon="12.1277267"><ele>729.0</ele><time>2026-04-12T08:50:29.608Z</time></trkpt><trkpt lat="43.7157983" lon="12.1275583"><ele>725.0</ele><time>2026-04-12T08:50:30.609Z</time></trkpt><trkpt lat="43.7156567" lon="12.1274133"><ele>726.3333333333333</ele><time>2026-04-12T08:50:31.609Z</time></trkpt><trkpt lat="43.7155333" lon="12.1272533"><ele>727.6666666666666</ele><time>2026-04-12T08:50:32.608Z</time></trkpt><trkpt lat="43.7154333" lon="12.12708"><ele>729.0</ele><time>2026-04-12T08:50:33.608Z</time></trkpt><trkpt lat="43.7153533" lon="12.1268517"><ele>729.0</ele><time>2026-04-12T08:50:34.609Z</time></trkpt><trkpt lat="43.715305" lon="12.126575"><ele>729.0</ele><time>2026-04-12T08:50:35.609Z</time></trkpt><trkpt lat="43.7152567" lon="12.1262983"><ele>729.0</ele><time>2026-04-12T08:50:36.609Z</time></trkpt><trkpt lat="43.7151867" lon="12.1259983"><ele>723.0</ele><time>2026-04-12T08:50:37.608Z</time></trkpt><trkpt lat="43.7150967" lon="12.1257033"><ele>717.0</ele><time>2026-04-12T08:50:38.608Z</time></trkpt><trkpt lat="43.7149967" lon="12.1254267"><ele>717.0</ele><time>2026-04-12T08:50:39.609Z</time></trkpt><trkpt lat="43.7148883" lon="12.1251683"><ele>717.0</ele><time>2026-04-12T08:50:40.608Z</time></trkpt><trkpt lat="43.7147833" lon="12.1249283"><ele>717.0</ele><time>2026-04-12T08:50:41.608Z</time></trkpt><trkpt lat="43.7146817" lon="12.124715"><ele>717.0</ele><time>2026-04-12T08:50:42.608Z</time></trkpt><trkpt lat="43.714585" lon="12.1245217"><ele>717.0</ele><time>2026-04-12T08:50:43.609Z</time></trkpt><trkpt lat="43.7145083" lon="12.124335"><ele>717.0</ele><time>2026-04-12T08:50:44.609Z</time></trkpt><trkpt lat="43.71445" lon="12.1241517"><ele>716.3333333333334</ele><time>2026-04-12T08:50:45.609Z</time></trkpt><trkpt lat="43.714415" lon="12.1239567"><ele>715.6666666666667</ele><time>2026-04-12T08:50:46.609Z</time></trkpt><trkpt lat="43.7144133" lon="12.123735"><ele>715.0</ele><time>2026-04-12T08:50:47.608Z</time></trkpt><trkpt lat="43.71446" lon="12.123495"><ele>715.0</ele><time>2026-04-12T08:50:48.609Z</time></trkpt><trkpt lat="43.7145117" lon="12.1232717"><ele>715.0</ele><time>2026-04-12T08:50:49.608Z</time></trkpt><trkpt lat="43.714555" lon="12.123085"><ele>715.0</ele><time>2026-04-12T08:50:50.609Z</time></trkpt><trkpt lat="43.7145583" lon="12.1229067"><ele>715.0</ele><time>2026-04-12T08:50:51.609Z</time></trkpt><trkpt lat="43.71453" lon="12.1227467"><ele>715.0</ele><time>2026-04-12T08:50:52.608Z</time></trkpt><trkpt lat="43.7144633" lon="12.1226017"><ele>715.0</ele><time>2026-04-12T08:50:53.609Z</time></trkpt><trkpt lat="43.71436" lon="12.1225033"><ele>715.0</ele><time>2026-04-12T08:50:54.609Z</time></trkpt><trkpt lat="43.7142167" lon="12.1224483"><ele>715.0</ele><time>2026-04-12T08:50:55.609Z</time></trkpt><trkpt lat="43.7140483" lon="12.1224033"><ele>708.6666666666667</ele><time>2026-04-12T08:50:56.609Z</time></trkpt><trkpt lat="43.713885" lon="12.1223833"><ele>702.3333333333334</ele><time>2026-04-12T08:50:57.609Z</time></trkpt><trkpt lat="43.7137333" lon="12.12237"><ele>696.0</ele><time>2026-04-12T08:50:58.609Z</time></trkpt><trkpt lat="43.7135917" lon="12.1223567"><ele>697.0</ele><time>2026-04-12T08:50:59.609Z</time></trkpt><trkpt lat="43.71346" lon="12.1223317"><ele>698.0</ele><time>2026-04-12T08:51:00.609Z</time></trkpt><trkpt lat="43.7133383" lon="12.122315"><ele>699.0</ele><time>2026-04-12T08:51:01.609Z</time></trkpt><trkpt lat="43.7132167" lon="12.1223083"><ele>700.0</ele><time>2026-04-12T08:51:02.609Z</time></trkpt><trkpt lat="43.71311" lon="12.12232"><ele>700.0</ele><time>2026-04-12T08:51:03.609Z</time></trkpt><trkpt lat="43.7130033" lon="12.1223833"><ele>700.0</ele><time>2026-04-12T08:51:04.609Z</time></trkpt><trkpt lat="43.7129117" lon="12.1225117"><ele>700.0</ele><time>2026-04-12T08:51:05.609Z</time></trkpt><trkpt lat="43.7128483" lon="12.122695"><ele>700.0</ele><time>2026-04-12T08:51:06.609Z</time></trkpt><trkpt lat="43.712815" lon="12.1229067"><ele>698.3333333333334</ele><time>2026-04-12T08:51:07.609Z</time></trkpt><trkpt lat="43.7128033" lon="12.1231283"><ele>696.6666666666666</ele><time>2026-04-12T08:51:08.609Z</time></trkpt><trkpt lat="43.71283" lon="12.1233383"><ele>695.0</ele><time>2026-04-12T08:51:09.609Z</time></trkpt><trkpt lat="43.7128633" lon="12.1235383"><ele>694.3333333333333</ele><time>2026-04-12T08:51:10.609Z</time></trkpt><trkpt lat="43.7128833" lon="12.1237467"><ele>693.6666666666666</ele><time>2026-04-12T08:51:11.608Z</time></trkpt><trkpt lat="43.7128683" lon="12.1239583"><ele>693.0</ele><time>2026-04-12T08:51:12.609Z</time></trkpt><trkpt lat="43.71281" lon="12.1241683"><ele>699.6666666666666</ele><time>2026-04-12T08:51:13.609Z</time></trkpt><trkpt lat="43.7127267" lon="12.1243983"><ele>706.3333333333333</ele><time>2026-04-12T08:51:14.608Z</time></trkpt><trkpt lat="43.7126283" lon="12.1246233"><ele>713.0</ele><time>2026-04-12T08:51:15.609Z</time></trkpt><trkpt lat="43.712535" lon="12.1248283"><ele>711.6666666666666</ele><time>2026-04-12T08:51:16.608Z</time></trkpt><trkpt lat="43.712445" lon="12.12505"><ele>710.3333333333334</ele><time>2026-04-12T08:51:17.609Z</time></trkpt><trkpt lat="43.7123767" lon="12.1253183"><ele>709.0</ele><time>2026-04-12T08:51:18.608Z</time></trkpt><trkpt lat="43.712325" lon="12.1256"><ele>709.3333333333334</ele><time>2026-04-12T08:51:19.608Z</time></trkpt><trkpt lat="43.712295" lon="12.125875"><ele>709.6666666666666</ele><time>2026-04-12T08:51:20.609Z</time></trkpt><trkpt lat="43.7122633" lon="12.1261183"><ele>710.0</ele><time>2026-04-12T08:51:21.609Z</time></trkpt><trkpt lat="43.7122367" lon="12.126335"><ele>710.0</ele><time>2026-04-12T08:51:22.609Z</time></trkpt><trkpt lat="43.712215" lon="12.1265383"><ele>710.0</ele><time>2026-04-12T08:51:23.609Z</time></trkpt><trkpt lat="43.7121683" lon="12.1267133"><ele>710.0</ele><time>2026-04-12T08:51:24.609Z</time></trkpt><trkpt lat="43.7121083" lon="12.1268533"><ele>710.0</ele><time>2026-04-12T08:51:25.608Z</time></trkpt><trkpt lat="43.712015" lon="12.1269567"><ele>712.75</ele><time>2026-04-12T08:51:26.609Z</time></trkpt><trkpt lat="43.7119" lon="12.1270117"><ele>715.5</ele><time>2026-04-12T08:51:27.608Z</time></trkpt><trkpt lat="43.71175" lon="12.1269967"><ele>718.25</ele><time>2026-04-12T08:51:28.609Z</time></trkpt><trkpt lat="43.7116083" lon="12.12695"><ele>721.0</ele><time>2026-04-12T08:51:29.608Z</time></trkpt><trkpt lat="43.711485" lon="12.126875"><ele>721.0</ele><time>2026-04-12T08:51:30.608Z</time></trkpt><trkpt lat="43.7113833" lon="12.1267683"><ele>721.0</ele><time>2026-04-12T08:51:31.608Z</time></trkpt><trkpt lat="43.7113167" lon="12.1266167"><ele>721.0</ele><time>2026-04-12T08:51:32.609Z</time></trkpt><trkpt lat="43.7113033" lon="12.126445"><ele>721.0</ele><time>2026-04-12T08:51:33.609Z</time></trkpt><trkpt lat="43.7113367" lon="12.126255"><ele>722.3333333333334</ele><time>2026-04-12T08:51:34.609Z</time></trkpt><trkpt lat="43.7114017" lon="12.1260483"><ele>723.6666666666666</ele><time>2026-04-12T08:51:35.608Z</time></trkpt><trkpt lat="43.71149" lon="12.1258133"><ele>725.0</ele><time>2026-04-12T08:51:36.609Z</time></trkpt><trkpt lat="43.7115767" lon="12.1255617"><ele>727.0</ele><time>2026-04-12T08:51:37.609Z</time></trkpt><trkpt lat="43.71166" lon="12.1253317"><ele>729.0</ele><time>2026-04-12T08:51:38.608Z</time></trkpt><trkpt lat="43.7117283" lon="12.1251183"><ele>731.0</ele><time>2026-04-12T08:51:39.609Z</time></trkpt><trkpt lat="43.7117633" lon="12.12488"><ele>732.3333333333333</ele><time>2026-04-12T08:51:40.608Z</time></trkpt><trkpt lat="43.7117717" lon="12.124625"><ele>733.6666666666666</ele><time>2026-04-12T08:51:41.608Z</time></trkpt><trkpt lat="43.71176" lon="12.12434"><ele>735.0</ele><time>2026-04-12T08:51:42.609Z</time></trkpt><trkpt lat="43.7117417" lon="12.1240483"><ele>735.0</ele><time>2026-04-12T08:51:43.609Z</time></trkpt><trkpt lat="43.711735" lon="12.1237817"><ele>735.0</ele><time>2026-04-12T08:51:44.609Z</time></trkpt><trkpt lat="43.7117333" lon="12.1235383"><ele>735.0</ele><time>2026-04-12T08:51:45.608Z</time></trkpt><trkpt lat="43.7117317" lon="12.1233183"><ele>734.25</ele><time>2026-04-12T08:51:46.608Z</time></trkpt><trkpt lat="43.71172" lon="12.1231217"><ele>733.5</ele><time>2026-04-12T08:51:47.609Z</time></trkpt><trkpt lat="43.7117067" lon="12.122975"><ele>732.75</ele><time>2026-04-12T08:51:48.609Z</time></trkpt><trkpt lat="43.7116683" lon="12.1228333"><ele>732.0</ele><time>2026-04-12T08:51:49.609Z</time></trkpt><trkpt lat="43.7116067" lon="12.1227133"><ele>732.0</ele><time>2026-04-12T08:51:50.608Z</time></trkpt><trkpt lat="43.7115267" lon="12.1226267"><ele>732.0</ele><time>2026-04-12T08:51:51.609Z</time></trkpt><trkpt lat="43.711415" lon="12.122605"><ele>732.0</ele><time>2026-04-12T08:51:52.609Z</time></trkpt><trkpt lat="43.7113" lon="12.1226233"><ele>732.0</ele><time>2026-04-12T08:51:53.608Z</time></trkpt><trkpt lat="43.711185" lon="12.12272"><ele>732.0</ele><time>2026-04-12T08:51:54.609Z</time></trkpt><trkpt lat="43.711085" lon="12.1228767"><ele>732.0</ele><time>2026-04-12T08:51:55.608Z</time></trkpt><trkpt lat="43.7110267" lon="12.1230717"><ele>732.0</ele><time>2026-04-12T08:51:56.609Z</time></trkpt><trkpt lat="43.711025" lon="12.1233183"><ele>733.0</ele><time>2026-04-12T08:51:57.608Z</time></trkpt><trkpt lat="43.7110483" lon="12.12359"><ele>734.0</ele><time>2026-04-12T08:51:58.608Z</time></trkpt><trkpt lat="43.7110867" lon="12.1238483"><ele>735.0</ele><time>2026-04-12T08:51:59.608Z</time></trkpt><trkpt lat="43.7110967" lon="12.1240817"><ele>735.5</ele><time>2026-04-12T08:52:00.609Z</time></trkpt><trkpt lat="43.7110833" lon="12.124295"><ele>736.0</ele><time>2026-04-12T08:52:01.608Z</time></trkpt><trkpt lat="43.7110433" lon="12.1244917"><ele>736.5</ele><time>2026-04-12T08:52:02.609Z</time></trkpt><trkpt lat="43.710975" lon="12.1246583"><ele>737.0</ele><time>2026-04-12T08:52:03.609Z</time></trkpt><trkpt lat="43.7108833" lon="12.1247867"><ele>740.0</ele><time>2026-04-12T08:52:04.609Z</time></trkpt><trkpt lat="43.7107783" lon="12.1248833"><ele>743.0</ele><time>2026-04-12T08:52:05.61Z</time></trkpt><trkpt lat="43.7106533" lon="12.1249433"><ele>746.0</ele><time>2026-04-12T08:52:06.609Z</time></trkpt><trkpt lat="43.7105" lon="12.124945"><ele>749.0</ele><time>2026-04-12T08:52:07.61Z</time></trkpt><trkpt lat="43.7103217" lon="12.12491"><ele>760.0</ele><time>2026-04-12T08:52:08.61Z</time></trkpt><trkpt lat="43.710155" lon="12.1248733"><ele>771.0</ele><time>2026-04-12T08:52:09.61Z</time></trkpt><trkpt lat="43.71001" lon="12.1248467"><ele>782.0</ele><time>2026-04-12T08:52:10.609Z</time></trkpt><trkpt lat="43.7098717" lon="12.1248567"><ele>776.0</ele><time>2026-04-12T08:52:11.609Z</time></trkpt><trkpt lat="43.7097283" lon="12.1249433"><ele>770.0</ele><time>2026-04-12T08:52:12.61Z</time></trkpt><trkpt lat="43.7095767" lon="12.1250833"><ele>764.0</ele><time>2026-04-12T08:52:13.61Z</time></trkpt><trkpt lat="43.7094167" lon="12.1252283"><ele>768.6666666666666</ele><time>2026-04-12T08:52:14.61Z</time></trkpt><trkpt lat="43.7092517" lon="12.1253833"><ele>773.3333333333333</ele><time>2026-04-12T08:52:15.61Z</time></trkpt><trkpt lat="43.70908" lon="12.1255417"><ele>778.0</ele><time>2026-04-12T08:52:16.61Z</time></trkpt><trkpt lat="43.7089" lon="12.1257083"><ele>780.6666666666666</ele><time>2026-04-12T08:52:17.61Z</time></trkpt><trkpt lat="43.708725" lon="12.125875"><ele>783.3333333333333</ele><time>2026-04-12T08:52:18.61Z</time></trkpt><trkpt lat="43.7085483" lon="12.1260367"><ele>786.0</ele><time>2026-04-12T08:52:19.61Z</time></trkpt><trkpt lat="43.70838" lon="12.126215"><ele>786.0</ele><time>2026-04-12T08:52:20.61Z</time></trkpt><trkpt lat="43.7082217" lon="12.1264133"><ele>786.0</ele><time>2026-04-12T08:52:21.61Z</time></trkpt><trkpt lat="43.7080633" lon="12.126625"><ele>786.0</ele><time>2026-04-12T08:52:22.609Z</time></trkpt><trkpt lat="43.7079167" lon="12.1268317"><ele>781.6666666666667</ele><time>2026-04-12T08:52:23.61Z</time></trkpt><trkpt lat="43.7077767" lon="12.1270317"><ele>777.3333333333334</ele><time>2026-04-12T08:52:24.609Z</time></trkpt><trkpt lat="43.7076433" lon="12.12721"><ele>773.0</ele><time>2026-04-12T08:52:25.609Z</time></trkpt><trkpt lat="43.7075033" lon="12.1273833"><ele>777.3333333333334</ele><time>2026-04-12T08:52:26.609Z</time></trkpt><trkpt lat="43.707375" lon="12.1275483"><ele>781.6666666666667</ele><time>2026-04-12T08:52:27.61Z</time></trkpt><trkpt lat="43.7072567" lon="12.1277083"><ele>786.0</ele><time>2026-04-12T08:52:28.61Z</time></trkpt><trkpt lat="43.7071317" lon="12.1278567"><ele>786.0</ele><time>2026-04-12T08:52:29.61Z</time></trkpt><trkpt lat="43.707" lon="12.127985"><ele>786.0</ele><time>2026-04-12T08:52:30.61Z</time></trkpt><trkpt lat="43.7068467" lon="12.1280983"><ele>786.0</ele><time>2026-04-12T08:52:31.61Z</time></trkpt><trkpt lat="43.7066783" lon="12.12822"><ele>784.6666666666667</ele><time>2026-04-12T08:52:32.609Z</time></trkpt><trkpt lat="43.7064858" lon="12.1283468"><ele>783.3333333333334</ele><time>2026-04-12T08:52:33.609Z</time></trkpt><trkpt lat="43.7062871" lon="12.1284773"><ele>782.0</ele><time>2026-04-12T08:52:34.609Z</time></trkpt><trkpt lat="43.706096" lon="12.1286026"><ele>783.3333333333334</ele><time>2026-04-12T08:52:35.609Z</time></trkpt><trkpt lat="43.705909" lon="12.1287255"><ele>784.6666666666667</ele><time>2026-04-12T08:52:36.61Z</time></trkpt><trkpt lat="43.7057233" lon="12.1288433"><ele>786.0</ele><time>2026-04-12T08:52:37.61Z</time></trkpt><trkpt lat="43.7055405" lon="12.1289689"><ele>784.3333333333333</ele><time>2026-04-12T08:52:38.61Z</time></trkpt><trkpt lat="43.7053706" lon="12.1290789"><ele>782.6666666666666</ele><time>2026-04-12T08:52:39.61Z</time></trkpt><trkpt lat="43.7052071" lon="12.129181"><ele>781.0</ele><time>2026-04-12T08:52:40.61Z</time></trkpt><trkpt lat="43.7050479" lon="12.1292773"><ele>781.0</ele><time>2026-04-12T08:52:41.609Z</time></trkpt><trkpt lat="43.7049072" lon="12.1293608"><ele>781.0</ele><time>2026-04-12T08:52:42.61Z</time></trkpt><trkpt lat="43.7047883" lon="12.1294493"><ele>781.0</ele><time>2026-04-12T08:52:43.61Z</time></trkpt><trkpt lat="43.7046966" lon="12.1295532"><ele>781.0</ele><time>2026-04-12T08:52:44.609Z</time></trkpt><trkpt lat="43.7046336" lon="12.1296975"><ele>781.0</ele><time>2026-04-12T08:52:45.61Z</time></trkpt><trkpt lat="43.7046238" lon="12.1298809"><ele>781.0</ele><time>2026-04-12T08:52:46.609Z</time></trkpt><trkpt lat="43.7046612" lon="12.1300787"><ele>781.0</ele><time>2026-04-12T08:52:47.61Z</time></trkpt><trkpt lat="43.7047215" lon="12.1302603"><ele>781.0</ele><time>2026-04-12T08:52:48.61Z</time></trkpt><trkpt lat="43.7047889" lon="12.1304067"><ele>778.5</ele><time>2026-04-12T08:52:49.61Z</time></trkpt><trkpt lat="43.7048744" lon="12.1305117"><ele>776.0</ele><time>2026-04-12T08:52:50.61Z</time></trkpt><trkpt lat="43.7049846" lon="12.1305795"><ele>773.5</ele><time>2026-04-12T08:52:51.609Z</time></trkpt><trkpt lat="43.705131" lon="12.1305991"><ele>771.0</ele><time>2026-04-12T08:52:52.61Z</time></trkpt><trkpt lat="43.7053114" lon="12.1305815"><ele>770.0</ele><time>2026-04-12T08:52:53.609Z</time></trkpt><trkpt lat="43.7054921" lon="12.1305512"><ele>769.0</ele><time>2026-04-12T08:52:54.609Z</time></trkpt><trkpt lat="43.7056575" lon="12.1305443"><ele>768.0</ele><time>2026-04-12T08:52:55.609Z</time></trkpt><trkpt lat="43.7058067" lon="12.1305772"><ele>768.0</ele><time>2026-04-12T08:52:56.61Z</time></trkpt><trkpt lat="43.7059557" lon="12.1306509"><ele>768.0</ele><time>2026-04-12T08:52:57.61Z</time></trkpt><trkpt lat="43.7061103" lon="12.1307824"><ele>768.0</ele><time>2026-04-12T08:52:58.61Z</time></trkpt><trkpt lat="43.7062796" lon="12.1309586"><ele>771.0</ele><time>2026-04-12T08:52:59.61Z</time></trkpt><trkpt lat="43.7064474" lon="12.131157"><ele>774.0</ele><time>2026-04-12T08:53:00.61Z</time></trkpt><trkpt lat="43.7066028" lon="12.1313367"><ele>777.0</ele><time>2026-04-12T08:53:01.609Z</time></trkpt><trkpt lat="43.7067416" lon="12.1314967"><ele>780.0</ele><time>2026-04-12T08:53:02.61Z</time></trkpt><trkpt lat="43.7068751" lon="12.1316457"><ele>783.0</ele><time>2026-04-12T08:53:03.609Z</time></trkpt><trkpt lat="43.7070179" lon="12.1317791"><ele>786.0</ele><time>2026-04-12T08:53:04.61Z</time></trkpt><trkpt lat="43.7071956" lon="12.1318815"><ele>786.6666666666667</ele><time>2026-04-12T08:53:05.61Z</time></trkpt><trkpt lat="43.7074067" lon="12.1319433"><ele>787.3333333333334</ele><time>2026-04-12T08:53:06.609Z</time></trkpt><trkpt lat="43.707615" lon="12.13199"><ele>788.0</ele><time>2026-04-12T08:53:07.609Z</time></trkpt><trkpt lat="43.707815" lon="12.1320233"><ele>789.3333333333334</ele><time>2026-04-12T08:53:08.61Z</time></trkpt><trkpt lat="43.7079867" lon="12.1320617"><ele>790.6666666666667</ele><time>2026-04-12T08:53:09.609Z</time></trkpt><trkpt lat="43.7081417" lon="12.1320933"><ele>792.0</ele><time>2026-04-12T08:53:10.61Z</time></trkpt><trkpt lat="43.7082717" lon="12.132125"><ele>792.0</ele><time>2026-04-12T08:53:11.609Z</time></trkpt><trkpt lat="43.7083867" lon="12.132185"><ele>792.0</ele><time>2026-04-12T08:53:12.609Z</time></trkpt><trkpt lat="43.7084767" lon="12.1322967"><ele>792.0</ele><time>2026-04-12T08:53:13.61Z</time></trkpt><trkpt lat="43.7085283" lon="12.132445"><ele>792.0</ele><time>2026-04-12T08:53:14.61Z</time></trkpt><trkpt lat="43.70854" lon="12.1326133"><ele>794.5</ele><time>2026-04-12T08:53:15.61Z</time></trkpt><trkpt lat="43.70851" lon="12.132785"><ele>797.0</ele><time>2026-04-12T08:53:16.609Z</time></trkpt><trkpt lat="43.70843" lon="12.1329483"><ele>799.5</ele><time>2026-04-12T08:53:17.61Z</time></trkpt><trkpt lat="43.70832" lon="12.13309"><ele>802.0</ele><time>2026-04-12T08:53:18.609Z</time></trkpt><trkpt lat="43.7081817" lon="12.133185"><ele>804.0</ele><time>2026-04-12T08:53:19.61Z</time></trkpt><trkpt lat="43.7080167" lon="12.133295"><ele>806.0</ele><time>2026-04-12T08:53:20.609Z</time></trkpt><trkpt lat="43.70783" lon="12.1334183"><ele>808.0</ele><time>2026-04-12T08:53:21.609Z</time></trkpt><trkpt lat="43.7076467" lon="12.133535"><ele>808.0</ele><time>2026-04-12T08:53:22.609Z</time></trkpt><trkpt lat="43.70748" lon="12.133635"><ele>808.0</ele><time>2026-04-12T08:53:23.609Z</time></trkpt><trkpt lat="43.7073333" lon="12.133745"><ele>808.0</ele><time>2026-04-12T08:53:24.61Z</time></trkpt><trkpt lat="43.7071917" lon="12.1338483"><ele>808.0</ele><time>2026-04-12T08:53:25.609Z</time></trkpt><trkpt lat="43.7070717" lon="12.1339667"><ele>808.0</ele><time>2026-04-12T08:53:26.61Z</time></trkpt><trkpt lat="43.70697" lon="12.13413"><ele>808.0</ele><time>2026-04-12T08:53:27.61Z</time></trkpt><trkpt lat="43.706895" lon="12.1343167"><ele>810.3333333333333</ele><time>2026-04-12T08:53:28.61Z</time></trkpt><trkpt lat="43.70684" lon="12.1345233"><ele>812.6666666666667</ele><time>2026-04-12T08:53:29.61Z</time></trkpt><trkpt lat="43.7067767" lon="12.1347333"><ele>815.0</ele><time>2026-04-12T08:53:30.61Z</time></trkpt><trkpt lat="43.7067117" lon="12.1349367"><ele>817.0</ele><time>2026-04-12T08:53:31.609Z</time></trkpt><trkpt lat="43.706655" lon="12.1351133"><ele>819.0</ele><time>2026-04-12T08:53:32.609Z</time></trkpt><trkpt lat="43.7065933" lon="12.13527"><ele>821.0</ele><time>2026-04-12T08:53:33.609Z</time></trkpt><trkpt lat="43.7065033" lon="12.1353983"><ele>823.0</ele><time>2026-04-12T08:53:34.609Z</time></trkpt><trkpt lat="43.70639" lon="12.13547"><ele>823.0</ele><time>2026-04-12T08:53:35.61Z</time></trkpt><trkpt lat="43.7062467" lon="12.1354767"><ele>823.0</ele><time>2026-04-12T08:53:36.61Z</time></trkpt><trkpt lat="43.706085" lon="12.1354333"><ele>823.0</ele><time>2026-04-12T08:53:37.609Z</time></trkpt><trkpt lat="43.7059217" lon="12.135335"><ele>823.3333333333333</ele><time>2026-04-12T08:53:38.61Z</time></trkpt><trkpt lat="43.7057533" lon="12.135235"><ele>823.6666666666667</ele><time>2026-04-12T08:53:39.61Z</time></trkpt><trkpt lat="43.7056117" lon="12.1351433"><ele>824.0</ele><time>2026-04-12T08:53:40.61Z</time></trkpt><trkpt lat="43.7054867" lon="12.13507"><ele>824.0</ele><time>2026-04-12T08:53:41.609Z</time></trkpt><trkpt lat="43.7053783" lon="12.1350117"><ele>824.0</ele><time>2026-04-12T08:53:42.61Z</time></trkpt><trkpt lat="43.705255" lon="12.1350117"><ele>824.0</ele><time>2026-04-12T08:53:43.609Z</time></trkpt><trkpt lat="43.7051333" lon="12.1350583"><ele>824.0</ele><time>2026-04-12T08:53:44.61Z</time></trkpt><trkpt lat="43.7050283" lon="12.13515"><ele>824.25</ele><time>2026-04-12T08:53:45.61Z</time></trkpt><trkpt lat="43.7049533" lon="12.1352817"><ele>824.5</ele><time>2026-04-12T08:53:46.61Z</time></trkpt><trkpt lat="43.7049133" lon="12.13545"><ele>824.75</ele><time>2026-04-12T08:53:47.61Z</time></trkpt><trkpt lat="43.7049217" lon="12.1356283"><ele>825.0</ele><time>2026-04-12T08:53:48.609Z</time></trkpt><trkpt lat="43.704995" lon="12.135795"><ele>826.75</ele><time>2026-04-12T08:53:49.609Z</time></trkpt><trkpt lat="43.7051067" lon="12.1359417"><ele>828.5</ele><time>2026-04-12T08:53:50.61Z</time></trkpt><trkpt lat="43.7052017" lon="12.1360867"><ele>830.25</ele><time>2026-04-12T08:53:51.61Z</time></trkpt><trkpt lat="43.7052783" lon="12.1362417"><ele>832.0</ele><time>2026-04-12T08:53:52.61Z</time></trkpt><trkpt lat="43.70532" lon="12.1364283"><ele>835.6666666666666</ele><time>2026-04-12T08:53:53.61Z</time></trkpt><trkpt lat="43.7053167" lon="12.1366383"><ele>839.3333333333333</ele><time>2026-04-12T08:53:54.61Z</time></trkpt><trkpt lat="43.7052933" lon="12.1368533"><ele>843.0</ele><time>2026-04-12T08:53:55.609Z</time></trkpt><trkpt lat="43.7052517" lon="12.1370517"><ele>842.6666666666667</ele><time>2026-04-12T08:53:56.609Z</time></trkpt><trkpt lat="43.7051967" lon="12.13724"><ele>842.3333333333334</ele><time>2026-04-12T08:53:57.609Z</time></trkpt><trkpt lat="43.7051083" lon="12.1374067"><ele>842.0</ele><time>2026-04-12T08:53:58.61Z</time></trkpt><trkpt lat="43.7049983" lon="12.1375733"><ele>842.0</ele><time>2026-04-12T08:53:59.61Z</time></trkpt><trkpt lat="43.7048767" lon="12.1377067"><ele>842.0</ele><time>2026-04-12T08:54:00.609Z</time></trkpt><trkpt lat="43.70476" lon="12.13783"><ele>842.0</ele><time>2026-04-12T08:54:01.61Z</time></trkpt><trkpt lat="43.704655" lon="12.13796"><ele>842.0</ele><time>2026-04-12T08:54:02.61Z</time></trkpt><trkpt lat="43.7045533" lon="12.138075"><ele>842.0000000000001</ele><time>2026-04-12T08:54:03.61Z</time></trkpt><trkpt lat="43.7044717" lon="12.1381783"><ele>842.0</ele><time>2026-04-12T08:54:04.61Z</time></trkpt><trkpt lat="43.7043967" lon="12.1382583"><ele>842.0</ele><time>2026-04-12T08:54:05.61Z</time></trkpt><trkpt lat="43.7043333" lon="12.1383233"><ele>842.0</ele><time>2026-04-12T08:54:06.61Z</time></trkpt><trkpt lat="43.7042767" lon="12.1383733"><ele>842.0000000000001</ele><time>2026-04-12T08:54:07.61Z</time></trkpt><trkpt lat="43.7042017" lon="12.1384517"><ele>842.0</ele><time>2026-04-12T08:54:09.609Z</time></trkpt><trkpt lat="43.7041967" lon="12.138555"><ele>843.5</ele><time>2026-04-12T08:54:12.61Z</time></trkpt><trkpt lat="43.7042783" lon="12.1386183"><ele>845.0</ele><time>2026-04-12T08:54:14.61Z</time></trkpt><trkpt lat="43.7043515" lon="12.1386331"><ele>846.5</ele><time>2026-04-12T08:54:15.609Z</time></trkpt><trkpt lat="43.704547" lon="12.1386764"><ele>848.0</ele><time>2026-04-12T08:54:17.61Z</time></trkpt><trkpt lat="43.7047068" lon="12.1387516"><ele>848.0</ele><time>2026-04-12T08:54:18.609Z</time></trkpt><trkpt lat="43.7048564" lon="12.138874"><ele>848.0</ele><time>2026-04-12T08:54:19.609Z</time></trkpt><trkpt lat="43.7049931" lon="12.1390195"><ele>848.0</ele><time>2026-04-12T08:54:20.609Z</time></trkpt><trkpt lat="43.705106" lon="12.1391517"><ele>846.5999999999999</ele><time>2026-04-12T08:54:21.61Z</time></trkpt><trkpt lat="43.7051985" lon="12.1392745"><ele>845.1999999999999</ele><time>2026-04-12T08:54:22.61Z</time></trkpt><trkpt lat="43.7052612" lon="12.1393978"><ele>843.8</ele><time>2026-04-12T08:54:23.61Z</time></trkpt><trkpt lat="43.7052852" lon="12.1395251"><ele>842.4</ele><time>2026-04-12T08:54:24.61Z</time></trkpt><trkpt lat="43.7052535" lon="12.1396591"><ele>841.0</ele><time>2026-04-12T08:54:25.61Z</time></trkpt><trkpt lat="43.7051715" lon="12.1398043"><ele>843.0</ele><time>2026-04-12T08:54:26.61Z</time></trkpt><trkpt lat="43.705057" lon="12.1399234"><ele>845.0</ele><time>2026-04-12T08:54:27.61Z</time></trkpt><trkpt lat="43.7049123" lon="12.1400092"><ele>847.0</ele><time>2026-04-12T08:54:28.61Z</time></trkpt><trkpt lat="43.7047522" lon="12.1400717"><ele>847.0</ele><time>2026-04-12T08:54:29.609Z</time></trkpt><trkpt lat="43.7045884" lon="12.1401104"><ele>847.0</ele><time>2026-04-12T08:54:30.61Z</time></trkpt><trkpt lat="43.7044215" lon="12.1401603"><ele>847.0</ele><time>2026-04-12T08:54:31.61Z</time></trkpt><trkpt lat="43.7042647" lon="12.1402287"><ele>844.5</ele><time>2026-04-12T08:54:32.61Z</time></trkpt><trkpt lat="43.7041293" lon="12.1403076"><ele>842.0</ele><time>2026-04-12T08:54:33.609Z</time></trkpt><trkpt lat="43.70403" lon="12.1404073"><ele>839.5</ele><time>2026-04-12T08:54:34.61Z</time></trkpt><trkpt lat="43.7039606" lon="12.1405406"><ele>837.0</ele><time>2026-04-12T08:54:35.609Z</time></trkpt><trkpt lat="43.7039305" lon="12.1407168"><ele>837.0</ele><time>2026-04-12T08:54:36.61Z</time></trkpt><trkpt lat="43.7039497" lon="12.1409149"><ele>837.0</ele><time>2026-04-12T08:54:37.61Z</time></trkpt><trkpt lat="43.7040177" lon="12.1411266"><ele>837.0</ele><time>2026-04-12T08:54:38.61Z</time></trkpt><trkpt lat="43.7041459" lon="12.141331"><ele>837.0</ele><time>2026-04-12T08:54:39.609Z</time></trkpt><trkpt lat="43.7043172" lon="12.1415011"><ele>837.0</ele><time>2026-04-12T08:54:40.61Z</time></trkpt><trkpt lat="43.704479" lon="12.1416476"><ele>837.0</ele><time>2026-04-12T08:54:41.61Z</time></trkpt><trkpt lat="43.7046006" lon="12.1417836"><ele>840.5</ele><time>2026-04-12T08:54:42.61Z</time></trkpt><trkpt lat="43.7046814" lon="12.1419182"><ele>844.0</ele><time>2026-04-12T08:54:43.61Z</time></trkpt><trkpt lat="43.7047249" lon="12.1420609"><ele>847.5</ele><time>2026-04-12T08:54:44.61Z</time></trkpt><trkpt lat="43.7047176" lon="12.1422028"><ele>851.0</ele><time>2026-04-12T08:54:45.61Z</time></trkpt><trkpt lat="43.7046531" lon="12.1423465"><ele>851.6666666666667</ele><time>2026-04-12T08:54:46.61Z</time></trkpt><trkpt lat="43.7045481" lon="12.1424902"><ele>852.3333333333333</ele><time>2026-04-12T08:54:47.609Z</time></trkpt><trkpt lat="43.70443" lon="12.1426623"><ele>853.0</ele><time>2026-04-12T08:54:48.609Z</time></trkpt><trkpt lat="43.7043291" lon="12.1428429"><ele>846.0</ele><time>2026-04-12T08:54:49.61Z</time></trkpt><trkpt lat="43.7042554" lon="12.143012"><ele>839.0</ele><time>2026-04-12T08:54:50.61Z</time></trkpt><trkpt lat="43.704204" lon="12.1431693"><ele>832.0</ele><time>2026-04-12T08:54:51.61Z</time></trkpt><trkpt lat="43.704194" lon="12.1433303"><ele>825.0</ele><time>2026-04-12T08:54:52.61Z</time></trkpt><trkpt lat="43.7042355" lon="12.1434787"><ele>825.0</ele><time>2026-04-12T08:54:53.61Z</time></trkpt><trkpt lat="43.7043296" lon="12.1435945"><ele>825.0</ele><time>2026-04-12T08:54:54.61Z</time></trkpt><trkpt lat="43.7044614" lon="12.1436788"><ele>825.0</ele><time>2026-04-12T08:54:55.609Z</time></trkpt><trkpt lat="43.704589" lon="12.1437644"><ele>825.0</ele><time>2026-04-12T08:54:56.61Z</time></trkpt><trkpt lat="43.704703" lon="12.143871"><ele>830.0</ele><time>2026-04-12T08:54:57.609Z</time></trkpt><trkpt lat="43.7047832" lon="12.1440123"><ele>835.0</ele><time>2026-04-12T08:54:58.609Z</time></trkpt><trkpt lat="43.7048164" lon="12.1441993"><ele>840.0</ele><time>2026-04-12T08:54:59.61Z</time></trkpt><trkpt lat="43.7048115" lon="12.1444343"><ele>845.0</ele><time>2026-04-12T08:55:00.61Z</time></trkpt><trkpt lat="43.7047962" lon="12.1447051"><ele>844.6666666666667</ele><time>2026-04-12T08:55:01.609Z</time></trkpt><trkpt lat="43.7047808" lon="12.1449935"><ele>844.3333333333333</ele><time>2026-04-12T08:55:02.61Z</time></trkpt><trkpt lat="43.7047751" lon="12.1452916"><ele>844.0</ele><time>2026-04-12T08:55:03.609Z</time></trkpt><trkpt lat="43.7047706" lon="12.1455698"><ele>842.0</ele><time>2026-04-12T08:55:04.61Z</time></trkpt><trkpt lat="43.704767" lon="12.1458188"><ele>840.0</ele><time>2026-04-12T08:55:05.61Z</time></trkpt><trkpt lat="43.704765" lon="12.1460455"><ele>838.0</ele><time>2026-04-12T08:55:06.61Z</time></trkpt><trkpt lat="43.7047763" lon="12.1462521"><ele>838.0</ele><time>2026-04-12T08:55:07.61Z</time></trkpt><trkpt lat="43.7048242" lon="12.1464573"><ele>838.0</ele><time>2026-04-12T08:55:08.609Z</time></trkpt><trkpt lat="43.7049075" lon="12.1466626"><ele>838.0</ele><time>2026-04-12T08:55:09.61Z</time></trkpt><trkpt lat="43.7050055" lon="12.1468552"><ele>835.25</ele><time>2026-04-12T08:55:10.61Z</time></trkpt><trkpt lat="43.7050978" lon="12.1470274"><ele>832.5</ele><time>2026-04-12T08:55:11.61Z</time></trkpt><trkpt lat="43.7051596" lon="12.1472101"><ele>829.75</ele><time>2026-04-12T08:55:12.61Z</time></trkpt><trkpt lat="43.7051933" lon="12.1473946"><ele>827.0</ele><time>2026-04-12T08:55:13.61Z</time></trkpt><trkpt lat="43.7051938" lon="12.1475773"><ele>824.25</ele><time>2026-04-12T08:55:14.609Z</time></trkpt><trkpt lat="43.7051815" lon="12.1477565"><ele>821.5</ele><time>2026-04-12T08:55:15.609Z</time></trkpt><trkpt lat="43.7052059" lon="12.1479264"><ele>818.75</ele><time>2026-04-12T08:55:16.61Z</time></trkpt><trkpt lat="43.7052826" lon="12.1480805"><ele>816.0</ele><time>2026-04-12T08:55:17.61Z</time></trkpt><trkpt lat="43.7053827" lon="12.1482017"><ele>818.25</ele><time>2026-04-12T08:55:18.61Z</time></trkpt><trkpt lat="43.7054787" lon="12.1483222"><ele>820.5</ele><time>2026-04-12T08:55:19.61Z</time></trkpt><trkpt lat="43.7055408" lon="12.148466"><ele>822.75</ele><time>2026-04-12T08:55:20.61Z</time></trkpt><trkpt lat="43.7055668" lon="12.1486357"><ele>825.0</ele><time>2026-04-12T08:55:21.61Z</time></trkpt><trkpt lat="43.7055381" lon="12.1488091"><ele>825.0</ele><time>2026-04-12T08:55:22.61Z</time></trkpt><trkpt lat="43.7054523" lon="12.1489603"><ele>825.0</ele><time>2026-04-12T08:55:23.61Z</time></trkpt><trkpt lat="43.7053351" lon="12.1490858"><ele>825.0</ele><time>2026-04-12T08:55:24.609Z</time></trkpt><trkpt lat="43.7052191" lon="12.1491926"><ele>825.0</ele><time>2026-04-12T08:55:25.61Z</time></trkpt><trkpt lat="43.7051175" lon="12.1492925"><ele>824.2</ele><time>2026-04-12T08:55:26.61Z</time></trkpt><trkpt lat="43.7050475" lon="12.1494028"><ele>823.4</ele><time>2026-04-12T08:55:27.61Z</time></trkpt><trkpt lat="43.7050241" lon="12.1495345"><ele>822.5999999999999</ele><time>2026-04-12T08:55:28.609Z</time></trkpt><trkpt lat="43.7050535" lon="12.1496704"><ele>821.8</ele><time>2026-04-12T08:55:29.609Z</time></trkpt><trkpt lat="43.7051305" lon="12.1497834"><ele>821.0</ele><time>2026-04-12T08:55:30.61Z</time></trkpt><trkpt lat="43.7052481" lon="12.1498647"><ele>819.0</ele><time>2026-04-12T08:55:31.609Z</time></trkpt><trkpt lat="43.7053926" lon="12.1499255"><ele>817.0</ele><time>2026-04-12T08:55:32.61Z</time></trkpt><trkpt lat="43.7055521" lon="12.1499882"><ele>815.0</ele><time>2026-04-12T08:55:33.61Z</time></trkpt><trkpt lat="43.7057048" lon="12.1500842"><ele>815.0</ele><time>2026-04-12T08:55:34.61Z</time></trkpt><trkpt lat="43.7058412" lon="12.1502131"><ele>815.0</ele><time>2026-04-12T08:55:35.61Z</time></trkpt><trkpt lat="43.7059555" lon="12.1503472"><ele>815.0</ele><time>2026-04-12T08:55:36.61Z</time></trkpt><trkpt lat="43.7060576" lon="12.1504571"><ele>815.0</ele><time>2026-04-12T08:55:37.61Z</time></trkpt><trkpt lat="43.70617" lon="12.1505142"><ele>814.25</ele><time>2026-04-12T08:55:38.61Z</time></trkpt><trkpt lat="43.7062822" lon="12.150509"><ele>813.5</ele><time>2026-04-12T08:55:39.609Z</time></trkpt><trkpt lat="43.7063921" lon="12.1504322"><ele>812.75</ele><time>2026-04-12T08:55:40.61Z</time></trkpt><trkpt lat="43.7064878" lon="12.1502934"><ele>812.0</ele><time>2026-04-12T08:55:41.61Z</time></trkpt><trkpt lat="43.7065811" lon="12.1501307"><ele>812.0</ele><time>2026-04-12T08:55:42.61Z</time></trkpt><trkpt lat="43.7066889" lon="12.150006"><ele>812.0</ele><time>2026-04-12T08:55:43.61Z</time></trkpt><trkpt lat="43.7068054" lon="12.1499289"><ele>812.0</ele><time>2026-04-12T08:55:44.61Z</time></trkpt><trkpt lat="43.7069341" lon="12.1499197"><ele>812.0</ele><time>2026-04-12T08:55:45.609Z</time></trkpt><trkpt lat="43.7070617" lon="12.1499877"><ele>812.0</ele><time>2026-04-12T08:55:46.61Z</time></trkpt><trkpt lat="43.7071819" lon="12.1501093"><ele>812.0</ele><time>2026-04-12T08:55:47.61Z</time></trkpt><trkpt lat="43.7072802" lon="12.1502821"><ele>812.0</ele><time>2026-04-12T08:55:48.609Z</time></trkpt><trkpt lat="43.7073431" lon="12.1504942"><ele>808.6666666666667</ele><time>2026-04-12T08:55:49.61Z</time></trkpt><trkpt lat="43.707379" lon="12.1507187"><ele>805.3333333333333</ele><time>2026-04-12T08:55:50.609Z</time></trkpt><trkpt lat="43.707406" lon="12.1509336"><ele>802.0</ele><time>2026-04-12T08:55:51.61Z</time></trkpt><trkpt lat="43.7074525" lon="12.1511295"><ele>802.0</ele><time>2026-04-12T08:55:52.61Z</time></trkpt><trkpt lat="43.7075247" lon="12.1512945"><ele>802.0</ele><time>2026-04-12T08:55:53.61Z</time></trkpt><trkpt lat="43.7076268" lon="12.1514082"><ele>802.0</ele><time>2026-04-12T08:55:54.61Z</time></trkpt><trkpt lat="43.7077628" lon="12.1514549"><ele>802.0</ele><time>2026-04-12T08:55:55.609Z</time></trkpt><trkpt lat="43.7079162" lon="12.1514433"><ele>806.0</ele><time>2026-04-12T08:55:56.609Z</time></trkpt><trkpt lat="43.708073" lon="12.151398"><ele>810.0</ele><time>2026-04-12T08:55:57.61Z</time></trkpt><trkpt lat="43.7082259" lon="12.1513732"><ele>814.0</ele><time>2026-04-12T08:55:58.61Z</time></trkpt><trkpt lat="43.7083767" lon="12.1513976"><ele>814.0</ele><time>2026-04-12T08:55:59.61Z</time></trkpt><trkpt lat="43.7085168" lon="12.1514611"><ele>814.0</ele><time>2026-04-12T08:56:00.61Z</time></trkpt><trkpt lat="43.7086496" lon="12.1515578"><ele>814.0</ele><time>2026-04-12T08:56:01.609Z</time></trkpt><trkpt lat="43.70876" lon="12.1516983"><ele>814.0</ele><time>2026-04-12T08:56:02.609Z</time></trkpt><trkpt lat="43.7088392" lon="12.1518823"><ele>814.3333333333333</ele><time>2026-04-12T08:56:03.609Z</time></trkpt><trkpt lat="43.7088812" lon="12.1521176"><ele>814.6666666666667</ele><time>2026-04-12T08:56:04.61Z</time></trkpt><trkpt lat="43.7089031" lon="12.1523781"><ele>815.0</ele><time>2026-04-12T08:56:05.61Z</time></trkpt><trkpt lat="43.7089029" lon="12.1526198"><ele>812.3333333333334</ele><time>2026-04-12T08:56:06.61Z</time></trkpt><trkpt lat="43.7088757" lon="12.1528451"><ele>809.6666666666667</ele><time>2026-04-12T08:56:07.61Z</time></trkpt><trkpt lat="43.7088164" lon="12.1530322"><ele>807.0</ele><time>2026-04-12T08:56:08.61Z</time></trkpt><trkpt lat="43.7087373" lon="12.1531939"><ele>807.0</ele><time>2026-04-12T08:56:09.61Z</time></trkpt><trkpt lat="43.7086667" lon="12.1533404"><ele>807.0</ele><time>2026-04-12T08:56:10.61Z</time></trkpt><trkpt lat="43.7086226" lon="12.1534834"><ele>807.0</ele><time>2026-04-12T08:56:11.609Z</time></trkpt><trkpt lat="43.7086305" lon="12.1536426"><ele>807.0</ele><time>2026-04-12T08:56:12.61Z</time></trkpt><trkpt lat="43.7086988" lon="12.1538191"><ele>807.0</ele><time>2026-04-12T08:56:13.609Z</time></trkpt><trkpt lat="43.7088194" lon="12.1539991"><ele>807.0</ele><time>2026-04-12T08:56:14.609Z</time></trkpt><trkpt lat="43.708951" lon="12.1541886"><ele>807.0</ele><time>2026-04-12T08:56:15.609Z</time></trkpt><trkpt lat="43.7090628" lon="12.1543959"><ele>804.6666666666667</ele><time>2026-04-12T08:56:16.61Z</time></trkpt><trkpt lat="43.7091458" lon="12.154651"><ele>802.3333333333334</ele><time>2026-04-12T08:56:17.609Z</time></trkpt><trkpt lat="43.7092075" lon="12.154936"><ele>800.0</ele><time>2026-04-12T08:56:18.609Z</time></trkpt><trkpt lat="43.7092685" lon="12.1552641"><ele>795.5</ele><time>2026-04-12T08:56:19.61Z</time></trkpt><trkpt lat="43.709329" lon="12.1556231"><ele>791.0</ele><time>2026-04-12T08:56:20.61Z</time></trkpt><trkpt lat="43.7093895" lon="12.15597"><ele>799.0</ele><time>2026-04-12T08:56:21.61Z</time></trkpt><trkpt lat="43.7094521" lon="12.1562885"><ele>807.0</ele><time>2026-04-12T08:56:22.61Z</time></trkpt><trkpt lat="43.7095125" lon="12.1565721"><ele>807.0</ele><time>2026-04-12T08:56:23.61Z</time></trkpt><trkpt lat="43.7095775" lon="12.156827"><ele>807.0</ele><time>2026-04-12T08:56:24.61Z</time></trkpt><trkpt lat="43.7096344" lon="12.1570621"><ele>807.0</ele><time>2026-04-12T08:56:25.61Z</time></trkpt><trkpt lat="43.7096584" lon="12.1572948"><ele>805.6666666666667</ele><time>2026-04-12T08:56:26.609Z</time></trkpt><trkpt lat="43.7096433" lon="12.1575447"><ele>804.3333333333334</ele><time>2026-04-12T08:56:27.609Z</time></trkpt><trkpt lat="43.7096029" lon="12.1578142"><ele>803.0</ele><time>2026-04-12T08:56:28.61Z</time></trkpt><trkpt lat="43.7095532" lon="12.1581165"><ele>799.0</ele><time>2026-04-12T08:56:29.609Z</time></trkpt><trkpt lat="43.7095263" lon="12.158447"><ele>795.0</ele><time>2026-04-12T08:56:30.61Z</time></trkpt><trkpt lat="43.709512" lon="12.1587659"><ele>793.3333333333333</ele><time>2026-04-12T08:56:31.609Z</time></trkpt><trkpt lat="43.7095022" lon="12.1590626"><ele>791.6666666666666</ele><time>2026-04-12T08:56:32.609Z</time></trkpt><trkpt lat="43.7094931" lon="12.1593192"><ele>790.0</ele><time>2026-04-12T08:56:33.609Z</time></trkpt><trkpt lat="43.709485" lon="12.1595281"><ele>790.0</ele><time>2026-04-12T08:56:34.609Z</time></trkpt><trkpt lat="43.7094833" lon="12.159705"><ele>790.0</ele><time>2026-04-12T08:56:35.61Z</time></trkpt><trkpt lat="43.7095067" lon="12.15989"><ele>790.0</ele><time>2026-04-12T08:56:36.61Z</time></trkpt><trkpt lat="43.7095783" lon="12.1600533"><ele>790.0</ele><time>2026-04-12T08:56:37.609Z</time></trkpt><trkpt lat="43.7096967" lon="12.160195"><ele>787.6666666666666</ele><time>2026-04-12T08:56:38.61Z</time></trkpt><trkpt lat="43.7098467" lon="12.1603333"><ele>785.3333333333333</ele><time>2026-04-12T08:56:39.609Z</time></trkpt><trkpt lat="43.7100217" lon="12.16044"><ele>783.0</ele><time>2026-04-12T08:56:40.609Z</time></trkpt><trkpt lat="43.7101883" lon="12.1605167"><ele>781.5</ele><time>2026-04-12T08:56:41.61Z</time></trkpt><trkpt lat="43.7103467" lon="12.1605517"><ele>780.0</ele><time>2026-04-12T08:56:42.61Z</time></trkpt><trkpt lat="43.7104883" lon="12.1605733"><ele>778.5</ele><time>2026-04-12T08:56:43.609Z</time></trkpt><trkpt lat="43.7106133" lon="12.1606367"><ele>777.0</ele><time>2026-04-12T08:56:44.609Z</time></trkpt><trkpt lat="43.71073" lon="12.16075"><ele>777.0</ele><time>2026-04-12T08:56:45.61Z</time></trkpt><trkpt lat="43.7108383" lon="12.1609183"><ele>777.0</ele><time>2026-04-12T08:56:46.61Z</time></trkpt><trkpt lat="43.7109233" lon="12.161135"><ele>777.0</ele><time>2026-04-12T08:56:47.609Z</time></trkpt><trkpt lat="43.71099" lon="12.16135"><ele>778.0</ele><time>2026-04-12T08:56:48.61Z</time></trkpt><trkpt lat="43.7110533" lon="12.16154"><ele>779.0</ele><time>2026-04-12T08:56:49.61Z</time></trkpt><trkpt lat="43.71113" lon="12.1616933"><ele>780.0</ele><time>2026-04-12T08:56:50.61Z</time></trkpt><trkpt lat="43.7112367" lon="12.161815"><ele>781.0</ele><time>2026-04-12T08:56:51.61Z</time></trkpt><trkpt lat="43.7113833" lon="12.16188"><ele>781.0</ele><time>2026-04-12T08:56:52.609Z</time></trkpt><trkpt lat="43.7115483" lon="12.1619"><ele>781.0</ele><time>2026-04-12T08:56:53.61Z</time></trkpt><trkpt lat="43.7117167" lon="12.1618833"><ele>781.0</ele><time>2026-04-12T08:56:54.61Z</time></trkpt><trkpt lat="43.7118683" lon="12.1618817"><ele>784.0</ele><time>2026-04-12T08:56:55.61Z</time></trkpt><trkpt lat="43.7120033" lon="12.1619283"><ele>787.0</ele><time>2026-04-12T08:56:56.609Z</time></trkpt><trkpt lat="43.7121267" lon="12.1620167"><ele>790.0</ele><time>2026-04-12T08:56:57.61Z</time></trkpt><trkpt lat="43.7122417" lon="12.1621633"><ele>793.0</ele><time>2026-04-12T08:56:58.609Z</time></trkpt><trkpt lat="43.712335" lon="12.1623533"><ele>789.0</ele><time>2026-04-12T08:56:59.61Z</time></trkpt><trkpt lat="43.712405" lon="12.16256"><ele>785.0</ele><time>2026-04-12T08:57:00.61Z</time></trkpt><trkpt lat="43.7124367" lon="12.1627683"><ele>781.0</ele><time>2026-04-12T08:57:01.61Z</time></trkpt><trkpt lat="43.7124267" lon="12.1629783"><ele>781.0</ele><time>2026-04-12T08:57:02.609Z</time></trkpt><trkpt lat="43.7123633" lon="12.1631583"><ele>781.0</ele><time>2026-04-12T08:57:03.61Z</time></trkpt><trkpt lat="43.71226" lon="12.1633217"><ele>781.0</ele><time>2026-04-12T08:57:04.61Z</time></trkpt><trkpt lat="43.71212" lon="12.16347"><ele>781.6666666666666</ele><time>2026-04-12T08:57:05.609Z</time></trkpt><trkpt lat="43.7119683" lon="12.1636317"><ele>782.3333333333333</ele><time>2026-04-12T08:57:06.61Z</time></trkpt><trkpt lat="43.7118267" lon="12.16386"><ele>783.0</ele><time>2026-04-12T08:57:07.61Z</time></trkpt><trkpt lat="43.71169" lon="12.1641383"><ele>781.0</ele><time>2026-04-12T08:57:08.609Z</time></trkpt><trkpt lat="43.71156" lon="12.1644333"><ele>779.0</ele><time>2026-04-12T08:57:09.61Z</time></trkpt><trkpt lat="43.7114372" lon="12.1647342"><ele>783.0</ele><time>2026-04-12T08:57:10.61Z</time></trkpt><trkpt lat="43.7113163" lon="12.1650428"><ele>787.0</ele><time>2026-04-12T08:57:11.609Z</time></trkpt><trkpt lat="43.7111896" lon="12.1653567"><ele>780.0</ele><time>2026-04-12T08:57:12.609Z</time></trkpt><trkpt lat="43.7110593" lon="12.1656927"><ele>773.0</ele><time>2026-04-12T08:57:13.61Z</time></trkpt><trkpt lat="43.710932" lon="12.1660393"><ele>773.0</ele><time>2026-04-12T08:57:14.609Z</time></trkpt><trkpt lat="43.7108124" lon="12.166363"><ele>773.0</ele><time>2026-04-12T08:57:15.61Z</time></trkpt><trkpt lat="43.7106957" lon="12.1666563"><ele>777.3333333333334</ele><time>2026-04-12T08:57:16.61Z</time></trkpt><trkpt lat="43.7105833" lon="12.1669203"><ele>781.6666666666667</ele><time>2026-04-12T08:57:17.609Z</time></trkpt><trkpt lat="43.710475" lon="12.1671585"><ele>786.0</ele><time>2026-04-12T08:57:18.61Z</time></trkpt><trkpt lat="43.7103744" lon="12.1673732"><ele>786.0</ele><time>2026-04-12T08:57:19.609Z</time></trkpt><trkpt lat="43.71028" lon="12.167579"><ele>786.0</ele><time>2026-04-12T08:57:20.609Z</time></trkpt><trkpt lat="43.7101978" lon="12.1677769"><ele>786.0</ele><time>2026-04-12T08:57:21.61Z</time></trkpt><trkpt lat="43.7101361" lon="12.1679831"><ele>789.0</ele><time>2026-04-12T08:57:22.61Z</time></trkpt><trkpt lat="43.7100955" lon="12.1681955"><ele>792.0</ele><time>2026-04-12T08:57:23.61Z</time></trkpt><trkpt lat="43.7100705" lon="12.1684184"><ele>795.0</ele><time>2026-04-12T08:57:24.61Z</time></trkpt><trkpt lat="43.7100665" lon="12.1686479"><ele>795.0</ele><time>2026-04-12T08:57:25.61Z</time></trkpt><trkpt lat="43.710078" lon="12.1688794"><ele>795.0</ele><time>2026-04-12T08:57:26.61Z</time></trkpt><trkpt lat="43.7100955" lon="12.1691143"><ele>795.0</ele><time>2026-04-12T08:57:27.61Z</time></trkpt><trkpt lat="43.7101164" lon="12.1693537"><ele>794.6666666666667</ele><time>2026-04-12T08:57:28.609Z</time></trkpt><trkpt lat="43.7101364" lon="12.1695944"><ele>794.3333333333334</ele><time>2026-04-12T08:57:29.61Z</time></trkpt><trkpt lat="43.710154" lon="12.1698315"><ele>794.0</ele><time>2026-04-12T08:57:30.61Z</time></trkpt><trkpt lat="43.7101727" lon="12.17007"><ele>794.0</ele><time>2026-04-12T08:57:31.61Z</time></trkpt><trkpt lat="43.7101922" lon="12.1703095"><ele>794.0</ele><time>2026-04-12T08:57:32.61Z</time></trkpt><trkpt lat="43.710212" lon="12.1705499"><ele>794.0</ele><time>2026-04-12T08:57:33.61Z</time></trkpt><trkpt lat="43.7102159" lon="12.1712643"><ele>793.6666666666667</ele><time>2026-04-12T08:57:36.607Z</time></trkpt><trkpt lat="43.7102379" lon="12.1715016"><ele>793.3333333333333</ele><time>2026-04-12T08:57:37.606Z</time></trkpt><trkpt lat="43.7102457" lon="12.1717278"><ele>793.0</ele><time>2026-04-12T08:57:38.606Z</time></trkpt><trkpt lat="43.7102075" lon="12.1719238"><ele>787.75</ele><time>2026-04-12T08:57:39.606Z</time></trkpt><trkpt lat="43.71016" lon="12.1721128"><ele>782.5</ele><time>2026-04-12T08:57:40.607Z</time></trkpt><trkpt lat="43.7101157" lon="12.1723132"><ele>777.25</ele><time>2026-04-12T08:57:41.607Z</time></trkpt><trkpt lat="43.7100833" lon="12.1725178"><ele>772.0</ele><time>2026-04-12T08:57:42.607Z</time></trkpt><trkpt lat="43.710081" lon="12.1727432"><ele>770.3333333333333</ele><time>2026-04-12T08:57:43.607Z</time></trkpt><trkpt lat="43.7101158" lon="12.1729761"><ele>768.6666666666666</ele><time>2026-04-12T08:57:44.607Z</time></trkpt><trkpt lat="43.7101907" lon="12.1731986"><ele>767.0</ele><time>2026-04-12T08:57:45.607Z</time></trkpt><trkpt lat="43.7102939" lon="12.1734062"><ele>767.0</ele><time>2026-04-12T08:57:46.607Z</time></trkpt><trkpt lat="43.710387" lon="12.1736184"><ele>767.0</ele><time>2026-04-12T08:57:47.607Z</time></trkpt><trkpt lat="43.7104534" lon="12.1738471"><ele>767.0</ele><time>2026-04-12T08:57:48.607Z</time></trkpt><trkpt lat="43.7104996" lon="12.1740873"><ele>767.0</ele><time>2026-04-12T08:57:49.607Z</time></trkpt><trkpt lat="43.7105299" lon="12.1743421"><ele>767.0</ele><time>2026-04-12T08:57:50.606Z</time></trkpt><trkpt lat="43.7105536" lon="12.174603"><ele>767.0</ele><time>2026-04-12T08:57:51.607Z</time></trkpt><trkpt lat="43.710579" lon="12.1748704"><ele>765.6666666666666</ele><time>2026-04-12T08:57:52.607Z</time></trkpt><trkpt lat="43.7106056" lon="12.1751448"><ele>764.3333333333334</ele><time>2026-04-12T08:57:53.607Z</time></trkpt><trkpt lat="43.7106317" lon="12.1754212"><ele>763.0</ele><time>2026-04-12T08:57:54.607Z</time></trkpt><trkpt lat="43.7106521" lon="12.1756946"><ele>761.3333333333334</ele><time>2026-04-12T08:57:55.607Z</time></trkpt><trkpt lat="43.710664" lon="12.1759573"><ele>759.6666666666666</ele><time>2026-04-12T08:57:56.607Z</time></trkpt><trkpt lat="43.7106777" lon="12.1762095"><ele>758.0</ele><time>2026-04-12T08:57:57.606Z</time></trkpt><trkpt lat="43.7106809" lon="12.1764487"><ele>754.6666666666666</ele><time>2026-04-12T08:57:58.607Z</time></trkpt><trkpt lat="43.7106609" lon="12.1766908"><ele>751.3333333333334</ele><time>2026-04-12T08:57:59.607Z</time></trkpt><trkpt lat="43.710611" lon="12.1769357"><ele>748.0</ele><time>2026-04-12T08:58:00.607Z</time></trkpt><trkpt lat="43.7105245" lon="12.1771803"><ele>746.6666666666667</ele><time>2026-04-12T08:58:01.606Z</time></trkpt><trkpt lat="43.7104243" lon="12.1774098"><ele>745.3333333333334</ele><time>2026-04-12T08:58:02.606Z</time></trkpt><trkpt lat="43.7103311" lon="12.1776224"><ele>744.0</ele><time>2026-04-12T08:58:03.606Z</time></trkpt><trkpt lat="43.7102481" lon="12.1778316"><ele>736.6666666666666</ele><time>2026-04-12T08:58:04.606Z</time></trkpt><trkpt lat="43.7101835" lon="12.1780569"><ele>729.3333333333333</ele><time>2026-04-12T08:58:05.607Z</time></trkpt><trkpt lat="43.7101496" lon="12.1782937"><ele>722.0</ele><time>2026-04-12T08:58:06.606Z</time></trkpt><trkpt lat="43.7101462" lon="12.1785451"><ele>721.6666666666666</ele><time>2026-04-12T08:58:07.607Z</time></trkpt><trkpt lat="43.7101642" lon="12.1788032"><ele>721.3333333333334</ele><time>2026-04-12T08:58:08.606Z</time></trkpt><trkpt lat="43.7101959" lon="12.179048"><ele>721.0</ele><time>2026-04-12T08:58:09.607Z</time></trkpt><trkpt lat="43.710223" lon="12.1792857"><ele>718.6666666666667</ele><time>2026-04-12T08:58:10.607Z</time></trkpt><trkpt lat="43.7102454" lon="12.179515"><ele>716.3333333333334</ele><time>2026-04-12T08:58:11.607Z</time></trkpt><trkpt lat="43.7102496" lon="12.179732"><ele>714.0</ele><time>2026-04-12T08:58:12.606Z</time></trkpt><trkpt lat="43.7102352" lon="12.1799448"><ele>714.0</ele><time>2026-04-12T08:58:13.607Z</time></trkpt><trkpt lat="43.7101982" lon="12.1801446"><ele>714.0</ele><time>2026-04-12T08:58:14.607Z</time></trkpt><trkpt lat="43.7101432" lon="12.1803328"><ele>714.0</ele><time>2026-04-12T08:58:15.607Z</time></trkpt><trkpt lat="43.7100793" lon="12.1805112"><ele>714.0</ele><time>2026-04-12T08:58:16.606Z</time></trkpt><trkpt lat="43.71002" lon="12.1806774"><ele>713.25</ele><time>2026-04-12T08:58:17.607Z</time></trkpt><trkpt lat="43.7099677" lon="12.1808351"><ele>712.5</ele><time>2026-04-12T08:58:18.607Z</time></trkpt><trkpt lat="43.7099129" lon="12.1809892"><ele>711.75</ele><time>2026-04-12T08:58:19.606Z</time></trkpt><trkpt lat="43.7098622" lon="12.1811427"><ele>711.0</ele><time>2026-04-12T08:58:20.606Z</time></trkpt><trkpt lat="43.7098089" lon="12.1812913"><ele>711.0</ele><time>2026-04-12T08:58:21.606Z</time></trkpt><trkpt lat="43.7097543" lon="12.1814388"><ele>711.0</ele><time>2026-04-12T08:58:22.607Z</time></trkpt><trkpt lat="43.7097002" lon="12.1815891"><ele>711.0</ele><time>2026-04-12T08:58:23.606Z</time></trkpt><trkpt lat="43.709649" lon="12.1817396"><ele>711.0</ele><time>2026-04-12T08:58:24.607Z</time></trkpt><trkpt lat="43.7095986" lon="12.1818957"><ele>710.25</ele><time>2026-04-12T08:58:25.607Z</time></trkpt><trkpt lat="43.7095456" lon="12.1820545"><ele>709.5</ele><time>2026-04-12T08:58:26.606Z</time></trkpt><trkpt lat="43.7094904" lon="12.1822189"><ele>708.75</ele><time>2026-04-12T08:58:27.607Z</time></trkpt><trkpt lat="43.7094276" lon="12.1823822"><ele>708.0</ele><time>2026-04-12T08:58:28.606Z</time></trkpt><trkpt lat="43.709365" lon="12.182543"><ele>704.25</ele><time>2026-04-12T08:58:29.607Z</time></trkpt><trkpt lat="43.7093027" lon="12.1826998"><ele>700.5</ele><time>2026-04-12T08:58:30.607Z</time></trkpt><trkpt lat="43.7092391" lon="12.1828503"><ele>696.75</ele><time>2026-04-12T08:58:31.607Z</time></trkpt><trkpt lat="43.7091715" lon="12.1829906"><ele>693.0</ele><time>2026-04-12T08:58:32.607Z</time></trkpt><trkpt lat="43.709107" lon="12.1831316"><ele>694.0</ele><time>2026-04-12T08:58:33.607Z</time></trkpt><trkpt lat="43.7090367" lon="12.1832701"><ele>695.0</ele><time>2026-04-12T08:58:34.607Z</time></trkpt><trkpt lat="43.7089612" lon="12.1834099"><ele>696.0</ele><time>2026-04-12T08:58:35.606Z</time></trkpt><trkpt lat="43.7088809" lon="12.1835592"><ele>697.0</ele><time>2026-04-12T08:58:36.606Z</time></trkpt><trkpt lat="43.7088066" lon="12.1837157"><ele>697.0</ele><time>2026-04-12T08:58:37.607Z</time></trkpt><trkpt lat="43.7087276" lon="12.1838605"><ele>697.0</ele><time>2026-04-12T08:58:38.606Z</time></trkpt><trkpt lat="43.7086399" lon="12.1839831"><ele>697.0</ele><time>2026-04-12T08:58:39.607Z</time></trkpt><trkpt lat="43.7085382" lon="12.1840864"><ele>697.0</ele><time>2026-04-12T08:58:40.607Z</time></trkpt><trkpt lat="43.7084265" lon="12.1841721"><ele>695.75</ele><time>2026-04-12T08:58:41.607Z</time></trkpt><trkpt lat="43.7083143" lon="12.1842338"><ele>694.5</ele><time>2026-04-12T08:58:42.607Z</time></trkpt><trkpt lat="43.7081965" lon="12.184272"><ele>693.25</ele><time>2026-04-12T08:58:43.607Z</time></trkpt><trkpt lat="43.7080707" lon="12.1842905"><ele>692.0</ele><time>2026-04-12T08:58:44.607Z</time></trkpt><trkpt lat="43.7079363" lon="12.1842937"><ele>692.0</ele><time>2026-04-12T08:58:45.607Z</time></trkpt><trkpt lat="43.7077999" lon="12.1842796"><ele>692.0</ele><time>2026-04-12T08:58:46.607Z</time></trkpt><trkpt lat="43.707663" lon="12.1842558"><ele>692.0</ele><time>2026-04-12T08:58:47.607Z</time></trkpt><trkpt lat="43.7075341" lon="12.184238"><ele>692.0</ele><time>2026-04-12T08:58:48.607Z</time></trkpt><trkpt lat="43.7074069" lon="12.1842276"><ele>691.75</ele><time>2026-04-12T08:58:49.606Z</time></trkpt><trkpt lat="43.7072863" lon="12.184212"><ele>691.5</ele><time>2026-04-12T08:58:50.607Z</time></trkpt><trkpt lat="43.7071795" lon="12.184207"><ele>691.25</ele><time>2026-04-12T08:58:51.607Z</time></trkpt><trkpt lat="43.7070701" lon="12.1842151"><ele>691.0</ele><time>2026-04-12T08:58:52.607Z</time></trkpt><trkpt lat="43.7069541" lon="12.1842442"><ele>691.5</ele><time>2026-04-12T08:58:53.606Z</time></trkpt><trkpt lat="43.7068358" lon="12.1842925"><ele>692.0</ele><time>2026-04-12T08:58:54.607Z</time></trkpt><trkpt lat="43.7067201" lon="12.1843677"><ele>692.5</ele><time>2026-04-12T08:58:55.607Z</time></trkpt><trkpt lat="43.7066069" lon="12.1844799"><ele>693.0</ele><time>2026-04-12T08:58:56.607Z</time></trkpt><trkpt lat="43.7064977" lon="12.1846164"><ele>693.0</ele><time>2026-04-12T08:58:57.606Z</time></trkpt><trkpt lat="43.7063912" lon="12.1847645"><ele>693.0</ele><time>2026-04-12T08:58:58.606Z</time></trkpt><trkpt lat="43.7062903" lon="12.184922"><ele>693.0</ele><time>2026-04-12T08:58:59.606Z</time></trkpt><trkpt lat="43.7061944" lon="12.1850697"><ele>693.0</ele><time>2026-04-12T08:59:00.607Z</time></trkpt><trkpt lat="43.7060984" lon="12.1852088"><ele>692.75</ele><time>2026-04-12T08:59:01.607Z</time></trkpt><trkpt lat="43.7060024" lon="12.185342"><ele>692.5</ele><time>2026-04-12T08:59:02.606Z</time></trkpt><trkpt lat="43.7059042" lon="12.1854673"><ele>692.25</ele><time>2026-04-12T08:59:03.607Z</time></trkpt><trkpt lat="43.7058091" lon="12.1855903"><ele>692.0</ele><time>2026-04-12T08:59:04.606Z</time></trkpt><trkpt lat="43.7057182" lon="12.185714"><ele>693.75</ele><time>2026-04-12T08:59:05.607Z</time></trkpt><trkpt lat="43.7056336" lon="12.1858371"><ele>695.5</ele><time>2026-04-12T08:59:06.606Z</time></trkpt><trkpt lat="43.7055497" lon="12.1859646"><ele>697.25</ele><time>2026-04-12T08:59:07.607Z</time></trkpt><trkpt lat="43.7054688" lon="12.1860887"><ele>699.0</ele><time>2026-04-12T08:59:08.607Z</time></trkpt><trkpt lat="43.7053794" lon="12.1862117"><ele>699.0</ele><time>2026-04-12T08:59:09.607Z</time></trkpt><trkpt lat="43.7052781" lon="12.1863466"><ele>699.0</ele><time>2026-04-12T08:59:10.607Z</time></trkpt><trkpt lat="43.7051686" lon="12.1864861"><ele>699.0</ele><time>2026-04-12T08:59:11.607Z</time></trkpt><trkpt lat="43.7050559" lon="12.1866266"><ele>699.0</ele><time>2026-04-12T08:59:12.606Z</time></trkpt><trkpt lat="43.7049368" lon="12.1867643"><ele>697.25</ele><time>2026-04-12T08:59:13.607Z</time></trkpt><trkpt lat="43.7048178" lon="12.1868955"><ele>695.5</ele><time>2026-04-12T08:59:14.606Z</time></trkpt><trkpt lat="43.7047026" lon="12.1870158"><ele>693.75</ele><time>2026-04-12T08:59:15.607Z</time></trkpt><trkpt lat="43.7045858" lon="12.1871323"><ele>692.0</ele><time>2026-04-12T08:59:16.606Z</time></trkpt><trkpt lat="43.7044653" lon="12.1872552"><ele>692.0</ele><time>2026-04-12T08:59:17.607Z</time></trkpt><trkpt lat="43.7043488" lon="12.1873709"><ele>692.0</ele><time>2026-04-12T08:59:18.607Z</time></trkpt><trkpt lat="43.704236" lon="12.1874872"><ele>692.0</ele><time>2026-04-12T08:59:19.607Z</time></trkpt><trkpt lat="43.7041232" lon="12.1876017"><ele>692.0</ele><time>2026-04-12T08:59:20.607Z</time></trkpt><trkpt lat="43.7040131" lon="12.1877122"><ele>692.0</ele><time>2026-04-12T08:59:21.606Z</time></trkpt><trkpt lat="43.7039048" lon="12.1878259"><ele>692.0</ele><time>2026-04-12T08:59:22.606Z</time></trkpt><trkpt lat="43.7037941" lon="12.1879455"><ele>692.0</ele><time>2026-04-12T08:59:23.607Z</time></trkpt><trkpt lat="43.7036804" lon="12.188062"><ele>692.0</ele><time>2026-04-12T08:59:24.606Z</time></trkpt><trkpt lat="43.7035652" lon="12.1881799"><ele>691.25</ele><time>2026-04-12T08:59:25.607Z</time></trkpt><trkpt lat="43.7034498" lon="12.1882961"><ele>690.5</ele><time>2026-04-12T08:59:26.606Z</time></trkpt><trkpt lat="43.7033348" lon="12.1884181"><ele>689.75</ele><time>2026-04-12T08:59:27.606Z</time></trkpt><trkpt lat="43.7032274" lon="12.1885385"><ele>689.0</ele><time>2026-04-12T08:59:28.607Z</time></trkpt><trkpt lat="43.7031285" lon="12.1886529"><ele>689.0</ele><time>2026-04-12T08:59:29.606Z</time></trkpt><trkpt lat="43.7030374" lon="12.188769"><ele>689.0</ele><time>2026-04-12T08:59:30.607Z</time></trkpt><trkpt lat="43.7029608" lon="12.1889131"><ele>689.0</ele><time>2026-04-12T08:59:31.606Z</time></trkpt><trkpt lat="43.7028995" lon="12.1890929"><ele>689.0</ele><time>2026-04-12T08:59:32.606Z</time></trkpt><trkpt lat="43.7028741" lon="12.1893077"><ele>688.0</ele><time>2026-04-12T08:59:33.607Z</time></trkpt><trkpt lat="43.7028742" lon="12.1895354"><ele>687.0</ele><time>2026-04-12T08:59:34.606Z</time></trkpt><trkpt lat="43.7028974" lon="12.1897555"><ele>686.0</ele><time>2026-04-12T08:59:35.607Z</time></trkpt><trkpt lat="43.7029524" lon="12.1899683"><ele>686.0</ele><time>2026-04-12T08:59:36.607Z</time></trkpt><trkpt lat="43.703041" lon="12.1901577"><ele>686.0</ele><time>2026-04-12T08:59:37.607Z</time></trkpt><trkpt lat="43.7031624" lon="12.1903136"><ele>686.0</ele><time>2026-04-12T08:59:38.607Z</time></trkpt><trkpt lat="43.7033158" lon="12.1904344"><ele>686.0</ele><time>2026-04-12T08:59:39.606Z</time></trkpt><trkpt lat="43.7034931" lon="12.1905292"><ele>686.0</ele><time>2026-04-12T08:59:40.607Z</time></trkpt><trkpt lat="43.7036872" lon="12.1906164"><ele>686.0</ele><time>2026-04-12T08:59:41.607Z</time></trkpt><trkpt lat="43.7038942" lon="12.1906985"><ele>682.6666666666666</ele><time>2026-04-12T08:59:42.607Z</time></trkpt><trkpt lat="43.7040887" lon="12.1907825"><ele>679.3333333333334</ele><time>2026-04-12T08:59:43.607Z</time></trkpt><trkpt lat="43.704264" lon="12.1908625"><ele>676.0</ele><time>2026-04-12T08:59:44.608Z</time></trkpt><trkpt lat="43.7044321" lon="12.1909361"><ele>676.0</ele><time>2026-04-12T08:59:45.608Z</time></trkpt><trkpt lat="43.7046086" lon="12.1909839"><ele>676.0</ele><time>2026-04-12T08:59:46.608Z</time></trkpt><trkpt lat="43.7047979" lon="12.1909955"><ele>676.0</ele><time>2026-04-12T08:59:47.608Z</time></trkpt><trkpt lat="43.7049991" lon="12.1909784"><ele>676.0</ele><time>2026-04-12T08:59:48.607Z</time></trkpt><trkpt lat="43.7051845" lon="12.1909557"><ele>676.0</ele><time>2026-04-12T08:59:49.607Z</time></trkpt><trkpt lat="43.7053509" lon="12.1909373"><ele>676.0</ele><time>2026-04-12T08:59:50.608Z</time></trkpt><trkpt lat="43.7054939" lon="12.1909166"><ele>676.0</ele><time>2026-04-12T08:59:51.607Z</time></trkpt><trkpt lat="43.7056246" lon="12.1909246"><ele>676.0</ele><time>2026-04-12T08:59:52.608Z</time></trkpt><trkpt lat="43.7057378" lon="12.1909788"><ele>676.0</ele><time>2026-04-12T08:59:53.607Z</time></trkpt><trkpt lat="43.7058334" lon="12.1910864"><ele>676.0</ele><time>2026-04-12T08:59:54.608Z</time></trkpt><trkpt lat="43.7058921" lon="12.1912494"><ele>676.0</ele><time>2026-04-12T08:59:55.608Z</time></trkpt><trkpt lat="43.7059061" lon="12.1914344"><ele>676.0</ele><time>2026-04-12T08:59:56.608Z</time></trkpt><trkpt lat="43.7058754" lon="12.1916199"><ele>676.0</ele><time>2026-04-12T08:59:57.607Z</time></trkpt><trkpt lat="43.7058033" lon="12.1917771"><ele>676.0</ele><time>2026-04-12T08:59:58.607Z</time></trkpt><trkpt lat="43.7056914" lon="12.1919005"><ele>672.3333333333334</ele><time>2026-04-12T08:59:59.608Z</time></trkpt><trkpt lat="43.7055376" lon="12.1919868"><ele>668.6666666666666</ele><time>2026-04-12T09:00:00.607Z</time></trkpt><trkpt lat="43.7053554" lon="12.1920521"><ele>665.0</ele><time>2026-04-12T09:00:01.607Z</time></trkpt><trkpt lat="43.7051599" lon="12.1921058"><ele>665.0</ele><time>2026-04-12T09:00:02.607Z</time></trkpt><trkpt lat="43.7049704" lon="12.1921477"><ele>665.0</ele><time>2026-04-12T09:00:03.608Z</time></trkpt><trkpt lat="43.7047993" lon="12.1921877"><ele>665.0</ele><time>2026-04-12T09:00:04.607Z</time></trkpt><trkpt lat="43.7046424" lon="12.1922272"><ele>665.0</ele><time>2026-04-12T09:00:05.608Z</time></trkpt><trkpt lat="43.7045053" lon="12.1922865"><ele>665.0</ele><time>2026-04-12T09:00:06.607Z</time></trkpt><trkpt lat="43.7043899" lon="12.1923808"><ele>665.0</ele><time>2026-04-12T09:00:07.608Z</time></trkpt><trkpt lat="43.7043009" lon="12.1925135"><ele>665.0</ele><time>2026-04-12T09:00:08.607Z</time></trkpt><trkpt lat="43.7042456" lon="12.1926817"><ele>662.25</ele><time>2026-04-12T09:00:09.607Z</time></trkpt><trkpt lat="43.7042325" lon="12.1928711"><ele>659.5</ele><time>2026-04-12T09:00:10.608Z</time></trkpt><trkpt lat="43.7042664" lon="12.1930595"><ele>656.75</ele><time>2026-04-12T09:00:11.607Z</time></trkpt><trkpt lat="43.704342" lon="12.1932243"><ele>654.0</ele><time>2026-04-12T09:00:12.607Z</time></trkpt><trkpt lat="43.7044622" lon="12.1933446"><ele>651.0</ele><time>2026-04-12T09:00:13.608Z</time></trkpt><trkpt lat="43.7046162" lon="12.1934143"><ele>648.0</ele><time>2026-04-12T09:00:14.608Z</time></trkpt><trkpt lat="43.7047843" lon="12.1934446"><ele>645.0</ele><time>2026-04-12T09:00:15.607Z</time></trkpt><trkpt lat="43.7049658" lon="12.1934524"><ele>645.0</ele><time>2026-04-12T09:00:16.608Z</time></trkpt><trkpt lat="43.7051607" lon="12.1934518"><ele>645.0</ele><time>2026-04-12T09:00:17.607Z</time></trkpt><trkpt lat="43.7053472" lon="12.1934557"><ele>645.0</ele><time>2026-04-12T09:00:18.608Z</time></trkpt><trkpt lat="43.7055231" lon="12.1934719"><ele>644.0</ele><time>2026-04-12T09:00:19.607Z</time></trkpt><trkpt lat="43.7056961" lon="12.1935084"><ele>643.0</ele><time>2026-04-12T09:00:20.608Z</time></trkpt><trkpt lat="43.7058757" lon="12.1935914"><ele>642.0</ele><time>2026-04-12T09:00:21.608Z</time></trkpt><trkpt lat="43.7060619" lon="12.193721"><ele>642.0</ele><time>2026-04-12T09:00:22.608Z</time></trkpt><trkpt lat="43.7062493" lon="12.1938992"><ele>642.0</ele><time>2026-04-12T09:00:23.608Z</time></trkpt><trkpt lat="43.7064391" lon="12.1940942"><ele>636.5</ele><time>2026-04-12T09:00:24.607Z</time></trkpt><trkpt lat="43.7066329" lon="12.1942923"><ele>631.0</ele><time>2026-04-12T09:00:25.608Z</time></trkpt><trkpt lat="43.7068238" lon="12.1944809"><ele>628.6666666666667</ele><time>2026-04-12T09:00:26.607Z</time></trkpt><trkpt lat="43.7070109" lon="12.194659"><ele>626.3333333333334</ele><time>2026-04-12T09:00:27.608Z</time></trkpt><trkpt lat="43.707191" lon="12.1948329"><ele>624.0</ele><time>2026-04-12T09:00:28.608Z</time></trkpt><trkpt lat="43.707362" lon="12.1950009"><ele>624.0</ele><time>2026-04-12T09:00:29.608Z</time></trkpt><trkpt lat="43.7075226" lon="12.1951621"><ele>624.0</ele><time>2026-04-12T09:00:30.607Z</time></trkpt><trkpt lat="43.7076794" lon="12.1953116"><ele>624.0</ele><time>2026-04-12T09:00:31.607Z</time></trkpt><trkpt lat="43.7078417" lon="12.1954383"><ele>622.0</ele><time>2026-04-12T09:00:32.607Z</time></trkpt><trkpt lat="43.7080217" lon="12.19554"><ele>620.0</ele><time>2026-04-12T09:00:33.608Z</time></trkpt><trkpt lat="43.7082183" lon="12.1956133"><ele>618.0</ele><time>2026-04-12T09:00:34.608Z</time></trkpt><trkpt lat="43.7084267" lon="12.195645"><ele>615.3333333333334</ele><time>2026-04-12T09:00:35.608Z</time></trkpt><trkpt lat="43.7086433" lon="12.1956233"><ele>612.6666666666667</ele><time>2026-04-12T09:00:36.608Z</time></trkpt><trkpt lat="43.7088617" lon="12.1955633"><ele>610.0</ele><time>2026-04-12T09:00:37.607Z</time></trkpt><trkpt lat="43.7090633" lon="12.1954567"><ele>610.0</ele><time>2026-04-12T09:00:38.607Z</time></trkpt><trkpt lat="43.7092483" lon="12.1953"><ele>610.0</ele><time>2026-04-12T09:00:39.607Z</time></trkpt><trkpt lat="43.7094067" lon="12.1951117"><ele>610.0</ele><time>2026-04-12T09:00:40.608Z</time></trkpt><trkpt lat="43.709545" lon="12.1948767"><ele>602.0</ele><time>2026-04-12T09:00:41.607Z</time></trkpt><trkpt lat="43.709665" lon="12.1946017"><ele>594.0</ele><time>2026-04-12T09:00:42.608Z</time></trkpt><trkpt lat="43.7097667" lon="12.1943"><ele>594.0</ele><time>2026-04-12T09:00:43.608Z</time></trkpt><trkpt lat="43.7098633" lon="12.1940067"><ele>594.0</ele><time>2026-04-12T09:00:44.607Z</time></trkpt><trkpt lat="43.709955" lon="12.1937317"><ele>593.0</ele><time>2026-04-12T09:00:45.608Z</time></trkpt><trkpt lat="43.7100433" lon="12.193475"><ele>592.0</ele><time>2026-04-12T09:00:46.607Z</time></trkpt><trkpt lat="43.7101533" lon="12.19324"><ele>591.0</ele><time>2026-04-12T09:00:47.608Z</time></trkpt><trkpt lat="43.71028" lon="12.1930183"><ele>591.0</ele><time>2026-04-12T09:00:48.608Z</time></trkpt><trkpt lat="43.7104267" lon="12.1928283"><ele>591.0</ele><time>2026-04-12T09:00:49.608Z</time></trkpt><trkpt lat="43.7106" lon="12.1926683"><ele>591.0</ele><time>2026-04-12T09:00:50.608Z</time></trkpt><trkpt lat="43.7107917" lon="12.1925383"><ele>591.0</ele><time>2026-04-12T09:00:51.608Z</time></trkpt><trkpt lat="43.7109867" lon="12.192425"><ele>591.0</ele><time>2026-04-12T09:00:52.607Z</time></trkpt><trkpt lat="43.7111833" lon="12.19234"><ele>591.0</ele><time>2026-04-12T09:00:53.607Z</time></trkpt><trkpt lat="43.7113783" lon="12.1922883"><ele>591.0</ele><time>2026-04-12T09:00:54.608Z</time></trkpt><trkpt lat="43.7115583" lon="12.192275"><ele>591.0</ele><time>2026-04-12T09:00:55.608Z</time></trkpt><trkpt lat="43.7117367" lon="12.1923117"><ele>591.0</ele><time>2026-04-12T09:00:56.608Z</time></trkpt><trkpt lat="43.7118967" lon="12.192395"><ele>585.6666666666666</ele><time>2026-04-12T09:00:57.608Z</time></trkpt><trkpt lat="43.7120417" lon="12.1925183"><ele>580.3333333333333</ele><time>2026-04-12T09:00:58.608Z</time></trkpt><trkpt lat="43.712175" lon="12.1926767"><ele>575.0</ele><time>2026-04-12T09:00:59.607Z</time></trkpt><trkpt lat="43.7123067" lon="12.1928767"><ele>575.0</ele><time>2026-04-12T09:01:00.608Z</time></trkpt><trkpt lat="43.7124583" lon="12.1931117"><ele>575.0</ele><time>2026-04-12T09:01:01.608Z</time></trkpt><trkpt lat="43.712625" lon="12.1933717"><ele>566.5</ele><time>2026-04-12T09:01:02.607Z</time></trkpt><trkpt lat="43.7128067" lon="12.193645"><ele>558.0</ele><time>2026-04-12T09:01:03.608Z</time></trkpt><trkpt lat="43.7130067" lon="12.1939233"><ele>557.0</ele><time>2026-04-12T09:01:04.607Z</time></trkpt><trkpt lat="43.71321" lon="12.1942017"><ele>556.0</ele><time>2026-04-12T09:01:05.608Z</time></trkpt><trkpt lat="43.7134033" lon="12.1944583"><ele>546.5</ele><time>2026-04-12T09:01:06.608Z</time></trkpt><trkpt lat="43.7135867" lon="12.1947"><ele>537.0</ele><time>2026-04-12T09:01:07.608Z</time></trkpt><trkpt lat="43.7137667" lon="12.1949433"><ele>535.5</ele><time>2026-04-12T09:01:08.608Z</time></trkpt><trkpt lat="43.7139417" lon="12.19518"><ele>534.0</ele><time>2026-04-12T09:01:09.608Z</time></trkpt><trkpt lat="43.71411" lon="12.1954083"><ele>534.0</ele><time>2026-04-12T09:01:10.608Z</time></trkpt><trkpt lat="43.7142683" lon="12.1956183"><ele>534.0</ele><time>2026-04-12T09:01:11.608Z</time></trkpt><trkpt lat="43.7144133" lon="12.1958167"><ele>534.0</ele><time>2026-04-12T09:01:12.608Z</time></trkpt><trkpt lat="43.7145567" lon="12.1960017"><ele>533.3333333333334</ele><time>2026-04-12T09:01:13.608Z</time></trkpt><trkpt lat="43.71469" lon="12.196175"><ele>532.6666666666667</ele><time>2026-04-12T09:01:14.608Z</time></trkpt><trkpt lat="43.7148167" lon="12.1963383"><ele>532.0</ele><time>2026-04-12T09:01:15.608Z</time></trkpt><trkpt lat="43.7149583" lon="12.196465"><ele>536.0</ele><time>2026-04-12T09:01:16.608Z</time></trkpt><trkpt lat="43.7151083" lon="12.196555"><ele>540.0</ele><time>2026-04-12T09:01:17.607Z</time></trkpt><trkpt lat="43.7152683" lon="12.19662"><ele>544.0</ele><time>2026-04-12T09:01:18.608Z</time></trkpt><trkpt lat="43.7154233" lon="12.19665"><ele>545.5</ele><time>2026-04-12T09:01:19.608Z</time></trkpt><trkpt lat="43.715575" lon="12.1966583"><ele>547.0</ele><time>2026-04-12T09:01:20.607Z</time></trkpt><trkpt lat="43.71572" lon="12.19663"><ele>548.5</ele><time>2026-04-12T09:01:21.607Z</time></trkpt><trkpt lat="43.7158517" lon="12.196575"><ele>550.0</ele><time>2026-04-12T09:01:22.608Z</time></trkpt><trkpt lat="43.7159683" lon="12.19651"><ele>550.75</ele><time>2026-04-12T09:01:23.608Z</time></trkpt><trkpt lat="43.7160783" lon="12.1964283"><ele>551.5</ele><time>2026-04-12T09:01:24.608Z</time></trkpt><trkpt lat="43.71618" lon="12.1963583"><ele>552.25</ele><time>2026-04-12T09:01:25.608Z</time></trkpt><trkpt lat="43.7162833" lon="12.1962983"><ele>553.0</ele><time>2026-04-12T09:01:26.607Z</time></trkpt><trkpt lat="43.7163783" lon="12.1962433"><ele>553.0</ele><time>2026-04-12T09:01:27.608Z</time></trkpt><trkpt lat="43.7164767" lon="12.1961917"><ele>553.0</ele><time>2026-04-12T09:01:28.608Z</time></trkpt><trkpt lat="43.7165733" lon="12.19614"><ele>553.0</ele><time>2026-04-12T09:01:29.607Z</time></trkpt><trkpt lat="43.716675" lon="12.1960883"><ele>553.0</ele><time>2026-04-12T09:01:30.608Z</time></trkpt><trkpt lat="43.7167783" lon="12.1960467"><ele>553.0</ele><time>2026-04-12T09:01:31.607Z</time></trkpt><trkpt lat="43.716885" lon="12.196005"><ele>554.1999999999999</ele><time>2026-04-12T09:01:32.608Z</time></trkpt><trkpt lat="43.7169933" lon="12.195965"><ele>555.4</ele><time>2026-04-12T09:01:33.607Z</time></trkpt><trkpt lat="43.7171" lon="12.195915"><ele>556.5999999999999</ele><time>2026-04-12T09:01:34.607Z</time></trkpt><trkpt lat="43.7172067" lon="12.195865"><ele>557.8</ele><time>2026-04-12T09:01:35.608Z</time></trkpt><trkpt lat="43.7173117" lon="12.1958133"><ele>559.0</ele><time>2026-04-12T09:01:36.608Z</time></trkpt><trkpt lat="43.7174217" lon="12.19576"><ele>559.0</ele><time>2026-04-12T09:01:37.607Z</time></trkpt><trkpt lat="43.71753" lon="12.1957133"><ele>559.0</ele><time>2026-04-12T09:01:38.608Z</time></trkpt><trkpt lat="43.71764" lon="12.195665"><ele>559.0</ele><time>2026-04-12T09:01:39.608Z</time></trkpt><trkpt lat="43.717751" lon="12.1956211"><ele>559.0</ele><time>2026-04-12T09:01:40.607Z</time></trkpt><trkpt lat="43.7178616" lon="12.1955766"><ele>557.75</ele><time>2026-04-12T09:01:41.607Z</time></trkpt><trkpt lat="43.7179777" lon="12.1955294"><ele>556.5</ele><time>2026-04-12T09:01:42.607Z</time></trkpt><trkpt lat="43.718096" lon="12.1954869"><ele>555.25</ele><time>2026-04-12T09:01:43.608Z</time></trkpt><trkpt lat="43.7182191" lon="12.1954416"><ele>554.0</ele><time>2026-04-12T09:01:44.608Z</time></trkpt><trkpt lat="43.7183634" lon="12.1953847"><ele>554.0</ele><time>2026-04-12T09:01:45.608Z</time></trkpt><trkpt lat="43.7185292" lon="12.1953203"><ele>554.0</ele><time>2026-04-12T09:01:46.607Z</time></trkpt><trkpt lat="43.7187089" lon="12.1952463"><ele>554.0</ele><time>2026-04-12T09:01:47.608Z</time></trkpt><trkpt lat="43.7189004" lon="12.1951699"><ele>555.6666666666666</ele><time>2026-04-12T09:01:48.608Z</time></trkpt><trkpt lat="43.7190943" lon="12.1950945"><ele>557.3333333333334</ele><time>2026-04-12T09:01:49.607Z</time></trkpt><trkpt lat="43.719286" lon="12.1950193"><ele>559.0</ele><time>2026-04-12T09:01:50.608Z</time></trkpt><trkpt lat="43.7194808" lon="12.1949345"><ele>560.3333333333334</ele><time>2026-04-12T09:01:51.608Z</time></trkpt><trkpt lat="43.7196795" lon="12.1948382"><ele>561.6666666666666</ele><time>2026-04-12T09:01:52.608Z</time></trkpt><trkpt lat="43.7198809" lon="12.194731"><ele>563.0</ele><time>2026-04-12T09:01:53.608Z</time></trkpt><trkpt lat="43.7200707" lon="12.1946225"><ele>561.0</ele><time>2026-04-12T09:01:54.608Z</time></trkpt><trkpt lat="43.7202484" lon="12.1945154"><ele>559.0</ele><time>2026-04-12T09:01:55.608Z</time></trkpt><trkpt lat="43.7204268" lon="12.1944082"><ele>557.0</ele><time>2026-04-12T09:01:56.608Z</time></trkpt><trkpt lat="43.7205946" lon="12.1943047"><ele>557.0</ele><time>2026-04-12T09:01:57.607Z</time></trkpt><trkpt lat="43.720757" lon="12.1942201"><ele>557.0</ele><time>2026-04-12T09:01:58.608Z</time></trkpt><trkpt lat="43.7209183" lon="12.1941626"><ele>557.0</ele><time>2026-04-12T09:01:59.608Z</time></trkpt><trkpt lat="43.7210876" lon="12.1941297"><ele>556.3333333333333</ele><time>2026-04-12T09:02:00.607Z</time></trkpt><trkpt lat="43.7212701" lon="12.1941132"><ele>555.6666666666666</ele><time>2026-04-12T09:02:01.608Z</time></trkpt><trkpt lat="43.7214545" lon="12.1941028"><ele>555.0</ele><time>2026-04-12T09:02:02.607Z</time></trkpt><trkpt lat="43.7216355" lon="12.1940944"><ele>555.0</ele><time>2026-04-12T09:02:03.607Z</time></trkpt><trkpt lat="43.7218028" lon="12.1940896"><ele>555.0</ele><time>2026-04-12T09:02:04.607Z</time></trkpt><trkpt lat="43.7219607" lon="12.1940832"><ele>555.0</ele><time>2026-04-12T09:02:05.608Z</time></trkpt><trkpt lat="43.7221096" lon="12.1940979"><ele>553.3333333333334</ele><time>2026-04-12T09:02:06.607Z</time></trkpt><trkpt lat="43.7222469" lon="12.194162"><ele>551.6666666666667</ele><time>2026-04-12T09:02:07.607Z</time></trkpt><trkpt lat="43.7223755" lon="12.1942831"><ele>550.0</ele><time>2026-04-12T09:02:08.608Z</time></trkpt><trkpt lat="43.7224891" lon="12.1944506"><ele>550.0</ele><time>2026-04-12T09:02:09.608Z</time></trkpt><trkpt lat="43.7225957" lon="12.1946125"><ele>550.0</ele><time>2026-04-12T09:02:10.608Z</time></trkpt><trkpt lat="43.7227156" lon="12.1947469"><ele>550.0</ele><time>2026-04-12T09:02:11.607Z</time></trkpt><trkpt lat="43.7228734" lon="12.1948417"><ele>549.6666666666667</ele><time>2026-04-12T09:02:12.608Z</time></trkpt><trkpt lat="43.7230574" lon="12.1948999"><ele>549.3333333333334</ele><time>2026-04-12T09:02:13.608Z</time></trkpt><trkpt lat="43.7232445" lon="12.19496"><ele>549.0</ele><time>2026-04-12T09:02:14.608Z</time></trkpt><trkpt lat="43.723428" lon="12.1950108"><ele>552.0</ele><time>2026-04-12T09:02:15.607Z</time></trkpt><trkpt lat="43.7236221" lon="12.1950207"><ele>555.0</ele><time>2026-04-12T09:02:16.608Z</time></trkpt><trkpt lat="43.7238256" lon="12.1949863"><ele>558.0</ele><time>2026-04-12T09:02:17.608Z</time></trkpt><trkpt lat="43.7240258" lon="12.1949224"><ele>558.0</ele><time>2026-04-12T09:02:18.608Z</time></trkpt><trkpt lat="43.7242127" lon="12.1948562"><ele>558.0</ele><time>2026-04-12T09:02:19.608Z</time></trkpt><trkpt lat="43.724383" lon="12.1947829"><ele>558.0</ele><time>2026-04-12T09:02:20.608Z</time></trkpt><trkpt lat="43.7245364" lon="12.1946822"><ele>557.0</ele><time>2026-04-12T09:02:21.608Z</time></trkpt><trkpt lat="43.7246689" lon="12.1945411"><ele>556.0</ele><time>2026-04-12T09:02:22.608Z</time></trkpt><trkpt lat="43.7247616" lon="12.1943694"><ele>555.0</ele><time>2026-04-12T09:02:23.608Z</time></trkpt><trkpt lat="43.7248258" lon="12.1941974"><ele>555.0</ele><time>2026-04-12T09:02:24.608Z</time></trkpt><trkpt lat="43.7248886" lon="12.1940535"><ele>555.0</ele><time>2026-04-12T09:02:25.607Z</time></trkpt><trkpt lat="43.7249673" lon="12.1939612"><ele>555.0</ele><time>2026-04-12T09:02:26.608Z</time></trkpt><trkpt lat="43.7250632" lon="12.1939255"><ele>555.0</ele><time>2026-04-12T09:02:27.608Z</time></trkpt><trkpt lat="43.7251689" lon="12.1939547"><ele>555.0</ele><time>2026-04-12T09:02:28.608Z</time></trkpt><trkpt lat="43.725278" lon="12.1940783"><ele>556.6666666666666</ele><time>2026-04-12T09:02:29.608Z</time></trkpt><trkpt lat="43.7253857" lon="12.1942773"><ele>558.3333333333333</ele><time>2026-04-12T09:02:30.608Z</time></trkpt><trkpt lat="43.7254902" lon="12.1945163"><ele>560.0</ele><time>2026-04-12T09:02:31.607Z</time></trkpt><trkpt lat="43.72559" lon="12.1947565"><ele>562.6666666666666</ele><time>2026-04-12T09:02:32.607Z</time></trkpt><trkpt lat="43.7257096" lon="12.1949746"><ele>565.3333333333334</ele><time>2026-04-12T09:02:33.607Z</time></trkpt><trkpt lat="43.7258495" lon="12.195157"><ele>568.0</ele><time>2026-04-12T09:02:34.608Z</time></trkpt><trkpt lat="43.7260141" lon="12.1953091"><ele>568.0</ele><time>2026-04-12T09:02:35.608Z</time></trkpt><trkpt lat="43.7262046" lon="12.1954427"><ele>568.0</ele><time>2026-04-12T09:02:36.607Z</time></trkpt><trkpt lat="43.7264094" lon="12.1955656"><ele>568.0</ele><time>2026-04-12T09:02:37.608Z</time></trkpt><trkpt lat="43.7266412" lon="12.1956802"><ele>569.5</ele><time>2026-04-12T09:02:38.608Z</time></trkpt><trkpt lat="43.7268819" lon="12.1958017"><ele>571.0</ele><time>2026-04-12T09:02:39.608Z</time></trkpt><trkpt lat="43.7271302" lon="12.1959344"><ele>563.5</ele><time>2026-04-12T09:02:40.607Z</time></trkpt><trkpt lat="43.7273661" lon="12.1960772"><ele>556.0</ele><time>2026-04-12T09:02:41.608Z</time></trkpt><trkpt lat="43.7275897" lon="12.1962193"><ele>547.5</ele><time>2026-04-12T09:02:42.608Z</time></trkpt><trkpt lat="43.7278009" lon="12.1963539"><ele>539.0</ele><time>2026-04-12T09:02:43.608Z</time></trkpt><trkpt lat="43.7280052" lon="12.1964705"><ele>541.0</ele><time>2026-04-12T09:02:44.608Z</time></trkpt><trkpt lat="43.728209" lon="12.196561"><ele>543.0</ele><time>2026-04-12T09:02:45.608Z</time></trkpt><trkpt lat="43.7284126" lon="12.1966319"><ele>545.0</ele><time>2026-04-12T09:02:46.608Z</time></trkpt><trkpt lat="43.7286098" lon="12.1966893"><ele>545.0</ele><time>2026-04-12T09:02:47.607Z</time></trkpt><trkpt lat="43.7287967" lon="12.1967659"><ele>545.0</ele><time>2026-04-12T09:02:48.608Z</time></trkpt><trkpt lat="43.7289773" lon="12.196886"><ele>545.0</ele><time>2026-04-12T09:02:49.608Z</time></trkpt><trkpt lat="43.7291477" lon="12.1970435"><ele>545.0</ele><time>2026-04-12T09:02:50.608Z</time></trkpt><trkpt lat="43.7293059" lon="12.1972129"><ele>545.0</ele><time>2026-04-12T09:02:51.607Z</time></trkpt><trkpt lat="43.7294493" lon="12.1973868"><ele>545.0</ele><time>2026-04-12T09:02:52.608Z</time></trkpt><trkpt lat="43.7295773" lon="12.1975668"><ele>543.0</ele><time>2026-04-12T09:02:53.607Z</time></trkpt><trkpt lat="43.7296854" lon="12.197748"><ele>541.0</ele><time>2026-04-12T09:02:54.607Z</time></trkpt><trkpt lat="43.7297791" lon="12.1979225"><ele>539.0</ele><time>2026-04-12T09:02:55.608Z</time></trkpt><trkpt lat="43.7298678" lon="12.1980891"><ele>539.3333333333333</ele><time>2026-04-12T09:02:56.608Z</time></trkpt><trkpt lat="43.7299797" lon="12.1982361"><ele>539.6666666666666</ele><time>2026-04-12T09:02:57.608Z</time></trkpt><trkpt lat="43.7301221" lon="12.1983644"><ele>540.0</ele><time>2026-04-12T09:02:58.608Z</time></trkpt><trkpt lat="43.7302806" lon="12.1984786"><ele>540.0</ele><time>2026-04-12T09:02:59.608Z</time></trkpt><trkpt lat="43.7304378" lon="12.198576"><ele>540.0</ele><time>2026-04-12T09:03:00.607Z</time></trkpt><trkpt lat="43.7305915" lon="12.1986619"><ele>540.0</ele><time>2026-04-12T09:03:01.607Z</time></trkpt><trkpt lat="43.730746" lon="12.1987138"><ele>540.0</ele><time>2026-04-12T09:03:02.608Z</time></trkpt><trkpt lat="43.7309096" lon="12.1987187"><ele>540.0</ele><time>2026-04-12T09:03:03.608Z</time></trkpt><trkpt lat="43.731074" lon="12.1986905"><ele>540.0</ele><time>2026-04-12T09:03:04.608Z</time></trkpt><trkpt lat="43.731231" lon="12.1986448"><ele>539.0</ele><time>2026-04-12T09:03:05.608Z</time></trkpt><trkpt lat="43.7313737" lon="12.1986006"><ele>538.0</ele><time>2026-04-12T09:03:06.608Z</time></trkpt><trkpt lat="43.7315051" lon="12.1985815"><ele>537.0</ele><time>2026-04-12T09:03:07.608Z</time></trkpt><trkpt lat="43.731628" lon="12.1986028"><ele>536.0</ele><time>2026-04-12T09:03:08.608Z</time></trkpt><trkpt lat="43.7317416" lon="12.1986636"><ele>536.0</ele><time>2026-04-12T09:03:09.607Z</time></trkpt><trkpt lat="43.7318518" lon="12.1987819"><ele>536.0</ele><time>2026-04-12T09:03:10.608Z</time></trkpt><trkpt lat="43.7319516" lon="12.1989233"><ele>536.0</ele><time>2026-04-12T09:03:11.608Z</time></trkpt><trkpt lat="43.7320522" lon="12.1990618"><ele>536.0</ele><time>2026-04-12T09:03:12.608Z</time></trkpt><trkpt lat="43.7321643" lon="12.1991554"><ele>537.25</ele><time>2026-04-12T09:03:13.608Z</time></trkpt><trkpt lat="43.7323004" lon="12.1991888"><ele>538.5</ele><time>2026-04-12T09:03:14.608Z</time></trkpt><trkpt lat="43.7324468" lon="12.1991681"><ele>539.75</ele><time>2026-04-12T09:03:15.608Z</time></trkpt><trkpt lat="43.7325925" lon="12.1991122"><ele>541.0</ele><time>2026-04-12T09:03:16.608Z</time></trkpt><trkpt lat="43.7327366" lon="12.1990628"><ele>541.0</ele><time>2026-04-12T09:03:17.608Z</time></trkpt><trkpt lat="43.7328883" lon="12.1990371"><ele>541.0</ele><time>2026-04-12T09:03:18.608Z</time></trkpt><trkpt lat="43.7330458" lon="12.1990739"><ele>541.0</ele><time>2026-04-12T09:03:19.608Z</time></trkpt><trkpt lat="43.7332037" lon="12.1991564"><ele>541.0</ele><time>2026-04-12T09:03:20.608Z</time></trkpt><trkpt lat="43.733362" lon="12.1992644"><ele>541.0</ele><time>2026-04-12T09:03:21.608Z</time></trkpt><trkpt lat="43.7335146" lon="12.1993857"><ele>541.0</ele><time>2026-04-12T09:03:22.608Z</time></trkpt><trkpt lat="43.7336663" lon="12.1994954"><ele>535.3333333333334</ele><time>2026-04-12T09:03:23.608Z</time></trkpt><trkpt lat="43.7338238" lon="12.1995772"><ele>529.6666666666666</ele><time>2026-04-12T09:03:24.608Z</time></trkpt><trkpt lat="43.7339832" lon="12.1996227"><ele>524.0</ele><time>2026-04-12T09:03:25.607Z</time></trkpt><trkpt lat="43.7341421" lon="12.1996408"><ele>524.0</ele><time>2026-04-12T09:03:26.607Z</time></trkpt><trkpt lat="43.7342932" lon="12.1996509"><ele>524.0</ele><time>2026-04-12T09:03:27.607Z</time></trkpt><trkpt lat="43.7344366" lon="12.1996743"><ele>524.0</ele><time>2026-04-12T09:03:28.608Z</time></trkpt><trkpt lat="43.7345789" lon="12.1997202"><ele>524.0</ele><time>2026-04-12T09:03:29.608Z</time></trkpt><trkpt lat="43.7347206" lon="12.1997847"><ele>530.0</ele><time>2026-04-12T09:03:30.607Z</time></trkpt><trkpt lat="43.7348622" lon="12.1998771"><ele>536.0</ele><time>2026-04-12T09:03:31.608Z</time></trkpt><trkpt lat="43.7350092" lon="12.1999856"><ele>542.0</ele><time>2026-04-12T09:03:32.608Z</time></trkpt><trkpt lat="43.7351579" lon="12.2000964"><ele>533.6666666666666</ele><time>2026-04-12T09:03:33.608Z</time></trkpt><trkpt lat="43.7353023" lon="12.2001997"><ele>525.3333333333334</ele><time>2026-04-12T09:03:34.607Z</time></trkpt><trkpt lat="43.7354407" lon="12.2002927"><ele>517.0</ele><time>2026-04-12T09:03:35.608Z</time></trkpt><trkpt lat="43.7355671" lon="12.2003847"><ele>517.0</ele><time>2026-04-12T09:03:36.608Z</time></trkpt><trkpt lat="43.7356799" lon="12.20049"><ele>517.0</ele><time>2026-04-12T09:03:37.607Z</time></trkpt><trkpt lat="43.7357742" lon="12.2006195"><ele>517.0</ele><time>2026-04-12T09:03:38.608Z</time></trkpt><trkpt lat="43.7358384" lon="12.2007863"><ele>517.0</ele><time>2026-04-12T09:03:39.608Z</time></trkpt><trkpt lat="43.7358616" lon="12.2009846"><ele>521.75</ele><time>2026-04-12T09:03:40.608Z</time></trkpt><trkpt lat="43.735856" lon="12.2011884"><ele>526.5</ele><time>2026-04-12T09:03:41.608Z</time></trkpt><trkpt lat="43.735847" lon="12.2013563"><ele>531.25</ele><time>2026-04-12T09:03:42.607Z</time></trkpt><trkpt lat="43.7358782" lon="12.2015006"><ele>536.0</ele><time>2026-04-12T09:03:43.608Z</time></trkpt><trkpt lat="43.73596" lon="12.2016181"><ele>537.0</ele><time>2026-04-12T09:03:44.608Z</time></trkpt><trkpt lat="43.7360783" lon="12.2016983"><ele>538.0</ele><time>2026-04-12T09:03:45.608Z</time></trkpt><trkpt lat="43.7362183" lon="12.2017368"><ele>539.0</ele><time>2026-04-12T09:03:46.608Z</time></trkpt><trkpt lat="43.7363739" lon="12.201732"><ele>540.0</ele><time>2026-04-12T09:03:47.608Z</time></trkpt><trkpt lat="43.7365372" lon="12.2016901"><ele>540.0</ele><time>2026-04-12T09:03:48.608Z</time></trkpt><trkpt lat="43.7367006" lon="12.2016222"><ele>540.0</ele><time>2026-04-12T09:03:49.608Z</time></trkpt><trkpt lat="43.7368592" lon="12.2015412"><ele>540.0</ele><time>2026-04-12T09:03:50.608Z</time></trkpt><trkpt lat="43.7370077" lon="12.2014518"><ele>533.3333333333334</ele><time>2026-04-12T09:03:51.607Z</time></trkpt><trkpt lat="43.7371472" lon="12.2013545"><ele>526.6666666666667</ele><time>2026-04-12T09:03:52.608Z</time></trkpt><trkpt lat="43.7372856" lon="12.2012653"><ele>520.0</ele><time>2026-04-12T09:03:53.608Z</time></trkpt><trkpt lat="43.7374243" lon="12.2011767"><ele>520.0</ele><time>2026-04-12T09:03:54.608Z</time></trkpt><trkpt lat="43.7375608" lon="12.2010801"><ele>520.0</ele><time>2026-04-12T09:03:55.608Z</time></trkpt><trkpt lat="43.7376876" lon="12.2009775"><ele>520.0</ele><time>2026-04-12T09:03:56.608Z</time></trkpt><trkpt lat="43.7378023" lon="12.2008675"><ele>520.0</ele><time>2026-04-12T09:03:57.607Z</time></trkpt><trkpt lat="43.7379048" lon="12.2007568"><ele>514.0</ele><time>2026-04-12T09:03:58.608Z</time></trkpt><trkpt lat="43.7379999" lon="12.2006517"><ele>508.0</ele><time>2026-04-12T09:03:59.608Z</time></trkpt><trkpt lat="43.7380908" lon="12.2005663"><ele>502.0</ele><time>2026-04-12T09:04:00.608Z</time></trkpt><trkpt lat="43.7381877" lon="12.2005192"><ele>496.0</ele><time>2026-04-12T09:04:01.607Z</time></trkpt><trkpt lat="43.7382952" lon="12.2005215"><ele>490.0</ele><time>2026-04-12T09:04:02.607Z</time></trkpt><trkpt lat="43.7384108" lon="12.200577"><ele>492.75</ele><time>2026-04-12T09:04:03.608Z</time></trkpt><trkpt lat="43.7385212" lon="12.2006776"><ele>495.5</ele><time>2026-04-12T09:04:04.608Z</time></trkpt><trkpt lat="43.7386235" lon="12.2008053"><ele>498.25</ele><time>2026-04-12T09:04:05.608Z</time></trkpt><trkpt lat="43.7387008" lon="12.2009524"><ele>501.0</ele><time>2026-04-12T09:04:06.607Z</time></trkpt><trkpt lat="43.738754" lon="12.201158"><ele>501.0</ele><time>2026-04-12T09:04:07.607Z</time></trkpt><trkpt lat="43.7387834" lon="12.2013691"><ele>501.0</ele><time>2026-04-12T09:04:08.608Z</time></trkpt><trkpt lat="43.7388003" lon="12.2015515"><ele>501.0</ele><time>2026-04-12T09:04:09.607Z</time></trkpt><trkpt lat="43.7388257" lon="12.2017029"><ele>501.0</ele><time>2026-04-12T09:04:10.607Z</time></trkpt><trkpt lat="43.7388949" lon="12.2018054"><ele>505.0</ele><time>2026-04-12T09:04:11.608Z</time></trkpt><trkpt lat="43.7390043" lon="12.2018508"><ele>509.0</ele><time>2026-04-12T09:04:12.607Z</time></trkpt><trkpt lat="43.7391539" lon="12.2018565"><ele>513.0</ele><time>2026-04-12T09:04:13.608Z</time></trkpt><trkpt lat="43.7393292" lon="12.2018254"><ele>517.0</ele><time>2026-04-12T09:04:14.608Z</time></trkpt><trkpt lat="43.7395336" lon="12.2017791"><ele>517.0</ele><time>2026-04-12T09:04:15.608Z</time></trkpt><trkpt lat="43.7397542" lon="12.2017275"><ele>517.0</ele><time>2026-04-12T09:04:16.608Z</time></trkpt><trkpt lat="43.7399683" lon="12.2016685"><ele>517.0</ele><time>2026-04-12T09:04:17.608Z</time></trkpt><trkpt lat="43.7401687" lon="12.2016117"><ele>514.0</ele><time>2026-04-12T09:04:18.608Z</time></trkpt><trkpt lat="43.7403546" lon="12.2015668"><ele>511.0</ele><time>2026-04-12T09:04:19.608Z</time></trkpt><trkpt lat="43.7405286" lon="12.2015367"><ele>508.0</ele><time>2026-04-12T09:04:20.608Z</time></trkpt><trkpt lat="43.7406864" lon="12.2015186"><ele>508.0</ele><time>2026-04-12T09:04:21.607Z</time></trkpt><trkpt lat="43.7408264" lon="12.2015107"><ele>508.0</ele><time>2026-04-12T09:04:22.607Z</time></trkpt><trkpt lat="43.7409465" lon="12.2015124"><ele>508.0</ele><time>2026-04-12T09:04:23.607Z</time></trkpt><trkpt lat="43.7410499" lon="12.2015383"><ele>508.0</ele><time>2026-04-12T09:04:24.608Z</time></trkpt><trkpt lat="43.7411399" lon="12.2016188"><ele>506.0</ele><time>2026-04-12T09:04:25.607Z</time></trkpt><trkpt lat="43.7412136" lon="12.2017592"><ele>504.0</ele><time>2026-04-12T09:04:26.608Z</time></trkpt><trkpt lat="43.7412553" lon="12.2019436"><ele>502.0</ele><time>2026-04-12T09:04:27.607Z</time></trkpt><trkpt lat="43.7412861" lon="12.202145"><ele>500.0</ele><time>2026-04-12T09:04:28.608Z</time></trkpt><trkpt lat="43.7413206" lon="12.2023416"><ele>500.0</ele><time>2026-04-12T09:04:29.608Z</time></trkpt><trkpt lat="43.7413701" lon="12.2025209"><ele>500.0</ele><time>2026-04-12T09:04:30.608Z</time></trkpt><trkpt lat="43.7414412" lon="12.2026746"><ele>500.0</ele><time>2026-04-12T09:04:31.607Z</time></trkpt><trkpt lat="43.7415338" lon="12.2027836"><ele>500.0</ele><time>2026-04-12T09:04:32.607Z</time></trkpt><trkpt lat="43.7416442" lon="12.2028442"><ele>500.0</ele><time>2026-04-12T09:04:33.607Z</time></trkpt><trkpt lat="43.741754" lon="12.2028669"><ele>500.0</ele><time>2026-04-12T09:04:34.608Z</time></trkpt><trkpt lat="43.7418565" lon="12.2028397"><ele>500.0</ele><time>2026-04-12T09:04:35.607Z</time></trkpt><trkpt lat="43.7419515" lon="12.2027542"><ele>500.0</ele><time>2026-04-12T09:04:36.607Z</time></trkpt><trkpt lat="43.7420187" lon="12.2025922"><ele>497.0</ele><time>2026-04-12T09:04:37.608Z</time></trkpt><trkpt lat="43.7420627" lon="12.202392"><ele>494.0</ele><time>2026-04-12T09:04:38.608Z</time></trkpt><trkpt lat="43.7420937" lon="12.2021955"><ele>491.0</ele><time>2026-04-12T09:04:39.608Z</time></trkpt><trkpt lat="43.742131" lon="12.2020317"><ele>488.0</ele><time>2026-04-12T09:04:40.608Z</time></trkpt><trkpt lat="43.7421881" lon="12.2019055"><ele>488.0</ele><time>2026-04-12T09:04:41.608Z</time></trkpt><trkpt lat="43.7422678" lon="12.2018182"><ele>488.0</ele><time>2026-04-12T09:04:42.608Z</time></trkpt><trkpt lat="43.7423761" lon="12.2017835"><ele>488.0</ele><time>2026-04-12T09:04:43.607Z</time></trkpt><trkpt lat="43.7425098" lon="12.2018118"><ele>488.0</ele><time>2026-04-12T09:04:44.607Z</time></trkpt><trkpt lat="43.7426701" lon="12.2018887"><ele>486.66666666666663</ele><time>2026-04-12T09:04:45.607Z</time></trkpt><trkpt lat="43.7428396" lon="12.2019624"><ele>485.33333333333337</ele><time>2026-04-12T09:04:46.608Z</time></trkpt><trkpt lat="43.7430065" lon="12.202013"><ele>484.0</ele><time>2026-04-12T09:04:47.607Z</time></trkpt><trkpt lat="43.7431673" lon="12.2020477"><ele>484.0</ele><time>2026-04-12T09:04:48.608Z</time></trkpt><trkpt lat="43.7433221" lon="12.2020698"><ele>484.0</ele><time>2026-04-12T09:04:49.607Z</time></trkpt><trkpt lat="43.7434739" lon="12.202076"><ele>484.0</ele><time>2026-04-12T09:04:50.608Z</time></trkpt><trkpt lat="43.7436217" lon="12.2020545"><ele>485.75</ele><time>2026-04-12T09:04:51.608Z</time></trkpt><trkpt lat="43.7437645" lon="12.2020056"><ele>487.5</ele><time>2026-04-12T09:04:52.608Z</time></trkpt><trkpt lat="43.7438959" lon="12.2019152"><ele>489.25</ele><time>2026-04-12T09:04:53.608Z</time></trkpt><trkpt lat="43.7440053" lon="12.2017659"><ele>491.0</ele><time>2026-04-12T09:04:54.607Z</time></trkpt><trkpt lat="43.7441059" lon="12.2015975"><ele>488.5</ele><time>2026-04-12T09:04:55.607Z</time></trkpt><trkpt lat="43.7442023" lon="12.2014314"><ele>486.0</ele><time>2026-04-12T09:04:56.608Z</time></trkpt><trkpt lat="43.7442948" lon="12.2012764"><ele>483.5</ele><time>2026-04-12T09:04:57.608Z</time></trkpt><trkpt lat="43.7443796" lon="12.2011265"><ele>481.0</ele><time>2026-04-12T09:04:58.608Z</time></trkpt><trkpt lat="43.7444561" lon="12.2009658"><ele>484.25</ele><time>2026-04-12T09:04:59.607Z</time></trkpt><trkpt lat="43.7445242" lon="12.2007903"><ele>487.5</ele><time>2026-04-12T09:05:00.607Z</time></trkpt><trkpt lat="43.7445868" lon="12.2006035"><ele>490.75</ele><time>2026-04-12T09:05:01.608Z</time></trkpt><trkpt lat="43.7446545" lon="12.2004113"><ele>494.0</ele><time>2026-04-12T09:05:02.608Z</time></trkpt><trkpt lat="43.7447342" lon="12.2002169"><ele>494.0</ele><time>2026-04-12T09:05:03.608Z</time></trkpt><trkpt lat="43.7448347" lon="12.200022"><ele>494.0</ele><time>2026-04-12T09:05:04.607Z</time></trkpt><trkpt lat="43.7449475" lon="12.1998222"><ele>494.0</ele><time>2026-04-12T09:05:05.607Z</time></trkpt><trkpt lat="43.7450657" lon="12.1996176"><ele>497.3333333333333</ele><time>2026-04-12T09:05:06.608Z</time></trkpt><trkpt lat="43.7451909" lon="12.1994162"><ele>500.66666666666663</ele><time>2026-04-12T09:05:07.607Z</time></trkpt><trkpt lat="43.7453225" lon="12.199222"><ele>504.0</ele><time>2026-04-12T09:05:08.608Z</time></trkpt><trkpt lat="43.745466" lon="12.198978"><ele>497.0</ele><time>2026-04-12T09:05:09.954Z</time></trkpt><trkpt lat="43.7456112" lon="12.198765"><ele>490.0</ele><time>2026-04-12T09:05:11.107Z</time></trkpt><trkpt lat="43.7457544" lon="12.1986079"><ele>483.0</ele><time>2026-04-12T09:05:12.107Z</time></trkpt><trkpt lat="43.7459853" lon="12.1984385"><ele>481.33333333333337</ele><time>2026-04-12T09:05:13.607Z</time></trkpt><trkpt lat="43.7461405" lon="12.1983417"><ele>479.6666666666667</ele><time>2026-04-12T09:05:14.606Z</time></trkpt><trkpt lat="43.7463075" lon="12.1982341"><ele>478.0</ele><time>2026-04-12T09:05:15.606Z</time></trkpt><trkpt lat="43.7464764" lon="12.1981214"><ele>478.0</ele><time>2026-04-12T09:05:16.607Z</time></trkpt><trkpt lat="43.7466362" lon="12.1980246"><ele>478.0</ele><time>2026-04-12T09:05:17.606Z</time></trkpt><trkpt lat="43.7467868" lon="12.1979412"><ele>478.0</ele><time>2026-04-12T09:05:18.607Z</time></trkpt><trkpt lat="43.7469288" lon="12.197881"><ele>478.0</ele><time>2026-04-12T09:05:19.606Z</time></trkpt><trkpt lat="43.7470791" lon="12.19785"><ele>478.0</ele><time>2026-04-12T09:05:20.606Z</time></trkpt><trkpt lat="43.7472332" lon="12.1978645"><ele>478.0</ele><time>2026-04-12T09:05:21.607Z</time></trkpt><trkpt lat="43.7473907" lon="12.1979144"><ele>478.0</ele><time>2026-04-12T09:05:22.607Z</time></trkpt><trkpt lat="43.7475585" lon="12.1979821"><ele>478.0</ele><time>2026-04-12T09:05:23.607Z</time></trkpt><trkpt lat="43.7477344" lon="12.1980502"><ele>478.0</ele><time>2026-04-12T09:05:24.607Z</time></trkpt><trkpt lat="43.7478979" lon="12.1981519"><ele>481.33333333333337</ele><time>2026-04-12T09:05:25.607Z</time></trkpt><trkpt lat="43.7480482" lon="12.1982922"><ele>484.66666666666663</ele><time>2026-04-12T09:05:26.607Z</time></trkpt><trkpt lat="43.7481917" lon="12.1984779"><ele>488.0</ele><time>2026-04-12T09:05:27.607Z</time></trkpt><trkpt lat="43.7483233" lon="12.1986775"><ele>488.0</ele><time>2026-04-12T09:05:28.606Z</time></trkpt><trkpt lat="43.748439" lon="12.1988618"><ele>488.0</ele><time>2026-04-12T09:05:29.607Z</time></trkpt><trkpt lat="43.7485584" lon="12.1990225"><ele>488.0</ele><time>2026-04-12T09:05:30.606Z</time></trkpt><trkpt lat="43.7486901" lon="12.1991619"><ele>492.66666666666663</ele><time>2026-04-12T09:05:31.607Z</time></trkpt><trkpt lat="43.7488447" lon="12.1992501"><ele>497.33333333333337</ele><time>2026-04-12T09:05:32.607Z</time></trkpt><trkpt lat="43.7490235" lon="12.1992947"><ele>502.0</ele><time>2026-04-12T09:05:33.607Z</time></trkpt><trkpt lat="43.7492185" lon="12.1993101"><ele>500.6666666666667</ele><time>2026-04-12T09:05:34.606Z</time></trkpt><trkpt lat="43.7494264" lon="12.1992947"><ele>499.33333333333337</ele><time>2026-04-12T09:05:35.607Z</time></trkpt><trkpt lat="43.7496433" lon="12.1992619"><ele>498.0</ele><time>2026-04-12T09:05:36.606Z</time></trkpt><trkpt lat="43.7498554" lon="12.1992253"><ele>498.0</ele><time>2026-04-12T09:05:37.606Z</time></trkpt><trkpt lat="43.7500584" lon="12.1991862"><ele>498.0</ele><time>2026-04-12T09:05:38.607Z</time></trkpt><trkpt lat="43.7502413" lon="12.1991328"><ele>498.0</ele><time>2026-04-12T09:05:39.607Z</time></trkpt><trkpt lat="43.7504034" lon="12.1990668"><ele>495.25</ele><time>2026-04-12T09:05:40.606Z</time></trkpt><trkpt lat="43.7505542" lon="12.1989925"><ele>492.5</ele><time>2026-04-12T09:05:41.607Z</time></trkpt><trkpt lat="43.7506853" lon="12.1989199"><ele>489.75</ele><time>2026-04-12T09:05:42.607Z</time></trkpt><trkpt lat="43.7507916" lon="12.1988319"><ele>487.0</ele><time>2026-04-12T09:05:43.607Z</time></trkpt><trkpt lat="43.7508861" lon="12.1987173"><ele>487.0</ele><time>2026-04-12T09:05:44.607Z</time></trkpt><trkpt lat="43.7509794" lon="12.1985701"><ele>487.0</ele><time>2026-04-12T09:05:45.606Z</time></trkpt><trkpt lat="43.7510796" lon="12.1984021"><ele>487.0</ele><time>2026-04-12T09:05:46.607Z</time></trkpt><trkpt lat="43.7511919" lon="12.1982474"><ele>487.0</ele><time>2026-04-12T09:05:47.606Z</time></trkpt><trkpt lat="43.7513187" lon="12.198102"><ele>487.0</ele><time>2026-04-12T09:05:48.607Z</time></trkpt><trkpt lat="43.7514542" lon="12.1979894"><ele>487.0</ele><time>2026-04-12T09:05:49.607Z</time></trkpt><trkpt lat="43.7515987" lon="12.1979176"><ele>487.0</ele><time>2026-04-12T09:05:50.607Z</time></trkpt><trkpt lat="43.7517544" lon="12.1978846"><ele>487.0</ele><time>2026-04-12T09:05:51.606Z</time></trkpt><trkpt lat="43.7519165" lon="12.1978878"><ele>487.0</ele><time>2026-04-12T09:05:52.606Z</time></trkpt><trkpt lat="43.752081" lon="12.1979098"><ele>488.33333333333337</ele><time>2026-04-12T09:05:53.607Z</time></trkpt><trkpt lat="43.752236" lon="12.1979417"><ele>489.66666666666663</ele><time>2026-04-12T09:05:54.607Z</time></trkpt><trkpt lat="43.752386" lon="12.1979611"><ele>491.0</ele><time>2026-04-12T09:05:55.606Z</time></trkpt><trkpt lat="43.7525386" lon="12.1979446"><ele>491.0</ele><time>2026-04-12T09:05:56.607Z</time></trkpt><trkpt lat="43.7526922" lon="12.1978944"><ele>491.0</ele><time>2026-04-12T09:05:57.607Z</time></trkpt><trkpt lat="43.7528436" lon="12.1978074"><ele>491.0</ele><time>2026-04-12T09:05:58.607Z</time></trkpt><trkpt lat="43.7529875" lon="12.1976833"><ele>494.0</ele><time>2026-04-12T09:05:59.606Z</time></trkpt><trkpt lat="43.7531119" lon="12.1975361"><ele>497.0</ele><time>2026-04-12T09:06:00.606Z</time></trkpt><trkpt lat="43.7532343" lon="12.19739"><ele>500.0</ele><time>2026-04-12T09:06:01.607Z</time></trkpt><trkpt lat="43.7533712" lon="12.1972545"><ele>493.0</ele><time>2026-04-12T09:06:02.607Z</time></trkpt><trkpt lat="43.7535206" lon="12.1971469"><ele>486.0</ele><time>2026-04-12T09:06:03.607Z</time></trkpt><trkpt lat="43.7536809" lon="12.1970845"><ele>479.0</ele><time>2026-04-12T09:06:04.607Z</time></trkpt><trkpt lat="43.7538451" lon="12.1970599"><ele>479.0</ele><time>2026-04-12T09:06:05.607Z</time></trkpt><trkpt lat="43.7540161" lon="12.1970748"><ele>479.0</ele><time>2026-04-12T09:06:06.606Z</time></trkpt><trkpt lat="43.7541857" lon="12.1971258"><ele>479.0</ele><time>2026-04-12T09:06:07.606Z</time></trkpt><trkpt lat="43.7543504" lon="12.197209"><ele>482.0</ele><time>2026-04-12T09:06:08.607Z</time></trkpt><trkpt lat="43.7545114" lon="12.1972816"><ele>485.0</ele><time>2026-04-12T09:06:09.607Z</time></trkpt><trkpt lat="43.7546692" lon="12.1973215"><ele>488.0</ele><time>2026-04-12T09:06:10.607Z</time></trkpt><trkpt lat="43.7548286" lon="12.1973092"><ele>488.0</ele><time>2026-04-12T09:06:11.607Z</time></trkpt><trkpt lat="43.7549916" lon="12.1972519"><ele>488.0</ele><time>2026-04-12T09:06:12.607Z</time></trkpt><trkpt lat="43.7551487" lon="12.1971445"><ele>488.0</ele><time>2026-04-12T09:06:13.607Z</time></trkpt><trkpt lat="43.7552923" lon="12.1969811"><ele>485.66666666666663</ele><time>2026-04-12T09:06:14.607Z</time></trkpt><trkpt lat="43.7554224" lon="12.1967974"><ele>483.33333333333337</ele><time>2026-04-12T09:06:15.606Z</time></trkpt><trkpt lat="43.7555359" lon="12.1966144"><ele>481.0</ele><time>2026-04-12T09:06:16.606Z</time></trkpt><trkpt lat="43.7556471" lon="12.1964329"><ele>481.0</ele><time>2026-04-12T09:06:17.607Z</time></trkpt><trkpt lat="43.7557613" lon="12.1962597"><ele>481.0</ele><time>2026-04-12T09:06:18.606Z</time></trkpt><trkpt lat="43.7558763" lon="12.1961018"><ele>481.0</ele><time>2026-04-12T09:06:19.607Z</time></trkpt><trkpt lat="43.7559824" lon="12.1959459"><ele>483.0</ele><time>2026-04-12T09:06:20.607Z</time></trkpt><trkpt lat="43.7560792" lon="12.195809"><ele>485.0</ele><time>2026-04-12T09:06:21.606Z</time></trkpt><trkpt lat="43.7561827" lon="12.1956896"><ele>487.0</ele><time>2026-04-12T09:06:22.607Z</time></trkpt><trkpt lat="43.7562923" lon="12.195612"><ele>489.0</ele><time>2026-04-12T09:06:23.606Z</time></trkpt><trkpt lat="43.7564139" lon="12.1955644"><ele>489.0</ele><time>2026-04-12T09:06:24.607Z</time></trkpt><trkpt lat="43.7565414" lon="12.1955538"><ele>489.0</ele><time>2026-04-12T09:06:25.606Z</time></trkpt><trkpt lat="43.7566761" lon="12.1956159"><ele>489.0</ele><time>2026-04-12T09:06:26.606Z</time></trkpt><trkpt lat="43.7568023" lon="12.195742"><ele>489.0</ele><time>2026-04-12T09:06:27.607Z</time></trkpt><trkpt lat="43.7569093" lon="12.1959137"><ele>486.33333333333337</ele><time>2026-04-12T09:06:28.606Z</time></trkpt><trkpt lat="43.7569781" lon="12.1961311"><ele>483.6666666666667</ele><time>2026-04-12T09:06:29.607Z</time></trkpt><trkpt lat="43.7570316" lon="12.1963425"><ele>481.0</ele><time>2026-04-12T09:06:30.607Z</time></trkpt><trkpt lat="43.7570736" lon="12.1965418"><ele>481.0</ele><time>2026-04-12T09:06:31.607Z</time></trkpt><trkpt lat="43.7571204" lon="12.1967355"><ele>481.0</ele><time>2026-04-12T09:06:32.607Z</time></trkpt><trkpt lat="43.7571798" lon="12.1969177"><ele>481.0</ele><time>2026-04-12T09:06:33.607Z</time></trkpt><trkpt lat="43.7572613" lon="12.1970802"><ele>481.0</ele><time>2026-04-12T09:06:34.607Z</time></trkpt><trkpt lat="43.757376" lon="12.1972131"><ele>481.0</ele><time>2026-04-12T09:06:35.607Z</time></trkpt><trkpt lat="43.7575151" lon="12.1973027"><ele>481.0</ele><time>2026-04-12T09:06:36.606Z</time></trkpt><trkpt lat="43.757669" lon="12.197371"><ele>481.0</ele><time>2026-04-12T09:06:37.607Z</time></trkpt><trkpt lat="43.757819" lon="12.1974635"><ele>478.0</ele><time>2026-04-12T09:06:38.606Z</time></trkpt><trkpt lat="43.7579526" lon="12.1976015"><ele>475.0</ele><time>2026-04-12T09:06:39.606Z</time></trkpt><trkpt lat="43.7580758" lon="12.1977709"><ele>472.0</ele><time>2026-04-12T09:06:40.606Z</time></trkpt><trkpt lat="43.7581875" lon="12.1979709"><ele>477.33333333333337</ele><time>2026-04-12T09:06:41.606Z</time></trkpt><trkpt lat="43.7583087" lon="12.1981961"><ele>482.66666666666663</ele><time>2026-04-12T09:06:42.607Z</time></trkpt><trkpt lat="43.7584292" lon="12.1984222"><ele>488.0</ele><time>2026-04-12T09:06:43.607Z</time></trkpt><trkpt lat="43.7585479" lon="12.1986331"><ele>479.66666666666663</ele><time>2026-04-12T09:06:44.607Z</time></trkpt><trkpt lat="43.7586581" lon="12.1988423"><ele>471.33333333333337</ele><time>2026-04-12T09:06:45.607Z</time></trkpt><trkpt lat="43.7587624" lon="12.1990406"><ele>463.0</ele><time>2026-04-12T09:06:46.607Z</time></trkpt><trkpt lat="43.7588642" lon="12.1992267"><ele>463.0</ele><time>2026-04-12T09:06:47.607Z</time></trkpt><trkpt lat="43.758974" lon="12.1993981"><ele>463.0</ele><time>2026-04-12T09:06:48.607Z</time></trkpt><trkpt lat="43.7590796" lon="12.1995597"><ele>463.0</ele><time>2026-04-12T09:06:49.607Z</time></trkpt><trkpt lat="43.7591963" lon="12.1996975"><ele>463.0</ele><time>2026-04-12T09:06:50.607Z</time></trkpt><trkpt lat="43.7593354" lon="12.199811"><ele>463.0</ele><time>2026-04-12T09:06:51.606Z</time></trkpt><trkpt lat="43.7594906" lon="12.1999032"><ele>463.0</ele><time>2026-04-12T09:06:52.607Z</time></trkpt><trkpt lat="43.7596561" lon="12.199981"><ele>463.33333333333337</ele><time>2026-04-12T09:06:53.607Z</time></trkpt><trkpt lat="43.7598362" lon="12.2000392"><ele>463.66666666666663</ele><time>2026-04-12T09:06:54.606Z</time></trkpt><trkpt lat="43.7600297" lon="12.2000804"><ele>464.0</ele><time>2026-04-12T09:06:55.607Z</time></trkpt><trkpt lat="43.7602245" lon="12.2001135"><ele>462.0</ele><time>2026-04-12T09:06:56.607Z</time></trkpt><trkpt lat="43.7604041" lon="12.2001483"><ele>460.0</ele><time>2026-04-12T09:06:57.607Z</time></trkpt><trkpt lat="43.7605673" lon="12.2001758"><ele>458.0</ele><time>2026-04-12T09:06:58.607Z</time></trkpt><trkpt lat="43.7607263" lon="12.2001862"><ele>458.0</ele><time>2026-04-12T09:06:59.607Z</time></trkpt><trkpt lat="43.7608837" lon="12.2001536"><ele>458.0</ele><time>2026-04-12T09:07:00.606Z</time></trkpt><trkpt lat="43.7610368" lon="12.200078"><ele>458.0</ele><time>2026-04-12T09:07:01.607Z</time></trkpt><trkpt lat="43.7611747" lon="12.1999507"><ele>454.25</ele><time>2026-04-12T09:07:02.607Z</time></trkpt><trkpt lat="43.7612946" lon="12.1998121"><ele>450.5</ele><time>2026-04-12T09:07:03.607Z</time></trkpt><trkpt lat="43.7614049" lon="12.1996813"><ele>446.75</ele><time>2026-04-12T09:07:04.607Z</time></trkpt><trkpt lat="43.7615219" lon="12.1995734"><ele>443.0</ele><time>2026-04-12T09:07:05.607Z</time></trkpt><trkpt lat="43.7616574" lon="12.1995083"><ele>443.0</ele><time>2026-04-12T09:07:06.606Z</time></trkpt><trkpt lat="43.761803" lon="12.1994721"><ele>443.0</ele><time>2026-04-12T09:07:07.606Z</time></trkpt><trkpt lat="43.7619529" lon="12.1994697"><ele>443.0</ele><time>2026-04-12T09:07:08.607Z</time></trkpt><trkpt lat="43.7621066" lon="12.1995103"><ele>443.75</ele><time>2026-04-12T09:07:09.607Z</time></trkpt><trkpt lat="43.7622551" lon="12.1995443"><ele>444.5</ele><time>2026-04-12T09:07:10.607Z</time></trkpt><trkpt lat="43.7624038" lon="12.1995722"><ele>445.25</ele><time>2026-04-12T09:07:11.606Z</time></trkpt><trkpt lat="43.7625472" lon="12.1995838"><ele>446.0</ele><time>2026-04-12T09:07:12.607Z</time></trkpt><trkpt lat="43.7627416" lon="12.1995872"><ele>446.66666666666663</ele><time>2026-04-12T09:07:14.163Z</time></trkpt><trkpt lat="43.7629544" lon="12.1994325"><ele>447.33333333333337</ele><time>2026-04-12T09:07:15.523Z</time></trkpt><trkpt lat="43.7630825" lon="12.1994197"><ele>448.0</ele><time>2026-04-12T09:07:16.605Z</time></trkpt><trkpt lat="43.7632708" lon="12.1993188"><ele>448.0</ele><time>2026-04-12T09:07:18.106Z</time></trkpt><trkpt lat="43.7634522" lon="12.1991445"><ele>448.0</ele><time>2026-04-12T09:07:19.605Z</time></trkpt><trkpt lat="43.7635463" lon="12.1989828"><ele>448.0</ele><time>2026-04-12T09:07:20.606Z</time></trkpt><trkpt lat="43.763639" lon="12.1988192"><ele>447.0</ele><time>2026-04-12T09:07:21.605Z</time></trkpt><trkpt lat="43.7637286" lon="12.1986896"><ele>446.0</ele><time>2026-04-12T09:07:22.606Z</time></trkpt><trkpt lat="43.7638302" lon="12.1985798"><ele>445.0</ele><time>2026-04-12T09:07:23.606Z</time></trkpt><trkpt lat="43.7639339" lon="12.1984886"><ele>444.0</ele><time>2026-04-12T09:07:24.606Z</time></trkpt><trkpt lat="43.7640452" lon="12.1984178"><ele>444.0</ele><time>2026-04-12T09:07:25.606Z</time></trkpt><trkpt lat="43.7641627" lon="12.1983793"><ele>444.0</ele><time>2026-04-12T09:07:26.605Z</time></trkpt><trkpt lat="43.7642895" lon="12.1983744"><ele>444.0</ele><time>2026-04-12T09:07:27.606Z</time></trkpt><trkpt lat="43.7644344" lon="12.1984227"><ele>444.0</ele><time>2026-04-12T09:07:28.605Z</time></trkpt><trkpt lat="43.7645797" lon="12.198502"><ele>442.25</ele><time>2026-04-12T09:07:29.606Z</time></trkpt><trkpt lat="43.7647157" lon="12.1985767"><ele>440.5</ele><time>2026-04-12T09:07:30.606Z</time></trkpt><trkpt lat="43.7648406" lon="12.1986385"><ele>438.75</ele><time>2026-04-12T09:07:31.606Z</time></trkpt><trkpt lat="43.7649625" lon="12.1986959"><ele>437.0</ele><time>2026-04-12T09:07:32.606Z</time></trkpt><trkpt lat="43.7650813" lon="12.1987545"><ele>435.75</ele><time>2026-04-12T09:07:33.605Z</time></trkpt><trkpt lat="43.7652032" lon="12.1988037"><ele>434.5</ele><time>2026-04-12T09:07:34.606Z</time></trkpt><trkpt lat="43.7653186" lon="12.1988551"><ele>433.25</ele><time>2026-04-12T09:07:35.605Z</time></trkpt><trkpt lat="43.7654236" lon="12.1989194"><ele>432.0</ele><time>2026-04-12T09:07:36.606Z</time></trkpt><trkpt lat="43.7655271" lon="12.1990061"><ele>432.0</ele><time>2026-04-12T09:07:37.605Z</time></trkpt><trkpt lat="43.7656255" lon="12.1991165"><ele>432.0</ele><time>2026-04-12T09:07:38.606Z</time></trkpt><trkpt lat="43.765719" lon="12.1992587"><ele>432.0</ele><time>2026-04-12T09:07:39.606Z</time></trkpt><trkpt lat="43.7658055" lon="12.1994142"><ele>432.0</ele><time>2026-04-12T09:07:40.607Z</time></trkpt><trkpt lat="43.7658898" lon="12.1995755"><ele>432.0</ele><time>2026-04-12T09:07:41.606Z</time></trkpt><trkpt lat="43.7659678" lon="12.1997384"><ele>432.0</ele><time>2026-04-12T09:07:42.607Z</time></trkpt><trkpt lat="43.7660399" lon="12.199897"><ele>432.0</ele><time>2026-04-12T09:07:43.606Z</time></trkpt><trkpt lat="43.7661077" lon="12.2000526"><ele>432.0</ele><time>2026-04-12T09:07:44.607Z</time></trkpt><trkpt lat="43.7661847" lon="12.2001924"><ele>431.75</ele><time>2026-04-12T09:07:45.607Z</time></trkpt><trkpt lat="43.7662725" lon="12.2003071"><ele>431.5</ele><time>2026-04-12T09:07:46.607Z</time></trkpt><trkpt lat="43.7663776" lon="12.2003851"><ele>431.25</ele><time>2026-04-12T09:07:47.607Z</time></trkpt><trkpt lat="43.7664983" lon="12.2004363"><ele>431.0</ele><time>2026-04-12T09:07:48.606Z</time></trkpt><trkpt lat="43.7666344" lon="12.2004652"><ele>431.0</ele><time>2026-04-12T09:07:49.606Z</time></trkpt><trkpt lat="43.7667804" lon="12.2004871"><ele>431.0</ele><time>2026-04-12T09:07:50.607Z</time></trkpt><trkpt lat="43.7669288" lon="12.2005007"><ele>431.0</ele><time>2026-04-12T09:07:51.607Z</time></trkpt><trkpt lat="43.7670842" lon="12.2005078"><ele>431.3333333333333</ele><time>2026-04-12T09:07:52.606Z</time></trkpt><trkpt lat="43.767235" lon="12.2004923"><ele>431.66666666666663</ele><time>2026-04-12T09:07:53.607Z</time></trkpt><trkpt lat="43.7673846" lon="12.2004461"><ele>432.0</ele><time>2026-04-12T09:07:54.606Z</time></trkpt><trkpt lat="43.7675414" lon="12.2003699"><ele>432.66666666666663</ele><time>2026-04-12T09:07:55.607Z</time></trkpt><trkpt lat="43.7676956" lon="12.2002869"><ele>433.3333333333333</ele><time>2026-04-12T09:07:56.606Z</time></trkpt><trkpt lat="43.7678376" lon="12.200202"><ele>434.0</ele><time>2026-04-12T09:07:57.607Z</time></trkpt><trkpt lat="43.767979" lon="12.2001385"><ele>434.0</ele><time>2026-04-12T09:07:58.607Z</time></trkpt><trkpt lat="43.7681318" lon="12.2001085"><ele>434.0</ele><time>2026-04-12T09:07:59.607Z</time></trkpt><trkpt lat="43.7682916" lon="12.2001151"><ele>434.0</ele><time>2026-04-12T09:08:00.606Z</time></trkpt><trkpt lat="43.7684609" lon="12.2001516"><ele>431.66666666666663</ele><time>2026-04-12T09:08:01.606Z</time></trkpt><trkpt lat="43.7686301" lon="12.200209"><ele>429.33333333333337</ele><time>2026-04-12T09:08:02.607Z</time></trkpt><trkpt lat="43.7687993" lon="12.2002846"><ele>427.0</ele><time>2026-04-12T09:08:03.607Z</time></trkpt><trkpt lat="43.7689656" lon="12.2003917"><ele>427.0</ele><time>2026-04-12T09:08:04.607Z</time></trkpt><trkpt lat="43.769126" lon="12.200504"><ele>427.0</ele><time>2026-04-12T09:08:05.607Z</time></trkpt><trkpt lat="43.7692716" lon="12.2006127"><ele>427.0</ele><time>2026-04-12T09:08:06.607Z</time></trkpt><trkpt lat="43.7694109" lon="12.2007073"><ele>430.33333333333337</ele><time>2026-04-12T09:08:07.607Z</time></trkpt><trkpt lat="43.7695565" lon="12.2007681"><ele>433.66666666666663</ele><time>2026-04-12T09:08:08.607Z</time></trkpt><trkpt lat="43.7697148" lon="12.200781"><ele>437.0</ele><time>2026-04-12T09:08:09.607Z</time></trkpt><trkpt lat="43.7698785" lon="12.2007537"><ele>437.0</ele><time>2026-04-12T09:08:10.606Z</time></trkpt><trkpt lat="43.7700584" lon="12.2007221"><ele>437.0</ele><time>2026-04-12T09:08:11.607Z</time></trkpt><trkpt lat="43.770244" lon="12.2006971"><ele>437.0</ele><time>2026-04-12T09:08:12.607Z</time></trkpt><trkpt lat="43.7704217" lon="12.2006727"><ele>436.0</ele><time>2026-04-12T09:08:13.607Z</time></trkpt><trkpt lat="43.7705884" lon="12.2006624"><ele>435.0</ele><time>2026-04-12T09:08:14.606Z</time></trkpt><trkpt lat="43.7707531" lon="12.2006732"><ele>434.0</ele><time>2026-04-12T09:08:15.607Z</time></trkpt><trkpt lat="43.7709182" lon="12.2007158"><ele>431.3333333333333</ele><time>2026-04-12T09:08:16.606Z</time></trkpt><trkpt lat="43.7710789" lon="12.2008047"><ele>428.66666666666663</ele><time>2026-04-12T09:08:17.606Z</time></trkpt><trkpt lat="43.7712331" lon="12.2009382"><ele>426.0</ele><time>2026-04-12T09:08:18.607Z</time></trkpt><trkpt lat="43.7713897" lon="12.201076"><ele>426.0</ele><time>2026-04-12T09:08:19.607Z</time></trkpt><trkpt lat="43.7715364" lon="12.2012061"><ele>426.0</ele><time>2026-04-12T09:08:20.607Z</time></trkpt><trkpt lat="43.771675" lon="12.20131"><ele>426.0</ele><time>2026-04-12T09:08:21.607Z</time></trkpt><trkpt lat="43.7718317" lon="12.2013767"><ele>426.0</ele><time>2026-04-12T09:08:22.607Z</time></trkpt><trkpt lat="43.7719983" lon="12.2014183"><ele>426.0</ele><time>2026-04-12T09:08:23.606Z</time></trkpt><trkpt lat="43.7721717" lon="12.2014217"><ele>426.0</ele><time>2026-04-12T09:08:24.606Z</time></trkpt><trkpt lat="43.7723517" lon="12.2013967"><ele>426.0</ele><time>2026-04-12T09:08:25.606Z</time></trkpt><trkpt lat="43.772535" lon="12.201365"><ele>426.0</ele><time>2026-04-12T09:08:26.606Z</time></trkpt><trkpt lat="43.772715" lon="12.2013467"><ele>426.0</ele><time>2026-04-12T09:08:27.606Z</time></trkpt><trkpt lat="43.7728917" lon="12.2013467"><ele>424.66666666666663</ele><time>2026-04-12T09:08:28.607Z</time></trkpt><trkpt lat="43.7730783" lon="12.2013667"><ele>423.3333333333333</ele><time>2026-04-12T09:08:29.607Z</time></trkpt><trkpt lat="43.7732717" lon="12.2014083"><ele>422.0</ele><time>2026-04-12T09:08:30.607Z</time></trkpt><trkpt lat="43.77346" lon="12.2014767"><ele>424.66666666666663</ele><time>2026-04-12T09:08:31.607Z</time></trkpt><trkpt lat="43.7736583" lon="12.20158"><ele>427.33333333333337</ele><time>2026-04-12T09:08:32.607Z</time></trkpt><trkpt lat="43.77383" lon="12.2017117"><ele>430.0</ele><time>2026-04-12T09:08:33.607Z</time></trkpt><trkpt lat="43.7739867" lon="12.2018417"><ele>430.0</ele><time>2026-04-12T09:08:34.606Z</time></trkpt><trkpt lat="43.7741467" lon="12.20195"><ele>430.0</ele><time>2026-04-12T09:08:35.606Z</time></trkpt><trkpt lat="43.7743217" lon="12.202025"><ele>430.0</ele><time>2026-04-12T09:08:36.607Z</time></trkpt><trkpt lat="43.7744933" lon="12.2020733"><ele>429.33333333333337</ele><time>2026-04-12T09:08:37.607Z</time></trkpt><trkpt lat="43.774655" lon="12.2021033"><ele>428.66666666666663</ele><time>2026-04-12T09:08:38.606Z</time></trkpt><trkpt lat="43.7748083" lon="12.20216"><ele>428.0</ele><time>2026-04-12T09:08:39.607Z</time></trkpt><trkpt lat="43.7749583" lon="12.2022633"><ele>426.3333333333333</ele><time>2026-04-12T09:08:40.607Z</time></trkpt><trkpt lat="43.7751017" lon="12.2024"><ele>424.66666666666663</ele><time>2026-04-12T09:08:41.606Z</time></trkpt><trkpt lat="43.7752483" lon="12.2025633"><ele>423.0</ele><time>2026-04-12T09:08:42.606Z</time></trkpt><trkpt lat="43.775395" lon="12.2027333"><ele>423.0</ele><time>2026-04-12T09:08:43.607Z</time></trkpt><trkpt lat="43.7755433" lon="12.20288"><ele>423.0</ele><time>2026-04-12T09:08:44.607Z</time></trkpt><trkpt lat="43.7756883" lon="12.20301"><ele>423.0</ele><time>2026-04-12T09:08:45.607Z</time></trkpt><trkpt lat="43.7758367" lon="12.2031283"><ele>424.33333333333337</ele><time>2026-04-12T09:08:46.607Z</time></trkpt><trkpt lat="43.77598" lon="12.2032417"><ele>425.6666666666667</ele><time>2026-04-12T09:08:47.606Z</time></trkpt><trkpt lat="43.7761267" lon="12.2033533"><ele>427.0</ele><time>2026-04-12T09:08:48.607Z</time></trkpt><trkpt lat="43.7762667" lon="12.20346"><ele>427.0</ele><time>2026-04-12T09:08:49.607Z</time></trkpt><trkpt lat="43.7763917" lon="12.2035533"><ele>427.0</ele><time>2026-04-12T09:08:50.607Z</time></trkpt><trkpt lat="43.77651" lon="12.2036483"><ele>427.0</ele><time>2026-04-12T09:08:51.607Z</time></trkpt><trkpt lat="43.7766217" lon="12.2037433"><ele>427.0</ele><time>2026-04-12T09:08:52.606Z</time></trkpt><trkpt lat="43.77673" lon="12.2038267"><ele>427.0</ele><time>2026-04-12T09:08:53.607Z</time></trkpt><trkpt lat="43.7768333" lon="12.2039067"><ele>427.00000000000006</ele><time>2026-04-12T09:08:54.606Z</time></trkpt><trkpt lat="43.77693" lon="12.20398"><ele>427.00000000000006</ele><time>2026-04-12T09:08:55.607Z</time></trkpt><trkpt lat="43.777025" lon="12.204045"><ele>427.0</ele><time>2026-04-12T09:08:56.606Z</time></trkpt><trkpt lat="43.77712" lon="12.2041133"><ele>427.0</ele><time>2026-04-12T09:08:57.607Z</time></trkpt><trkpt lat="43.7772117" lon="12.20419"><ele>427.6</ele><time>2026-04-12T09:08:58.606Z</time></trkpt><trkpt lat="43.777305" lon="12.204255"><ele>428.20000000000005</ele><time>2026-04-12T09:08:59.607Z</time></trkpt><trkpt lat="43.7773967" lon="12.2043233"><ele>428.8</ele><time>2026-04-12T09:09:00.607Z</time></trkpt><trkpt lat="43.77749" lon="12.20439"><ele>429.4</ele><time>2026-04-12T09:09:01.606Z</time></trkpt><trkpt lat="43.7775833" lon="12.2044583"><ele>430.0</ele><time>2026-04-12T09:09:02.607Z</time></trkpt><trkpt lat="43.7776717" lon="12.2045283"><ele>427.5</ele><time>2026-04-12T09:09:03.607Z</time></trkpt><trkpt lat="43.7777567" lon="12.2045933"><ele>425.0</ele><time>2026-04-12T09:09:04.606Z</time></trkpt><trkpt lat="43.7778533" lon="12.20466"><ele>422.5</ele><time>2026-04-12T09:09:05.607Z</time></trkpt><trkpt lat="43.7779583" lon="12.204745"><ele>420.0</ele><time>2026-04-12T09:09:06.607Z</time></trkpt><trkpt lat="43.7780833" lon="12.2048283"><ele>422.75</ele><time>2026-04-12T09:09:07.607Z</time></trkpt><trkpt lat="43.7782183" lon="12.2049183"><ele>425.5</ele><time>2026-04-12T09:09:08.607Z</time></trkpt><trkpt lat="43.7783417" lon="12.205"><ele>428.25</ele><time>2026-04-12T09:09:09.607Z</time></trkpt><trkpt lat="43.7784733" lon="12.2050583"><ele>431.0</ele><time>2026-04-12T09:09:10.607Z</time></trkpt><trkpt lat="43.7786217" lon="12.20509"><ele>431.0</ele><time>2026-04-12T09:09:11.607Z</time></trkpt><trkpt lat="43.778775" lon="12.2050683"><ele>431.0</ele><time>2026-04-12T09:09:12.607Z</time></trkpt><trkpt lat="43.7789267" lon="12.2050283"><ele>431.0</ele><time>2026-04-12T09:09:13.606Z</time></trkpt><trkpt lat="43.7790733" lon="12.204985"><ele>431.0</ele><time>2026-04-12T09:09:14.606Z</time></trkpt><trkpt lat="43.779215" lon="12.2049683"><ele>431.0</ele><time>2026-04-12T09:09:15.607Z</time></trkpt><trkpt lat="43.7793567" lon="12.204965"><ele>431.0</ele><time>2026-04-12T09:09:16.607Z</time></trkpt><trkpt lat="43.7795017" lon="12.205015"><ele>431.0</ele><time>2026-04-12T09:09:17.607Z</time></trkpt><trkpt lat="43.7796517" lon="12.2050817"><ele>427.75</ele><time>2026-04-12T09:09:18.607Z</time></trkpt><trkpt lat="43.7797867" lon="12.205155"><ele>424.5</ele><time>2026-04-12T09:09:19.607Z</time></trkpt><trkpt lat="43.779905" lon="12.2052483"><ele>421.25</ele><time>2026-04-12T09:09:20.606Z</time></trkpt><trkpt lat="43.78001" lon="12.2053483"><ele>418.0</ele><time>2026-04-12T09:09:21.606Z</time></trkpt><trkpt lat="43.7800967" lon="12.2054733"><ele>415.6666666666667</ele><time>2026-04-12T09:09:22.607Z</time></trkpt><trkpt lat="43.7801433" lon="12.205665"><ele>413.33333333333337</ele><time>2026-04-12T09:09:23.607Z</time></trkpt><trkpt lat="43.7801733" lon="12.20588"><ele>411.0</ele><time>2026-04-12T09:09:24.607Z</time></trkpt><trkpt lat="43.7802183" lon="12.2061233"><ele>411.0</ele><time>2026-04-12T09:09:25.607Z</time></trkpt><trkpt lat="43.7802967" lon="12.20636"><ele>411.0</ele><time>2026-04-12T09:09:26.607Z</time></trkpt><trkpt lat="43.7804067" lon="12.2066083"><ele>411.0</ele><time>2026-04-12T09:09:27.607Z</time></trkpt><trkpt lat="43.7805433" lon="12.206865"><ele>414.0</ele><time>2026-04-12T09:09:28.607Z</time></trkpt><trkpt lat="43.78069" lon="12.2071217"><ele>417.0</ele><time>2026-04-12T09:09:29.607Z</time></trkpt><trkpt lat="43.780835" lon="12.2073667"><ele>413.0</ele><time>2026-04-12T09:09:30.607Z</time></trkpt><trkpt lat="43.7809767" lon="12.2075917"><ele>409.0</ele><time>2026-04-12T09:09:31.607Z</time></trkpt><trkpt lat="43.7811067" lon="12.2078033"><ele>405.0</ele><time>2026-04-12T09:09:32.606Z</time></trkpt><trkpt lat="43.781235" lon="12.2080017"><ele>407.66666666666663</ele><time>2026-04-12T09:09:33.607Z</time></trkpt><trkpt lat="43.7813483" lon="12.2081883"><ele>410.3333333333333</ele><time>2026-04-12T09:09:34.607Z</time></trkpt><trkpt lat="43.7814433" lon="12.2083833"><ele>413.0</ele><time>2026-04-12T09:09:35.607Z</time></trkpt><trkpt lat="43.78151" lon="12.20861"><ele>413.0</ele><time>2026-04-12T09:09:36.607Z</time></trkpt><trkpt lat="43.7815533" lon="12.2088667"><ele>413.0</ele><time>2026-04-12T09:09:37.607Z</time></trkpt><trkpt lat="43.7815883" lon="12.20915"><ele>413.0</ele><time>2026-04-12T09:09:38.607Z</time></trkpt><trkpt lat="43.781615" lon="12.20943"><ele>412.66666666666663</ele><time>2026-04-12T09:09:39.606Z</time></trkpt><trkpt lat="43.7816467" lon="12.2096833"><ele>412.33333333333337</ele><time>2026-04-12T09:09:40.607Z</time></trkpt><trkpt lat="43.7816833" lon="12.2099"><ele>412.0</ele><time>2026-04-12T09:09:41.607Z</time></trkpt><trkpt lat="43.78171" lon="12.2100933"><ele>412.0</ele><time>2026-04-12T09:09:42.606Z</time></trkpt><trkpt lat="43.781745" lon="12.2102583"><ele>412.0</ele><time>2026-04-12T09:09:43.607Z</time></trkpt><trkpt lat="43.7818317" lon="12.2103833"><ele>412.0</ele><time>2026-04-12T09:09:44.607Z</time></trkpt><trkpt lat="43.7819517" lon="12.2104683"><ele>412.0</ele><time>2026-04-12T09:09:45.607Z</time></trkpt><trkpt lat="43.78211" lon="12.21051"><ele>412.0</ele><time>2026-04-12T09:09:46.607Z</time></trkpt><trkpt lat="43.78227" lon="12.2105383"><ele>412.0</ele><time>2026-04-12T09:09:47.607Z</time></trkpt><trkpt lat="43.782435" lon="12.2105517"><ele>412.0</ele><time>2026-04-12T09:09:48.606Z</time></trkpt><trkpt lat="43.7826133" lon="12.210565"><ele>412.0</ele><time>2026-04-12T09:09:49.607Z</time></trkpt><trkpt lat="43.7827767" lon="12.2105917"><ele>412.0</ele><time>2026-04-12T09:09:50.607Z</time></trkpt><trkpt lat="43.7829317" lon="12.21062"><ele>412.0</ele><time>2026-04-12T09:09:51.607Z</time></trkpt><trkpt lat="43.7830967" lon="12.2106767"><ele>415.0</ele><time>2026-04-12T09:09:52.607Z</time></trkpt><trkpt lat="43.7832717" lon="12.2107467"><ele>418.0</ele><time>2026-04-12T09:09:53.607Z</time></trkpt><trkpt lat="43.783455" lon="12.21082"><ele>421.0</ele><time>2026-04-12T09:09:54.607Z</time></trkpt><trkpt lat="43.783655" lon="12.210905"><ele>421.0</ele><time>2026-04-12T09:09:55.607Z</time></trkpt><trkpt lat="43.7838367" lon="12.210985"><ele>421.0</ele><time>2026-04-12T09:09:56.606Z</time></trkpt><trkpt lat="43.7840067" lon="12.2110467"><ele>421.0</ele><time>2026-04-12T09:09:57.606Z</time></trkpt><trkpt lat="43.7841633" lon="12.2110983"><ele>421.0</ele><time>2026-04-12T09:09:58.607Z</time></trkpt><trkpt lat="43.7843183" lon="12.2111217"><ele>421.0</ele><time>2026-04-12T09:09:59.607Z</time></trkpt><trkpt lat="43.7844667" lon="12.2111033"><ele>421.0</ele><time>2026-04-12T09:10:00.607Z</time></trkpt><trkpt lat="43.784605" lon="12.2110483"><ele>421.0</ele><time>2026-04-12T09:10:01.606Z</time></trkpt><trkpt lat="43.7847283" lon="12.2109383"><ele>420.0</ele><time>2026-04-12T09:10:02.606Z</time></trkpt><trkpt lat="43.7848183" lon="12.2107767"><ele>419.0</ele><time>2026-04-12T09:10:03.607Z</time></trkpt><trkpt lat="43.78488" lon="12.2105867"><ele>418.0</ele><time>2026-04-12T09:10:04.607Z</time></trkpt><trkpt lat="43.7849333" lon="12.2104033"><ele>417.0</ele><time>2026-04-12T09:10:05.607Z</time></trkpt><trkpt lat="43.7849933" lon="12.2102283"><ele>417.0</ele><time>2026-04-12T09:10:06.606Z</time></trkpt><trkpt lat="43.78508" lon="12.210095"><ele>417.0</ele><time>2026-04-12T09:10:07.606Z</time></trkpt><trkpt lat="43.7851983" lon="12.21"><ele>417.0</ele><time>2026-04-12T09:10:08.607Z</time></trkpt><trkpt lat="43.7853467" lon="12.2099533"><ele>417.0</ele><time>2026-04-12T09:10:09.606Z</time></trkpt><trkpt lat="43.785525" lon="12.2099533"><ele>420.0</ele><time>2026-04-12T09:10:10.607Z</time></trkpt><trkpt lat="43.7857083" lon="12.2099683"><ele>423.0</ele><time>2026-04-12T09:10:11.607Z</time></trkpt><trkpt lat="43.7858933" lon="12.2100183"><ele>426.0</ele><time>2026-04-12T09:10:12.607Z</time></trkpt><trkpt lat="43.786055" lon="12.2100817"><ele>427.33333333333337</ele><time>2026-04-12T09:10:13.607Z</time></trkpt><trkpt lat="43.7862217" lon="12.2100817"><ele>428.6666666666667</ele><time>2026-04-12T09:10:14.607Z</time></trkpt><trkpt lat="43.7864067" lon="12.2100233"><ele>430.0</ele><time>2026-04-12T09:10:15.606Z</time></trkpt><trkpt lat="43.7865917" lon="12.2099317"><ele>430.0</ele><time>2026-04-12T09:10:16.606Z</time></trkpt><trkpt lat="43.7867617" lon="12.2098467"><ele>430.0</ele><time>2026-04-12T09:10:17.607Z</time></trkpt><trkpt lat="43.786935" lon="12.209795"><ele>430.0</ele><time>2026-04-12T09:10:18.607Z</time></trkpt><trkpt lat="43.787095" lon="12.2097967"><ele>428.6666666666667</ele><time>2026-04-12T09:10:19.607Z</time></trkpt><trkpt lat="43.7872433" lon="12.2098617"><ele>427.33333333333337</ele><time>2026-04-12T09:10:20.607Z</time></trkpt><trkpt lat="43.7873917" lon="12.2099767"><ele>426.0</ele><time>2026-04-12T09:10:21.607Z</time></trkpt><trkpt lat="43.7875583" lon="12.2101217"><ele>425.33333333333337</ele><time>2026-04-12T09:10:22.607Z</time></trkpt><trkpt lat="43.787725" lon="12.2102683"><ele>424.6666666666667</ele><time>2026-04-12T09:10:23.607Z</time></trkpt><trkpt lat="43.7878833" lon="12.210375"><ele>424.0</ele><time>2026-04-12T09:10:24.607Z</time></trkpt><trkpt lat="43.788045" lon="12.210455"><ele>424.0</ele><time>2026-04-12T09:10:25.607Z</time></trkpt><trkpt lat="43.7882133" lon="12.2104933"><ele>424.0</ele><time>2026-04-12T09:10:26.606Z</time></trkpt><trkpt lat="43.78839" lon="12.2104683"><ele>424.0</ele><time>2026-04-12T09:10:27.607Z</time></trkpt><trkpt lat="43.7885717" lon="12.2103633"><ele>427.6666666666667</ele><time>2026-04-12T09:10:28.606Z</time></trkpt><trkpt lat="43.788745" lon="12.2102167"><ele>431.33333333333337</ele><time>2026-04-12T09:10:29.607Z</time></trkpt><trkpt lat="43.7889083" lon="12.21006"><ele>435.0</ele><time>2026-04-12T09:10:30.607Z</time></trkpt><trkpt lat="43.7890667" lon="12.209915"><ele>431.33333333333337</ele><time>2026-04-12T09:10:31.606Z</time></trkpt><trkpt lat="43.78924" lon="12.2097983"><ele>427.6666666666667</ele><time>2026-04-12T09:10:32.606Z</time></trkpt><trkpt lat="43.7894283" lon="12.209705"><ele>424.0</ele><time>2026-04-12T09:10:33.607Z</time></trkpt><trkpt lat="43.7896283" lon="12.2096317"><ele>424.0</ele><time>2026-04-12T09:10:34.607Z</time></trkpt><trkpt lat="43.789835" lon="12.2095717"><ele>424.0</ele><time>2026-04-12T09:10:35.607Z</time></trkpt><trkpt lat="43.7900517" lon="12.209535"><ele>424.0</ele><time>2026-04-12T09:10:36.607Z</time></trkpt><trkpt lat="43.7902717" lon="12.2095283"><ele>424.0</ele><time>2026-04-12T09:10:37.606Z</time></trkpt><trkpt lat="43.7904917" lon="12.2095233"><ele>424.0</ele><time>2026-04-12T09:10:38.607Z</time></trkpt><trkpt lat="43.7907" lon="12.209535"><ele>424.0</ele><time>2026-04-12T09:10:39.607Z</time></trkpt><trkpt lat="43.7908833" lon="12.2095417"><ele>421.6666666666667</ele><time>2026-04-12T09:10:40.607Z</time></trkpt><trkpt lat="43.7910483" lon="12.2095617"><ele>419.33333333333337</ele><time>2026-04-12T09:10:41.607Z</time></trkpt><trkpt lat="43.7912033" lon="12.2096"><ele>417.0</ele><time>2026-04-12T09:10:42.607Z</time></trkpt><trkpt lat="43.791355" lon="12.2096483"><ele>417.0</ele><time>2026-04-12T09:10:43.607Z</time></trkpt><trkpt lat="43.79148" lon="12.2097217"><ele>417.0</ele><time>2026-04-12T09:10:44.606Z</time></trkpt><trkpt lat="43.7915867" lon="12.20983"><ele>417.0</ele><time>2026-04-12T09:10:45.606Z</time></trkpt><trkpt lat="43.7916633" lon="12.20997"><ele>417.0</ele><time>2026-04-12T09:10:46.607Z</time></trkpt><trkpt lat="43.7916967" lon="12.2101683"><ele>421.66666666666663</ele><time>2026-04-12T09:10:47.607Z</time></trkpt><trkpt lat="43.791695" lon="12.2104217"><ele>426.3333333333333</ele><time>2026-04-12T09:10:48.607Z</time></trkpt><trkpt lat="43.7916833" lon="12.2107083"><ele>431.0</ele><time>2026-04-12T09:10:49.607Z</time></trkpt><trkpt lat="43.7916667" lon="12.211"><ele>431.0</ele><time>2026-04-12T09:10:50.606Z</time></trkpt><trkpt lat="43.7916583" lon="12.2112633"><ele>431.0</ele><time>2026-04-12T09:10:51.607Z</time></trkpt><trkpt lat="43.7916483" lon="12.2114917"><ele>431.0</ele><time>2026-04-12T09:10:52.607Z</time></trkpt><trkpt lat="43.79167" lon="12.21169"><ele>432.66666666666663</ele><time>2026-04-12T09:10:53.607Z</time></trkpt><trkpt lat="43.79175" lon="12.21185"><ele>434.33333333333337</ele><time>2026-04-12T09:10:54.607Z</time></trkpt><trkpt lat="43.791885" lon="12.2119533"><ele>436.0</ele><time>2026-04-12T09:10:55.607Z</time></trkpt><trkpt lat="43.7920667" lon="12.21199"><ele>430.5</ele><time>2026-04-12T09:10:56.607Z</time></trkpt><trkpt lat="43.7922883" lon="12.211985"><ele>425.0</ele><time>2026-04-12T09:10:57.607Z</time></trkpt><trkpt lat="43.79253" lon="12.211945"><ele>431.0</ele><time>2026-04-12T09:10:58.607Z</time></trkpt><trkpt lat="43.7927733" lon="12.211855"><ele>437.0</ele><time>2026-04-12T09:10:59.607Z</time></trkpt><trkpt lat="43.7930233" lon="12.2117333"><ele>437.0</ele><time>2026-04-12T09:11:00.607Z</time></trkpt><trkpt lat="43.79326" lon="12.21161"><ele>437.0</ele><time>2026-04-12T09:11:01.607Z</time></trkpt><trkpt lat="43.7934733" lon="12.2114883"><ele>434.0</ele><time>2026-04-12T09:11:02.607Z</time></trkpt><trkpt lat="43.7936717" lon="12.2113783"><ele>431.0</ele><time>2026-04-12T09:11:03.607Z</time></trkpt><trkpt lat="43.79385" lon="12.2112717"><ele>428.0</ele><time>2026-04-12T09:11:04.607Z</time></trkpt><trkpt lat="43.7940117" lon="12.2111517"><ele>428.0</ele><time>2026-04-12T09:11:05.607Z</time></trkpt><trkpt lat="43.79418" lon="12.2110483"><ele>428.0</ele><time>2026-04-12T09:11:06.607Z</time></trkpt><trkpt lat="43.794375" lon="12.21097"><ele>428.0</ele><time>2026-04-12T09:11:07.607Z</time></trkpt><trkpt lat="43.79458" lon="12.2109233"><ele>428.66666666666663</ele><time>2026-04-12T09:11:08.607Z</time></trkpt><trkpt lat="43.79479" lon="12.21091"><ele>429.33333333333337</ele><time>2026-04-12T09:11:09.607Z</time></trkpt><trkpt lat="43.79501" lon="12.2109417"><ele>430.0</ele><time>2026-04-12T09:11:10.607Z</time></trkpt><trkpt lat="43.795225" lon="12.2109983"><ele>426.0</ele><time>2026-04-12T09:11:11.607Z</time></trkpt><trkpt lat="43.795445" lon="12.2111017"><ele>422.0</ele><time>2026-04-12T09:11:12.606Z</time></trkpt><trkpt lat="43.7956583" lon="12.2112217"><ele>422.0</ele><time>2026-04-12T09:11:13.606Z</time></trkpt><trkpt lat="43.7958733" lon="12.2113467"><ele>422.0</ele><time>2026-04-12T09:11:14.606Z</time></trkpt><trkpt lat="43.7960883" lon="12.2114967"><ele>425.0</ele><time>2026-04-12T09:11:15.607Z</time></trkpt><trkpt lat="43.7963017" lon="12.2116333"><ele>428.0</ele><time>2026-04-12T09:11:16.607Z</time></trkpt><trkpt lat="43.7964967" lon="12.211785"><ele>428.0</ele><time>2026-04-12T09:11:17.606Z</time></trkpt><trkpt lat="43.7966583" lon="12.2119583"><ele>428.0</ele><time>2026-04-12T09:11:18.607Z</time></trkpt><trkpt lat="43.7968117" lon="12.2121367"><ele>428.0</ele><time>2026-04-12T09:11:19.607Z</time></trkpt><trkpt lat="43.7969617" lon="12.2123217"><ele>429.0</ele><time>2026-04-12T09:11:20.607Z</time></trkpt><trkpt lat="43.7971067" lon="12.2125333"><ele>430.0</ele><time>2026-04-12T09:11:21.607Z</time></trkpt><trkpt lat="43.7972367" lon="12.2127483"><ele>431.0</ele><time>2026-04-12T09:11:22.607Z</time></trkpt><trkpt lat="43.7973517" lon="12.21296"><ele>431.0</ele><time>2026-04-12T09:11:23.607Z</time></trkpt><trkpt lat="43.797475" lon="12.2131483"><ele>431.0</ele><time>2026-04-12T09:11:24.607Z</time></trkpt><trkpt lat="43.7975967" lon="12.2133033"><ele>431.0</ele><time>2026-04-12T09:11:25.606Z</time></trkpt><trkpt lat="43.7977283" lon="12.21341"><ele>428.3333333333333</ele><time>2026-04-12T09:11:26.607Z</time></trkpt><trkpt lat="43.79785" lon="12.2135133"><ele>425.66666666666663</ele><time>2026-04-12T09:11:27.607Z</time></trkpt><trkpt lat="43.7979583" lon="12.2136567"><ele>423.0</ele><time>2026-04-12T09:11:28.606Z</time></trkpt><trkpt lat="43.7980433" lon="12.21384"><ele>427.33333333333337</ele><time>2026-04-12T09:11:29.607Z</time></trkpt><trkpt lat="43.7981117" lon="12.2140517"><ele>431.6666666666667</ele><time>2026-04-12T09:11:30.606Z</time></trkpt><trkpt lat="43.798175" lon="12.2142883"><ele>436.0</ele><time>2026-04-12T09:11:31.606Z</time></trkpt><trkpt lat="43.79825" lon="12.21453"><ele>436.0</ele><time>2026-04-12T09:11:32.607Z</time></trkpt><trkpt lat="43.7983467" lon="12.21475"><ele>436.0</ele><time>2026-04-12T09:11:33.606Z</time></trkpt><trkpt lat="43.7984617" lon="12.2149433"><ele>436.0</ele><time>2026-04-12T09:11:34.606Z</time></trkpt><trkpt lat="43.798575" lon="12.215115"><ele>431.5</ele><time>2026-04-12T09:11:35.607Z</time></trkpt><trkpt lat="43.7986817" lon="12.215265"><ele>427.0</ele><time>2026-04-12T09:11:36.606Z</time></trkpt><trkpt lat="43.7987717" lon="12.2154017"><ele>422.5</ele><time>2026-04-12T09:11:37.606Z</time></trkpt><trkpt lat="43.79885" lon="12.215515"><ele>418.0</ele><time>2026-04-12T09:11:38.607Z</time></trkpt><trkpt lat="43.7988933" lon="12.215635"><ele>421.75</ele><time>2026-04-12T09:11:39.607Z</time></trkpt><trkpt lat="43.7988983" lon="12.215795"><ele>425.5</ele><time>2026-04-12T09:11:40.606Z</time></trkpt><trkpt lat="43.7988917" lon="12.21597"><ele>429.25</ele><time>2026-04-12T09:11:41.607Z</time></trkpt><trkpt lat="43.7989" lon="12.2161433"><ele>433.0</ele><time>2026-04-12T09:11:42.607Z</time></trkpt><trkpt lat="43.798945" lon="12.2162967"><ele>433.0</ele><time>2026-04-12T09:11:43.607Z</time></trkpt><trkpt lat="43.7990367" lon="12.21642"><ele>433.0</ele><time>2026-04-12T09:11:44.607Z</time></trkpt><trkpt lat="43.7991683" lon="12.2165017"><ele>433.0</ele><time>2026-04-12T09:11:45.606Z</time></trkpt><trkpt lat="43.7993333" lon="12.2165417"><ele>433.0</ele><time>2026-04-12T09:11:46.606Z</time></trkpt><trkpt lat="43.7995067" lon="12.2165733"><ele>433.33333333333337</ele><time>2026-04-12T09:11:47.606Z</time></trkpt><trkpt lat="43.7996733" lon="12.21662"><ele>433.66666666666663</ele><time>2026-04-12T09:11:48.607Z</time></trkpt><trkpt lat="43.7998367" lon="12.216715"><ele>434.0</ele><time>2026-04-12T09:11:49.606Z</time></trkpt><trkpt lat="43.7999867" lon="12.2168583"><ele>434.0</ele><time>2026-04-12T09:11:50.606Z</time></trkpt><trkpt lat="43.8001183" lon="12.2170517"><ele>434.0</ele><time>2026-04-12T09:11:51.606Z</time></trkpt><trkpt lat="43.800225" lon="12.2172567"><ele>434.0</ele><time>2026-04-12T09:11:52.607Z</time></trkpt><trkpt lat="43.800345" lon="12.2174383"><ele>429.3333333333333</ele><time>2026-04-12T09:11:53.607Z</time></trkpt><trkpt lat="43.8004967" lon="12.2175833"><ele>424.66666666666663</ele><time>2026-04-12T09:11:54.607Z</time></trkpt><trkpt lat="43.8006267" lon="12.217755"><ele>420.0</ele><time>2026-04-12T09:11:55.607Z</time></trkpt><trkpt lat="43.8007467" lon="12.2179217"><ele>420.0</ele><time>2026-04-12T09:11:56.607Z</time></trkpt><trkpt lat="43.800835" lon="12.21809"><ele>420.0</ele><time>2026-04-12T09:11:57.607Z</time></trkpt><trkpt lat="43.8008967" lon="12.2182767"><ele>420.0</ele><time>2026-04-12T09:11:58.606Z</time></trkpt><trkpt lat="43.8009267" lon="12.2184817"><ele>420.0</ele><time>2026-04-12T09:11:59.607Z</time></trkpt><trkpt lat="43.80092" lon="12.2186883"><ele>425.75</ele><time>2026-04-12T09:12:00.607Z</time></trkpt><trkpt lat="43.8008883" lon="12.2188817"><ele>431.5</ele><time>2026-04-12T09:12:01.607Z</time></trkpt><trkpt lat="43.8008583" lon="12.2190533"><ele>437.25</ele><time>2026-04-12T09:12:02.607Z</time></trkpt><trkpt lat="43.8008583" lon="12.21921"><ele>443.0</ele><time>2026-04-12T09:12:03.607Z</time></trkpt><trkpt lat="43.8008983" lon="12.2193517"><ele>444.75</ele><time>2026-04-12T09:12:04.607Z</time></trkpt><trkpt lat="43.8009783" lon="12.219465"><ele>446.5</ele><time>2026-04-12T09:12:05.606Z</time></trkpt><trkpt lat="43.8011017" lon="12.2195217"><ele>448.25</ele><time>2026-04-12T09:12:06.606Z</time></trkpt><trkpt lat="43.8012533" lon="12.2195133"><ele>450.0</ele><time>2026-04-12T09:12:07.606Z</time></trkpt><trkpt lat="43.8014117" lon="12.2195083"><ele>450.0</ele><time>2026-04-12T09:12:08.607Z</time></trkpt><trkpt lat="43.8015517" lon="12.2195617"><ele>450.0</ele><time>2026-04-12T09:12:09.607Z</time></trkpt><trkpt lat="43.8016717" lon="12.2196917"><ele>450.0</ele><time>2026-04-12T09:12:10.607Z</time></trkpt><trkpt lat="43.80177" lon="12.2198767"><ele>431.0</ele><time>2026-04-12T09:12:11.607Z</time></trkpt><trkpt lat="43.80187" lon="12.220085"><ele>412.0</ele><time>2026-04-12T09:12:12.607Z</time></trkpt><trkpt lat="43.8021383" lon="12.2204217"><ele>420.0</ele><time>2026-04-12T09:12:14.48Z</time></trkpt><trkpt lat="43.8022333" lon="12.2208233"><ele>428.0</ele><time>2026-04-12T09:12:15.606Z</time></trkpt><trkpt lat="43.8023217" lon="12.2211367"><ele>437.5</ele><time>2026-04-12T09:12:16.605Z</time></trkpt><trkpt lat="43.8024283" lon="12.22153"><ele>447.0</ele><time>2026-04-12T09:12:18.106Z</time></trkpt><trkpt lat="43.8025017" lon="12.221855"><ele>447.0</ele><time>2026-04-12T09:12:19.606Z</time></trkpt><trkpt lat="43.802565" lon="12.2220533"><ele>447.0</ele><time>2026-04-12T09:12:20.605Z</time></trkpt><trkpt lat="43.8026783" lon="12.2222117"><ele>447.0</ele><time>2026-04-12T09:12:21.606Z</time></trkpt><trkpt lat="43.8028033" lon="12.22237"><ele>440.0</ele><time>2026-04-12T09:12:22.605Z</time></trkpt><trkpt lat="43.802915" lon="12.2225183"><ele>433.0</ele><time>2026-04-12T09:12:23.606Z</time></trkpt><trkpt lat="43.8029983" lon="12.2226583"><ele>426.0</ele><time>2026-04-12T09:12:24.605Z</time></trkpt><trkpt lat="43.8030417" lon="12.2228083"><ele>419.0</ele><time>2026-04-12T09:12:25.606Z</time></trkpt><trkpt lat="43.8030617" lon="12.222985"><ele>420.66666666666663</ele><time>2026-04-12T09:12:26.606Z</time></trkpt><trkpt lat="43.8030567" lon="12.223185"><ele>422.33333333333337</ele><time>2026-04-12T09:12:27.605Z</time></trkpt><trkpt lat="43.8030017" lon="12.223415"><ele>424.0</ele><time>2026-04-12T09:12:28.606Z</time></trkpt><trkpt lat="43.8029283" lon="12.2236483"><ele>424.0</ele><time>2026-04-12T09:12:29.606Z</time></trkpt><trkpt lat="43.8028483" lon="12.2238633"><ele>424.0</ele><time>2026-04-12T09:12:30.605Z</time></trkpt><trkpt lat="43.8027867" lon="12.2240433"><ele>424.0</ele><time>2026-04-12T09:12:31.606Z</time></trkpt><trkpt lat="43.8027533" lon="12.224225"><ele>424.6666666666667</ele><time>2026-04-12T09:12:32.605Z</time></trkpt><trkpt lat="43.80277" lon="12.22443"><ele>425.33333333333337</ele><time>2026-04-12T09:12:33.605Z</time></trkpt><trkpt lat="43.8028417" lon="12.2246517"><ele>426.0</ele><time>2026-04-12T09:12:34.605Z</time></trkpt><trkpt lat="43.80292" lon="12.2248733"><ele>429.75</ele><time>2026-04-12T09:12:35.606Z</time></trkpt><trkpt lat="43.8029783" lon="12.2250583"><ele>433.5</ele><time>2026-04-12T09:12:36.606Z</time></trkpt><trkpt lat="43.8030383" lon="12.22522"><ele>437.25</ele><time>2026-04-12T09:12:37.605Z</time></trkpt><trkpt lat="43.8031133" lon="12.2253517"><ele>441.0</ele><time>2026-04-12T09:12:38.606Z</time></trkpt><trkpt lat="43.80322" lon="12.2254217"><ele>441.0</ele><time>2026-04-12T09:12:39.605Z</time></trkpt><trkpt lat="43.8033683" lon="12.2254133"><ele>441.0</ele><time>2026-04-12T09:12:40.605Z</time></trkpt><trkpt lat="43.8035517" lon="12.2253567"><ele>441.0</ele><time>2026-04-12T09:12:41.606Z</time></trkpt><trkpt lat="43.8037417" lon="12.22528"><ele>442.0</ele><time>2026-04-12T09:12:42.605Z</time></trkpt><trkpt lat="43.8039283" lon="12.2252183"><ele>443.0</ele><time>2026-04-12T09:12:43.606Z</time></trkpt><trkpt lat="43.80409" lon="12.2251483"><ele>444.0</ele><time>2026-04-12T09:12:44.605Z</time></trkpt><trkpt lat="43.8042367" lon="12.2250667"><ele>440.25</ele><time>2026-04-12T09:12:45.605Z</time></trkpt><trkpt lat="43.8043633" lon="12.2249833"><ele>436.5</ele><time>2026-04-12T09:12:46.606Z</time></trkpt><trkpt lat="43.8044817" lon="12.224945"><ele>432.75</ele><time>2026-04-12T09:12:47.606Z</time></trkpt><trkpt lat="43.8045917" lon="12.2249617"><ele>429.0</ele><time>2026-04-12T09:12:48.606Z</time></trkpt><trkpt lat="43.8047033" lon="12.2250417"><ele>429.0</ele><time>2026-04-12T09:12:49.606Z</time></trkpt><trkpt lat="43.8048383" lon="12.225175"><ele>429.0</ele><time>2026-04-12T09:12:50.605Z</time></trkpt><trkpt lat="43.8049733" lon="12.2253233"><ele>429.0</ele><time>2026-04-12T09:12:51.606Z</time></trkpt><trkpt lat="43.8051183" lon="12.2254567"><ele>427.75</ele><time>2026-04-12T09:12:52.606Z</time></trkpt><trkpt lat="43.80525" lon="12.225565"><ele>426.5</ele><time>2026-04-12T09:12:53.606Z</time></trkpt><trkpt lat="43.8053533" lon="12.2256567"><ele>425.25</ele><time>2026-04-12T09:12:54.606Z</time></trkpt><trkpt lat="43.805425" lon="12.2257633"><ele>424.0</ele><time>2026-04-12T09:12:55.606Z</time></trkpt><trkpt lat="43.8054633" lon="12.2259"><ele>424.0</ele><time>2026-04-12T09:12:56.606Z</time></trkpt><trkpt lat="43.8054667" lon="12.2260783"><ele>424.0</ele><time>2026-04-12T09:12:57.606Z</time></trkpt><trkpt lat="43.8054283" lon="12.22628"><ele>424.0</ele><time>2026-04-12T09:12:58.606Z</time></trkpt><trkpt lat="43.8053733" lon="12.226495"><ele>424.0</ele><time>2026-04-12T09:12:59.605Z</time></trkpt><trkpt lat="43.8053167" lon="12.226685"><ele>425.79999999999995</ele><time>2026-04-12T09:13:00.606Z</time></trkpt><trkpt lat="43.8052817" lon="12.2268517"><ele>427.59999999999997</ele><time>2026-04-12T09:13:01.606Z</time></trkpt><trkpt lat="43.805265" lon="12.2269967"><ele>429.4</ele><time>2026-04-12T09:13:02.606Z</time></trkpt><trkpt lat="43.805285" lon="12.22713"><ele>431.2</ele><time>2026-04-12T09:13:03.605Z</time></trkpt><trkpt lat="43.80534" lon="12.2272417"><ele>433.0</ele><time>2026-04-12T09:13:04.606Z</time></trkpt><trkpt lat="43.8054383" lon="12.22729"><ele>433.0</ele><time>2026-04-12T09:13:05.605Z</time></trkpt><trkpt lat="43.8056083" lon="12.2272783"><ele>433.0</ele><time>2026-04-12T09:13:06.606Z</time></trkpt><trkpt lat="43.8058033" lon="12.2272217"><ele>433.0</ele><time>2026-04-12T09:13:07.606Z</time></trkpt><trkpt lat="43.8060333" lon="12.2271233"><ele>431.0</ele><time>2026-04-12T09:13:08.605Z</time></trkpt><trkpt lat="43.80628" lon="12.227"><ele>429.0</ele><time>2026-04-12T09:13:09.606Z</time></trkpt><trkpt lat="43.8065117" lon="12.226865"><ele>429.0</ele><time>2026-04-12T09:13:10.605Z</time></trkpt><trkpt lat="43.8067117" lon="12.226745"><ele>429.0</ele><time>2026-04-12T09:13:11.605Z</time></trkpt><trkpt lat="43.8068917" lon="12.22667"><ele>429.0</ele><time>2026-04-12T09:13:12.605Z</time></trkpt><trkpt lat="43.80706" lon="12.226635"><ele>428.66666666666663</ele><time>2026-04-12T09:13:13.606Z</time></trkpt><trkpt lat="43.8072217" lon="12.2266483"><ele>428.3333333333333</ele><time>2026-04-12T09:13:14.606Z</time></trkpt><trkpt lat="43.807415" lon="12.226725"><ele>428.0</ele><time>2026-04-12T09:13:15.605Z</time></trkpt><trkpt lat="43.8076133" lon="12.2268283"><ele>422.0</ele><time>2026-04-12T09:13:16.605Z</time></trkpt><trkpt lat="43.8078033" lon="12.2269333"><ele>416.0</ele><time>2026-04-12T09:13:17.605Z</time></trkpt><trkpt lat="43.807985" lon="12.227045"><ele>410.0</ele><time>2026-04-12T09:13:18.606Z</time></trkpt><trkpt lat="43.8081583" lon="12.227195"><ele>404.0</ele><time>2026-04-12T09:13:19.605Z</time></trkpt><trkpt lat="43.8083317" lon="12.227385"><ele>398.0</ele><time>2026-04-12T09:13:20.606Z</time></trkpt><trkpt lat="43.8085167" lon="12.22762"><ele>398.0</ele><time>2026-04-12T09:13:21.605Z</time></trkpt><trkpt lat="43.8087033" lon="12.2278867"><ele>398.0</ele><time>2026-04-12T09:13:22.606Z</time></trkpt><trkpt lat="43.80888" lon="12.2281383"><ele>408.0</ele><time>2026-04-12T09:13:23.606Z</time></trkpt><trkpt lat="43.809045" lon="12.22838"><ele>418.0</ele><time>2026-04-12T09:13:24.606Z</time></trkpt><trkpt lat="43.8091867" lon="12.2285967"><ele>418.0</ele><time>2026-04-12T09:13:25.606Z</time></trkpt><trkpt lat="43.80931" lon="12.2287867"><ele>418.0</ele><time>2026-04-12T09:13:26.605Z</time></trkpt><trkpt lat="43.8094183" lon="12.2289583"><ele>418.0</ele><time>2026-04-12T09:13:27.606Z</time></trkpt><trkpt lat="43.809495" lon="12.2291317"><ele>409.6666666666667</ele><time>2026-04-12T09:13:28.606Z</time></trkpt><trkpt lat="43.8095283" lon="12.2293367"><ele>401.33333333333337</ele><time>2026-04-12T09:13:29.606Z</time></trkpt><trkpt lat="43.8095383" lon="12.2295783"><ele>393.0</ele><time>2026-04-12T09:13:30.606Z</time></trkpt><trkpt lat="43.8095167" lon="12.2298333"><ele>392.33333333333337</ele><time>2026-04-12T09:13:31.606Z</time></trkpt><trkpt lat="43.809455" lon="12.230085"><ele>391.6666666666667</ele><time>2026-04-12T09:13:32.606Z</time></trkpt><trkpt lat="43.80936" lon="12.2303467"><ele>391.0</ele><time>2026-04-12T09:13:33.605Z</time></trkpt><trkpt lat="43.809265" lon="12.2306233"><ele>412.0</ele><time>2026-04-12T09:13:34.606Z</time></trkpt><trkpt lat="43.8091917" lon="12.23094"><ele>433.0</ele><time>2026-04-12T09:13:35.606Z</time></trkpt><trkpt lat="43.8091417" lon="12.23129"><ele>427.0</ele><time>2026-04-12T09:13:36.605Z</time></trkpt><trkpt lat="43.8090933" lon="12.23162"><ele>421.0</ele><time>2026-04-12T09:13:37.606Z</time></trkpt><trkpt lat="43.80906" lon="12.23194"><ele>421.0</ele><time>2026-04-12T09:13:38.605Z</time></trkpt><trkpt lat="43.80902" lon="12.232225"><ele>421.0</ele><time>2026-04-12T09:13:39.605Z</time></trkpt><trkpt lat="43.80898" lon="12.2324833"><ele>421.0</ele><time>2026-04-12T09:13:40.606Z</time></trkpt><trkpt lat="43.80897" lon="12.2327383"><ele>420.33333333333337</ele><time>2026-04-12T09:13:41.606Z</time></trkpt><trkpt lat="43.809005" lon="12.2329883"><ele>419.66666666666663</ele><time>2026-04-12T09:13:42.606Z</time></trkpt><trkpt lat="43.8090767" lon="12.2332267"><ele>419.0</ele><time>2026-04-12T09:13:43.606Z</time></trkpt><trkpt lat="43.8091933" lon="12.233435"><ele>419.0</ele><time>2026-04-12T09:13:44.605Z</time></trkpt><trkpt lat="43.8093117" lon="12.2336183"><ele>419.0</ele><time>2026-04-12T09:13:45.606Z</time></trkpt><trkpt lat="43.8094183" lon="12.2338067"><ele>419.0</ele><time>2026-04-12T09:13:46.606Z</time></trkpt><trkpt lat="43.8094817" lon="12.2340133"><ele>412.3333333333333</ele><time>2026-04-12T09:13:47.606Z</time></trkpt><trkpt lat="43.80951" lon="12.2342567"><ele>405.66666666666663</ele><time>2026-04-12T09:13:48.605Z</time></trkpt><trkpt lat="43.80951" lon="12.2345467"><ele>399.0</ele><time>2026-04-12T09:13:49.606Z</time></trkpt><trkpt lat="43.8095067" lon="12.23485"><ele>399.0</ele><time>2026-04-12T09:13:50.606Z</time></trkpt><trkpt lat="43.809505" lon="12.2351483"><ele>399.0</ele><time>2026-04-12T09:13:51.606Z</time></trkpt><trkpt lat="43.8095083" lon="12.2354233"><ele>399.0</ele><time>2026-04-12T09:13:52.606Z</time></trkpt><trkpt lat="43.809505" lon="12.2356783"><ele>398.0</ele><time>2026-04-12T09:13:53.605Z</time></trkpt><trkpt lat="43.8095167" lon="12.2359183"><ele>397.0</ele><time>2026-04-12T09:13:54.605Z</time></trkpt><trkpt lat="43.8095783" lon="12.2361333"><ele>396.0</ele><time>2026-04-12T09:13:55.605Z</time></trkpt><trkpt lat="43.809675" lon="12.23633"><ele>399.0</ele><time>2026-04-12T09:13:56.606Z</time></trkpt><trkpt lat="43.8098067" lon="12.2364867"><ele>402.0</ele><time>2026-04-12T09:13:57.606Z</time></trkpt><trkpt lat="43.8099517" lon="12.23661"><ele>405.0</ele><time>2026-04-12T09:13:58.606Z</time></trkpt><trkpt lat="43.8100967" lon="12.2367167"><ele>401.75</ele><time>2026-04-12T09:13:59.606Z</time></trkpt><trkpt lat="43.8102233" lon="12.2368317"><ele>398.5</ele><time>2026-04-12T09:14:00.606Z</time></trkpt><trkpt lat="43.8103383" lon="12.23697"><ele>395.25</ele><time>2026-04-12T09:14:01.605Z</time></trkpt><trkpt lat="43.8104117" lon="12.2371433"><ele>392.0</ele><time>2026-04-12T09:14:02.606Z</time></trkpt><trkpt lat="43.8104433" lon="12.2373233"><ele>392.0</ele><time>2026-04-12T09:14:03.606Z</time></trkpt><trkpt lat="43.8104167" lon="12.237495"><ele>392.0</ele><time>2026-04-12T09:14:04.606Z</time></trkpt><trkpt lat="43.8103333" lon="12.2376667"><ele>392.0</ele><time>2026-04-12T09:14:05.605Z</time></trkpt><trkpt lat="43.8102" lon="12.237815"><ele>392.0</ele><time>2026-04-12T09:14:06.605Z</time></trkpt><trkpt lat="43.81002" lon="12.2379467"><ele>394.0</ele><time>2026-04-12T09:14:07.606Z</time></trkpt><trkpt lat="43.8098267" lon="12.2380933"><ele>396.0</ele><time>2026-04-12T09:14:08.605Z</time></trkpt><trkpt lat="43.8096533" lon="12.2382417"><ele>398.0</ele><time>2026-04-12T09:14:09.606Z</time></trkpt><trkpt lat="43.8094967" lon="12.2383833"><ele>398.0</ele><time>2026-04-12T09:14:10.606Z</time></trkpt><trkpt lat="43.809355" lon="12.2385333"><ele>398.0</ele><time>2026-04-12T09:14:11.606Z</time></trkpt><trkpt lat="43.809225" lon="12.2387017"><ele>398.0</ele><time>2026-04-12T09:14:12.605Z</time></trkpt><trkpt lat="43.8091083" lon="12.238895"><ele>398.3333333333333</ele><time>2026-04-12T09:14:13.606Z</time></trkpt><trkpt lat="43.809005" lon="12.2391067"><ele>398.66666666666663</ele><time>2026-04-12T09:14:14.606Z</time></trkpt><trkpt lat="43.8089317" lon="12.2393417"><ele>399.0</ele><time>2026-04-12T09:14:15.606Z</time></trkpt><trkpt lat="43.8088883" lon="12.2395933"><ele>397.33333333333337</ele><time>2026-04-12T09:14:16.606Z</time></trkpt><trkpt lat="43.8088667" lon="12.2398517"><ele>395.6666666666667</ele><time>2026-04-12T09:14:17.605Z</time></trkpt><trkpt lat="43.8088717" lon="12.2401067"><ele>394.0</ele><time>2026-04-12T09:14:18.606Z</time></trkpt><trkpt lat="43.8088933" lon="12.2403533"><ele>394.0</ele><time>2026-04-12T09:14:19.606Z</time></trkpt><trkpt lat="43.808955" lon="12.2405983"><ele>394.0</ele><time>2026-04-12T09:14:20.606Z</time></trkpt><trkpt lat="43.809045" lon="12.24083"><ele>394.0</ele><time>2026-04-12T09:14:21.606Z</time></trkpt><trkpt lat="43.8091717" lon="12.2410267"><ele>391.6666666666667</ele><time>2026-04-12T09:14:22.605Z</time></trkpt><trkpt lat="43.80933" lon="12.2411867"><ele>389.33333333333337</ele><time>2026-04-12T09:14:23.606Z</time></trkpt><trkpt lat="43.8095133" lon="12.241325"><ele>387.0</ele><time>2026-04-12T09:14:24.605Z</time></trkpt><trkpt lat="43.80974" lon="12.2414467"><ele>387.0</ele><time>2026-04-12T09:14:25.606Z</time></trkpt><trkpt lat="43.809995" lon="12.2415633"><ele>387.0</ele><time>2026-04-12T09:14:26.605Z</time></trkpt><trkpt lat="43.8102333" lon="12.2416933"><ele>387.0</ele><time>2026-04-12T09:14:27.606Z</time></trkpt><trkpt lat="43.8105083" lon="12.2418117"><ele>387.0</ele><time>2026-04-12T09:14:28.605Z</time></trkpt><trkpt lat="43.8107633" lon="12.241935"><ele>386.5</ele><time>2026-04-12T09:14:29.605Z</time></trkpt><trkpt lat="43.8110067" lon="12.2420433"><ele>386.0</ele><time>2026-04-12T09:14:30.606Z</time></trkpt><trkpt lat="43.811235" lon="12.24214"><ele>386.0</ele><time>2026-04-12T09:14:31.606Z</time></trkpt><trkpt lat="43.8114467" lon="12.2422333"><ele>386.0</ele><time>2026-04-12T09:14:32.605Z</time></trkpt><trkpt lat="43.8116433" lon="12.242315"><ele>386.0</ele><time>2026-04-12T09:14:33.606Z</time></trkpt><trkpt lat="43.811835" lon="12.2423933"><ele>388.3333333333333</ele><time>2026-04-12T09:14:34.605Z</time></trkpt><trkpt lat="43.81203" lon="12.2424383"><ele>390.66666666666663</ele><time>2026-04-12T09:14:35.606Z</time></trkpt><trkpt lat="43.81222" lon="12.242425"><ele>393.0</ele><time>2026-04-12T09:14:36.606Z</time></trkpt><trkpt lat="43.81241" lon="12.2423483"><ele>392.0</ele><time>2026-04-12T09:14:37.606Z</time></trkpt><trkpt lat="43.8125933" lon="12.2422167"><ele>391.0</ele><time>2026-04-12T09:14:38.606Z</time></trkpt><trkpt lat="43.8127667" lon="12.2420767"><ele>390.0</ele><time>2026-04-12T09:14:39.606Z</time></trkpt><trkpt lat="43.8129267" lon="12.2419633"><ele>388.66666666666663</ele><time>2026-04-12T09:14:40.606Z</time></trkpt><trkpt lat="43.8130983" lon="12.2418767"><ele>387.3333333333333</ele><time>2026-04-12T09:14:41.605Z</time></trkpt><trkpt lat="43.81329" lon="12.2418333"><ele>386.0</ele><time>2026-04-12T09:14:42.606Z</time></trkpt><trkpt lat="43.81349" lon="12.2418367"><ele>384.0</ele><time>2026-04-12T09:14:43.606Z</time></trkpt><trkpt lat="43.8136867" lon="12.2419"><ele>382.0</ele><time>2026-04-12T09:14:44.605Z</time></trkpt><trkpt lat="43.8138833" lon="12.2420167"><ele>380.0</ele><time>2026-04-12T09:14:45.606Z</time></trkpt><trkpt lat="43.8140867" lon="12.2421517"><ele>380.0</ele><time>2026-04-12T09:14:46.606Z</time></trkpt><trkpt lat="43.8142933" lon="12.2422867"><ele>380.0</ele><time>2026-04-12T09:14:47.606Z</time></trkpt><trkpt lat="43.81451" lon="12.2424267"><ele>381.0</ele><time>2026-04-12T09:14:48.605Z</time></trkpt><trkpt lat="43.8147333" lon="12.2425617"><ele>382.0</ele><time>2026-04-12T09:14:49.606Z</time></trkpt><trkpt lat="43.8149567" lon="12.2426967"><ele>378.0</ele><time>2026-04-12T09:14:50.606Z</time></trkpt><trkpt lat="43.8151917" lon="12.2428383"><ele>374.0</ele><time>2026-04-12T09:14:51.605Z</time></trkpt><trkpt lat="43.8154217" lon="12.24299"><ele>379.0</ele><time>2026-04-12T09:14:52.605Z</time></trkpt><trkpt lat="43.815645" lon="12.2431317"><ele>384.0</ele><time>2026-04-12T09:14:53.606Z</time></trkpt><trkpt lat="43.8158633" lon="12.2432683"><ele>380.0</ele><time>2026-04-12T09:14:54.606Z</time></trkpt><trkpt lat="43.8160767" lon="12.2434083"><ele>376.0</ele><time>2026-04-12T09:14:55.606Z</time></trkpt><trkpt lat="43.816285" lon="12.2435417"><ele>376.0</ele><time>2026-04-12T09:14:56.606Z</time></trkpt><trkpt lat="43.81649" lon="12.2436717"><ele>376.0</ele><time>2026-04-12T09:14:57.605Z</time></trkpt><trkpt lat="43.816685" lon="12.2437983"><ele>376.0</ele><time>2026-04-12T09:14:58.605Z</time></trkpt><trkpt lat="43.81687" lon="12.2439183"><ele>375.0</ele><time>2026-04-12T09:14:59.606Z</time></trkpt><trkpt lat="43.81705" lon="12.2440383"><ele>374.0</ele><time>2026-04-12T09:15:00.606Z</time></trkpt><trkpt lat="43.8172283" lon="12.2441467"><ele>373.0</ele><time>2026-04-12T09:15:01.605Z</time></trkpt><trkpt lat="43.8174033" lon="12.2442583"><ele>373.0</ele><time>2026-04-12T09:15:02.606Z</time></trkpt><trkpt lat="43.8175783" lon="12.2443617"><ele>373.0</ele><time>2026-04-12T09:15:03.605Z</time></trkpt><trkpt lat="43.8177483" lon="12.2444733"><ele>373.0</ele><time>2026-04-12T09:15:04.605Z</time></trkpt><trkpt lat="43.8179183" lon="12.2445883"><ele>373.0</ele><time>2026-04-12T09:15:05.606Z</time></trkpt><trkpt lat="43.8180883" lon="12.2447117"><ele>373.0</ele><time>2026-04-12T09:15:06.606Z</time></trkpt><trkpt lat="43.8182367" lon="12.2448533"><ele>373.0</ele><time>2026-04-12T09:15:07.605Z</time></trkpt><trkpt lat="43.8183733" lon="12.245"><ele>370.0</ele><time>2026-04-12T09:15:08.606Z</time></trkpt><trkpt lat="43.8184933" lon="12.2451517"><ele>367.0</ele><time>2026-04-12T09:15:09.606Z</time></trkpt><trkpt lat="43.8186017" lon="12.2453017"><ele>364.0</ele><time>2026-04-12T09:15:10.605Z</time></trkpt><trkpt lat="43.8187017" lon="12.2454517"><ele>364.0</ele><time>2026-04-12T09:15:11.606Z</time></trkpt><trkpt lat="43.8187917" lon="12.2455967"><ele>364.0</ele><time>2026-04-12T09:15:12.605Z</time></trkpt><trkpt lat="43.818875" lon="12.2457483"><ele>364.0</ele><time>2026-04-12T09:15:13.606Z</time></trkpt><trkpt lat="43.818955" lon="12.24593"><ele>364.0</ele><time>2026-04-12T09:15:14.606Z</time></trkpt><trkpt lat="43.8190333" lon="12.2461167"><ele>364.66666666666663</ele><time>2026-04-12T09:15:15.606Z</time></trkpt><trkpt lat="43.8191283" lon="12.2463017"><ele>365.3333333333333</ele><time>2026-04-12T09:15:16.606Z</time></trkpt><trkpt lat="43.8192283" lon="12.24649"><ele>366.0</ele><time>2026-04-12T09:15:17.605Z</time></trkpt><trkpt lat="43.8193233" lon="12.2466767"><ele>364.3333333333333</ele><time>2026-04-12T09:15:18.606Z</time></trkpt><trkpt lat="43.8194167" lon="12.2468617"><ele>362.66666666666663</ele><time>2026-04-12T09:15:19.605Z</time></trkpt><trkpt lat="43.819505" lon="12.24703"><ele>361.0</ele><time>2026-04-12T09:15:20.606Z</time></trkpt><trkpt lat="43.8195883" lon="12.2472"><ele>362.0</ele><time>2026-04-12T09:15:21.605Z</time></trkpt><trkpt lat="43.8196667" lon="12.2473617"><ele>363.0</ele><time>2026-04-12T09:15:22.606Z</time></trkpt><trkpt lat="43.81974" lon="12.2475117"><ele>364.0</ele><time>2026-04-12T09:15:23.606Z</time></trkpt><trkpt lat="43.8198083" lon="12.2476533"><ele>365.0</ele><time>2026-04-12T09:15:24.606Z</time></trkpt><trkpt lat="43.8198767" lon="12.24778"><ele>365.0</ele><time>2026-04-12T09:15:25.605Z</time></trkpt><trkpt lat="43.8199433" lon="12.2479017"><ele>365.0</ele><time>2026-04-12T09:15:26.605Z</time></trkpt><trkpt lat="43.8200167" lon="12.2479967"><ele>365.0</ele><time>2026-04-12T09:15:27.605Z</time></trkpt><trkpt lat="43.82008" lon="12.24806"><ele>365.0</ele><time>2026-04-12T09:15:28.606Z</time></trkpt><trkpt lat="43.82015" lon="12.24809"><ele>365.0</ele><time>2026-04-12T09:15:29.606Z</time></trkpt><trkpt lat="43.82022" lon="12.248105"><ele>365.0</ele><time>2026-04-12T09:15:30.606Z</time></trkpt><trkpt lat="43.8202933" lon="12.248095"><ele>364.75</ele><time>2026-04-12T09:15:31.605Z</time></trkpt><trkpt lat="43.8203833" lon="12.2480517"><ele>364.5</ele><time>2026-04-12T09:15:32.606Z</time></trkpt><trkpt lat="43.82051" lon="12.2479783"><ele>364.25</ele><time>2026-04-12T09:15:33.606Z</time></trkpt><trkpt lat="43.8206483" lon="12.2479033"><ele>364.0</ele><time>2026-04-12T09:15:34.606Z</time></trkpt><trkpt lat="43.8207983" lon="12.2478233"><ele>364.0</ele><time>2026-04-12T09:15:35.606Z</time></trkpt><trkpt lat="43.8209483" lon="12.2477233"><ele>364.0</ele><time>2026-04-12T09:15:36.606Z</time></trkpt><trkpt lat="43.8210983" lon="12.2476333"><ele>364.0</ele><time>2026-04-12T09:15:37.605Z</time></trkpt><trkpt lat="43.8212333" lon="12.2475517"><ele>364.75</ele><time>2026-04-12T09:15:38.606Z</time></trkpt><trkpt lat="43.8213717" lon="12.2474883"><ele>365.5</ele><time>2026-04-12T09:15:39.605Z</time></trkpt><trkpt lat="43.8215083" lon="12.24743"><ele>366.25</ele><time>2026-04-12T09:15:40.605Z</time></trkpt><trkpt lat="43.8216483" lon="12.247395"><ele>367.0</ele><time>2026-04-12T09:15:41.605Z</time></trkpt><trkpt lat="43.8218" lon="12.2473717"><ele>365.75</ele><time>2026-04-12T09:15:42.606Z</time></trkpt><trkpt lat="43.8219483" lon="12.2473633"><ele>364.5</ele><time>2026-04-12T09:15:43.606Z</time></trkpt><trkpt lat="43.8220983" lon="12.2473683"><ele>363.25</ele><time>2026-04-12T09:15:44.606Z</time></trkpt><trkpt lat="43.8222467" lon="12.2474017"><ele>362.0</ele><time>2026-04-12T09:15:45.606Z</time></trkpt><trkpt lat="43.8224" lon="12.2474467"><ele>362.0</ele><time>2026-04-12T09:15:46.605Z</time></trkpt><trkpt lat="43.8225533" lon="12.2474867"><ele>362.0</ele><time>2026-04-12T09:15:47.605Z</time></trkpt><trkpt lat="43.8227017" lon="12.24752"><ele>362.0</ele><time>2026-04-12T09:15:48.606Z</time></trkpt><trkpt lat="43.8228383" lon="12.2475467"><ele>362.0</ele><time>2026-04-12T09:15:49.605Z</time></trkpt><trkpt lat="43.8229683" lon="12.2475783"><ele>360.25</ele><time>2026-04-12T09:15:50.606Z</time></trkpt><trkpt lat="43.8230933" lon="12.2476017"><ele>358.5</ele><time>2026-04-12T09:15:51.606Z</time></trkpt><trkpt lat="43.8232183" lon="12.2476317"><ele>356.75</ele><time>2026-04-12T09:15:52.606Z</time></trkpt><trkpt lat="43.8233433" lon="12.2476683"><ele>355.0</ele><time>2026-04-12T09:15:53.606Z</time></trkpt><trkpt lat="43.82348" lon="12.2477067"><ele>354.0</ele><time>2026-04-12T09:15:54.605Z</time></trkpt><trkpt lat="43.8236183" lon="12.2477617"><ele>353.0</ele><time>2026-04-12T09:15:55.605Z</time></trkpt><trkpt lat="43.8237533" lon="12.2478467"><ele>352.0</ele><time>2026-04-12T09:15:56.605Z</time></trkpt><trkpt lat="43.82388" lon="12.2479533"><ele>351.0</ele><time>2026-04-12T09:15:57.605Z</time></trkpt><trkpt lat="43.8240133" lon="12.2480567"><ele>351.6666666666667</ele><time>2026-04-12T09:15:58.606Z</time></trkpt><trkpt lat="43.8241333" lon="12.2481867"><ele>352.33333333333337</ele><time>2026-04-12T09:15:59.606Z</time></trkpt><trkpt lat="43.8242433" lon="12.2483333"><ele>353.0</ele><time>2026-04-12T09:16:00.605Z</time></trkpt><trkpt lat="43.8243433" lon="12.248495"><ele>349.33333333333337</ele><time>2026-04-12T09:16:01.606Z</time></trkpt><trkpt lat="43.824445" lon="12.2486767"><ele>345.6666666666667</ele><time>2026-04-12T09:16:02.606Z</time></trkpt><trkpt lat="43.82456" lon="12.248855"><ele>342.0</ele><time>2026-04-12T09:16:03.606Z</time></trkpt><trkpt lat="43.82467" lon="12.2490517"><ele>342.0</ele><time>2026-04-12T09:16:04.606Z</time></trkpt><trkpt lat="43.8247817" lon="12.24925"><ele>342.0</ele><time>2026-04-12T09:16:05.606Z</time></trkpt><trkpt lat="43.8248867" lon="12.2494483"><ele>342.0</ele><time>2026-04-12T09:16:06.606Z</time></trkpt><trkpt lat="43.8249933" lon="12.2496617"><ele>341.6666666666667</ele><time>2026-04-12T09:16:07.606Z</time></trkpt><trkpt lat="43.825105" lon="12.2498717"><ele>341.33333333333337</ele><time>2026-04-12T09:16:08.606Z</time></trkpt><trkpt lat="43.82522" lon="12.2500817"><ele>341.0</ele><time>2026-04-12T09:16:09.606Z</time></trkpt><trkpt lat="43.825335" lon="12.250295"><ele>338.6666666666667</ele><time>2026-04-12T09:16:10.606Z</time></trkpt><trkpt lat="43.8254417" lon="12.250505"><ele>336.3333333333333</ele><time>2026-04-12T09:16:11.607Z</time></trkpt><trkpt lat="43.825545" lon="12.2507133"><ele>334.0</ele><time>2026-04-12T09:16:12.607Z</time></trkpt><trkpt lat="43.8256483" lon="12.2509167"><ele>334.0</ele><time>2026-04-12T09:16:13.607Z</time></trkpt><trkpt lat="43.8257467" lon="12.2511117"><ele>334.0</ele><time>2026-04-12T09:16:14.606Z</time></trkpt><trkpt lat="43.8258467" lon="12.2513033"><ele>334.0</ele><time>2026-04-12T09:16:15.607Z</time></trkpt><trkpt lat="43.825945" lon="12.251495"><ele>332.3333333333333</ele><time>2026-04-12T09:16:16.606Z</time></trkpt><trkpt lat="43.8260467" lon="12.2516917"><ele>330.6666666666667</ele><time>2026-04-12T09:16:17.607Z</time></trkpt><trkpt lat="43.8261567" lon="12.2519017"><ele>329.0</ele><time>2026-04-12T09:16:18.607Z</time></trkpt><trkpt lat="43.82629" lon="12.2521383"><ele>330.5</ele><time>2026-04-12T09:16:19.607Z</time></trkpt><trkpt lat="43.8264417" lon="12.2524233"><ele>332.0</ele><time>2026-04-12T09:16:20.607Z</time></trkpt><trkpt lat="43.8266033" lon="12.25273"><ele>332.0</ele><time>2026-04-12T09:16:21.607Z</time></trkpt><trkpt lat="43.8267667" lon="12.2530483"><ele>332.0</ele><time>2026-04-12T09:16:22.606Z</time></trkpt><trkpt lat="43.8269367" lon="12.2533733"><ele>331.0</ele><time>2026-04-12T09:16:23.607Z</time></trkpt><trkpt lat="43.827105" lon="12.253695"><ele>330.0</ele><time>2026-04-12T09:16:24.607Z</time></trkpt><trkpt lat="43.827275" lon="12.254025"><ele>330.0</ele><time>2026-04-12T09:16:25.607Z</time></trkpt><trkpt lat="43.827445" lon="12.254355"><ele>330.0</ele><time>2026-04-12T09:16:26.607Z</time></trkpt><trkpt lat="43.8276167" lon="12.254685"><ele>329.5</ele><time>2026-04-12T09:16:27.606Z</time></trkpt><trkpt lat="43.8277833" lon="12.2550133"><ele>329.0</ele><time>2026-04-12T09:16:28.607Z</time></trkpt><trkpt lat="43.8279483" lon="12.2553233"><ele>329.0</ele><time>2026-04-12T09:16:29.607Z</time></trkpt><trkpt lat="43.8281067" lon="12.255615"><ele>329.0</ele><time>2026-04-12T09:16:30.607Z</time></trkpt><trkpt lat="43.828255" lon="12.2558967"><ele>328.0</ele><time>2026-04-12T09:16:31.607Z</time></trkpt><trkpt lat="43.828395" lon="12.2561767"><ele>327.0</ele><time>2026-04-12T09:16:32.607Z</time></trkpt><trkpt lat="43.8285333" lon="12.2564433"><ele>331.0</ele><time>2026-04-12T09:16:33.607Z</time></trkpt><trkpt lat="43.8286783" lon="12.256715"><ele>335.0</ele><time>2026-04-12T09:16:34.607Z</time></trkpt><trkpt lat="43.82883" lon="12.256975"><ele>335.0</ele><time>2026-04-12T09:16:35.607Z</time></trkpt><trkpt lat="43.8289717" lon="12.2572433"><ele>335.0</ele><time>2026-04-12T09:16:36.607Z</time></trkpt><trkpt lat="43.82911" lon="12.2575067"><ele>333.5</ele><time>2026-04-12T09:16:37.607Z</time></trkpt><trkpt lat="43.8292433" lon="12.257765"><ele>332.0</ele><time>2026-04-12T09:16:38.607Z</time></trkpt><trkpt lat="43.82936" lon="12.258025"><ele>333.6666666666667</ele><time>2026-04-12T09:16:39.606Z</time></trkpt><trkpt lat="43.8294633" lon="12.258285"><ele>335.3333333333333</ele><time>2026-04-12T09:16:40.606Z</time></trkpt><trkpt lat="43.82956" lon="12.2585483"><ele>337.0</ele><time>2026-04-12T09:16:41.607Z</time></trkpt><trkpt lat="43.8296417" lon="12.2588317"><ele>337.0</ele><time>2026-04-12T09:16:42.607Z</time></trkpt><trkpt lat="43.82972" lon="12.2591367"><ele>337.0</ele><time>2026-04-12T09:16:43.607Z</time></trkpt><trkpt lat="43.829795" lon="12.2594633"><ele>338.5</ele><time>2026-04-12T09:16:44.606Z</time></trkpt><trkpt lat="43.82986" lon="12.2598117"><ele>340.0</ele><time>2026-04-12T09:16:45.607Z</time></trkpt><trkpt lat="43.829915" lon="12.260145"><ele>340.0</ele><time>2026-04-12T09:16:46.607Z</time></trkpt><trkpt lat="43.8299567" lon="12.26047"><ele>340.0</ele><time>2026-04-12T09:16:47.607Z</time></trkpt><trkpt lat="43.8299767" lon="12.2607683"><ele>341.66666666666663</ele><time>2026-04-12T09:16:48.606Z</time></trkpt><trkpt lat="43.82999" lon="12.2610483"><ele>343.3333333333333</ele><time>2026-04-12T09:16:49.606Z</time></trkpt><trkpt lat="43.8300133" lon="12.26131"><ele>345.0</ele><time>2026-04-12T09:16:50.607Z</time></trkpt><trkpt lat="43.8300533" lon="12.2615617"><ele>344.3333333333333</ele><time>2026-04-12T09:16:51.607Z</time></trkpt><trkpt lat="43.8301217" lon="12.2617917"><ele>343.66666666666663</ele><time>2026-04-12T09:16:52.606Z</time></trkpt><trkpt lat="43.8302133" lon="12.2619967"><ele>343.0</ele><time>2026-04-12T09:16:53.607Z</time></trkpt><trkpt lat="43.8303433" lon="12.2621583"><ele>343.0</ele><time>2026-04-12T09:16:54.607Z</time></trkpt><trkpt lat="43.8304967" lon="12.26226"><ele>343.0</ele><time>2026-04-12T09:16:55.607Z</time></trkpt><trkpt lat="43.8306783" lon="12.2623133"><ele>343.0</ele><time>2026-04-12T09:16:56.607Z</time></trkpt><trkpt lat="43.8308783" lon="12.262305"><ele>346.5</ele><time>2026-04-12T09:16:57.607Z</time></trkpt><trkpt lat="43.8310983" lon="12.2622367"><ele>350.0</ele><time>2026-04-12T09:16:58.607Z</time></trkpt><trkpt lat="43.83133" lon="12.2621333"><ele>350.0</ele><time>2026-04-12T09:16:59.607Z</time></trkpt><trkpt lat="43.8315517" lon="12.262025"><ele>350.0</ele><time>2026-04-12T09:17:00.607Z</time></trkpt><trkpt lat="43.83176" lon="12.261945"><ele>350.6666666666667</ele><time>2026-04-12T09:17:01.607Z</time></trkpt><trkpt lat="43.8319633" lon="12.2618617"><ele>351.3333333333333</ele><time>2026-04-12T09:17:02.606Z</time></trkpt><trkpt lat="43.8321583" lon="12.2618"><ele>352.0</ele><time>2026-04-12T09:17:03.606Z</time></trkpt><trkpt lat="43.8323517" lon="12.2617683"><ele>352.0</ele><time>2026-04-12T09:17:04.606Z</time></trkpt><trkpt lat="43.8325517" lon="12.261775"><ele>352.0</ele><time>2026-04-12T09:17:05.607Z</time></trkpt><trkpt lat="43.832755" lon="12.2617983"><ele>352.0</ele><time>2026-04-12T09:17:06.607Z</time></trkpt><trkpt lat="43.8329667" lon="12.2618317"><ele>352.3333333333333</ele><time>2026-04-12T09:17:07.606Z</time></trkpt><trkpt lat="43.83319" lon="12.2618717"><ele>352.6666666666667</ele><time>2026-04-12T09:17:08.607Z</time></trkpt><trkpt lat="43.8334017" lon="12.2619133"><ele>353.0</ele><time>2026-04-12T09:17:09.607Z</time></trkpt><trkpt lat="43.8336067" lon="12.2619533"><ele>353.0</ele><time>2026-04-12T09:17:10.607Z</time></trkpt><trkpt lat="43.8338133" lon="12.2619867"><ele>353.0</ele><time>2026-04-12T09:17:11.607Z</time></trkpt><trkpt lat="43.8340167" lon="12.26202"><ele>353.0</ele><time>2026-04-12T09:17:12.607Z</time></trkpt><trkpt lat="43.83422" lon="12.2620767"><ele>352.6666666666667</ele><time>2026-04-12T09:17:13.607Z</time></trkpt><trkpt lat="43.8344117" lon="12.2621383"><ele>352.3333333333333</ele><time>2026-04-12T09:17:14.607Z</time></trkpt><trkpt lat="43.8346083" lon="12.2621933"><ele>352.0</ele><time>2026-04-12T09:17:15.607Z</time></trkpt><trkpt lat="43.834815" lon="12.26223"><ele>352.0</ele><time>2026-04-12T09:17:16.607Z</time></trkpt><trkpt lat="43.83503" lon="12.26224"><ele>352.0</ele><time>2026-04-12T09:17:17.607Z</time></trkpt><trkpt lat="43.8352317" lon="12.26221"><ele>352.0</ele><time>2026-04-12T09:17:18.606Z</time></trkpt><trkpt lat="43.835435" lon="12.26216"><ele>352.0</ele><time>2026-04-12T09:17:19.607Z</time></trkpt><trkpt lat="43.8356417" lon="12.262115"><ele>352.0</ele><time>2026-04-12T09:17:20.606Z</time></trkpt><trkpt lat="43.8358383" lon="12.2620833"><ele>352.0</ele><time>2026-04-12T09:17:21.606Z</time></trkpt><trkpt lat="43.8360317" lon="12.262075"><ele>352.0</ele><time>2026-04-12T09:17:22.607Z</time></trkpt><trkpt lat="43.836235" lon="12.2620883"><ele>352.0</ele><time>2026-04-12T09:17:23.607Z</time></trkpt><trkpt lat="43.8364333" lon="12.2621383"><ele>352.0</ele><time>2026-04-12T09:17:24.606Z</time></trkpt><trkpt lat="43.8366383" lon="12.2622083"><ele>352.3333333333333</ele><time>2026-04-12T09:17:25.606Z</time></trkpt><trkpt lat="43.8368367" lon="12.2623133"><ele>352.6666666666667</ele><time>2026-04-12T09:17:26.606Z</time></trkpt><trkpt lat="43.8370467" lon="12.2624317"><ele>353.0</ele><time>2026-04-12T09:17:27.742Z</time></trkpt><trkpt lat="43.8373483" lon="12.2626367"><ele>353.0</ele><time>2026-04-12T09:17:28.913Z</time></trkpt><trkpt lat="43.8375167" lon="12.2628983"><ele>353.0</ele><time>2026-04-12T09:17:30.106Z</time></trkpt><trkpt lat="43.8376533" lon="12.2631083"><ele>353.0</ele><time>2026-04-12T09:17:31.106Z</time></trkpt><trkpt lat="43.837815" lon="12.2633383"><ele>353.0</ele><time>2026-04-12T09:17:32.106Z</time></trkpt><trkpt lat="43.8380683" lon="12.263695"><ele>353.0</ele><time>2026-04-12T09:17:33.605Z</time></trkpt><trkpt lat="43.8382367" lon="12.26394"><ele>353.0</ele><time>2026-04-12T09:17:34.605Z</time></trkpt><trkpt lat="43.8383967" lon="12.2641967"><ele>347.5</ele><time>2026-04-12T09:17:35.605Z</time></trkpt><trkpt lat="43.8385583" lon="12.2644417"><ele>342.0</ele><time>2026-04-12T09:17:36.606Z</time></trkpt><trkpt lat="43.83872" lon="12.2646783"><ele>346.0</ele><time>2026-04-12T09:17:37.606Z</time></trkpt><trkpt lat="43.8388767" lon="12.26492"><ele>350.0</ele><time>2026-04-12T09:17:38.605Z</time></trkpt><trkpt lat="43.8390367" lon="12.265155"><ele>350.0</ele><time>2026-04-12T09:17:39.606Z</time></trkpt><trkpt lat="43.8391933" lon="12.26539"><ele>350.0</ele><time>2026-04-12T09:17:40.606Z</time></trkpt><trkpt lat="43.8393517" lon="12.2656233"><ele>348.33333333333337</ele><time>2026-04-12T09:17:41.605Z</time></trkpt><trkpt lat="43.839505" lon="12.2658483"><ele>346.6666666666667</ele><time>2026-04-12T09:17:42.605Z</time></trkpt><trkpt lat="43.8396517" lon="12.2660667"><ele>345.0</ele><time>2026-04-12T09:17:43.606Z</time></trkpt><trkpt lat="43.8398067" lon="12.266285"><ele>343.0</ele><time>2026-04-12T09:17:44.606Z</time></trkpt><trkpt lat="43.839955" lon="12.2664917"><ele>341.0</ele><time>2026-04-12T09:17:45.606Z</time></trkpt><trkpt lat="43.8400883" lon="12.2666967"><ele>339.0</ele><time>2026-04-12T09:17:46.606Z</time></trkpt><trkpt lat="43.8402217" lon="12.2668867"><ele>339.0</ele><time>2026-04-12T09:17:47.606Z</time></trkpt><trkpt lat="43.8403467" lon="12.2670717"><ele>339.0</ele><time>2026-04-12T09:17:48.606Z</time></trkpt><trkpt lat="43.840465" lon="12.2672733"><ele>339.0</ele><time>2026-04-12T09:17:49.605Z</time></trkpt><trkpt lat="43.8405633" lon="12.267505"><ele>342.0</ele><time>2026-04-12T09:17:50.606Z</time></trkpt><trkpt lat="43.84065" lon="12.2677633"><ele>345.0</ele><time>2026-04-12T09:17:51.605Z</time></trkpt><trkpt lat="43.84073" lon="12.26802"><ele>348.0</ele><time>2026-04-12T09:17:52.606Z</time></trkpt><trkpt lat="43.8408" lon="12.2682483"><ele>347.3333333333333</ele><time>2026-04-12T09:17:53.606Z</time></trkpt><trkpt lat="43.8408833" lon="12.268455"><ele>346.66666666666663</ele><time>2026-04-12T09:17:54.606Z</time></trkpt><trkpt lat="43.8409833" lon="12.2686417"><ele>346.0</ele><time>2026-04-12T09:17:55.606Z</time></trkpt><trkpt lat="43.8411167" lon="12.2687883"><ele>346.0</ele><time>2026-04-12T09:17:56.605Z</time></trkpt><trkpt lat="43.8412767" lon="12.2688983"><ele>346.0</ele><time>2026-04-12T09:17:57.606Z</time></trkpt><trkpt lat="43.841455" lon="12.268945"><ele>346.0</ele><time>2026-04-12T09:17:58.606Z</time></trkpt><trkpt lat="43.8416433" lon="12.2689433"><ele>344.66666666666663</ele><time>2026-04-12T09:17:59.606Z</time></trkpt><trkpt lat="43.8418317" lon="12.268885"><ele>343.3333333333333</ele><time>2026-04-12T09:18:00.606Z</time></trkpt><trkpt lat="43.8420167" lon="12.2688"><ele>342.0</ele><time>2026-04-12T09:18:01.605Z</time></trkpt><trkpt lat="43.84218" lon="12.2687183"><ele>342.0</ele><time>2026-04-12T09:18:02.606Z</time></trkpt><trkpt lat="43.842335" lon="12.26867"><ele>342.0</ele><time>2026-04-12T09:18:03.605Z</time></trkpt><trkpt lat="43.842485" lon="12.26866"><ele>342.0</ele><time>2026-04-12T09:18:04.605Z</time></trkpt><trkpt lat="43.8426267" lon="12.2687"><ele>338.25</ele><time>2026-04-12T09:18:05.606Z</time></trkpt><trkpt lat="43.8427533" lon="12.2688"><ele>334.5</ele><time>2026-04-12T09:18:06.606Z</time></trkpt><trkpt lat="43.8428483" lon="12.2689567"><ele>330.75</ele><time>2026-04-12T09:18:07.605Z</time></trkpt><trkpt lat="43.8429183" lon="12.2691283"><ele>327.0</ele><time>2026-04-12T09:18:08.606Z</time></trkpt><trkpt lat="43.8429567" lon="12.2693267"><ele>327.0</ele><time>2026-04-12T09:18:09.605Z</time></trkpt><trkpt lat="43.8429533" lon="12.2695417"><ele>327.0</ele><time>2026-04-12T09:18:10.606Z</time></trkpt><trkpt lat="43.842915" lon="12.269755"><ele>327.0</ele><time>2026-04-12T09:18:11.605Z</time></trkpt><trkpt lat="43.842835" lon="12.2699667"><ele>328.6666666666667</ele><time>2026-04-12T09:18:12.606Z</time></trkpt><trkpt lat="43.8427367" lon="12.270185"><ele>330.33333333333337</ele><time>2026-04-12T09:18:13.605Z</time></trkpt><trkpt lat="43.84262" lon="12.2704"><ele>332.0</ele><time>2026-04-12T09:18:14.605Z</time></trkpt><trkpt lat="43.8424933" lon="12.2705917"><ele>340.6666666666667</ele><time>2026-04-12T09:18:15.606Z</time></trkpt><trkpt lat="43.8423817" lon="12.2707733"><ele>349.3333333333333</ele><time>2026-04-12T09:18:16.606Z</time></trkpt><trkpt lat="43.8422883" lon="12.2709967"><ele>358.0</ele><time>2026-04-12T09:18:17.606Z</time></trkpt><trkpt lat="43.8422267" lon="12.2712633"><ele>355.0</ele><time>2026-04-12T09:18:18.606Z</time></trkpt><trkpt lat="43.8421867" lon="12.27156"><ele>352.0</ele><time>2026-04-12T09:18:19.606Z</time></trkpt><trkpt lat="43.842155" lon="12.2718783"><ele>349.0</ele><time>2026-04-12T09:18:20.606Z</time></trkpt><trkpt lat="43.84212" lon="12.2721867"><ele>348.3333333333333</ele><time>2026-04-12T09:18:21.606Z</time></trkpt><trkpt lat="43.8420867" lon="12.2724867"><ele>347.6666666666667</ele><time>2026-04-12T09:18:22.605Z</time></trkpt><trkpt lat="43.8420617" lon="12.2727633"><ele>347.0</ele><time>2026-04-12T09:18:23.605Z</time></trkpt><trkpt lat="43.84204" lon="12.2730267"><ele>347.0</ele><time>2026-04-12T09:18:24.606Z</time></trkpt><trkpt lat="43.8420183" lon="12.273275"><ele>347.0</ele><time>2026-04-12T09:18:25.606Z</time></trkpt><trkpt lat="43.842" lon="12.273505"><ele>347.0</ele><time>2026-04-12T09:18:26.606Z</time></trkpt><trkpt lat="43.8420183" lon="12.273725"><ele>348.33333333333337</ele><time>2026-04-12T09:18:27.606Z</time></trkpt><trkpt lat="43.8420817" lon="12.27394"><ele>349.6666666666667</ele><time>2026-04-12T09:18:28.606Z</time></trkpt><trkpt lat="43.84218" lon="12.2741567"><ele>351.0</ele><time>2026-04-12T09:18:29.606Z</time></trkpt><trkpt lat="43.8422917" lon="12.2743817"><ele>351.0</ele><time>2026-04-12T09:18:30.605Z</time></trkpt><trkpt lat="43.8424183" lon="12.2745917"><ele>351.0</ele><time>2026-04-12T09:18:31.606Z</time></trkpt><trkpt lat="43.8425617" lon="12.2747683"><ele>351.0</ele><time>2026-04-12T09:18:32.606Z</time></trkpt><trkpt lat="43.8426917" lon="12.2749383"><ele>351.6666666666667</ele><time>2026-04-12T09:18:33.606Z</time></trkpt><trkpt lat="43.8428117" lon="12.2750967"><ele>352.33333333333337</ele><time>2026-04-12T09:18:34.605Z</time></trkpt><trkpt lat="43.8429333" lon="12.2752533"><ele>353.0</ele><time>2026-04-12T09:18:35.605Z</time></trkpt><trkpt lat="43.8430517" lon="12.2754317"><ele>353.0</ele><time>2026-04-12T09:18:36.606Z</time></trkpt><trkpt lat="43.8431767" lon="12.2756033"><ele>353.0</ele><time>2026-04-12T09:18:37.606Z</time></trkpt><trkpt lat="43.8432967" lon="12.2757717"><ele>353.0</ele><time>2026-04-12T09:18:38.605Z</time></trkpt><trkpt lat="43.8434367" lon="12.2759117"><ele>351.33333333333337</ele><time>2026-04-12T09:18:39.606Z</time></trkpt><trkpt lat="43.8436" lon="12.276025"><ele>349.6666666666667</ele><time>2026-04-12T09:18:40.606Z</time></trkpt><trkpt lat="43.8437833" lon="12.2761117"><ele>348.0</ele><time>2026-04-12T09:18:41.606Z</time></trkpt><trkpt lat="43.8439717" lon="12.2761833"><ele>348.0</ele><time>2026-04-12T09:18:42.605Z</time></trkpt><trkpt lat="43.844145" lon="12.276255"><ele>348.0</ele><time>2026-04-12T09:18:43.606Z</time></trkpt><trkpt lat="43.84431" lon="12.2763233"><ele>348.0</ele><time>2026-04-12T09:18:44.606Z</time></trkpt><trkpt lat="43.8444683" lon="12.276385"><ele>347.3333333333333</ele><time>2026-04-12T09:18:45.605Z</time></trkpt><trkpt lat="43.8446117" lon="12.2764683"><ele>346.66666666666663</ele><time>2026-04-12T09:18:46.605Z</time></trkpt><trkpt lat="43.8447517" lon="12.2765617"><ele>346.0</ele><time>2026-04-12T09:18:47.606Z</time></trkpt><trkpt lat="43.84489" lon="12.2766917"><ele>346.0</ele><time>2026-04-12T09:18:48.606Z</time></trkpt><trkpt lat="43.8450083" lon="12.2768617"><ele>346.0</ele><time>2026-04-12T09:18:49.605Z</time></trkpt><trkpt lat="43.845115" lon="12.2770767"><ele>346.0</ele><time>2026-04-12T09:18:50.606Z</time></trkpt><trkpt lat="43.8452" lon="12.277295"><ele>343.3333333333333</ele><time>2026-04-12T09:18:51.606Z</time></trkpt><trkpt lat="43.8452767" lon="12.2775167"><ele>340.6666666666667</ele><time>2026-04-12T09:18:52.606Z</time></trkpt><trkpt lat="43.845345" lon="12.27773"><ele>338.0</ele><time>2026-04-12T09:18:53.606Z</time></trkpt><trkpt lat="43.8454383" lon="12.2779317"><ele>339.6666666666667</ele><time>2026-04-12T09:18:54.606Z</time></trkpt><trkpt lat="43.8455567" lon="12.2781033"><ele>341.3333333333333</ele><time>2026-04-12T09:18:55.606Z</time></trkpt><trkpt lat="43.845695" lon="12.2782283"><ele>343.0</ele><time>2026-04-12T09:18:56.606Z</time></trkpt><trkpt lat="43.8458633" lon="12.2783033"><ele>343.3333333333333</ele><time>2026-04-12T09:18:57.606Z</time></trkpt><trkpt lat="43.84605" lon="12.2783233"><ele>343.6666666666667</ele><time>2026-04-12T09:18:58.606Z</time></trkpt><trkpt lat="43.8462533" lon="12.2783167"><ele>344.0</ele><time>2026-04-12T09:18:59.606Z</time></trkpt><trkpt lat="43.846485" lon="12.2783017"><ele>344.0</ele><time>2026-04-12T09:19:00.606Z</time></trkpt><trkpt lat="43.8467067" lon="12.2783017"><ele>344.0</ele><time>2026-04-12T09:19:01.606Z</time></trkpt><trkpt lat="43.8469267" lon="12.2782833"><ele>344.0</ele><time>2026-04-12T09:19:02.606Z</time></trkpt><trkpt lat="43.8471317" lon="12.2782533"><ele>344.0</ele><time>2026-04-12T09:19:03.606Z</time></trkpt><trkpt lat="43.847315" lon="12.2781867"><ele>344.0</ele><time>2026-04-12T09:19:04.605Z</time></trkpt><trkpt lat="43.8474933" lon="12.278075"><ele>344.0</ele><time>2026-04-12T09:19:05.606Z</time></trkpt><trkpt lat="43.8476667" lon="12.2779017"><ele>344.0</ele><time>2026-04-12T09:19:06.606Z</time></trkpt><trkpt lat="43.8478217" lon="12.2777067"><ele>344.0</ele><time>2026-04-12T09:19:07.606Z</time></trkpt><trkpt lat="43.8479617" lon="12.2775217"><ele>344.0</ele><time>2026-04-12T09:19:08.605Z</time></trkpt><trkpt lat="43.848105" lon="12.2773567"><ele>339.6666666666667</ele><time>2026-04-12T09:19:09.606Z</time></trkpt><trkpt lat="43.8482567" lon="12.2772167"><ele>335.3333333333333</ele><time>2026-04-12T09:19:10.605Z</time></trkpt><trkpt lat="43.8484183" lon="12.277115"><ele>331.0</ele><time>2026-04-12T09:19:11.605Z</time></trkpt><trkpt lat="43.848605" lon="12.2770483"><ele>330.3333333333333</ele><time>2026-04-12T09:19:12.605Z</time></trkpt><trkpt lat="43.8488133" lon="12.27702"><ele>329.6666666666667</ele><time>2026-04-12T09:19:13.606Z</time></trkpt><trkpt lat="43.8490483" lon="12.277015"><ele>329.0</ele><time>2026-04-12T09:19:14.606Z</time></trkpt><trkpt lat="43.8492833" lon="12.2770167"><ele>331.33333333333337</ele><time>2026-04-12T09:19:15.606Z</time></trkpt><trkpt lat="43.8495067" lon="12.2770217"><ele>333.6666666666667</ele><time>2026-04-12T09:19:16.605Z</time></trkpt><trkpt lat="43.8497183" lon="12.2770383"><ele>336.0</ele><time>2026-04-12T09:19:17.605Z</time></trkpt><trkpt lat="43.8499117" lon="12.2770183"><ele>336.0</ele><time>2026-04-12T09:19:18.605Z</time></trkpt><trkpt lat="43.850105" lon="12.2769717"><ele>336.0</ele><time>2026-04-12T09:19:19.606Z</time></trkpt><trkpt lat="43.8503067" lon="12.2768633"><ele>336.0</ele><time>2026-04-12T09:19:20.606Z</time></trkpt><trkpt lat="43.850505" lon="12.2767067"><ele>336.0</ele><time>2026-04-12T09:19:21.606Z</time></trkpt><trkpt lat="43.8507017" lon="12.2765367"><ele>336.0</ele><time>2026-04-12T09:19:22.606Z</time></trkpt><trkpt lat="43.8508817" lon="12.276395"><ele>336.0</ele><time>2026-04-12T09:19:23.606Z</time></trkpt><trkpt lat="43.85105" lon="12.2762583"><ele>336.0</ele><time>2026-04-12T09:19:24.606Z</time></trkpt><trkpt lat="43.8512067" lon="12.2761333"><ele>336.0</ele><time>2026-04-12T09:19:25.605Z</time></trkpt><trkpt lat="43.8513517" lon="12.2760217"><ele>336.0</ele><time>2026-04-12T09:19:26.606Z</time></trkpt><trkpt lat="43.851495" lon="12.2759283"><ele>336.0</ele><time>2026-04-12T09:19:27.605Z</time></trkpt><trkpt lat="43.8516433" lon="12.2758683"><ele>336.0</ele><time>2026-04-12T09:19:28.606Z</time></trkpt><trkpt lat="43.8517867" lon="12.27585"><ele>336.0</ele><time>2026-04-12T09:19:29.605Z</time></trkpt><trkpt lat="43.8519417" lon="12.275885"><ele>333.0</ele><time>2026-04-12T09:19:30.606Z</time></trkpt><trkpt lat="43.8521217" lon="12.27601"><ele>330.0</ele><time>2026-04-12T09:19:31.606Z</time></trkpt><trkpt lat="43.8523067" lon="12.2761983"><ele>327.0</ele><time>2026-04-12T09:19:32.606Z</time></trkpt><trkpt lat="43.8525033" lon="12.2763867"><ele>327.5</ele><time>2026-04-12T09:19:33.605Z</time></trkpt><trkpt lat="43.8527117" lon="12.2765767"><ele>328.0</ele><time>2026-04-12T09:19:34.605Z</time></trkpt><trkpt lat="43.852915" lon="12.2767683"><ele>328.0</ele><time>2026-04-12T09:19:35.605Z</time></trkpt><trkpt lat="43.8531117" lon="12.276955"><ele>328.0</ele><time>2026-04-12T09:19:36.606Z</time></trkpt><trkpt lat="43.853315" lon="12.2771317"><ele>327.0</ele><time>2026-04-12T09:19:37.606Z</time></trkpt><trkpt lat="43.853515" lon="12.2773083"><ele>326.0</ele><time>2026-04-12T09:19:38.606Z</time></trkpt><trkpt lat="43.8537067" lon="12.2774717"><ele>326.0</ele><time>2026-04-12T09:19:39.605Z</time></trkpt><trkpt lat="43.8538867" lon="12.2776267"><ele>326.0</ele><time>2026-04-12T09:19:40.606Z</time></trkpt><trkpt lat="43.8540483" lon="12.2777617"><ele>326.0</ele><time>2026-04-12T09:19:41.605Z</time></trkpt><trkpt lat="43.854195" lon="12.2778767"><ele>325.25</ele><time>2026-04-12T09:19:42.606Z</time></trkpt><trkpt lat="43.854315" lon="12.2779967"><ele>324.5</ele><time>2026-04-12T09:19:43.606Z</time></trkpt><trkpt lat="43.8544217" lon="12.27813"><ele>323.75</ele><time>2026-04-12T09:19:44.606Z</time></trkpt><trkpt lat="43.8545117" lon="12.2782983"><ele>323.0</ele><time>2026-04-12T09:19:45.606Z</time></trkpt><trkpt lat="43.8545817" lon="12.278495"><ele>323.0</ele><time>2026-04-12T09:19:46.606Z</time></trkpt><trkpt lat="43.854625" lon="12.2787117"><ele>323.0</ele><time>2026-04-12T09:19:47.606Z</time></trkpt><trkpt lat="43.8546383" lon="12.27893"><ele>323.0</ele><time>2026-04-12T09:19:48.605Z</time></trkpt><trkpt lat="43.854655" lon="12.2791217"><ele>323.0</ele><time>2026-04-12T09:19:49.605Z</time></trkpt><trkpt lat="43.8546417" lon="12.2793033"><ele>323.0</ele><time>2026-04-12T09:19:50.606Z</time></trkpt><trkpt lat="43.8545867" lon="12.279485"><ele>323.0</ele><time>2026-04-12T09:19:51.605Z</time></trkpt><trkpt lat="43.85451" lon="12.2796683"><ele>323.0</ele><time>2026-04-12T09:19:52.606Z</time></trkpt><trkpt lat="43.854405" lon="12.2798333"><ele>324.0</ele><time>2026-04-12T09:19:53.606Z</time></trkpt><trkpt lat="43.8542867" lon="12.2799683"><ele>325.0</ele><time>2026-04-12T09:19:54.605Z</time></trkpt><trkpt lat="43.8541767" lon="12.280085"><ele>326.0</ele><time>2026-04-12T09:19:55.605Z</time></trkpt><trkpt lat="43.8540867" lon="12.2802117"><ele>327.0</ele><time>2026-04-12T09:19:56.606Z</time></trkpt><trkpt lat="43.85402" lon="12.2803533"><ele>327.0</ele><time>2026-04-12T09:19:57.605Z</time></trkpt><trkpt lat="43.8539667" lon="12.2805233"><ele>327.0</ele><time>2026-04-12T09:19:58.606Z</time></trkpt><trkpt lat="43.853935" lon="12.2807067"><ele>327.0</ele><time>2026-04-12T09:19:59.606Z</time></trkpt><trkpt lat="43.8539017" lon="12.280915"><ele>327.0</ele><time>2026-04-12T09:20:00.606Z</time></trkpt><trkpt lat="43.853875" lon="12.281125"><ele>325.75</ele><time>2026-04-12T09:20:01.605Z</time></trkpt><trkpt lat="43.85385" lon="12.281325"><ele>324.5</ele><time>2026-04-12T09:20:02.605Z</time></trkpt><trkpt lat="43.8538317" lon="12.2815117"><ele>323.25</ele><time>2026-04-12T09:20:03.605Z</time></trkpt><trkpt lat="43.853835" lon="12.281685"><ele>322.0</ele><time>2026-04-12T09:20:04.606Z</time></trkpt><trkpt lat="43.85387" lon="12.2818583"><ele>322.0</ele><time>2026-04-12T09:20:05.606Z</time></trkpt><trkpt lat="43.8539533" lon="12.2820383"><ele>322.0</ele><time>2026-04-12T09:20:06.606Z</time></trkpt><trkpt lat="43.85405" lon="12.2821917"><ele>322.0</ele><time>2026-04-12T09:20:07.605Z</time></trkpt><trkpt lat="43.8541517" lon="12.2823133"><ele>322.0</ele><time>2026-04-12T09:20:08.605Z</time></trkpt><trkpt lat="43.8542683" lon="12.2823817"><ele>321.3333333333333</ele><time>2026-04-12T09:20:09.606Z</time></trkpt><trkpt lat="43.8544017" lon="12.282395"><ele>320.6666666666667</ele><time>2026-04-12T09:20:10.605Z</time></trkpt><trkpt lat="43.8545517" lon="12.2823417"><ele>320.0</ele><time>2026-04-12T09:20:11.606Z</time></trkpt><trkpt lat="43.8547233" lon="12.28225"><ele>320.0</ele><time>2026-04-12T09:20:12.606Z</time></trkpt><trkpt lat="43.8549" lon="12.2821583"><ele>320.0</ele><time>2026-04-12T09:20:13.605Z</time></trkpt><trkpt lat="43.8550833" lon="12.2820967"><ele>320.0</ele><time>2026-04-12T09:20:14.606Z</time></trkpt><trkpt lat="43.8552583" lon="12.2820633"><ele>323.6666666666667</ele><time>2026-04-12T09:20:15.605Z</time></trkpt><trkpt lat="43.85542" lon="12.2820433"><ele>327.3333333333333</ele><time>2026-04-12T09:20:16.605Z</time></trkpt><trkpt lat="43.8555767" lon="12.28201"><ele>331.0</ele><time>2026-04-12T09:20:17.605Z</time></trkpt><trkpt lat="43.85572" lon="12.2819533"><ele>331.0</ele><time>2026-04-12T09:20:18.606Z</time></trkpt><trkpt lat="43.85584" lon="12.2818533"><ele>331.0</ele><time>2026-04-12T09:20:19.606Z</time></trkpt><trkpt lat="43.855945" lon="12.281715"><ele>331.0</ele><time>2026-04-12T09:20:20.606Z</time></trkpt><trkpt lat="43.8560133" lon="12.2815267"><ele>331.0</ele><time>2026-04-12T09:20:21.605Z</time></trkpt><trkpt lat="43.8560583" lon="12.2813117"><ele>331.0</ele><time>2026-04-12T09:20:22.606Z</time></trkpt><trkpt lat="43.8560983" lon="12.2811183"><ele>331.0</ele><time>2026-04-12T09:20:23.605Z</time></trkpt><trkpt lat="43.8561567" lon="12.2809433"><ele>331.0</ele><time>2026-04-12T09:20:24.606Z</time></trkpt><trkpt lat="43.8562367" lon="12.2808017"><ele>331.0</ele><time>2026-04-12T09:20:25.606Z</time></trkpt><trkpt lat="43.8563583" lon="12.2806833"><ele>331.0</ele><time>2026-04-12T09:20:26.606Z</time></trkpt><trkpt lat="43.85653" lon="12.2806117"><ele>331.0</ele><time>2026-04-12T09:20:27.606Z</time></trkpt><trkpt lat="43.8567433" lon="12.28054"><ele>331.0</ele><time>2026-04-12T09:20:28.606Z</time></trkpt><trkpt lat="43.8569667" lon="12.2804467"><ele>324.5</ele><time>2026-04-12T09:20:29.606Z</time></trkpt><trkpt lat="43.8572067" lon="12.2803467"><ele>318.0</ele><time>2026-04-12T09:20:30.606Z</time></trkpt><trkpt lat="43.8574267" lon="12.28024"><ele>319.0</ele><time>2026-04-12T09:20:31.605Z</time></trkpt><trkpt lat="43.8576383" lon="12.28013"><ele>320.0</ele><time>2026-04-12T09:20:32.606Z</time></trkpt><trkpt lat="43.8578367" lon="12.2800367"><ele>321.0</ele><time>2026-04-12T09:20:33.606Z</time></trkpt><trkpt lat="43.8580267" lon="12.279965"><ele>321.0</ele><time>2026-04-12T09:20:34.606Z</time></trkpt><trkpt lat="43.8582183" lon="12.279935"><ele>321.0</ele><time>2026-04-12T09:20:35.606Z</time></trkpt><trkpt lat="43.8584" lon="12.2799633"><ele>321.0</ele><time>2026-04-12T09:20:36.606Z</time></trkpt><trkpt lat="43.8585733" lon="12.2800667"><ele>321.3333333333333</ele><time>2026-04-12T09:20:37.605Z</time></trkpt><trkpt lat="43.8587367" lon="12.2802133"><ele>321.66666666666663</ele><time>2026-04-12T09:20:38.606Z</time></trkpt><trkpt lat="43.858895" lon="12.2804183"><ele>322.0</ele><time>2026-04-12T09:20:39.606Z</time></trkpt><trkpt lat="43.859035" lon="12.28068"><ele>322.0</ele><time>2026-04-12T09:20:40.606Z</time></trkpt><trkpt lat="43.8591667" lon="12.280965"><ele>322.0</ele><time>2026-04-12T09:20:41.606Z</time></trkpt><trkpt lat="43.8592917" lon="12.281245"><ele>317.5</ele><time>2026-04-12T09:20:42.606Z</time></trkpt><trkpt lat="43.8594217" lon="12.2815"><ele>313.0</ele><time>2026-04-12T09:20:43.606Z</time></trkpt><trkpt lat="43.8595717" lon="12.2817467"><ele>313.0</ele><time>2026-04-12T09:20:44.606Z</time></trkpt><trkpt lat="43.85974" lon="12.2819833"><ele>313.0</ele><time>2026-04-12T09:20:45.605Z</time></trkpt><trkpt lat="43.8599333" lon="12.2821933"><ele>311.5</ele><time>2026-04-12T09:20:46.606Z</time></trkpt><trkpt lat="43.86015" lon="12.2823783"><ele>310.0</ele><time>2026-04-12T09:20:47.606Z</time></trkpt><trkpt lat="43.8603767" lon="12.2825383"><ele>310.0</ele><time>2026-04-12T09:20:48.606Z</time></trkpt><trkpt lat="43.8605883" lon="12.2827017"><ele>310.0</ele><time>2026-04-12T09:20:49.605Z</time></trkpt><trkpt lat="43.8607817" lon="12.282875"><ele>311.0</ele><time>2026-04-12T09:20:50.606Z</time></trkpt><trkpt lat="43.8609667" lon="12.2830533"><ele>312.0</ele><time>2026-04-12T09:20:51.605Z</time></trkpt><trkpt lat="43.86114" lon="12.283225"><ele>313.0</ele><time>2026-04-12T09:20:52.606Z</time></trkpt><trkpt lat="43.86129" lon="12.2833967"><ele>313.0</ele><time>2026-04-12T09:20:53.606Z</time></trkpt><trkpt lat="43.8614367" lon="12.2835483"><ele>313.0</ele><time>2026-04-12T09:20:54.605Z</time></trkpt><trkpt lat="43.8615833" lon="12.28366"><ele>313.0</ele><time>2026-04-12T09:20:55.605Z</time></trkpt><trkpt lat="43.861755" lon="12.2837033"><ele>314.0</ele><time>2026-04-12T09:20:56.606Z</time></trkpt><trkpt lat="43.8619383" lon="12.2836817"><ele>315.0</ele><time>2026-04-12T09:20:57.606Z</time></trkpt><trkpt lat="43.862125" lon="12.2835967"><ele>316.0</ele><time>2026-04-12T09:20:58.605Z</time></trkpt><trkpt lat="43.862295" lon="12.283475"><ele>316.0</ele><time>2026-04-12T09:20:59.606Z</time></trkpt><trkpt lat="43.8624483" lon="12.2833517"><ele>316.0</ele><time>2026-04-12T09:21:00.605Z</time></trkpt><trkpt lat="43.862595" lon="12.2832483"><ele>316.0</ele><time>2026-04-12T09:21:01.605Z</time></trkpt><trkpt lat="43.8627533" lon="12.2831967"><ele>315.66666666666663</ele><time>2026-04-12T09:21:02.605Z</time></trkpt><trkpt lat="43.8629067" lon="12.283175"><ele>315.3333333333333</ele><time>2026-04-12T09:21:03.605Z</time></trkpt><trkpt lat="43.8630533" lon="12.2831817"><ele>315.0</ele><time>2026-04-12T09:21:04.606Z</time></trkpt><trkpt lat="43.8631933" lon="12.2832533"><ele>315.0</ele><time>2026-04-12T09:21:05.606Z</time></trkpt><trkpt lat="43.8633317" lon="12.2833733"><ele>315.0</ele><time>2026-04-12T09:21:06.606Z</time></trkpt><trkpt lat="43.8634567" lon="12.2835183"><ele>315.0</ele><time>2026-04-12T09:21:07.606Z</time></trkpt><trkpt lat="43.8635583" lon="12.2836617"><ele>313.5</ele><time>2026-04-12T09:21:08.605Z</time></trkpt><trkpt lat="43.8636633" lon="12.2837583"><ele>312.0</ele><time>2026-04-12T09:21:09.606Z</time></trkpt><trkpt lat="43.86379" lon="12.283815"><ele>310.5</ele><time>2026-04-12T09:21:10.606Z</time></trkpt><trkpt lat="43.8639267" lon="12.2837983"><ele>309.0</ele><time>2026-04-12T09:21:11.606Z</time></trkpt><trkpt lat="43.8640633" lon="12.28372"><ele>309.0</ele><time>2026-04-12T09:21:12.605Z</time></trkpt><trkpt lat="43.8641683" lon="12.28359"><ele>309.0</ele><time>2026-04-12T09:21:13.605Z</time></trkpt><trkpt lat="43.864275" lon="12.2834717"><ele>309.0</ele><time>2026-04-12T09:21:14.606Z</time></trkpt><trkpt lat="43.8643967" lon="12.283395"><ele>309.0</ele><time>2026-04-12T09:21:15.606Z</time></trkpt><trkpt lat="43.8645317" lon="12.2833767"><ele>305.6666666666667</ele><time>2026-04-12T09:21:16.606Z</time></trkpt><trkpt lat="43.8646817" lon="12.2834417"><ele>302.33333333333337</ele><time>2026-04-12T09:21:17.606Z</time></trkpt><trkpt lat="43.8648333" lon="12.2835533"><ele>299.0</ele><time>2026-04-12T09:21:18.606Z</time></trkpt><trkpt lat="43.86496" lon="12.283675"><ele>299.0</ele><time>2026-04-12T09:21:19.606Z</time></trkpt><trkpt lat="43.8651083" lon="12.2837567"><ele>299.0</ele><time>2026-04-12T09:21:20.605Z</time></trkpt><trkpt lat="43.865265" lon="12.2837883"><ele>299.0</ele><time>2026-04-12T09:21:21.606Z</time></trkpt><trkpt lat="43.8654183" lon="12.2837533"><ele>296.0</ele><time>2026-04-12T09:21:22.606Z</time></trkpt><trkpt lat="43.8655667" lon="12.2836717"><ele>293.0</ele><time>2026-04-12T09:21:23.607Z</time></trkpt><trkpt lat="43.8657167" lon="12.2836133"><ele>290.0</ele><time>2026-04-12T09:21:24.607Z</time></trkpt><trkpt lat="43.8658633" lon="12.2835783"><ele>289.25</ele><time>2026-04-12T09:21:25.606Z</time></trkpt><trkpt lat="43.8660067" lon="12.28359"><ele>288.5</ele><time>2026-04-12T09:21:26.606Z</time></trkpt><trkpt lat="43.866145" lon="12.283655"><ele>287.75</ele><time>2026-04-12T09:21:27.607Z</time></trkpt><trkpt lat="43.8662767" lon="12.2837767"><ele>287.0</ele><time>2026-04-12T09:21:28.607Z</time></trkpt><trkpt lat="43.8663983" lon="12.283945"><ele>287.0</ele><time>2026-04-12T09:21:29.607Z</time></trkpt><trkpt lat="43.8665" lon="12.2841317"><ele>287.0</ele><time>2026-04-12T09:21:30.606Z</time></trkpt><trkpt lat="43.8665967" lon="12.2843067"><ele>287.0</ele><time>2026-04-12T09:21:31.607Z</time></trkpt><trkpt lat="43.8666933" lon="12.2844683"><ele>286.33333333333337</ele><time>2026-04-12T09:21:32.607Z</time></trkpt><trkpt lat="43.8667967" lon="12.2846183"><ele>285.6666666666667</ele><time>2026-04-12T09:21:33.607Z</time></trkpt><trkpt lat="43.8668983" lon="12.2847817"><ele>285.0</ele><time>2026-04-12T09:21:34.607Z</time></trkpt><trkpt lat="43.867" lon="12.28493"><ele>285.0</ele><time>2026-04-12T09:21:35.606Z</time></trkpt><trkpt lat="43.867105" lon="12.285065"><ele>285.0</ele><time>2026-04-12T09:21:36.607Z</time></trkpt><trkpt lat="43.8672133" lon="12.2851833"><ele>285.0</ele><time>2026-04-12T09:21:37.607Z</time></trkpt><trkpt lat="43.8673367" lon="12.2852333"><ele>285.0</ele><time>2026-04-12T09:21:38.606Z</time></trkpt><trkpt lat="43.8674767" lon="12.2852083"><ele>282.3333333333333</ele><time>2026-04-12T09:21:39.607Z</time></trkpt><trkpt lat="43.8676233" lon="12.2851283"><ele>279.66666666666663</ele><time>2026-04-12T09:21:40.607Z</time></trkpt><trkpt lat="43.8677883" lon="12.284995"><ele>277.0</ele><time>2026-04-12T09:21:41.607Z</time></trkpt><trkpt lat="43.8679817" lon="12.28484"><ele>278.0</ele><time>2026-04-12T09:21:42.607Z</time></trkpt><trkpt lat="43.8681983" lon="12.2846983"><ele>279.0</ele><time>2026-04-12T09:21:43.607Z</time></trkpt><trkpt lat="43.8684067" lon="12.2845667"><ele>281.3333333333333</ele><time>2026-04-12T09:21:44.607Z</time></trkpt><trkpt lat="43.8685967" lon="12.284445"><ele>283.66666666666663</ele><time>2026-04-12T09:21:45.607Z</time></trkpt><trkpt lat="43.8687717" lon="12.284325"><ele>286.0</ele><time>2026-04-12T09:21:46.607Z</time></trkpt><trkpt lat="43.8689383" lon="12.28423"><ele>286.0</ele><time>2026-04-12T09:21:47.607Z</time></trkpt><trkpt lat="43.869105" lon="12.2841733"><ele>286.0</ele><time>2026-04-12T09:21:48.606Z</time></trkpt><trkpt lat="43.86928" lon="12.2841317"><ele>286.0</ele><time>2026-04-12T09:21:49.607Z</time></trkpt><trkpt lat="43.8694783" lon="12.2841133"><ele>286.5</ele><time>2026-04-12T09:21:50.606Z</time></trkpt><trkpt lat="43.8697133" lon="12.284105"><ele>287.0</ele><time>2026-04-12T09:21:51.606Z</time></trkpt><trkpt lat="43.8699517" lon="12.2840967"><ele>286.0</ele><time>2026-04-12T09:21:52.607Z</time></trkpt><trkpt lat="43.87018" lon="12.2841"><ele>285.0</ele><time>2026-04-12T09:21:53.607Z</time></trkpt><trkpt lat="43.8703983" lon="12.284095"><ele>284.0</ele><time>2026-04-12T09:21:54.607Z</time></trkpt><trkpt lat="43.8706133" lon="12.2840567"><ele>284.0</ele><time>2026-04-12T09:21:55.607Z</time></trkpt><trkpt lat="43.8708183" lon="12.2840017"><ele>284.0</ele><time>2026-04-12T09:21:56.606Z</time></trkpt><trkpt lat="43.8710167" lon="12.2839367"><ele>284.0</ele><time>2026-04-12T09:21:57.606Z</time></trkpt><trkpt lat="43.8712183" lon="12.283875"><ele>286.0</ele><time>2026-04-12T09:21:58.606Z</time></trkpt><trkpt lat="43.87142" lon="12.28382"><ele>288.0</ele><time>2026-04-12T09:21:59.606Z</time></trkpt><trkpt lat="43.8716183" lon="12.2837567"><ele>290.0</ele><time>2026-04-12T09:22:00.607Z</time></trkpt><trkpt lat="43.871815" lon="12.28368"><ele>290.0</ele><time>2026-04-12T09:22:01.607Z</time></trkpt><trkpt lat="43.8720383" lon="12.28359"><ele>290.0</ele><time>2026-04-12T09:22:02.607Z</time></trkpt><trkpt lat="43.8722717" lon="12.2834967"><ele>290.0</ele><time>2026-04-12T09:22:03.607Z</time></trkpt><trkpt lat="43.8724967" lon="12.28342"><ele>290.0</ele><time>2026-04-12T09:22:04.607Z</time></trkpt><trkpt lat="43.8727133" lon="12.2833417"><ele>290.0</ele><time>2026-04-12T09:22:05.607Z</time></trkpt><trkpt lat="43.87292" lon="12.2832433"><ele>290.0</ele><time>2026-04-12T09:22:06.607Z</time></trkpt><trkpt lat="43.87312" lon="12.28312"><ele>290.0</ele><time>2026-04-12T09:22:07.606Z</time></trkpt><trkpt lat="43.8733167" lon="12.2829733"><ele>293.6666666666667</ele><time>2026-04-12T09:22:08.607Z</time></trkpt><trkpt lat="43.873495" lon="12.2828267"><ele>297.3333333333333</ele><time>2026-04-12T09:22:09.607Z</time></trkpt><trkpt lat="43.87368" lon="12.2827183"><ele>301.0</ele><time>2026-04-12T09:22:10.607Z</time></trkpt><trkpt lat="43.8738683" lon="12.2826417"><ele>301.0</ele><time>2026-04-12T09:22:11.607Z</time></trkpt><trkpt lat="43.8740533" lon="12.2825967"><ele>301.0</ele><time>2026-04-12T09:22:12.607Z</time></trkpt><trkpt lat="43.8742383" lon="12.2825833"><ele>301.0</ele><time>2026-04-12T09:22:13.607Z</time></trkpt><trkpt lat="43.8744333" lon="12.2825767"><ele>303.0</ele><time>2026-04-12T09:22:14.607Z</time></trkpt><trkpt lat="43.8746183" lon="12.2825617"><ele>305.0</ele><time>2026-04-12T09:22:15.606Z</time></trkpt><trkpt lat="43.87478" lon="12.2825567"><ele>307.0</ele><time>2026-04-12T09:22:16.606Z</time></trkpt><trkpt lat="43.8749283" lon="12.28256"><ele>307.0</ele><time>2026-04-12T09:22:17.607Z</time></trkpt><trkpt lat="43.8750583" lon="12.2825933"><ele>307.0</ele><time>2026-04-12T09:22:18.607Z</time></trkpt><trkpt lat="43.8751867" lon="12.2826683"><ele>307.0</ele><time>2026-04-12T09:22:19.607Z</time></trkpt><trkpt lat="43.8753183" lon="12.2827833"><ele>307.0</ele><time>2026-04-12T09:22:20.607Z</time></trkpt><trkpt lat="43.8754283" lon="12.2829183"><ele>306.75</ele><time>2026-04-12T09:22:21.607Z</time></trkpt><trkpt lat="43.8755317" lon="12.2830417"><ele>306.5</ele><time>2026-04-12T09:22:22.606Z</time></trkpt><trkpt lat="43.87563" lon="12.2831217"><ele>306.25</ele><time>2026-04-12T09:22:23.607Z</time></trkpt><trkpt lat="43.8757433" lon="12.2831367"><ele>306.0</ele><time>2026-04-12T09:22:24.607Z</time></trkpt><trkpt lat="43.8758567" lon="12.283065"><ele>304.6666666666667</ele><time>2026-04-12T09:22:25.607Z</time></trkpt><trkpt lat="43.875965" lon="12.282925"><ele>303.33333333333337</ele><time>2026-04-12T09:22:26.606Z</time></trkpt><trkpt lat="43.8760467" lon="12.2827283"><ele>302.0</ele><time>2026-04-12T09:22:27.607Z</time></trkpt><trkpt lat="43.8761117" lon="12.282505"><ele>302.0</ele><time>2026-04-12T09:22:28.606Z</time></trkpt><trkpt lat="43.876195" lon="12.282275"><ele>302.0</ele><time>2026-04-12T09:22:29.607Z</time></trkpt><trkpt lat="43.8763117" lon="12.2820733"><ele>302.0</ele><time>2026-04-12T09:22:30.607Z</time></trkpt><trkpt lat="43.8764533" lon="12.281895"><ele>302.33333333333337</ele><time>2026-04-12T09:22:31.606Z</time></trkpt><trkpt lat="43.8765967" lon="12.2817517"><ele>302.6666666666667</ele><time>2026-04-12T09:22:32.607Z</time></trkpt><trkpt lat="43.8767233" lon="12.2816267"><ele>303.0</ele><time>2026-04-12T09:22:33.607Z</time></trkpt><trkpt lat="43.8768317" lon="12.2815"><ele>303.75</ele><time>2026-04-12T09:22:34.606Z</time></trkpt><trkpt lat="43.8769117" lon="12.281335"><ele>304.5</ele><time>2026-04-12T09:22:35.607Z</time></trkpt><trkpt lat="43.8769467" lon="12.2811283"><ele>305.25</ele><time>2026-04-12T09:22:36.606Z</time></trkpt><trkpt lat="43.8769583" lon="12.28092"><ele>306.0</ele><time>2026-04-12T09:22:37.607Z</time></trkpt><trkpt lat="43.8769933" lon="12.2807267"><ele>309.0</ele><time>2026-04-12T09:22:38.606Z</time></trkpt><trkpt lat="43.8770783" lon="12.2805733"><ele>312.0</ele><time>2026-04-12T09:22:39.606Z</time></trkpt><trkpt lat="43.8772067" lon="12.2804633"><ele>315.0</ele><time>2026-04-12T09:22:40.607Z</time></trkpt><trkpt lat="43.877355" lon="12.28041"><ele>318.0</ele><time>2026-04-12T09:22:41.607Z</time></trkpt><trkpt lat="43.87751" lon="12.2804083"><ele>317.3333333333333</ele><time>2026-04-12T09:22:42.607Z</time></trkpt><trkpt lat="43.8776683" lon="12.2804517"><ele>316.66666666666663</ele><time>2026-04-12T09:22:43.607Z</time></trkpt><trkpt lat="43.8778383" lon="12.2805283"><ele>316.0</ele><time>2026-04-12T09:22:44.607Z</time></trkpt><trkpt lat="43.878015" lon="12.2806517"><ele>316.0</ele><time>2026-04-12T09:22:45.607Z</time></trkpt><trkpt lat="43.8782" lon="12.280785"><ele>316.0</ele><time>2026-04-12T09:22:46.606Z</time></trkpt><trkpt lat="43.8783917" lon="12.2809233"><ele>316.0</ele><time>2026-04-12T09:22:47.606Z</time></trkpt><trkpt lat="43.8785883" lon="12.2810683"><ele>324.5</ele><time>2026-04-12T09:22:48.607Z</time></trkpt><trkpt lat="43.8788017" lon="12.2811917"><ele>333.0</ele><time>2026-04-12T09:22:49.606Z</time></trkpt><trkpt lat="43.87903" lon="12.2812967"><ele>338.0</ele><time>2026-04-12T09:22:50.607Z</time></trkpt><trkpt lat="43.87927" lon="12.281395"><ele>343.0</ele><time>2026-04-12T09:22:51.607Z</time></trkpt><trkpt lat="43.8795067" lon="12.28149"><ele>341.66666666666663</ele><time>2026-04-12T09:22:52.606Z</time></trkpt><trkpt lat="43.87972" lon="12.281585"><ele>340.3333333333333</ele><time>2026-04-12T09:22:53.607Z</time></trkpt><trkpt lat="43.8799317" lon="12.28167"><ele>339.0</ele><time>2026-04-12T09:22:54.607Z</time></trkpt><trkpt lat="43.880135" lon="12.28177"><ele>339.0</ele><time>2026-04-12T09:22:55.607Z</time></trkpt><trkpt lat="43.88033" lon="12.2818817"><ele>339.0</ele><time>2026-04-12T09:22:56.607Z</time></trkpt><trkpt lat="43.8805" lon="12.2820083"><ele>339.0</ele><time>2026-04-12T09:22:57.607Z</time></trkpt><trkpt lat="43.8806433" lon="12.2821783"><ele>338.3333333333333</ele><time>2026-04-12T09:22:58.607Z</time></trkpt><trkpt lat="43.8807833" lon="12.28238"><ele>337.66666666666663</ele><time>2026-04-12T09:22:59.607Z</time></trkpt><trkpt lat="43.8809283" lon="12.2826"><ele>337.0</ele><time>2026-04-12T09:23:00.607Z</time></trkpt><trkpt lat="43.8810667" lon="12.2828233"><ele>337.0</ele><time>2026-04-12T09:23:01.606Z</time></trkpt><trkpt lat="43.8811933" lon="12.283035"><ele>337.0</ele><time>2026-04-12T09:23:02.607Z</time></trkpt><trkpt lat="43.8813133" lon="12.2832283"><ele>337.0</ele><time>2026-04-12T09:23:03.607Z</time></trkpt><trkpt lat="43.8814233" lon="12.2834017"><ele>335.25</ele><time>2026-04-12T09:23:04.606Z</time></trkpt><trkpt lat="43.881525" lon="12.28356"><ele>333.5</ele><time>2026-04-12T09:23:05.606Z</time></trkpt><trkpt lat="43.8816333" lon="12.2837033"><ele>331.75</ele><time>2026-04-12T09:23:06.606Z</time></trkpt><trkpt lat="43.8817583" lon="12.2837983"><ele>330.0</ele><time>2026-04-12T09:23:07.607Z</time></trkpt><trkpt lat="43.881905" lon="12.28386"><ele>330.0</ele><time>2026-04-12T09:23:08.606Z</time></trkpt><trkpt lat="43.8820717" lon="12.2839"><ele>330.0</ele><time>2026-04-12T09:23:09.606Z</time></trkpt><trkpt lat="43.882255" lon="12.28392"><ele>330.0</ele><time>2026-04-12T09:23:10.607Z</time></trkpt><trkpt lat="43.8824433" lon="12.2839217"><ele>326.3333333333333</ele><time>2026-04-12T09:23:11.607Z</time></trkpt><trkpt lat="43.882645" lon="12.28387"><ele>322.66666666666663</ele><time>2026-04-12T09:23:12.606Z</time></trkpt><trkpt lat="43.88285" lon="12.2837467"><ele>319.0</ele><time>2026-04-12T09:23:13.607Z</time></trkpt><trkpt lat="43.883035" lon="12.2836"><ele>319.0</ele><time>2026-04-12T09:23:14.607Z</time></trkpt><trkpt lat="43.8832083" lon="12.283455"><ele>319.0</ele><time>2026-04-12T09:23:15.607Z</time></trkpt><trkpt lat="43.88338" lon="12.2833117"><ele>319.0</ele><time>2026-04-12T09:23:16.607Z</time></trkpt><trkpt lat="43.88355" lon="12.2831917"><ele>316.3333333333333</ele><time>2026-04-12T09:23:17.607Z</time></trkpt><trkpt lat="43.88372" lon="12.2831117"><ele>313.6666666666667</ele><time>2026-04-12T09:23:18.607Z</time></trkpt><trkpt lat="43.8839017" lon="12.28311"><ele>311.0</ele><time>2026-04-12T09:23:19.607Z</time></trkpt><trkpt lat="43.8840983" lon="12.283145"><ele>311.33333333333337</ele><time>2026-04-12T09:23:20.607Z</time></trkpt><trkpt lat="43.8842983" lon="12.2832183"><ele>311.6666666666667</ele><time>2026-04-12T09:23:21.607Z</time></trkpt><trkpt lat="43.8844783" lon="12.2832967"><ele>312.0</ele><time>2026-04-12T09:23:22.607Z</time></trkpt><trkpt lat="43.8846467" lon="12.283405"><ele>312.0</ele><time>2026-04-12T09:23:23.607Z</time></trkpt><trkpt lat="43.8847933" lon="12.2835417"><ele>312.0</ele><time>2026-04-12T09:23:24.606Z</time></trkpt><trkpt lat="43.8849117" lon="12.2837183"><ele>312.0</ele><time>2026-04-12T09:23:25.606Z</time></trkpt><trkpt lat="43.8850017" lon="12.2839133"><ele>309.25</ele><time>2026-04-12T09:23:26.607Z</time></trkpt><trkpt lat="43.885065" lon="12.2841133"><ele>306.5</ele><time>2026-04-12T09:23:27.606Z</time></trkpt><trkpt lat="43.88512" lon="12.2842967"><ele>303.75</ele><time>2026-04-12T09:23:28.606Z</time></trkpt><trkpt lat="43.8851867" lon="12.284435"><ele>301.0</ele><time>2026-04-12T09:23:29.606Z</time></trkpt><trkpt lat="43.8852833" lon="12.2845367"><ele>301.0</ele><time>2026-04-12T09:23:30.607Z</time></trkpt><trkpt lat="43.8854167" lon="12.2845933"><ele>301.0</ele><time>2026-04-12T09:23:31.607Z</time></trkpt><trkpt lat="43.88557" lon="12.284615"><ele>301.0</ele><time>2026-04-12T09:23:32.607Z</time></trkpt><trkpt lat="43.8857133" lon="12.2846383"><ele>301.0</ele><time>2026-04-12T09:23:33.607Z</time></trkpt><trkpt lat="43.8858633" lon="12.2846583"><ele>300.66666666666663</ele><time>2026-04-12T09:23:34.606Z</time></trkpt><trkpt lat="43.8860067" lon="12.2847317"><ele>300.3333333333333</ele><time>2026-04-12T09:23:35.607Z</time></trkpt><trkpt lat="43.8861433" lon="12.284865"><ele>300.0</ele><time>2026-04-12T09:23:36.607Z</time></trkpt><trkpt lat="43.8862683" lon="12.2850367"><ele>297.6666666666667</ele><time>2026-04-12T09:23:37.607Z</time></trkpt><trkpt lat="43.8863867" lon="12.2851967"><ele>295.33333333333337</ele><time>2026-04-12T09:23:38.606Z</time></trkpt><trkpt lat="43.886505" lon="12.2853417"><ele>293.0</ele><time>2026-04-12T09:23:39.606Z</time></trkpt><trkpt lat="43.88663" lon="12.2854567"><ele>292.6666666666667</ele><time>2026-04-12T09:23:40.606Z</time></trkpt><trkpt lat="43.8867867" lon="12.2855133"><ele>292.3333333333333</ele><time>2026-04-12T09:23:41.607Z</time></trkpt><trkpt lat="43.88696" lon="12.2855133"><ele>292.0</ele><time>2026-04-12T09:23:42.606Z</time></trkpt><trkpt lat="43.88712" lon="12.2854683"><ele>292.0</ele><time>2026-04-12T09:23:43.606Z</time></trkpt><trkpt lat="43.88727" lon="12.2854433"><ele>292.0</ele><time>2026-04-12T09:23:44.607Z</time></trkpt><trkpt lat="43.8874017" lon="12.285465"><ele>292.0</ele><time>2026-04-12T09:23:45.607Z</time></trkpt><trkpt lat="43.8875283" lon="12.285525"><ele>292.0</ele><time>2026-04-12T09:23:46.607Z</time></trkpt><trkpt lat="43.887655" lon="12.2856433"><ele>290.3333333333333</ele><time>2026-04-12T09:23:47.607Z</time></trkpt><trkpt lat="43.8877883" lon="12.2857933"><ele>288.6666666666667</ele><time>2026-04-12T09:23:48.607Z</time></trkpt><trkpt lat="43.887905" lon="12.28596"><ele>287.0</ele><time>2026-04-12T09:23:49.607Z</time></trkpt><trkpt lat="43.8880183" lon="12.2861017"><ele>287.0</ele><time>2026-04-12T09:23:50.607Z</time></trkpt><trkpt lat="43.88812" lon="12.2862367"><ele>287.0</ele><time>2026-04-12T09:23:51.607Z</time></trkpt><trkpt lat="43.8882067" lon="12.286375"><ele>287.0</ele><time>2026-04-12T09:23:52.607Z</time></trkpt><trkpt lat="43.8882683" lon="12.2865267"><ele>287.0</ele><time>2026-04-12T09:23:53.607Z</time></trkpt><trkpt lat="43.8883033" lon="12.28668"><ele>286.75</ele><time>2026-04-12T09:23:54.606Z</time></trkpt><trkpt lat="43.8883167" lon="12.2868367"><ele>286.5</ele><time>2026-04-12T09:23:55.607Z</time></trkpt><trkpt lat="43.8883267" lon="12.287"><ele>286.25</ele><time>2026-04-12T09:23:56.607Z</time></trkpt><trkpt lat="43.8883733" lon="12.2871933"><ele>286.0</ele><time>2026-04-12T09:23:57.606Z</time></trkpt><trkpt lat="43.8884267" lon="12.2873833"><ele>287.66666666666663</ele><time>2026-04-12T09:23:58.606Z</time></trkpt><trkpt lat="43.8884917" lon="12.287565"><ele>289.3333333333333</ele><time>2026-04-12T09:23:59.606Z</time></trkpt><trkpt lat="43.8885733" lon="12.2877433"><ele>291.0</ele><time>2026-04-12T09:24:00.606Z</time></trkpt><trkpt lat="43.88869" lon="12.28788"><ele>291.0</ele><time>2026-04-12T09:24:01.606Z</time></trkpt><trkpt lat="43.8888317" lon="12.2879883"><ele>291.0</ele><time>2026-04-12T09:24:02.607Z</time></trkpt><trkpt lat="43.888995" lon="12.2880717"><ele>291.0</ele><time>2026-04-12T09:24:03.607Z</time></trkpt><trkpt lat="43.8891567" lon="12.288135"><ele>290.6666666666667</ele><time>2026-04-12T09:24:04.607Z</time></trkpt><trkpt lat="43.88931" lon="12.2881933"><ele>290.33333333333337</ele><time>2026-04-12T09:24:05.607Z</time></trkpt><trkpt lat="43.88946" lon="12.2882417"><ele>290.0</ele><time>2026-04-12T09:24:06.607Z</time></trkpt><trkpt lat="43.8896017" lon="12.2882933"><ele>290.0</ele><time>2026-04-12T09:24:07.607Z</time></trkpt><trkpt lat="43.8897433" lon="12.288345"><ele>290.0</ele><time>2026-04-12T09:24:08.607Z</time></trkpt><trkpt lat="43.8898833" lon="12.2883983"><ele>290.0</ele><time>2026-04-12T09:24:09.607Z</time></trkpt><trkpt lat="43.8900217" lon="12.2884417"><ele>290.0</ele><time>2026-04-12T09:24:10.607Z</time></trkpt><trkpt lat="43.8901583" lon="12.2884967"><ele>291.25</ele><time>2026-04-12T09:24:11.607Z</time></trkpt><trkpt lat="43.8902983" lon="12.28854"><ele>292.5</ele><time>2026-04-12T09:24:12.607Z</time></trkpt><trkpt lat="43.89043" lon="12.2885917"><ele>293.75</ele><time>2026-04-12T09:24:13.606Z</time></trkpt><trkpt lat="43.89057" lon="12.2886533"><ele>295.0</ele><time>2026-04-12T09:24:14.607Z</time></trkpt><trkpt lat="43.890715" lon="12.28871"><ele>295.0</ele><time>2026-04-12T09:24:15.607Z</time></trkpt><trkpt lat="43.8908583" lon="12.2887617"><ele>295.0</ele><time>2026-04-12T09:24:16.606Z</time></trkpt><trkpt lat="43.8910017" lon="12.2888067"><ele>295.0</ele><time>2026-04-12T09:24:17.607Z</time></trkpt><trkpt lat="43.8911383" lon="12.2888583"><ele>295.0</ele><time>2026-04-12T09:24:18.606Z</time></trkpt><trkpt lat="43.8912733" lon="12.28891"><ele>294.5</ele><time>2026-04-12T09:24:19.607Z</time></trkpt><trkpt lat="43.8914167" lon="12.2889517"><ele>294.0</ele><time>2026-04-12T09:24:20.607Z</time></trkpt><trkpt lat="43.8915567" lon="12.2890017"><ele>293.5</ele><time>2026-04-12T09:24:21.607Z</time></trkpt><trkpt lat="43.89169" lon="12.2890517"><ele>293.0</ele><time>2026-04-12T09:24:22.607Z</time></trkpt><trkpt lat="43.8918083" lon="12.2890983"><ele>293.0</ele><time>2026-04-12T09:24:23.607Z</time></trkpt><trkpt lat="43.8919267" lon="12.28914"><ele>293.0</ele><time>2026-04-12T09:24:24.607Z</time></trkpt><trkpt lat="43.8920417" lon="12.2891783"><ele>293.0</ele><time>2026-04-12T09:24:25.607Z</time></trkpt><trkpt lat="43.8921483" lon="12.2892233"><ele>293.0</ele><time>2026-04-12T09:24:26.606Z</time></trkpt><trkpt lat="43.89225" lon="12.2892567"><ele>293.0</ele><time>2026-04-12T09:24:27.606Z</time></trkpt><trkpt lat="43.8923417" lon="12.2892833"><ele>293.0</ele><time>2026-04-12T09:24:28.606Z</time></trkpt><trkpt lat="43.8924167" lon="12.2893033"><ele>293.0</ele><time>2026-04-12T09:24:29.607Z</time></trkpt><trkpt lat="43.892505" lon="12.2893383"><ele>293.0</ele><time>2026-04-12T09:24:31.606Z</time></trkpt><trkpt lat="43.8926317" lon="12.2893917"><ele>293.0</ele><time>2026-04-12T09:24:44.607Z</time></trkpt><trkpt lat="43.8927233" lon="12.28943"><ele>293.0</ele><time>2026-04-12T09:24:45.606Z</time></trkpt><trkpt lat="43.8928317" lon="12.2894617"><ele>293.0</ele><time>2026-04-12T09:24:46.607Z</time></trkpt><trkpt lat="43.8929464" lon="12.2895004"><ele>293.0</ele><time>2026-04-12T09:24:47.607Z</time></trkpt><trkpt lat="43.8930777" lon="12.2895333"><ele>293.0</ele><time>2026-04-12T09:24:48.606Z</time></trkpt><trkpt lat="43.8932162" lon="12.2895361"><ele>293.0</ele><time>2026-04-12T09:24:49.606Z</time></trkpt><trkpt lat="43.8933586" lon="12.2895154"><ele>293.0</ele><time>2026-04-12T09:24:50.607Z</time></trkpt><trkpt lat="43.8934962" lon="12.2894833"><ele>293.0</ele><time>2026-04-12T09:24:51.607Z</time></trkpt><trkpt lat="43.8936188" lon="12.2894497"><ele>293.0</ele><time>2026-04-12T09:24:52.607Z</time></trkpt><trkpt lat="43.8937342" lon="12.2894203"><ele>292.25</ele><time>2026-04-12T09:24:53.607Z</time></trkpt><trkpt lat="43.8938458" lon="12.2893858"><ele>291.5</ele><time>2026-04-12T09:24:54.606Z</time></trkpt><trkpt lat="43.8939582" lon="12.2893505"><ele>290.75</ele><time>2026-04-12T09:24:55.606Z</time></trkpt><trkpt lat="43.8940723" lon="12.2893142"><ele>290.0</ele><time>2026-04-12T09:24:56.607Z</time></trkpt><trkpt lat="43.8941873" lon="12.2892855"><ele>289.4</ele><time>2026-04-12T09:24:57.606Z</time></trkpt><trkpt lat="43.8942991" lon="12.2892649"><ele>288.8</ele><time>2026-04-12T09:24:58.607Z</time></trkpt><trkpt lat="43.8944053" lon="12.2892344"><ele>288.2</ele><time>2026-04-12T09:24:59.606Z</time></trkpt><trkpt lat="43.8945038" lon="12.2892009"><ele>287.6</ele><time>2026-04-12T09:25:00.607Z</time></trkpt><trkpt lat="43.8946029" lon="12.2891599"><ele>287.0</ele><time>2026-04-12T09:25:01.607Z</time></trkpt><trkpt lat="43.894691" lon="12.2891004"><ele>287.0</ele><time>2026-04-12T09:25:02.607Z</time></trkpt><trkpt lat="43.8947781" lon="12.2890221"><ele>287.0</ele><time>2026-04-12T09:25:03.606Z</time></trkpt><trkpt lat="43.8948689" lon="12.2889267"><ele>287.0</ele><time>2026-04-12T09:25:04.606Z</time></trkpt><trkpt lat="43.8949606" lon="12.2888051"><ele>287.0</ele><time>2026-04-12T09:25:05.607Z</time></trkpt><trkpt lat="43.8950363" lon="12.2886644"><ele>285.75</ele><time>2026-04-12T09:25:06.606Z</time></trkpt><trkpt lat="43.8950926" lon="12.2885088"><ele>284.5</ele><time>2026-04-12T09:25:07.607Z</time></trkpt><trkpt lat="43.8951401" lon="12.2883496"><ele>283.25</ele><time>2026-04-12T09:25:08.607Z</time></trkpt><trkpt lat="43.8951942" lon="12.2881955"><ele>282.0</ele><time>2026-04-12T09:25:09.607Z</time></trkpt><trkpt lat="43.8952639" lon="12.2880527"><ele>282.0</ele><time>2026-04-12T09:25:10.606Z</time></trkpt><trkpt lat="43.895356" lon="12.2879235"><ele>282.0</ele><time>2026-04-12T09:25:11.607Z</time></trkpt><trkpt lat="43.8954636" lon="12.2878044"><ele>282.0</ele><time>2026-04-12T09:25:12.606Z</time></trkpt><trkpt lat="43.8955741" lon="12.2876984"><ele>282.0</ele><time>2026-04-12T09:25:13.607Z</time></trkpt><trkpt lat="43.8956832" lon="12.287612"><ele>282.0</ele><time>2026-04-12T09:25:14.607Z</time></trkpt><trkpt lat="43.8957965" lon="12.2875707"><ele>282.0</ele><time>2026-04-12T09:25:15.606Z</time></trkpt><trkpt lat="43.8959194" lon="12.2875909"><ele>282.0</ele><time>2026-04-12T09:25:16.607Z</time></trkpt><trkpt lat="43.8960432" lon="12.2876714"><ele>282.0</ele><time>2026-04-12T09:25:17.607Z</time></trkpt><trkpt lat="43.8961674" lon="12.2877839"><ele>281.75</ele><time>2026-04-12T09:25:18.607Z</time></trkpt><trkpt lat="43.8962878" lon="12.2878962"><ele>281.5</ele><time>2026-04-12T09:25:19.607Z</time></trkpt><trkpt lat="43.8964028" lon="12.2880101"><ele>281.25</ele><time>2026-04-12T09:25:20.606Z</time></trkpt><trkpt lat="43.8965106" lon="12.2881081"><ele>281.0</ele><time>2026-04-12T09:25:21.606Z</time></trkpt><trkpt lat="43.8966224" lon="12.2882078"><ele>280.25</ele><time>2026-04-12T09:25:22.606Z</time></trkpt><trkpt lat="43.8967299" lon="12.2883081"><ele>279.5</ele><time>2026-04-12T09:25:23.607Z</time></trkpt><trkpt lat="43.8968401" lon="12.2884127"><ele>278.75</ele><time>2026-04-12T09:25:24.607Z</time></trkpt><trkpt lat="43.8969596" lon="12.2885229"><ele>278.0</ele><time>2026-04-12T09:25:25.606Z</time></trkpt><trkpt lat="43.8970843" lon="12.2886267"><ele>278.0</ele><time>2026-04-12T09:25:26.607Z</time></trkpt><trkpt lat="43.8972002" lon="12.2887365"><ele>278.0</ele><time>2026-04-12T09:25:27.606Z</time></trkpt><trkpt lat="43.8973046" lon="12.2888385"><ele>278.0</ele><time>2026-04-12T09:25:28.606Z</time></trkpt><trkpt lat="43.8973968" lon="12.2889268"><ele>278.0</ele><time>2026-04-12T09:25:29.606Z</time></trkpt><trkpt lat="43.8974773" lon="12.288996"><ele>276.1666666666667</ele><time>2026-04-12T09:25:30.607Z</time></trkpt><trkpt lat="43.8975454" lon="12.2890441"><ele>274.33333333333337</ele><time>2026-04-12T09:25:31.607Z</time></trkpt><trkpt lat="43.8976501" lon="12.2890858"><ele>272.5</ele><time>2026-04-12T09:25:33.607Z</time></trkpt><trkpt lat="43.8977172" lon="12.2890749"><ele>270.6666666666667</ele><time>2026-04-12T09:25:34.607Z</time></trkpt><trkpt lat="43.8977935" lon="12.2890358"><ele>268.8333333333333</ele><time>2026-04-12T09:25:35.606Z</time></trkpt><trkpt lat="43.897897" lon="12.2889771"><ele>267.0</ele><time>2026-04-12T09:25:36.607Z</time></trkpt><trkpt lat="43.8980304" lon="12.2889368"><ele>266.25</ele><time>2026-04-12T09:25:37.607Z</time></trkpt><trkpt lat="43.8981687" lon="12.2889229"><ele>265.5</ele><time>2026-04-12T09:25:38.606Z</time></trkpt><trkpt lat="43.8983032" lon="12.2889262"><ele>264.75</ele><time>2026-04-12T09:25:39.607Z</time></trkpt><trkpt lat="43.8984312" lon="12.2889462"><ele>264.0</ele><time>2026-04-12T09:25:40.606Z</time></trkpt><trkpt lat="43.8985652" lon="12.2889894"><ele>263.75</ele><time>2026-04-12T09:25:41.606Z</time></trkpt><trkpt lat="43.8987003" lon="12.289056"><ele>263.5</ele><time>2026-04-12T09:25:42.607Z</time></trkpt><trkpt lat="43.8988285" lon="12.2891375"><ele>263.25</ele><time>2026-04-12T09:25:43.606Z</time></trkpt><trkpt lat="43.8989401" lon="12.2892351"><ele>263.0</ele><time>2026-04-12T09:25:44.606Z</time></trkpt><trkpt lat="43.8990404" lon="12.2893479"><ele>263.0</ele><time>2026-04-12T09:25:45.607Z</time></trkpt><trkpt lat="43.8991406" lon="12.289466"><ele>263.0</ele><time>2026-04-12T09:25:46.606Z</time></trkpt><trkpt lat="43.8992378" lon="12.2896054"><ele>263.0</ele><time>2026-04-12T09:25:47.607Z</time></trkpt><trkpt lat="43.8993322" lon="12.289764"><ele>263.0</ele><time>2026-04-12T09:25:48.606Z</time></trkpt><trkpt lat="43.8994224" lon="12.2899329"><ele>263.25</ele><time>2026-04-12T09:25:49.607Z</time></trkpt><trkpt lat="43.8995101" lon="12.2900952"><ele>263.5</ele><time>2026-04-12T09:25:50.607Z</time></trkpt><trkpt lat="43.8996022" lon="12.2902504"><ele>263.75</ele><time>2026-04-12T09:25:51.607Z</time></trkpt><trkpt lat="43.8996887" lon="12.2904137"><ele>264.0</ele><time>2026-04-12T09:25:52.606Z</time></trkpt><trkpt lat="43.899777" lon="12.2905729"><ele>264.75</ele><time>2026-04-12T09:25:53.607Z</time></trkpt><trkpt lat="43.8998657" lon="12.2907312"><ele>265.5</ele><time>2026-04-12T09:25:54.607Z</time></trkpt><trkpt lat="43.8999508" lon="12.2908832"><ele>266.25</ele><time>2026-04-12T09:25:55.606Z</time></trkpt><trkpt lat="43.9000328" lon="12.291034"><ele>267.0</ele><time>2026-04-12T09:25:56.606Z</time></trkpt><trkpt lat="43.9000993" lon="12.2911971"><ele>267.0</ele><time>2026-04-12T09:25:57.606Z</time></trkpt><trkpt lat="43.9001467" lon="12.2913712"><ele>267.0</ele><time>2026-04-12T09:25:58.606Z</time></trkpt><trkpt lat="43.9001732" lon="12.2915616"><ele>267.0</ele><time>2026-04-12T09:25:59.607Z</time></trkpt><trkpt lat="43.9001993" lon="12.2917627"><ele>267.0</ele><time>2026-04-12T09:26:00.607Z</time></trkpt><trkpt lat="43.9002082" lon="12.2919865"><ele>264.6666666666667</ele><time>2026-04-12T09:26:01.607Z</time></trkpt><trkpt lat="43.900225" lon="12.292228"><ele>262.33333333333337</ele><time>2026-04-12T09:26:02.606Z</time></trkpt><trkpt lat="43.9002379" lon="12.2924699"><ele>260.0</ele><time>2026-04-12T09:26:03.606Z</time></trkpt><trkpt lat="43.9002376" lon="12.292701"><ele>258.6666666666667</ele><time>2026-04-12T09:26:04.606Z</time></trkpt><trkpt lat="43.9002442" lon="12.2929208"><ele>257.3333333333333</ele><time>2026-04-12T09:26:05.607Z</time></trkpt><trkpt lat="43.9002658" lon="12.2931316"><ele>256.0</ele><time>2026-04-12T09:26:06.607Z</time></trkpt><trkpt lat="43.9003141" lon="12.2933297"><ele>254.66666666666666</ele><time>2026-04-12T09:26:07.607Z</time></trkpt><trkpt lat="43.9003963" lon="12.2935119"><ele>253.33333333333331</ele><time>2026-04-12T09:26:08.607Z</time></trkpt><trkpt lat="43.9005136" lon="12.2936874"><ele>252.0</ele><time>2026-04-12T09:26:09.606Z</time></trkpt><trkpt lat="43.9006587" lon="12.293864"><ele>250.33333333333331</ele><time>2026-04-12T09:26:10.607Z</time></trkpt><trkpt lat="43.9008174" lon="12.2940363"><ele>248.66666666666666</ele><time>2026-04-12T09:26:11.607Z</time></trkpt><trkpt lat="43.9009693" lon="12.2941987"><ele>247.0</ele><time>2026-04-12T09:26:12.607Z</time></trkpt><trkpt lat="43.9011186" lon="12.2943535"><ele>247.0</ele><time>2026-04-12T09:26:13.607Z</time></trkpt><trkpt lat="43.9012602" lon="12.2945035"><ele>247.0</ele><time>2026-04-12T09:26:14.606Z</time></trkpt><trkpt lat="43.9013993" lon="12.2946475"><ele>247.0</ele><time>2026-04-12T09:26:15.607Z</time></trkpt><trkpt lat="43.9015421" lon="12.2947803"><ele>244.66666666666666</ele><time>2026-04-12T09:26:16.607Z</time></trkpt><trkpt lat="43.9017109" lon="12.2948866"><ele>242.33333333333331</ele><time>2026-04-12T09:26:17.606Z</time></trkpt><trkpt lat="43.9018991" lon="12.294962"><ele>240.0</ele><time>2026-04-12T09:26:18.607Z</time></trkpt><trkpt lat="43.9020987" lon="12.2950164"><ele>240.0</ele><time>2026-04-12T09:26:19.608Z</time></trkpt><trkpt lat="43.9022945" lon="12.29506"><ele>240.0</ele><time>2026-04-12T09:26:20.608Z</time></trkpt><trkpt lat="43.9024745" lon="12.2950958"><ele>240.0</ele><time>2026-04-12T09:26:21.608Z</time></trkpt><trkpt lat="43.9026395" lon="12.2951262"><ele>239.33333333333331</ele><time>2026-04-12T09:26:22.608Z</time></trkpt><trkpt lat="43.9027937" lon="12.2951392"><ele>238.66666666666666</ele><time>2026-04-12T09:26:23.607Z</time></trkpt><trkpt lat="43.9029412" lon="12.2951141"><ele>238.0</ele><time>2026-04-12T09:26:24.607Z</time></trkpt><trkpt lat="43.9030898" lon="12.2950378"><ele>238.0</ele><time>2026-04-12T09:26:25.608Z</time></trkpt><trkpt lat="43.9032285" lon="12.2949049"><ele>238.0</ele><time>2026-04-12T09:26:26.608Z</time></trkpt><trkpt lat="43.9033528" lon="12.2947087"><ele>238.0</ele><time>2026-04-12T09:26:27.608Z</time></trkpt><trkpt lat="43.9034738" lon="12.2944687"><ele>237.66666666666666</ele><time>2026-04-12T09:26:28.607Z</time></trkpt><trkpt lat="43.9035907" lon="12.2942264"><ele>237.33333333333331</ele><time>2026-04-12T09:26:29.608Z</time></trkpt><trkpt lat="43.9037224" lon="12.2940233"><ele>237.0</ele><time>2026-04-12T09:26:30.608Z</time></trkpt><trkpt lat="43.9038555" lon="12.2938454"><ele>238.0</ele><time>2026-04-12T09:26:31.608Z</time></trkpt><trkpt lat="43.9039868" lon="12.2936832"><ele>239.0</ele><time>2026-04-12T09:26:32.607Z</time></trkpt><trkpt lat="43.9041177" lon="12.2935353"><ele>240.0</ele><time>2026-04-12T09:26:33.608Z</time></trkpt><trkpt lat="43.9042615" lon="12.2934003"><ele>240.0</ele><time>2026-04-12T09:26:34.608Z</time></trkpt><trkpt lat="43.9044269" lon="12.293317"><ele>240.0</ele><time>2026-04-12T09:26:35.608Z</time></trkpt><trkpt lat="43.9046013" lon="12.2932913"><ele>240.0</ele><time>2026-04-12T09:26:36.608Z</time></trkpt><trkpt lat="43.9047794" lon="12.2933146"><ele>240.0</ele><time>2026-04-12T09:26:37.608Z</time></trkpt><trkpt lat="43.9049585" lon="12.2933715"><ele>240.0</ele><time>2026-04-12T09:26:38.608Z</time></trkpt><trkpt lat="43.9051325" lon="12.293437"><ele>240.0</ele><time>2026-04-12T09:26:39.608Z</time></trkpt><trkpt lat="43.9053079" lon="12.2935009"><ele>240.66666666666669</ele><time>2026-04-12T09:26:40.607Z</time></trkpt><trkpt lat="43.9054782" lon="12.2935595"><ele>241.33333333333334</ele><time>2026-04-12T09:26:41.608Z</time></trkpt><trkpt lat="43.9056496" lon="12.2936061"><ele>242.0</ele><time>2026-04-12T09:26:42.608Z</time></trkpt><trkpt lat="43.9058189" lon="12.2936444"><ele>241.66666666666669</ele><time>2026-04-12T09:26:43.607Z</time></trkpt><trkpt lat="43.9059875" lon="12.293677"><ele>241.33333333333331</ele><time>2026-04-12T09:26:44.607Z</time></trkpt><trkpt lat="43.906149" lon="12.2937027"><ele>241.0</ele><time>2026-04-12T09:26:45.607Z</time></trkpt><trkpt lat="43.9062989" lon="12.2937301"><ele>241.0</ele><time>2026-04-12T09:26:46.608Z</time></trkpt><trkpt lat="43.9064395" lon="12.2937605"><ele>241.0</ele><time>2026-04-12T09:26:47.608Z</time></trkpt><trkpt lat="43.9065708" lon="12.2937902"><ele>241.0</ele><time>2026-04-12T09:26:48.607Z</time></trkpt><trkpt lat="43.9067005" lon="12.2938235"><ele>241.0</ele><time>2026-04-12T09:26:49.608Z</time></trkpt><trkpt lat="43.9068253" lon="12.2938512"><ele>240.4</ele><time>2026-04-12T09:26:50.608Z</time></trkpt><trkpt lat="43.9069404" lon="12.2938771"><ele>239.8</ele><time>2026-04-12T09:26:51.608Z</time></trkpt><trkpt lat="43.9070462" lon="12.2939006"><ele>239.20000000000002</ele><time>2026-04-12T09:26:52.607Z</time></trkpt><trkpt lat="43.9071518" lon="12.2939257"><ele>238.60000000000002</ele><time>2026-04-12T09:26:53.608Z</time></trkpt><trkpt lat="43.9072633" lon="12.293952"><ele>238.0</ele><time>2026-04-12T09:26:54.608Z</time></trkpt><trkpt lat="43.9073803" lon="12.2939759"><ele>238.25</ele><time>2026-04-12T09:26:55.608Z</time></trkpt><trkpt lat="43.9075093" lon="12.2940001"><ele>238.5</ele><time>2026-04-12T09:26:56.608Z</time></trkpt><trkpt lat="43.9076502" lon="12.2940332"><ele>238.75</ele><time>2026-04-12T09:26:57.607Z</time></trkpt><trkpt lat="43.9077922" lon="12.2940692"><ele>239.0</ele><time>2026-04-12T09:26:58.608Z</time></trkpt><trkpt lat="43.9079292" lon="12.2941034"><ele>239.0</ele><time>2026-04-12T09:26:59.607Z</time></trkpt><trkpt lat="43.9080686" lon="12.2941489"><ele>239.0</ele><time>2026-04-12T09:27:00.608Z</time></trkpt><trkpt lat="43.9081971" lon="12.294231"><ele>239.0</ele><time>2026-04-12T09:27:01.608Z</time></trkpt><trkpt lat="43.9083089" lon="12.2943573"><ele>239.0</ele><time>2026-04-12T09:27:02.608Z</time></trkpt><trkpt lat="43.9083918" lon="12.2945241"><ele>240.66666666666669</ele><time>2026-04-12T09:27:03.608Z</time></trkpt><trkpt lat="43.9084569" lon="12.294713"><ele>242.33333333333331</ele><time>2026-04-12T09:27:04.608Z</time></trkpt><trkpt lat="43.908528" lon="12.2949356"><ele>244.0</ele><time>2026-04-12T09:27:05.608Z</time></trkpt><trkpt lat="43.9086241" lon="12.2952011"><ele>244.0</ele><time>2026-04-12T09:27:06.608Z</time></trkpt><trkpt lat="43.9087258" lon="12.2954959"><ele>244.0</ele><time>2026-04-12T09:27:07.608Z</time></trkpt><trkpt lat="43.9088241" lon="12.2958055"><ele>243.0</ele><time>2026-04-12T09:27:08.608Z</time></trkpt><trkpt lat="43.9089127" lon="12.296116"><ele>242.0</ele><time>2026-04-12T09:27:09.608Z</time></trkpt><trkpt lat="43.9089901" lon="12.2964064"><ele>241.66666666666669</ele><time>2026-04-12T09:27:10.608Z</time></trkpt><trkpt lat="43.9090543" lon="12.2966743"><ele>241.33333333333331</ele><time>2026-04-12T09:27:11.608Z</time></trkpt><trkpt lat="43.909107" lon="12.2969164"><ele>241.0</ele><time>2026-04-12T09:27:12.608Z</time></trkpt><trkpt lat="43.9091777" lon="12.2971314"><ele>242.25</ele><time>2026-04-12T09:27:13.608Z</time></trkpt><trkpt lat="43.9092665" lon="12.2973017"><ele>243.5</ele><time>2026-04-12T09:27:14.608Z</time></trkpt><trkpt lat="43.9093545" lon="12.2974468"><ele>244.75</ele><time>2026-04-12T09:27:15.608Z</time></trkpt><trkpt lat="43.9094347" lon="12.2975862"><ele>246.0</ele><time>2026-04-12T09:27:16.607Z</time></trkpt><trkpt lat="43.9095105" lon="12.297717"><ele>246.0</ele><time>2026-04-12T09:27:17.607Z</time></trkpt><trkpt lat="43.9095798" lon="12.2978278"><ele>246.0</ele><time>2026-04-12T09:27:18.607Z</time></trkpt><trkpt lat="43.9096636" lon="12.2979237"><ele>246.0</ele><time>2026-04-12T09:27:19.607Z</time></trkpt><trkpt lat="43.9097772" lon="12.2980323"><ele>246.0</ele><time>2026-04-12T09:27:20.608Z</time></trkpt><trkpt lat="43.9099142" lon="12.2981552"><ele>246.5</ele><time>2026-04-12T09:27:21.608Z</time></trkpt><trkpt lat="43.9100635" lon="12.2982783"><ele>247.0</ele><time>2026-04-12T09:27:22.608Z</time></trkpt><trkpt lat="43.9101869" lon="12.298382"><ele>247.5</ele><time>2026-04-12T09:27:23.608Z</time></trkpt><trkpt lat="43.9102761" lon="12.2984644"><ele>248.0</ele><time>2026-04-12T09:27:24.608Z</time></trkpt><trkpt lat="43.9103422" lon="12.2985299"><ele>248.00000000000003</ele><time>2026-04-12T09:27:25.608Z</time></trkpt><trkpt lat="43.910401" lon="12.298596"><ele>248.0</ele><time>2026-04-12T09:27:26.608Z</time></trkpt><trkpt lat="43.9104516" lon="12.2986741"><ele>248.0</ele><time>2026-04-12T09:27:27.608Z</time></trkpt><trkpt lat="43.9104967" lon="12.2987717"><ele>248.0</ele><time>2026-04-12T09:27:28.608Z</time></trkpt><trkpt lat="43.9105328" lon="12.2988889"><ele>248.00000000000003</ele><time>2026-04-12T09:27:29.608Z</time></trkpt><trkpt lat="43.9105544" lon="12.2990384"><ele>248.0</ele><time>2026-04-12T09:27:30.607Z</time></trkpt><trkpt lat="43.9105648" lon="12.2992172"><ele>247.5</ele><time>2026-04-12T09:27:31.608Z</time></trkpt><trkpt lat="43.9105657" lon="12.2994126"><ele>247.0</ele><time>2026-04-12T09:27:32.608Z</time></trkpt><trkpt lat="43.910562" lon="12.2996098"><ele>246.5</ele><time>2026-04-12T09:27:33.608Z</time></trkpt><trkpt lat="43.9105522" lon="12.2998178"><ele>246.0</ele><time>2026-04-12T09:27:34.608Z</time></trkpt><trkpt lat="43.910537" lon="12.3000445"><ele>246.0</ele><time>2026-04-12T09:27:35.608Z</time></trkpt><trkpt lat="43.9105158" lon="12.3003086"><ele>246.0</ele><time>2026-04-12T09:27:36.608Z</time></trkpt><trkpt lat="43.9104877" lon="12.300601"><ele>246.0</ele><time>2026-04-12T09:27:37.607Z</time></trkpt><trkpt lat="43.9104443" lon="12.3008959"><ele>247.0</ele><time>2026-04-12T09:27:38.608Z</time></trkpt><trkpt lat="43.9103872" lon="12.3011682"><ele>248.0</ele><time>2026-04-12T09:27:39.608Z</time></trkpt><trkpt lat="43.9103317" lon="12.3014033"><ele>249.0</ele><time>2026-04-12T09:27:40.607Z</time></trkpt><trkpt lat="43.910285" lon="12.3016267"><ele>249.25</ele><time>2026-04-12T09:27:41.608Z</time></trkpt><trkpt lat="43.9102617" lon="12.3018417"><ele>249.5</ele><time>2026-04-12T09:27:42.607Z</time></trkpt><trkpt lat="43.910245" lon="12.3020333"><ele>249.75</ele><time>2026-04-12T09:27:43.607Z</time></trkpt><trkpt lat="43.9102267" lon="12.3021933"><ele>250.0</ele><time>2026-04-12T09:27:44.608Z</time></trkpt><trkpt lat="43.9101917" lon="12.30233"><ele>249.0</ele><time>2026-04-12T09:27:45.608Z</time></trkpt><trkpt lat="43.910135" lon="12.30246"><ele>248.0</ele><time>2026-04-12T09:27:46.607Z</time></trkpt><trkpt lat="43.9100733" lon="12.3025817"><ele>247.0</ele><time>2026-04-12T09:27:47.608Z</time></trkpt><trkpt lat="43.9100183" lon="12.3027067"><ele>246.0</ele><time>2026-04-12T09:27:48.607Z</time></trkpt><trkpt lat="43.91" lon="12.3028533"><ele>245.0</ele><time>2026-04-12T09:27:49.607Z</time></trkpt><trkpt lat="43.910015" lon="12.302995"><ele>244.0</ele><time>2026-04-12T09:27:50.607Z</time></trkpt><trkpt lat="43.9100767" lon="12.30313"><ele>243.0</ele><time>2026-04-12T09:27:51.608Z</time></trkpt><trkpt lat="43.9101733" lon="12.3032367"><ele>242.0</ele><time>2026-04-12T09:27:52.607Z</time></trkpt><trkpt lat="43.9102667" lon="12.3033417"><ele>241.0</ele><time>2026-04-12T09:27:53.608Z</time></trkpt><trkpt lat="43.910355" lon="12.3034467"><ele>240.99999999999997</ele><time>2026-04-12T09:27:54.607Z</time></trkpt><trkpt lat="43.9104283" lon="12.303545"><ele>241.0</ele><time>2026-04-12T09:27:55.608Z</time></trkpt><trkpt lat="43.9104917" lon="12.3036217"><ele>241.0</ele><time>2026-04-12T09:27:56.608Z</time></trkpt><trkpt lat="43.9105517" lon="12.303695"><ele>241.0</ele><time>2026-04-12T09:27:57.608Z</time></trkpt><trkpt lat="43.9106167" lon="12.303765"><ele>240.99999999999997</ele><time>2026-04-12T09:27:58.607Z</time></trkpt><trkpt lat="43.9106833" lon="12.3038383"><ele>241.0</ele><time>2026-04-12T09:27:59.608Z</time></trkpt><trkpt lat="43.9107617" lon="12.3039067"><ele>239.20000000000002</ele><time>2026-04-12T09:28:00.607Z</time></trkpt><trkpt lat="43.9108367" lon="12.3039667"><ele>237.40000000000003</ele><time>2026-04-12T09:28:01.607Z</time></trkpt><trkpt lat="43.9109117" lon="12.30401"><ele>235.6</ele><time>2026-04-12T09:28:02.608Z</time></trkpt><trkpt lat="43.9109983" lon="12.30405"><ele>233.8</ele><time>2026-04-12T09:28:03.608Z</time></trkpt><trkpt lat="43.91109" lon="12.304085"><ele>232.0</ele><time>2026-04-12T09:28:04.608Z</time></trkpt><trkpt lat="43.911185" lon="12.30411"><ele>231.8</ele><time>2026-04-12T09:28:05.608Z</time></trkpt><trkpt lat="43.9112783" lon="12.304125"><ele>231.6</ele><time>2026-04-12T09:28:06.608Z</time></trkpt><trkpt lat="43.9113717" lon="12.30414"><ele>231.40000000000003</ele><time>2026-04-12T09:28:07.608Z</time></trkpt><trkpt lat="43.9114733" lon="12.3041583"><ele>231.20000000000002</ele><time>2026-04-12T09:28:08.607Z</time></trkpt><trkpt lat="43.9115817" lon="12.304175"><ele>231.0</ele><time>2026-04-12T09:28:09.608Z</time></trkpt><trkpt lat="43.911695" lon="12.3041883"><ele>231.0</ele><time>2026-04-12T09:28:10.607Z</time></trkpt><trkpt lat="43.9118033" lon="12.3041983"><ele>231.0</ele><time>2026-04-12T09:28:11.608Z</time></trkpt><trkpt lat="43.9119133" lon="12.3042117"><ele>231.0</ele><time>2026-04-12T09:28:12.608Z</time></trkpt><trkpt lat="43.912035" lon="12.304225"><ele>231.0</ele><time>2026-04-12T09:28:13.608Z</time></trkpt><trkpt lat="43.9121583" lon="12.3042417"><ele>231.0</ele><time>2026-04-12T09:28:14.608Z</time></trkpt><trkpt lat="43.9122833" lon="12.3042683"><ele>231.0</ele><time>2026-04-12T09:28:15.608Z</time></trkpt><trkpt lat="43.9124183" lon="12.304305"><ele>231.0</ele><time>2026-04-12T09:28:16.608Z</time></trkpt><trkpt lat="43.9125583" lon="12.30435"><ele>231.0</ele><time>2026-04-12T09:28:17.607Z</time></trkpt><trkpt lat="43.9126867" lon="12.3044033"><ele>230.25</ele><time>2026-04-12T09:28:18.608Z</time></trkpt><trkpt lat="43.912815" lon="12.3044633"><ele>229.5</ele><time>2026-04-12T09:28:19.608Z</time></trkpt><trkpt lat="43.912945" lon="12.3045317"><ele>228.75</ele><time>2026-04-12T09:28:20.608Z</time></trkpt><trkpt lat="43.9130883" lon="12.3046033"><ele>228.0</ele><time>2026-04-12T09:28:21.607Z</time></trkpt><trkpt lat="43.91324" lon="12.3046783"><ele>228.0</ele><time>2026-04-12T09:28:22.607Z</time></trkpt><trkpt lat="43.913395" lon="12.304765"><ele>228.0</ele><time>2026-04-12T09:28:23.608Z</time></trkpt><trkpt lat="43.913555" lon="12.30486"><ele>228.0</ele><time>2026-04-12T09:28:24.607Z</time></trkpt><trkpt lat="43.9137283" lon="12.3049467"><ele>229.5</ele><time>2026-04-12T09:28:25.608Z</time></trkpt><trkpt lat="43.913925" lon="12.305045"><ele>231.0</ele><time>2026-04-12T09:28:26.608Z</time></trkpt><trkpt lat="43.91416" lon="12.3051567"><ele>231.5</ele><time>2026-04-12T09:28:27.608Z</time></trkpt><trkpt lat="43.9144083" lon="12.30528"><ele>232.0</ele><time>2026-04-12T09:28:28.607Z</time></trkpt><trkpt lat="43.9146667" lon="12.3054"><ele>232.0</ele><time>2026-04-12T09:28:29.607Z</time></trkpt><trkpt lat="43.9149133" lon="12.3055267"><ele>232.0</ele><time>2026-04-12T09:28:30.607Z</time></trkpt><trkpt lat="43.9151383" lon="12.3056467"><ele>232.0</ele><time>2026-04-12T09:28:31.607Z</time></trkpt><trkpt lat="43.9153483" lon="12.3057567"><ele>232.0</ele><time>2026-04-12T09:28:32.607Z</time></trkpt><trkpt lat="43.9155433" lon="12.3058583"><ele>232.0</ele><time>2026-04-12T09:28:33.608Z</time></trkpt><trkpt lat="43.9157317" lon="12.3059383"><ele>232.66666666666666</ele><time>2026-04-12T09:28:34.608Z</time></trkpt><trkpt lat="43.9159083" lon="12.3060083"><ele>233.33333333333331</ele><time>2026-04-12T09:28:35.608Z</time></trkpt><trkpt lat="43.916085" lon="12.3060683"><ele>234.0</ele><time>2026-04-12T09:28:36.608Z</time></trkpt><trkpt lat="43.91625" lon="12.30613"><ele>234.0</ele><time>2026-04-12T09:28:37.608Z</time></trkpt><trkpt lat="43.9164117" lon="12.3062067"><ele>234.0</ele><time>2026-04-12T09:28:38.607Z</time></trkpt><trkpt lat="43.9165717" lon="12.30631"><ele>234.0</ele><time>2026-04-12T09:28:39.608Z</time></trkpt><trkpt lat="43.916715" lon="12.3064467"><ele>232.66666666666669</ele><time>2026-04-12T09:28:40.608Z</time></trkpt><trkpt lat="43.916845" lon="12.3066067"><ele>231.33333333333334</ele><time>2026-04-12T09:28:41.608Z</time></trkpt><trkpt lat="43.91697" lon="12.3067867"><ele>230.0</ele><time>2026-04-12T09:28:42.607Z</time></trkpt><trkpt lat="43.9171017" lon="12.3069683"><ele>230.0</ele><time>2026-04-12T09:28:43.608Z</time></trkpt><trkpt lat="43.9172367" lon="12.3071533"><ele>230.0</ele><time>2026-04-12T09:28:44.607Z</time></trkpt><trkpt lat="43.917355" lon="12.3073433"><ele>230.0</ele><time>2026-04-12T09:28:45.608Z</time></trkpt><trkpt lat="43.9174867" lon="12.3075117"><ele>229.66666666666669</ele><time>2026-04-12T09:28:46.607Z</time></trkpt><trkpt lat="43.91762" lon="12.3076883"><ele>229.33333333333331</ele><time>2026-04-12T09:28:47.608Z</time></trkpt><trkpt lat="43.9177467" lon="12.307885"><ele>229.0</ele><time>2026-04-12T09:28:48.608Z</time></trkpt><trkpt lat="43.91788" lon="12.308065"><ele>228.0</ele><time>2026-04-12T09:28:49.608Z</time></trkpt><trkpt lat="43.91802" lon="12.30825"><ele>227.0</ele><time>2026-04-12T09:28:50.608Z</time></trkpt><trkpt lat="43.91814" lon="12.3084333"><ele>226.0</ele><time>2026-04-12T09:28:51.608Z</time></trkpt><trkpt lat="43.9182683" lon="12.3086083"><ele>226.0</ele><time>2026-04-12T09:28:52.608Z</time></trkpt><trkpt lat="43.9184" lon="12.3087867"><ele>226.0</ele><time>2026-04-12T09:28:53.608Z</time></trkpt><trkpt lat="43.9185167" lon="12.3089617"><ele>226.0</ele><time>2026-04-12T09:28:54.608Z</time></trkpt><trkpt lat="43.918635" lon="12.3091367"><ele>225.33333333333331</ele><time>2026-04-12T09:28:55.608Z</time></trkpt><trkpt lat="43.9187533" lon="12.30931"><ele>224.66666666666669</ele><time>2026-04-12T09:28:56.608Z</time></trkpt><trkpt lat="43.9188733" lon="12.309475"><ele>224.0</ele><time>2026-04-12T09:28:57.608Z</time></trkpt><trkpt lat="43.9189883" lon="12.309635"><ele>224.0</ele><time>2026-04-12T09:28:58.608Z</time></trkpt><trkpt lat="43.9191" lon="12.3098017"><ele>224.0</ele><time>2026-04-12T09:28:59.608Z</time></trkpt><trkpt lat="43.9192217" lon="12.30996"><ele>224.0</ele><time>2026-04-12T09:29:00.607Z</time></trkpt><trkpt lat="43.91935" lon="12.3101167"><ele>224.0</ele><time>2026-04-12T09:29:01.608Z</time></trkpt><trkpt lat="43.919465" lon="12.3102767"><ele>224.0</ele><time>2026-04-12T09:29:02.608Z</time></trkpt><trkpt lat="43.919565" lon="12.3104433"><ele>224.0</ele><time>2026-04-12T09:29:03.607Z</time></trkpt><trkpt lat="43.91966" lon="12.3106167"><ele>222.5</ele><time>2026-04-12T09:29:04.608Z</time></trkpt><trkpt lat="43.9197433" lon="12.3107983"><ele>221.0</ele><time>2026-04-12T09:29:05.608Z</time></trkpt><trkpt lat="43.9198133" lon="12.3109783"><ele>219.5</ele><time>2026-04-12T09:29:06.607Z</time></trkpt><trkpt lat="43.9198883" lon="12.3111467"><ele>218.0</ele><time>2026-04-12T09:29:07.608Z</time></trkpt><trkpt lat="43.9199583" lon="12.311325"><ele>217.66666666666669</ele><time>2026-04-12T09:29:08.608Z</time></trkpt><trkpt lat="43.9200317" lon="12.3115033"><ele>217.33333333333331</ele><time>2026-04-12T09:29:09.608Z</time></trkpt><trkpt lat="43.9201267" lon="12.3116667"><ele>217.0</ele><time>2026-04-12T09:29:10.608Z</time></trkpt><trkpt lat="43.920255" lon="12.3117933"><ele>217.0</ele><time>2026-04-12T09:29:11.608Z</time></trkpt><trkpt lat="43.92038" lon="12.3119133"><ele>217.0</ele><time>2026-04-12T09:29:12.607Z</time></trkpt><trkpt lat="43.9205067" lon="12.3120333"><ele>217.0</ele><time>2026-04-12T09:29:13.607Z</time></trkpt><trkpt lat="43.92063" lon="12.3121583"><ele>214.0</ele><time>2026-04-12T09:29:14.607Z</time></trkpt><trkpt lat="43.9207533" lon="12.312285"><ele>211.0</ele><time>2026-04-12T09:29:15.607Z</time></trkpt><trkpt lat="43.920885" lon="12.3123967"><ele>208.0</ele><time>2026-04-12T09:29:16.607Z</time></trkpt><trkpt lat="43.9210167" lon="12.3125217"><ele>208.0</ele><time>2026-04-12T09:29:17.608Z</time></trkpt><trkpt lat="43.92115" lon="12.3126417"><ele>208.0</ele><time>2026-04-12T09:29:18.608Z</time></trkpt><trkpt lat="43.9212767" lon="12.3127617"><ele>208.0</ele><time>2026-04-12T09:29:19.608Z</time></trkpt><trkpt lat="43.9213967" lon="12.31288"><ele>208.0</ele><time>2026-04-12T09:29:20.608Z</time></trkpt><trkpt lat="43.9215117" lon="12.3129967"><ele>208.0</ele><time>2026-04-12T09:29:21.607Z</time></trkpt><trkpt lat="43.9216267" lon="12.313115"><ele>208.0</ele><time>2026-04-12T09:29:22.608Z</time></trkpt><trkpt lat="43.921742" lon="12.3132426"><ele>208.0</ele><time>2026-04-12T09:29:23.608Z</time></trkpt><trkpt lat="43.92185" lon="12.3133827"><ele>209.66666666666666</ele><time>2026-04-12T09:29:24.608Z</time></trkpt><trkpt lat="43.9219581" lon="12.3135313"><ele>211.33333333333331</ele><time>2026-04-12T09:29:25.607Z</time></trkpt><trkpt lat="43.9220594" lon="12.3136942"><ele>213.0</ele><time>2026-04-12T09:29:26.607Z</time></trkpt><trkpt lat="43.9221557" lon="12.3138633"><ele>212.75</ele><time>2026-04-12T09:29:27.608Z</time></trkpt><trkpt lat="43.9222552" lon="12.3140281"><ele>212.5</ele><time>2026-04-12T09:29:28.607Z</time></trkpt><trkpt lat="43.9223493" lon="12.3141811"><ele>212.25</ele><time>2026-04-12T09:29:29.607Z</time></trkpt><trkpt lat="43.9224415" lon="12.3143273"><ele>212.0</ele><time>2026-04-12T09:29:30.607Z</time></trkpt><trkpt lat="43.9225344" lon="12.3144725"><ele>213.25</ele><time>2026-04-12T09:29:31.608Z</time></trkpt><trkpt lat="43.9226291" lon="12.3146214"><ele>214.5</ele><time>2026-04-12T09:29:32.608Z</time></trkpt><trkpt lat="43.9227152" lon="12.3147716"><ele>215.75</ele><time>2026-04-12T09:29:33.608Z</time></trkpt><trkpt lat="43.9227977" lon="12.3149175"><ele>217.0</ele><time>2026-04-12T09:29:34.608Z</time></trkpt><trkpt lat="43.9228728" lon="12.315055"><ele>217.0</ele><time>2026-04-12T09:29:35.608Z</time></trkpt><trkpt lat="43.9229365" lon="12.3151898"><ele>217.0</ele><time>2026-04-12T09:29:36.608Z</time></trkpt><trkpt lat="43.9229933" lon="12.3153443"><ele>217.0</ele><time>2026-04-12T09:29:37.608Z</time></trkpt><trkpt lat="43.9230414" lon="12.3155285"><ele>217.0</ele><time>2026-04-12T09:29:38.607Z</time></trkpt><trkpt lat="43.9230926" lon="12.3157252"><ele>217.0</ele><time>2026-04-12T09:29:39.608Z</time></trkpt><trkpt lat="43.9231476" lon="12.3159182"><ele>217.0</ele><time>2026-04-12T09:29:40.608Z</time></trkpt><trkpt lat="43.9232097" lon="12.3161043"><ele>217.0</ele><time>2026-04-12T09:29:41.607Z</time></trkpt><trkpt lat="43.923288" lon="12.3162768"><ele>217.0</ele><time>2026-04-12T09:29:42.608Z</time></trkpt><trkpt lat="43.9233785" lon="12.3164314"><ele>216.0</ele><time>2026-04-12T09:29:43.608Z</time></trkpt><trkpt lat="43.9234766" lon="12.3165634"><ele>215.0</ele><time>2026-04-12T09:29:44.608Z</time></trkpt><trkpt lat="43.9235728" lon="12.3166816"><ele>214.0</ele><time>2026-04-12T09:29:45.608Z</time></trkpt><trkpt lat="43.923666" lon="12.316796"><ele>213.0</ele><time>2026-04-12T09:29:46.608Z</time></trkpt><trkpt lat="43.9237551" lon="12.3169092"><ele>213.0</ele><time>2026-04-12T09:29:47.607Z</time></trkpt><trkpt lat="43.9238348" lon="12.3170281"><ele>213.0</ele><time>2026-04-12T09:29:48.608Z</time></trkpt><trkpt lat="43.9239152" lon="12.3171314"><ele>213.0</ele><time>2026-04-12T09:29:49.607Z</time></trkpt><trkpt lat="43.9239835" lon="12.3172302"><ele>213.0</ele><time>2026-04-12T09:29:50.607Z</time></trkpt><trkpt lat="43.9240481" lon="12.3173188"><ele>213.0</ele><time>2026-04-12T09:29:51.607Z</time></trkpt><trkpt lat="43.9241107" lon="12.3173956"><ele>213.0</ele><time>2026-04-12T09:29:52.607Z</time></trkpt><trkpt lat="43.9241878" lon="12.3174719"><ele>213.0</ele><time>2026-04-12T09:29:53.608Z</time></trkpt><trkpt lat="43.9242566" lon="12.3175485"><ele>213.0</ele><time>2026-04-12T09:29:54.608Z</time></trkpt><trkpt lat="43.9243159" lon="12.3176131"><ele>213.0</ele><time>2026-04-12T09:29:55.608Z</time></trkpt><trkpt lat="43.9243656" lon="12.3176737"><ele>213.0</ele><time>2026-04-12T09:29:56.608Z</time></trkpt><trkpt lat="43.9244406" lon="12.3177653"><ele>213.0</ele><time>2026-04-12T09:29:58.608Z</time></trkpt><trkpt lat="43.924532" lon="12.3178361"><ele>213.5</ele><time>2026-04-12T09:30:00.608Z</time></trkpt><trkpt lat="43.924607" lon="12.3178727"><ele>214.0</ele><time>2026-04-12T09:30:01.608Z</time></trkpt><trkpt lat="43.9247084" lon="12.317921"><ele>214.5</ele><time>2026-04-12T09:30:02.607Z</time></trkpt><trkpt lat="43.9248575" lon="12.3179917"><ele>215.0</ele><time>2026-04-12T09:30:03.608Z</time></trkpt><trkpt lat="43.9250188" lon="12.3180654"><ele>214.25</ele><time>2026-04-12T09:30:04.608Z</time></trkpt><trkpt lat="43.9251716" lon="12.3181368"><ele>213.5</ele><time>2026-04-12T09:30:05.607Z</time></trkpt><trkpt lat="43.9253054" lon="12.3182173"><ele>212.75</ele><time>2026-04-12T09:30:06.608Z</time></trkpt><trkpt lat="43.9254241" lon="12.318311"><ele>212.0</ele><time>2026-04-12T09:30:07.608Z</time></trkpt><trkpt lat="43.925525" lon="12.3184351"><ele>212.0</ele><time>2026-04-12T09:30:08.608Z</time></trkpt><trkpt lat="43.9256249" lon="12.3185823"><ele>212.0</ele><time>2026-04-12T09:30:09.608Z</time></trkpt><trkpt lat="43.9257128" lon="12.318741"><ele>212.0</ele><time>2026-04-12T09:30:10.607Z</time></trkpt><trkpt lat="43.9257958" lon="12.3188864"><ele>212.0</ele><time>2026-04-12T09:30:11.608Z</time></trkpt><trkpt lat="43.9258798" lon="12.3190317"><ele>213.0</ele><time>2026-04-12T09:30:12.608Z</time></trkpt><trkpt lat="43.925963" lon="12.319185"><ele>214.0</ele><time>2026-04-12T09:30:13.607Z</time></trkpt><trkpt lat="43.9260511" lon="12.3193363"><ele>215.0</ele><time>2026-04-12T09:30:14.608Z</time></trkpt><trkpt lat="43.9261467" lon="12.3194921"><ele>216.0</ele><time>2026-04-12T09:30:15.607Z</time></trkpt><trkpt lat="43.9262551" lon="12.3196649"><ele>214.33333333333331</ele><time>2026-04-12T09:30:16.608Z</time></trkpt><trkpt lat="43.9263742" lon="12.3198589"><ele>212.66666666666666</ele><time>2026-04-12T09:30:17.607Z</time></trkpt><trkpt lat="43.9264931" lon="12.3200719"><ele>211.0</ele><time>2026-04-12T09:30:18.607Z</time></trkpt><trkpt lat="43.9266166" lon="12.3202976"><ele>211.66666666666666</ele><time>2026-04-12T09:30:19.608Z</time></trkpt><trkpt lat="43.9267443" lon="12.3205324"><ele>212.33333333333331</ele><time>2026-04-12T09:30:20.608Z</time></trkpt><trkpt lat="43.9268706" lon="12.3207592"><ele>213.0</ele><time>2026-04-12T09:30:21.608Z</time></trkpt><trkpt lat="43.9269858" lon="12.3209752"><ele>211.33333333333331</ele><time>2026-04-12T09:30:22.608Z</time></trkpt><trkpt lat="43.9271027" lon="12.3211925"><ele>209.66666666666666</ele><time>2026-04-12T09:30:23.608Z</time></trkpt><trkpt lat="43.9272242" lon="12.3214131"><ele>208.0</ele><time>2026-04-12T09:30:24.607Z</time></trkpt><trkpt lat="43.9273498" lon="12.3216297"><ele>207.33333333333331</ele><time>2026-04-12T09:30:25.608Z</time></trkpt><trkpt lat="43.9274844" lon="12.3218436"><ele>206.66666666666669</ele><time>2026-04-12T09:30:26.607Z</time></trkpt><trkpt lat="43.9276298" lon="12.3220481"><ele>206.0</ele><time>2026-04-12T09:30:27.607Z</time></trkpt><trkpt lat="43.9277821" lon="12.3222435"><ele>204.66666666666669</ele><time>2026-04-12T09:30:28.608Z</time></trkpt><trkpt lat="43.9279312" lon="12.322422"><ele>203.33333333333331</ele><time>2026-04-12T09:30:29.608Z</time></trkpt><trkpt lat="43.928068" lon="12.3225897"><ele>202.0</ele><time>2026-04-12T09:30:30.608Z</time></trkpt><trkpt lat="43.9281928" lon="12.3227379"><ele>202.0</ele><time>2026-04-12T09:30:31.607Z</time></trkpt><trkpt lat="43.9283073" lon="12.3228638"><ele>202.0</ele><time>2026-04-12T09:30:32.608Z</time></trkpt><trkpt lat="43.9283977" lon="12.3229823"><ele>202.0</ele><time>2026-04-12T09:30:33.608Z</time></trkpt><trkpt lat="43.9284618" lon="12.3231068"><ele>202.0</ele><time>2026-04-12T09:30:34.608Z</time></trkpt><trkpt lat="43.92852" lon="12.3232392"><ele>202.25</ele><time>2026-04-12T09:30:35.608Z</time></trkpt><trkpt lat="43.9286015" lon="12.3233576"><ele>202.5</ele><time>2026-04-12T09:30:36.607Z</time></trkpt><trkpt lat="43.9287256" lon="12.3234604"><ele>202.75</ele><time>2026-04-12T09:30:37.608Z</time></trkpt><trkpt lat="43.9288811" lon="12.3235835"><ele>203.0</ele><time>2026-04-12T09:30:38.607Z</time></trkpt><trkpt lat="43.929043" lon="12.3237484"><ele>202.33333333333334</ele><time>2026-04-12T09:30:39.608Z</time></trkpt><trkpt lat="43.9292046" lon="12.3239389"><ele>201.66666666666669</ele><time>2026-04-12T09:30:40.608Z</time></trkpt><trkpt lat="43.9293558" lon="12.3241304"><ele>201.0</ele><time>2026-04-12T09:30:41.608Z</time></trkpt><trkpt lat="43.9295003" lon="12.3243037"><ele>201.0</ele><time>2026-04-12T09:30:42.607Z</time></trkpt><trkpt lat="43.9296355" lon="12.3244672"><ele>201.0</ele><time>2026-04-12T09:30:43.608Z</time></trkpt><trkpt lat="43.929761" lon="12.3246208"><ele>201.0</ele><time>2026-04-12T09:30:44.608Z</time></trkpt><trkpt lat="43.9298762" lon="12.3247686"><ele>201.0</ele><time>2026-04-12T09:30:45.607Z</time></trkpt><trkpt lat="43.9299784" lon="12.324919"><ele>201.0</ele><time>2026-04-12T09:30:46.607Z</time></trkpt><trkpt lat="43.9300892" lon="12.3250805"><ele>201.0</ele><time>2026-04-12T09:30:47.607Z</time></trkpt><trkpt lat="43.9302098" lon="12.3252747"><ele>201.0</ele><time>2026-04-12T09:30:48.607Z</time></trkpt><trkpt lat="43.9303331" lon="12.3255019"><ele>201.0</ele><time>2026-04-12T09:30:49.608Z</time></trkpt><trkpt lat="43.9304636" lon="12.3257582"><ele>201.0</ele><time>2026-04-12T09:30:50.607Z</time></trkpt><trkpt lat="43.9305923" lon="12.3260181"><ele>200.33333333333331</ele><time>2026-04-12T09:30:51.608Z</time></trkpt><trkpt lat="43.9307156" lon="12.3262653"><ele>199.66666666666666</ele><time>2026-04-12T09:30:52.607Z</time></trkpt><trkpt lat="43.9308303" lon="12.3265165"><ele>199.0</ele><time>2026-04-12T09:30:53.608Z</time></trkpt><trkpt lat="43.930931" lon="12.3267941"><ele>198.0</ele><time>2026-04-12T09:30:54.608Z</time></trkpt><trkpt lat="43.9310088" lon="12.3271058"><ele>197.0</ele><time>2026-04-12T09:30:55.608Z</time></trkpt><trkpt lat="43.9310671" lon="12.3274518"><ele>197.0</ele><time>2026-04-12T09:30:56.607Z</time></trkpt><trkpt lat="43.9311254" lon="12.3278278"><ele>197.0</ele><time>2026-04-12T09:30:57.607Z</time></trkpt><trkpt lat="43.9311876" lon="12.3282158"><ele>196.0</ele><time>2026-04-12T09:30:58.608Z</time></trkpt><trkpt lat="43.9312518" lon="12.3285981"><ele>195.0</ele><time>2026-04-12T09:30:59.608Z</time></trkpt><trkpt lat="43.9313102" lon="12.3289592"><ele>194.5</ele><time>2026-04-12T09:31:00.608Z</time></trkpt><trkpt lat="43.93137" lon="12.3293175"><ele>194.0</ele><time>2026-04-12T09:31:01.607Z</time></trkpt><trkpt lat="43.9314325" lon="12.3296732"><ele>193.0</ele><time>2026-04-12T09:31:02.608Z</time></trkpt><trkpt lat="43.9314894" lon="12.3300208"><ele>192.0</ele><time>2026-04-12T09:31:03.607Z</time></trkpt><trkpt lat="43.9315483" lon="12.33036"><ele>189.5</ele><time>2026-04-12T09:31:04.607Z</time></trkpt><trkpt lat="43.9315983" lon="12.33068"><ele>187.0</ele><time>2026-04-12T09:31:05.608Z</time></trkpt><trkpt lat="43.93165" lon="12.3309833"><ele>187.0</ele><time>2026-04-12T09:31:06.608Z</time></trkpt><trkpt lat="43.931705" lon="12.3312733"><ele>187.0</ele><time>2026-04-12T09:31:07.608Z</time></trkpt><trkpt lat="43.9317583" lon="12.3315417"><ele>187.0</ele><time>2026-04-12T09:31:08.608Z</time></trkpt><trkpt lat="43.9318367" lon="12.33178"><ele>185.66666666666669</ele><time>2026-04-12T09:31:09.608Z</time></trkpt><trkpt lat="43.9319483" lon="12.332"><ele>184.33333333333334</ele><time>2026-04-12T09:31:10.607Z</time></trkpt><trkpt lat="43.9320933" lon="12.3322183"><ele>183.0</ele><time>2026-04-12T09:31:11.607Z</time></trkpt><trkpt lat="43.9322583" lon="12.332455"><ele>183.0</ele><time>2026-04-12T09:31:12.608Z</time></trkpt><trkpt lat="43.9324367" lon="12.332695"><ele>183.0</ele><time>2026-04-12T09:31:13.608Z</time></trkpt><trkpt lat="43.93261" lon="12.3329417"><ele>184.5</ele><time>2026-04-12T09:31:14.607Z</time></trkpt><trkpt lat="43.93278" lon="12.3331783"><ele>186.0</ele><time>2026-04-12T09:31:15.608Z</time></trkpt><trkpt lat="43.9329417" lon="12.33341"><ele>186.0</ele><time>2026-04-12T09:31:16.608Z</time></trkpt><trkpt lat="43.933095" lon="12.333625"><ele>186.0</ele><time>2026-04-12T09:31:17.609Z</time></trkpt><trkpt lat="43.9332467" lon="12.3338367"><ele>186.0</ele><time>2026-04-12T09:31:18.609Z</time></trkpt><trkpt lat="43.9333933" lon="12.334045"><ele>184.66666666666666</ele><time>2026-04-12T09:31:19.609Z</time></trkpt><trkpt lat="43.9335383" lon="12.3342567"><ele>183.33333333333331</ele><time>2026-04-12T09:31:20.608Z</time></trkpt><trkpt lat="43.9336867" lon="12.3344683"><ele>182.0</ele><time>2026-04-12T09:31:21.609Z</time></trkpt><trkpt lat="43.933835" lon="12.3346867"><ele>181.66666666666666</ele><time>2026-04-12T09:31:22.609Z</time></trkpt><trkpt lat="43.9339817" lon="12.3349067"><ele>181.33333333333334</ele><time>2026-04-12T09:31:23.609Z</time></trkpt><trkpt lat="43.9341283" lon="12.335125"><ele>181.0</ele><time>2026-04-12T09:31:24.609Z</time></trkpt><trkpt lat="43.9342817" lon="12.335335"><ele>182.66666666666669</ele><time>2026-04-12T09:31:25.609Z</time></trkpt><trkpt lat="43.93443" lon="12.33554"><ele>184.33333333333334</ele><time>2026-04-12T09:31:26.609Z</time></trkpt><trkpt lat="43.934565" lon="12.3357383"><ele>186.0</ele><time>2026-04-12T09:31:27.608Z</time></trkpt><trkpt lat="43.93469" lon="12.335925"><ele>186.0</ele><time>2026-04-12T09:31:28.609Z</time></trkpt><trkpt lat="43.934815" lon="12.3361067"><ele>186.0</ele><time>2026-04-12T09:31:29.609Z</time></trkpt><trkpt lat="43.9349383" lon="12.336285"><ele>186.0</ele><time>2026-04-12T09:31:30.608Z</time></trkpt><trkpt lat="43.9350533" lon="12.3364567"><ele>189.33333333333331</ele><time>2026-04-12T09:31:31.608Z</time></trkpt><trkpt lat="43.9351717" lon="12.3366217"><ele>192.66666666666666</ele><time>2026-04-12T09:31:32.609Z</time></trkpt><trkpt lat="43.935285" lon="12.3367783"><ele>196.0</ele><time>2026-04-12T09:31:33.609Z</time></trkpt><trkpt lat="43.9353917" lon="12.3369283"><ele>196.0</ele><time>2026-04-12T09:31:34.609Z</time></trkpt><trkpt lat="43.9354817" lon="12.33708"><ele>196.0</ele><time>2026-04-12T09:31:35.609Z</time></trkpt><trkpt lat="43.9355617" lon="12.3372283"><ele>196.0</ele><time>2026-04-12T09:31:36.609Z</time></trkpt><trkpt lat="43.9356333" lon="12.3373833"><ele>196.0</ele><time>2026-04-12T09:31:37.608Z</time></trkpt><trkpt lat="43.9356967" lon="12.3375367"><ele>194.25</ele><time>2026-04-12T09:31:38.609Z</time></trkpt><trkpt lat="43.9357469" lon="12.3376969"><ele>192.5</ele><time>2026-04-12T09:31:39.609Z</time></trkpt><trkpt lat="43.935781" lon="12.3378574"><ele>190.75</ele><time>2026-04-12T09:31:40.608Z</time></trkpt><trkpt lat="43.935802" lon="12.3380305"><ele>189.0</ele><time>2026-04-12T09:31:41.608Z</time></trkpt><trkpt lat="43.9358151" lon="12.3382102"><ele>188.25</ele><time>2026-04-12T09:31:42.608Z</time></trkpt><trkpt lat="43.9358212" lon="12.3383922"><ele>187.5</ele><time>2026-04-12T09:31:43.609Z</time></trkpt><trkpt lat="43.9358112" lon="12.3385724"><ele>186.75</ele><time>2026-04-12T09:31:44.609Z</time></trkpt><trkpt lat="43.9357944" lon="12.3387451"><ele>186.0</ele><time>2026-04-12T09:31:45.608Z</time></trkpt><trkpt lat="43.9357814" lon="12.338917"><ele>186.0</ele><time>2026-04-12T09:31:46.609Z</time></trkpt><trkpt lat="43.9357653" lon="12.3390962"><ele>186.0</ele><time>2026-04-12T09:31:47.609Z</time></trkpt><trkpt lat="43.9357598" lon="12.3392834"><ele>186.0</ele><time>2026-04-12T09:31:48.609Z</time></trkpt><trkpt lat="43.9357681" lon="12.3394785"><ele>186.0</ele><time>2026-04-12T09:31:49.609Z</time></trkpt><trkpt lat="43.9357989" lon="12.3397016"><ele>186.66666666666666</ele><time>2026-04-12T09:31:50.609Z</time></trkpt><trkpt lat="43.9358551" lon="12.3399646"><ele>187.33333333333331</ele><time>2026-04-12T09:31:51.609Z</time></trkpt><trkpt lat="43.9359152" lon="12.3402471"><ele>188.0</ele><time>2026-04-12T09:31:52.609Z</time></trkpt><trkpt lat="43.9359661" lon="12.3405118"><ele>190.66666666666666</ele><time>2026-04-12T09:31:53.608Z</time></trkpt><trkpt lat="43.9360123" lon="12.340748"><ele>193.33333333333331</ele><time>2026-04-12T09:31:54.609Z</time></trkpt><trkpt lat="43.936056" lon="12.3409602"><ele>196.0</ele><time>2026-04-12T09:31:55.609Z</time></trkpt><trkpt lat="43.9360977" lon="12.3411589"><ele>196.0</ele><time>2026-04-12T09:31:56.609Z</time></trkpt><trkpt lat="43.9361325" lon="12.3413491"><ele>196.0</ele><time>2026-04-12T09:31:57.608Z</time></trkpt><trkpt lat="43.9361639" lon="12.3415319"><ele>196.0</ele><time>2026-04-12T09:31:58.609Z</time></trkpt><trkpt lat="43.9361742" lon="12.3417094"><ele>196.0</ele><time>2026-04-12T09:31:59.608Z</time></trkpt><trkpt lat="43.9361598" lon="12.3418966"><ele>196.0</ele><time>2026-04-12T09:32:00.609Z</time></trkpt><trkpt lat="43.9361228" lon="12.3420835"><ele>196.0</ele><time>2026-04-12T09:32:01.609Z</time></trkpt><trkpt lat="43.9360672" lon="12.3422585"><ele>196.0</ele><time>2026-04-12T09:32:02.609Z</time></trkpt><trkpt lat="43.9359937" lon="12.342413"><ele>196.0</ele><time>2026-04-12T09:32:03.608Z</time></trkpt><trkpt lat="43.9358909" lon="12.3425386"><ele>192.5</ele><time>2026-04-12T09:32:04.609Z</time></trkpt><trkpt lat="43.9357671" lon="12.3426459"><ele>189.0</ele><time>2026-04-12T09:32:05.608Z</time></trkpt><trkpt lat="43.9356312" lon="12.342737"><ele>185.5</ele><time>2026-04-12T09:32:06.609Z</time></trkpt><trkpt lat="43.9354926" lon="12.3428255"><ele>182.0</ele><time>2026-04-12T09:32:07.608Z</time></trkpt><trkpt lat="43.9353452" lon="12.3429193"><ele>182.0</ele><time>2026-04-12T09:32:08.608Z</time></trkpt><trkpt lat="43.9351882" lon="12.3430221"><ele>182.0</ele><time>2026-04-12T09:32:09.609Z</time></trkpt><trkpt lat="43.9350351" lon="12.3431189"><ele>182.0</ele><time>2026-04-12T09:32:10.609Z</time></trkpt><trkpt lat="43.9348991" lon="12.3432059"><ele>181.25</ele><time>2026-04-12T09:32:11.609Z</time></trkpt><trkpt lat="43.9347772" lon="12.3433006"><ele>180.5</ele><time>2026-04-12T09:32:12.609Z</time></trkpt><trkpt lat="43.9346684" lon="12.343439"><ele>179.75</ele><time>2026-04-12T09:32:13.609Z</time></trkpt><trkpt lat="43.9345802" lon="12.3436225"><ele>179.0</ele><time>2026-04-12T09:32:14.609Z</time></trkpt><trkpt lat="43.9345272" lon="12.3438441"><ele>179.0</ele><time>2026-04-12T09:32:15.609Z</time></trkpt><trkpt lat="43.9344806" lon="12.3440765"><ele>179.0</ele><time>2026-04-12T09:32:16.609Z</time></trkpt><trkpt lat="43.934457" lon="12.3443079"><ele>179.0</ele><time>2026-04-12T09:32:17.609Z</time></trkpt><trkpt lat="43.9344739" lon="12.3445359"><ele>180.0</ele><time>2026-04-12T09:32:18.609Z</time></trkpt><trkpt lat="43.9345275" lon="12.344768"><ele>181.0</ele><time>2026-04-12T09:32:19.608Z</time></trkpt><trkpt lat="43.9346241" lon="12.3450078"><ele>182.0</ele><time>2026-04-12T09:32:20.609Z</time></trkpt><trkpt lat="43.9347405" lon="12.345231"><ele>182.0</ele><time>2026-04-12T09:32:21.608Z</time></trkpt><trkpt lat="43.934852" lon="12.3454358"><ele>182.0</ele><time>2026-04-12T09:32:22.609Z</time></trkpt><trkpt lat="43.9349468" lon="12.3456326"><ele>182.0</ele><time>2026-04-12T09:32:23.608Z</time></trkpt><trkpt lat="43.9350416" lon="12.3458182"><ele>180.66666666666666</ele><time>2026-04-12T09:32:24.609Z</time></trkpt><trkpt lat="43.9351459" lon="12.3459931"><ele>179.33333333333334</ele><time>2026-04-12T09:32:25.609Z</time></trkpt><trkpt lat="43.9352707" lon="12.3461459"><ele>178.0</ele><time>2026-04-12T09:32:26.609Z</time></trkpt><trkpt lat="43.9354402" lon="12.346276"><ele>180.5</ele><time>2026-04-12T09:32:27.608Z</time></trkpt><trkpt lat="43.9356619" lon="12.3463885"><ele>183.0</ele><time>2026-04-12T09:32:28.609Z</time></trkpt><trkpt lat="43.9359" lon="12.3465069"><ele>183.0</ele><time>2026-04-12T09:32:29.608Z</time></trkpt><trkpt lat="43.9361621" lon="12.3466413"><ele>183.0</ele><time>2026-04-12T09:32:30.609Z</time></trkpt><trkpt lat="43.9364245" lon="12.3467794"><ele>183.0</ele><time>2026-04-12T09:32:31.609Z</time></trkpt><trkpt lat="43.9366693" lon="12.346901"><ele>183.0</ele><time>2026-04-12T09:32:32.608Z</time></trkpt><trkpt lat="43.9368992" lon="12.3470205"><ele>183.5</ele><time>2026-04-12T09:32:33.608Z</time></trkpt><trkpt lat="43.9371159" lon="12.3471665"><ele>184.0</ele><time>2026-04-12T09:32:34.609Z</time></trkpt><trkpt lat="43.9373217" lon="12.3473452"><ele>184.0</ele><time>2026-04-12T09:32:35.609Z</time></trkpt><trkpt lat="43.937514" lon="12.3475297"><ele>184.0</ele><time>2026-04-12T09:32:36.609Z</time></trkpt><trkpt lat="43.9376955" lon="12.3477054"><ele>183.33333333333334</ele><time>2026-04-12T09:32:37.609Z</time></trkpt><trkpt lat="43.93786" lon="12.3478674"><ele>182.66666666666666</ele><time>2026-04-12T09:32:38.609Z</time></trkpt><trkpt lat="43.9380029" lon="12.3480277"><ele>182.0</ele><time>2026-04-12T09:32:39.608Z</time></trkpt><trkpt lat="43.938124" lon="12.3482126"><ele>182.0</ele><time>2026-04-12T09:32:40.609Z</time></trkpt><trkpt lat="43.9382221" lon="12.3484332"><ele>182.0</ele><time>2026-04-12T09:32:41.609Z</time></trkpt><trkpt lat="43.9382882" lon="12.3486826"><ele>182.0</ele><time>2026-04-12T09:32:42.608Z</time></trkpt><trkpt lat="43.9383235" lon="12.3489594"><ele>182.33333333333331</ele><time>2026-04-12T09:32:43.608Z</time></trkpt><trkpt lat="43.938318" lon="12.3492577"><ele>182.66666666666666</ele><time>2026-04-12T09:32:44.609Z</time></trkpt><trkpt lat="43.9382821" lon="12.3495686"><ele>183.0</ele><time>2026-04-12T09:32:45.609Z</time></trkpt><trkpt lat="43.9382386" lon="12.3498814"><ele>181.66666666666666</ele><time>2026-04-12T09:32:46.608Z</time></trkpt><trkpt lat="43.9381776" lon="12.3501865"><ele>180.33333333333331</ele><time>2026-04-12T09:32:47.608Z</time></trkpt><trkpt lat="43.9381508" lon="12.3504626"><ele>179.0</ele><time>2026-04-12T09:32:48.609Z</time></trkpt><trkpt lat="43.9381374" lon="12.3507184"><ele>179.0</ele><time>2026-04-12T09:32:49.609Z</time></trkpt><trkpt lat="43.9381493" lon="12.3509727"><ele>179.0</ele><time>2026-04-12T09:32:50.609Z</time></trkpt><trkpt lat="43.938195" lon="12.3512188"><ele>179.0</ele><time>2026-04-12T09:32:51.609Z</time></trkpt><trkpt lat="43.9382846" lon="12.3514546"><ele>175.0</ele><time>2026-04-12T09:32:52.608Z</time></trkpt><trkpt lat="43.9384165" lon="12.3516827"><ele>171.0</ele><time>2026-04-12T09:32:53.609Z</time></trkpt><trkpt lat="43.9385743" lon="12.351904"><ele>167.0</ele><time>2026-04-12T09:32:54.609Z</time></trkpt><trkpt lat="43.9387338" lon="12.3521283"><ele>168.33333333333331</ele><time>2026-04-12T09:32:55.609Z</time></trkpt><trkpt lat="43.9388898" lon="12.3523548"><ele>169.66666666666666</ele><time>2026-04-12T09:32:56.609Z</time></trkpt><trkpt lat="43.9390449" lon="12.3525771"><ele>171.0</ele><time>2026-04-12T09:32:57.609Z</time></trkpt><trkpt lat="43.9391995" lon="12.3527981"><ele>169.33333333333334</ele><time>2026-04-12T09:32:58.608Z</time></trkpt><trkpt lat="43.9393517" lon="12.3530181"><ele>167.66666666666669</ele><time>2026-04-12T09:32:59.608Z</time></trkpt><trkpt lat="43.9395117" lon="12.3532211"><ele>166.0</ele><time>2026-04-12T09:33:00.609Z</time></trkpt><trkpt lat="43.9396765" lon="12.3534001"><ele>166.0</ele><time>2026-04-12T09:33:01.608Z</time></trkpt><trkpt lat="43.9398453" lon="12.3535665"><ele>166.0</ele><time>2026-04-12T09:33:02.608Z</time></trkpt><trkpt lat="43.9400163" lon="12.3537339"><ele>166.0</ele><time>2026-04-12T09:33:03.609Z</time></trkpt><trkpt lat="43.9401969" lon="12.3539044"><ele>164.5</ele><time>2026-04-12T09:33:04.609Z</time></trkpt><trkpt lat="43.9403933" lon="12.3540814"><ele>163.0</ele><time>2026-04-12T09:33:05.608Z</time></trkpt><trkpt lat="43.9405951" lon="12.3542661"><ele>163.0</ele><time>2026-04-12T09:33:06.608Z</time></trkpt><trkpt lat="43.9408125" lon="12.3544578"><ele>163.0</ele><time>2026-04-12T09:33:07.608Z</time></trkpt><trkpt lat="43.9410508" lon="12.3546647"><ele>163.0</ele><time>2026-04-12T09:33:08.609Z</time></trkpt><trkpt lat="43.9413082" lon="12.3548874"><ele>163.0</ele><time>2026-04-12T09:33:09.609Z</time></trkpt><trkpt lat="43.9415774" lon="12.3551359"><ele>162.0</ele><time>2026-04-12T09:33:10.609Z</time></trkpt><trkpt lat="43.9418557" lon="12.3553981"><ele>161.0</ele><time>2026-04-12T09:33:11.608Z</time></trkpt><trkpt lat="43.9421261" lon="12.3556519"><ele>161.0</ele><time>2026-04-12T09:33:12.609Z</time></trkpt><trkpt lat="43.9423975" lon="12.355896"><ele>161.0</ele><time>2026-04-12T09:33:13.608Z</time></trkpt><trkpt lat="43.942663" lon="12.3561347"><ele>161.5</ele><time>2026-04-12T09:33:14.609Z</time></trkpt><trkpt lat="43.9429178" lon="12.3563767"><ele>162.0</ele><time>2026-04-12T09:33:15.609Z</time></trkpt><trkpt lat="43.9431603" lon="12.356633"><ele>162.0</ele><time>2026-04-12T09:33:16.609Z</time></trkpt><trkpt lat="43.9433779" lon="12.3569145"><ele>162.0</ele><time>2026-04-12T09:33:17.609Z</time></trkpt><trkpt lat="43.9435718" lon="12.3572074"><ele>161.0</ele><time>2026-04-12T09:33:18.609Z</time></trkpt><trkpt lat="43.9437485" lon="12.3574985"><ele>160.0</ele><time>2026-04-12T09:33:19.608Z</time></trkpt><trkpt lat="43.9439208" lon="12.357777"><ele>161.0</ele><time>2026-04-12T09:33:20.609Z</time></trkpt><trkpt lat="43.9440924" lon="12.3580521"><ele>162.0</ele><time>2026-04-12T09:33:21.609Z</time></trkpt><trkpt lat="43.9442637" lon="12.3583365"><ele>161.0</ele><time>2026-04-12T09:33:22.608Z</time></trkpt><trkpt lat="43.9444382" lon="12.3586294"><ele>160.0</ele><time>2026-04-12T09:33:23.609Z</time></trkpt><trkpt lat="43.9446125" lon="12.3589123"><ele>160.0</ele><time>2026-04-12T09:33:24.609Z</time></trkpt><trkpt lat="43.9447758" lon="12.3591816"><ele>160.0</ele><time>2026-04-12T09:33:25.608Z</time></trkpt><trkpt lat="43.9449314" lon="12.3594327"><ele>160.0</ele><time>2026-04-12T09:33:26.609Z</time></trkpt><trkpt lat="43.9450811" lon="12.3596668"><ele>160.0</ele><time>2026-04-12T09:33:27.609Z</time></trkpt><trkpt lat="43.945226" lon="12.3598872"><ele>160.0</ele><time>2026-04-12T09:33:28.609Z</time></trkpt><trkpt lat="43.9453698" lon="12.3601053"><ele>160.0</ele><time>2026-04-12T09:33:29.609Z</time></trkpt><trkpt lat="43.9455306" lon="12.3603041"><ele>160.0</ele><time>2026-04-12T09:33:30.609Z</time></trkpt><trkpt lat="43.945728" lon="12.3604744"><ele>160.0</ele><time>2026-04-12T09:33:31.608Z</time></trkpt><trkpt lat="43.9459523" lon="12.360637"><ele>160.5</ele><time>2026-04-12T09:33:32.609Z</time></trkpt><trkpt lat="43.9461748" lon="12.3608032"><ele>161.0</ele><time>2026-04-12T09:33:33.609Z</time></trkpt><trkpt lat="43.9463813" lon="12.3609638"><ele>161.0</ele><time>2026-04-12T09:33:34.608Z</time></trkpt><trkpt lat="43.9465702" lon="12.3611213"><ele>161.0</ele><time>2026-04-12T09:33:35.608Z</time></trkpt><trkpt lat="43.9467465" lon="12.3612729"><ele>161.0</ele><time>2026-04-12T09:33:36.608Z</time></trkpt><trkpt lat="43.9469221" lon="12.3614255"><ele>161.66666666666666</ele><time>2026-04-12T09:33:37.609Z</time></trkpt><trkpt lat="43.9470886" lon="12.3615848"><ele>162.33333333333334</ele><time>2026-04-12T09:33:38.609Z</time></trkpt><trkpt lat="43.9472544" lon="12.3617506"><ele>163.0</ele><time>2026-04-12T09:33:39.608Z</time></trkpt><trkpt lat="43.9474152" lon="12.3619188"><ele>163.0</ele><time>2026-04-12T09:33:40.609Z</time></trkpt><trkpt lat="43.94757" lon="12.3620884"><ele>163.0</ele><time>2026-04-12T09:33:41.608Z</time></trkpt><trkpt lat="43.9477268" lon="12.3622687"><ele>163.0</ele><time>2026-04-12T09:33:42.609Z</time></trkpt><trkpt lat="43.9478823" lon="12.3624701"><ele>163.0</ele><time>2026-04-12T09:33:43.608Z</time></trkpt><trkpt lat="43.9480261" lon="12.3626931"><ele>163.0</ele><time>2026-04-12T09:33:44.609Z</time></trkpt><trkpt lat="43.9481578" lon="12.3629374"><ele>163.0</ele><time>2026-04-12T09:33:45.609Z</time></trkpt><trkpt lat="43.9482801" lon="12.363195"><ele>162.0</ele><time>2026-04-12T09:33:46.609Z</time></trkpt><trkpt lat="43.9483983" lon="12.3634705"><ele>161.0</ele><time>2026-04-12T09:33:47.608Z</time></trkpt><trkpt lat="43.9485163" lon="12.3637685"><ele>161.0</ele><time>2026-04-12T09:33:48.608Z</time></trkpt><trkpt lat="43.9486369" lon="12.3640853"><ele>161.0</ele><time>2026-04-12T09:33:49.609Z</time></trkpt><trkpt lat="43.9487495" lon="12.3643989"><ele>161.0</ele><time>2026-04-12T09:33:50.609Z</time></trkpt><trkpt lat="43.9488611" lon="12.3646958"><ele>161.0</ele><time>2026-04-12T09:33:51.609Z</time></trkpt><trkpt lat="43.9489812" lon="12.3649662"><ele>163.0</ele><time>2026-04-12T09:33:52.609Z</time></trkpt><trkpt lat="43.9491161" lon="12.3652055"><ele>165.0</ele><time>2026-04-12T09:33:53.609Z</time></trkpt><trkpt lat="43.9492575" lon="12.3654218"><ele>167.0</ele><time>2026-04-12T09:33:54.609Z</time></trkpt><trkpt lat="43.9494019" lon="12.3656302"><ele>167.0</ele><time>2026-04-12T09:33:55.609Z</time></trkpt><trkpt lat="43.949557" lon="12.365833"><ele>167.0</ele><time>2026-04-12T09:33:56.608Z</time></trkpt><trkpt lat="43.9497184" lon="12.3660326"><ele>167.0</ele><time>2026-04-12T09:33:57.609Z</time></trkpt><trkpt lat="43.9498869" lon="12.3662266"><ele>163.66666666666666</ele><time>2026-04-12T09:33:58.609Z</time></trkpt><trkpt lat="43.9500585" lon="12.3664108"><ele>160.33333333333334</ele><time>2026-04-12T09:33:59.609Z</time></trkpt><trkpt lat="43.9502171" lon="12.3665849"><ele>157.0</ele><time>2026-04-12T09:34:00.608Z</time></trkpt><trkpt lat="43.9503663" lon="12.3667557"><ele>157.0</ele><time>2026-04-12T09:34:01.608Z</time></trkpt><trkpt lat="43.9505066" lon="12.3669168"><ele>157.0</ele><time>2026-04-12T09:34:02.609Z</time></trkpt><trkpt lat="43.9506408" lon="12.367074"><ele>157.0</ele><time>2026-04-12T09:34:03.609Z</time></trkpt><trkpt lat="43.950773" lon="12.3672262"><ele>158.0</ele><time>2026-04-12T09:34:04.609Z</time></trkpt><trkpt lat="43.9509113" lon="12.3673788"><ele>159.0</ele><time>2026-04-12T09:34:05.609Z</time></trkpt><trkpt lat="43.9510558" lon="12.3675397"><ele>160.0</ele><time>2026-04-12T09:34:06.608Z</time></trkpt><trkpt lat="43.9511974" lon="12.3677029"><ele>160.0</ele><time>2026-04-12T09:34:07.609Z</time></trkpt><trkpt lat="43.9513328" lon="12.3678561"><ele>160.0</ele><time>2026-04-12T09:34:08.609Z</time></trkpt><trkpt lat="43.9514623" lon="12.3680083"><ele>160.0</ele><time>2026-04-12T09:34:09.608Z</time></trkpt><trkpt lat="43.9515792" lon="12.3681554"><ele>161.66666666666669</ele><time>2026-04-12T09:34:10.608Z</time></trkpt><trkpt lat="43.9516906" lon="12.3683023"><ele>163.33333333333334</ele><time>2026-04-12T09:34:11.609Z</time></trkpt><trkpt lat="43.9517974" lon="12.3684479"><ele>165.0</ele><time>2026-04-12T09:34:12.608Z</time></trkpt><trkpt lat="43.9518979" lon="12.3685994"><ele>165.0</ele><time>2026-04-12T09:34:13.608Z</time></trkpt><trkpt lat="43.9519917" lon="12.3687644"><ele>165.0</ele><time>2026-04-12T09:34:14.608Z</time></trkpt><trkpt lat="43.9520921" lon="12.3689469"><ele>165.0</ele><time>2026-04-12T09:34:15.609Z</time></trkpt><trkpt lat="43.952188" lon="12.3691346"><ele>165.66666666666666</ele><time>2026-04-12T09:34:16.609Z</time></trkpt><trkpt lat="43.9522749" lon="12.3693194"><ele>166.33333333333331</ele><time>2026-04-12T09:34:17.609Z</time></trkpt><trkpt lat="43.9523525" lon="12.3695092"><ele>167.0</ele><time>2026-04-12T09:34:18.608Z</time></trkpt><trkpt lat="43.9524229" lon="12.3697033"><ele>167.33333333333331</ele><time>2026-04-12T09:34:19.608Z</time></trkpt><trkpt lat="43.9524865" lon="12.3698957"><ele>167.66666666666666</ele><time>2026-04-12T09:34:20.609Z</time></trkpt><trkpt lat="43.952546" lon="12.3700874"><ele>168.0</ele><time>2026-04-12T09:34:21.608Z</time></trkpt><trkpt lat="43.952602" lon="12.3702763"><ele>167.0</ele><time>2026-04-12T09:34:22.609Z</time></trkpt><trkpt lat="43.9526538" lon="12.3704619"><ele>166.0</ele><time>2026-04-12T09:34:23.608Z</time></trkpt><trkpt lat="43.952708" lon="12.3706371"><ele>165.0</ele><time>2026-04-12T09:34:24.608Z</time></trkpt><trkpt lat="43.9527559" lon="12.370804"><ele>164.0</ele><time>2026-04-12T09:34:25.609Z</time></trkpt><trkpt lat="43.9528035" lon="12.3709665"><ele>164.0</ele><time>2026-04-12T09:34:26.608Z</time></trkpt><trkpt lat="43.9528478" lon="12.37113"><ele>164.0</ele><time>2026-04-12T09:34:27.608Z</time></trkpt><trkpt lat="43.9528926" lon="12.3712918"><ele>164.0</ele><time>2026-04-12T09:34:28.609Z</time></trkpt><trkpt lat="43.9529386" lon="12.3714544"><ele>164.0</ele><time>2026-04-12T09:34:29.609Z</time></trkpt><trkpt lat="43.9529839" lon="12.3716167"><ele>164.0</ele><time>2026-04-12T09:34:30.609Z</time></trkpt><trkpt lat="43.9530317" lon="12.3717803"><ele>164.0</ele><time>2026-04-12T09:34:31.609Z</time></trkpt><trkpt lat="43.9530809" lon="12.3719406"><ele>164.0</ele><time>2026-04-12T09:34:32.608Z</time></trkpt><trkpt lat="43.9531254" lon="12.3720945"><ele>164.0</ele><time>2026-04-12T09:34:33.608Z</time></trkpt><trkpt lat="43.9531649" lon="12.3722389"><ele>164.2</ele><time>2026-04-12T09:34:34.609Z</time></trkpt><trkpt lat="43.9532028" lon="12.3723724"><ele>164.39999999999998</ele><time>2026-04-12T09:34:35.608Z</time></trkpt><trkpt lat="43.9532354" lon="12.3724948"><ele>164.6</ele><time>2026-04-12T09:34:36.608Z</time></trkpt><trkpt lat="43.9532609" lon="12.3726121"><ele>164.8</ele><time>2026-04-12T09:34:37.608Z</time></trkpt><trkpt lat="43.9532755" lon="12.3727243"><ele>165.0</ele><time>2026-04-12T09:34:38.609Z</time></trkpt><trkpt lat="43.9532821" lon="12.3728414"><ele>165.0</ele><time>2026-04-12T09:34:39.609Z</time></trkpt><trkpt lat="43.9532917" lon="12.3729646"><ele>165.0</ele><time>2026-04-12T09:34:40.609Z</time></trkpt><trkpt lat="43.9533184" lon="12.3730805"><ele>165.0</ele><time>2026-04-12T09:34:41.609Z</time></trkpt><trkpt lat="43.9533681" lon="12.3731864"><ele>165.0</ele><time>2026-04-12T09:34:42.608Z</time></trkpt><trkpt lat="43.9534312" lon="12.3732838"><ele>165.0</ele><time>2026-04-12T09:34:43.609Z</time></trkpt><trkpt lat="43.95349" lon="12.3733954"><ele>164.25</ele><time>2026-04-12T09:34:44.608Z</time></trkpt><trkpt lat="43.9535453" lon="12.3735222"><ele>163.5</ele><time>2026-04-12T09:34:45.609Z</time></trkpt><trkpt lat="43.9536043" lon="12.3736755"><ele>162.75</ele><time>2026-04-12T09:34:46.609Z</time></trkpt><trkpt lat="43.9536663" lon="12.3738595"><ele>162.0</ele><time>2026-04-12T09:34:47.608Z</time></trkpt><trkpt lat="43.9537385" lon="12.3740804"><ele>162.0</ele><time>2026-04-12T09:34:48.609Z</time></trkpt><trkpt lat="43.9538091" lon="12.3743309"><ele>162.0</ele><time>2026-04-12T09:34:49.609Z</time></trkpt><trkpt lat="43.9538775" lon="12.3746034"><ele>162.0</ele><time>2026-04-12T09:34:50.609Z</time></trkpt><trkpt lat="43.9539498" lon="12.3748871"><ele>162.33333333333334</ele><time>2026-04-12T09:34:51.609Z</time></trkpt><trkpt lat="43.9540248" lon="12.3751672"><ele>162.66666666666669</ele><time>2026-04-12T09:34:52.609Z</time></trkpt><trkpt lat="43.954109" lon="12.3754447"><ele>163.0</ele><time>2026-04-12T09:34:53.609Z</time></trkpt><trkpt lat="43.9541881" lon="12.3757164"><ele>161.0</ele><time>2026-04-12T09:34:54.609Z</time></trkpt><trkpt lat="43.9542722" lon="12.3759821"><ele>159.0</ele><time>2026-04-12T09:34:55.609Z</time></trkpt><trkpt lat="43.9543606" lon="12.3762512"><ele>157.0</ele><time>2026-04-12T09:34:56.609Z</time></trkpt><trkpt lat="43.9544553" lon="12.3765187"><ele>157.0</ele><time>2026-04-12T09:34:57.608Z</time></trkpt><trkpt lat="43.9545555" lon="12.3767895"><ele>157.0</ele><time>2026-04-12T09:34:58.609Z</time></trkpt><trkpt lat="43.9546604" lon="12.3770571"><ele>157.0</ele><time>2026-04-12T09:34:59.608Z</time></trkpt><trkpt lat="43.9547586" lon="12.3773232"><ele>158.33333333333334</ele><time>2026-04-12T09:35:00.609Z</time></trkpt><trkpt lat="43.95486" lon="12.3775867"><ele>159.66666666666666</ele><time>2026-04-12T09:35:01.609Z</time></trkpt><trkpt lat="43.9549717" lon="12.3778467"><ele>161.0</ele><time>2026-04-12T09:35:02.609Z</time></trkpt><trkpt lat="43.9550817" lon="12.3781017"><ele>157.66666666666666</ele><time>2026-04-12T09:35:03.609Z</time></trkpt><trkpt lat="43.95518" lon="12.378355"><ele>154.33333333333334</ele><time>2026-04-12T09:35:04.609Z</time></trkpt><trkpt lat="43.9552767" lon="12.3785967"><ele>151.0</ele><time>2026-04-12T09:35:05.609Z</time></trkpt><trkpt lat="43.955375" lon="12.3788317"><ele>151.66666666666669</ele><time>2026-04-12T09:35:06.608Z</time></trkpt><trkpt lat="43.9554683" lon="12.37906"><ele>152.33333333333334</ele><time>2026-04-12T09:35:07.609Z</time></trkpt><trkpt lat="43.9555567" lon="12.37928"><ele>153.0</ele><time>2026-04-12T09:35:08.608Z</time></trkpt><trkpt lat="43.9556433" lon="12.3794917"><ele>154.66666666666666</ele><time>2026-04-12T09:35:09.609Z</time></trkpt><trkpt lat="43.955735" lon="12.3797083"><ele>156.33333333333331</ele><time>2026-04-12T09:35:10.608Z</time></trkpt><trkpt lat="43.95582" lon="12.3799383"><ele>158.0</ele><time>2026-04-12T09:35:11.609Z</time></trkpt><trkpt lat="43.95592" lon="12.3801767"><ele>154.33333333333331</ele><time>2026-04-12T09:35:12.609Z</time></trkpt><trkpt lat="43.956015" lon="12.3804167"><ele>150.66666666666666</ele><time>2026-04-12T09:35:13.609Z</time></trkpt><trkpt lat="43.9561217" lon="12.3806733"><ele>147.0</ele><time>2026-04-12T09:35:14.609Z</time></trkpt><trkpt lat="43.9562333" lon="12.3809383"><ele>147.0</ele><time>2026-04-12T09:35:15.609Z</time></trkpt><trkpt lat="43.956345" lon="12.381205"><ele>147.0</ele><time>2026-04-12T09:35:16.609Z</time></trkpt><trkpt lat="43.956465" lon="12.3814717"><ele>147.0</ele><time>2026-04-12T09:35:17.609Z</time></trkpt><trkpt lat="43.95659" lon="12.3817633"><ele>143.5</ele><time>2026-04-12T09:35:18.609Z</time></trkpt><trkpt lat="43.95673" lon="12.382085"><ele>140.0</ele><time>2026-04-12T09:35:19.609Z</time></trkpt><trkpt lat="43.956865" lon="12.3824333"><ele>140.0</ele><time>2026-04-12T09:35:20.609Z</time></trkpt><trkpt lat="43.9570167" lon="12.3827867"><ele>140.0</ele><time>2026-04-12T09:35:21.609Z</time></trkpt><trkpt lat="43.95716" lon="12.383125"><ele>143.5</ele><time>2026-04-12T09:35:22.609Z</time></trkpt><trkpt lat="43.9572983" lon="12.3834417"><ele>147.0</ele><time>2026-04-12T09:35:23.608Z</time></trkpt><trkpt lat="43.95742" lon="12.3837467"><ele>148.5</ele><time>2026-04-12T09:35:24.608Z</time></trkpt><trkpt lat="43.957535" lon="12.38405"><ele>150.0</ele><time>2026-04-12T09:35:25.609Z</time></trkpt><trkpt lat="43.9576417" lon="12.3843567"><ele>142.0</ele><time>2026-04-12T09:35:26.608Z</time></trkpt><trkpt lat="43.95773" lon="12.3846767"><ele>134.0</ele><time>2026-04-12T09:35:27.608Z</time></trkpt><trkpt lat="43.9577933" lon="12.3850033"><ele>134.5</ele><time>2026-04-12T09:35:28.609Z</time></trkpt><trkpt lat="43.9578283" lon="12.3853533"><ele>135.0</ele><time>2026-04-12T09:35:29.609Z</time></trkpt><trkpt lat="43.95785" lon="12.3857033"><ele>135.0</ele><time>2026-04-12T09:35:30.609Z</time></trkpt><trkpt lat="43.95784" lon="12.386065"><ele>135.0</ele><time>2026-04-12T09:35:31.609Z</time></trkpt><trkpt lat="43.9578" lon="12.38643"><ele>134.5</ele><time>2026-04-12T09:35:32.609Z</time></trkpt><trkpt lat="43.9577283" lon="12.3867883"><ele>134.0</ele><time>2026-04-12T09:35:33.609Z</time></trkpt><trkpt lat="43.9576333" lon="12.3871533"><ele>136.0</ele><time>2026-04-12T09:35:34.609Z</time></trkpt><trkpt lat="43.9575317" lon="12.38752"><ele>138.0</ele><time>2026-04-12T09:35:35.609Z</time></trkpt><trkpt lat="43.957435" lon="12.3878817"><ele>136.0</ele><time>2026-04-12T09:35:36.608Z</time></trkpt><trkpt lat="43.9573383" lon="12.3882383"><ele>134.0</ele><time>2026-04-12T09:35:37.608Z</time></trkpt><trkpt lat="43.957255" lon="12.3885833"><ele>132.0</ele><time>2026-04-12T09:35:38.609Z</time></trkpt><trkpt lat="43.9571667" lon="12.3889283"><ele>130.0</ele><time>2026-04-12T09:35:39.609Z</time></trkpt><trkpt lat="43.9570883" lon="12.3892833"><ele>130.0</ele><time>2026-04-12T09:35:40.609Z</time></trkpt><trkpt lat="43.9570267" lon="12.3896517"><ele>130.0</ele><time>2026-04-12T09:35:41.608Z</time></trkpt><trkpt lat="43.95698" lon="12.3900283"><ele>130.0</ele><time>2026-04-12T09:35:42.608Z</time></trkpt><trkpt lat="43.956955" lon="12.390415"><ele>130.0</ele><time>2026-04-12T09:35:43.609Z</time></trkpt><trkpt lat="43.95695" lon="12.3908"><ele>130.0</ele><time>2026-04-12T09:35:44.609Z</time></trkpt><trkpt lat="43.956965" lon="12.3911933"><ele>130.0</ele><time>2026-04-12T09:35:45.609Z</time></trkpt><trkpt lat="43.9570133" lon="12.3915917"><ele>130.0</ele><time>2026-04-12T09:35:46.609Z</time></trkpt><trkpt lat="43.95709" lon="12.3919933"><ele>130.0</ele><time>2026-04-12T09:35:47.608Z</time></trkpt><trkpt lat="43.957195" lon="12.3923933"><ele>130.5</ele><time>2026-04-12T09:35:48.609Z</time></trkpt><trkpt lat="43.9573233" lon="12.3927983"><ele>131.0</ele><time>2026-04-12T09:35:49.609Z</time></trkpt><trkpt lat="43.9574667" lon="12.3932017"><ele>129.5</ele><time>2026-04-12T09:35:50.609Z</time></trkpt><trkpt lat="43.9576117" lon="12.3935983"><ele>128.0</ele><time>2026-04-12T09:35:51.609Z</time></trkpt><trkpt lat="43.9577483" lon="12.3939733"><ele>128.0</ele><time>2026-04-12T09:35:52.608Z</time></trkpt><trkpt lat="43.9578717" lon="12.3943383"><ele>128.0</ele><time>2026-04-12T09:35:53.609Z</time></trkpt><trkpt lat="43.957995" lon="12.39469"><ele>130.0</ele><time>2026-04-12T09:35:54.608Z</time></trkpt><trkpt lat="43.9581133" lon="12.3950283"><ele>132.0</ele><time>2026-04-12T09:35:55.609Z</time></trkpt><trkpt lat="43.9582283" lon="12.39536"><ele>129.5</ele><time>2026-04-12T09:35:56.609Z</time></trkpt><trkpt lat="43.95834" lon="12.39568"><ele>127.0</ele><time>2026-04-12T09:35:57.608Z</time></trkpt><trkpt lat="43.9584533" lon="12.3959833"><ele>127.0</ele><time>2026-04-12T09:35:58.608Z</time></trkpt><trkpt lat="43.958555" lon="12.3962783"><ele>127.0</ele><time>2026-04-12T09:35:59.609Z</time></trkpt><trkpt lat="43.95865" lon="12.39657"><ele>128.5</ele><time>2026-04-12T09:36:00.609Z</time></trkpt><trkpt lat="43.9587433" lon="12.3968617"><ele>130.0</ele><time>2026-04-12T09:36:01.609Z</time></trkpt><trkpt lat="43.9588417" lon="12.3971433"><ele>132.33333333333334</ele><time>2026-04-12T09:36:02.609Z</time></trkpt><trkpt lat="43.9589433" lon="12.3974017"><ele>134.66666666666666</ele><time>2026-04-12T09:36:03.609Z</time></trkpt><trkpt lat="43.9590417" lon="12.3976317"><ele>137.0</ele><time>2026-04-12T09:36:04.609Z</time></trkpt><trkpt lat="43.9591433" lon="12.3978567"><ele>135.33333333333331</ele><time>2026-04-12T09:36:05.608Z</time></trkpt><trkpt lat="43.9592583" lon="12.3980833"><ele>133.66666666666666</ele><time>2026-04-12T09:36:06.609Z</time></trkpt><trkpt lat="43.95937" lon="12.398325"><ele>132.0</ele><time>2026-04-12T09:36:07.609Z</time></trkpt><trkpt lat="43.9594917" lon="12.3985717"><ele>132.0</ele><time>2026-04-12T09:36:08.609Z</time></trkpt><trkpt lat="43.9596267" lon="12.3988183"><ele>132.0</ele><time>2026-04-12T09:36:09.609Z</time></trkpt><trkpt lat="43.9597567" lon="12.3990667"><ele>132.0</ele><time>2026-04-12T09:36:10.608Z</time></trkpt><trkpt lat="43.95989" lon="12.3993233"><ele>128.5</ele><time>2026-04-12T09:36:11.609Z</time></trkpt><trkpt lat="43.9600283" lon="12.399575"><ele>125.0</ele><time>2026-04-12T09:36:12.61Z</time></trkpt><trkpt lat="43.9601667" lon="12.399835"><ele>125.0</ele><time>2026-04-12T09:36:13.61Z</time></trkpt><trkpt lat="43.96031" lon="12.4000967"><ele>125.0</ele><time>2026-04-12T09:36:14.61Z</time></trkpt><trkpt lat="43.9604417" lon="12.4003483"><ele>126.33333333333333</ele><time>2026-04-12T09:36:15.609Z</time></trkpt><trkpt lat="43.9605733" lon="12.4005883"><ele>127.66666666666666</ele><time>2026-04-12T09:36:16.61Z</time></trkpt><trkpt lat="43.9607017" lon="12.4008033"><ele>129.0</ele><time>2026-04-12T09:36:17.61Z</time></trkpt><trkpt lat="43.9608383" lon="12.4009933"><ele>129.66666666666666</ele><time>2026-04-12T09:36:18.61Z</time></trkpt><trkpt lat="43.9609567" lon="12.4011583"><ele>130.33333333333331</ele><time>2026-04-12T09:36:19.61Z</time></trkpt><trkpt lat="43.9610783" lon="12.4012917"><ele>131.0</ele><time>2026-04-12T09:36:20.609Z</time></trkpt><trkpt lat="43.9611783" lon="12.4014083"><ele>131.0</ele><time>2026-04-12T09:36:21.61Z</time></trkpt><trkpt lat="43.961245" lon="12.40154"><ele>131.0</ele><time>2026-04-12T09:36:22.61Z</time></trkpt><trkpt lat="43.9612967" lon="12.40167"><ele>131.0</ele><time>2026-04-12T09:36:23.609Z</time></trkpt><trkpt lat="43.9613667" lon="12.4017583"><ele>131.0</ele><time>2026-04-12T09:36:24.61Z</time></trkpt><trkpt lat="43.961465" lon="12.4018117"><ele>131.0</ele><time>2026-04-12T09:36:25.61Z</time></trkpt><trkpt lat="43.9616083" lon="12.401835"><ele>130.33333333333331</ele><time>2026-04-12T09:36:26.61Z</time></trkpt><trkpt lat="43.9617767" lon="12.4018783"><ele>129.66666666666666</ele><time>2026-04-12T09:36:27.609Z</time></trkpt><trkpt lat="43.9619317" lon="12.4019617"><ele>129.0</ele><time>2026-04-12T09:36:28.61Z</time></trkpt><trkpt lat="43.9620683" lon="12.402045"><ele>129.0</ele><time>2026-04-12T09:36:29.61Z</time></trkpt><trkpt lat="43.962195" lon="12.4021233"><ele>129.0</ele><time>2026-04-12T09:36:30.61Z</time></trkpt><trkpt lat="43.96232" lon="12.4021967"><ele>129.0</ele><time>2026-04-12T09:36:31.609Z</time></trkpt><trkpt lat="43.9624383" lon="12.402265"><ele>129.0</ele><time>2026-04-12T09:36:32.61Z</time></trkpt><trkpt lat="43.96257" lon="12.4023483"><ele>129.0</ele><time>2026-04-12T09:36:33.61Z</time></trkpt><trkpt lat="43.9627183" lon="12.402425"><ele>129.0</ele><time>2026-04-12T09:36:34.61Z</time></trkpt><trkpt lat="43.9628717" lon="12.4025167"><ele>129.0</ele><time>2026-04-12T09:36:35.61Z</time></trkpt><trkpt lat="43.9630333" lon="12.4026167"><ele>129.0</ele><time>2026-04-12T09:36:36.609Z</time></trkpt><trkpt lat="43.9632083" lon="12.4027383"><ele>129.0</ele><time>2026-04-12T09:36:37.609Z</time></trkpt><trkpt lat="43.9633883" lon="12.4028633"><ele>129.0</ele><time>2026-04-12T09:36:38.61Z</time></trkpt><trkpt lat="43.9635617" lon="12.4029967"><ele>129.0</ele><time>2026-04-12T09:36:39.61Z</time></trkpt><trkpt lat="43.96372" lon="12.4031433"><ele>129.0</ele><time>2026-04-12T09:36:40.609Z</time></trkpt><trkpt lat="43.96387" lon="12.4032917"><ele>129.0</ele><time>2026-04-12T09:36:41.609Z</time></trkpt><trkpt lat="43.9640133" lon="12.40344"><ele>129.0</ele><time>2026-04-12T09:36:42.609Z</time></trkpt><trkpt lat="43.9641433" lon="12.403595"><ele>129.0</ele><time>2026-04-12T09:36:43.61Z</time></trkpt><trkpt lat="43.96427" lon="12.4037517"><ele>129.0</ele><time>2026-04-12T09:36:44.609Z</time></trkpt><trkpt lat="43.9643917" lon="12.40392"><ele>126.33333333333334</ele><time>2026-04-12T09:36:45.609Z</time></trkpt><trkpt lat="43.9645117" lon="12.4040983"><ele>123.66666666666667</ele><time>2026-04-12T09:36:46.609Z</time></trkpt><trkpt lat="43.9646467" lon="12.4042733"><ele>121.0</ele><time>2026-04-12T09:36:47.61Z</time></trkpt><trkpt lat="43.9647917" lon="12.4044833"><ele>120.5</ele><time>2026-04-12T09:36:48.61Z</time></trkpt><trkpt lat="43.96496" lon="12.4047283"><ele>120.0</ele><time>2026-04-12T09:36:49.61Z</time></trkpt><trkpt lat="43.965135" lon="12.4049833"><ele>120.0</ele><time>2026-04-12T09:36:50.61Z</time></trkpt><trkpt lat="43.9653167" lon="12.4052467"><ele>120.0</ele><time>2026-04-12T09:36:51.61Z</time></trkpt><trkpt lat="43.9655" lon="12.40551"><ele>119.0</ele><time>2026-04-12T09:36:52.61Z</time></trkpt><trkpt lat="43.9656967" lon="12.4057717"><ele>118.0</ele><time>2026-04-12T09:36:53.61Z</time></trkpt><trkpt lat="43.9658933" lon="12.406055"><ele>118.5</ele><time>2026-04-12T09:36:54.61Z</time></trkpt><trkpt lat="43.9660883" lon="12.4063633"><ele>119.0</ele><time>2026-04-12T09:36:55.609Z</time></trkpt><trkpt lat="43.96628" lon="12.40668"><ele>119.0</ele><time>2026-04-12T09:36:56.61Z</time></trkpt><trkpt lat="43.966455" lon="12.40702"><ele>119.0</ele><time>2026-04-12T09:36:57.609Z</time></trkpt><trkpt lat="43.9666133" lon="12.4073733"><ele>118.0</ele><time>2026-04-12T09:36:58.61Z</time></trkpt><trkpt lat="43.9667633" lon="12.4077083"><ele>117.0</ele><time>2026-04-12T09:36:59.61Z</time></trkpt><trkpt lat="43.96691" lon="12.4080333"><ele>117.0</ele><time>2026-04-12T09:37:00.609Z</time></trkpt><trkpt lat="43.9670467" lon="12.4083567"><ele>117.0</ele><time>2026-04-12T09:37:01.609Z</time></trkpt><trkpt lat="43.9671717" lon="12.4086633"><ele>117.0</ele><time>2026-04-12T09:37:02.609Z</time></trkpt><trkpt lat="43.9673017" lon="12.40895"><ele>117.0</ele><time>2026-04-12T09:37:03.61Z</time></trkpt><trkpt lat="43.9674317" lon="12.4092267"><ele>115.5</ele><time>2026-04-12T09:37:04.61Z</time></trkpt><trkpt lat="43.9675583" lon="12.4095067"><ele>114.0</ele><time>2026-04-12T09:37:05.609Z</time></trkpt><trkpt lat="43.9676883" lon="12.409795"><ele>114.0</ele><time>2026-04-12T09:37:06.609Z</time></trkpt><trkpt lat="43.9678283" lon="12.4100717"><ele>114.0</ele><time>2026-04-12T09:37:07.609Z</time></trkpt><trkpt lat="43.96796" lon="12.4103483"><ele>116.0</ele><time>2026-04-12T09:37:08.609Z</time></trkpt><trkpt lat="43.9680917" lon="12.4106133"><ele>118.0</ele><time>2026-04-12T09:37:09.609Z</time></trkpt><trkpt lat="43.9682333" lon="12.4108683"><ele>118.0</ele><time>2026-04-12T09:37:10.61Z</time></trkpt><trkpt lat="43.9683883" lon="12.4111233"><ele>118.0</ele><time>2026-04-12T09:37:11.61Z</time></trkpt><trkpt lat="43.9685617" lon="12.4113617"><ele>118.0</ele><time>2026-04-12T09:37:12.61Z</time></trkpt><trkpt lat="43.9687633" lon="12.4115867"><ele>118.0</ele><time>2026-04-12T09:37:13.61Z</time></trkpt><trkpt lat="43.9689933" lon="12.41178"><ele>116.0</ele><time>2026-04-12T09:37:14.61Z</time></trkpt><trkpt lat="43.9692383" lon="12.4119483"><ele>114.0</ele><time>2026-04-12T09:37:15.61Z</time></trkpt><trkpt lat="43.9694933" lon="12.4120917"><ele>116.5</ele><time>2026-04-12T09:37:16.609Z</time></trkpt><trkpt lat="43.96975" lon="12.4122083"><ele>119.0</ele><time>2026-04-12T09:37:17.61Z</time></trkpt><trkpt lat="43.9700017" lon="12.4122867"><ele>117.0</ele><time>2026-04-12T09:37:18.61Z</time></trkpt><trkpt lat="43.970245" lon="12.4123283"><ele>115.0</ele><time>2026-04-12T09:37:19.609Z</time></trkpt><trkpt lat="43.9704767" lon="12.41235"><ele>115.0</ele><time>2026-04-12T09:37:20.61Z</time></trkpt><trkpt lat="43.9707167" lon="12.4123467"><ele>115.0</ele><time>2026-04-12T09:37:21.61Z</time></trkpt><trkpt lat="43.97095" lon="12.4123217"><ele>115.0</ele><time>2026-04-12T09:37:22.61Z</time></trkpt><trkpt lat="43.9711733" lon="12.4122817"><ele>115.0</ele><time>2026-04-12T09:37:23.61Z</time></trkpt><trkpt lat="43.9713817" lon="12.4122167"><ele>115.0</ele><time>2026-04-12T09:37:24.61Z</time></trkpt><trkpt lat="43.971585" lon="12.412135"><ele>117.0</ele><time>2026-04-12T09:37:25.61Z</time></trkpt><trkpt lat="43.97177" lon="12.41207"><ele>119.0</ele><time>2026-04-12T09:37:26.61Z</time></trkpt><trkpt lat="43.971935" lon="12.4120117"><ele>121.0</ele><time>2026-04-12T09:37:27.61Z</time></trkpt><trkpt lat="43.9720733" lon="12.4119467"><ele>121.00000000000001</ele><time>2026-04-12T09:37:28.609Z</time></trkpt><trkpt lat="43.97218" lon="12.4118933"><ele>121.0</ele><time>2026-04-12T09:37:29.61Z</time></trkpt><trkpt lat="43.9722617" lon="12.411865"><ele>121.0</ele><time>2026-04-12T09:37:30.61Z</time></trkpt><trkpt lat="43.9723367" lon="12.41188"><ele>121.0</ele><time>2026-04-12T09:37:31.609Z</time></trkpt><trkpt lat="43.9723867" lon="12.4119467"><ele>121.00000000000001</ele><time>2026-04-12T09:37:32.61Z</time></trkpt><trkpt lat="43.9724133" lon="12.4120317"><ele>121.0</ele><time>2026-04-12T09:37:33.609Z</time></trkpt><trkpt lat="43.9724033" lon="12.4121333"><ele>122.0</ele><time>2026-04-12T09:37:34.61Z</time></trkpt><trkpt lat="43.97236" lon="12.4122483"><ele>123.0</ele><time>2026-04-12T09:37:35.609Z</time></trkpt><trkpt lat="43.9722883" lon="12.4123633"><ele>124.0</ele><time>2026-04-12T09:37:36.61Z</time></trkpt><trkpt lat="43.97224" lon="12.4124933"><ele>125.0</ele><time>2026-04-12T09:37:37.61Z</time></trkpt><trkpt lat="43.9722317" lon="12.4126217"><ele>126.0</ele><time>2026-04-12T09:37:38.61Z</time></trkpt><trkpt lat="43.9722617" lon="12.412735"><ele>126.0</ele><time>2026-04-12T09:37:39.61Z</time></trkpt><trkpt lat="43.9723117" lon="12.4128183"><ele>126.0</ele><time>2026-04-12T09:37:40.609Z</time></trkpt><trkpt lat="43.9724" lon="12.4128167"><ele>126.0</ele><time>2026-04-12T09:37:41.61Z</time></trkpt><trkpt lat="43.9725" lon="12.4127583"><ele>126.0</ele><time>2026-04-12T09:37:42.61Z</time></trkpt><trkpt lat="43.9726183" lon="12.4126567"><ele>126.0</ele><time>2026-04-12T09:37:43.61Z</time></trkpt><trkpt lat="43.9727267" lon="12.4125883"><ele>127.66666666666667</ele><time>2026-04-12T09:37:44.61Z</time></trkpt><trkpt lat="43.97281" lon="12.412585"><ele>129.33333333333334</ele><time>2026-04-12T09:37:45.61Z</time></trkpt><trkpt lat="43.972875" lon="12.4126383"><ele>131.0</ele><time>2026-04-12T09:37:46.609Z</time></trkpt><trkpt lat="43.9729" lon="12.4127367"><ele>132.66666666666669</ele><time>2026-04-12T09:37:47.61Z</time></trkpt><trkpt lat="43.9728833" lon="12.4128583"><ele>134.33333333333334</ele><time>2026-04-12T09:37:48.61Z</time></trkpt><trkpt lat="43.9728267" lon="12.4129983"><ele>136.0</ele><time>2026-04-12T09:37:49.609Z</time></trkpt><trkpt lat="43.9727633" lon="12.41318"><ele>138.33333333333334</ele><time>2026-04-12T09:37:50.609Z</time></trkpt><trkpt lat="43.9727167" lon="12.4134017"><ele>140.66666666666666</ele><time>2026-04-12T09:37:51.61Z</time></trkpt><trkpt lat="43.97269" lon="12.4136433"><ele>143.0</ele><time>2026-04-12T09:37:52.61Z</time></trkpt><trkpt lat="43.9726933" lon="12.413905"><ele>146.66666666666666</ele><time>2026-04-12T09:37:53.61Z</time></trkpt><trkpt lat="43.9727083" lon="12.4141867"><ele>150.33333333333334</ele><time>2026-04-12T09:37:54.61Z</time></trkpt><trkpt lat="43.9727383" lon="12.4145"><ele>154.0</ele><time>2026-04-12T09:37:55.61Z</time></trkpt><trkpt lat="43.9727783" lon="12.414785"><ele>155.66666666666669</ele><time>2026-04-12T09:37:56.609Z</time></trkpt><trkpt lat="43.9728133" lon="12.4150567"><ele>157.33333333333334</ele><time>2026-04-12T09:37:57.609Z</time></trkpt><trkpt lat="43.97284" lon="12.4153367"><ele>159.0</ele><time>2026-04-12T09:37:58.609Z</time></trkpt><trkpt lat="43.9728567" lon="12.4156117"><ele>159.66666666666666</ele><time>2026-04-12T09:37:59.61Z</time></trkpt><trkpt lat="43.97286" lon="12.4158883"><ele>160.33333333333331</ele><time>2026-04-12T09:38:00.61Z</time></trkpt><trkpt lat="43.9728517" lon="12.4161533"><ele>161.0</ele><time>2026-04-12T09:38:01.61Z</time></trkpt><trkpt lat="43.9728267" lon="12.4164033"><ele>161.33333333333331</ele><time>2026-04-12T09:38:02.61Z</time></trkpt><trkpt lat="43.9727933" lon="12.4166317"><ele>161.66666666666666</ele><time>2026-04-12T09:38:03.61Z</time></trkpt><trkpt lat="43.972755" lon="12.4168383"><ele>162.0</ele><time>2026-04-12T09:38:04.609Z</time></trkpt><trkpt lat="43.9727117" lon="12.4170233"><ele>162.5</ele><time>2026-04-12T09:38:05.61Z</time></trkpt><trkpt lat="43.97266" lon="12.4171883"><ele>163.0</ele><time>2026-04-12T09:38:06.609Z</time></trkpt><trkpt lat="43.9725883" lon="12.4173417"><ele>163.5</ele><time>2026-04-12T09:38:07.61Z</time></trkpt><trkpt lat="43.972505" lon="12.4174917"><ele>164.0</ele><time>2026-04-12T09:38:08.61Z</time></trkpt><trkpt lat="43.9724133" lon="12.4176217"><ele>164.39999999999998</ele><time>2026-04-12T09:38:09.61Z</time></trkpt><trkpt lat="43.972315" lon="12.41773"><ele>164.8</ele><time>2026-04-12T09:38:10.61Z</time></trkpt><trkpt lat="43.9722217" lon="12.417825"><ele>165.2</ele><time>2026-04-12T09:38:11.609Z</time></trkpt><trkpt lat="43.9721417" lon="12.41792"><ele>165.60000000000002</ele><time>2026-04-12T09:38:12.61Z</time></trkpt><trkpt lat="43.9720717" lon="12.4180117"><ele>166.0</ele><time>2026-04-12T09:38:13.61Z</time></trkpt><trkpt lat="43.97201" lon="12.4181117"><ele>166.0</ele><time>2026-04-12T09:38:14.61Z</time></trkpt><trkpt lat="43.971945" lon="12.41821"><ele>166.0</ele><time>2026-04-12T09:38:15.61Z</time></trkpt><trkpt lat="43.9718817" lon="12.4183017"><ele>166.0</ele><time>2026-04-12T09:38:16.609Z</time></trkpt><trkpt lat="43.9718317" lon="12.4183833"><ele>166.0</ele><time>2026-04-12T09:38:17.61Z</time></trkpt><trkpt lat="43.9717917" lon="12.4184533"><ele>166.0</ele><time>2026-04-12T09:38:18.61Z</time></trkpt><trkpt lat="43.971735" lon="12.41863"><ele>166.0</ele><time>2026-04-12T09:38:20.61Z</time></trkpt><trkpt lat="43.9716917" lon="12.4187367"><ele>166.0</ele><time>2026-04-12T09:38:21.609Z</time></trkpt><trkpt lat="43.9716717" lon="12.4188733"><ele>166.0</ele><time>2026-04-12T09:38:22.61Z</time></trkpt><trkpt lat="43.9716667" lon="12.4190283"><ele>166.0</ele><time>2026-04-12T09:38:23.61Z</time></trkpt><trkpt lat="43.9716767" lon="12.4191717"><ele>166.0</ele><time>2026-04-12T09:38:24.609Z</time></trkpt><trkpt lat="43.9717133" lon="12.4193"><ele>167.0</ele><time>2026-04-12T09:38:25.61Z</time></trkpt><trkpt lat="43.971765" lon="12.41941"><ele>168.0</ele><time>2026-04-12T09:38:26.609Z</time></trkpt><trkpt lat="43.9718283" lon="12.4194917"><ele>169.0</ele><time>2026-04-12T09:38:27.61Z</time></trkpt><trkpt lat="43.9719117" lon="12.4195283"><ele>170.0</ele><time>2026-04-12T09:38:28.61Z</time></trkpt><trkpt lat="43.9719967" lon="12.4195217"><ele>171.0</ele><time>2026-04-12T09:38:29.61Z</time></trkpt><trkpt lat="43.97208" lon="12.41951"><ele>172.0</ele><time>2026-04-12T09:38:30.609Z</time></trkpt><trkpt lat="43.9721667" lon="12.41953"><ele>172.0</ele><time>2026-04-12T09:38:31.609Z</time></trkpt><trkpt lat="43.97224" lon="12.419585"><ele>172.0</ele><time>2026-04-12T09:38:32.61Z</time></trkpt><trkpt lat="43.9722883" lon="12.4196817"><ele>172.0</ele><time>2026-04-12T09:38:33.61Z</time></trkpt><trkpt lat="43.9723083" lon="12.4198033"><ele>172.0</ele><time>2026-04-12T09:38:34.609Z</time></trkpt><trkpt lat="43.9722983" lon="12.41994"><ele>172.0</ele><time>2026-04-12T09:38:35.61Z</time></trkpt><trkpt lat="43.97226" lon="12.420105"><ele>172.66666666666669</ele><time>2026-04-12T09:38:36.609Z</time></trkpt><trkpt lat="43.97219" lon="12.4202933"><ele>173.33333333333334</ele><time>2026-04-12T09:38:37.609Z</time></trkpt><trkpt lat="43.9720933" lon="12.420495"><ele>174.0</ele><time>2026-04-12T09:38:38.61Z</time></trkpt><trkpt lat="43.9720017" lon="12.4206733"><ele>174.6</ele><time>2026-04-12T09:38:39.61Z</time></trkpt><trkpt lat="43.9719333" lon="12.42083"><ele>175.2</ele><time>2026-04-12T09:38:40.61Z</time></trkpt><trkpt lat="43.9718983" lon="12.4209717"><ele>175.79999999999998</ele><time>2026-04-12T09:38:41.61Z</time></trkpt><trkpt lat="43.9719133" lon="12.42111"><ele>176.39999999999998</ele><time>2026-04-12T09:38:42.61Z</time></trkpt><trkpt lat="43.9719817" lon="12.421225"><ele>177.0</ele><time>2026-04-12T09:38:43.61Z</time></trkpt><trkpt lat="43.9721017" lon="12.4213067"><ele>178.0</ele><time>2026-04-12T09:38:44.609Z</time></trkpt><trkpt lat="43.9722633" lon="12.421355"><ele>179.0</ele><time>2026-04-12T09:38:45.609Z</time></trkpt><trkpt lat="43.9724217" lon="12.4214"><ele>180.0</ele><time>2026-04-12T09:38:46.61Z</time></trkpt><trkpt lat="43.9725483" lon="12.42146"><ele>182.25</ele><time>2026-04-12T09:38:47.609Z</time></trkpt><trkpt lat="43.9726483" lon="12.4215583"><ele>184.5</ele><time>2026-04-12T09:38:48.609Z</time></trkpt><trkpt lat="43.97271" lon="12.4217"><ele>186.75</ele><time>2026-04-12T09:38:49.61Z</time></trkpt><trkpt lat="43.9727117" lon="12.4218633"><ele>189.0</ele><time>2026-04-12T09:38:50.61Z</time></trkpt><trkpt lat="43.9726633" lon="12.4220233"><ele>189.75</ele><time>2026-04-12T09:38:51.61Z</time></trkpt><trkpt lat="43.972585" lon="12.4221717"><ele>190.5</ele><time>2026-04-12T09:38:52.61Z</time></trkpt><trkpt lat="43.972515" lon="12.42234"><ele>191.25</ele><time>2026-04-12T09:38:53.609Z</time></trkpt><trkpt lat="43.9725017" lon="12.4225333"><ele>192.0</ele><time>2026-04-12T09:38:54.609Z</time></trkpt><trkpt lat="43.9725433" lon="12.4227383"><ele>194.0</ele><time>2026-04-12T09:38:55.609Z</time></trkpt><trkpt lat="43.972615" lon="12.4229817"><ele>196.0</ele><time>2026-04-12T09:38:56.609Z</time></trkpt><trkpt lat="43.972685" lon="12.4232133"><ele>198.0</ele><time>2026-04-12T09:38:57.61Z</time></trkpt><trkpt lat="43.9727383" lon="12.4234283"><ele>198.0</ele><time>2026-04-12T09:38:58.61Z</time></trkpt><trkpt lat="43.9727583" lon="12.4236317"><ele>198.0</ele><time>2026-04-12T09:38:59.61Z</time></trkpt><trkpt lat="43.97276" lon="12.42381"><ele>198.0</ele><time>2026-04-12T09:39:00.61Z</time></trkpt><trkpt lat="43.9727717" lon="12.4239517"><ele>198.0</ele><time>2026-04-12T09:39:01.61Z</time></trkpt><trkpt lat="43.9728083" lon="12.4240717"><ele>198.0</ele><time>2026-04-12T09:39:02.609Z</time></trkpt><trkpt lat="43.972875" lon="12.42414"><ele>198.0</ele><time>2026-04-12T09:39:03.61Z</time></trkpt><trkpt lat="43.9729583" lon="12.424155"><ele>198.0</ele><time>2026-04-12T09:39:04.61Z</time></trkpt><trkpt lat="43.9730483" lon="12.4240867"><ele>198.0</ele><time>2026-04-12T09:39:05.609Z</time></trkpt><trkpt lat="43.9731183" lon="12.423955"><ele>198.0</ele><time>2026-04-12T09:39:06.61Z</time></trkpt><trkpt lat="43.973165" lon="12.4237933"><ele>198.0</ele><time>2026-04-12T09:39:07.61Z</time></trkpt><trkpt lat="43.9732167" lon="12.4236683"><ele>198.0</ele><time>2026-04-12T09:39:08.61Z</time></trkpt><trkpt lat="43.9732817" lon="12.423585"><ele>198.0</ele><time>2026-04-12T09:39:09.61Z</time></trkpt><trkpt lat="43.97337" lon="12.4235483"><ele>198.0</ele><time>2026-04-12T09:39:10.61Z</time></trkpt><trkpt lat="43.9734767" lon="12.4235717"><ele>198.0</ele><time>2026-04-12T09:39:11.61Z</time></trkpt><trkpt lat="43.9735983" lon="12.4236433"><ele>200.25</ele><time>2026-04-12T09:39:12.61Z</time></trkpt><trkpt lat="43.97371" lon="12.423735"><ele>202.5</ele><time>2026-04-12T09:39:13.61Z</time></trkpt><trkpt lat="43.9738217" lon="12.4237983"><ele>204.75</ele><time>2026-04-12T09:39:14.61Z</time></trkpt><trkpt lat="43.97393" lon="12.4238233"><ele>207.0</ele><time>2026-04-12T09:39:15.609Z</time></trkpt><trkpt lat="43.9740283" lon="12.4237967"><ele>207.0</ele><time>2026-04-12T09:39:16.61Z</time></trkpt><trkpt lat="43.974115" lon="12.42371"><ele>207.0</ele><time>2026-04-12T09:39:17.61Z</time></trkpt><trkpt lat="43.97416" lon="12.4235833"><ele>207.0</ele><time>2026-04-12T09:39:18.609Z</time></trkpt><trkpt lat="43.974175" lon="12.42346"><ele>207.0</ele><time>2026-04-12T09:39:19.609Z</time></trkpt><trkpt lat="43.9742" lon="12.423365"><ele>207.0</ele><time>2026-04-12T09:39:20.61Z</time></trkpt><trkpt lat="43.9742483" lon="12.4233083"><ele>207.0</ele><time>2026-04-12T09:39:21.61Z</time></trkpt><trkpt lat="43.974315" lon="12.4232833"><ele>211.25</ele><time>2026-04-12T09:39:22.61Z</time></trkpt><trkpt lat="43.9744033" lon="12.4233333"><ele>215.5</ele><time>2026-04-12T09:39:23.61Z</time></trkpt><trkpt lat="43.97449" lon="12.4234283"><ele>219.75</ele><time>2026-04-12T09:39:24.61Z</time></trkpt><trkpt lat="43.97456" lon="12.423575"><ele>224.0</ele><time>2026-04-12T09:39:25.61Z</time></trkpt><trkpt lat="43.9746317" lon="12.4237783"><ele>226.0</ele><time>2026-04-12T09:39:26.609Z</time></trkpt><trkpt lat="43.9747183" lon="12.4240267"><ele>228.0</ele><time>2026-04-12T09:39:27.61Z</time></trkpt><trkpt lat="43.9748083" lon="12.4242933"><ele>230.0</ele><time>2026-04-12T09:39:28.609Z</time></trkpt><trkpt lat="43.9748933" lon="12.4245733"><ele>232.0</ele><time>2026-04-12T09:39:29.61Z</time></trkpt><trkpt lat="43.9749517" lon="12.424845"><ele>234.0</ele><time>2026-04-12T09:39:30.61Z</time></trkpt><trkpt lat="43.9749767" lon="12.425105"><ele>236.0</ele><time>2026-04-12T09:39:31.61Z</time></trkpt><trkpt lat="43.9749933" lon="12.42534"><ele>244.0</ele><time>2026-04-12T09:39:32.61Z</time></trkpt><trkpt lat="43.975025" lon="12.4255683"><ele>252.0</ele><time>2026-04-12T09:39:33.61Z</time></trkpt><trkpt lat="43.975105" lon="12.425785"><ele>260.0</ele><time>2026-04-12T09:39:34.609Z</time></trkpt><trkpt lat="43.9752283" lon="12.4259667"><ele>260.0</ele><time>2026-04-12T09:39:35.61Z</time></trkpt><trkpt lat="43.9753483" lon="12.42612"><ele>260.0</ele><time>2026-04-12T09:39:36.61Z</time></trkpt><trkpt lat="43.975455" lon="12.4262917"><ele>260.0</ele><time>2026-04-12T09:39:37.61Z</time></trkpt><trkpt lat="43.9755317" lon="12.426495"><ele>260.25</ele><time>2026-04-12T09:39:38.61Z</time></trkpt><trkpt lat="43.975565" lon="12.4267233"><ele>260.5</ele><time>2026-04-12T09:39:39.61Z</time></trkpt><trkpt lat="43.97557" lon="12.4269117"><ele>260.75</ele><time>2026-04-12T09:39:40.61Z</time></trkpt><trkpt lat="43.9755867" lon="12.4270817"><ele>261.0</ele><time>2026-04-12T09:39:41.61Z</time></trkpt><trkpt lat="43.97564" lon="12.427235"><ele>260.5</ele><time>2026-04-12T09:39:42.61Z</time></trkpt><trkpt lat="43.97574" lon="12.4273733"><ele>260.0</ele><time>2026-04-12T09:39:43.609Z</time></trkpt><trkpt lat="43.9758433" lon="12.4274983"><ele>259.5</ele><time>2026-04-12T09:39:44.609Z</time></trkpt><trkpt lat="43.975945" lon="12.4276133"><ele>259.0</ele><time>2026-04-12T09:39:45.61Z</time></trkpt><trkpt lat="43.9760433" lon="12.4277383"><ele>257.75</ele><time>2026-04-12T09:39:46.609Z</time></trkpt><trkpt lat="43.9761533" lon="12.42785"><ele>256.5</ele><time>2026-04-12T09:39:47.61Z</time></trkpt><trkpt lat="43.9762617" lon="12.42795"><ele>255.25</ele><time>2026-04-12T09:39:48.609Z</time></trkpt><trkpt lat="43.9763733" lon="12.4280067"><ele>254.0</ele><time>2026-04-12T09:39:49.61Z</time></trkpt><trkpt lat="43.9764817" lon="12.428025"><ele>254.0</ele><time>2026-04-12T09:39:50.61Z</time></trkpt><trkpt lat="43.9765967" lon="12.4280167"><ele>253.99999999999997</ele><time>2026-04-12T09:39:51.61Z</time></trkpt><trkpt lat="43.976695" lon="12.4279967"><ele>253.99999999999997</ele><time>2026-04-12T09:39:52.61Z</time></trkpt><trkpt lat="43.9767933" lon="12.4279533"><ele>254.0</ele><time>2026-04-12T09:39:53.609Z</time></trkpt><trkpt lat="43.9769033" lon="12.4278783"><ele>254.0</ele><time>2026-04-12T09:39:54.609Z</time></trkpt><trkpt lat="43.9770433" lon="12.4277817"><ele>260.33333333333337</ele><time>2026-04-12T09:39:55.61Z</time></trkpt><trkpt lat="43.977205" lon="12.4277317"><ele>266.6666666666667</ele><time>2026-04-12T09:39:56.61Z</time></trkpt><trkpt lat="43.9773867" lon="12.42774"><ele>273.0</ele><time>2026-04-12T09:39:57.61Z</time></trkpt><trkpt lat="43.9775733" lon="12.42778"><ele>277.0</ele><time>2026-04-12T09:39:58.61Z</time></trkpt><trkpt lat="43.977755" lon="12.4278083"><ele>281.0</ele><time>2026-04-12T09:39:59.61Z</time></trkpt><trkpt lat="43.9779117" lon="12.427845"><ele>285.0</ele><time>2026-04-12T09:40:00.61Z</time></trkpt><trkpt lat="43.9780517" lon="12.4278983"><ele>284.0</ele><time>2026-04-12T09:40:01.61Z</time></trkpt><trkpt lat="43.9781583" lon="12.4279833"><ele>283.0</ele><time>2026-04-12T09:40:02.61Z</time></trkpt><trkpt lat="43.9782433" lon="12.42809"><ele>282.0</ele><time>2026-04-12T09:40:03.61Z</time></trkpt><trkpt lat="43.978315" lon="12.4282233"><ele>281.0</ele><time>2026-04-12T09:40:04.609Z</time></trkpt><trkpt lat="43.9783783" lon="12.4284017"><ele>281.0</ele><time>2026-04-12T09:40:05.609Z</time></trkpt><trkpt lat="43.978465" lon="12.4286333"><ele>281.0</ele><time>2026-04-12T09:40:06.609Z</time></trkpt><trkpt lat="43.97857" lon="12.428885"><ele>281.0</ele><time>2026-04-12T09:40:07.61Z</time></trkpt><trkpt lat="43.9786683" lon="12.429115"><ele>277.6666666666667</ele><time>2026-04-12T09:40:08.61Z</time></trkpt><trkpt lat="43.9787633" lon="12.42933"><ele>274.3333333333333</ele><time>2026-04-12T09:40:09.61Z</time></trkpt><trkpt lat="43.9788467" lon="12.4295167"><ele>271.0</ele><time>2026-04-12T09:40:10.61Z</time></trkpt><trkpt lat="43.97894" lon="12.4296583"><ele>268.0</ele><time>2026-04-12T09:40:11.61Z</time></trkpt><trkpt lat="43.9790417" lon="12.4297783"><ele>265.0</ele><time>2026-04-12T09:40:12.61Z</time></trkpt><trkpt lat="43.979165" lon="12.4298383"><ele>262.0</ele><time>2026-04-12T09:40:13.609Z</time></trkpt><trkpt lat="43.979315" lon="12.4298517"><ele>259.0</ele><time>2026-04-12T09:40:14.61Z</time></trkpt><trkpt lat="43.9794867" lon="12.4298017"><ele>256.3333333333333</ele><time>2026-04-12T09:40:15.61Z</time></trkpt><trkpt lat="43.9796833" lon="12.4297233"><ele>253.66666666666669</ele><time>2026-04-12T09:40:16.61Z</time></trkpt><trkpt lat="43.9798767" lon="12.4296717"><ele>251.0</ele><time>2026-04-12T09:40:17.61Z</time></trkpt><trkpt lat="43.98006" lon="12.4296483"><ele>251.0</ele><time>2026-04-12T09:40:18.61Z</time></trkpt><trkpt lat="43.98024" lon="12.42962"><ele>251.0</ele><time>2026-04-12T09:40:19.609Z</time></trkpt><trkpt lat="43.9804017" lon="12.4296133"><ele>251.0</ele><time>2026-04-12T09:40:20.61Z</time></trkpt><trkpt lat="43.9805633" lon="12.42965"><ele>251.0</ele><time>2026-04-12T09:40:21.61Z</time></trkpt><trkpt lat="43.9807183" lon="12.4297533"><ele>251.0</ele><time>2026-04-12T09:40:22.609Z</time></trkpt><trkpt lat="43.980865" lon="12.4299083"><ele>251.0</ele><time>2026-04-12T09:40:23.609Z</time></trkpt><trkpt lat="43.9810033" lon="12.430085"><ele>248.33333333333334</ele><time>2026-04-12T09:40:24.61Z</time></trkpt><trkpt lat="43.9811267" lon="12.430265"><ele>245.66666666666669</ele><time>2026-04-12T09:40:25.609Z</time></trkpt><trkpt lat="43.9812433" lon="12.4304333"><ele>243.0</ele><time>2026-04-12T09:40:26.61Z</time></trkpt><trkpt lat="43.9813567" lon="12.4305917"><ele>243.0</ele><time>2026-04-12T09:40:27.61Z</time></trkpt><trkpt lat="43.9814667" lon="12.43074"><ele>243.0</ele><time>2026-04-12T09:40:28.61Z</time></trkpt><trkpt lat="43.9815667" lon="12.4309033"><ele>243.0</ele><time>2026-04-12T09:40:29.609Z</time></trkpt><trkpt lat="43.981645" lon="12.4310933"><ele>238.33333333333331</ele><time>2026-04-12T09:40:30.61Z</time></trkpt><trkpt lat="43.9816883" lon="12.4313117"><ele>233.66666666666666</ele><time>2026-04-12T09:40:31.61Z</time></trkpt><trkpt lat="43.9817017" lon="12.4315567"><ele>229.0</ele><time>2026-04-12T09:40:32.61Z</time></trkpt><trkpt lat="43.9817" lon="12.4318133"><ele>229.0</ele><time>2026-04-12T09:40:33.609Z</time></trkpt><trkpt lat="43.9816833" lon="12.4320883"><ele>229.0</ele><time>2026-04-12T09:40:34.61Z</time></trkpt><trkpt lat="43.981655" lon="12.4323767"><ele>229.0</ele><time>2026-04-12T09:40:35.61Z</time></trkpt><trkpt lat="43.9816283" lon="12.4326783"><ele>231.0</ele><time>2026-04-12T09:40:36.609Z</time></trkpt><trkpt lat="43.9816017" lon="12.4329833"><ele>233.0</ele><time>2026-04-12T09:40:37.61Z</time></trkpt><trkpt lat="43.9815767" lon="12.4332783"><ele>235.0</ele><time>2026-04-12T09:40:38.61Z</time></trkpt><trkpt lat="43.9815567" lon="12.433565"><ele>235.33333333333331</ele><time>2026-04-12T09:40:39.609Z</time></trkpt><trkpt lat="43.98153" lon="12.433845"><ele>235.66666666666669</ele><time>2026-04-12T09:40:40.609Z</time></trkpt><trkpt lat="43.98151" lon="12.4341267"><ele>236.0</ele><time>2026-04-12T09:40:41.609Z</time></trkpt><trkpt lat="43.9814867" lon="12.4344133"><ele>238.0</ele><time>2026-04-12T09:40:42.609Z</time></trkpt><trkpt lat="43.9814533" lon="12.434695"><ele>240.0</ele><time>2026-04-12T09:40:43.609Z</time></trkpt><trkpt lat="43.9814267" lon="12.4349417"><ele>242.0</ele><time>2026-04-12T09:40:44.61Z</time></trkpt><trkpt lat="43.98142" lon="12.4351683"><ele>242.0</ele><time>2026-04-12T09:40:45.61Z</time></trkpt><trkpt lat="43.9814317" lon="12.435385"><ele>242.0</ele><time>2026-04-12T09:40:46.609Z</time></trkpt><trkpt lat="43.98148" lon="12.435615"><ele>242.0</ele><time>2026-04-12T09:40:47.61Z</time></trkpt><trkpt lat="43.98156" lon="12.4358767"><ele>241.0</ele><time>2026-04-12T09:40:48.609Z</time></trkpt><trkpt lat="43.9816683" lon="12.436165"><ele>240.0</ele><time>2026-04-12T09:40:49.61Z</time></trkpt><trkpt lat="43.9817717" lon="12.4364417"><ele>239.66666666666669</ele><time>2026-04-12T09:40:50.61Z</time></trkpt><trkpt lat="43.9818583" lon="12.4367167"><ele>239.33333333333334</ele><time>2026-04-12T09:40:51.61Z</time></trkpt><trkpt lat="43.9819417" lon="12.4369983"><ele>239.0</ele><time>2026-04-12T09:40:52.609Z</time></trkpt><trkpt lat="43.982005" lon="12.43729"><ele>238.0</ele><time>2026-04-12T09:40:53.61Z</time></trkpt><trkpt lat="43.98205" lon="12.4375933"><ele>237.0</ele><time>2026-04-12T09:40:54.609Z</time></trkpt><trkpt lat="43.98209" lon="12.4378783"><ele>236.0</ele><time>2026-04-12T09:40:55.61Z</time></trkpt><trkpt lat="43.9821167" lon="12.43816"><ele>234.66666666666669</ele><time>2026-04-12T09:40:56.61Z</time></trkpt><trkpt lat="43.9821367" lon="12.4384217"><ele>233.33333333333331</ele><time>2026-04-12T09:40:57.61Z</time></trkpt><trkpt lat="43.9821517" lon="12.43867"><ele>232.0</ele><time>2026-04-12T09:40:58.61Z</time></trkpt><trkpt lat="43.98216" lon="12.4389033"><ele>230.66666666666666</ele><time>2026-04-12T09:40:59.61Z</time></trkpt><trkpt lat="43.9821533" lon="12.439155"><ele>229.33333333333331</ele><time>2026-04-12T09:41:00.61Z</time></trkpt><trkpt lat="43.9821283" lon="12.4394067"><ele>228.0</ele><time>2026-04-12T09:41:01.61Z</time></trkpt><trkpt lat="43.98208" lon="12.4396683"><ele>226.33333333333331</ele><time>2026-04-12T09:41:02.61Z</time></trkpt><trkpt lat="43.9820067" lon="12.4399383"><ele>224.66666666666666</ele><time>2026-04-12T09:41:03.61Z</time></trkpt><trkpt lat="43.981935" lon="12.4402083"><ele>223.0</ele><time>2026-04-12T09:41:04.611Z</time></trkpt><trkpt lat="43.981855" lon="12.44048"><ele>220.66666666666666</ele><time>2026-04-12T09:41:05.611Z</time></trkpt><trkpt lat="43.9817783" lon="12.440755"><ele>218.33333333333331</ele><time>2026-04-12T09:41:06.611Z</time></trkpt><trkpt lat="43.981705" lon="12.4410217"><ele>216.0</ele><time>2026-04-12T09:41:07.611Z</time></trkpt><trkpt lat="43.9816317" lon="12.4412633"><ele>221.0</ele><time>2026-04-12T09:41:08.61Z</time></trkpt><trkpt lat="43.9815717" lon="12.4414883"><ele>226.0</ele><time>2026-04-12T09:41:09.61Z</time></trkpt><trkpt lat="43.9815167" lon="12.4416933"><ele>231.0</ele><time>2026-04-12T09:41:10.611Z</time></trkpt><trkpt lat="43.98145" lon="12.4418683"><ele>231.0</ele><time>2026-04-12T09:41:11.611Z</time></trkpt><trkpt lat="43.9813617" lon="12.442025"><ele>231.0</ele><time>2026-04-12T09:41:12.611Z</time></trkpt><trkpt lat="43.9812467" lon="12.44216"><ele>231.0</ele><time>2026-04-12T09:41:13.611Z</time></trkpt><trkpt lat="43.9811067" lon="12.4422883"><ele>232.0</ele><time>2026-04-12T09:41:14.611Z</time></trkpt><trkpt lat="43.9809483" lon="12.4424103"><ele>233.0</ele><time>2026-04-12T09:41:15.61Z</time></trkpt><trkpt lat="43.9807764" lon="12.4425491"><ele>234.0</ele><time>2026-04-12T09:41:16.61Z</time></trkpt><trkpt lat="43.9806042" lon="12.4426999"><ele>234.0</ele><time>2026-04-12T09:41:17.611Z</time></trkpt><trkpt lat="43.9804444" lon="12.4428433"><ele>234.0</ele><time>2026-04-12T09:41:18.61Z</time></trkpt><trkpt lat="43.9802963" lon="12.4429766"><ele>234.0</ele><time>2026-04-12T09:41:19.61Z</time></trkpt><trkpt lat="43.9801496" lon="12.4431227"><ele>232.33333333333331</ele><time>2026-04-12T09:41:20.61Z</time></trkpt><trkpt lat="43.9800155" lon="12.4432967"><ele>230.66666666666666</ele><time>2026-04-12T09:41:21.611Z</time></trkpt><trkpt lat="43.9799051" lon="12.4435146"><ele>229.0</ele><time>2026-04-12T09:41:22.611Z</time></trkpt><trkpt lat="43.9798045" lon="12.4437756"><ele>224.5</ele><time>2026-04-12T09:41:23.61Z</time></trkpt><trkpt lat="43.979706" lon="12.4440449"><ele>220.0</ele><time>2026-04-12T09:41:24.611Z</time></trkpt><trkpt lat="43.979603" lon="12.4443383"><ele>216.5</ele><time>2026-04-12T09:41:25.611Z</time></trkpt><trkpt lat="43.9794961" lon="12.4446489"><ele>213.0</ele><time>2026-04-12T09:41:26.611Z</time></trkpt><trkpt lat="43.9793881" lon="12.4449766"><ele>213.0</ele><time>2026-04-12T09:41:27.611Z</time></trkpt><trkpt lat="43.9792777" lon="12.4453167"><ele>213.0</ele><time>2026-04-12T09:41:28.61Z</time></trkpt><trkpt lat="43.9791719" lon="12.4456358"><ele>214.5</ele><time>2026-04-12T09:41:29.61Z</time></trkpt><trkpt lat="43.9790656" lon="12.4459406"><ele>216.0</ele><time>2026-04-12T09:41:30.611Z</time></trkpt><trkpt lat="43.9789609" lon="12.44624"><ele>213.5</ele><time>2026-04-12T09:41:31.61Z</time></trkpt><trkpt lat="43.9788545" lon="12.4465427"><ele>211.0</ele><time>2026-04-12T09:41:32.611Z</time></trkpt><trkpt lat="43.9787476" lon="12.4468402"><ele>208.5</ele><time>2026-04-12T09:41:33.61Z</time></trkpt><trkpt lat="43.9786448" lon="12.4471322"><ele>206.0</ele><time>2026-04-12T09:41:34.611Z</time></trkpt><trkpt lat="43.9785479" lon="12.4474254"><ele>206.0</ele><time>2026-04-12T09:41:35.611Z</time></trkpt><trkpt lat="43.9784712" lon="12.4477091"><ele>206.0</ele><time>2026-04-12T09:41:36.61Z</time></trkpt><trkpt lat="43.9784001" lon="12.4479771"><ele>206.0</ele><time>2026-04-12T09:41:37.61Z</time></trkpt><trkpt lat="43.9783287" lon="12.4482358"><ele>206.33333333333334</ele><time>2026-04-12T09:41:38.611Z</time></trkpt><trkpt lat="43.9782515" lon="12.4484896"><ele>206.66666666666669</ele><time>2026-04-12T09:41:39.611Z</time></trkpt><trkpt lat="43.9781794" lon="12.448737"><ele>207.0</ele><time>2026-04-12T09:41:40.61Z</time></trkpt><trkpt lat="43.9781068" lon="12.448978"><ele>207.0</ele><time>2026-04-12T09:41:41.61Z</time></trkpt><trkpt lat="43.9780132" lon="12.4491988"><ele>207.0</ele><time>2026-04-12T09:41:42.611Z</time></trkpt><trkpt lat="43.9778828" lon="12.4494024"><ele>207.0</ele><time>2026-04-12T09:41:43.611Z</time></trkpt><trkpt lat="43.9777192" lon="12.4495923"><ele>205.5</ele><time>2026-04-12T09:41:44.611Z</time></trkpt><trkpt lat="43.9775335" lon="12.4497989"><ele>204.0</ele><time>2026-04-12T09:41:45.611Z</time></trkpt><trkpt lat="43.9773362" lon="12.4500252"><ele>204.0</ele><time>2026-04-12T09:41:46.61Z</time></trkpt><trkpt lat="43.9771308" lon="12.4502597"><ele>204.0</ele><time>2026-04-12T09:41:47.61Z</time></trkpt><trkpt lat="43.9769217" lon="12.4505017"><ele>206.0</ele><time>2026-04-12T09:41:48.611Z</time></trkpt><trkpt lat="43.9767283" lon="12.4507367"><ele>208.0</ele><time>2026-04-12T09:41:49.61Z</time></trkpt><trkpt lat="43.9765467" lon="12.450965"><ele>208.0</ele><time>2026-04-12T09:41:50.61Z</time></trkpt><trkpt lat="43.9763767" lon="12.45118"><ele>208.0</ele><time>2026-04-12T09:41:51.611Z</time></trkpt><trkpt lat="43.97622" lon="12.4513817"><ele>208.0</ele><time>2026-04-12T09:41:52.611Z</time></trkpt><trkpt lat="43.9760683" lon="12.45157"><ele>208.0</ele><time>2026-04-12T09:41:53.611Z</time></trkpt><trkpt lat="43.9759117" lon="12.4517467"><ele>208.0</ele><time>2026-04-12T09:41:54.61Z</time></trkpt><trkpt lat="43.9757583" lon="12.4519133"><ele>208.0</ele><time>2026-04-12T09:41:55.611Z</time></trkpt><trkpt lat="43.97561" lon="12.4520667"><ele>208.33333333333331</ele><time>2026-04-12T09:41:56.61Z</time></trkpt><trkpt lat="43.97546" lon="12.4521983"><ele>208.66666666666669</ele><time>2026-04-12T09:41:57.611Z</time></trkpt><trkpt lat="43.9752883" lon="12.4522933"><ele>209.0</ele><time>2026-04-12T09:41:58.611Z</time></trkpt><trkpt lat="43.9750967" lon="12.45234"><ele>210.0</ele><time>2026-04-12T09:41:59.611Z</time></trkpt><trkpt lat="43.9748817" lon="12.4523567"><ele>211.0</ele><time>2026-04-12T09:42:00.611Z</time></trkpt><trkpt lat="43.97466" lon="12.4523617"><ele>212.0</ele><time>2026-04-12T09:42:01.611Z</time></trkpt><trkpt lat="43.974445" lon="12.4523817"><ele>212.0</ele><time>2026-04-12T09:42:02.611Z</time></trkpt><trkpt lat="43.9742483" lon="12.452395"><ele>212.0</ele><time>2026-04-12T09:42:03.61Z</time></trkpt><trkpt lat="43.97407" lon="12.4523917"><ele>212.0</ele><time>2026-04-12T09:42:04.611Z</time></trkpt><trkpt lat="43.973885" lon="12.4523483"><ele>214.0</ele><time>2026-04-12T09:42:05.611Z</time></trkpt><trkpt lat="43.973705" lon="12.4522617"><ele>216.0</ele><time>2026-04-12T09:42:06.611Z</time></trkpt><trkpt lat="43.9735483" lon="12.452165"><ele>218.0</ele><time>2026-04-12T09:42:07.61Z</time></trkpt><trkpt lat="43.9734083" lon="12.452075"><ele>219.0</ele><time>2026-04-12T09:42:08.61Z</time></trkpt><trkpt lat="43.97327" lon="12.4520283"><ele>220.0</ele><time>2026-04-12T09:42:09.611Z</time></trkpt><trkpt lat="43.9731283" lon="12.4520233"><ele>221.0</ele><time>2026-04-12T09:42:10.61Z</time></trkpt><trkpt lat="43.9729717" lon="12.45204"><ele>222.0</ele><time>2026-04-12T09:42:11.611Z</time></trkpt><trkpt lat="43.972805" lon="12.4520617"><ele>222.0</ele><time>2026-04-12T09:42:12.611Z</time></trkpt><trkpt lat="43.9726467" lon="12.4520733"><ele>222.0</ele><time>2026-04-12T09:42:13.611Z</time></trkpt><trkpt lat="43.9724917" lon="12.4520833"><ele>222.0</ele><time>2026-04-12T09:42:14.611Z</time></trkpt><trkpt lat="43.9723517" lon="12.4520883"><ele>223.75</ele><time>2026-04-12T09:42:15.611Z</time></trkpt><trkpt lat="43.9722133" lon="12.45209"><ele>225.5</ele><time>2026-04-12T09:42:16.611Z</time></trkpt><trkpt lat="43.9720783" lon="12.4520883"><ele>227.25</ele><time>2026-04-12T09:42:17.611Z</time></trkpt><trkpt lat="43.9719767" lon="12.4520967"><ele>229.0</ele><time>2026-04-12T09:42:18.611Z</time></trkpt><trkpt lat="43.9718983" lon="12.4521233"><ele>230.33333333333331</ele><time>2026-04-12T09:42:19.61Z</time></trkpt><trkpt lat="43.9718483" lon="12.452185"><ele>231.66666666666666</ele><time>2026-04-12T09:42:20.611Z</time></trkpt><trkpt lat="43.971845" lon="12.45228"><ele>233.0</ele><time>2026-04-12T09:42:21.611Z</time></trkpt><trkpt lat="43.971885" lon="12.4523817"><ele>234.33333333333331</ele><time>2026-04-12T09:42:22.611Z</time></trkpt><trkpt lat="43.9719476" lon="12.4524766"><ele>235.66666666666666</ele><time>2026-04-12T09:42:23.611Z</time></trkpt><trkpt lat="43.9720537" lon="12.4525568"><ele>237.0</ele><time>2026-04-12T09:42:24.61Z</time></trkpt><trkpt lat="43.9722143" lon="12.4526182"><ele>237.0</ele><time>2026-04-12T09:42:25.611Z</time></trkpt><trkpt lat="43.9723824" lon="12.4526767"><ele>237.0</ele><time>2026-04-12T09:42:26.611Z</time></trkpt><trkpt lat="43.9725192" lon="12.4527531"><ele>237.0</ele><time>2026-04-12T09:42:27.611Z</time></trkpt><trkpt lat="43.97263" lon="12.4528479"><ele>234.0</ele><time>2026-04-12T09:42:28.61Z</time></trkpt><trkpt lat="43.972715" lon="12.4529716"><ele>231.0</ele><time>2026-04-12T09:42:29.611Z</time></trkpt><trkpt lat="43.9727549" lon="12.4531293"><ele>228.0</ele><time>2026-04-12T09:42:30.611Z</time></trkpt><trkpt lat="43.9727558" lon="12.4533107"><ele>225.0</ele><time>2026-04-12T09:42:31.611Z</time></trkpt><trkpt lat="43.9727142" lon="12.4535022"><ele>225.0</ele><time>2026-04-12T09:42:32.611Z</time></trkpt><trkpt lat="43.9726444" lon="12.4537078"><ele>225.0</ele><time>2026-04-12T09:42:33.611Z</time></trkpt><trkpt lat="43.9725672" lon="12.453904"><ele>225.0</ele><time>2026-04-12T09:42:34.61Z</time></trkpt><trkpt lat="43.9724934" lon="12.4540865"><ele>226.5</ele><time>2026-04-12T09:42:35.611Z</time></trkpt><trkpt lat="43.9724357" lon="12.4542626"><ele>228.0</ele><time>2026-04-12T09:42:36.61Z</time></trkpt><trkpt lat="43.9724075" lon="12.4544526"><ele>229.5</ele><time>2026-04-12T09:42:37.61Z</time></trkpt><trkpt lat="43.9724115" lon="12.4546435"><ele>231.0</ele><time>2026-04-12T09:42:38.61Z</time></trkpt><trkpt lat="43.9724526" lon="12.4548321"><ele>231.0</ele><time>2026-04-12T09:42:39.611Z</time></trkpt><trkpt lat="43.9725136" lon="12.455022"><ele>231.0</ele><time>2026-04-12T09:42:40.61Z</time></trkpt><trkpt lat="43.9725855" lon="12.4552078"><ele>231.0</ele><time>2026-04-12T09:42:41.611Z</time></trkpt><trkpt lat="43.9726542" lon="12.4553786"><ele>231.0</ele><time>2026-04-12T09:42:42.611Z</time></trkpt><trkpt lat="43.9727219" lon="12.4555468"><ele>228.5</ele><time>2026-04-12T09:42:43.611Z</time></trkpt><trkpt lat="43.9727769" lon="12.4557161"><ele>226.0</ele><time>2026-04-12T09:42:44.61Z</time></trkpt><trkpt lat="43.9728226" lon="12.4558933"><ele>223.5</ele><time>2026-04-12T09:42:45.611Z</time></trkpt><trkpt lat="43.9728427" lon="12.456086"><ele>221.0</ele><time>2026-04-12T09:42:46.611Z</time></trkpt><trkpt lat="43.9728383" lon="12.4562905"><ele>220.33333333333334</ele><time>2026-04-12T09:42:47.611Z</time></trkpt><trkpt lat="43.9728144" lon="12.4564924"><ele>219.66666666666669</ele><time>2026-04-12T09:42:48.61Z</time></trkpt><trkpt lat="43.9727773" lon="12.4566872"><ele>219.0</ele><time>2026-04-12T09:42:49.611Z</time></trkpt><trkpt lat="43.9728199" lon="12.4569112"><ele>219.0</ele><time>2026-04-12T09:42:50.615Z</time></trkpt><trkpt lat="43.9727814" lon="12.4570079"><ele>219.0</ele><time>2026-04-12T09:42:51.522Z</time></trkpt><trkpt lat="43.9727223" lon="12.4572719"><ele>219.0</ele><time>2026-04-12T09:42:52.606Z</time></trkpt><trkpt lat="43.9727043" lon="12.4575271"><ele>215.5</ele><time>2026-04-12T09:42:53.606Z</time></trkpt><trkpt lat="43.9727293" lon="12.4578866"><ele>212.0</ele><time>2026-04-12T09:42:55.106Z</time></trkpt><trkpt lat="43.9727852" lon="12.4582248"><ele>211.66666666666669</ele><time>2026-04-12T09:42:56.606Z</time></trkpt><trkpt lat="43.9728315" lon="12.4584448"><ele>211.33333333333331</ele><time>2026-04-12T09:42:57.606Z</time></trkpt><trkpt lat="43.9728823" lon="12.4586671"><ele>211.0</ele><time>2026-04-12T09:42:58.606Z</time></trkpt><trkpt lat="43.9729414" lon="12.4588888"><ele>211.0</ele><time>2026-04-12T09:42:59.605Z</time></trkpt><trkpt lat="43.9730085" lon="12.4591058"><ele>211.0</ele><time>2026-04-12T09:43:00.605Z</time></trkpt><trkpt lat="43.9730945" lon="12.4593393"><ele>211.0</ele><time>2026-04-12T09:43:01.605Z</time></trkpt><trkpt lat="43.9731993" lon="12.4596008"><ele>211.5</ele><time>2026-04-12T09:43:02.605Z</time></trkpt><trkpt lat="43.9733165" lon="12.4598973"><ele>212.0</ele><time>2026-04-12T09:43:03.606Z</time></trkpt><trkpt lat="43.9734396" lon="12.4602145"><ele>211.5</ele><time>2026-04-12T09:43:04.605Z</time></trkpt><trkpt lat="43.9735686" lon="12.4605278"><ele>211.0</ele><time>2026-04-12T09:43:05.606Z</time></trkpt><trkpt lat="43.9737064" lon="12.4608402"><ele>211.0</ele><time>2026-04-12T09:43:06.606Z</time></trkpt><trkpt lat="43.9738473" lon="12.46115"><ele>211.0</ele><time>2026-04-12T09:43:07.605Z</time></trkpt><trkpt lat="43.9739814" lon="12.4614476"><ele>212.33333333333331</ele><time>2026-04-12T09:43:08.605Z</time></trkpt><trkpt lat="43.9740973" lon="12.4617283"><ele>213.66666666666669</ele><time>2026-04-12T09:43:09.606Z</time></trkpt><trkpt lat="43.9741995" lon="12.4619865"><ele>215.0</ele><time>2026-04-12T09:43:10.606Z</time></trkpt><trkpt lat="43.974296" lon="12.4622195"><ele>216.33333333333334</ele><time>2026-04-12T09:43:11.606Z</time></trkpt><trkpt lat="43.9743889" lon="12.4624246"><ele>217.66666666666669</ele><time>2026-04-12T09:43:12.606Z</time></trkpt><trkpt lat="43.9744924" lon="12.462608"><ele>219.0</ele><time>2026-04-12T09:43:13.606Z</time></trkpt><trkpt lat="43.9746151" lon="12.462762"><ele>219.0</ele><time>2026-04-12T09:43:14.606Z</time></trkpt><trkpt lat="43.9747555" lon="12.4628619"><ele>219.0</ele><time>2026-04-12T09:43:15.606Z</time></trkpt><trkpt lat="43.9749014" lon="12.4629198"><ele>219.0</ele><time>2026-04-12T09:43:16.606Z</time></trkpt><trkpt lat="43.9750432" lon="12.4629616"><ele>219.33333333333331</ele><time>2026-04-12T09:43:17.605Z</time></trkpt><trkpt lat="43.9751857" lon="12.4630085"><ele>219.66666666666666</ele><time>2026-04-12T09:43:18.605Z</time></trkpt><trkpt lat="43.9753418" lon="12.4630424"><ele>220.0</ele><time>2026-04-12T09:43:19.606Z</time></trkpt><trkpt lat="43.9755215" lon="12.4630403"><ele>220.0</ele><time>2026-04-12T09:43:20.606Z</time></trkpt><trkpt lat="43.975706" lon="12.4630168"><ele>220.0</ele><time>2026-04-12T09:43:21.605Z</time></trkpt><trkpt lat="43.9758733" lon="12.4629929"><ele>220.0</ele><time>2026-04-12T09:43:22.606Z</time></trkpt><trkpt lat="43.9760215" lon="12.4629815"><ele>217.75</ele><time>2026-04-12T09:43:23.606Z</time></trkpt><trkpt lat="43.9761502" lon="12.4629989"><ele>215.5</ele><time>2026-04-12T09:43:24.605Z</time></trkpt><trkpt lat="43.9762648" lon="12.4630528"><ele>213.25</ele><time>2026-04-12T09:43:25.606Z</time></trkpt><trkpt lat="43.9763625" lon="12.4631448"><ele>211.0</ele><time>2026-04-12T09:43:26.606Z</time></trkpt><trkpt lat="43.9764368" lon="12.463264"><ele>210.99999999999997</ele><time>2026-04-12T09:43:27.606Z</time></trkpt><trkpt lat="43.9764916" lon="12.4633845"><ele>211.0</ele><time>2026-04-12T09:43:28.606Z</time></trkpt><trkpt lat="43.9765442" lon="12.463473"><ele>211.0</ele><time>2026-04-12T09:43:29.606Z</time></trkpt><trkpt lat="43.9765963" lon="12.4635291"><ele>211.0</ele><time>2026-04-12T09:43:30.606Z</time></trkpt><trkpt lat="43.9766642" lon="12.4635128"><ele>210.99999999999997</ele><time>2026-04-12T09:43:31.606Z</time></trkpt><trkpt lat="43.9767267" lon="12.4634352"><ele>211.0</ele><time>2026-04-12T09:43:32.606Z</time></trkpt><trkpt lat="43.9767581" lon="12.4632801"><ele>208.5</ele><time>2026-04-12T09:43:33.606Z</time></trkpt><trkpt lat="43.9767668" lon="12.4630744"><ele>206.0</ele><time>2026-04-12T09:43:34.606Z</time></trkpt><trkpt lat="43.9767697" lon="12.4628684"><ele>203.5</ele><time>2026-04-12T09:43:35.606Z</time></trkpt><trkpt lat="43.9767818" lon="12.4626856"><ele>201.0</ele><time>2026-04-12T09:43:36.605Z</time></trkpt><trkpt lat="43.9768244" lon="12.4625243"><ele>201.0</ele><time>2026-04-12T09:43:37.606Z</time></trkpt><trkpt lat="43.9768982" lon="12.4623813"><ele>201.0</ele><time>2026-04-12T09:43:38.606Z</time></trkpt><trkpt lat="43.9769964" lon="12.4622897"><ele>201.0</ele><time>2026-04-12T09:43:39.606Z</time></trkpt><trkpt lat="43.9771207" lon="12.4622429"><ele>201.0</ele><time>2026-04-12T09:43:40.606Z</time></trkpt><trkpt lat="43.9772798" lon="12.4622412"><ele>201.0</ele><time>2026-04-12T09:43:41.606Z</time></trkpt><trkpt lat="43.9774521" lon="12.4622576"><ele>201.0</ele><time>2026-04-12T09:43:42.606Z</time></trkpt><trkpt lat="43.9776201" lon="12.4622661"><ele>201.0</ele><time>2026-04-12T09:43:43.606Z</time></trkpt><trkpt lat="43.9777868" lon="12.4622689"><ele>198.0</ele><time>2026-04-12T09:43:44.606Z</time></trkpt><trkpt lat="43.9779601" lon="12.4622683"><ele>195.0</ele><time>2026-04-12T09:43:45.606Z</time></trkpt><trkpt lat="43.97815" lon="12.4622486"><ele>192.0</ele><time>2026-04-12T09:43:46.606Z</time></trkpt><trkpt lat="43.9783508" lon="12.4622135"><ele>190.5</ele><time>2026-04-12T09:43:47.606Z</time></trkpt><trkpt lat="43.9785713" lon="12.4621646"><ele>189.0</ele><time>2026-04-12T09:43:48.606Z</time></trkpt><trkpt lat="43.9788104" lon="12.4621092"><ele>189.0</ele><time>2026-04-12T09:43:49.606Z</time></trkpt><trkpt lat="43.9790479" lon="12.4620519"><ele>189.0</ele><time>2026-04-12T09:43:50.606Z</time></trkpt><trkpt lat="43.9792716" lon="12.4619955"><ele>187.66666666666666</ele><time>2026-04-12T09:43:51.606Z</time></trkpt><trkpt lat="43.9794817" lon="12.4619394"><ele>186.33333333333331</ele><time>2026-04-12T09:43:52.605Z</time></trkpt><trkpt lat="43.9796791" lon="12.4618874"><ele>185.0</ele><time>2026-04-12T09:43:53.606Z</time></trkpt><trkpt lat="43.9798637" lon="12.4618366"><ele>183.33333333333331</ele><time>2026-04-12T09:43:54.606Z</time></trkpt><trkpt lat="43.9800481" lon="12.4617746"><ele>181.66666666666666</ele><time>2026-04-12T09:43:55.606Z</time></trkpt><trkpt lat="43.9802283" lon="12.4616695"><ele>180.0</ele><time>2026-04-12T09:43:56.605Z</time></trkpt><trkpt lat="43.9804115" lon="12.4615065"><ele>180.0</ele><time>2026-04-12T09:43:57.606Z</time></trkpt><trkpt lat="43.9805867" lon="12.461295"><ele>180.0</ele><time>2026-04-12T09:43:58.606Z</time></trkpt><trkpt lat="43.9807467" lon="12.4611017"><ele>180.0</ele><time>2026-04-12T09:43:59.605Z</time></trkpt><trkpt lat="43.9808967" lon="12.4609333"><ele>180.33333333333334</ele><time>2026-04-12T09:44:00.605Z</time></trkpt><trkpt lat="43.9810483" lon="12.4607833"><ele>180.66666666666669</ele><time>2026-04-12T09:44:01.606Z</time></trkpt><trkpt lat="43.9811933" lon="12.4606483"><ele>181.0</ele><time>2026-04-12T09:44:02.605Z</time></trkpt><trkpt lat="43.98132" lon="12.46053"><ele>180.5</ele><time>2026-04-12T09:44:03.605Z</time></trkpt><trkpt lat="43.98144" lon="12.4604217"><ele>180.0</ele><time>2026-04-12T09:44:04.606Z</time></trkpt><trkpt lat="43.981565" lon="12.460345"><ele>179.5</ele><time>2026-04-12T09:44:05.606Z</time></trkpt><trkpt lat="43.9817183" lon="12.460295"><ele>179.0</ele><time>2026-04-12T09:44:06.606Z</time></trkpt><trkpt lat="43.9819017" lon="12.46028"><ele>179.0</ele><time>2026-04-12T09:44:07.606Z</time></trkpt><trkpt lat="43.9821133" lon="12.4602667"><ele>179.0</ele><time>2026-04-12T09:44:08.606Z</time></trkpt><trkpt lat="43.982345" lon="12.46024"><ele>179.0</ele><time>2026-04-12T09:44:09.606Z</time></trkpt><trkpt lat="43.9825683" lon="12.460215"><ele>180.66666666666666</ele><time>2026-04-12T09:44:10.605Z</time></trkpt><trkpt lat="43.982775" lon="12.46021"><ele>182.33333333333334</ele><time>2026-04-12T09:44:11.605Z</time></trkpt><trkpt lat="43.9829683" lon="12.4602017"><ele>184.0</ele><time>2026-04-12T09:44:12.605Z</time></trkpt><trkpt lat="43.9831433" lon="12.4602"><ele>184.0</ele><time>2026-04-12T09:44:13.606Z</time></trkpt><trkpt lat="43.9833067" lon="12.4602"><ele>184.0</ele><time>2026-04-12T09:44:14.606Z</time></trkpt><trkpt lat="43.9834667" lon="12.4602167"><ele>184.0</ele><time>2026-04-12T09:44:15.606Z</time></trkpt><trkpt lat="43.983635" lon="12.46027"><ele>183.0</ele><time>2026-04-12T09:44:16.606Z</time></trkpt><trkpt lat="43.9838133" lon="12.4603483"><ele>182.0</ele><time>2026-04-12T09:44:17.606Z</time></trkpt><trkpt lat="43.98399" lon="12.46043"><ele>181.0</ele><time>2026-04-12T09:44:18.606Z</time></trkpt><trkpt lat="43.98417" lon="12.4605083"><ele>178.33333333333334</ele><time>2026-04-12T09:44:19.605Z</time></trkpt><trkpt lat="43.9843583" lon="12.4605833"><ele>175.66666666666666</ele><time>2026-04-12T09:44:20.606Z</time></trkpt><trkpt lat="43.984555" lon="12.4606417"><ele>173.0</ele><time>2026-04-12T09:44:21.605Z</time></trkpt><trkpt lat="43.98475" lon="12.460685"><ele>173.0</ele><time>2026-04-12T09:44:22.606Z</time></trkpt><trkpt lat="43.9849467" lon="12.4607217"><ele>173.0</ele><time>2026-04-12T09:44:23.606Z</time></trkpt><trkpt lat="43.9851383" lon="12.4607683"><ele>173.0</ele><time>2026-04-12T09:44:24.605Z</time></trkpt><trkpt lat="43.98534" lon="12.4608283"><ele>172.33333333333331</ele><time>2026-04-12T09:44:25.606Z</time></trkpt><trkpt lat="43.9855533" lon="12.4609"><ele>171.66666666666666</ele><time>2026-04-12T09:44:26.605Z</time></trkpt><trkpt lat="43.985775" lon="12.46098"><ele>171.0</ele><time>2026-04-12T09:44:27.605Z</time></trkpt><trkpt lat="43.986005" lon="12.4610733"><ele>171.0</ele><time>2026-04-12T09:44:28.606Z</time></trkpt><trkpt lat="43.9862283" lon="12.461175"><ele>171.0</ele><time>2026-04-12T09:44:29.605Z</time></trkpt><trkpt lat="43.9864417" lon="12.461275"><ele>171.33333333333334</ele><time>2026-04-12T09:44:30.606Z</time></trkpt><trkpt lat="43.9866517" lon="12.4613717"><ele>171.66666666666669</ele><time>2026-04-12T09:44:31.606Z</time></trkpt><trkpt lat="43.986865" lon="12.4614767"><ele>172.0</ele><time>2026-04-12T09:44:32.606Z</time></trkpt><trkpt lat="43.9870933" lon="12.4615767"><ele>174.5</ele><time>2026-04-12T09:44:33.606Z</time></trkpt><trkpt lat="43.98731" lon="12.46168"><ele>177.0</ele><time>2026-04-12T09:44:34.605Z</time></trkpt><trkpt lat="43.9875317" lon="12.4617867"><ele>180.0</ele><time>2026-04-12T09:44:35.606Z</time></trkpt><trkpt lat="43.98775" lon="12.4618917"><ele>183.0</ele><time>2026-04-12T09:44:36.606Z</time></trkpt><trkpt lat="43.987975" lon="12.4619967"><ele>183.0</ele><time>2026-04-12T09:44:37.606Z</time></trkpt><trkpt lat="43.9881933" lon="12.4620967"><ele>183.0</ele><time>2026-04-12T09:44:38.605Z</time></trkpt><trkpt lat="43.9884" lon="12.4621983"><ele>183.0</ele><time>2026-04-12T09:44:39.606Z</time></trkpt><trkpt lat="43.98859" lon="12.4623083"><ele>183.66666666666666</ele><time>2026-04-12T09:44:40.606Z</time></trkpt><trkpt lat="43.9887683" lon="12.4624167"><ele>184.33333333333331</ele><time>2026-04-12T09:44:41.605Z</time></trkpt><trkpt lat="43.9889417" lon="12.4625217"><ele>185.0</ele><time>2026-04-12T09:44:42.605Z</time></trkpt><trkpt lat="43.9891133" lon="12.4626183"><ele>185.33333333333331</ele><time>2026-04-12T09:44:43.606Z</time></trkpt><trkpt lat="43.9892833" lon="12.462715"><ele>185.66666666666666</ele><time>2026-04-12T09:44:44.606Z</time></trkpt><trkpt lat="43.98945" lon="12.4628183"><ele>186.0</ele><time>2026-04-12T09:44:45.605Z</time></trkpt><trkpt lat="43.9896183" lon="12.46293"><ele>185.0</ele><time>2026-04-12T09:44:46.606Z</time></trkpt><trkpt lat="43.9897817" lon="12.463065"><ele>184.0</ele><time>2026-04-12T09:44:47.606Z</time></trkpt><trkpt lat="43.9899467" lon="12.463225"><ele>183.0</ele><time>2026-04-12T09:44:48.606Z</time></trkpt><trkpt lat="43.99013" lon="12.4633833"><ele>182.0</ele><time>2026-04-12T09:44:49.606Z</time></trkpt><trkpt lat="43.9903" lon="12.46355"><ele>181.0</ele><time>2026-04-12T09:44:50.606Z</time></trkpt><trkpt lat="43.990455" lon="12.4637317"><ele>180.0</ele><time>2026-04-12T09:44:51.606Z</time></trkpt><trkpt lat="43.9906083" lon="12.4639217"><ele>180.0</ele><time>2026-04-12T09:44:52.605Z</time></trkpt><trkpt lat="43.9907667" lon="12.464125"><ele>180.0</ele><time>2026-04-12T09:44:53.605Z</time></trkpt><trkpt lat="43.9909267" lon="12.4643333"><ele>180.0</ele><time>2026-04-12T09:44:54.606Z</time></trkpt><trkpt lat="43.9910967" lon="12.4645617"><ele>177.5</ele><time>2026-04-12T09:44:55.605Z</time></trkpt><trkpt lat="43.9912683" lon="12.4648017"><ele>175.0</ele><time>2026-04-12T09:44:56.605Z</time></trkpt><trkpt lat="43.9914417" lon="12.465055"><ele>175.0</ele><time>2026-04-12T09:44:57.606Z</time></trkpt><trkpt lat="43.99162" lon="12.4653017"><ele>175.0</ele><time>2026-04-12T09:44:58.606Z</time></trkpt><trkpt lat="43.9917933" lon="12.4655483"><ele>176.0</ele><time>2026-04-12T09:44:59.606Z</time></trkpt><trkpt lat="43.99196" lon="12.46578"><ele>177.0</ele><time>2026-04-12T09:45:00.606Z</time></trkpt><trkpt lat="43.9921117" lon="12.4660083"><ele>177.0</ele><time>2026-04-12T09:45:01.606Z</time></trkpt><trkpt lat="43.9922583" lon="12.4662517"><ele>177.0</ele><time>2026-04-12T09:45:02.606Z</time></trkpt><trkpt lat="43.9924133" lon="12.4665067"><ele>176.5</ele><time>2026-04-12T09:45:03.606Z</time></trkpt><trkpt lat="43.9925783" lon="12.46677"><ele>176.0</ele><time>2026-04-12T09:45:04.605Z</time></trkpt><trkpt lat="43.9927517" lon="12.4670417"><ele>176.0</ele><time>2026-04-12T09:45:05.606Z</time></trkpt><trkpt lat="43.9929383" lon="12.4673133"><ele>176.0</ele><time>2026-04-12T09:45:06.606Z</time></trkpt><trkpt lat="43.9931276" lon="12.4675977"><ele>176.0</ele><time>2026-04-12T09:45:07.606Z</time></trkpt><trkpt lat="43.9933155" lon="12.4678886"><ele>176.0</ele><time>2026-04-12T09:45:08.606Z</time></trkpt><trkpt lat="43.9934912" lon="12.4681698"><ele>176.5</ele><time>2026-04-12T09:45:09.606Z</time></trkpt><trkpt lat="43.9936608" lon="12.4684343"><ele>177.0</ele><time>2026-04-12T09:45:10.606Z</time></trkpt><trkpt lat="43.9938342" lon="12.4687012"><ele>176.5</ele><time>2026-04-12T09:45:11.606Z</time></trkpt><trkpt lat="43.9940172" lon="12.4689788"><ele>176.0</ele><time>2026-04-12T09:45:12.606Z</time></trkpt><trkpt lat="43.9942141" lon="12.4692627"><ele>175.5</ele><time>2026-04-12T09:45:13.606Z</time></trkpt><trkpt lat="43.9944239" lon="12.4695647"><ele>175.0</ele><time>2026-04-12T09:45:14.606Z</time></trkpt><trkpt lat="43.9946349" lon="12.4698666"><ele>175.0</ele><time>2026-04-12T09:45:15.606Z</time></trkpt><trkpt lat="43.9948365" lon="12.4701428"><ele>175.0</ele><time>2026-04-12T09:45:16.606Z</time></trkpt><trkpt lat="43.9950232" lon="12.4704061"><ele>175.0</ele><time>2026-04-12T09:45:17.606Z</time></trkpt><trkpt lat="43.9952022" lon="12.4706567"><ele>175.0</ele><time>2026-04-12T09:45:18.606Z</time></trkpt><trkpt lat="43.9953773" lon="12.4708881"><ele>175.0</ele><time>2026-04-12T09:45:19.606Z</time></trkpt><trkpt lat="43.9955463" lon="12.4711143"><ele>175.0</ele><time>2026-04-12T09:45:20.605Z</time></trkpt><trkpt lat="43.9957147" lon="12.4713319"><ele>175.33333333333334</ele><time>2026-04-12T09:45:21.605Z</time></trkpt><trkpt lat="43.9958801" lon="12.4715425"><ele>175.66666666666666</ele><time>2026-04-12T09:45:22.606Z</time></trkpt><trkpt lat="43.9960433" lon="12.4717456"><ele>176.0</ele><time>2026-04-12T09:45:23.606Z</time></trkpt><trkpt lat="43.9962042" lon="12.4719557"><ele>178.5</ele><time>2026-04-12T09:45:24.605Z</time></trkpt><trkpt lat="43.9963653" lon="12.4721823"><ele>181.0</ele><time>2026-04-12T09:45:25.605Z</time></trkpt><trkpt lat="43.9965268" lon="12.4724202"><ele>180.0</ele><time>2026-04-12T09:45:26.606Z</time></trkpt><trkpt lat="43.9966792" lon="12.472647"><ele>179.0</ele><time>2026-04-12T09:45:27.606Z</time></trkpt><trkpt lat="43.9968159" lon="12.4728614"><ele>178.0</ele><time>2026-04-12T09:45:28.606Z</time></trkpt><trkpt lat="43.9969452" lon="12.4730671"><ele>181.0</ele><time>2026-04-12T09:45:29.606Z</time></trkpt><trkpt lat="43.9970705" lon="12.4732586"><ele>184.0</ele><time>2026-04-12T09:45:30.606Z</time></trkpt><trkpt lat="43.9971957" lon="12.4734358"><ele>187.0</ele><time>2026-04-12T09:45:31.605Z</time></trkpt><trkpt lat="43.9973355" lon="12.4735981"><ele>186.33333333333334</ele><time>2026-04-12T09:45:32.606Z</time></trkpt><trkpt lat="43.9975046" lon="12.4737306"><ele>185.66666666666666</ele><time>2026-04-12T09:45:33.606Z</time></trkpt><trkpt lat="43.9977019" lon="12.4738614"><ele>185.0</ele><time>2026-04-12T09:45:34.606Z</time></trkpt><trkpt lat="43.9979094" lon="12.4739897"><ele>187.5</ele><time>2026-04-12T09:45:35.606Z</time></trkpt><trkpt lat="43.9981167" lon="12.4741194"><ele>190.0</ele><time>2026-04-12T09:45:36.606Z</time></trkpt><trkpt lat="43.9983232" lon="12.4742432"><ele>190.66666666666669</ele><time>2026-04-12T09:45:37.606Z</time></trkpt><trkpt lat="43.9985236" lon="12.4743564"><ele>191.33333333333334</ele><time>2026-04-12T09:45:38.605Z</time></trkpt><trkpt lat="43.9987116" lon="12.4744695"><ele>192.0</ele><time>2026-04-12T09:45:39.606Z</time></trkpt><trkpt lat="43.9988833" lon="12.4745733"><ele>192.0</ele><time>2026-04-12T09:45:40.606Z</time></trkpt><trkpt lat="43.99907" lon="12.4746817"><ele>192.0</ele><time>2026-04-12T09:45:41.606Z</time></trkpt><trkpt lat="43.9992467" lon="12.4747867"><ele>192.0</ele><time>2026-04-12T09:45:42.606Z</time></trkpt><trkpt lat="43.9994133" lon="12.47489"><ele>194.33333333333331</ele><time>2026-04-12T09:45:43.605Z</time></trkpt><trkpt lat="43.9995633" lon="12.47499"><ele>196.66666666666666</ele><time>2026-04-12T09:45:44.606Z</time></trkpt><trkpt lat="43.9997083" lon="12.47509"><ele>199.0</ele><time>2026-04-12T09:45:45.605Z</time></trkpt><trkpt lat="43.9998517" lon="12.47519"><ele>199.0</ele><time>2026-04-12T09:45:46.606Z</time></trkpt><trkpt lat="43.99999" lon="12.475305"><ele>199.0</ele><time>2026-04-12T09:45:47.606Z</time></trkpt><trkpt lat="44.0001117" lon="12.4754433"><ele>199.0</ele><time>2026-04-12T09:45:48.605Z</time></trkpt><trkpt lat="44.0002217" lon="12.4756083"><ele>197.0</ele><time>2026-04-12T09:45:49.606Z</time></trkpt><trkpt lat="44.000325" lon="12.47578"><ele>195.0</ele><time>2026-04-12T09:45:50.605Z</time></trkpt><trkpt lat="44.0004133" lon="12.4759617"><ele>193.0</ele><time>2026-04-12T09:45:51.605Z</time></trkpt><trkpt lat="44.0004967" lon="12.4761633"><ele>189.66666666666666</ele><time>2026-04-12T09:45:52.606Z</time></trkpt><trkpt lat="44.00058" lon="12.4763883"><ele>186.33333333333331</ele><time>2026-04-12T09:45:53.606Z</time></trkpt><trkpt lat="44.0006733" lon="12.4766233"><ele>183.0</ele><time>2026-04-12T09:45:54.606Z</time></trkpt><trkpt lat="44.0007483" lon="12.4769017"><ele>184.33333333333334</ele><time>2026-04-12T09:45:55.605Z</time></trkpt><trkpt lat="44.00083" lon="12.47719"><ele>185.66666666666669</ele><time>2026-04-12T09:45:56.605Z</time></trkpt><trkpt lat="44.0008983" lon="12.4774767"><ele>187.0</ele><time>2026-04-12T09:45:57.605Z</time></trkpt><trkpt lat="44.0009667" lon="12.4777467"><ele>186.33333333333334</ele><time>2026-04-12T09:45:58.606Z</time></trkpt><trkpt lat="44.001025" lon="12.478005"><ele>185.66666666666666</ele><time>2026-04-12T09:45:59.605Z</time></trkpt><trkpt lat="44.0010867" lon="12.4782467"><ele>185.0</ele><time>2026-04-12T09:46:00.605Z</time></trkpt><trkpt lat="44.00116" lon="12.47846"><ele>185.0</ele><time>2026-04-12T09:46:01.605Z</time></trkpt><trkpt lat="44.0012367" lon="12.47868"><ele>185.0</ele><time>2026-04-12T09:46:02.606Z</time></trkpt><trkpt lat="44.0013417" lon="12.47889"><ele>185.0</ele><time>2026-04-12T09:46:03.606Z</time></trkpt><trkpt lat="44.0014467" lon="12.4790867"><ele>185.33333333333331</ele><time>2026-04-12T09:46:04.605Z</time></trkpt><trkpt lat="44.0015483" lon="12.479275"><ele>185.66666666666666</ele><time>2026-04-12T09:46:05.605Z</time></trkpt><trkpt lat="44.0016333" lon="12.479455"><ele>186.0</ele><time>2026-04-12T09:46:06.606Z</time></trkpt><trkpt lat="44.0017033" lon="12.4796317"><ele>184.25</ele><time>2026-04-12T09:46:07.606Z</time></trkpt><trkpt lat="44.0017683" lon="12.4797883"><ele>182.5</ele><time>2026-04-12T09:46:08.605Z</time></trkpt><trkpt lat="44.0017883" lon="12.4799583"><ele>180.75</ele><time>2026-04-12T09:46:09.606Z</time></trkpt><trkpt lat="44.0017867" lon="12.480135"><ele>179.0</ele><time>2026-04-12T09:46:10.605Z</time></trkpt><trkpt lat="44.0017517" lon="12.48031"><ele>178.0</ele><time>2026-04-12T09:46:11.605Z</time></trkpt><trkpt lat="44.0017167" lon="12.4804583"><ele>177.0</ele><time>2026-04-12T09:46:12.606Z</time></trkpt><trkpt lat="44.0016867" lon="12.4805817"><ele>176.0</ele><time>2026-04-12T09:46:13.606Z</time></trkpt><trkpt lat="44.0016733" lon="12.4806983"><ele>175.0</ele><time>2026-04-12T09:46:14.606Z</time></trkpt><trkpt lat="44.0016833" lon="12.4808033"><ele>174.0</ele><time>2026-04-12T09:46:15.605Z</time></trkpt><trkpt lat="44.00174" lon="12.4808717"><ele>173.0</ele><time>2026-04-12T09:46:16.606Z</time></trkpt><trkpt lat="44.0018367" lon="12.4808667"><ele>173.0</ele><time>2026-04-12T09:46:17.606Z</time></trkpt><trkpt lat="44.0019317" lon="12.4808033"><ele>173.0</ele><time>2026-04-12T09:46:18.606Z</time></trkpt><trkpt lat="44.0020267" lon="12.480695"><ele>173.0</ele><time>2026-04-12T09:46:19.606Z</time></trkpt><trkpt lat="44.0021333" lon="12.480525"><ele>173.0</ele><time>2026-04-12T09:46:20.606Z</time></trkpt><trkpt lat="44.002245" lon="12.48034"><ele>174.5</ele><time>2026-04-12T09:46:21.606Z</time></trkpt><trkpt lat="44.0023467" lon="12.4801917"><ele>176.0</ele><time>2026-04-12T09:46:22.606Z</time></trkpt><trkpt lat="44.0024333" lon="12.4800767"><ele>177.5</ele><time>2026-04-12T09:46:23.605Z</time></trkpt><trkpt lat="44.002515" lon="12.4799933"><ele>179.0</ele><time>2026-04-12T09:46:24.606Z</time></trkpt><trkpt lat="44.0026067" lon="12.4799717"><ele>176.0</ele><time>2026-04-12T09:46:25.606Z</time></trkpt><trkpt lat="44.002685" lon="12.4800117"><ele>173.0</ele><time>2026-04-12T09:46:26.606Z</time></trkpt><trkpt lat="44.00275" lon="12.4800967"><ele>170.0</ele><time>2026-04-12T09:46:27.605Z</time></trkpt><trkpt lat="44.0027833" lon="12.4802133"><ele>167.0</ele><time>2026-04-12T09:46:28.605Z</time></trkpt><trkpt lat="44.0027933" lon="12.480345"><ele>164.0</ele><time>2026-04-12T09:46:29.606Z</time></trkpt><trkpt lat="44.0027983" lon="12.4804767"><ele>163.5</ele><time>2026-04-12T09:46:30.605Z</time></trkpt><trkpt lat="44.002815" lon="12.480605"><ele>163.0</ele><time>2026-04-12T09:46:31.606Z</time></trkpt><trkpt lat="44.002855" lon="12.4807333"><ele>162.5</ele><time>2026-04-12T09:46:32.606Z</time></trkpt><trkpt lat="44.002945" lon="12.48086"><ele>162.0</ele><time>2026-04-12T09:46:33.605Z</time></trkpt><trkpt lat="44.00307" lon="12.4809867"><ele>162.0</ele><time>2026-04-12T09:46:34.606Z</time></trkpt><trkpt lat="44.00323" lon="12.4811067"><ele>162.0</ele><time>2026-04-12T09:46:35.605Z</time></trkpt><trkpt lat="44.0033983" lon="12.4812367"><ele>162.0</ele><time>2026-04-12T09:46:36.606Z</time></trkpt><trkpt lat="44.00356" lon="12.4813633"><ele>158.66666666666666</ele><time>2026-04-12T09:46:37.605Z</time></trkpt><trkpt lat="44.0037167" lon="12.4814817"><ele>155.33333333333331</ele><time>2026-04-12T09:46:38.606Z</time></trkpt><trkpt lat="44.0038667" lon="12.481615"><ele>152.0</ele><time>2026-04-12T09:46:39.606Z</time></trkpt><trkpt lat="44.004015" lon="12.4817817"><ele>152.0</ele><time>2026-04-12T09:46:40.606Z</time></trkpt><trkpt lat="44.0041617" lon="12.4819883"><ele>152.0</ele><time>2026-04-12T09:46:41.606Z</time></trkpt><trkpt lat="44.00431" lon="12.4822317"><ele>152.0</ele><time>2026-04-12T09:46:42.606Z</time></trkpt><trkpt lat="44.0044767" lon="12.4824933"><ele>148.5</ele><time>2026-04-12T09:46:43.605Z</time></trkpt><trkpt lat="44.00465" lon="12.4827467"><ele>145.0</ele><time>2026-04-12T09:46:44.606Z</time></trkpt><trkpt lat="44.0048133" lon="12.4829883"><ele>144.0</ele><time>2026-04-12T09:46:45.606Z</time></trkpt><trkpt lat="44.0049683" lon="12.483215"><ele>143.0</ele><time>2026-04-12T09:46:46.605Z</time></trkpt><trkpt lat="44.0051167" lon="12.4834367"><ele>142.0</ele><time>2026-04-12T09:46:47.605Z</time></trkpt><trkpt lat="44.0052667" lon="12.4836667"><ele>139.5</ele><time>2026-04-12T09:46:48.606Z</time></trkpt><trkpt lat="44.0054233" lon="12.4838967"><ele>137.0</ele><time>2026-04-12T09:46:49.605Z</time></trkpt><trkpt lat="44.0055783" lon="12.484125"><ele>137.0</ele><time>2026-04-12T09:46:50.605Z</time></trkpt><trkpt lat="44.005735" lon="12.484365"><ele>137.0</ele><time>2026-04-12T09:46:51.606Z</time></trkpt><trkpt lat="44.0058917" lon="12.4846017"><ele>138.33333333333331</ele><time>2026-04-12T09:46:52.606Z</time></trkpt><trkpt lat="44.0060367" lon="12.4848317"><ele>139.66666666666666</ele><time>2026-04-12T09:46:53.607Z</time></trkpt><trkpt lat="44.00618" lon="12.4850567"><ele>141.0</ele><time>2026-04-12T09:46:54.606Z</time></trkpt><trkpt lat="44.0063233" lon="12.48528"><ele>140.66666666666666</ele><time>2026-04-12T09:46:55.607Z</time></trkpt><trkpt lat="44.0064817" lon="12.4854833"><ele>140.33333333333331</ele><time>2026-04-12T09:46:56.607Z</time></trkpt><trkpt lat="44.0066567" lon="12.4856783"><ele>140.0</ele><time>2026-04-12T09:46:57.607Z</time></trkpt><trkpt lat="44.0068633" lon="12.4858367"><ele>138.0</ele><time>2026-04-12T09:46:58.607Z</time></trkpt><trkpt lat="44.0071033" lon="12.48596"><ele>136.0</ele><time>2026-04-12T09:46:59.607Z</time></trkpt><trkpt lat="44.0073633" lon="12.486095"><ele>133.0</ele><time>2026-04-12T09:47:00.607Z</time></trkpt><trkpt lat="44.0076267" lon="12.4862617"><ele>130.0</ele><time>2026-04-12T09:47:01.606Z</time></trkpt><trkpt lat="44.007875" lon="12.4864367"><ele>130.0</ele><time>2026-04-12T09:47:02.606Z</time></trkpt><trkpt lat="44.0081033" lon="12.486615"><ele>130.0</ele><time>2026-04-12T09:47:03.606Z</time></trkpt><trkpt lat="44.00831" lon="12.4867883"><ele>132.0</ele><time>2026-04-12T09:47:04.607Z</time></trkpt><trkpt lat="44.0085033" lon="12.48695"><ele>134.0</ele><time>2026-04-12T09:47:05.607Z</time></trkpt><trkpt lat="44.0086867" lon="12.4871167"><ele>136.0</ele><time>2026-04-12T09:47:06.607Z</time></trkpt><trkpt lat="44.0088617" lon="12.4872817"><ele>136.0</ele><time>2026-04-12T09:47:07.607Z</time></trkpt><trkpt lat="44.0090333" lon="12.4874583"><ele>136.0</ele><time>2026-04-12T09:47:08.607Z</time></trkpt><trkpt lat="44.0092067" lon="12.4876417"><ele>136.0</ele><time>2026-04-12T09:47:09.607Z</time></trkpt><trkpt lat="44.0093817" lon="12.4878433"><ele>139.0</ele><time>2026-04-12T09:47:10.606Z</time></trkpt><trkpt lat="44.0095583" lon="12.4880483"><ele>142.0</ele><time>2026-04-12T09:47:11.606Z</time></trkpt><trkpt lat="44.0097267" lon="12.4882517"><ele>142.0</ele><time>2026-04-12T09:47:12.607Z</time></trkpt><trkpt lat="44.0099067" lon="12.488445"><ele>142.0</ele><time>2026-04-12T09:47:13.607Z</time></trkpt><trkpt lat="44.0100967" lon="12.4886417"><ele>144.66666666666669</ele><time>2026-04-12T09:47:14.606Z</time></trkpt><trkpt lat="44.0102917" lon="12.4888167"><ele>147.33333333333334</ele><time>2026-04-12T09:47:15.607Z</time></trkpt><trkpt lat="44.0104667" lon="12.48897"><ele>150.0</ele><time>2026-04-12T09:47:16.607Z</time></trkpt><trkpt lat="44.01064" lon="12.48911"><ele>150.0</ele><time>2026-04-12T09:47:17.607Z</time></trkpt><trkpt lat="44.0108083" lon="12.48925"><ele>150.0</ele><time>2026-04-12T09:47:18.607Z</time></trkpt><trkpt lat="44.0109833" lon="12.4893867"><ele>150.0</ele><time>2026-04-12T09:47:19.606Z</time></trkpt><trkpt lat="44.0111633" lon="12.4895217"><ele>149.66666666666666</ele><time>2026-04-12T09:47:20.607Z</time></trkpt><trkpt lat="44.0113533" lon="12.4896617"><ele>149.33333333333331</ele><time>2026-04-12T09:47:21.607Z</time></trkpt><trkpt lat="44.0115483" lon="12.4898267"><ele>149.0</ele><time>2026-04-12T09:47:22.606Z</time></trkpt><trkpt lat="44.0117533" lon="12.4900033"><ele>144.5</ele><time>2026-04-12T09:47:23.606Z</time></trkpt><trkpt lat="44.0119683" lon="12.4901733"><ele>140.0</ele><time>2026-04-12T09:47:24.607Z</time></trkpt><trkpt lat="44.0121833" lon="12.490345"><ele>139.0</ele><time>2026-04-12T09:47:25.606Z</time></trkpt><trkpt lat="44.0124033" lon="12.49052"><ele>138.0</ele><time>2026-04-12T09:47:26.607Z</time></trkpt><trkpt lat="44.0126167" lon="12.4906833"><ele>135.5</ele><time>2026-04-12T09:47:27.606Z</time></trkpt><trkpt lat="44.012825" lon="12.49084"><ele>133.0</ele><time>2026-04-12T09:47:28.607Z</time></trkpt><trkpt lat="44.0130333" lon="12.4910033"><ele>133.0</ele><time>2026-04-12T09:47:29.606Z</time></trkpt><trkpt lat="44.0132433" lon="12.4911833"><ele>133.0</ele><time>2026-04-12T09:47:30.607Z</time></trkpt><trkpt lat="44.0134533" lon="12.4913767"><ele>132.0</ele><time>2026-04-12T09:47:31.607Z</time></trkpt><trkpt lat="44.0136733" lon="12.4915883"><ele>131.0</ele><time>2026-04-12T09:47:32.606Z</time></trkpt><trkpt lat="44.0139017" lon="12.49181"><ele>131.0</ele><time>2026-04-12T09:47:33.607Z</time></trkpt><trkpt lat="44.0141267" lon="12.49203"><ele>131.0</ele><time>2026-04-12T09:47:34.606Z</time></trkpt><trkpt lat="44.01435" lon="12.49225"><ele>133.0</ele><time>2026-04-12T09:47:35.607Z</time></trkpt><trkpt lat="44.01456" lon="12.4924633"><ele>135.0</ele><time>2026-04-12T09:47:36.607Z</time></trkpt><trkpt lat="44.014765" lon="12.492665"><ele>135.0</ele><time>2026-04-12T09:47:37.607Z</time></trkpt><trkpt lat="44.01496" lon="12.4928617"><ele>135.0</ele><time>2026-04-12T09:47:38.607Z</time></trkpt><trkpt lat="44.0151483" lon="12.493055"><ele>133.0</ele><time>2026-04-12T09:47:39.607Z</time></trkpt><trkpt lat="44.015335" lon="12.49325"><ele>131.0</ele><time>2026-04-12T09:47:40.607Z</time></trkpt><trkpt lat="44.0155133" lon="12.4934517"><ele>131.0</ele><time>2026-04-12T09:47:41.607Z</time></trkpt><trkpt lat="44.0156767" lon="12.4936683"><ele>131.0</ele><time>2026-04-12T09:47:42.607Z</time></trkpt><trkpt lat="44.01584" lon="12.4938817"><ele>129.0</ele><time>2026-04-12T09:47:43.607Z</time></trkpt><trkpt lat="44.0160067" lon="12.4940933"><ele>127.0</ele><time>2026-04-12T09:47:44.607Z</time></trkpt><trkpt lat="44.016155" lon="12.494295"><ele>125.0</ele><time>2026-04-12T09:47:45.607Z</time></trkpt><trkpt lat="44.0163067" lon="12.494485"><ele>125.66666666666666</ele><time>2026-04-12T09:47:46.607Z</time></trkpt><trkpt lat="44.0164567" lon="12.4946683"><ele>126.33333333333334</ele><time>2026-04-12T09:47:47.607Z</time></trkpt><trkpt lat="44.0166017" lon="12.49485"><ele>127.0</ele><time>2026-04-12T09:47:48.607Z</time></trkpt><trkpt lat="44.0167383" lon="12.495045"><ele>127.0</ele><time>2026-04-12T09:47:49.607Z</time></trkpt><trkpt lat="44.0168717" lon="12.4952433"><ele>127.0</ele><time>2026-04-12T09:47:50.607Z</time></trkpt><trkpt lat="44.0170083" lon="12.4954533"><ele>127.0</ele><time>2026-04-12T09:47:51.606Z</time></trkpt><trkpt lat="44.0171367" lon="12.4956567"><ele>123.66666666666667</ele><time>2026-04-12T09:47:52.606Z</time></trkpt><trkpt lat="44.01725" lon="12.495865"><ele>120.33333333333334</ele><time>2026-04-12T09:47:53.607Z</time></trkpt><trkpt lat="44.0173567" lon="12.4960733"><ele>117.0</ele><time>2026-04-12T09:47:54.607Z</time></trkpt><trkpt lat="44.0174583" lon="12.496265"><ele>119.0</ele><time>2026-04-12T09:47:55.607Z</time></trkpt><trkpt lat="44.0175477" lon="12.4964558"><ele>121.0</ele><time>2026-04-12T09:47:56.606Z</time></trkpt><trkpt lat="44.0176264" lon="12.4966216"><ele>123.0</ele><time>2026-04-12T09:47:57.607Z</time></trkpt><trkpt lat="44.0177003" lon="12.4967719"><ele>125.0</ele><time>2026-04-12T09:47:58.607Z</time></trkpt><trkpt lat="44.0177664" lon="12.4968975"><ele>124.99999999999999</ele><time>2026-04-12T09:47:59.607Z</time></trkpt><trkpt lat="44.0178292" lon="12.4969958"><ele>125.0</ele><time>2026-04-12T09:48:00.607Z</time></trkpt><trkpt lat="44.0178943" lon="12.4970793"><ele>125.0</ele><time>2026-04-12T09:48:01.607Z</time></trkpt><trkpt lat="44.0179641" lon="12.4971528"><ele>125.0</ele><time>2026-04-12T09:48:02.607Z</time></trkpt><trkpt lat="44.0180313" lon="12.4972178"><ele>124.99999999999999</ele><time>2026-04-12T09:48:03.606Z</time></trkpt><trkpt lat="44.0180896" lon="12.4972693"><ele>125.0</ele><time>2026-04-12T09:48:04.607Z</time></trkpt><trkpt lat="44.0180369" lon="12.4974058"><ele>124.75</ele><time>2026-04-12T09:48:05.795Z</time></trkpt><trkpt lat="44.0181027" lon="12.4973629"><ele>124.5</ele><time>2026-04-12T09:48:07.175Z</time></trkpt><trkpt lat="44.0182138" lon="12.4973591"><ele>124.25</ele><time>2026-04-12T09:48:08.103Z</time></trkpt><trkpt lat="44.0183454" lon="12.4973907"><ele>124.0</ele><time>2026-04-12T09:48:09.104Z</time></trkpt><trkpt lat="44.0185698" lon="12.4974817"><ele>124.0</ele><time>2026-04-12T09:48:10.603Z</time></trkpt><trkpt lat="44.0187322" lon="12.4975327"><ele>124.0</ele><time>2026-04-12T09:48:11.604Z</time></trkpt><trkpt lat="44.0188855" lon="12.4975749"><ele>124.0</ele><time>2026-04-12T09:48:12.605Z</time></trkpt><trkpt lat="44.0190249" lon="12.4976132"><ele>124.0</ele><time>2026-04-12T09:48:13.605Z</time></trkpt><trkpt lat="44.0191436" lon="12.4976965"><ele>124.0</ele><time>2026-04-12T09:48:14.605Z</time></trkpt><trkpt lat="44.0192582" lon="12.4978326"><ele>124.0</ele><time>2026-04-12T09:48:15.605Z</time></trkpt><trkpt lat="44.0193627" lon="12.4980223"><ele>120.33333333333334</ele><time>2026-04-12T09:48:16.604Z</time></trkpt><trkpt lat="44.0194587" lon="12.4982356"><ele>116.66666666666666</ele><time>2026-04-12T09:48:17.605Z</time></trkpt><trkpt lat="44.0195569" lon="12.4984374"><ele>113.0</ele><time>2026-04-12T09:48:18.605Z</time></trkpt><trkpt lat="44.0196626" lon="12.4986332"><ele>112.0</ele><time>2026-04-12T09:48:19.605Z</time></trkpt><trkpt lat="44.0197866" lon="12.4988272"><ele>111.0</ele><time>2026-04-12T09:48:20.605Z</time></trkpt><trkpt lat="44.01993" lon="12.4990134"><ele>110.0</ele><time>2026-04-12T09:48:21.605Z</time></trkpt><trkpt lat="44.0200833" lon="12.4991833"><ele>110.0</ele><time>2026-04-12T09:48:22.604Z</time></trkpt><trkpt lat="44.0202396" lon="12.4993397"><ele>110.0</ele><time>2026-04-12T09:48:23.605Z</time></trkpt><trkpt lat="44.0203886" lon="12.4994945"><ele>110.0</ele><time>2026-04-12T09:48:24.605Z</time></trkpt><trkpt lat="44.020538" lon="12.4996508"><ele>108.0</ele><time>2026-04-12T09:48:25.605Z</time></trkpt><trkpt lat="44.0206831" lon="12.4998172"><ele>106.0</ele><time>2026-04-12T09:48:26.605Z</time></trkpt><trkpt lat="44.0208239" lon="12.4999965"><ele>104.0</ele><time>2026-04-12T09:48:27.605Z</time></trkpt><trkpt lat="44.0209624" lon="12.5001857"><ele>104.0</ele><time>2026-04-12T09:48:28.605Z</time></trkpt><trkpt lat="44.0210934" lon="12.5003711"><ele>104.0</ele><time>2026-04-12T09:48:29.605Z</time></trkpt><trkpt lat="44.0212216" lon="12.5005551"><ele>104.0</ele><time>2026-04-12T09:48:30.605Z</time></trkpt><trkpt lat="44.0213569" lon="12.5007357"><ele>104.33333333333333</ele><time>2026-04-12T09:48:31.605Z</time></trkpt><trkpt lat="44.0214872" lon="12.5009142"><ele>104.66666666666666</ele><time>2026-04-12T09:48:32.604Z</time></trkpt><trkpt lat="44.0216075" lon="12.50108"><ele>105.0</ele><time>2026-04-12T09:48:33.605Z</time></trkpt><trkpt lat="44.0217227" lon="12.501241"><ele>102.66666666666666</ele><time>2026-04-12T09:48:34.604Z</time></trkpt><trkpt lat="44.0218387" lon="12.5013937"><ele>100.33333333333333</ele><time>2026-04-12T09:48:35.605Z</time></trkpt><trkpt lat="44.021953" lon="12.5015432"><ele>98.0</ele><time>2026-04-12T09:48:36.605Z</time></trkpt><trkpt lat="44.0220599" lon="12.5016901"><ele>98.0</ele><time>2026-04-12T09:48:37.605Z</time></trkpt><trkpt lat="44.0221594" lon="12.5018343"><ele>98.0</ele><time>2026-04-12T09:48:38.605Z</time></trkpt><trkpt lat="44.0222511" lon="12.5019595"><ele>98.0</ele><time>2026-04-12T09:48:39.605Z</time></trkpt><trkpt lat="44.0223315" lon="12.5020841"><ele>98.0</ele><time>2026-04-12T09:48:40.605Z</time></trkpt><trkpt lat="44.0224068" lon="12.5022166"><ele>96.75</ele><time>2026-04-12T09:48:41.604Z</time></trkpt><trkpt lat="44.0224881" lon="12.5023618"><ele>95.5</ele><time>2026-04-12T09:48:42.605Z</time></trkpt><trkpt lat="44.0225541" lon="12.5025213"><ele>94.25</ele><time>2026-04-12T09:48:43.604Z</time></trkpt><trkpt lat="44.0226027" lon="12.5026813"><ele>93.0</ele><time>2026-04-12T09:48:44.604Z</time></trkpt><trkpt lat="44.0226399" lon="12.5028329"><ele>92.5</ele><time>2026-04-12T09:48:45.605Z</time></trkpt><trkpt lat="44.0226808" lon="12.5029759"><ele>92.0</ele><time>2026-04-12T09:48:46.604Z</time></trkpt><trkpt lat="44.022728" lon="12.5031198"><ele>91.5</ele><time>2026-04-12T09:48:47.604Z</time></trkpt><trkpt lat="44.0227833" lon="12.5032589"><ele>91.0</ele><time>2026-04-12T09:48:48.605Z</time></trkpt><trkpt lat="44.0228246" lon="12.5034096"><ele>91.0</ele><time>2026-04-12T09:48:49.604Z</time></trkpt><trkpt lat="44.0228485" lon="12.5035746"><ele>91.0</ele><time>2026-04-12T09:48:50.604Z</time></trkpt><trkpt lat="44.0228488" lon="12.5037412"><ele>91.0</ele><time>2026-04-12T09:48:51.604Z</time></trkpt><trkpt lat="44.0228335" lon="12.5039052"><ele>91.0</ele><time>2026-04-12T09:48:52.604Z</time></trkpt><trkpt lat="44.022813" lon="12.5040676"><ele>90.75</ele><time>2026-04-12T09:48:53.605Z</time></trkpt><trkpt lat="44.0227992" lon="12.5042381"><ele>90.5</ele><time>2026-04-12T09:48:54.604Z</time></trkpt><trkpt lat="44.0227897" lon="12.504414"><ele>90.25</ele><time>2026-04-12T09:48:55.605Z</time></trkpt><trkpt lat="44.0227973" lon="12.5045886"><ele>90.0</ele><time>2026-04-12T09:48:56.605Z</time></trkpt><trkpt lat="44.0228161" lon="12.5047718"><ele>90.0</ele><time>2026-04-12T09:48:57.604Z</time></trkpt><trkpt lat="44.0228499" lon="12.5049644"><ele>90.0</ele><time>2026-04-12T09:48:58.604Z</time></trkpt><trkpt lat="44.0229006" lon="12.5051874"><ele>90.0</ele><time>2026-04-12T09:48:59.605Z</time></trkpt><trkpt lat="44.022965" lon="12.5054454"><ele>90.5</ele><time>2026-04-12T09:49:00.605Z</time></trkpt><trkpt lat="44.023111" lon="12.5060264"><ele>91.0</ele><time>2026-04-12T09:49:02.605Z</time></trkpt><trkpt lat="44.0231983" lon="12.5063383"><ele>92.33333333333333</ele><time>2026-04-12T09:49:03.604Z</time></trkpt><trkpt lat="44.0232683" lon="12.5066217"><ele>93.66666666666667</ele><time>2026-04-12T09:49:04.605Z</time></trkpt><trkpt lat="44.0233317" lon="12.5068917"><ele>95.0</ele><time>2026-04-12T09:49:05.605Z</time></trkpt><trkpt lat="44.0233983" lon="12.507165"><ele>95.66666666666667</ele><time>2026-04-12T09:49:06.604Z</time></trkpt><trkpt lat="44.02347" lon="12.5074517"><ele>96.33333333333334</ele><time>2026-04-12T09:49:07.605Z</time></trkpt><trkpt lat="44.0235233" lon="12.5077333"><ele>97.0</ele><time>2026-04-12T09:49:08.605Z</time></trkpt><trkpt lat="44.0235817" lon="12.508"><ele>97.66666666666667</ele><time>2026-04-12T09:49:09.605Z</time></trkpt><trkpt lat="44.0236417" lon="12.5082567"><ele>98.33333333333334</ele><time>2026-04-12T09:49:10.605Z</time></trkpt><trkpt lat="44.0237283" lon="12.50852"><ele>99.0</ele><time>2026-04-12T09:49:11.605Z</time></trkpt><trkpt lat="44.0238367" lon="12.50878"><ele>99.5</ele><time>2026-04-12T09:49:12.605Z</time></trkpt><trkpt lat="44.0239567" lon="12.509055"><ele>100.0</ele><time>2026-04-12T09:49:13.604Z</time></trkpt><trkpt lat="44.0240767" lon="12.509325"><ele>98.66666666666667</ele><time>2026-04-12T09:49:14.604Z</time></trkpt><trkpt lat="44.0241833" lon="12.5095817"><ele>97.33333333333334</ele><time>2026-04-12T09:49:15.605Z</time></trkpt><trkpt lat="44.0242867" lon="12.5098267"><ele>96.0</ele><time>2026-04-12T09:49:16.605Z</time></trkpt><trkpt lat="44.0243867" lon="12.5100667"><ele>96.0</ele><time>2026-04-12T09:49:17.605Z</time></trkpt><trkpt lat="44.0244883" lon="12.5102933"><ele>96.0</ele><time>2026-04-12T09:49:18.605Z</time></trkpt><trkpt lat="44.0245983" lon="12.51051"><ele>96.0</ele><time>2026-04-12T09:49:19.604Z</time></trkpt><trkpt lat="44.024745" lon="12.5106983"><ele>95.33333333333333</ele><time>2026-04-12T09:49:20.605Z</time></trkpt><trkpt lat="44.0249233" lon="12.51086"><ele>94.66666666666666</ele><time>2026-04-12T09:49:21.604Z</time></trkpt><trkpt lat="44.02509" lon="12.5110233"><ele>94.0</ele><time>2026-04-12T09:49:22.605Z</time></trkpt><trkpt lat="44.0252483" lon="12.5112"><ele>92.0</ele><time>2026-04-12T09:49:23.604Z</time></trkpt><trkpt lat="44.025405" lon="12.51139"><ele>90.0</ele><time>2026-04-12T09:49:24.605Z</time></trkpt><trkpt lat="44.0255583" lon="12.5116067"><ele>88.0</ele><time>2026-04-12T09:49:25.605Z</time></trkpt><trkpt lat="44.0257083" lon="12.5118183"><ele>84.66666666666666</ele><time>2026-04-12T09:49:26.605Z</time></trkpt><trkpt lat="44.0258517" lon="12.512025"><ele>81.33333333333333</ele><time>2026-04-12T09:49:27.605Z</time></trkpt><trkpt lat="44.02599" lon="12.5122233"><ele>78.0</ele><time>2026-04-12T09:49:28.604Z</time></trkpt><trkpt lat="44.0261067" lon="12.5124317"><ele>78.0</ele><time>2026-04-12T09:49:29.604Z</time></trkpt><trkpt lat="44.02622" lon="12.51263"><ele>78.0</ele><time>2026-04-12T09:49:30.604Z</time></trkpt><trkpt lat="44.0263283" lon="12.5128117"><ele>78.0</ele><time>2026-04-12T09:49:31.604Z</time></trkpt><trkpt lat="44.0264217" lon="12.5129683"><ele>78.5</ele><time>2026-04-12T09:49:32.605Z</time></trkpt><trkpt lat="44.02652" lon="12.5130867"><ele>79.0</ele><time>2026-04-12T09:49:33.604Z</time></trkpt><trkpt lat="44.0266417" lon="12.513145"><ele>79.5</ele><time>2026-04-12T09:49:34.604Z</time></trkpt><trkpt lat="44.0267883" lon="12.51314"><ele>80.0</ele><time>2026-04-12T09:49:35.604Z</time></trkpt><trkpt lat="44.026975" lon="12.51309"><ele>80.0</ele><time>2026-04-12T09:49:36.605Z</time></trkpt><trkpt lat="44.027165" lon="12.5130333"><ele>80.0</ele><time>2026-04-12T09:49:37.605Z</time></trkpt><trkpt lat="44.027385" lon="12.5129483"><ele>80.0</ele><time>2026-04-12T09:49:38.605Z</time></trkpt><trkpt lat="44.02761" lon="12.5128533"><ele>78.0</ele><time>2026-04-12T09:49:39.604Z</time></trkpt><trkpt lat="44.0278733" lon="12.5127483"><ele>76.0</ele><time>2026-04-12T09:49:40.605Z</time></trkpt><trkpt lat="44.028115" lon="12.512655"><ele>75.0</ele><time>2026-04-12T09:49:41.604Z</time></trkpt><trkpt lat="44.0283433" lon="12.5125633"><ele>74.0</ele><time>2026-04-12T09:49:42.604Z</time></trkpt><trkpt lat="44.02856" lon="12.51248"><ele>74.0</ele><time>2026-04-12T09:49:43.605Z</time></trkpt><trkpt lat="44.028755" lon="12.5124033"><ele>74.0</ele><time>2026-04-12T09:49:44.604Z</time></trkpt><trkpt lat="44.0289283" lon="12.5123417"><ele>74.0</ele><time>2026-04-12T09:49:45.605Z</time></trkpt><trkpt lat="44.0290833" lon="12.512295"><ele>74.66666666666667</ele><time>2026-04-12T09:49:46.605Z</time></trkpt><trkpt lat="44.02923" lon="12.5122917"><ele>75.33333333333333</ele><time>2026-04-12T09:49:47.605Z</time></trkpt><trkpt lat="44.0293867" lon="12.5123433"><ele>76.0</ele><time>2026-04-12T09:49:48.604Z</time></trkpt><trkpt lat="44.0295517" lon="12.5124433"><ele>76.0</ele><time>2026-04-12T09:49:49.605Z</time></trkpt><trkpt lat="44.0297233" lon="12.51257"><ele>76.0</ele><time>2026-04-12T09:49:50.605Z</time></trkpt><trkpt lat="44.0298967" lon="12.51269"><ele>76.0</ele><time>2026-04-12T09:49:51.604Z</time></trkpt><trkpt lat="44.03007" lon="12.5128083"><ele>74.66666666666666</ele><time>2026-04-12T09:49:52.605Z</time></trkpt><trkpt lat="44.03024" lon="12.512915"><ele>73.33333333333333</ele><time>2026-04-12T09:49:53.605Z</time></trkpt><trkpt lat="44.0303883" lon="12.51306"><ele>72.0</ele><time>2026-04-12T09:49:54.604Z</time></trkpt><trkpt lat="44.03053" lon="12.513215"><ele>72.0</ele><time>2026-04-12T09:49:55.604Z</time></trkpt><trkpt lat="44.0306717" lon="12.5134017"><ele>72.0</ele><time>2026-04-12T09:49:56.605Z</time></trkpt><trkpt lat="44.030825" lon="12.513615"><ele>72.0</ele><time>2026-04-12T09:49:57.605Z</time></trkpt><trkpt lat="44.03097" lon="12.5138333"><ele>69.66666666666667</ele><time>2026-04-12T09:49:58.605Z</time></trkpt><trkpt lat="44.0311033" lon="12.5140483"><ele>67.33333333333334</ele><time>2026-04-12T09:49:59.605Z</time></trkpt><trkpt lat="44.0312367" lon="12.51425"><ele>65.0</ele><time>2026-04-12T09:50:00.605Z</time></trkpt><trkpt lat="44.0313833" lon="12.5144383"><ele>63.333333333333336</ele><time>2026-04-12T09:50:01.605Z</time></trkpt><trkpt lat="44.031565" lon="12.5146"><ele>61.66666666666667</ele><time>2026-04-12T09:50:02.605Z</time></trkpt><trkpt lat="44.03175" lon="12.5147317"><ele>60.0</ele><time>2026-04-12T09:50:03.605Z</time></trkpt><trkpt lat="44.0319267" lon="12.514845"><ele>59.0</ele><time>2026-04-12T09:50:04.605Z</time></trkpt><trkpt lat="44.0320883" lon="12.5149567"><ele>58.0</ele><time>2026-04-12T09:50:05.605Z</time></trkpt><trkpt lat="44.0322433" lon="12.5150317"><ele>57.0</ele><time>2026-04-12T09:50:06.604Z</time></trkpt><trkpt lat="44.032415" lon="12.5150583"><ele>55.33333333333333</ele><time>2026-04-12T09:50:07.604Z</time></trkpt><trkpt lat="44.0326033" lon="12.515045"><ele>53.666666666666664</ele><time>2026-04-12T09:50:08.605Z</time></trkpt><trkpt lat="44.0327983" lon="12.51501"><ele>52.0</ele><time>2026-04-12T09:50:09.605Z</time></trkpt><trkpt lat="44.0329833" lon="12.51497"><ele>52.0</ele><time>2026-04-12T09:50:10.605Z</time></trkpt><trkpt lat="44.0331367" lon="12.5149267"><ele>52.0</ele><time>2026-04-12T09:50:11.605Z</time></trkpt><trkpt lat="44.0332683" lon="12.5148533"><ele>52.0</ele><time>2026-04-12T09:50:12.605Z</time></trkpt><trkpt lat="44.0333883" lon="12.5147233"><ele>52.25</ele><time>2026-04-12T09:50:13.605Z</time></trkpt><trkpt lat="44.0334917" lon="12.5145417"><ele>52.5</ele><time>2026-04-12T09:50:14.604Z</time></trkpt><trkpt lat="44.033575" lon="12.5143817"><ele>52.75</ele><time>2026-04-12T09:50:15.605Z</time></trkpt><trkpt lat="44.0336533" lon="12.5142517"><ele>53.0</ele><time>2026-04-12T09:50:16.604Z</time></trkpt><trkpt lat="44.033725" lon="12.514155"><ele>53.0</ele><time>2026-04-12T09:50:17.604Z</time></trkpt><trkpt lat="44.0338117" lon="12.5141067"><ele>53.0</ele><time>2026-04-12T09:50:18.605Z</time></trkpt><trkpt lat="44.0339217" lon="12.5141233"><ele>53.0</ele><time>2026-04-12T09:50:19.605Z</time></trkpt><trkpt lat="44.0340433" lon="12.514205"><ele>53.0</ele><time>2026-04-12T09:50:20.605Z</time></trkpt><trkpt lat="44.0341817" lon="12.51434"><ele>52.333333333333336</ele><time>2026-04-12T09:50:21.605Z</time></trkpt><trkpt lat="44.0343317" lon="12.5145033"><ele>51.66666666666667</ele><time>2026-04-12T09:50:22.605Z</time></trkpt><trkpt lat="44.0344733" lon="12.5146583"><ele>51.0</ele><time>2026-04-12T09:50:23.605Z</time></trkpt><trkpt lat="44.0346033" lon="12.5147933"><ele>51.0</ele><time>2026-04-12T09:50:24.605Z</time></trkpt><trkpt lat="44.0347217" lon="12.5148967"><ele>51.0</ele><time>2026-04-12T09:50:25.605Z</time></trkpt><trkpt lat="44.03485" lon="12.5149433"><ele>51.0</ele><time>2026-04-12T09:50:26.605Z</time></trkpt><trkpt lat="44.0350033" lon="12.514955"><ele>51.0</ele><time>2026-04-12T09:50:27.605Z</time></trkpt><trkpt lat="44.0351867" lon="12.51492"><ele>48.666666666666664</ele><time>2026-04-12T09:50:28.605Z</time></trkpt><trkpt lat="44.0353833" lon="12.5149017"><ele>46.33333333333333</ele><time>2026-04-12T09:50:29.604Z</time></trkpt><trkpt lat="44.03559" lon="12.5149367"><ele>44.0</ele><time>2026-04-12T09:50:30.605Z</time></trkpt><trkpt lat="44.0357883" lon="12.515015"><ele>42.33333333333333</ele><time>2026-04-12T09:50:31.605Z</time></trkpt><trkpt lat="44.0359817" lon="12.5151017"><ele>40.666666666666664</ele><time>2026-04-12T09:50:32.605Z</time></trkpt><trkpt lat="44.0361567" lon="12.5151867"><ele>39.0</ele><time>2026-04-12T09:50:33.605Z</time></trkpt><trkpt lat="44.03632" lon="12.5152633"><ele>39.0</ele><time>2026-04-12T09:50:34.605Z</time></trkpt><trkpt lat="44.0364683" lon="12.5153317"><ele>39.0</ele><time>2026-04-12T09:50:35.605Z</time></trkpt><trkpt lat="44.036605" lon="12.51539"><ele>39.0</ele><time>2026-04-12T09:50:36.605Z</time></trkpt><trkpt lat="44.0367267" lon="12.5154183"><ele>39.0</ele><time>2026-04-12T09:50:37.605Z</time></trkpt><trkpt lat="44.036845" lon="12.51539"><ele>37.5</ele><time>2026-04-12T09:50:38.604Z</time></trkpt><trkpt lat="44.036955" lon="12.515295"><ele>36.0</ele><time>2026-04-12T09:50:39.605Z</time></trkpt><trkpt lat="44.0370333" lon="12.51515"><ele>34.5</ele><time>2026-04-12T09:50:40.605Z</time></trkpt><trkpt lat="44.0370883" lon="12.515005"><ele>33.0</ele><time>2026-04-12T09:50:41.605Z</time></trkpt><trkpt lat="44.0371467" lon="12.514895"><ele>33.0</ele><time>2026-04-12T09:50:42.605Z</time></trkpt><trkpt lat="44.0372217" lon="12.5148367"><ele>33.0</ele><time>2026-04-12T09:50:43.605Z</time></trkpt><trkpt lat="44.0373083" lon="12.5148517"><ele>33.0</ele><time>2026-04-12T09:50:44.605Z</time></trkpt><trkpt lat="44.0373833" lon="12.5149417"><ele>33.0</ele><time>2026-04-12T09:50:45.605Z</time></trkpt><trkpt lat="44.037455" lon="12.515085"><ele>33.0</ele><time>2026-04-12T09:50:46.604Z</time></trkpt><trkpt lat="44.0375217" lon="12.5152667"><ele>29.333333333333332</ele><time>2026-04-12T09:50:47.605Z</time></trkpt><trkpt lat="44.0375967" lon="12.5154783"><ele>25.666666666666664</ele><time>2026-04-12T09:50:48.605Z</time></trkpt><trkpt lat="44.0376833" lon="12.5156967"><ele>22.0</ele><time>2026-04-12T09:50:49.604Z</time></trkpt><trkpt lat="44.0377517" lon="12.5159033"><ele>22.0</ele><time>2026-04-12T09:50:50.605Z</time></trkpt><trkpt lat="44.03782" lon="12.51609"><ele>22.0</ele><time>2026-04-12T09:50:51.605Z</time></trkpt><trkpt lat="44.0378867" lon="12.5162633"><ele>22.0</ele><time>2026-04-12T09:50:52.605Z</time></trkpt><trkpt lat="44.0379433" lon="12.5164317"><ele>22.0</ele><time>2026-04-12T09:50:53.604Z</time></trkpt><trkpt lat="44.0379967" lon="12.5165717"><ele>21.5</ele><time>2026-04-12T09:50:54.605Z</time></trkpt><trkpt lat="44.03805" lon="12.5167117"><ele>21.0</ele><time>2026-04-12T09:50:55.604Z</time></trkpt><trkpt lat="44.03813" lon="12.5168667"><ele>20.5</ele><time>2026-04-12T09:50:56.605Z</time></trkpt><trkpt lat="44.0382217" lon="12.517035"><ele>20.0</ele><time>2026-04-12T09:50:57.604Z</time></trkpt><trkpt lat="44.03833" lon="12.5172067"><ele>18.333333333333336</ele><time>2026-04-12T09:50:58.605Z</time></trkpt><trkpt lat="44.03844" lon="12.517365"><ele>16.666666666666668</ele><time>2026-04-12T09:50:59.605Z</time></trkpt><trkpt lat="44.0385617" lon="12.51752"><ele>15.0</ele><time>2026-04-12T09:51:00.604Z</time></trkpt><trkpt lat="44.0386983" lon="12.5176633"><ele>15.0</ele><time>2026-04-12T09:51:01.605Z</time></trkpt><trkpt lat="44.038845" lon="12.517805"><ele>15.0</ele><time>2026-04-12T09:51:02.604Z</time></trkpt><trkpt lat="44.0389967" lon="12.51794"><ele>15.0</ele><time>2026-04-12T09:51:03.604Z</time></trkpt><trkpt lat="44.03914" lon="12.5180817"><ele>14.333333333333332</ele><time>2026-04-12T09:51:04.604Z</time></trkpt><trkpt lat="44.0392833" lon="12.5182317"><ele>13.666666666666666</ele><time>2026-04-12T09:51:05.605Z</time></trkpt><trkpt lat="44.0394217" lon="12.51838"><ele>13.0</ele><time>2026-04-12T09:51:06.604Z</time></trkpt><trkpt lat="44.0395517" lon="12.5185283"><ele>13.0</ele><time>2026-04-12T09:51:07.605Z</time></trkpt><trkpt lat="44.0396683" lon="12.5186883"><ele>13.0</ele><time>2026-04-12T09:51:08.605Z</time></trkpt><trkpt lat="44.0397833" lon="12.518855"><ele>13.0</ele><time>2026-04-12T09:51:09.605Z</time></trkpt><trkpt lat="44.0398967" lon="12.51902"><ele>13.0</ele><time>2026-04-12T09:51:10.605Z</time></trkpt><trkpt lat="44.040005" lon="12.5191833"><ele>13.0</ele><time>2026-04-12T09:51:11.604Z</time></trkpt><trkpt lat="44.040115" lon="12.519365"><ele>13.0</ele><time>2026-04-12T09:51:12.605Z</time></trkpt><trkpt lat="44.0402333" lon="12.51957"><ele>12.666666666666666</ele><time>2026-04-12T09:51:13.604Z</time></trkpt><trkpt lat="44.0403517" lon="12.5198067"><ele>12.333333333333332</ele><time>2026-04-12T09:51:14.605Z</time></trkpt><trkpt lat="44.0404717" lon="12.520065"><ele>12.0</ele><time>2026-04-12T09:51:15.604Z</time></trkpt><trkpt lat="44.0406083" lon="12.52035"><ele>12.0</ele><time>2026-04-12T09:51:16.604Z</time></trkpt><trkpt lat="44.040745" lon="12.52064"><ele>12.0</ele><time>2026-04-12T09:51:17.605Z</time></trkpt><trkpt lat="44.0408767" lon="12.5209033"><ele>12.333333333333332</ele><time>2026-04-12T09:51:18.604Z</time></trkpt><trkpt lat="44.0410067" lon="12.5211617"><ele>12.666666666666666</ele><time>2026-04-12T09:51:19.605Z</time></trkpt><trkpt lat="44.04114" lon="12.5214083"><ele>13.0</ele><time>2026-04-12T09:51:20.605Z</time></trkpt><trkpt lat="44.0412767" lon="12.5216517"><ele>13.0</ele><time>2026-04-12T09:51:21.604Z</time></trkpt><trkpt lat="44.0414067" lon="12.5218867"><ele>13.0</ele><time>2026-04-12T09:51:22.605Z</time></trkpt><trkpt lat="44.0415233" lon="12.522105"><ele>13.0</ele><time>2026-04-12T09:51:23.605Z</time></trkpt><trkpt lat="44.0416367" lon="12.52231"><ele>13.0</ele><time>2026-04-12T09:51:24.604Z</time></trkpt><trkpt lat="44.0417417" lon="12.5225"><ele>13.0</ele><time>2026-04-12T09:51:25.605Z</time></trkpt><trkpt lat="44.0418417" lon="12.5226817"><ele>13.0</ele><time>2026-04-12T09:51:26.604Z</time></trkpt><trkpt lat="44.0419167" lon="12.5228717"><ele>12.666666666666666</ele><time>2026-04-12T09:51:27.605Z</time></trkpt><trkpt lat="44.04197" lon="12.5230833"><ele>12.333333333333332</ele><time>2026-04-12T09:51:28.605Z</time></trkpt><trkpt lat="44.0419917" lon="12.5233233"><ele>12.0</ele><time>2026-04-12T09:51:29.605Z</time></trkpt><trkpt lat="44.0419833" lon="12.5235733"><ele>13.666666666666668</ele><time>2026-04-12T09:51:30.605Z</time></trkpt><trkpt lat="44.04195" lon="12.52382"><ele>15.333333333333334</ele><time>2026-04-12T09:51:31.605Z</time></trkpt><trkpt lat="44.0418833" lon="12.5240733"><ele>17.0</ele><time>2026-04-12T09:51:32.604Z</time></trkpt><trkpt lat="44.04179" lon="12.5243217"><ele>17.0</ele><time>2026-04-12T09:51:33.605Z</time></trkpt><trkpt lat="44.0416833" lon="12.5245533"><ele>17.0</ele><time>2026-04-12T09:51:34.604Z</time></trkpt><trkpt lat="44.0415833" lon="12.5247583"><ele>17.0</ele><time>2026-04-12T09:51:35.604Z</time></trkpt><trkpt lat="44.041515" lon="12.524955"><ele>17.333333333333336</ele><time>2026-04-12T09:51:36.605Z</time></trkpt><trkpt lat="44.041445" lon="12.5251483"><ele>17.666666666666668</ele><time>2026-04-12T09:51:37.604Z</time></trkpt><trkpt lat="44.0414017" lon="12.5253467"><ele>18.0</ele><time>2026-04-12T09:51:38.605Z</time></trkpt><trkpt lat="44.0414033" lon="12.525575"><ele>19.0</ele><time>2026-04-12T09:51:39.604Z</time></trkpt><trkpt lat="44.0414233" lon="12.525845"><ele>20.0</ele><time>2026-04-12T09:51:40.604Z</time></trkpt><trkpt lat="44.041465" lon="12.5261417"><ele>21.0</ele><time>2026-04-12T09:51:41.604Z</time></trkpt><trkpt lat="44.0415167" lon="12.5264583"><ele>22.0</ele><time>2026-04-12T09:51:42.605Z</time></trkpt><trkpt lat="44.0415817" lon="12.526795"><ele>23.0</ele><time>2026-04-12T09:51:43.605Z</time></trkpt><trkpt lat="44.0416617" lon="12.52712"><ele>22.0</ele><time>2026-04-12T09:51:44.604Z</time></trkpt><trkpt lat="44.0417367" lon="12.5274217"><ele>21.0</ele><time>2026-04-12T09:51:45.604Z</time></trkpt><trkpt lat="44.0418217" lon="12.5276967"><ele>20.0</ele><time>2026-04-12T09:51:46.604Z</time></trkpt><trkpt lat="44.0419283" lon="12.5279417"><ele>20.0</ele><time>2026-04-12T09:51:47.605Z</time></trkpt><trkpt lat="44.04204" lon="12.5281533"><ele>20.0</ele><time>2026-04-12T09:51:48.604Z</time></trkpt><trkpt lat="44.04214" lon="12.5283267"><ele>20.0</ele><time>2026-04-12T09:51:49.604Z</time></trkpt><trkpt lat="44.0422267" lon="12.52847"><ele>20.0</ele><time>2026-04-12T09:51:50.604Z</time></trkpt><trkpt lat="44.0423067" lon="12.5286017"><ele>20.0</ele><time>2026-04-12T09:51:51.604Z</time></trkpt><trkpt lat="44.04238" lon="12.5287217"><ele>20.0</ele><time>2026-04-12T09:51:52.605Z</time></trkpt><trkpt lat="44.0424433" lon="12.528835"><ele>20.0</ele><time>2026-04-12T09:51:53.604Z</time></trkpt><trkpt lat="44.042495" lon="12.528935"><ele>20.0</ele><time>2026-04-12T09:51:54.605Z</time></trkpt><trkpt lat="44.04255" lon="12.5290217"><ele>19.75</ele><time>2026-04-12T09:51:55.605Z</time></trkpt><trkpt lat="44.0425983" lon="12.529095"><ele>19.5</ele><time>2026-04-12T09:51:56.605Z</time></trkpt><trkpt lat="44.0426617" lon="12.5292217"><ele>19.25</ele><time>2026-04-12T09:51:58.604Z</time></trkpt><trkpt lat="44.0427345" lon="12.5294459"><ele>19.0</ele><time>2026-04-12T09:52:19.604Z</time></trkpt><trkpt lat="44.0427705" lon="12.5296166"><ele>19.5</ele><time>2026-04-12T09:52:20.605Z</time></trkpt><trkpt lat="44.0427916" lon="12.5297875"><ele>20.0</ele><time>2026-04-12T09:52:21.605Z</time></trkpt><trkpt lat="44.0427934" lon="12.5299438"><ele>20.5</ele><time>2026-04-12T09:52:22.605Z</time></trkpt><trkpt lat="44.042778" lon="12.5301067"><ele>21.0</ele><time>2026-04-12T09:52:23.605Z</time></trkpt><trkpt lat="44.0427336" lon="12.5302887"><ele>20.0</ele><time>2026-04-12T09:52:24.604Z</time></trkpt><trkpt lat="44.0426596" lon="12.530494"><ele>19.0</ele><time>2026-04-12T09:52:25.604Z</time></trkpt><trkpt lat="44.0425695" lon="12.5307289"><ele>18.0</ele><time>2026-04-12T09:52:26.605Z</time></trkpt><trkpt lat="44.0424727" lon="12.5309887"><ele>18.0</ele><time>2026-04-12T09:52:27.605Z</time></trkpt><trkpt lat="44.0423749" lon="12.5312657"><ele>18.0</ele><time>2026-04-12T09:52:28.605Z</time></trkpt><trkpt lat="44.0422738" lon="12.5315388"><ele>18.0</ele><time>2026-04-12T09:52:29.605Z</time></trkpt><trkpt lat="44.0421806" lon="12.5317956"><ele>18.0</ele><time>2026-04-12T09:52:30.604Z</time></trkpt><trkpt lat="44.0420924" lon="12.5320353"><ele>18.0</ele><time>2026-04-12T09:52:31.604Z</time></trkpt><trkpt lat="44.0420031" lon="12.5322709"><ele>18.0</ele><time>2026-04-12T09:52:32.605Z</time></trkpt><trkpt lat="44.0419191" lon="12.5325127"><ele>17.333333333333332</ele><time>2026-04-12T09:52:33.605Z</time></trkpt><trkpt lat="44.0418332" lon="12.5327562"><ele>16.666666666666664</ele><time>2026-04-12T09:52:34.604Z</time></trkpt><trkpt lat="44.0417502" lon="12.5329921"><ele>16.0</ele><time>2026-04-12T09:52:35.604Z</time></trkpt><trkpt lat="44.0416743" lon="12.5332125"><ele>17.0</ele><time>2026-04-12T09:52:36.604Z</time></trkpt><trkpt lat="44.0416012" lon="12.5334246"><ele>18.0</ele><time>2026-04-12T09:52:37.604Z</time></trkpt><trkpt lat="44.0415351" lon="12.533634"><ele>19.0</ele><time>2026-04-12T09:52:38.604Z</time></trkpt><trkpt lat="44.041465" lon="12.5338329"><ele>19.0</ele><time>2026-04-12T09:52:39.604Z</time></trkpt><trkpt lat="44.0414066" lon="12.5340317"><ele>19.0</ele><time>2026-04-12T09:52:40.605Z</time></trkpt><trkpt lat="44.0413812" lon="12.5342378"><ele>19.0</ele><time>2026-04-12T09:52:41.605Z</time></trkpt><trkpt lat="44.0414025" lon="12.5344537"><ele>18.0</ele><time>2026-04-12T09:52:42.604Z</time></trkpt><trkpt lat="44.0414702" lon="12.5346625"><ele>17.0</ele><time>2026-04-12T09:52:43.605Z</time></trkpt><trkpt lat="44.0415627" lon="12.5348588"><ele>16.0</ele><time>2026-04-12T09:52:44.604Z</time></trkpt><trkpt lat="44.0416683" lon="12.535043"><ele>15.333333333333332</ele><time>2026-04-12T09:52:45.605Z</time></trkpt><trkpt lat="44.0417856" lon="12.5352185"><ele>14.666666666666668</ele><time>2026-04-12T09:52:46.605Z</time></trkpt><trkpt lat="44.0419178" lon="12.5353896"><ele>14.0</ele><time>2026-04-12T09:52:47.605Z</time></trkpt><trkpt lat="44.0420615" lon="12.5355654"><ele>13.666666666666668</ele><time>2026-04-12T09:52:48.604Z</time></trkpt><trkpt lat="44.0422227" lon="12.5357534"><ele>13.333333333333332</ele><time>2026-04-12T09:52:49.605Z</time></trkpt><trkpt lat="44.0423961" lon="12.5359426"><ele>13.0</ele><time>2026-04-12T09:52:50.605Z</time></trkpt><trkpt lat="44.0425689" lon="12.5361249"><ele>13.0</ele><time>2026-04-12T09:52:51.605Z</time></trkpt><trkpt lat="44.0427443" lon="12.5363054"><ele>13.0</ele><time>2026-04-12T09:52:52.605Z</time></trkpt><trkpt lat="44.0429086" lon="12.5364934"><ele>13.0</ele><time>2026-04-12T09:52:53.605Z</time></trkpt><trkpt lat="44.0430599" lon="12.5366702"><ele>13.0</ele><time>2026-04-12T09:52:54.604Z</time></trkpt><trkpt lat="44.0432042" lon="12.5368353"><ele>13.0</ele><time>2026-04-12T09:52:55.604Z</time></trkpt><trkpt lat="44.0433482" lon="12.5369773"><ele>13.0</ele><time>2026-04-12T09:52:56.605Z</time></trkpt><trkpt lat="44.0435122" lon="12.5370881"><ele>16.666666666666664</ele><time>2026-04-12T09:52:57.605Z</time></trkpt><trkpt lat="44.0436877" lon="12.5371628"><ele>20.333333333333332</ele><time>2026-04-12T09:52:58.604Z</time></trkpt><trkpt lat="44.0438442" lon="12.5371916"><ele>24.0</ele><time>2026-04-12T09:52:59.604Z</time></trkpt><trkpt lat="44.0439762" lon="12.5372053"><ele>24.0</ele><time>2026-04-12T09:53:00.605Z</time></trkpt><trkpt lat="44.0440814" lon="12.5372223"><ele>24.0</ele><time>2026-04-12T09:53:01.605Z</time></trkpt><trkpt lat="44.0441583" lon="12.5372874"><ele>24.0</ele><time>2026-04-12T09:53:02.604Z</time></trkpt><trkpt lat="44.0442033" lon="12.5374176"><ele>24.0</ele><time>2026-04-12T09:53:03.605Z</time></trkpt><trkpt lat="44.0442315" lon="12.5375977"><ele>24.0</ele><time>2026-04-12T09:53:04.605Z</time></trkpt><trkpt lat="44.0442511" lon="12.5378082"><ele>24.666666666666664</ele><time>2026-04-12T09:53:05.605Z</time></trkpt><trkpt lat="44.0442907" lon="12.5380155"><ele>25.333333333333332</ele><time>2026-04-12T09:53:06.605Z</time></trkpt><trkpt lat="44.0443608" lon="12.5382034"><ele>26.0</ele><time>2026-04-12T09:53:07.604Z</time></trkpt><trkpt lat="44.044465" lon="12.5383613"><ele>26.0</ele><time>2026-04-12T09:53:08.604Z</time></trkpt><trkpt lat="44.0445701" lon="12.538501"><ele>26.0</ele><time>2026-04-12T09:53:09.605Z</time></trkpt><trkpt lat="44.0446504" lon="12.538634"><ele>26.0</ele><time>2026-04-12T09:53:10.604Z</time></trkpt><trkpt lat="44.0446858" lon="12.5387778"><ele>26.0</ele><time>2026-04-12T09:53:11.604Z</time></trkpt><trkpt lat="44.0446811" lon="12.5389251"><ele>24.0</ele><time>2026-04-12T09:53:12.605Z</time></trkpt><trkpt lat="44.044612" lon="12.5390745"><ele>22.0</ele><time>2026-04-12T09:53:13.605Z</time></trkpt><trkpt lat="44.0444806" lon="12.5392159"><ele>20.0</ele><time>2026-04-12T09:53:14.605Z</time></trkpt><trkpt lat="44.0443424" lon="12.5393517"><ele>20.0</ele><time>2026-04-12T09:53:15.604Z</time></trkpt><trkpt lat="44.0442417" lon="12.5395118"><ele>20.0</ele><time>2026-04-12T09:53:16.606Z</time></trkpt><trkpt lat="44.0441867" lon="12.5397157"><ele>20.0</ele><time>2026-04-12T09:53:17.606Z</time></trkpt><trkpt lat="44.0441729" lon="12.5399619"><ele>17.0</ele><time>2026-04-12T09:53:18.606Z</time></trkpt><trkpt lat="44.0441837" lon="12.5402336"><ele>14.0</ele><time>2026-04-12T09:53:19.606Z</time></trkpt><trkpt lat="44.044209" lon="12.5405304"><ele>11.0</ele><time>2026-04-12T09:53:20.605Z</time></trkpt><trkpt lat="44.044238" lon="12.5408441"><ele>11.0</ele><time>2026-04-12T09:53:21.606Z</time></trkpt><trkpt lat="44.044266" lon="12.5411486"><ele>11.0</ele><time>2026-04-12T09:53:22.605Z</time></trkpt><trkpt lat="44.0442973" lon="12.5414224"><ele>11.0</ele><time>2026-04-12T09:53:23.605Z</time></trkpt><trkpt lat="44.0443286" lon="12.5416775"><ele>11.0</ele><time>2026-04-12T09:53:24.606Z</time></trkpt><trkpt lat="44.0443541" lon="12.541916"><ele>11.0</ele><time>2026-04-12T09:53:25.606Z</time></trkpt><trkpt lat="44.0443617" lon="12.542135"><ele>11.0</ele><time>2026-04-12T09:53:26.606Z</time></trkpt><trkpt lat="44.0443483" lon="12.5423583"><ele>11.0</ele><time>2026-04-12T09:53:27.606Z</time></trkpt><trkpt lat="44.0442983" lon="12.54257"><ele>11.0</ele><time>2026-04-12T09:53:28.606Z</time></trkpt><trkpt lat="44.044215" lon="12.5427867"><ele>11.0</ele><time>2026-04-12T09:53:29.606Z</time></trkpt><trkpt lat="44.04409" lon="12.5430217"><ele>14.0</ele><time>2026-04-12T09:53:30.605Z</time></trkpt><trkpt lat="44.0439517" lon="12.543285"><ele>17.0</ele><time>2026-04-12T09:53:31.606Z</time></trkpt><trkpt lat="44.0438033" lon="12.543575"><ele>14.0</ele><time>2026-04-12T09:53:32.606Z</time></trkpt><trkpt lat="44.043675" lon="12.5438767"><ele>11.0</ele><time>2026-04-12T09:53:33.606Z</time></trkpt><trkpt lat="44.0435667" lon="12.5441717"><ele>11.0</ele><time>2026-04-12T09:53:34.605Z</time></trkpt><trkpt lat="44.0434667" lon="12.5444483"><ele>11.0</ele><time>2026-04-12T09:53:35.606Z</time></trkpt><trkpt lat="44.0433733" lon="12.5447067"><ele>11.0</ele><time>2026-04-12T09:53:36.606Z</time></trkpt><trkpt lat="44.04329" lon="12.5449483"><ele>12.0</ele><time>2026-04-12T09:53:37.606Z</time></trkpt><trkpt lat="44.0432183" lon="12.545165"><ele>13.0</ele><time>2026-04-12T09:53:38.606Z</time></trkpt><trkpt lat="44.043165" lon="12.5453717"><ele>14.0</ele><time>2026-04-12T09:53:39.606Z</time></trkpt><trkpt lat="44.04316" lon="12.5455783"><ele>15.0</ele><time>2026-04-12T09:53:40.605Z</time></trkpt><trkpt lat="44.043185" lon="12.5457767"><ele>16.0</ele><time>2026-04-12T09:53:41.605Z</time></trkpt><trkpt lat="44.0432633" lon="12.5459567"><ele>17.0</ele><time>2026-04-12T09:53:42.606Z</time></trkpt><trkpt lat="44.0433733" lon="12.5461167"><ele>18.0</ele><time>2026-04-12T09:53:43.606Z</time></trkpt><trkpt lat="44.0434633" lon="12.5462633"><ele>19.0</ele><time>2026-04-12T09:53:44.606Z</time></trkpt><trkpt lat="44.0435433" lon="12.5464233"><ele>20.0</ele><time>2026-04-12T09:53:45.605Z</time></trkpt><trkpt lat="44.0436067" lon="12.5466017"><ele>21.0</ele><time>2026-04-12T09:53:46.605Z</time></trkpt><trkpt lat="44.04365" lon="12.5468033"><ele>21.0</ele><time>2026-04-12T09:53:47.605Z</time></trkpt><trkpt lat="44.0436917" lon="12.5470233"><ele>21.0</ele><time>2026-04-12T09:53:48.606Z</time></trkpt><trkpt lat="44.0437233" lon="12.5472433"><ele>21.0</ele><time>2026-04-12T09:53:49.605Z</time></trkpt><trkpt lat="44.0437433" lon="12.54745"><ele>20.5</ele><time>2026-04-12T09:53:50.605Z</time></trkpt><trkpt lat="44.0437683" lon="12.54764"><ele>20.0</ele><time>2026-04-12T09:53:51.605Z</time></trkpt><trkpt lat="44.0437867" lon="12.54782"><ele>19.5</ele><time>2026-04-12T09:53:52.606Z</time></trkpt><trkpt lat="44.043795" lon="12.547995"><ele>19.0</ele><time>2026-04-12T09:53:53.606Z</time></trkpt><trkpt lat="44.0438067" lon="12.54817"><ele>18.75</ele><time>2026-04-12T09:53:54.605Z</time></trkpt><trkpt lat="44.043815" lon="12.5483383"><ele>18.5</ele><time>2026-04-12T09:53:55.606Z</time></trkpt><trkpt lat="44.0438433" lon="12.5485017"><ele>18.25</ele><time>2026-04-12T09:53:56.606Z</time></trkpt><trkpt lat="44.0438817" lon="12.5486767"><ele>18.0</ele><time>2026-04-12T09:53:57.606Z</time></trkpt><trkpt lat="44.04395" lon="12.548875"><ele>17.333333333333332</ele><time>2026-04-12T09:53:58.606Z</time></trkpt><trkpt lat="44.044035" lon="12.5491033"><ele>16.666666666666664</ele><time>2026-04-12T09:53:59.606Z</time></trkpt><trkpt lat="44.044115" lon="12.5493267"><ele>16.0</ele><time>2026-04-12T09:54:00.606Z</time></trkpt><trkpt lat="44.0442017" lon="12.5495383"><ele>17.333333333333332</ele><time>2026-04-12T09:54:01.606Z</time></trkpt><trkpt lat="44.0443083" lon="12.5497383"><ele>18.666666666666668</ele><time>2026-04-12T09:54:02.606Z</time></trkpt><trkpt lat="44.044445" lon="12.54989"><ele>20.0</ele><time>2026-04-12T09:54:03.606Z</time></trkpt><trkpt lat="44.0445683" lon="12.5500083"><ele>20.0</ele><time>2026-04-12T09:54:04.606Z</time></trkpt><trkpt lat="44.0446717" lon="12.550125"><ele>20.0</ele><time>2026-04-12T09:54:05.606Z</time></trkpt><trkpt lat="44.04475" lon="12.550255"><ele>20.0</ele><time>2026-04-12T09:54:06.605Z</time></trkpt><trkpt lat="44.0448083" lon="12.550375"><ele>20.0</ele><time>2026-04-12T09:54:07.606Z</time></trkpt><trkpt lat="44.0448283" lon="12.55047"><ele>20.0</ele><time>2026-04-12T09:54:08.606Z</time></trkpt><trkpt lat="44.0448209" lon="12.5505709"><ele>21.0</ele><time>2026-04-12T09:54:15.592Z</time></trkpt><trkpt lat="44.0447633" lon="12.5507284"><ele>22.0</ele><time>2026-04-12T09:54:19.605Z</time></trkpt><trkpt lat="44.0447292" lon="12.5508267"><ele>23.0</ele><time>2026-04-12T09:54:20.605Z</time></trkpt><trkpt lat="44.0447277" lon="12.5509296"><ele>24.0</ele><time>2026-04-12T09:54:21.605Z</time></trkpt><trkpt lat="44.0447664" lon="12.5510395"><ele>25.0</ele><time>2026-04-12T09:54:22.605Z</time></trkpt><trkpt lat="44.0448295" lon="12.5511535"><ele>25.25</ele><time>2026-04-12T09:54:23.606Z</time></trkpt><trkpt lat="44.0448996" lon="12.5512811"><ele>25.5</ele><time>2026-04-12T09:54:24.606Z</time></trkpt><trkpt lat="44.0449691" lon="12.5514075"><ele>25.75</ele><time>2026-04-12T09:54:25.605Z</time></trkpt><trkpt lat="44.0450476" lon="12.551517"><ele>26.0</ele><time>2026-04-12T09:54:26.605Z</time></trkpt><trkpt lat="44.0451408" lon="12.5516067"><ele>24.2</ele><time>2026-04-12T09:54:27.606Z</time></trkpt><trkpt lat="44.0452272" lon="12.5516958"><ele>22.400000000000002</ele><time>2026-04-12T09:54:28.606Z</time></trkpt><trkpt lat="44.0453065" lon="12.5517838"><ele>20.6</ele><time>2026-04-12T09:54:29.605Z</time></trkpt><trkpt lat="44.0453813" lon="12.5518745"><ele>18.8</ele><time>2026-04-12T09:54:30.606Z</time></trkpt><trkpt lat="44.0454586" lon="12.551953"><ele>17.0</ele><time>2026-04-12T09:54:31.606Z</time></trkpt><trkpt lat="44.0455328" lon="12.552028"><ele>16.166666666666668</ele><time>2026-04-12T09:54:32.606Z</time></trkpt><trkpt lat="44.0456052" lon="12.5520957"><ele>15.333333333333334</ele><time>2026-04-12T09:54:33.606Z</time></trkpt><trkpt lat="44.0456723" lon="12.5521634"><ele>14.5</ele><time>2026-04-12T09:54:34.606Z</time></trkpt><trkpt lat="44.0457233" lon="12.5522212"><ele>13.666666666666668</ele><time>2026-04-12T09:54:35.606Z</time></trkpt><trkpt lat="44.0457955" lon="12.5523178"><ele>12.833333333333334</ele><time>2026-04-12T09:54:37.605Z</time></trkpt><trkpt lat="44.045864" lon="12.5524411"><ele>12.0</ele><time>2026-04-12T09:54:39.605Z</time></trkpt><trkpt lat="44.0459285" lon="12.5525665"><ele>12.0</ele><time>2026-04-12T09:54:41.606Z</time></trkpt><trkpt lat="44.0459558" lon="12.5526538"><ele>12.0</ele><time>2026-04-12T09:54:42.606Z</time></trkpt><trkpt lat="44.0459714" lon="12.5527606"><ele>12.0</ele><time>2026-04-12T09:54:43.606Z</time></trkpt><trkpt lat="44.0459755" lon="12.5528792"><ele>12.0</ele><time>2026-04-12T09:54:44.606Z</time></trkpt><trkpt lat="44.0459876" lon="12.5530103"><ele>12.0</ele><time>2026-04-12T09:54:45.606Z</time></trkpt><trkpt lat="44.045992" lon="12.553148"><ele>12.0</ele><time>2026-04-12T09:54:46.606Z</time></trkpt><trkpt lat="44.0459714" lon="12.5532993"><ele>12.333333333333332</ele><time>2026-04-12T09:54:47.606Z</time></trkpt><trkpt lat="44.0459173" lon="12.5534639"><ele>12.666666666666666</ele><time>2026-04-12T09:54:48.606Z</time></trkpt><trkpt lat="44.0458378" lon="12.5536413"><ele>13.0</ele><time>2026-04-12T09:54:49.606Z</time></trkpt><trkpt lat="44.0457494" lon="12.5538459"><ele>13.0</ele><time>2026-04-12T09:54:50.606Z</time></trkpt><trkpt lat="44.0456609" lon="12.5540693"><ele>13.0</ele><time>2026-04-12T09:54:51.605Z</time></trkpt><trkpt lat="44.0455761" lon="12.5543183"><ele>13.0</ele><time>2026-04-12T09:54:52.605Z</time></trkpt><trkpt lat="44.0454922" lon="12.5545819"><ele>12.333333333333332</ele><time>2026-04-12T09:54:53.606Z</time></trkpt><trkpt lat="44.0454072" lon="12.5548547"><ele>11.666666666666666</ele><time>2026-04-12T09:54:54.605Z</time></trkpt><trkpt lat="44.0453299" lon="12.555139"><ele>11.0</ele><time>2026-04-12T09:54:55.606Z</time></trkpt><trkpt lat="44.0452544" lon="12.5554304"><ele>10.5</ele><time>2026-04-12T09:54:56.606Z</time></trkpt><trkpt lat="44.0451749" lon="12.5557254"><ele>10.0</ele><time>2026-04-12T09:54:57.606Z</time></trkpt><trkpt lat="44.0450948" lon="12.55602"><ele>9.5</ele><time>2026-04-12T09:54:58.605Z</time></trkpt><trkpt lat="44.0450159" lon="12.5563151"><ele>9.0</ele><time>2026-04-12T09:54:59.605Z</time></trkpt><trkpt lat="44.0449347" lon="12.5566056"><ele>9.0</ele><time>2026-04-12T09:55:00.605Z</time></trkpt><trkpt lat="44.0448538" lon="12.556895"><ele>9.0</ele><time>2026-04-12T09:55:01.606Z</time></trkpt><trkpt lat="44.0447733" lon="12.557189"><ele>9.0</ele><time>2026-04-12T09:55:02.606Z</time></trkpt><trkpt lat="44.0446975" lon="12.5574809"><ele>9.666666666666666</ele><time>2026-04-12T09:55:03.606Z</time></trkpt><trkpt lat="44.0446222" lon="12.5577579"><ele>10.333333333333332</ele><time>2026-04-12T09:55:04.605Z</time></trkpt><trkpt lat="44.044554" lon="12.5580189"><ele>11.0</ele><time>2026-04-12T09:55:05.605Z</time></trkpt><trkpt lat="44.0444902" lon="12.5582632"><ele>11.0</ele><time>2026-04-12T09:55:06.605Z</time></trkpt><trkpt lat="44.0444336" lon="12.5584944"><ele>11.0</ele><time>2026-04-12T09:55:07.606Z</time></trkpt><trkpt lat="44.0443826" lon="12.5587085"><ele>11.0</ele><time>2026-04-12T09:55:08.606Z</time></trkpt><trkpt lat="44.0443333" lon="12.5588949"><ele>10.8</ele><time>2026-04-12T09:55:09.606Z</time></trkpt><trkpt lat="44.0442882" lon="12.5590647"><ele>10.600000000000001</ele><time>2026-04-12T09:55:10.605Z</time></trkpt><trkpt lat="44.0442426" lon="12.5592037"><ele>10.4</ele><time>2026-04-12T09:55:11.605Z</time></trkpt><trkpt lat="44.0441844" lon="12.559315"><ele>10.2</ele><time>2026-04-12T09:55:12.606Z</time></trkpt><trkpt lat="44.0441026" lon="12.5593985"><ele>10.0</ele><time>2026-04-12T09:55:13.606Z</time></trkpt><trkpt lat="44.044006" lon="12.559447"><ele>10.333333333333334</ele><time>2026-04-12T09:55:14.605Z</time></trkpt><trkpt lat="44.0439181" lon="12.5594925"><ele>10.666666666666668</ele><time>2026-04-12T09:55:15.606Z</time></trkpt><trkpt lat="44.0438551" lon="12.5595724"><ele>11.0</ele><time>2026-04-12T09:55:16.606Z</time></trkpt><trkpt lat="44.0438176" lon="12.5596743"><ele>11.333333333333334</ele><time>2026-04-12T09:55:17.605Z</time></trkpt><trkpt lat="44.0438098" lon="12.5597753"><ele>11.666666666666666</ele><time>2026-04-12T09:55:18.605Z</time></trkpt><trkpt lat="44.0438258" lon="12.5598796"><ele>12.0</ele><time>2026-04-12T09:55:19.606Z</time></trkpt><trkpt lat="44.0438726" lon="12.5599702"><ele>12.0</ele><time>2026-04-12T09:55:20.606Z</time></trkpt><trkpt lat="44.0439432" lon="12.5600345"><ele>12.0</ele><time>2026-04-12T09:55:21.605Z</time></trkpt><trkpt lat="44.0440264" lon="12.5600757"><ele>12.0</ele><time>2026-04-12T09:55:22.606Z</time></trkpt><trkpt lat="44.0441098" lon="12.5600904"><ele>12.0</ele><time>2026-04-12T09:55:23.606Z</time></trkpt><trkpt lat="44.044192" lon="12.5600921"><ele>12.0</ele><time>2026-04-12T09:55:24.605Z</time></trkpt><trkpt lat="44.0442702" lon="12.5601063"><ele>12.0</ele><time>2026-04-12T09:55:25.606Z</time></trkpt><trkpt lat="44.0443424" lon="12.5601491"><ele>12.0</ele><time>2026-04-12T09:55:26.605Z</time></trkpt><trkpt lat="44.0444146" lon="12.5602142"><ele>12.0</ele><time>2026-04-12T09:55:27.606Z</time></trkpt><trkpt lat="44.04449" lon="12.5602995"><ele>12.0</ele><time>2026-04-12T09:55:28.606Z</time></trkpt><trkpt lat="44.0445691" lon="12.5603957"><ele>12.0</ele><time>2026-04-12T09:55:29.606Z</time></trkpt><trkpt lat="44.0446463" lon="12.5604993"><ele>12.0</ele><time>2026-04-12T09:55:30.606Z</time></trkpt><trkpt lat="44.0447188" lon="12.5606024"><ele>12.0</ele><time>2026-04-12T09:55:31.605Z</time></trkpt><trkpt lat="44.0447908" lon="12.5606997"><ele>12.0</ele><time>2026-04-12T09:55:32.606Z</time></trkpt><trkpt lat="44.0448549" lon="12.5607923"><ele>12.0</ele><time>2026-04-12T09:55:33.605Z</time></trkpt><trkpt lat="44.0449055" lon="12.5608675"><ele>12.0</ele><time>2026-04-12T09:55:34.605Z</time></trkpt><trkpt lat="44.0449629" lon="12.5610059"><ele>12.0</ele><time>2026-04-12T09:55:36.606Z</time></trkpt><trkpt lat="44.0449004" lon="12.5611783"><ele>11.75</ele><time>2026-04-12T09:55:38.606Z</time></trkpt><trkpt lat="44.044803" lon="12.5613004"><ele>11.5</ele><time>2026-04-12T09:55:39.606Z</time></trkpt><trkpt lat="44.0446919" lon="12.5614424"><ele>11.25</ele><time>2026-04-12T09:55:40.605Z</time></trkpt><trkpt lat="44.0445682" lon="12.5615891"><ele>11.0</ele><time>2026-04-12T09:55:41.606Z</time></trkpt><trkpt lat="44.0444563" lon="12.5617334"><ele>11.0</ele><time>2026-04-12T09:55:42.606Z</time></trkpt><trkpt lat="44.0443514" lon="12.5618742"><ele>11.0</ele><time>2026-04-12T09:55:43.606Z</time></trkpt><trkpt lat="44.0442449" lon="12.5620188"><ele>11.0</ele><time>2026-04-12T09:55:44.605Z</time></trkpt><trkpt lat="44.0441417" lon="12.5621718"><ele>11.0</ele><time>2026-04-12T09:55:45.606Z</time></trkpt><trkpt lat="44.044036" lon="12.5623243"><ele>10.75</ele><time>2026-04-12T09:55:46.606Z</time></trkpt><trkpt lat="44.0439311" lon="12.5624623"><ele>10.5</ele><time>2026-04-12T09:55:47.605Z</time></trkpt><trkpt lat="44.0438392" lon="12.5625945"><ele>10.25</ele><time>2026-04-12T09:55:48.606Z</time></trkpt><trkpt lat="44.0437625" lon="12.5627154"><ele>10.0</ele><time>2026-04-12T09:55:49.606Z</time></trkpt><trkpt lat="44.043702" lon="12.5628126"><ele>10.0</ele><time>2026-04-12T09:55:50.606Z</time></trkpt><trkpt lat="44.043651" lon="12.5628775"><ele>10.0</ele><time>2026-04-12T09:55:51.606Z</time></trkpt><trkpt lat="44.0436405" lon="12.5630086"><ele>10.0</ele><time>2026-04-12T09:55:53.606Z</time></trkpt><trkpt lat="44.0436885" lon="12.5631025"><ele>10.0</ele><time>2026-04-12T09:55:54.606Z</time></trkpt><trkpt lat="44.0437543" lon="12.5631901"><ele>10.0</ele><time>2026-04-12T09:55:55.605Z</time></trkpt><trkpt lat="44.0438206" lon="12.5632617"><ele>10.0</ele><time>2026-04-12T09:55:56.605Z</time></trkpt><trkpt lat="44.0438675" lon="12.5633223"><ele>10.0</ele><time>2026-04-12T09:55:57.606Z</time></trkpt><trkpt lat="44.0438698" lon="12.5634584"><ele>10.0</ele><time>2026-04-12T09:55:59.606Z</time></trkpt><trkpt lat="44.0438319" lon="12.5635493"><ele>10.0</ele><time>2026-04-12T09:56:00.606Z</time></trkpt><trkpt lat="44.0438082" lon="12.5636562"><ele>10.0</ele><time>2026-04-12T09:56:01.606Z</time></trkpt><trkpt lat="44.04381" lon="12.5637734"><ele>10.0</ele><time>2026-04-12T09:56:02.606Z</time></trkpt><trkpt lat="44.0438583" lon="12.5638854"><ele>10.0</ele><time>2026-04-12T09:56:03.606Z</time></trkpt><trkpt lat="44.0439379" lon="12.5639949"><ele>9.8</ele><time>2026-04-12T09:56:04.605Z</time></trkpt><trkpt lat="44.0440265" lon="12.5641051"><ele>9.6</ele><time>2026-04-12T09:56:05.606Z</time></trkpt><trkpt lat="44.0441042" lon="12.5642089"><ele>9.4</ele><time>2026-04-12T09:56:06.605Z</time></trkpt><trkpt lat="44.0441753" lon="12.5643065"><ele>9.2</ele><time>2026-04-12T09:56:07.606Z</time></trkpt><trkpt lat="44.0442509" lon="12.5644038"><ele>9.0</ele><time>2026-04-12T09:56:08.605Z</time></trkpt><trkpt lat="44.0443293" lon="12.564508"><ele>9.0</ele><time>2026-04-12T09:56:09.606Z</time></trkpt><trkpt lat="44.0444019" lon="12.5646069"><ele>9.0</ele><time>2026-04-12T09:56:10.605Z</time></trkpt><trkpt lat="44.0444763" lon="12.5647176"><ele>9.0</ele><time>2026-04-12T09:56:11.606Z</time></trkpt><trkpt lat="44.0445613" lon="12.5648413"><ele>9.0</ele><time>2026-04-12T09:56:12.606Z</time></trkpt><trkpt lat="44.0446546" lon="12.56498"><ele>9.0</ele><time>2026-04-12T09:56:13.606Z</time></trkpt><trkpt lat="44.0447586" lon="12.5651237"><ele>9.0</ele><time>2026-04-12T09:56:14.606Z</time></trkpt><trkpt lat="44.0448539" lon="12.5652526"><ele>9.0</ele><time>2026-04-12T09:56:15.606Z</time></trkpt><trkpt lat="44.0449396" lon="12.565367"><ele>9.0</ele><time>2026-04-12T09:56:16.606Z</time></trkpt><trkpt lat="44.045015" lon="12.5654661"><ele>8.8</ele><time>2026-04-12T09:56:17.605Z</time></trkpt><trkpt lat="44.045075" lon="12.5655469"><ele>8.600000000000001</ele><time>2026-04-12T09:56:18.606Z</time></trkpt><trkpt lat="44.0451443" lon="12.56566"><ele>8.4</ele><time>2026-04-12T09:56:20.606Z</time></trkpt><trkpt lat="44.0451184" lon="12.5658412"><ele>8.200000000000001</ele><time>2026-04-12T09:56:22.606Z</time></trkpt><trkpt lat="44.045061" lon="12.5659641"><ele>8.0</ele><time>2026-04-12T09:56:23.605Z</time></trkpt><trkpt lat="44.0449696" lon="12.5661143"><ele>7.666666666666666</ele><time>2026-04-12T09:56:24.606Z</time></trkpt><trkpt lat="44.0448555" lon="12.5662771"><ele>7.333333333333334</ele><time>2026-04-12T09:56:25.606Z</time></trkpt><trkpt lat="44.0447219" lon="12.5664562"><ele>7.0</ele><time>2026-04-12T09:56:26.606Z</time></trkpt><trkpt lat="44.044586" lon="12.5666473"><ele>7.0</ele><time>2026-04-12T09:56:27.606Z</time></trkpt><trkpt lat="44.0444476" lon="12.5668455"><ele>7.0</ele><time>2026-04-12T09:56:28.606Z</time></trkpt><trkpt lat="44.0443013" lon="12.5670548"><ele>7.0</ele><time>2026-04-12T09:56:29.606Z</time></trkpt><trkpt lat="44.0441482" lon="12.5672686"><ele>7.5</ele><time>2026-04-12T09:56:30.606Z</time></trkpt><trkpt lat="44.043991" lon="12.5674915"><ele>8.0</ele><time>2026-04-12T09:56:31.606Z</time></trkpt><trkpt lat="44.0438296" lon="12.5677264"><ele>8.5</ele><time>2026-04-12T09:56:32.605Z</time></trkpt><trkpt lat="44.043665" lon="12.5679699"><ele>9.0</ele><time>2026-04-12T09:56:33.606Z</time></trkpt><trkpt lat="44.0435019" lon="12.5682146"><ele>9.0</ele><time>2026-04-12T09:56:34.605Z</time></trkpt><trkpt lat="44.0433441" lon="12.5684486"><ele>9.0</ele><time>2026-04-12T09:56:35.606Z</time></trkpt><trkpt lat="44.0431946" lon="12.5686667"><ele>9.0</ele><time>2026-04-12T09:56:36.606Z</time></trkpt><trkpt lat="44.0430503" lon="12.5688741"><ele>10.333333333333332</ele><time>2026-04-12T09:56:37.606Z</time></trkpt><trkpt lat="44.0429205" lon="12.5690881"><ele>11.666666666666666</ele><time>2026-04-12T09:56:38.605Z</time></trkpt><trkpt lat="44.0428104" lon="12.5693214"><ele>13.0</ele><time>2026-04-12T09:56:39.606Z</time></trkpt><trkpt lat="44.0427172" lon="12.5695718"><ele>13.0</ele><time>2026-04-12T09:56:40.605Z</time></trkpt><trkpt lat="44.042647" lon="12.5698346"><ele>13.0</ele><time>2026-04-12T09:56:41.606Z</time></trkpt><trkpt lat="44.0425904" lon="12.5701041"><ele>13.0</ele><time>2026-04-12T09:56:42.606Z</time></trkpt><trkpt lat="44.0425385" lon="12.5703601"><ele>12.666666666666666</ele><time>2026-04-12T09:56:43.606Z</time></trkpt><trkpt lat="44.0424856" lon="12.5706036"><ele>12.333333333333332</ele><time>2026-04-12T09:56:44.606Z</time></trkpt><trkpt lat="44.0424372" lon="12.5708364"><ele>12.0</ele><time>2026-04-12T09:56:45.606Z</time></trkpt><trkpt lat="44.0423979" lon="12.5710715"><ele>11.333333333333334</ele><time>2026-04-12T09:56:46.606Z</time></trkpt><trkpt lat="44.0423735" lon="12.5713159"><ele>10.666666666666668</ele><time>2026-04-12T09:56:47.606Z</time></trkpt><trkpt lat="44.0423775" lon="12.5715723"><ele>10.0</ele><time>2026-04-12T09:56:48.606Z</time></trkpt><trkpt lat="44.0424103" lon="12.5718117"><ele>10.0</ele><time>2026-04-12T09:56:49.606Z</time></trkpt><trkpt lat="44.0424826" lon="12.5720139"><ele>10.0</ele><time>2026-04-12T09:56:50.606Z</time></trkpt><trkpt lat="44.0425724" lon="12.5722343"><ele>10.0</ele><time>2026-04-12T09:56:51.606Z</time></trkpt><trkpt lat="44.0426929" lon="12.5724273"><ele>10.0</ele><time>2026-04-12T09:56:52.606Z</time></trkpt><trkpt lat="44.0428208" lon="12.5726115"><ele>10.0</ele><time>2026-04-12T09:56:53.605Z</time></trkpt><trkpt lat="44.0429477" lon="12.5727787"><ele>10.0</ele><time>2026-04-12T09:56:54.605Z</time></trkpt><trkpt lat="44.0430665" lon="12.5729393"><ele>10.0</ele><time>2026-04-12T09:56:55.605Z</time></trkpt><trkpt lat="44.04318" lon="12.5730928"><ele>10.0</ele><time>2026-04-12T09:56:56.605Z</time></trkpt><trkpt lat="44.0432947" lon="12.5732434"><ele>10.0</ele><time>2026-04-12T09:56:57.606Z</time></trkpt><trkpt lat="44.0434031" lon="12.5733958"><ele>10.0</ele><time>2026-04-12T09:56:58.605Z</time></trkpt><trkpt lat="44.0435068" lon="12.5735431"><ele>10.0</ele><time>2026-04-12T09:56:59.605Z</time></trkpt><trkpt lat="44.0436076" lon="12.5736936"><ele>10.0</ele><time>2026-04-12T09:57:00.606Z</time></trkpt><trkpt lat="44.0437125" lon="12.573852"><ele>10.0</ele><time>2026-04-12T09:57:01.606Z</time></trkpt><trkpt lat="44.0438269" lon="12.5740141"><ele>10.0</ele><time>2026-04-12T09:57:02.605Z</time></trkpt><trkpt lat="44.0439431" lon="12.5741752"><ele>10.0</ele><time>2026-04-12T09:57:03.606Z</time></trkpt><trkpt lat="44.0440564" lon="12.5743371"><ele>10.25</ele><time>2026-04-12T09:57:04.606Z</time></trkpt><trkpt lat="44.0441622" lon="12.5744927"><ele>10.5</ele><time>2026-04-12T09:57:05.606Z</time></trkpt><trkpt lat="44.0442627" lon="12.5746381"><ele>10.75</ele><time>2026-04-12T09:57:06.605Z</time></trkpt><trkpt lat="44.0443566" lon="12.5747726"><ele>11.0</ele><time>2026-04-12T09:57:07.605Z</time></trkpt><trkpt lat="44.0444427" lon="12.5748971"><ele>11.0</ele><time>2026-04-12T09:57:08.606Z</time></trkpt><trkpt lat="44.0445147" lon="12.5750105"><ele>11.0</ele><time>2026-04-12T09:57:09.606Z</time></trkpt><trkpt lat="44.0445792" lon="12.5751133"><ele>11.0</ele><time>2026-04-12T09:57:10.606Z</time></trkpt><trkpt lat="44.0446368" lon="12.575206"><ele>11.0</ele><time>2026-04-12T09:57:11.605Z</time></trkpt><trkpt lat="44.0446888" lon="12.5752915"><ele>11.0</ele><time>2026-04-12T09:57:12.605Z</time></trkpt><trkpt lat="44.0447282" lon="12.5753763"><ele>11.0</ele><time>2026-04-12T09:57:13.606Z</time></trkpt><trkpt lat="44.0447465" lon="12.5754636"><ele>11.0</ele><time>2026-04-12T09:57:14.606Z</time></trkpt><trkpt lat="44.0447502" lon="12.5755536"><ele>11.0</ele><time>2026-04-12T09:57:15.606Z</time></trkpt><trkpt lat="44.0448" lon="12.575695"><ele>11.0</ele><time>2026-04-12T09:57:17.606Z</time></trkpt><trkpt lat="44.0448649" lon="12.5757313"><ele>11.0</ele><time>2026-04-12T09:57:18.606Z</time></trkpt><trkpt lat="44.0449328" lon="12.5757531"><ele>11.0</ele><time>2026-04-12T09:57:19.606Z</time></trkpt><trkpt lat="44.0449991" lon="12.5757835"><ele>11.0</ele><time>2026-04-12T09:57:20.606Z</time></trkpt><trkpt lat="44.0450632" lon="12.5758346"><ele>10.8</ele><time>2026-04-12T09:57:21.606Z</time></trkpt><trkpt lat="44.0451268" lon="12.5759046"><ele>10.600000000000001</ele><time>2026-04-12T09:57:22.605Z</time></trkpt><trkpt lat="44.0451917" lon="12.576001"><ele>10.4</ele><time>2026-04-12T09:57:23.606Z</time></trkpt><trkpt lat="44.0452685" lon="12.5761237"><ele>10.2</ele><time>2026-04-12T09:57:24.606Z</time></trkpt><trkpt lat="44.0453663" lon="12.57627"><ele>10.0</ele><time>2026-04-12T09:57:25.606Z</time></trkpt><trkpt lat="44.0454802" lon="12.5764394"><ele>10.0</ele><time>2026-04-12T09:57:26.606Z</time></trkpt><trkpt lat="44.0456067" lon="12.5766197"><ele>10.0</ele><time>2026-04-12T09:57:27.605Z</time></trkpt><trkpt lat="44.0457426" lon="12.5768101"><ele>10.0</ele><time>2026-04-12T09:57:28.606Z</time></trkpt><trkpt lat="44.045892" lon="12.5770099"><ele>9.333333333333334</ele><time>2026-04-12T09:57:29.606Z</time></trkpt><trkpt lat="44.0460383" lon="12.5772119"><ele>8.666666666666666</ele><time>2026-04-12T09:57:30.606Z</time></trkpt><trkpt lat="44.0461758" lon="12.5774031"><ele>8.0</ele><time>2026-04-12T09:57:31.605Z</time></trkpt><trkpt lat="44.0463112" lon="12.5775965"><ele>8.0</ele><time>2026-04-12T09:57:32.606Z</time></trkpt><trkpt lat="44.046449" lon="12.5777985"><ele>8.0</ele><time>2026-04-12T09:57:33.605Z</time></trkpt><trkpt lat="44.046584" lon="12.5779963"><ele>8.0</ele><time>2026-04-12T09:57:34.605Z</time></trkpt><trkpt lat="44.0467088" lon="12.5781846"><ele>7.333333333333333</ele><time>2026-04-12T09:57:35.606Z</time></trkpt><trkpt lat="44.046832" lon="12.5783661"><ele>6.666666666666666</ele><time>2026-04-12T09:57:36.606Z</time></trkpt><trkpt lat="44.0469548" lon="12.5785397"><ele>6.0</ele><time>2026-04-12T09:57:37.606Z</time></trkpt><trkpt lat="44.0470766" lon="12.5787156"><ele>6.0</ele><time>2026-04-12T09:57:38.606Z</time></trkpt><trkpt lat="44.0471978" lon="12.5788927"><ele>6.0</ele><time>2026-04-12T09:57:39.606Z</time></trkpt><trkpt lat="44.047317" lon="12.5790584"><ele>6.0</ele><time>2026-04-12T09:57:40.605Z</time></trkpt><trkpt lat="44.047428" lon="12.5792127"><ele>5.75</ele><time>2026-04-12T09:57:41.605Z</time></trkpt><trkpt lat="44.0475293" lon="12.5793575"><ele>5.5</ele><time>2026-04-12T09:57:42.605Z</time></trkpt><trkpt lat="44.0476174" lon="12.5794896"><ele>5.25</ele><time>2026-04-12T09:57:43.606Z</time></trkpt><trkpt lat="44.047696" lon="12.5796082"><ele>5.0</ele><time>2026-04-12T09:57:44.605Z</time></trkpt><trkpt lat="44.0477658" lon="12.5797158"><ele>5.4</ele><time>2026-04-12T09:57:45.606Z</time></trkpt><trkpt lat="44.0478274" lon="12.5798124"><ele>5.8</ele><time>2026-04-12T09:57:46.606Z</time></trkpt><trkpt lat="44.0478807" lon="12.5798883"><ele>6.199999999999999</ele><time>2026-04-12T09:57:47.605Z</time></trkpt><trkpt lat="44.0479451" lon="12.5799746"><ele>6.6</ele><time>2026-04-12T09:57:49.606Z</time></trkpt><trkpt lat="44.0479975" lon="12.580044"><ele>7.0</ele><time>2026-04-12T09:57:53.606Z</time></trkpt><trkpt lat="44.0480937" lon="12.5801664"><ele>7.0</ele><time>2026-04-12T09:57:55.605Z</time></trkpt><trkpt lat="44.0481846" lon="12.580232"><ele>7.0</ele><time>2026-04-12T09:57:56.605Z</time></trkpt><trkpt lat="44.0482932" lon="12.5803373"><ele>7.0</ele><time>2026-04-12T09:57:57.605Z</time></trkpt><trkpt lat="44.04842" lon="12.5804794"><ele>7.0</ele><time>2026-04-12T09:57:58.605Z</time></trkpt><trkpt lat="44.0485628" lon="12.5806473"><ele>6.333333333333334</ele><time>2026-04-12T09:57:59.605Z</time></trkpt><trkpt lat="44.0487135" lon="12.5808182"><ele>5.666666666666667</ele><time>2026-04-12T09:58:00.606Z</time></trkpt><trkpt lat="44.0488589" lon="12.580976"><ele>5.0</ele><time>2026-04-12T09:58:01.605Z</time></trkpt><trkpt lat="44.048996" lon="12.5811239"><ele>4.333333333333334</ele><time>2026-04-12T09:58:02.606Z</time></trkpt><trkpt lat="44.0491307" lon="12.581266"><ele>3.666666666666667</ele><time>2026-04-12T09:58:03.605Z</time></trkpt><trkpt lat="44.0492575" lon="12.5814081"><ele>3.0</ele><time>2026-04-12T09:58:04.606Z</time></trkpt><trkpt lat="44.0493792" lon="12.5815494"><ele>3.0</ele><time>2026-04-12T09:58:05.606Z</time></trkpt><trkpt lat="44.0494945" lon="12.5816846"><ele>3.0</ele><time>2026-04-12T09:58:06.606Z</time></trkpt><trkpt lat="44.0496021" lon="12.581814"><ele>3.0</ele><time>2026-04-12T09:58:07.605Z</time></trkpt><trkpt lat="44.0497111" lon="12.5819427"><ele>3.0</ele><time>2026-04-12T09:58:08.606Z</time></trkpt><trkpt lat="44.0498278" lon="12.5820806"><ele>3.0</ele><time>2026-04-12T09:58:09.605Z</time></trkpt><trkpt lat="44.0499517" lon="12.5822329"><ele>3.0</ele><time>2026-04-12T09:58:10.606Z</time></trkpt><trkpt lat="44.0500717" lon="12.5823872"><ele>3.0</ele><time>2026-04-12T09:58:11.606Z</time></trkpt><trkpt lat="44.0501839" lon="12.5825309"><ele>3.25</ele><time>2026-04-12T09:58:12.606Z</time></trkpt><trkpt lat="44.0502896" lon="12.5826657"><ele>3.5</ele><time>2026-04-12T09:58:13.606Z</time></trkpt><trkpt lat="44.0503883" lon="12.5827891"><ele>3.75</ele><time>2026-04-12T09:58:14.605Z</time></trkpt><trkpt lat="44.0504787" lon="12.5829058"><ele>4.0</ele><time>2026-04-12T09:58:15.606Z</time></trkpt><trkpt lat="44.0505555" lon="12.5830081"><ele>3.9999999999999996</ele><time>2026-04-12T09:58:16.606Z</time></trkpt><trkpt lat="44.0506164" lon="12.5830829"><ele>4.0</ele><time>2026-04-12T09:58:17.606Z</time></trkpt><trkpt lat="44.0507078" lon="12.5831893"><ele>4.0</ele><time>2026-04-12T09:58:19.606Z</time></trkpt><trkpt lat="44.0507533" lon="12.5832638"><ele>4.0</ele><time>2026-04-12T09:58:20.606Z</time></trkpt><trkpt lat="44.0507926" lon="12.5833443"><ele>3.9999999999999996</ele><time>2026-04-12T09:58:21.606Z</time></trkpt><trkpt lat="44.0508232" lon="12.5834242"><ele>4.0</ele><time>2026-04-12T09:58:22.605Z</time></trkpt><trkpt lat="44.0508566" lon="12.5835353"><ele>4.0</ele><time>2026-04-12T09:58:24.606Z</time></trkpt><trkpt lat="44.0508586" lon="12.5837047"><ele>4.0</ele><time>2026-04-12T09:58:32.606Z</time></trkpt><trkpt lat="44.0508394" lon="12.5838668"><ele>4.0</ele><time>2026-04-12T09:58:33.607Z</time></trkpt><trkpt lat="44.0508121" lon="12.5840057"><ele>4.0</ele><time>2026-04-12T09:58:34.607Z</time></trkpt><trkpt lat="44.0507792" lon="12.5841351"><ele>4.0</ele><time>2026-04-12T09:58:35.606Z</time></trkpt><trkpt lat="44.05074" lon="12.584265"><ele>4.0</ele><time>2026-04-12T09:58:36.607Z</time></trkpt><trkpt lat="44.050695" lon="12.5844058"><ele>4.0</ele><time>2026-04-12T09:58:37.606Z</time></trkpt><trkpt lat="44.0506462" lon="12.5845708"><ele>4.0</ele><time>2026-04-12T09:58:38.607Z</time></trkpt><trkpt lat="44.050591" lon="12.5847504"><ele>4.0</ele><time>2026-04-12T09:58:39.607Z</time></trkpt><trkpt lat="44.0505295" lon="12.5849252"><ele>4.0</ele><time>2026-04-12T09:58:40.606Z</time></trkpt><trkpt lat="44.0504664" lon="12.585079"><ele>4.0</ele><time>2026-04-12T09:58:41.607Z</time></trkpt><trkpt lat="44.0504034" lon="12.585233"><ele>4.0</ele><time>2026-04-12T09:58:42.606Z</time></trkpt><trkpt lat="44.0503388" lon="12.5853864"><ele>4.0</ele><time>2026-04-12T09:58:43.606Z</time></trkpt><trkpt lat="44.0502677" lon="12.5855232"><ele>4.0</ele><time>2026-04-12T09:58:44.606Z</time></trkpt><trkpt lat="44.0501994" lon="12.5856669"><ele>4.0</ele><time>2026-04-12T09:58:45.607Z</time></trkpt><trkpt lat="44.0501258" lon="12.5858092"><ele>4.0</ele><time>2026-04-12T09:58:46.607Z</time></trkpt><trkpt lat="44.0500499" lon="12.5859505"><ele>4.0</ele><time>2026-04-12T09:58:47.607Z</time></trkpt><trkpt lat="44.0499778" lon="12.586093"><ele>4.4</ele><time>2026-04-12T09:58:48.607Z</time></trkpt><trkpt lat="44.0499081" lon="12.5862368"><ele>4.800000000000001</ele><time>2026-04-12T09:58:49.607Z</time></trkpt><trkpt lat="44.0498451" lon="12.5863665"><ele>5.199999999999999</ele><time>2026-04-12T09:58:50.607Z</time></trkpt><trkpt lat="44.0497961" lon="12.5864782"><ele>5.6</ele><time>2026-04-12T09:58:51.606Z</time></trkpt><trkpt lat="44.0497537" lon="12.5865656"><ele>6.0</ele><time>2026-04-12T09:58:52.606Z</time></trkpt><trkpt lat="44.0497051" lon="12.5866224"><ele>6.0</ele><time>2026-04-12T09:58:53.607Z</time></trkpt><trkpt lat="44.0496031" lon="12.5865828"><ele>6.0</ele><time>2026-04-12T09:58:55.606Z</time></trkpt><trkpt lat="44.0495517" lon="12.5865163"><ele>6.0</ele><time>2026-04-12T09:58:56.607Z</time></trkpt><trkpt lat="44.0494894" lon="12.5864202"><ele>6.0</ele><time>2026-04-12T09:58:57.606Z</time></trkpt><trkpt lat="44.0494256" lon="12.5863076"><ele>6.0</ele><time>2026-04-12T09:58:58.607Z</time></trkpt><trkpt lat="44.049371" lon="12.5861996"><ele>6.0</ele><time>2026-04-12T09:58:59.607Z</time></trkpt><trkpt lat="44.0493306" lon="12.5861139"><ele>6.0</ele><time>2026-04-12T09:59:00.606Z</time></trkpt><trkpt lat="44.0492652" lon="12.5860226"><ele>6.0</ele><time>2026-04-12T09:59:02.607Z</time></trkpt><trkpt lat="44.0491894" lon="12.5860648"><ele>6.0</ele><time>2026-04-12T09:59:04.607Z</time></trkpt><trkpt lat="44.0491381" lon="12.5861415"><ele>6.0</ele><time>2026-04-12T09:59:05.607Z</time></trkpt><trkpt lat="44.0490736" lon="12.5862381"><ele>6.0</ele><time>2026-04-12T09:59:06.607Z</time></trkpt><trkpt lat="44.0489985" lon="12.5863559"><ele>5.6</ele><time>2026-04-12T09:59:07.607Z</time></trkpt><trkpt lat="44.0489149" lon="12.5864722"><ele>5.199999999999999</ele><time>2026-04-12T09:59:08.607Z</time></trkpt><trkpt lat="44.0488335" lon="12.5865692"><ele>4.800000000000001</ele><time>2026-04-12T09:59:09.607Z</time></trkpt><trkpt lat="44.0487694" lon="12.58665"><ele>4.4</ele><time>2026-04-12T09:59:10.606Z</time></trkpt><trkpt lat="44.0487155" lon="12.5867155"><ele>4.0</ele><time>2026-04-12T09:59:11.606Z</time></trkpt><trkpt lat="44.0486343" lon="12.5867985"><ele>3.9999999999999996</ele><time>2026-04-12T09:59:13.606Z</time></trkpt><trkpt lat="44.0485603" lon="12.5867936"><ele>4.0</ele><time>2026-04-12T09:59:15.607Z</time></trkpt><trkpt lat="44.0485017" lon="12.586736"><ele>4.0</ele><time>2026-04-12T09:59:16.606Z</time></trkpt><trkpt lat="44.0484436" lon="12.5866643"><ele>4.0</ele><time>2026-04-12T09:59:17.606Z</time></trkpt><trkpt lat="44.0484032" lon="12.5865941"><ele>3.9999999999999996</ele><time>2026-04-12T09:59:18.607Z</time></trkpt><trkpt lat="44.0484275" lon="12.5864719"><ele>4.0</ele><time>2026-04-12T09:59:21.596Z</time></trkpt><trkpt lat="44.0485782" lon="12.5863155"><ele>4.0</ele><time>2026-04-12T09:59:23.606Z</time></trkpt><trkpt lat="44.0486434" lon="12.5862564"><ele>4.0</ele><time>2026-04-12T09:59:24.607Z</time></trkpt><trkpt lat="44.0487127" lon="12.5862125"><ele>4.0</ele><time>2026-04-12T09:59:26.607Z</time></trkpt><trkpt lat="44.048766" lon="12.586268"><ele>4.0</ele><time>2026-04-12T09:59:29.607Z</time></trkpt><trkpt lat="44.0487185" lon="12.5863297"><ele>4.0</ele><time>2026-04-12T10:02:15.642Z</time></trkpt><trkpt lat="44.0486363" lon="12.5865563"><ele>4.0</ele><time>2026-04-12T10:03:30.137Z</time></trkpt></trkseg></trk></gpx>